<?xml version="1.0" encoding="UTF-8" standalone="no" ?>
<gpx xmlns="http://www.topografix.com/GPX/1/1" xmlns:xsi="http://www.w3.org/2001/XMLSchema-instance" xsi:schemaLocation="http://www.topografix.com/GPX/1/1 http://www.topografix.com/GPX/1/1/gpx.xsd" version="1.1" creator="VisuGPX - https://www.visugpx.com">
  <metadata>
    <name>La Chapelle - Sucé sur Erdre</name>
  </metadata>
  <trk>
    <name><![CDATA[Cycling]]></name>
    <trkseg>
      <trkpt lat="47.29683" lon="-1.54875">
        <ele>27.4</ele>
        <time>2020-09-27T10:09:34.000Z</time>
      </trkpt>
      <trkpt lat="47.29684" lon="-1.54875">
        <ele>27.4</ele>
        <time>2020-09-27T10:09:35.000Z</time>
      </trkpt>
      <trkpt lat="47.29686" lon="-1.54874">
        <ele>27.4</ele>
        <time>2020-09-27T10:09:36.000Z</time>
      </trkpt>
      <trkpt lat="47.29688" lon="-1.54874">
        <ele>27.3</ele>
        <time>2020-09-27T10:09:37.000Z</time>
      </trkpt>
      <trkpt lat="47.2969" lon="-1.54873">
        <ele>27.3</ele>
        <time>2020-09-27T10:09:38.000Z</time>
      </trkpt>
      <trkpt lat="47.29692" lon="-1.54872">
        <ele>27.3</ele>
        <time>2020-09-27T10:09:39.000Z</time>
      </trkpt>
      <trkpt lat="47.29694" lon="-1.54872">
        <ele>27.2</ele>
        <time>2020-09-27T10:09:40.000Z</time>
      </trkpt>
      <trkpt lat="47.29696" lon="-1.54871">
        <ele>27.2</ele>
        <time>2020-09-27T10:09:41.000Z</time>
      </trkpt>
      <trkpt lat="47.29699" lon="-1.5487">
        <ele>27.1</ele>
        <time>2020-09-27T10:09:42.000Z</time>
      </trkpt>
      <trkpt lat="47.29701" lon="-1.54869">
        <ele>27.1</ele>
        <time>2020-09-27T10:09:43.000Z</time>
      </trkpt>
      <trkpt lat="47.29704" lon="-1.54868">
        <ele>27.1</ele>
        <time>2020-09-27T10:09:44.000Z</time>
      </trkpt>
      <trkpt lat="47.29706" lon="-1.54868">
        <ele>27</ele>
        <time>2020-09-27T10:09:45.000Z</time>
      </trkpt>
      <trkpt lat="47.29709" lon="-1.54868">
        <ele>27</ele>
        <time>2020-09-27T10:09:46.000Z</time>
      </trkpt>
      <trkpt lat="47.29711" lon="-1.54868">
        <ele>27</ele>
        <time>2020-09-27T10:09:47.000Z</time>
      </trkpt>
      <trkpt lat="47.29713" lon="-1.54868">
        <ele>27</ele>
        <time>2020-09-27T10:09:48.000Z</time>
      </trkpt>
      <trkpt lat="47.29715" lon="-1.54868">
        <ele>27</ele>
        <time>2020-09-27T10:09:49.000Z</time>
      </trkpt>
      <trkpt lat="47.29717" lon="-1.54869">
        <ele>27</ele>
        <time>2020-09-27T10:09:50.000Z</time>
      </trkpt>
      <trkpt lat="47.29719" lon="-1.54869">
        <ele>27</ele>
        <time>2020-09-27T10:09:51.000Z</time>
      </trkpt>
      <trkpt lat="47.29721" lon="-1.54869">
        <ele>27</ele>
        <time>2020-09-27T10:09:52.000Z</time>
      </trkpt>
      <trkpt lat="47.29723" lon="-1.54868">
        <ele>27</ele>
        <time>2020-09-27T10:09:53.000Z</time>
      </trkpt>
      <trkpt lat="47.29724" lon="-1.54866">
        <ele>26.9</ele>
        <time>2020-09-27T10:09:54.000Z</time>
      </trkpt>
      <trkpt lat="47.29724" lon="-1.54864">
        <ele>26.9</ele>
        <time>2020-09-27T10:09:55.000Z</time>
      </trkpt>
      <trkpt lat="47.29724" lon="-1.54862">
        <ele>26.8</ele>
        <time>2020-09-27T10:09:56.000Z</time>
      </trkpt>
      <trkpt lat="47.29724" lon="-1.54861">
        <ele>26.8</ele>
        <time>2020-09-27T10:09:57.000Z</time>
      </trkpt>
      <trkpt lat="47.29724" lon="-1.5486">
        <ele>26.7</ele>
        <time>2020-09-27T10:09:58.000Z</time>
      </trkpt>
      <trkpt lat="47.29724" lon="-1.54859">
        <ele>26.7</ele>
        <time>2020-09-27T10:09:59.000Z</time>
      </trkpt>
      <trkpt lat="47.29724" lon="-1.54859">
        <ele>26.7</ele>
        <time>2020-09-27T10:10:00.000Z</time>
      </trkpt>
      <trkpt lat="47.29724" lon="-1.54859">
        <ele>26.7</ele>
        <time>2020-09-27T10:10:01.000Z</time>
      </trkpt>
      <trkpt lat="47.29724" lon="-1.5486">
        <ele>26.7</ele>
        <time>2020-09-27T10:10:02.000Z</time>
      </trkpt>
      <trkpt lat="47.29724" lon="-1.5486">
        <ele>26.7</ele>
        <time>2020-09-27T10:10:03.000Z</time>
      </trkpt>
      <trkpt lat="47.29724" lon="-1.5486">
        <ele>26.7</ele>
        <time>2020-09-27T10:10:04.000Z</time>
      </trkpt>
      <trkpt lat="47.29724" lon="-1.5486">
        <ele>26.7</ele>
        <time>2020-09-27T10:10:05.000Z</time>
      </trkpt>
      <trkpt lat="47.29724" lon="-1.5486">
        <ele>26.7</ele>
        <time>2020-09-27T10:10:06.000Z</time>
      </trkpt>
      <trkpt lat="47.29724" lon="-1.5486">
        <ele>26.7</ele>
        <time>2020-09-27T10:10:07.000Z</time>
      </trkpt>
      <trkpt lat="47.29724" lon="-1.5486">
        <ele>26.7</ele>
        <time>2020-09-27T10:10:08.000Z</time>
      </trkpt>
      <trkpt lat="47.29724" lon="-1.5486">
        <ele>26.7</ele>
        <time>2020-09-27T10:10:09.000Z</time>
      </trkpt>
      <trkpt lat="47.29724" lon="-1.5486">
        <ele>26.7</ele>
        <time>2020-09-27T10:10:10.000Z</time>
      </trkpt>
      <trkpt lat="47.29724" lon="-1.5486">
        <ele>26.7</ele>
        <time>2020-09-27T10:10:11.000Z</time>
      </trkpt>
      <trkpt lat="47.29724" lon="-1.5486">
        <ele>26.7</ele>
        <time>2020-09-27T10:10:12.000Z</time>
      </trkpt>
      <trkpt lat="47.29724" lon="-1.5486">
        <ele>26.7</ele>
        <time>2020-09-27T10:10:13.000Z</time>
      </trkpt>
      <trkpt lat="47.29724" lon="-1.5486">
        <ele>26.7</ele>
        <time>2020-09-27T10:10:14.000Z</time>
      </trkpt>
      <trkpt lat="47.29724" lon="-1.5486">
        <ele>26.7</ele>
        <time>2020-09-27T10:10:15.000Z</time>
      </trkpt>
      <trkpt lat="47.29724" lon="-1.5486">
        <ele>26.7</ele>
        <time>2020-09-27T10:10:16.000Z</time>
      </trkpt>
      <trkpt lat="47.29724" lon="-1.5486">
        <ele>26.7</ele>
        <time>2020-09-27T10:10:17.000Z</time>
      </trkpt>
      <trkpt lat="47.29724" lon="-1.5486">
        <ele>26.7</ele>
        <time>2020-09-27T10:10:18.000Z</time>
      </trkpt>
      <trkpt lat="47.29724" lon="-1.5486">
        <ele>26.7</ele>
        <time>2020-09-27T10:10:19.000Z</time>
      </trkpt>
      <trkpt lat="47.29724" lon="-1.5486">
        <ele>26.7</ele>
        <time>2020-09-27T10:10:20.000Z</time>
      </trkpt>
      <trkpt lat="47.29724" lon="-1.5486">
        <ele>26.7</ele>
        <time>2020-09-27T10:10:21.000Z</time>
      </trkpt>
      <trkpt lat="47.29724" lon="-1.5486">
        <ele>26.7</ele>
        <time>2020-09-27T10:10:22.000Z</time>
      </trkpt>
      <trkpt lat="47.29724" lon="-1.5486">
        <ele>26.7</ele>
        <time>2020-09-27T10:10:23.000Z</time>
      </trkpt>
      <trkpt lat="47.29724" lon="-1.5486">
        <ele>26.7</ele>
        <time>2020-09-27T10:10:24.000Z</time>
      </trkpt>
      <trkpt lat="47.29724" lon="-1.5486">
        <ele>26.7</ele>
        <time>2020-09-27T10:10:25.000Z</time>
      </trkpt>
      <trkpt lat="47.29724" lon="-1.5486">
        <ele>26.7</ele>
        <time>2020-09-27T10:10:26.000Z</time>
      </trkpt>
      <trkpt lat="47.29724" lon="-1.5486">
        <ele>26.7</ele>
        <time>2020-09-27T10:10:27.000Z</time>
      </trkpt>
      <trkpt lat="47.29724" lon="-1.5486">
        <ele>26.7</ele>
        <time>2020-09-27T10:10:28.000Z</time>
      </trkpt>
      <trkpt lat="47.29724" lon="-1.5486">
        <ele>26.7</ele>
        <time>2020-09-27T10:10:29.000Z</time>
      </trkpt>
      <trkpt lat="47.29723" lon="-1.5486">
        <ele>26.7</ele>
        <time>2020-09-27T10:10:30.000Z</time>
      </trkpt>
      <trkpt lat="47.29723" lon="-1.5486">
        <ele>26.7</ele>
        <time>2020-09-27T10:10:31.000Z</time>
      </trkpt>
      <trkpt lat="47.29723" lon="-1.5486">
        <ele>26.7</ele>
        <time>2020-09-27T10:10:32.000Z</time>
      </trkpt>
      <trkpt lat="47.29723" lon="-1.5486">
        <ele>26.7</ele>
        <time>2020-09-27T10:10:33.000Z</time>
      </trkpt>
      <trkpt lat="47.29723" lon="-1.5486">
        <ele>26.7</ele>
        <time>2020-09-27T10:10:34.000Z</time>
      </trkpt>
      <trkpt lat="47.29724" lon="-1.5486">
        <ele>26.7</ele>
        <time>2020-09-27T10:10:35.000Z</time>
      </trkpt>
      <trkpt lat="47.29724" lon="-1.54859">
        <ele>26.7</ele>
        <time>2020-09-27T10:10:36.000Z</time>
      </trkpt>
      <trkpt lat="47.29724" lon="-1.54859">
        <ele>26.7</ele>
        <time>2020-09-27T10:10:37.000Z</time>
      </trkpt>
      <trkpt lat="47.29725" lon="-1.54859">
        <ele>26.7</ele>
        <time>2020-09-27T10:10:38.000Z</time>
      </trkpt>
      <trkpt lat="47.29725" lon="-1.54858">
        <ele>26.7</ele>
        <time>2020-09-27T10:10:39.000Z</time>
      </trkpt>
      <trkpt lat="47.29726" lon="-1.54858">
        <ele>26.7</ele>
        <time>2020-09-27T10:10:40.000Z</time>
      </trkpt>
      <trkpt lat="47.29727" lon="-1.54857">
        <ele>26.6</ele>
        <time>2020-09-27T10:10:41.000Z</time>
      </trkpt>
      <trkpt lat="47.29729" lon="-1.54856">
        <ele>26.6</ele>
        <time>2020-09-27T10:10:42.000Z</time>
      </trkpt>
      <trkpt lat="47.2973" lon="-1.54855">
        <ele>26.6</ele>
        <time>2020-09-27T10:10:43.000Z</time>
      </trkpt>
      <trkpt lat="47.29731" lon="-1.54855">
        <ele>26.6</ele>
        <time>2020-09-27T10:10:44.000Z</time>
      </trkpt>
      <trkpt lat="47.29732" lon="-1.54855">
        <ele>26.6</ele>
        <time>2020-09-27T10:10:45.000Z</time>
      </trkpt>
      <trkpt lat="47.29733" lon="-1.54855">
        <ele>26.6</ele>
        <time>2020-09-27T10:10:46.000Z</time>
      </trkpt>
      <trkpt lat="47.29735" lon="-1.54854">
        <ele>26.6</ele>
        <time>2020-09-27T10:10:47.000Z</time>
      </trkpt>
      <trkpt lat="47.29736" lon="-1.54854">
        <ele>26.5</ele>
        <time>2020-09-27T10:10:48.000Z</time>
      </trkpt>
      <trkpt lat="47.29739" lon="-1.54853">
        <ele>26.5</ele>
        <time>2020-09-27T10:10:49.000Z</time>
      </trkpt>
      <trkpt lat="47.29742" lon="-1.54851">
        <ele>26.5</ele>
        <time>2020-09-27T10:10:50.000Z</time>
      </trkpt>
      <trkpt lat="47.29746" lon="-1.5485">
        <ele>26.4</ele>
        <time>2020-09-27T10:10:51.000Z</time>
      </trkpt>
      <trkpt lat="47.2975" lon="-1.54848">
        <ele>26.4</ele>
        <time>2020-09-27T10:10:52.000Z</time>
      </trkpt>
      <trkpt lat="47.29755" lon="-1.54847">
        <ele>26.2</ele>
        <time>2020-09-27T10:10:53.000Z</time>
      </trkpt>
      <trkpt lat="47.29759" lon="-1.54845">
        <ele>26.1</ele>
        <time>2020-09-27T10:10:54.000Z</time>
      </trkpt>
      <trkpt lat="47.29764" lon="-1.54843">
        <ele>25.9</ele>
        <time>2020-09-27T10:10:55.000Z</time>
      </trkpt>
      <trkpt lat="47.29769" lon="-1.54841">
        <ele>25.8</ele>
        <time>2020-09-27T10:10:56.000Z</time>
      </trkpt>
      <trkpt lat="47.29774" lon="-1.54839">
        <ele>25.6</ele>
        <time>2020-09-27T10:10:57.000Z</time>
      </trkpt>
      <trkpt lat="47.29779" lon="-1.54837">
        <ele>25.4</ele>
        <time>2020-09-27T10:10:58.000Z</time>
      </trkpt>
      <trkpt lat="47.29784" lon="-1.54837">
        <ele>25.3</ele>
        <time>2020-09-27T10:10:59.000Z</time>
      </trkpt>
      <trkpt lat="47.29789" lon="-1.54837">
        <ele>25.2</ele>
        <time>2020-09-27T10:11:00.000Z</time>
      </trkpt>
      <trkpt lat="47.29793" lon="-1.54839">
        <ele>25.2</ele>
        <time>2020-09-27T10:11:01.000Z</time>
      </trkpt>
      <trkpt lat="47.29797" lon="-1.5484">
        <ele>25.2</ele>
        <time>2020-09-27T10:11:02.000Z</time>
      </trkpt>
      <trkpt lat="47.29801" lon="-1.54841">
        <ele>25.1</ele>
        <time>2020-09-27T10:11:03.000Z</time>
      </trkpt>
      <trkpt lat="47.29805" lon="-1.54842">
        <ele>25.1</ele>
        <time>2020-09-27T10:11:04.000Z</time>
      </trkpt>
      <trkpt lat="47.29808" lon="-1.54842">
        <ele>25</ele>
        <time>2020-09-27T10:11:05.000Z</time>
      </trkpt>
      <trkpt lat="47.29812" lon="-1.54842">
        <ele>25</ele>
        <time>2020-09-27T10:11:06.000Z</time>
      </trkpt>
      <trkpt lat="47.29815" lon="-1.54842">
        <ele>24.9</ele>
        <time>2020-09-27T10:11:07.000Z</time>
      </trkpt>
      <trkpt lat="47.29818" lon="-1.54841">
        <ele>24.8</ele>
        <time>2020-09-27T10:11:08.000Z</time>
      </trkpt>
      <trkpt lat="47.29821" lon="-1.54841">
        <ele>24.7</ele>
        <time>2020-09-27T10:11:09.000Z</time>
      </trkpt>
      <trkpt lat="47.29824" lon="-1.5484">
        <ele>24.6</ele>
        <time>2020-09-27T10:11:10.000Z</time>
      </trkpt>
      <trkpt lat="47.29827" lon="-1.5484">
        <ele>24.5</ele>
        <time>2020-09-27T10:11:11.000Z</time>
      </trkpt>
      <trkpt lat="47.2983" lon="-1.54839">
        <ele>24.4</ele>
        <time>2020-09-27T10:11:12.000Z</time>
      </trkpt>
      <trkpt lat="47.29833" lon="-1.54839">
        <ele>24.3</ele>
        <time>2020-09-27T10:11:13.000Z</time>
      </trkpt>
      <trkpt lat="47.29836" lon="-1.54838">
        <ele>24.4</ele>
        <time>2020-09-27T10:11:14.000Z</time>
      </trkpt>
      <trkpt lat="47.29838" lon="-1.54838">
        <ele>24.4</ele>
        <time>2020-09-27T10:11:15.000Z</time>
      </trkpt>
      <trkpt lat="47.29841" lon="-1.54837">
        <ele>24.4</ele>
        <time>2020-09-27T10:11:16.000Z</time>
      </trkpt>
      <trkpt lat="47.29844" lon="-1.54837">
        <ele>24.4</ele>
        <time>2020-09-27T10:11:17.000Z</time>
      </trkpt>
      <trkpt lat="47.29847" lon="-1.54836">
        <ele>24.5</ele>
        <time>2020-09-27T10:11:18.000Z</time>
      </trkpt>
      <trkpt lat="47.2985" lon="-1.54835">
        <ele>24.5</ele>
        <time>2020-09-27T10:11:19.000Z</time>
      </trkpt>
      <trkpt lat="47.29853" lon="-1.54834">
        <ele>24.5</ele>
        <time>2020-09-27T10:11:20.000Z</time>
      </trkpt>
      <trkpt lat="47.29857" lon="-1.54833">
        <ele>24.6</ele>
        <time>2020-09-27T10:11:21.000Z</time>
      </trkpt>
      <trkpt lat="47.29861" lon="-1.54832">
        <ele>24.7</ele>
        <time>2020-09-27T10:11:22.000Z</time>
      </trkpt>
      <trkpt lat="47.29865" lon="-1.54831">
        <ele>24.7</ele>
        <time>2020-09-27T10:11:23.000Z</time>
      </trkpt>
      <trkpt lat="47.29869" lon="-1.54829">
        <ele>24.8</ele>
        <time>2020-09-27T10:11:24.000Z</time>
      </trkpt>
      <trkpt lat="47.29873" lon="-1.54828">
        <ele>24.9</ele>
        <time>2020-09-27T10:11:25.000Z</time>
      </trkpt>
      <trkpt lat="47.29877" lon="-1.54827">
        <ele>25.1</ele>
        <time>2020-09-27T10:11:26.000Z</time>
      </trkpt>
      <trkpt lat="47.29881" lon="-1.54826">
        <ele>25.2</ele>
        <time>2020-09-27T10:11:27.000Z</time>
      </trkpt>
      <trkpt lat="47.29885" lon="-1.54825">
        <ele>25.3</ele>
        <time>2020-09-27T10:11:28.000Z</time>
      </trkpt>
      <trkpt lat="47.29888" lon="-1.54824">
        <ele>25.3</ele>
        <time>2020-09-27T10:11:29.000Z</time>
      </trkpt>
      <trkpt lat="47.29891" lon="-1.54824">
        <ele>25.4</ele>
        <time>2020-09-27T10:11:30.000Z</time>
      </trkpt>
      <trkpt lat="47.29893" lon="-1.54824">
        <ele>25.5</ele>
        <time>2020-09-27T10:11:31.000Z</time>
      </trkpt>
      <trkpt lat="47.29894" lon="-1.54824">
        <ele>25.5</ele>
        <time>2020-09-27T10:11:32.000Z</time>
      </trkpt>
      <trkpt lat="47.29895" lon="-1.54824">
        <ele>25.5</ele>
        <time>2020-09-27T10:11:33.000Z</time>
      </trkpt>
      <trkpt lat="47.29896" lon="-1.54824">
        <ele>25.6</ele>
        <time>2020-09-27T10:11:34.000Z</time>
      </trkpt>
      <trkpt lat="47.29896" lon="-1.54824">
        <ele>25.6</ele>
        <time>2020-09-27T10:11:35.000Z</time>
      </trkpt>
      <trkpt lat="47.29896" lon="-1.54824">
        <ele>25.6</ele>
        <time>2020-09-27T10:11:36.000Z</time>
      </trkpt>
      <trkpt lat="47.29896" lon="-1.54824">
        <ele>25.6</ele>
        <time>2020-09-27T10:11:37.000Z</time>
      </trkpt>
      <trkpt lat="47.29896" lon="-1.54824">
        <ele>25.6</ele>
        <time>2020-09-27T10:11:38.000Z</time>
      </trkpt>
      <trkpt lat="47.29896" lon="-1.54824">
        <ele>25.6</ele>
        <time>2020-09-27T10:11:39.000Z</time>
      </trkpt>
      <trkpt lat="47.29896" lon="-1.54824">
        <ele>25.5</ele>
        <time>2020-09-27T10:11:40.000Z</time>
      </trkpt>
      <trkpt lat="47.29895" lon="-1.54824">
        <ele>25.5</ele>
        <time>2020-09-27T10:11:41.000Z</time>
      </trkpt>
      <trkpt lat="47.29895" lon="-1.54824">
        <ele>25.5</ele>
        <time>2020-09-27T10:11:42.000Z</time>
      </trkpt>
      <trkpt lat="47.29895" lon="-1.54824">
        <ele>25.5</ele>
        <time>2020-09-27T10:11:43.000Z</time>
      </trkpt>
      <trkpt lat="47.29895" lon="-1.54824">
        <ele>25.5</ele>
        <time>2020-09-27T10:11:44.000Z</time>
      </trkpt>
      <trkpt lat="47.29895" lon="-1.54824">
        <ele>25.5</ele>
        <time>2020-09-27T10:11:45.000Z</time>
      </trkpt>
      <trkpt lat="47.29895" lon="-1.54824">
        <ele>25.5</ele>
        <time>2020-09-27T10:11:46.000Z</time>
      </trkpt>
      <trkpt lat="47.29895" lon="-1.54824">
        <ele>25.5</ele>
        <time>2020-09-27T10:11:47.000Z</time>
      </trkpt>
      <trkpt lat="47.29895" lon="-1.54824">
        <ele>25.5</ele>
        <time>2020-09-27T10:11:48.000Z</time>
      </trkpt>
      <trkpt lat="47.29895" lon="-1.54824">
        <ele>25.5</ele>
        <time>2020-09-27T10:11:49.000Z</time>
      </trkpt>
      <trkpt lat="47.29895" lon="-1.54824">
        <ele>25.5</ele>
        <time>2020-09-27T10:11:50.000Z</time>
      </trkpt>
      <trkpt lat="47.29895" lon="-1.54824">
        <ele>25.5</ele>
        <time>2020-09-27T10:11:51.000Z</time>
      </trkpt>
      <trkpt lat="47.29895" lon="-1.54824">
        <ele>25.5</ele>
        <time>2020-09-27T10:11:52.000Z</time>
      </trkpt>
      <trkpt lat="47.29895" lon="-1.54824">
        <ele>25.5</ele>
        <time>2020-09-27T10:11:53.000Z</time>
      </trkpt>
      <trkpt lat="47.29895" lon="-1.54824">
        <ele>25.5</ele>
        <time>2020-09-27T10:11:54.000Z</time>
      </trkpt>
      <trkpt lat="47.29895" lon="-1.54824">
        <ele>25.5</ele>
        <time>2020-09-27T10:11:55.000Z</time>
      </trkpt>
      <trkpt lat="47.29895" lon="-1.54824">
        <ele>25.5</ele>
        <time>2020-09-27T10:11:56.000Z</time>
      </trkpt>
      <trkpt lat="47.29895" lon="-1.54824">
        <ele>25.5</ele>
        <time>2020-09-27T10:11:57.000Z</time>
      </trkpt>
      <trkpt lat="47.29895" lon="-1.54824">
        <ele>25.5</ele>
        <time>2020-09-27T10:11:58.000Z</time>
      </trkpt>
      <trkpt lat="47.29895" lon="-1.54824">
        <ele>25.5</ele>
        <time>2020-09-27T10:11:59.000Z</time>
      </trkpt>
      <trkpt lat="47.29895" lon="-1.54824">
        <ele>25.5</ele>
        <time>2020-09-27T10:12:00.000Z</time>
      </trkpt>
      <trkpt lat="47.29895" lon="-1.54824">
        <ele>25.5</ele>
        <time>2020-09-27T10:12:01.000Z</time>
      </trkpt>
      <trkpt lat="47.29895" lon="-1.54824">
        <ele>25.5</ele>
        <time>2020-09-27T10:12:02.000Z</time>
      </trkpt>
      <trkpt lat="47.29895" lon="-1.54824">
        <ele>25.5</ele>
        <time>2020-09-27T10:12:03.000Z</time>
      </trkpt>
      <trkpt lat="47.29895" lon="-1.54824">
        <ele>25.5</ele>
        <time>2020-09-27T10:12:04.000Z</time>
      </trkpt>
      <trkpt lat="47.29895" lon="-1.54824">
        <ele>25.5</ele>
        <time>2020-09-27T10:12:05.000Z</time>
      </trkpt>
      <trkpt lat="47.29896" lon="-1.54824">
        <ele>25.6</ele>
        <time>2020-09-27T10:12:06.000Z</time>
      </trkpt>
      <trkpt lat="47.29896" lon="-1.54824">
        <ele>25.6</ele>
        <time>2020-09-27T10:12:07.000Z</time>
      </trkpt>
      <trkpt lat="47.29897" lon="-1.54823">
        <ele>25.6</ele>
        <time>2020-09-27T10:12:08.000Z</time>
      </trkpt>
      <trkpt lat="47.29898" lon="-1.54823">
        <ele>25.6</ele>
        <time>2020-09-27T10:12:09.000Z</time>
      </trkpt>
      <trkpt lat="47.299" lon="-1.54822">
        <ele>25.7</ele>
        <time>2020-09-27T10:12:10.000Z</time>
      </trkpt>
      <trkpt lat="47.29902" lon="-1.54821">
        <ele>25.7</ele>
        <time>2020-09-27T10:12:11.000Z</time>
      </trkpt>
      <trkpt lat="47.29904" lon="-1.5482">
        <ele>25.8</ele>
        <time>2020-09-27T10:12:12.000Z</time>
      </trkpt>
      <trkpt lat="47.29906" lon="-1.54819">
        <ele>25.9</ele>
        <time>2020-09-27T10:12:13.000Z</time>
      </trkpt>
      <trkpt lat="47.29909" lon="-1.54818">
        <ele>26</ele>
        <time>2020-09-27T10:12:14.000Z</time>
      </trkpt>
      <trkpt lat="47.29911" lon="-1.54817">
        <ele>26</ele>
        <time>2020-09-27T10:12:15.000Z</time>
      </trkpt>
      <trkpt lat="47.29914" lon="-1.54816">
        <ele>26.1</ele>
        <time>2020-09-27T10:12:16.000Z</time>
      </trkpt>
      <trkpt lat="47.29917" lon="-1.54815">
        <ele>26.2</ele>
        <time>2020-09-27T10:12:17.000Z</time>
      </trkpt>
      <trkpt lat="47.2992" lon="-1.54814">
        <ele>26.3</ele>
        <time>2020-09-27T10:12:18.000Z</time>
      </trkpt>
      <trkpt lat="47.29923" lon="-1.54813">
        <ele>26.3</ele>
        <time>2020-09-27T10:12:19.000Z</time>
      </trkpt>
      <trkpt lat="47.29926" lon="-1.54812">
        <ele>26.3</ele>
        <time>2020-09-27T10:12:20.000Z</time>
      </trkpt>
      <trkpt lat="47.29929" lon="-1.54811">
        <ele>26.3</ele>
        <time>2020-09-27T10:12:21.000Z</time>
      </trkpt>
      <trkpt lat="47.29932" lon="-1.5481">
        <ele>26.4</ele>
        <time>2020-09-27T10:12:22.000Z</time>
      </trkpt>
      <trkpt lat="47.29935" lon="-1.54809">
        <ele>26.4</ele>
        <time>2020-09-27T10:12:23.000Z</time>
      </trkpt>
      <trkpt lat="47.29938" lon="-1.54808">
        <ele>26.4</ele>
        <time>2020-09-27T10:12:24.000Z</time>
      </trkpt>
      <trkpt lat="47.29941" lon="-1.54807">
        <ele>26.4</ele>
        <time>2020-09-27T10:12:25.000Z</time>
      </trkpt>
      <trkpt lat="47.29944" lon="-1.54806">
        <ele>26.4</ele>
        <time>2020-09-27T10:12:26.000Z</time>
      </trkpt>
      <trkpt lat="47.29947" lon="-1.54805">
        <ele>26.5</ele>
        <time>2020-09-27T10:12:27.000Z</time>
      </trkpt>
      <trkpt lat="47.2995" lon="-1.54803">
        <ele>26.5</ele>
        <time>2020-09-27T10:12:28.000Z</time>
      </trkpt>
      <trkpt lat="47.29953" lon="-1.54802">
        <ele>26.5</ele>
        <time>2020-09-27T10:12:29.000Z</time>
      </trkpt>
      <trkpt lat="47.29956" lon="-1.54801">
        <ele>26.5</ele>
        <time>2020-09-27T10:12:30.000Z</time>
      </trkpt>
      <trkpt lat="47.29959" lon="-1.548">
        <ele>26.5</ele>
        <time>2020-09-27T10:12:31.000Z</time>
      </trkpt>
      <trkpt lat="47.29963" lon="-1.54799">
        <ele>26.5</ele>
        <time>2020-09-27T10:12:32.000Z</time>
      </trkpt>
      <trkpt lat="47.29966" lon="-1.54798">
        <ele>26.5</ele>
        <time>2020-09-27T10:12:33.000Z</time>
      </trkpt>
      <trkpt lat="47.29969" lon="-1.54797">
        <ele>26.5</ele>
        <time>2020-09-27T10:12:34.000Z</time>
      </trkpt>
      <trkpt lat="47.29973" lon="-1.54796">
        <ele>26.5</ele>
        <time>2020-09-27T10:12:35.000Z</time>
      </trkpt>
      <trkpt lat="47.29976" lon="-1.54795">
        <ele>26.5</ele>
        <time>2020-09-27T10:12:36.000Z</time>
      </trkpt>
      <trkpt lat="47.29979" lon="-1.54793">
        <ele>26.5</ele>
        <time>2020-09-27T10:12:37.000Z</time>
      </trkpt>
      <trkpt lat="47.29983" lon="-1.54792">
        <ele>26.5</ele>
        <time>2020-09-27T10:12:38.000Z</time>
      </trkpt>
      <trkpt lat="47.29986" lon="-1.54791">
        <ele>26.5</ele>
        <time>2020-09-27T10:12:39.000Z</time>
      </trkpt>
      <trkpt lat="47.2999" lon="-1.5479">
        <ele>26.5</ele>
        <time>2020-09-27T10:12:40.000Z</time>
      </trkpt>
      <trkpt lat="47.29993" lon="-1.54788">
        <ele>26.5</ele>
        <time>2020-09-27T10:12:41.000Z</time>
      </trkpt>
      <trkpt lat="47.29997" lon="-1.54787">
        <ele>26.4</ele>
        <time>2020-09-27T10:12:42.000Z</time>
      </trkpt>
      <trkpt lat="47.3" lon="-1.54786">
        <ele>26.4</ele>
        <time>2020-09-27T10:12:43.000Z</time>
      </trkpt>
      <trkpt lat="47.30004" lon="-1.54784">
        <ele>26.3</ele>
        <time>2020-09-27T10:12:44.000Z</time>
      </trkpt>
      <trkpt lat="47.30007" lon="-1.54783">
        <ele>26.3</ele>
        <time>2020-09-27T10:12:45.000Z</time>
      </trkpt>
      <trkpt lat="47.30011" lon="-1.54782">
        <ele>26.2</ele>
        <time>2020-09-27T10:12:46.000Z</time>
      </trkpt>
      <trkpt lat="47.30015" lon="-1.5478">
        <ele>26.1</ele>
        <time>2020-09-27T10:12:47.000Z</time>
      </trkpt>
      <trkpt lat="47.30018" lon="-1.54779">
        <ele>26</ele>
        <time>2020-09-27T10:12:48.000Z</time>
      </trkpt>
      <trkpt lat="47.30022" lon="-1.54778">
        <ele>25.9</ele>
        <time>2020-09-27T10:12:49.000Z</time>
      </trkpt>
      <trkpt lat="47.30026" lon="-1.54776">
        <ele>25.8</ele>
        <time>2020-09-27T10:12:50.000Z</time>
      </trkpt>
      <trkpt lat="47.30029" lon="-1.54775">
        <ele>25.7</ele>
        <time>2020-09-27T10:12:51.000Z</time>
      </trkpt>
      <trkpt lat="47.30033" lon="-1.54773">
        <ele>25.6</ele>
        <time>2020-09-27T10:12:52.000Z</time>
      </trkpt>
      <trkpt lat="47.30037" lon="-1.54772">
        <ele>25.5</ele>
        <time>2020-09-27T10:12:53.000Z</time>
      </trkpt>
      <trkpt lat="47.30041" lon="-1.5477">
        <ele>25.4</ele>
        <time>2020-09-27T10:12:54.000Z</time>
      </trkpt>
      <trkpt lat="47.30045" lon="-1.54769">
        <ele>25.3</ele>
        <time>2020-09-27T10:12:55.000Z</time>
      </trkpt>
      <trkpt lat="47.30048" lon="-1.54767">
        <ele>25.2</ele>
        <time>2020-09-27T10:12:56.000Z</time>
      </trkpt>
      <trkpt lat="47.30052" lon="-1.54766">
        <ele>25</ele>
        <time>2020-09-27T10:12:57.000Z</time>
      </trkpt>
      <trkpt lat="47.30056" lon="-1.54764">
        <ele>24.9</ele>
        <time>2020-09-27T10:12:58.000Z</time>
      </trkpt>
      <trkpt lat="47.3006" lon="-1.54762">
        <ele>24.8</ele>
        <time>2020-09-27T10:12:59.000Z</time>
      </trkpt>
      <trkpt lat="47.30064" lon="-1.54761">
        <ele>24.7</ele>
        <time>2020-09-27T10:13:00.000Z</time>
      </trkpt>
      <trkpt lat="47.30068" lon="-1.54759">
        <ele>24.6</ele>
        <time>2020-09-27T10:13:01.000Z</time>
      </trkpt>
      <trkpt lat="47.30072" lon="-1.54758">
        <ele>24.4</ele>
        <time>2020-09-27T10:13:02.000Z</time>
      </trkpt>
      <trkpt lat="47.30076" lon="-1.54756">
        <ele>24.3</ele>
        <time>2020-09-27T10:13:03.000Z</time>
      </trkpt>
      <trkpt lat="47.30079" lon="-1.54754">
        <ele>24.2</ele>
        <time>2020-09-27T10:13:04.000Z</time>
      </trkpt>
      <trkpt lat="47.30083" lon="-1.54752">
        <ele>24.1</ele>
        <time>2020-09-27T10:13:05.000Z</time>
      </trkpt>
      <trkpt lat="47.30087" lon="-1.54751">
        <ele>24</ele>
        <time>2020-09-27T10:13:06.000Z</time>
      </trkpt>
      <trkpt lat="47.30091" lon="-1.54749">
        <ele>23.9</ele>
        <time>2020-09-27T10:13:07.000Z</time>
      </trkpt>
      <trkpt lat="47.30095" lon="-1.54747">
        <ele>23.8</ele>
        <time>2020-09-27T10:13:08.000Z</time>
      </trkpt>
      <trkpt lat="47.30099" lon="-1.54745">
        <ele>23.8</ele>
        <time>2020-09-27T10:13:09.000Z</time>
      </trkpt>
      <trkpt lat="47.30103" lon="-1.54743">
        <ele>23.7</ele>
        <time>2020-09-27T10:13:10.000Z</time>
      </trkpt>
      <trkpt lat="47.30106" lon="-1.54742">
        <ele>23.6</ele>
        <time>2020-09-27T10:13:11.000Z</time>
      </trkpt>
      <trkpt lat="47.3011" lon="-1.5474">
        <ele>23.6</ele>
        <time>2020-09-27T10:13:12.000Z</time>
      </trkpt>
      <trkpt lat="47.30114" lon="-1.54738">
        <ele>23.5</ele>
        <time>2020-09-27T10:13:13.000Z</time>
      </trkpt>
      <trkpt lat="47.30118" lon="-1.54736">
        <ele>23.4</ele>
        <time>2020-09-27T10:13:14.000Z</time>
      </trkpt>
      <trkpt lat="47.30122" lon="-1.54734">
        <ele>23.3</ele>
        <time>2020-09-27T10:13:15.000Z</time>
      </trkpt>
      <trkpt lat="47.30125" lon="-1.54732">
        <ele>23.3</ele>
        <time>2020-09-27T10:13:16.000Z</time>
      </trkpt>
      <trkpt lat="47.30129" lon="-1.5473">
        <ele>23.2</ele>
        <time>2020-09-27T10:13:17.000Z</time>
      </trkpt>
      <trkpt lat="47.30133" lon="-1.54728">
        <ele>23.1</ele>
        <time>2020-09-27T10:13:18.000Z</time>
      </trkpt>
      <trkpt lat="47.30137" lon="-1.54726">
        <ele>23.1</ele>
        <time>2020-09-27T10:13:19.000Z</time>
      </trkpt>
      <trkpt lat="47.30141" lon="-1.54724">
        <ele>23</ele>
        <time>2020-09-27T10:13:20.000Z</time>
      </trkpt>
      <trkpt lat="47.30144" lon="-1.54722">
        <ele>22.9</ele>
        <time>2020-09-27T10:13:21.000Z</time>
      </trkpt>
      <trkpt lat="47.30148" lon="-1.54719">
        <ele>22.9</ele>
        <time>2020-09-27T10:13:22.000Z</time>
      </trkpt>
      <trkpt lat="47.30152" lon="-1.54717">
        <ele>22.8</ele>
        <time>2020-09-27T10:13:23.000Z</time>
      </trkpt>
      <trkpt lat="47.30156" lon="-1.54715">
        <ele>22.7</ele>
        <time>2020-09-27T10:13:24.000Z</time>
      </trkpt>
      <trkpt lat="47.3016" lon="-1.54713">
        <ele>22.6</ele>
        <time>2020-09-27T10:13:25.000Z</time>
      </trkpt>
      <trkpt lat="47.30163" lon="-1.54711">
        <ele>22.6</ele>
        <time>2020-09-27T10:13:26.000Z</time>
      </trkpt>
      <trkpt lat="47.30167" lon="-1.54709">
        <ele>22.5</ele>
        <time>2020-09-27T10:13:27.000Z</time>
      </trkpt>
      <trkpt lat="47.30171" lon="-1.54706">
        <ele>22.4</ele>
        <time>2020-09-27T10:13:28.000Z</time>
      </trkpt>
      <trkpt lat="47.30175" lon="-1.54704">
        <ele>22.3</ele>
        <time>2020-09-27T10:13:29.000Z</time>
      </trkpt>
      <trkpt lat="47.30179" lon="-1.54702">
        <ele>22.3</ele>
        <time>2020-09-27T10:13:30.000Z</time>
      </trkpt>
      <trkpt lat="47.30183" lon="-1.54699">
        <ele>22.2</ele>
        <time>2020-09-27T10:13:31.000Z</time>
      </trkpt>
      <trkpt lat="47.30187" lon="-1.54697">
        <ele>22.1</ele>
        <time>2020-09-27T10:13:32.000Z</time>
      </trkpt>
      <trkpt lat="47.30191" lon="-1.54695">
        <ele>22</ele>
        <time>2020-09-27T10:13:33.000Z</time>
      </trkpt>
      <trkpt lat="47.30195" lon="-1.54692">
        <ele>22</ele>
        <time>2020-09-27T10:13:34.000Z</time>
      </trkpt>
      <trkpt lat="47.302" lon="-1.5469">
        <ele>21.9</ele>
        <time>2020-09-27T10:13:35.000Z</time>
      </trkpt>
      <trkpt lat="47.30204" lon="-1.54687">
        <ele>21.8</ele>
        <time>2020-09-27T10:13:36.000Z</time>
      </trkpt>
      <trkpt lat="47.30208" lon="-1.54685">
        <ele>21.7</ele>
        <time>2020-09-27T10:13:37.000Z</time>
      </trkpt>
      <trkpt lat="47.30212" lon="-1.54682">
        <ele>21.6</ele>
        <time>2020-09-27T10:13:38.000Z</time>
      </trkpt>
      <trkpt lat="47.30217" lon="-1.5468">
        <ele>21.6</ele>
        <time>2020-09-27T10:13:39.000Z</time>
      </trkpt>
      <trkpt lat="47.30222" lon="-1.54677">
        <ele>21.5</ele>
        <time>2020-09-27T10:13:40.000Z</time>
      </trkpt>
      <trkpt lat="47.30226" lon="-1.54675">
        <ele>21.4</ele>
        <time>2020-09-27T10:13:41.000Z</time>
      </trkpt>
      <trkpt lat="47.30231" lon="-1.54672">
        <ele>21.3</ele>
        <time>2020-09-27T10:13:42.000Z</time>
      </trkpt>
      <trkpt lat="47.30236" lon="-1.54669">
        <ele>21.2</ele>
        <time>2020-09-27T10:13:43.000Z</time>
      </trkpt>
      <trkpt lat="47.30241" lon="-1.54666">
        <ele>21.1</ele>
        <time>2020-09-27T10:13:44.000Z</time>
      </trkpt>
      <trkpt lat="47.30246" lon="-1.54663">
        <ele>21</ele>
        <time>2020-09-27T10:13:45.000Z</time>
      </trkpt>
      <trkpt lat="47.30252" lon="-1.5466">
        <ele>20.9</ele>
        <time>2020-09-27T10:13:46.000Z</time>
      </trkpt>
      <trkpt lat="47.30257" lon="-1.54658">
        <ele>20.7</ele>
        <time>2020-09-27T10:13:47.000Z</time>
      </trkpt>
      <trkpt lat="47.30263" lon="-1.54655">
        <ele>20.5</ele>
        <time>2020-09-27T10:13:48.000Z</time>
      </trkpt>
      <trkpt lat="47.30269" lon="-1.54652">
        <ele>20.3</ele>
        <time>2020-09-27T10:13:49.000Z</time>
      </trkpt>
      <trkpt lat="47.30275" lon="-1.54651">
        <ele>20.1</ele>
        <time>2020-09-27T10:13:50.000Z</time>
      </trkpt>
      <trkpt lat="47.30281" lon="-1.54652">
        <ele>20</ele>
        <time>2020-09-27T10:13:51.000Z</time>
      </trkpt>
      <trkpt lat="47.30287" lon="-1.54653">
        <ele>19.8</ele>
        <time>2020-09-27T10:13:52.000Z</time>
      </trkpt>
      <trkpt lat="47.30293" lon="-1.54656">
        <ele>19.6</ele>
        <time>2020-09-27T10:13:53.000Z</time>
      </trkpt>
      <trkpt lat="47.30297" lon="-1.54658">
        <ele>19.4</ele>
        <time>2020-09-27T10:13:54.000Z</time>
      </trkpt>
      <trkpt lat="47.30301" lon="-1.5466">
        <ele>19.3</ele>
        <time>2020-09-27T10:13:55.000Z</time>
      </trkpt>
      <trkpt lat="47.30304" lon="-1.54662">
        <ele>19.2</ele>
        <time>2020-09-27T10:13:56.000Z</time>
      </trkpt>
      <trkpt lat="47.30306" lon="-1.54663">
        <ele>19</ele>
        <time>2020-09-27T10:13:57.000Z</time>
      </trkpt>
      <trkpt lat="47.30308" lon="-1.54664">
        <ele>19</ele>
        <time>2020-09-27T10:13:58.000Z</time>
      </trkpt>
      <trkpt lat="47.30309" lon="-1.54664">
        <ele>18.9</ele>
        <time>2020-09-27T10:13:59.000Z</time>
      </trkpt>
      <trkpt lat="47.30309" lon="-1.54665">
        <ele>18.9</ele>
        <time>2020-09-27T10:14:00.000Z</time>
      </trkpt>
      <trkpt lat="47.30309" lon="-1.54665">
        <ele>18.9</ele>
        <time>2020-09-27T10:14:01.000Z</time>
      </trkpt>
      <trkpt lat="47.3031" lon="-1.54665">
        <ele>18.9</ele>
        <time>2020-09-27T10:14:02.000Z</time>
      </trkpt>
      <trkpt lat="47.3031" lon="-1.54665">
        <ele>18.9</ele>
        <time>2020-09-27T10:14:03.000Z</time>
      </trkpt>
      <trkpt lat="47.30311" lon="-1.54666">
        <ele>18.8</ele>
        <time>2020-09-27T10:14:04.000Z</time>
      </trkpt>
      <trkpt lat="47.30312" lon="-1.54666">
        <ele>18.8</ele>
        <time>2020-09-27T10:14:05.000Z</time>
      </trkpt>
      <trkpt lat="47.30313" lon="-1.54666">
        <ele>18.8</ele>
        <time>2020-09-27T10:14:06.000Z</time>
      </trkpt>
      <trkpt lat="47.30314" lon="-1.54667">
        <ele>18.7</ele>
        <time>2020-09-27T10:14:07.000Z</time>
      </trkpt>
      <trkpt lat="47.30316" lon="-1.54667">
        <ele>18.6</ele>
        <time>2020-09-27T10:14:08.000Z</time>
      </trkpt>
      <trkpt lat="47.30318" lon="-1.54667">
        <ele>18.6</ele>
        <time>2020-09-27T10:14:09.000Z</time>
      </trkpt>
      <trkpt lat="47.3032" lon="-1.54668">
        <ele>18.5</ele>
        <time>2020-09-27T10:14:10.000Z</time>
      </trkpt>
      <trkpt lat="47.30322" lon="-1.54668">
        <ele>18.4</ele>
        <time>2020-09-27T10:14:11.000Z</time>
      </trkpt>
      <trkpt lat="47.30324" lon="-1.54667">
        <ele>18.3</ele>
        <time>2020-09-27T10:14:12.000Z</time>
      </trkpt>
      <trkpt lat="47.30327" lon="-1.54667">
        <ele>18.2</ele>
        <time>2020-09-27T10:14:13.000Z</time>
      </trkpt>
      <trkpt lat="47.30329" lon="-1.54667">
        <ele>18.2</ele>
        <time>2020-09-27T10:14:14.000Z</time>
      </trkpt>
      <trkpt lat="47.30331" lon="-1.54666">
        <ele>18.1</ele>
        <time>2020-09-27T10:14:15.000Z</time>
      </trkpt>
      <trkpt lat="47.30333" lon="-1.54665">
        <ele>18.1</ele>
        <time>2020-09-27T10:14:16.000Z</time>
      </trkpt>
      <trkpt lat="47.30335" lon="-1.54664">
        <ele>18.2</ele>
        <time>2020-09-27T10:14:17.000Z</time>
      </trkpt>
      <trkpt lat="47.30337" lon="-1.54662">
        <ele>18.3</ele>
        <time>2020-09-27T10:14:18.000Z</time>
      </trkpt>
      <trkpt lat="47.30339" lon="-1.54661">
        <ele>18.3</ele>
        <time>2020-09-27T10:14:19.000Z</time>
      </trkpt>
      <trkpt lat="47.3034" lon="-1.5466">
        <ele>18.4</ele>
        <time>2020-09-27T10:14:20.000Z</time>
      </trkpt>
      <trkpt lat="47.3034" lon="-1.5466">
        <ele>18.4</ele>
        <time>2020-09-27T10:14:21.000Z</time>
      </trkpt>
      <trkpt lat="47.3034" lon="-1.5466">
        <ele>18.4</ele>
        <time>2020-09-27T10:14:22.000Z</time>
      </trkpt>
      <trkpt lat="47.30341" lon="-1.5466">
        <ele>18.4</ele>
        <time>2020-09-27T10:14:23.000Z</time>
      </trkpt>
      <trkpt lat="47.30341" lon="-1.54659">
        <ele>18.5</ele>
        <time>2020-09-27T10:14:24.000Z</time>
      </trkpt>
      <trkpt lat="47.30343" lon="-1.54658">
        <ele>18.5</ele>
        <time>2020-09-27T10:14:25.000Z</time>
      </trkpt>
      <trkpt lat="47.30345" lon="-1.54656">
        <ele>18.6</ele>
        <time>2020-09-27T10:14:26.000Z</time>
      </trkpt>
      <trkpt lat="47.30347" lon="-1.54655">
        <ele>18.7</ele>
        <time>2020-09-27T10:14:27.000Z</time>
      </trkpt>
      <trkpt lat="47.3035" lon="-1.54654">
        <ele>18.8</ele>
        <time>2020-09-27T10:14:28.000Z</time>
      </trkpt>
      <trkpt lat="47.30353" lon="-1.54654">
        <ele>18.9</ele>
        <time>2020-09-27T10:14:29.000Z</time>
      </trkpt>
      <trkpt lat="47.30356" lon="-1.54654">
        <ele>19</ele>
        <time>2020-09-27T10:14:30.000Z</time>
      </trkpt>
      <trkpt lat="47.30359" lon="-1.54653">
        <ele>19.1</ele>
        <time>2020-09-27T10:14:31.000Z</time>
      </trkpt>
      <trkpt lat="47.30362" lon="-1.5465">
        <ele>19.2</ele>
        <time>2020-09-27T10:14:32.000Z</time>
      </trkpt>
      <trkpt lat="47.30365" lon="-1.54647">
        <ele>19.4</ele>
        <time>2020-09-27T10:14:33.000Z</time>
      </trkpt>
      <trkpt lat="47.30368" lon="-1.54643">
        <ele>19.6</ele>
        <time>2020-09-27T10:14:34.000Z</time>
      </trkpt>
      <trkpt lat="47.30371" lon="-1.54639">
        <ele>19.8</ele>
        <time>2020-09-27T10:14:35.000Z</time>
      </trkpt>
      <trkpt lat="47.30374" lon="-1.54635">
        <ele>19.9</ele>
        <time>2020-09-27T10:14:36.000Z</time>
      </trkpt>
      <trkpt lat="47.30378" lon="-1.54631">
        <ele>20.1</ele>
        <time>2020-09-27T10:14:37.000Z</time>
      </trkpt>
      <trkpt lat="47.30381" lon="-1.54626">
        <ele>20.3</ele>
        <time>2020-09-27T10:14:38.000Z</time>
      </trkpt>
      <trkpt lat="47.30384" lon="-1.54622">
        <ele>20.5</ele>
        <time>2020-09-27T10:14:39.000Z</time>
      </trkpt>
      <trkpt lat="47.30388" lon="-1.54619">
        <ele>20.7</ele>
        <time>2020-09-27T10:14:40.000Z</time>
      </trkpt>
      <trkpt lat="47.3039" lon="-1.54615">
        <ele>20.8</ele>
        <time>2020-09-27T10:14:41.000Z</time>
      </trkpt>
      <trkpt lat="47.30393" lon="-1.54611">
        <ele>21</ele>
        <time>2020-09-27T10:14:42.000Z</time>
      </trkpt>
      <trkpt lat="47.30396" lon="-1.54608">
        <ele>21.1</ele>
        <time>2020-09-27T10:14:43.000Z</time>
      </trkpt>
      <trkpt lat="47.30398" lon="-1.54604">
        <ele>21.2</ele>
        <time>2020-09-27T10:14:44.000Z</time>
      </trkpt>
      <trkpt lat="47.30401" lon="-1.54601">
        <ele>21.3</ele>
        <time>2020-09-27T10:14:45.000Z</time>
      </trkpt>
      <trkpt lat="47.30403" lon="-1.54598">
        <ele>21.5</ele>
        <time>2020-09-27T10:14:46.000Z</time>
      </trkpt>
      <trkpt lat="47.30406" lon="-1.54595">
        <ele>21.6</ele>
        <time>2020-09-27T10:14:47.000Z</time>
      </trkpt>
      <trkpt lat="47.30408" lon="-1.54592">
        <ele>21.7</ele>
        <time>2020-09-27T10:14:48.000Z</time>
      </trkpt>
      <trkpt lat="47.3041" lon="-1.54589">
        <ele>21.8</ele>
        <time>2020-09-27T10:14:49.000Z</time>
      </trkpt>
      <trkpt lat="47.30413" lon="-1.54586">
        <ele>21.9</ele>
        <time>2020-09-27T10:14:50.000Z</time>
      </trkpt>
      <trkpt lat="47.30415" lon="-1.54583">
        <ele>22</ele>
        <time>2020-09-27T10:14:51.000Z</time>
      </trkpt>
      <trkpt lat="47.30418" lon="-1.5458">
        <ele>22.2</ele>
        <time>2020-09-27T10:14:52.000Z</time>
      </trkpt>
      <trkpt lat="47.30421" lon="-1.54578">
        <ele>22.5</ele>
        <time>2020-09-27T10:14:53.000Z</time>
      </trkpt>
      <trkpt lat="47.30424" lon="-1.54575">
        <ele>22.7</ele>
        <time>2020-09-27T10:14:54.000Z</time>
      </trkpt>
      <trkpt lat="47.30426" lon="-1.54572">
        <ele>22.9</ele>
        <time>2020-09-27T10:14:55.000Z</time>
      </trkpt>
      <trkpt lat="47.30429" lon="-1.5457">
        <ele>23.2</ele>
        <time>2020-09-27T10:14:56.000Z</time>
      </trkpt>
      <trkpt lat="47.30432" lon="-1.54567">
        <ele>23.4</ele>
        <time>2020-09-27T10:14:57.000Z</time>
      </trkpt>
      <trkpt lat="47.30435" lon="-1.54565">
        <ele>23.6</ele>
        <time>2020-09-27T10:14:58.000Z</time>
      </trkpt>
      <trkpt lat="47.30438" lon="-1.54562">
        <ele>23.8</ele>
        <time>2020-09-27T10:14:59.000Z</time>
      </trkpt>
      <trkpt lat="47.30441" lon="-1.5456">
        <ele>24</ele>
        <time>2020-09-27T10:15:00.000Z</time>
      </trkpt>
      <trkpt lat="47.30444" lon="-1.54558">
        <ele>24.1</ele>
        <time>2020-09-27T10:15:01.000Z</time>
      </trkpt>
      <trkpt lat="47.30447" lon="-1.54555">
        <ele>24.3</ele>
        <time>2020-09-27T10:15:02.000Z</time>
      </trkpt>
      <trkpt lat="47.3045" lon="-1.54553">
        <ele>24.5</ele>
        <time>2020-09-27T10:15:03.000Z</time>
      </trkpt>
      <trkpt lat="47.30454" lon="-1.54551">
        <ele>24.6</ele>
        <time>2020-09-27T10:15:04.000Z</time>
      </trkpt>
      <trkpt lat="47.30457" lon="-1.54549">
        <ele>24.8</ele>
        <time>2020-09-27T10:15:05.000Z</time>
      </trkpt>
      <trkpt lat="47.3046" lon="-1.54546">
        <ele>24.9</ele>
        <time>2020-09-27T10:15:06.000Z</time>
      </trkpt>
      <trkpt lat="47.30463" lon="-1.54544">
        <ele>25.1</ele>
        <time>2020-09-27T10:15:07.000Z</time>
      </trkpt>
      <trkpt lat="47.30466" lon="-1.54542">
        <ele>25.2</ele>
        <time>2020-09-27T10:15:08.000Z</time>
      </trkpt>
      <trkpt lat="47.30469" lon="-1.5454">
        <ele>25.3</ele>
        <time>2020-09-27T10:15:09.000Z</time>
      </trkpt>
      <trkpt lat="47.30473" lon="-1.54538">
        <ele>25.4</ele>
        <time>2020-09-27T10:15:10.000Z</time>
      </trkpt>
      <trkpt lat="47.30476" lon="-1.54536">
        <ele>25.5</ele>
        <time>2020-09-27T10:15:11.000Z</time>
      </trkpt>
      <trkpt lat="47.30479" lon="-1.54533">
        <ele>25.6</ele>
        <time>2020-09-27T10:15:12.000Z</time>
      </trkpt>
      <trkpt lat="47.30482" lon="-1.54531">
        <ele>25.7</ele>
        <time>2020-09-27T10:15:13.000Z</time>
      </trkpt>
      <trkpt lat="47.30485" lon="-1.54529">
        <ele>25.8</ele>
        <time>2020-09-27T10:15:14.000Z</time>
      </trkpt>
      <trkpt lat="47.30488" lon="-1.54526">
        <ele>25.8</ele>
        <time>2020-09-27T10:15:15.000Z</time>
      </trkpt>
      <trkpt lat="47.30491" lon="-1.54524">
        <ele>25.9</ele>
        <time>2020-09-27T10:15:16.000Z</time>
      </trkpt>
      <trkpt lat="47.30494" lon="-1.54522">
        <ele>25.9</ele>
        <time>2020-09-27T10:15:17.000Z</time>
      </trkpt>
      <trkpt lat="47.30497" lon="-1.54519">
        <ele>26</ele>
        <time>2020-09-27T10:15:18.000Z</time>
      </trkpt>
      <trkpt lat="47.305" lon="-1.54517">
        <ele>26</ele>
        <time>2020-09-27T10:15:19.000Z</time>
      </trkpt>
      <trkpt lat="47.30503" lon="-1.54514">
        <ele>26.1</ele>
        <time>2020-09-27T10:15:20.000Z</time>
      </trkpt>
      <trkpt lat="47.30506" lon="-1.54512">
        <ele>26.2</ele>
        <time>2020-09-27T10:15:21.000Z</time>
      </trkpt>
      <trkpt lat="47.30509" lon="-1.5451">
        <ele>26.2</ele>
        <time>2020-09-27T10:15:22.000Z</time>
      </trkpt>
      <trkpt lat="47.30512" lon="-1.54507">
        <ele>26.3</ele>
        <time>2020-09-27T10:15:23.000Z</time>
      </trkpt>
      <trkpt lat="47.30515" lon="-1.54504">
        <ele>26.4</ele>
        <time>2020-09-27T10:15:24.000Z</time>
      </trkpt>
      <trkpt lat="47.30518" lon="-1.54502">
        <ele>26.4</ele>
        <time>2020-09-27T10:15:25.000Z</time>
      </trkpt>
      <trkpt lat="47.30521" lon="-1.54499">
        <ele>26.5</ele>
        <time>2020-09-27T10:15:26.000Z</time>
      </trkpt>
      <trkpt lat="47.30525" lon="-1.54497">
        <ele>26.6</ele>
        <time>2020-09-27T10:15:27.000Z</time>
      </trkpt>
      <trkpt lat="47.30528" lon="-1.54494">
        <ele>26.6</ele>
        <time>2020-09-27T10:15:28.000Z</time>
      </trkpt>
      <trkpt lat="47.30531" lon="-1.54491">
        <ele>26.7</ele>
        <time>2020-09-27T10:15:29.000Z</time>
      </trkpt>
      <trkpt lat="47.30534" lon="-1.54489">
        <ele>26.8</ele>
        <time>2020-09-27T10:15:30.000Z</time>
      </trkpt>
      <trkpt lat="47.30537" lon="-1.54486">
        <ele>26.8</ele>
        <time>2020-09-27T10:15:31.000Z</time>
      </trkpt>
      <trkpt lat="47.3054" lon="-1.54484">
        <ele>26.9</ele>
        <time>2020-09-27T10:15:32.000Z</time>
      </trkpt>
      <trkpt lat="47.30543" lon="-1.54481">
        <ele>26.9</ele>
        <time>2020-09-27T10:15:33.000Z</time>
      </trkpt>
      <trkpt lat="47.30546" lon="-1.54478">
        <ele>27</ele>
        <time>2020-09-27T10:15:34.000Z</time>
      </trkpt>
      <trkpt lat="47.3055" lon="-1.54476">
        <ele>27</ele>
        <time>2020-09-27T10:15:35.000Z</time>
      </trkpt>
      <trkpt lat="47.30553" lon="-1.54473">
        <ele>27.1</ele>
        <time>2020-09-27T10:15:36.000Z</time>
      </trkpt>
      <trkpt lat="47.30556" lon="-1.54471">
        <ele>27.1</ele>
        <time>2020-09-27T10:15:37.000Z</time>
      </trkpt>
      <trkpt lat="47.30559" lon="-1.54468">
        <ele>27.1</ele>
        <time>2020-09-27T10:15:38.000Z</time>
      </trkpt>
      <trkpt lat="47.30561" lon="-1.54466">
        <ele>27.2</ele>
        <time>2020-09-27T10:15:39.000Z</time>
      </trkpt>
      <trkpt lat="47.30564" lon="-1.54463">
        <ele>27.2</ele>
        <time>2020-09-27T10:15:40.000Z</time>
      </trkpt>
      <trkpt lat="47.30566" lon="-1.54461">
        <ele>27.2</ele>
        <time>2020-09-27T10:15:41.000Z</time>
      </trkpt>
      <trkpt lat="47.30568" lon="-1.54459">
        <ele>27.2</ele>
        <time>2020-09-27T10:15:42.000Z</time>
      </trkpt>
      <trkpt lat="47.30571" lon="-1.54456">
        <ele>27.3</ele>
        <time>2020-09-27T10:15:43.000Z</time>
      </trkpt>
      <trkpt lat="47.30573" lon="-1.54454">
        <ele>27.3</ele>
        <time>2020-09-27T10:15:44.000Z</time>
      </trkpt>
      <trkpt lat="47.30575" lon="-1.54452">
        <ele>27.3</ele>
        <time>2020-09-27T10:15:45.000Z</time>
      </trkpt>
      <trkpt lat="47.30577" lon="-1.54451">
        <ele>27.3</ele>
        <time>2020-09-27T10:15:46.000Z</time>
      </trkpt>
      <trkpt lat="47.3058" lon="-1.54449">
        <ele>27.3</ele>
        <time>2020-09-27T10:15:47.000Z</time>
      </trkpt>
      <trkpt lat="47.30582" lon="-1.54447">
        <ele>27.3</ele>
        <time>2020-09-27T10:15:48.000Z</time>
      </trkpt>
      <trkpt lat="47.30584" lon="-1.54445">
        <ele>27.3</ele>
        <time>2020-09-27T10:15:49.000Z</time>
      </trkpt>
      <trkpt lat="47.30587" lon="-1.54442">
        <ele>27.3</ele>
        <time>2020-09-27T10:15:50.000Z</time>
      </trkpt>
      <trkpt lat="47.3059" lon="-1.5444">
        <ele>27.3</ele>
        <time>2020-09-27T10:15:51.000Z</time>
      </trkpt>
      <trkpt lat="47.30592" lon="-1.54437">
        <ele>27.2</ele>
        <time>2020-09-27T10:15:52.000Z</time>
      </trkpt>
      <trkpt lat="47.30595" lon="-1.54435">
        <ele>27.2</ele>
        <time>2020-09-27T10:15:53.000Z</time>
      </trkpt>
      <trkpt lat="47.30598" lon="-1.54432">
        <ele>27.2</ele>
        <time>2020-09-27T10:15:54.000Z</time>
      </trkpt>
      <trkpt lat="47.30601" lon="-1.54429">
        <ele>27.1</ele>
        <time>2020-09-27T10:15:55.000Z</time>
      </trkpt>
      <trkpt lat="47.30604" lon="-1.54426">
        <ele>27.1</ele>
        <time>2020-09-27T10:15:56.000Z</time>
      </trkpt>
      <trkpt lat="47.30607" lon="-1.54424">
        <ele>27.1</ele>
        <time>2020-09-27T10:15:57.000Z</time>
      </trkpt>
      <trkpt lat="47.3061" lon="-1.54421">
        <ele>27</ele>
        <time>2020-09-27T10:15:58.000Z</time>
      </trkpt>
      <trkpt lat="47.30612" lon="-1.54418">
        <ele>27</ele>
        <time>2020-09-27T10:15:59.000Z</time>
      </trkpt>
      <trkpt lat="47.30615" lon="-1.54415">
        <ele>27</ele>
        <time>2020-09-27T10:16:00.000Z</time>
      </trkpt>
      <trkpt lat="47.30618" lon="-1.54413">
        <ele>27</ele>
        <time>2020-09-27T10:16:01.000Z</time>
      </trkpt>
      <trkpt lat="47.30621" lon="-1.5441">
        <ele>27</ele>
        <time>2020-09-27T10:16:02.000Z</time>
      </trkpt>
      <trkpt lat="47.30624" lon="-1.54407">
        <ele>27</ele>
        <time>2020-09-27T10:16:03.000Z</time>
      </trkpt>
      <trkpt lat="47.30627" lon="-1.54404">
        <ele>27</ele>
        <time>2020-09-27T10:16:04.000Z</time>
      </trkpt>
      <trkpt lat="47.3063" lon="-1.54401">
        <ele>27</ele>
        <time>2020-09-27T10:16:05.000Z</time>
      </trkpt>
      <trkpt lat="47.30633" lon="-1.54398">
        <ele>27</ele>
        <time>2020-09-27T10:16:06.000Z</time>
      </trkpt>
      <trkpt lat="47.30636" lon="-1.54396">
        <ele>26.9</ele>
        <time>2020-09-27T10:16:07.000Z</time>
      </trkpt>
      <trkpt lat="47.30639" lon="-1.54393">
        <ele>26.9</ele>
        <time>2020-09-27T10:16:08.000Z</time>
      </trkpt>
      <trkpt lat="47.30642" lon="-1.5439">
        <ele>26.9</ele>
        <time>2020-09-27T10:16:09.000Z</time>
      </trkpt>
      <trkpt lat="47.30646" lon="-1.54387">
        <ele>26.8</ele>
        <time>2020-09-27T10:16:10.000Z</time>
      </trkpt>
      <trkpt lat="47.30649" lon="-1.54384">
        <ele>26.8</ele>
        <time>2020-09-27T10:16:11.000Z</time>
      </trkpt>
      <trkpt lat="47.30652" lon="-1.54381">
        <ele>26.7</ele>
        <time>2020-09-27T10:16:12.000Z</time>
      </trkpt>
      <trkpt lat="47.30656" lon="-1.54378">
        <ele>26.7</ele>
        <time>2020-09-27T10:16:13.000Z</time>
      </trkpt>
      <trkpt lat="47.30659" lon="-1.54375">
        <ele>26.6</ele>
        <time>2020-09-27T10:16:14.000Z</time>
      </trkpt>
      <trkpt lat="47.30663" lon="-1.54371">
        <ele>26.5</ele>
        <time>2020-09-27T10:16:15.000Z</time>
      </trkpt>
      <trkpt lat="47.30666" lon="-1.54368">
        <ele>26.4</ele>
        <time>2020-09-27T10:16:16.000Z</time>
      </trkpt>
      <trkpt lat="47.3067" lon="-1.54365">
        <ele>26.2</ele>
        <time>2020-09-27T10:16:17.000Z</time>
      </trkpt>
      <trkpt lat="47.30674" lon="-1.54361">
        <ele>26</ele>
        <time>2020-09-27T10:16:18.000Z</time>
      </trkpt>
      <trkpt lat="47.30678" lon="-1.54358">
        <ele>25.8</ele>
        <time>2020-09-27T10:16:19.000Z</time>
      </trkpt>
      <trkpt lat="47.30682" lon="-1.54354">
        <ele>25.6</ele>
        <time>2020-09-27T10:16:20.000Z</time>
      </trkpt>
      <trkpt lat="47.30686" lon="-1.54351">
        <ele>25.3</ele>
        <time>2020-09-27T10:16:21.000Z</time>
      </trkpt>
      <trkpt lat="47.3069" lon="-1.54347">
        <ele>25.1</ele>
        <time>2020-09-27T10:16:22.000Z</time>
      </trkpt>
      <trkpt lat="47.30694" lon="-1.54343">
        <ele>24.8</ele>
        <time>2020-09-27T10:16:23.000Z</time>
      </trkpt>
      <trkpt lat="47.30699" lon="-1.5434">
        <ele>24.6</ele>
        <time>2020-09-27T10:16:24.000Z</time>
      </trkpt>
      <trkpt lat="47.30704" lon="-1.54336">
        <ele>24.3</ele>
        <time>2020-09-27T10:16:25.000Z</time>
      </trkpt>
      <trkpt lat="47.30708" lon="-1.54332">
        <ele>24</ele>
        <time>2020-09-27T10:16:26.000Z</time>
      </trkpt>
      <trkpt lat="47.30713" lon="-1.54327">
        <ele>23.8</ele>
        <time>2020-09-27T10:16:27.000Z</time>
      </trkpt>
      <trkpt lat="47.30718" lon="-1.54323">
        <ele>23.7</ele>
        <time>2020-09-27T10:16:28.000Z</time>
      </trkpt>
      <trkpt lat="47.30724" lon="-1.54319">
        <ele>23.5</ele>
        <time>2020-09-27T10:16:29.000Z</time>
      </trkpt>
      <trkpt lat="47.30729" lon="-1.54315">
        <ele>23.3</ele>
        <time>2020-09-27T10:16:30.000Z</time>
      </trkpt>
      <trkpt lat="47.30735" lon="-1.5431">
        <ele>23.2</ele>
        <time>2020-09-27T10:16:31.000Z</time>
      </trkpt>
      <trkpt lat="47.3074" lon="-1.54306">
        <ele>23</ele>
        <time>2020-09-27T10:16:32.000Z</time>
      </trkpt>
      <trkpt lat="47.30745" lon="-1.54303">
        <ele>22.9</ele>
        <time>2020-09-27T10:16:33.000Z</time>
      </trkpt>
      <trkpt lat="47.30751" lon="-1.543">
        <ele>22.8</ele>
        <time>2020-09-27T10:16:34.000Z</time>
      </trkpt>
      <trkpt lat="47.30756" lon="-1.54297">
        <ele>22.5</ele>
        <time>2020-09-27T10:16:35.000Z</time>
      </trkpt>
      <trkpt lat="47.30761" lon="-1.54296">
        <ele>22.2</ele>
        <time>2020-09-27T10:16:36.000Z</time>
      </trkpt>
      <trkpt lat="47.30767" lon="-1.54295">
        <ele>21.9</ele>
        <time>2020-09-27T10:16:37.000Z</time>
      </trkpt>
      <trkpt lat="47.30772" lon="-1.54296">
        <ele>21.6</ele>
        <time>2020-09-27T10:16:38.000Z</time>
      </trkpt>
      <trkpt lat="47.30777" lon="-1.54297">
        <ele>21.3</ele>
        <time>2020-09-27T10:16:39.000Z</time>
      </trkpt>
      <trkpt lat="47.30782" lon="-1.54298">
        <ele>21</ele>
        <time>2020-09-27T10:16:40.000Z</time>
      </trkpt>
      <trkpt lat="47.30787" lon="-1.54298">
        <ele>20.7</ele>
        <time>2020-09-27T10:16:41.000Z</time>
      </trkpt>
      <trkpt lat="47.30791" lon="-1.54298">
        <ele>20.4</ele>
        <time>2020-09-27T10:16:42.000Z</time>
      </trkpt>
      <trkpt lat="47.30796" lon="-1.54298">
        <ele>20.2</ele>
        <time>2020-09-27T10:16:43.000Z</time>
      </trkpt>
      <trkpt lat="47.308" lon="-1.54297">
        <ele>20</ele>
        <time>2020-09-27T10:16:44.000Z</time>
      </trkpt>
      <trkpt lat="47.30803" lon="-1.54296">
        <ele>19.8</ele>
        <time>2020-09-27T10:16:45.000Z</time>
      </trkpt>
      <trkpt lat="47.30807" lon="-1.54295">
        <ele>19.6</ele>
        <time>2020-09-27T10:16:46.000Z</time>
      </trkpt>
      <trkpt lat="47.3081" lon="-1.54294">
        <ele>19.4</ele>
        <time>2020-09-27T10:16:47.000Z</time>
      </trkpt>
      <trkpt lat="47.30812" lon="-1.54293">
        <ele>19.3</ele>
        <time>2020-09-27T10:16:48.000Z</time>
      </trkpt>
      <trkpt lat="47.30815" lon="-1.54292">
        <ele>19.1</ele>
        <time>2020-09-27T10:16:49.000Z</time>
      </trkpt>
      <trkpt lat="47.30818" lon="-1.54291">
        <ele>18.9</ele>
        <time>2020-09-27T10:16:50.000Z</time>
      </trkpt>
      <trkpt lat="47.3082" lon="-1.54291">
        <ele>18.8</ele>
        <time>2020-09-27T10:16:51.000Z</time>
      </trkpt>
      <trkpt lat="47.30823" lon="-1.5429">
        <ele>18.6</ele>
        <time>2020-09-27T10:16:52.000Z</time>
      </trkpt>
      <trkpt lat="47.30826" lon="-1.54289">
        <ele>18.5</ele>
        <time>2020-09-27T10:16:53.000Z</time>
      </trkpt>
      <trkpt lat="47.30829" lon="-1.54289">
        <ele>18.3</ele>
        <time>2020-09-27T10:16:54.000Z</time>
      </trkpt>
      <trkpt lat="47.30831" lon="-1.54288">
        <ele>18.1</ele>
        <time>2020-09-27T10:16:55.000Z</time>
      </trkpt>
      <trkpt lat="47.30834" lon="-1.54287">
        <ele>18</ele>
        <time>2020-09-27T10:16:56.000Z</time>
      </trkpt>
      <trkpt lat="47.30837" lon="-1.54285">
        <ele>17.9</ele>
        <time>2020-09-27T10:16:57.000Z</time>
      </trkpt>
      <trkpt lat="47.3084" lon="-1.54284">
        <ele>17.7</ele>
        <time>2020-09-27T10:16:58.000Z</time>
      </trkpt>
      <trkpt lat="47.30844" lon="-1.54282">
        <ele>17.6</ele>
        <time>2020-09-27T10:16:59.000Z</time>
      </trkpt>
      <trkpt lat="47.30847" lon="-1.5428">
        <ele>17.5</ele>
        <time>2020-09-27T10:17:00.000Z</time>
      </trkpt>
      <trkpt lat="47.3085" lon="-1.54277">
        <ele>17.4</ele>
        <time>2020-09-27T10:17:01.000Z</time>
      </trkpt>
      <trkpt lat="47.30854" lon="-1.54275">
        <ele>17.3</ele>
        <time>2020-09-27T10:17:02.000Z</time>
      </trkpt>
      <trkpt lat="47.30858" lon="-1.54272">
        <ele>17.1</ele>
        <time>2020-09-27T10:17:03.000Z</time>
      </trkpt>
      <trkpt lat="47.30862" lon="-1.5427">
        <ele>17</ele>
        <time>2020-09-27T10:17:04.000Z</time>
      </trkpt>
      <trkpt lat="47.30867" lon="-1.54268">
        <ele>16.8</ele>
        <time>2020-09-27T10:17:05.000Z</time>
      </trkpt>
      <trkpt lat="47.30872" lon="-1.54266">
        <ele>16.6</ele>
        <time>2020-09-27T10:17:06.000Z</time>
      </trkpt>
      <trkpt lat="47.30877" lon="-1.54265">
        <ele>16.4</ele>
        <time>2020-09-27T10:17:07.000Z</time>
      </trkpt>
      <trkpt lat="47.30883" lon="-1.54265">
        <ele>16.2</ele>
        <time>2020-09-27T10:17:08.000Z</time>
      </trkpt>
      <trkpt lat="47.30889" lon="-1.54266">
        <ele>16</ele>
        <time>2020-09-27T10:17:09.000Z</time>
      </trkpt>
      <trkpt lat="47.30895" lon="-1.54266">
        <ele>15.8</ele>
        <time>2020-09-27T10:17:10.000Z</time>
      </trkpt>
      <trkpt lat="47.30902" lon="-1.54267">
        <ele>15.5</ele>
        <time>2020-09-27T10:17:11.000Z</time>
      </trkpt>
      <trkpt lat="47.30908" lon="-1.54267">
        <ele>15.3</ele>
        <time>2020-09-27T10:17:12.000Z</time>
      </trkpt>
      <trkpt lat="47.30914" lon="-1.54267">
        <ele>15.1</ele>
        <time>2020-09-27T10:17:13.000Z</time>
      </trkpt>
      <trkpt lat="47.30921" lon="-1.54268">
        <ele>14.9</ele>
        <time>2020-09-27T10:17:14.000Z</time>
      </trkpt>
      <trkpt lat="47.30928" lon="-1.54269">
        <ele>14.7</ele>
        <time>2020-09-27T10:17:15.000Z</time>
      </trkpt>
      <trkpt lat="47.30935" lon="-1.54271">
        <ele>14.5</ele>
        <time>2020-09-27T10:17:16.000Z</time>
      </trkpt>
      <trkpt lat="47.30941" lon="-1.54273">
        <ele>14.3</ele>
        <time>2020-09-27T10:17:17.000Z</time>
      </trkpt>
      <trkpt lat="47.30948" lon="-1.54277">
        <ele>14.1</ele>
        <time>2020-09-27T10:17:18.000Z</time>
      </trkpt>
      <trkpt lat="47.30954" lon="-1.54281">
        <ele>14</ele>
        <time>2020-09-27T10:17:19.000Z</time>
      </trkpt>
      <trkpt lat="47.30959" lon="-1.54285">
        <ele>13.9</ele>
        <time>2020-09-27T10:17:20.000Z</time>
      </trkpt>
      <trkpt lat="47.30964" lon="-1.54288">
        <ele>13.8</ele>
        <time>2020-09-27T10:17:21.000Z</time>
      </trkpt>
      <trkpt lat="47.30968" lon="-1.5429">
        <ele>13.7</ele>
        <time>2020-09-27T10:17:22.000Z</time>
      </trkpt>
      <trkpt lat="47.30972" lon="-1.54291">
        <ele>13.6</ele>
        <time>2020-09-27T10:17:23.000Z</time>
      </trkpt>
      <trkpt lat="47.30977" lon="-1.5429">
        <ele>13.5</ele>
        <time>2020-09-27T10:17:24.000Z</time>
      </trkpt>
      <trkpt lat="47.30981" lon="-1.54289">
        <ele>13.4</ele>
        <time>2020-09-27T10:17:25.000Z</time>
      </trkpt>
      <trkpt lat="47.30986" lon="-1.54287">
        <ele>13.2</ele>
        <time>2020-09-27T10:17:26.000Z</time>
      </trkpt>
      <trkpt lat="47.3099" lon="-1.54285">
        <ele>13.1</ele>
        <time>2020-09-27T10:17:27.000Z</time>
      </trkpt>
      <trkpt lat="47.30995" lon="-1.54283">
        <ele>12.9</ele>
        <time>2020-09-27T10:17:28.000Z</time>
      </trkpt>
      <trkpt lat="47.31" lon="-1.54282">
        <ele>12.8</ele>
        <time>2020-09-27T10:17:29.000Z</time>
      </trkpt>
      <trkpt lat="47.31006" lon="-1.54281">
        <ele>12.6</ele>
        <time>2020-09-27T10:17:30.000Z</time>
      </trkpt>
      <trkpt lat="47.31011" lon="-1.54281">
        <ele>12.4</ele>
        <time>2020-09-27T10:17:31.000Z</time>
      </trkpt>
      <trkpt lat="47.31016" lon="-1.54281">
        <ele>12.2</ele>
        <time>2020-09-27T10:17:32.000Z</time>
      </trkpt>
      <trkpt lat="47.31022" lon="-1.54281">
        <ele>12</ele>
        <time>2020-09-27T10:17:33.000Z</time>
      </trkpt>
      <trkpt lat="47.31027" lon="-1.54282">
        <ele>11.8</ele>
        <time>2020-09-27T10:17:34.000Z</time>
      </trkpt>
      <trkpt lat="47.31032" lon="-1.54282">
        <ele>11.7</ele>
        <time>2020-09-27T10:17:35.000Z</time>
      </trkpt>
      <trkpt lat="47.31037" lon="-1.54283">
        <ele>11.5</ele>
        <time>2020-09-27T10:17:36.000Z</time>
      </trkpt>
      <trkpt lat="47.31042" lon="-1.54283">
        <ele>11.4</ele>
        <time>2020-09-27T10:17:37.000Z</time>
      </trkpt>
      <trkpt lat="47.31047" lon="-1.54284">
        <ele>11.2</ele>
        <time>2020-09-27T10:17:38.000Z</time>
      </trkpt>
      <trkpt lat="47.31052" lon="-1.54284">
        <ele>11.1</ele>
        <time>2020-09-27T10:17:39.000Z</time>
      </trkpt>
      <trkpt lat="47.31057" lon="-1.54285">
        <ele>11</ele>
        <time>2020-09-27T10:17:40.000Z</time>
      </trkpt>
      <trkpt lat="47.31062" lon="-1.54286">
        <ele>10.8</ele>
        <time>2020-09-27T10:17:41.000Z</time>
      </trkpt>
      <trkpt lat="47.31067" lon="-1.54286">
        <ele>10.7</ele>
        <time>2020-09-27T10:17:42.000Z</time>
      </trkpt>
      <trkpt lat="47.31071" lon="-1.54287">
        <ele>10.6</ele>
        <time>2020-09-27T10:17:43.000Z</time>
      </trkpt>
      <trkpt lat="47.31076" lon="-1.54287">
        <ele>10.5</ele>
        <time>2020-09-27T10:17:44.000Z</time>
      </trkpt>
      <trkpt lat="47.31081" lon="-1.54288">
        <ele>10.3</ele>
        <time>2020-09-27T10:17:45.000Z</time>
      </trkpt>
      <trkpt lat="47.31086" lon="-1.54288">
        <ele>10.2</ele>
        <time>2020-09-27T10:17:46.000Z</time>
      </trkpt>
      <trkpt lat="47.31091" lon="-1.54289">
        <ele>10.1</ele>
        <time>2020-09-27T10:17:47.000Z</time>
      </trkpt>
      <trkpt lat="47.31096" lon="-1.54289">
        <ele>10</ele>
        <time>2020-09-27T10:17:48.000Z</time>
      </trkpt>
      <trkpt lat="47.31101" lon="-1.5429">
        <ele>9.9</ele>
        <time>2020-09-27T10:17:49.000Z</time>
      </trkpt>
      <trkpt lat="47.31106" lon="-1.5429">
        <ele>9.8</ele>
        <time>2020-09-27T10:17:50.000Z</time>
      </trkpt>
      <trkpt lat="47.31111" lon="-1.5429">
        <ele>9.7</ele>
        <time>2020-09-27T10:17:51.000Z</time>
      </trkpt>
      <trkpt lat="47.31115" lon="-1.5429">
        <ele>9.6</ele>
        <time>2020-09-27T10:17:52.000Z</time>
      </trkpt>
      <trkpt lat="47.3112" lon="-1.5429">
        <ele>9.5</ele>
        <time>2020-09-27T10:17:53.000Z</time>
      </trkpt>
      <trkpt lat="47.31125" lon="-1.5429">
        <ele>9.4</ele>
        <time>2020-09-27T10:17:54.000Z</time>
      </trkpt>
      <trkpt lat="47.3113" lon="-1.5429">
        <ele>9.3</ele>
        <time>2020-09-27T10:17:55.000Z</time>
      </trkpt>
      <trkpt lat="47.31134" lon="-1.5429">
        <ele>9.2</ele>
        <time>2020-09-27T10:17:56.000Z</time>
      </trkpt>
      <trkpt lat="47.31139" lon="-1.5429">
        <ele>9.1</ele>
        <time>2020-09-27T10:17:57.000Z</time>
      </trkpt>
      <trkpt lat="47.31143" lon="-1.5429">
        <ele>9</ele>
        <time>2020-09-27T10:17:58.000Z</time>
      </trkpt>
      <trkpt lat="47.31148" lon="-1.5429">
        <ele>8.9</ele>
        <time>2020-09-27T10:17:59.000Z</time>
      </trkpt>
      <trkpt lat="47.31152" lon="-1.5429">
        <ele>8.7</ele>
        <time>2020-09-27T10:18:00.000Z</time>
      </trkpt>
      <trkpt lat="47.31156" lon="-1.5429">
        <ele>8.6</ele>
        <time>2020-09-27T10:18:01.000Z</time>
      </trkpt>
      <trkpt lat="47.3116" lon="-1.5429">
        <ele>8.6</ele>
        <time>2020-09-27T10:18:02.000Z</time>
      </trkpt>
      <trkpt lat="47.31164" lon="-1.5429">
        <ele>8.5</ele>
        <time>2020-09-27T10:18:03.000Z</time>
      </trkpt>
      <trkpt lat="47.31168" lon="-1.54291">
        <ele>8.4</ele>
        <time>2020-09-27T10:18:04.000Z</time>
      </trkpt>
      <trkpt lat="47.31172" lon="-1.54291">
        <ele>8.3</ele>
        <time>2020-09-27T10:18:05.000Z</time>
      </trkpt>
      <trkpt lat="47.31176" lon="-1.54292">
        <ele>8.3</ele>
        <time>2020-09-27T10:18:06.000Z</time>
      </trkpt>
      <trkpt lat="47.31179" lon="-1.54293">
        <ele>8.3</ele>
        <time>2020-09-27T10:18:07.000Z</time>
      </trkpt>
      <trkpt lat="47.31183" lon="-1.54294">
        <ele>8.2</ele>
        <time>2020-09-27T10:18:08.000Z</time>
      </trkpt>
      <trkpt lat="47.31186" lon="-1.54295">
        <ele>8.2</ele>
        <time>2020-09-27T10:18:09.000Z</time>
      </trkpt>
      <trkpt lat="47.3119" lon="-1.54297">
        <ele>8.2</ele>
        <time>2020-09-27T10:18:10.000Z</time>
      </trkpt>
      <trkpt lat="47.31193" lon="-1.54298">
        <ele>8.2</ele>
        <time>2020-09-27T10:18:11.000Z</time>
      </trkpt>
      <trkpt lat="47.31196" lon="-1.543">
        <ele>8.1</ele>
        <time>2020-09-27T10:18:12.000Z</time>
      </trkpt>
      <trkpt lat="47.31199" lon="-1.54301">
        <ele>8.1</ele>
        <time>2020-09-27T10:18:13.000Z</time>
      </trkpt>
      <trkpt lat="47.31202" lon="-1.54303">
        <ele>8.1</ele>
        <time>2020-09-27T10:18:14.000Z</time>
      </trkpt>
      <trkpt lat="47.31204" lon="-1.54305">
        <ele>8.1</ele>
        <time>2020-09-27T10:18:15.000Z</time>
      </trkpt>
      <trkpt lat="47.31207" lon="-1.54307">
        <ele>8.1</ele>
        <time>2020-09-27T10:18:16.000Z</time>
      </trkpt>
      <trkpt lat="47.31209" lon="-1.5431">
        <ele>8.1</ele>
        <time>2020-09-27T10:18:17.000Z</time>
      </trkpt>
      <trkpt lat="47.31211" lon="-1.54312">
        <ele>8.1</ele>
        <time>2020-09-27T10:18:18.000Z</time>
      </trkpt>
      <trkpt lat="47.31213" lon="-1.54314">
        <ele>8.2</ele>
        <time>2020-09-27T10:18:19.000Z</time>
      </trkpt>
      <trkpt lat="47.31214" lon="-1.54316">
        <ele>8.2</ele>
        <time>2020-09-27T10:18:20.000Z</time>
      </trkpt>
      <trkpt lat="47.31214" lon="-1.54316">
        <ele>8.2</ele>
        <time>2020-09-27T10:18:21.000Z</time>
      </trkpt>
      <trkpt lat="47.31214" lon="-1.54317">
        <ele>8.2</ele>
        <time>2020-09-27T10:18:22.000Z</time>
      </trkpt>
      <trkpt lat="47.31214" lon="-1.54317">
        <ele>8.2</ele>
        <time>2020-09-27T10:18:23.000Z</time>
      </trkpt>
      <trkpt lat="47.31214" lon="-1.54317">
        <ele>8.2</ele>
        <time>2020-09-27T10:18:24.000Z</time>
      </trkpt>
      <trkpt lat="47.31214" lon="-1.54317">
        <ele>8.2</ele>
        <time>2020-09-27T10:18:25.000Z</time>
      </trkpt>
      <trkpt lat="47.31215" lon="-1.54317">
        <ele>8.2</ele>
        <time>2020-09-27T10:18:26.000Z</time>
      </trkpt>
      <trkpt lat="47.31215" lon="-1.54317">
        <ele>8.2</ele>
        <time>2020-09-27T10:18:27.000Z</time>
      </trkpt>
      <trkpt lat="47.31216" lon="-1.54318">
        <ele>8.2</ele>
        <time>2020-09-27T10:18:28.000Z</time>
      </trkpt>
      <trkpt lat="47.31217" lon="-1.54318">
        <ele>8.1</ele>
        <time>2020-09-27T10:18:29.000Z</time>
      </trkpt>
      <trkpt lat="47.31218" lon="-1.54319">
        <ele>8.1</ele>
        <time>2020-09-27T10:18:30.000Z</time>
      </trkpt>
      <trkpt lat="47.3122" lon="-1.54319">
        <ele>8</ele>
        <time>2020-09-27T10:18:31.000Z</time>
      </trkpt>
      <trkpt lat="47.31222" lon="-1.54319">
        <ele>8</ele>
        <time>2020-09-27T10:18:32.000Z</time>
      </trkpt>
      <trkpt lat="47.31224" lon="-1.54319">
        <ele>7.9</ele>
        <time>2020-09-27T10:18:33.000Z</time>
      </trkpt>
      <trkpt lat="47.31227" lon="-1.54319">
        <ele>7.8</ele>
        <time>2020-09-27T10:18:34.000Z</time>
      </trkpt>
      <trkpt lat="47.31229" lon="-1.54318">
        <ele>7.6</ele>
        <time>2020-09-27T10:18:35.000Z</time>
      </trkpt>
      <trkpt lat="47.31232" lon="-1.54317">
        <ele>7.5</ele>
        <time>2020-09-27T10:18:36.000Z</time>
      </trkpt>
      <trkpt lat="47.31235" lon="-1.54315">
        <ele>7.3</ele>
        <time>2020-09-27T10:18:37.000Z</time>
      </trkpt>
      <trkpt lat="47.31238" lon="-1.54314">
        <ele>7.2</ele>
        <time>2020-09-27T10:18:38.000Z</time>
      </trkpt>
      <trkpt lat="47.3124" lon="-1.54313">
        <ele>7.1</ele>
        <time>2020-09-27T10:18:39.000Z</time>
      </trkpt>
      <trkpt lat="47.31242" lon="-1.54311">
        <ele>7</ele>
        <time>2020-09-27T10:18:40.000Z</time>
      </trkpt>
      <trkpt lat="47.31243" lon="-1.5431">
        <ele>6.9</ele>
        <time>2020-09-27T10:18:41.000Z</time>
      </trkpt>
      <trkpt lat="47.31245" lon="-1.54309">
        <ele>6.9</ele>
        <time>2020-09-27T10:18:42.000Z</time>
      </trkpt>
      <trkpt lat="47.31247" lon="-1.54307">
        <ele>6.8</ele>
        <time>2020-09-27T10:18:43.000Z</time>
      </trkpt>
      <trkpt lat="47.31249" lon="-1.54306">
        <ele>6.7</ele>
        <time>2020-09-27T10:18:44.000Z</time>
      </trkpt>
      <trkpt lat="47.31251" lon="-1.54305">
        <ele>6.7</ele>
        <time>2020-09-27T10:18:45.000Z</time>
      </trkpt>
      <trkpt lat="47.31254" lon="-1.54303">
        <ele>6.7</ele>
        <time>2020-09-27T10:18:46.000Z</time>
      </trkpt>
      <trkpt lat="47.31257" lon="-1.54302">
        <ele>6.8</ele>
        <time>2020-09-27T10:18:47.000Z</time>
      </trkpt>
      <trkpt lat="47.31259" lon="-1.54301">
        <ele>6.8</ele>
        <time>2020-09-27T10:18:48.000Z</time>
      </trkpt>
      <trkpt lat="47.31263" lon="-1.54301">
        <ele>6.9</ele>
        <time>2020-09-27T10:18:49.000Z</time>
      </trkpt>
      <trkpt lat="47.31266" lon="-1.543">
        <ele>7</ele>
        <time>2020-09-27T10:18:50.000Z</time>
      </trkpt>
      <trkpt lat="47.31269" lon="-1.543">
        <ele>7.1</ele>
        <time>2020-09-27T10:18:51.000Z</time>
      </trkpt>
      <trkpt lat="47.31273" lon="-1.54301">
        <ele>7.2</ele>
        <time>2020-09-27T10:18:52.000Z</time>
      </trkpt>
      <trkpt lat="47.31276" lon="-1.54301">
        <ele>7.2</ele>
        <time>2020-09-27T10:18:53.000Z</time>
      </trkpt>
      <trkpt lat="47.3128" lon="-1.54301">
        <ele>7.3</ele>
        <time>2020-09-27T10:18:54.000Z</time>
      </trkpt>
      <trkpt lat="47.31283" lon="-1.54302">
        <ele>7.4</ele>
        <time>2020-09-27T10:18:55.000Z</time>
      </trkpt>
      <trkpt lat="47.31287" lon="-1.54302">
        <ele>7.5</ele>
        <time>2020-09-27T10:18:56.000Z</time>
      </trkpt>
      <trkpt lat="47.31291" lon="-1.54302">
        <ele>7.6</ele>
        <time>2020-09-27T10:18:57.000Z</time>
      </trkpt>
      <trkpt lat="47.31294" lon="-1.54302">
        <ele>7.7</ele>
        <time>2020-09-27T10:18:58.000Z</time>
      </trkpt>
      <trkpt lat="47.31298" lon="-1.54302">
        <ele>7.8</ele>
        <time>2020-09-27T10:18:59.000Z</time>
      </trkpt>
      <trkpt lat="47.31301" lon="-1.54302">
        <ele>7.9</ele>
        <time>2020-09-27T10:19:00.000Z</time>
      </trkpt>
      <trkpt lat="47.31305" lon="-1.54302">
        <ele>7.9</ele>
        <time>2020-09-27T10:19:01.000Z</time>
      </trkpt>
      <trkpt lat="47.31308" lon="-1.54302">
        <ele>8</ele>
        <time>2020-09-27T10:19:02.000Z</time>
      </trkpt>
      <trkpt lat="47.31312" lon="-1.54302">
        <ele>8.1</ele>
        <time>2020-09-27T10:19:03.000Z</time>
      </trkpt>
      <trkpt lat="47.31315" lon="-1.54302">
        <ele>8.2</ele>
        <time>2020-09-27T10:19:04.000Z</time>
      </trkpt>
      <trkpt lat="47.31318" lon="-1.54302">
        <ele>8.3</ele>
        <time>2020-09-27T10:19:05.000Z</time>
      </trkpt>
      <trkpt lat="47.31322" lon="-1.54302">
        <ele>8.3</ele>
        <time>2020-09-27T10:19:06.000Z</time>
      </trkpt>
      <trkpt lat="47.31325" lon="-1.54303">
        <ele>8.4</ele>
        <time>2020-09-27T10:19:07.000Z</time>
      </trkpt>
      <trkpt lat="47.31328" lon="-1.54303">
        <ele>8.5</ele>
        <time>2020-09-27T10:19:08.000Z</time>
      </trkpt>
      <trkpt lat="47.31331" lon="-1.54304">
        <ele>8.6</ele>
        <time>2020-09-27T10:19:09.000Z</time>
      </trkpt>
      <trkpt lat="47.31335" lon="-1.54305">
        <ele>8.7</ele>
        <time>2020-09-27T10:19:10.000Z</time>
      </trkpt>
      <trkpt lat="47.31338" lon="-1.54306">
        <ele>8.7</ele>
        <time>2020-09-27T10:19:11.000Z</time>
      </trkpt>
      <trkpt lat="47.31341" lon="-1.54307">
        <ele>8.7</ele>
        <time>2020-09-27T10:19:12.000Z</time>
      </trkpt>
      <trkpt lat="47.31343" lon="-1.54309">
        <ele>8.7</ele>
        <time>2020-09-27T10:19:13.000Z</time>
      </trkpt>
      <trkpt lat="47.31346" lon="-1.5431">
        <ele>8.7</ele>
        <time>2020-09-27T10:19:14.000Z</time>
      </trkpt>
      <trkpt lat="47.31349" lon="-1.54312">
        <ele>8.6</ele>
        <time>2020-09-27T10:19:15.000Z</time>
      </trkpt>
      <trkpt lat="47.31352" lon="-1.54313">
        <ele>8.6</ele>
        <time>2020-09-27T10:19:16.000Z</time>
      </trkpt>
      <trkpt lat="47.31355" lon="-1.54314">
        <ele>8.6</ele>
        <time>2020-09-27T10:19:17.000Z</time>
      </trkpt>
      <trkpt lat="47.31358" lon="-1.54314">
        <ele>8.6</ele>
        <time>2020-09-27T10:19:18.000Z</time>
      </trkpt>
      <trkpt lat="47.31361" lon="-1.54314">
        <ele>8.6</ele>
        <time>2020-09-27T10:19:19.000Z</time>
      </trkpt>
      <trkpt lat="47.31364" lon="-1.54314">
        <ele>8.6</ele>
        <time>2020-09-27T10:19:20.000Z</time>
      </trkpt>
      <trkpt lat="47.31367" lon="-1.54314">
        <ele>8.6</ele>
        <time>2020-09-27T10:19:21.000Z</time>
      </trkpt>
      <trkpt lat="47.3137" lon="-1.54314">
        <ele>8.5</ele>
        <time>2020-09-27T10:19:22.000Z</time>
      </trkpt>
      <trkpt lat="47.31373" lon="-1.54314">
        <ele>8.5</ele>
        <time>2020-09-27T10:19:23.000Z</time>
      </trkpt>
      <trkpt lat="47.31377" lon="-1.54314">
        <ele>8.5</ele>
        <time>2020-09-27T10:19:24.000Z</time>
      </trkpt>
      <trkpt lat="47.3138" lon="-1.54314">
        <ele>8.5</ele>
        <time>2020-09-27T10:19:25.000Z</time>
      </trkpt>
      <trkpt lat="47.31384" lon="-1.54315">
        <ele>8.4</ele>
        <time>2020-09-27T10:19:26.000Z</time>
      </trkpt>
      <trkpt lat="47.31387" lon="-1.54315">
        <ele>8.4</ele>
        <time>2020-09-27T10:19:27.000Z</time>
      </trkpt>
      <trkpt lat="47.31391" lon="-1.54315">
        <ele>8.4</ele>
        <time>2020-09-27T10:19:28.000Z</time>
      </trkpt>
      <trkpt lat="47.31395" lon="-1.54316">
        <ele>8.4</ele>
        <time>2020-09-27T10:19:29.000Z</time>
      </trkpt>
      <trkpt lat="47.31398" lon="-1.54316">
        <ele>8.3</ele>
        <time>2020-09-27T10:19:30.000Z</time>
      </trkpt>
      <trkpt lat="47.31402" lon="-1.54316">
        <ele>8.3</ele>
        <time>2020-09-27T10:19:31.000Z</time>
      </trkpt>
      <trkpt lat="47.31406" lon="-1.54316">
        <ele>8.3</ele>
        <time>2020-09-27T10:19:32.000Z</time>
      </trkpt>
      <trkpt lat="47.31409" lon="-1.54317">
        <ele>8.3</ele>
        <time>2020-09-27T10:19:33.000Z</time>
      </trkpt>
      <trkpt lat="47.31413" lon="-1.54317">
        <ele>8.2</ele>
        <time>2020-09-27T10:19:34.000Z</time>
      </trkpt>
      <trkpt lat="47.31416" lon="-1.54317">
        <ele>8.2</ele>
        <time>2020-09-27T10:19:35.000Z</time>
      </trkpt>
      <trkpt lat="47.31419" lon="-1.54317">
        <ele>8.1</ele>
        <time>2020-09-27T10:19:36.000Z</time>
      </trkpt>
      <trkpt lat="47.31423" lon="-1.54317">
        <ele>8</ele>
        <time>2020-09-27T10:19:37.000Z</time>
      </trkpt>
      <trkpt lat="47.31426" lon="-1.54318">
        <ele>7.9</ele>
        <time>2020-09-27T10:19:38.000Z</time>
      </trkpt>
      <trkpt lat="47.31429" lon="-1.54319">
        <ele>7.8</ele>
        <time>2020-09-27T10:19:39.000Z</time>
      </trkpt>
      <trkpt lat="47.31433" lon="-1.5432">
        <ele>7.7</ele>
        <time>2020-09-27T10:19:40.000Z</time>
      </trkpt>
      <trkpt lat="47.31436" lon="-1.54322">
        <ele>7.6</ele>
        <time>2020-09-27T10:19:41.000Z</time>
      </trkpt>
      <trkpt lat="47.3144" lon="-1.54323">
        <ele>7.5</ele>
        <time>2020-09-27T10:19:42.000Z</time>
      </trkpt>
      <trkpt lat="47.31443" lon="-1.54324">
        <ele>7.4</ele>
        <time>2020-09-27T10:19:43.000Z</time>
      </trkpt>
      <trkpt lat="47.31446" lon="-1.54325">
        <ele>7.4</ele>
        <time>2020-09-27T10:19:44.000Z</time>
      </trkpt>
      <trkpt lat="47.31449" lon="-1.54326">
        <ele>7.3</ele>
        <time>2020-09-27T10:19:45.000Z</time>
      </trkpt>
      <trkpt lat="47.31452" lon="-1.54327">
        <ele>7.2</ele>
        <time>2020-09-27T10:19:46.000Z</time>
      </trkpt>
      <trkpt lat="47.31456" lon="-1.54327">
        <ele>7.1</ele>
        <time>2020-09-27T10:19:47.000Z</time>
      </trkpt>
      <trkpt lat="47.31459" lon="-1.54328">
        <ele>7</ele>
        <time>2020-09-27T10:19:48.000Z</time>
      </trkpt>
      <trkpt lat="47.31462" lon="-1.54328">
        <ele>6.9</ele>
        <time>2020-09-27T10:19:49.000Z</time>
      </trkpt>
      <trkpt lat="47.31466" lon="-1.54328">
        <ele>6.8</ele>
        <time>2020-09-27T10:19:50.000Z</time>
      </trkpt>
      <trkpt lat="47.31469" lon="-1.54329">
        <ele>6.8</ele>
        <time>2020-09-27T10:19:51.000Z</time>
      </trkpt>
      <trkpt lat="47.31473" lon="-1.54329">
        <ele>6.7</ele>
        <time>2020-09-27T10:19:52.000Z</time>
      </trkpt>
      <trkpt lat="47.31477" lon="-1.54329">
        <ele>6.6</ele>
        <time>2020-09-27T10:19:53.000Z</time>
      </trkpt>
      <trkpt lat="47.3148" lon="-1.5433">
        <ele>6.5</ele>
        <time>2020-09-27T10:19:54.000Z</time>
      </trkpt>
      <trkpt lat="47.31484" lon="-1.5433">
        <ele>6.4</ele>
        <time>2020-09-27T10:19:55.000Z</time>
      </trkpt>
      <trkpt lat="47.31487" lon="-1.5433">
        <ele>6.3</ele>
        <time>2020-09-27T10:19:56.000Z</time>
      </trkpt>
      <trkpt lat="47.3149" lon="-1.5433">
        <ele>6.2</ele>
        <time>2020-09-27T10:19:57.000Z</time>
      </trkpt>
      <trkpt lat="47.31493" lon="-1.5433">
        <ele>6.2</ele>
        <time>2020-09-27T10:19:58.000Z</time>
      </trkpt>
      <trkpt lat="47.31497" lon="-1.5433">
        <ele>6.1</ele>
        <time>2020-09-27T10:19:59.000Z</time>
      </trkpt>
      <trkpt lat="47.315" lon="-1.5433">
        <ele>6</ele>
        <time>2020-09-27T10:20:00.000Z</time>
      </trkpt>
      <trkpt lat="47.31503" lon="-1.54329">
        <ele>6.1</ele>
        <time>2020-09-27T10:20:01.000Z</time>
      </trkpt>
      <trkpt lat="47.31507" lon="-1.54328">
        <ele>6.2</ele>
        <time>2020-09-27T10:20:02.000Z</time>
      </trkpt>
      <trkpt lat="47.3151" lon="-1.54327">
        <ele>6.2</ele>
        <time>2020-09-27T10:20:03.000Z</time>
      </trkpt>
      <trkpt lat="47.31514" lon="-1.54326">
        <ele>6.3</ele>
        <time>2020-09-27T10:20:04.000Z</time>
      </trkpt>
      <trkpt lat="47.31517" lon="-1.54325">
        <ele>6.4</ele>
        <time>2020-09-27T10:20:05.000Z</time>
      </trkpt>
      <trkpt lat="47.31521" lon="-1.54325">
        <ele>6.4</ele>
        <time>2020-09-27T10:20:06.000Z</time>
      </trkpt>
      <trkpt lat="47.31524" lon="-1.54324">
        <ele>6.5</ele>
        <time>2020-09-27T10:20:07.000Z</time>
      </trkpt>
      <trkpt lat="47.31528" lon="-1.54324">
        <ele>6.6</ele>
        <time>2020-09-27T10:20:08.000Z</time>
      </trkpt>
      <trkpt lat="47.31531" lon="-1.54324">
        <ele>6.7</ele>
        <time>2020-09-27T10:20:09.000Z</time>
      </trkpt>
      <trkpt lat="47.31535" lon="-1.54324">
        <ele>6.7</ele>
        <time>2020-09-27T10:20:10.000Z</time>
      </trkpt>
      <trkpt lat="47.31538" lon="-1.54324">
        <ele>6.8</ele>
        <time>2020-09-27T10:20:11.000Z</time>
      </trkpt>
      <trkpt lat="47.31542" lon="-1.54324">
        <ele>6.9</ele>
        <time>2020-09-27T10:20:12.000Z</time>
      </trkpt>
      <trkpt lat="47.31545" lon="-1.54324">
        <ele>7</ele>
        <time>2020-09-27T10:20:13.000Z</time>
      </trkpt>
      <trkpt lat="47.31549" lon="-1.54324">
        <ele>7</ele>
        <time>2020-09-27T10:20:14.000Z</time>
      </trkpt>
      <trkpt lat="47.31552" lon="-1.54324">
        <ele>7.1</ele>
        <time>2020-09-27T10:20:15.000Z</time>
      </trkpt>
      <trkpt lat="47.31556" lon="-1.54324">
        <ele>7.2</ele>
        <time>2020-09-27T10:20:16.000Z</time>
      </trkpt>
      <trkpt lat="47.3156" lon="-1.54324">
        <ele>7.3</ele>
        <time>2020-09-27T10:20:17.000Z</time>
      </trkpt>
      <trkpt lat="47.31563" lon="-1.54324">
        <ele>7.4</ele>
        <time>2020-09-27T10:20:18.000Z</time>
      </trkpt>
      <trkpt lat="47.31567" lon="-1.54324">
        <ele>7.4</ele>
        <time>2020-09-27T10:20:19.000Z</time>
      </trkpt>
      <trkpt lat="47.31571" lon="-1.54324">
        <ele>7.5</ele>
        <time>2020-09-27T10:20:20.000Z</time>
      </trkpt>
      <trkpt lat="47.31574" lon="-1.54324">
        <ele>7.6</ele>
        <time>2020-09-27T10:20:21.000Z</time>
      </trkpt>
      <trkpt lat="47.31578" lon="-1.54325">
        <ele>7.7</ele>
        <time>2020-09-27T10:20:22.000Z</time>
      </trkpt>
      <trkpt lat="47.31581" lon="-1.54325">
        <ele>7.7</ele>
        <time>2020-09-27T10:20:23.000Z</time>
      </trkpt>
      <trkpt lat="47.31585" lon="-1.54325">
        <ele>7.9</ele>
        <time>2020-09-27T10:20:24.000Z</time>
      </trkpt>
      <trkpt lat="47.31588" lon="-1.54325">
        <ele>8.2</ele>
        <time>2020-09-27T10:20:25.000Z</time>
      </trkpt>
      <trkpt lat="47.31592" lon="-1.54325">
        <ele>8.4</ele>
        <time>2020-09-27T10:20:26.000Z</time>
      </trkpt>
      <trkpt lat="47.31595" lon="-1.54326">
        <ele>8.6</ele>
        <time>2020-09-27T10:20:27.000Z</time>
      </trkpt>
      <trkpt lat="47.31598" lon="-1.54326">
        <ele>8.9</ele>
        <time>2020-09-27T10:20:28.000Z</time>
      </trkpt>
      <trkpt lat="47.31601" lon="-1.54327">
        <ele>9.1</ele>
        <time>2020-09-27T10:20:29.000Z</time>
      </trkpt>
      <trkpt lat="47.31604" lon="-1.54327">
        <ele>9.3</ele>
        <time>2020-09-27T10:20:30.000Z</time>
      </trkpt>
      <trkpt lat="47.31607" lon="-1.54327">
        <ele>9.5</ele>
        <time>2020-09-27T10:20:31.000Z</time>
      </trkpt>
      <trkpt lat="47.31609" lon="-1.54326">
        <ele>9.6</ele>
        <time>2020-09-27T10:20:32.000Z</time>
      </trkpt>
      <trkpt lat="47.31612" lon="-1.54325">
        <ele>9.8</ele>
        <time>2020-09-27T10:20:33.000Z</time>
      </trkpt>
      <trkpt lat="47.31615" lon="-1.54323">
        <ele>9.9</ele>
        <time>2020-09-27T10:20:34.000Z</time>
      </trkpt>
      <trkpt lat="47.31617" lon="-1.54321">
        <ele>10</ele>
        <time>2020-09-27T10:20:35.000Z</time>
      </trkpt>
      <trkpt lat="47.3162" lon="-1.5432">
        <ele>10.2</ele>
        <time>2020-09-27T10:20:36.000Z</time>
      </trkpt>
      <trkpt lat="47.31623" lon="-1.54318">
        <ele>10.3</ele>
        <time>2020-09-27T10:20:37.000Z</time>
      </trkpt>
      <trkpt lat="47.31626" lon="-1.54317">
        <ele>10.5</ele>
        <time>2020-09-27T10:20:38.000Z</time>
      </trkpt>
      <trkpt lat="47.31629" lon="-1.54316">
        <ele>10.6</ele>
        <time>2020-09-27T10:20:39.000Z</time>
      </trkpt>
      <trkpt lat="47.31632" lon="-1.54314">
        <ele>10.8</ele>
        <time>2020-09-27T10:20:40.000Z</time>
      </trkpt>
      <trkpt lat="47.31634" lon="-1.5431">
        <ele>10.8</ele>
        <time>2020-09-27T10:20:41.000Z</time>
      </trkpt>
      <trkpt lat="47.31636" lon="-1.54306">
        <ele>10.7</ele>
        <time>2020-09-27T10:20:42.000Z</time>
      </trkpt>
      <trkpt lat="47.31637" lon="-1.54302">
        <ele>10.6</ele>
        <time>2020-09-27T10:20:43.000Z</time>
      </trkpt>
      <trkpt lat="47.31639" lon="-1.54298">
        <ele>10.6</ele>
        <time>2020-09-27T10:20:44.000Z</time>
      </trkpt>
      <trkpt lat="47.31642" lon="-1.54295">
        <ele>10.6</ele>
        <time>2020-09-27T10:20:45.000Z</time>
      </trkpt>
      <trkpt lat="47.31644" lon="-1.54293">
        <ele>10.7</ele>
        <time>2020-09-27T10:20:46.000Z</time>
      </trkpt>
      <trkpt lat="47.31647" lon="-1.5429">
        <ele>10.8</ele>
        <time>2020-09-27T10:20:47.000Z</time>
      </trkpt>
      <trkpt lat="47.3165" lon="-1.54288">
        <ele>10.8</ele>
        <time>2020-09-27T10:20:48.000Z</time>
      </trkpt>
      <trkpt lat="47.31653" lon="-1.54286">
        <ele>10.9</ele>
        <time>2020-09-27T10:20:49.000Z</time>
      </trkpt>
      <trkpt lat="47.31656" lon="-1.54284">
        <ele>11</ele>
        <time>2020-09-27T10:20:50.000Z</time>
      </trkpt>
      <trkpt lat="47.31659" lon="-1.54281">
        <ele>11.1</ele>
        <time>2020-09-27T10:20:51.000Z</time>
      </trkpt>
      <trkpt lat="47.31662" lon="-1.54279">
        <ele>11.2</ele>
        <time>2020-09-27T10:20:52.000Z</time>
      </trkpt>
      <trkpt lat="47.31665" lon="-1.54277">
        <ele>11.2</ele>
        <time>2020-09-27T10:20:53.000Z</time>
      </trkpt>
      <trkpt lat="47.31669" lon="-1.54275">
        <ele>11.2</ele>
        <time>2020-09-27T10:20:54.000Z</time>
      </trkpt>
      <trkpt lat="47.31672" lon="-1.54273">
        <ele>11.1</ele>
        <time>2020-09-27T10:20:55.000Z</time>
      </trkpt>
      <trkpt lat="47.31675" lon="-1.54271">
        <ele>11</ele>
        <time>2020-09-27T10:20:56.000Z</time>
      </trkpt>
      <trkpt lat="47.31678" lon="-1.54269">
        <ele>10.9</ele>
        <time>2020-09-27T10:20:57.000Z</time>
      </trkpt>
      <trkpt lat="47.31681" lon="-1.54267">
        <ele>10.7</ele>
        <time>2020-09-27T10:20:58.000Z</time>
      </trkpt>
      <trkpt lat="47.31684" lon="-1.54264">
        <ele>10.6</ele>
        <time>2020-09-27T10:20:59.000Z</time>
      </trkpt>
      <trkpt lat="47.31687" lon="-1.54262">
        <ele>10.4</ele>
        <time>2020-09-27T10:21:00.000Z</time>
      </trkpt>
      <trkpt lat="47.31691" lon="-1.54259">
        <ele>10.3</ele>
        <time>2020-09-27T10:21:01.000Z</time>
      </trkpt>
      <trkpt lat="47.31694" lon="-1.54257">
        <ele>10.1</ele>
        <time>2020-09-27T10:21:02.000Z</time>
      </trkpt>
      <trkpt lat="47.31697" lon="-1.54254">
        <ele>9.9</ele>
        <time>2020-09-27T10:21:03.000Z</time>
      </trkpt>
      <trkpt lat="47.317" lon="-1.54252">
        <ele>9.7</ele>
        <time>2020-09-27T10:21:04.000Z</time>
      </trkpt>
      <trkpt lat="47.31703" lon="-1.54249">
        <ele>9.6</ele>
        <time>2020-09-27T10:21:05.000Z</time>
      </trkpt>
      <trkpt lat="47.31706" lon="-1.54246">
        <ele>9.8</ele>
        <time>2020-09-27T10:21:06.000Z</time>
      </trkpt>
      <trkpt lat="47.31709" lon="-1.54243">
        <ele>9.9</ele>
        <time>2020-09-27T10:21:07.000Z</time>
      </trkpt>
      <trkpt lat="47.31712" lon="-1.5424">
        <ele>10</ele>
        <time>2020-09-27T10:21:08.000Z</time>
      </trkpt>
      <trkpt lat="47.31715" lon="-1.54237">
        <ele>10.1</ele>
        <time>2020-09-27T10:21:09.000Z</time>
      </trkpt>
      <trkpt lat="47.31718" lon="-1.54234">
        <ele>10.2</ele>
        <time>2020-09-27T10:21:10.000Z</time>
      </trkpt>
      <trkpt lat="47.31721" lon="-1.54231">
        <ele>10.3</ele>
        <time>2020-09-27T10:21:11.000Z</time>
      </trkpt>
      <trkpt lat="47.31723" lon="-1.54228">
        <ele>10.5</ele>
        <time>2020-09-27T10:21:12.000Z</time>
      </trkpt>
      <trkpt lat="47.31726" lon="-1.54225">
        <ele>10.6</ele>
        <time>2020-09-27T10:21:13.000Z</time>
      </trkpt>
      <trkpt lat="47.31729" lon="-1.54222">
        <ele>10.7</ele>
        <time>2020-09-27T10:21:14.000Z</time>
      </trkpt>
      <trkpt lat="47.31732" lon="-1.54219">
        <ele>10.8</ele>
        <time>2020-09-27T10:21:15.000Z</time>
      </trkpt>
      <trkpt lat="47.31735" lon="-1.54215">
        <ele>10.9</ele>
        <time>2020-09-27T10:21:16.000Z</time>
      </trkpt>
      <trkpt lat="47.31737" lon="-1.54212">
        <ele>11</ele>
        <time>2020-09-27T10:21:17.000Z</time>
      </trkpt>
      <trkpt lat="47.3174" lon="-1.54209">
        <ele>11.1</ele>
        <time>2020-09-27T10:21:18.000Z</time>
      </trkpt>
      <trkpt lat="47.31743" lon="-1.54206">
        <ele>11.2</ele>
        <time>2020-09-27T10:21:19.000Z</time>
      </trkpt>
      <trkpt lat="47.31746" lon="-1.54203">
        <ele>11.3</ele>
        <time>2020-09-27T10:21:20.000Z</time>
      </trkpt>
      <trkpt lat="47.31749" lon="-1.542">
        <ele>11.4</ele>
        <time>2020-09-27T10:21:21.000Z</time>
      </trkpt>
      <trkpt lat="47.31752" lon="-1.54197">
        <ele>11.5</ele>
        <time>2020-09-27T10:21:22.000Z</time>
      </trkpt>
      <trkpt lat="47.31755" lon="-1.54194">
        <ele>11.5</ele>
        <time>2020-09-27T10:21:23.000Z</time>
      </trkpt>
      <trkpt lat="47.31758" lon="-1.54191">
        <ele>11.6</ele>
        <time>2020-09-27T10:21:24.000Z</time>
      </trkpt>
      <trkpt lat="47.3176" lon="-1.54187">
        <ele>11.6</ele>
        <time>2020-09-27T10:21:25.000Z</time>
      </trkpt>
      <trkpt lat="47.31763" lon="-1.54184">
        <ele>11.6</ele>
        <time>2020-09-27T10:21:26.000Z</time>
      </trkpt>
      <trkpt lat="47.31766" lon="-1.5418">
        <ele>11.6</ele>
        <time>2020-09-27T10:21:27.000Z</time>
      </trkpt>
      <trkpt lat="47.31768" lon="-1.54176">
        <ele>11.6</ele>
        <time>2020-09-27T10:21:28.000Z</time>
      </trkpt>
      <trkpt lat="47.3177" lon="-1.54173">
        <ele>11.6</ele>
        <time>2020-09-27T10:21:29.000Z</time>
      </trkpt>
      <trkpt lat="47.31772" lon="-1.54169">
        <ele>11.6</ele>
        <time>2020-09-27T10:21:30.000Z</time>
      </trkpt>
      <trkpt lat="47.31775" lon="-1.54165">
        <ele>11.7</ele>
        <time>2020-09-27T10:21:31.000Z</time>
      </trkpt>
      <trkpt lat="47.31777" lon="-1.54161">
        <ele>11.8</ele>
        <time>2020-09-27T10:21:32.000Z</time>
      </trkpt>
      <trkpt lat="47.31779" lon="-1.54157">
        <ele>11.9</ele>
        <time>2020-09-27T10:21:33.000Z</time>
      </trkpt>
      <trkpt lat="47.31781" lon="-1.54153">
        <ele>12</ele>
        <time>2020-09-27T10:21:34.000Z</time>
      </trkpt>
      <trkpt lat="47.31783" lon="-1.54148">
        <ele>12.1</ele>
        <time>2020-09-27T10:21:35.000Z</time>
      </trkpt>
      <trkpt lat="47.31786" lon="-1.54144">
        <ele>12.2</ele>
        <time>2020-09-27T10:21:36.000Z</time>
      </trkpt>
      <trkpt lat="47.31788" lon="-1.5414">
        <ele>12.2</ele>
        <time>2020-09-27T10:21:37.000Z</time>
      </trkpt>
      <trkpt lat="47.3179" lon="-1.54136">
        <ele>12.3</ele>
        <time>2020-09-27T10:21:38.000Z</time>
      </trkpt>
      <trkpt lat="47.31792" lon="-1.54132">
        <ele>12.3</ele>
        <time>2020-09-27T10:21:39.000Z</time>
      </trkpt>
      <trkpt lat="47.31795" lon="-1.54128">
        <ele>12.3</ele>
        <time>2020-09-27T10:21:40.000Z</time>
      </trkpt>
      <trkpt lat="47.31797" lon="-1.54124">
        <ele>12.3</ele>
        <time>2020-09-27T10:21:41.000Z</time>
      </trkpt>
      <trkpt lat="47.31799" lon="-1.5412">
        <ele>12.3</ele>
        <time>2020-09-27T10:21:42.000Z</time>
      </trkpt>
      <trkpt lat="47.31802" lon="-1.54116">
        <ele>12.3</ele>
        <time>2020-09-27T10:21:43.000Z</time>
      </trkpt>
      <trkpt lat="47.31804" lon="-1.54112">
        <ele>12.2</ele>
        <time>2020-09-27T10:21:44.000Z</time>
      </trkpt>
      <trkpt lat="47.31807" lon="-1.54108">
        <ele>12.2</ele>
        <time>2020-09-27T10:21:45.000Z</time>
      </trkpt>
      <trkpt lat="47.31809" lon="-1.54104">
        <ele>12.1</ele>
        <time>2020-09-27T10:21:46.000Z</time>
      </trkpt>
      <trkpt lat="47.31811" lon="-1.541">
        <ele>12</ele>
        <time>2020-09-27T10:21:47.000Z</time>
      </trkpt>
      <trkpt lat="47.31813" lon="-1.54095">
        <ele>11.9</ele>
        <time>2020-09-27T10:21:48.000Z</time>
      </trkpt>
      <trkpt lat="47.31816" lon="-1.54091">
        <ele>11.9</ele>
        <time>2020-09-27T10:21:49.000Z</time>
      </trkpt>
      <trkpt lat="47.31818" lon="-1.54086">
        <ele>11.8</ele>
        <time>2020-09-27T10:21:50.000Z</time>
      </trkpt>
      <trkpt lat="47.3182" lon="-1.54081">
        <ele>11.7</ele>
        <time>2020-09-27T10:21:51.000Z</time>
      </trkpt>
      <trkpt lat="47.31822" lon="-1.54076">
        <ele>11.7</ele>
        <time>2020-09-27T10:21:52.000Z</time>
      </trkpt>
      <trkpt lat="47.31824" lon="-1.54071">
        <ele>11.7</ele>
        <time>2020-09-27T10:21:53.000Z</time>
      </trkpt>
      <trkpt lat="47.31826" lon="-1.54066">
        <ele>11.6</ele>
        <time>2020-09-27T10:21:54.000Z</time>
      </trkpt>
      <trkpt lat="47.31828" lon="-1.54062">
        <ele>11.6</ele>
        <time>2020-09-27T10:21:55.000Z</time>
      </trkpt>
      <trkpt lat="47.3183" lon="-1.54057">
        <ele>11.6</ele>
        <time>2020-09-27T10:21:56.000Z</time>
      </trkpt>
      <trkpt lat="47.31832" lon="-1.54052">
        <ele>11.6</ele>
        <time>2020-09-27T10:21:57.000Z</time>
      </trkpt>
      <trkpt lat="47.31835" lon="-1.54048">
        <ele>11.6</ele>
        <time>2020-09-27T10:21:58.000Z</time>
      </trkpt>
      <trkpt lat="47.31837" lon="-1.54044">
        <ele>11.7</ele>
        <time>2020-09-27T10:21:59.000Z</time>
      </trkpt>
      <trkpt lat="47.31839" lon="-1.54039">
        <ele>11.7</ele>
        <time>2020-09-27T10:22:00.000Z</time>
      </trkpt>
      <trkpt lat="47.31841" lon="-1.54035">
        <ele>11.7</ele>
        <time>2020-09-27T10:22:01.000Z</time>
      </trkpt>
      <trkpt lat="47.31843" lon="-1.54031">
        <ele>11.7</ele>
        <time>2020-09-27T10:22:02.000Z</time>
      </trkpt>
      <trkpt lat="47.31846" lon="-1.54026">
        <ele>11.7</ele>
        <time>2020-09-27T10:22:03.000Z</time>
      </trkpt>
      <trkpt lat="47.31848" lon="-1.54022">
        <ele>11.7</ele>
        <time>2020-09-27T10:22:04.000Z</time>
      </trkpt>
      <trkpt lat="47.3185" lon="-1.54018">
        <ele>11.7</ele>
        <time>2020-09-27T10:22:05.000Z</time>
      </trkpt>
      <trkpt lat="47.31852" lon="-1.54014">
        <ele>11.7</ele>
        <time>2020-09-27T10:22:06.000Z</time>
      </trkpt>
      <trkpt lat="47.31854" lon="-1.54009">
        <ele>11.6</ele>
        <time>2020-09-27T10:22:07.000Z</time>
      </trkpt>
      <trkpt lat="47.31856" lon="-1.54005">
        <ele>11.6</ele>
        <time>2020-09-27T10:22:08.000Z</time>
      </trkpt>
      <trkpt lat="47.31859" lon="-1.54001">
        <ele>11.6</ele>
        <time>2020-09-27T10:22:09.000Z</time>
      </trkpt>
      <trkpt lat="47.31861" lon="-1.53996">
        <ele>11.5</ele>
        <time>2020-09-27T10:22:10.000Z</time>
      </trkpt>
      <trkpt lat="47.31863" lon="-1.53992">
        <ele>11.5</ele>
        <time>2020-09-27T10:22:11.000Z</time>
      </trkpt>
      <trkpt lat="47.31865" lon="-1.53988">
        <ele>11.4</ele>
        <time>2020-09-27T10:22:12.000Z</time>
      </trkpt>
      <trkpt lat="47.31867" lon="-1.53984">
        <ele>11.4</ele>
        <time>2020-09-27T10:22:13.000Z</time>
      </trkpt>
      <trkpt lat="47.3187" lon="-1.53979">
        <ele>11.3</ele>
        <time>2020-09-27T10:22:14.000Z</time>
      </trkpt>
      <trkpt lat="47.31872" lon="-1.53975">
        <ele>11.2</ele>
        <time>2020-09-27T10:22:15.000Z</time>
      </trkpt>
      <trkpt lat="47.31874" lon="-1.53971">
        <ele>11.2</ele>
        <time>2020-09-27T10:22:16.000Z</time>
      </trkpt>
      <trkpt lat="47.31876" lon="-1.53966">
        <ele>11.1</ele>
        <time>2020-09-27T10:22:17.000Z</time>
      </trkpt>
      <trkpt lat="47.31878" lon="-1.53962">
        <ele>11</ele>
        <time>2020-09-27T10:22:18.000Z</time>
      </trkpt>
      <trkpt lat="47.31881" lon="-1.53957">
        <ele>10.9</ele>
        <time>2020-09-27T10:22:19.000Z</time>
      </trkpt>
      <trkpt lat="47.31883" lon="-1.53953">
        <ele>10.8</ele>
        <time>2020-09-27T10:22:20.000Z</time>
      </trkpt>
      <trkpt lat="47.31885" lon="-1.53949">
        <ele>10.7</ele>
        <time>2020-09-27T10:22:21.000Z</time>
      </trkpt>
      <trkpt lat="47.31887" lon="-1.53944">
        <ele>10.6</ele>
        <time>2020-09-27T10:22:22.000Z</time>
      </trkpt>
      <trkpt lat="47.3189" lon="-1.5394">
        <ele>10.5</ele>
        <time>2020-09-27T10:22:23.000Z</time>
      </trkpt>
      <trkpt lat="47.31892" lon="-1.53935">
        <ele>10.4</ele>
        <time>2020-09-27T10:22:24.000Z</time>
      </trkpt>
      <trkpt lat="47.31894" lon="-1.53931">
        <ele>10.3</ele>
        <time>2020-09-27T10:22:25.000Z</time>
      </trkpt>
      <trkpt lat="47.31896" lon="-1.53926">
        <ele>10.2</ele>
        <time>2020-09-27T10:22:26.000Z</time>
      </trkpt>
      <trkpt lat="47.31899" lon="-1.53922">
        <ele>10</ele>
        <time>2020-09-27T10:22:27.000Z</time>
      </trkpt>
      <trkpt lat="47.31901" lon="-1.53917">
        <ele>9.9</ele>
        <time>2020-09-27T10:22:28.000Z</time>
      </trkpt>
      <trkpt lat="47.31903" lon="-1.53913">
        <ele>9.8</ele>
        <time>2020-09-27T10:22:29.000Z</time>
      </trkpt>
      <trkpt lat="47.31905" lon="-1.53908">
        <ele>9.8</ele>
        <time>2020-09-27T10:22:30.000Z</time>
      </trkpt>
      <trkpt lat="47.31907" lon="-1.53904">
        <ele>9.7</ele>
        <time>2020-09-27T10:22:31.000Z</time>
      </trkpt>
      <trkpt lat="47.31909" lon="-1.539">
        <ele>9.6</ele>
        <time>2020-09-27T10:22:32.000Z</time>
      </trkpt>
      <trkpt lat="47.31912" lon="-1.53895">
        <ele>9.6</ele>
        <time>2020-09-27T10:22:33.000Z</time>
      </trkpt>
      <trkpt lat="47.31914" lon="-1.53891">
        <ele>9.6</ele>
        <time>2020-09-27T10:22:34.000Z</time>
      </trkpt>
      <trkpt lat="47.31916" lon="-1.53886">
        <ele>9.5</ele>
        <time>2020-09-27T10:22:35.000Z</time>
      </trkpt>
      <trkpt lat="47.31918" lon="-1.53882">
        <ele>9.6</ele>
        <time>2020-09-27T10:22:36.000Z</time>
      </trkpt>
      <trkpt lat="47.31921" lon="-1.53878">
        <ele>9.7</ele>
        <time>2020-09-27T10:22:37.000Z</time>
      </trkpt>
      <trkpt lat="47.31923" lon="-1.53874">
        <ele>9.7</ele>
        <time>2020-09-27T10:22:38.000Z</time>
      </trkpt>
      <trkpt lat="47.31925" lon="-1.53869">
        <ele>9.8</ele>
        <time>2020-09-27T10:22:39.000Z</time>
      </trkpt>
      <trkpt lat="47.31928" lon="-1.53865">
        <ele>9.8</ele>
        <time>2020-09-27T10:22:40.000Z</time>
      </trkpt>
      <trkpt lat="47.3193" lon="-1.53861">
        <ele>9.9</ele>
        <time>2020-09-27T10:22:41.000Z</time>
      </trkpt>
      <trkpt lat="47.31932" lon="-1.53856">
        <ele>9.9</ele>
        <time>2020-09-27T10:22:42.000Z</time>
      </trkpt>
      <trkpt lat="47.31935" lon="-1.53852">
        <ele>9.9</ele>
        <time>2020-09-27T10:22:43.000Z</time>
      </trkpt>
      <trkpt lat="47.31937" lon="-1.53848">
        <ele>10</ele>
        <time>2020-09-27T10:22:44.000Z</time>
      </trkpt>
      <trkpt lat="47.3194" lon="-1.53843">
        <ele>10</ele>
        <time>2020-09-27T10:22:45.000Z</time>
      </trkpt>
      <trkpt lat="47.31942" lon="-1.53839">
        <ele>10</ele>
        <time>2020-09-27T10:22:46.000Z</time>
      </trkpt>
      <trkpt lat="47.31944" lon="-1.53834">
        <ele>10</ele>
        <time>2020-09-27T10:22:47.000Z</time>
      </trkpt>
      <trkpt lat="47.31947" lon="-1.53829">
        <ele>10</ele>
        <time>2020-09-27T10:22:48.000Z</time>
      </trkpt>
      <trkpt lat="47.31949" lon="-1.53825">
        <ele>10.1</ele>
        <time>2020-09-27T10:22:49.000Z</time>
      </trkpt>
      <trkpt lat="47.31951" lon="-1.5382">
        <ele>10.2</ele>
        <time>2020-09-27T10:22:50.000Z</time>
      </trkpt>
      <trkpt lat="47.31953" lon="-1.53816">
        <ele>10.3</ele>
        <time>2020-09-27T10:22:51.000Z</time>
      </trkpt>
      <trkpt lat="47.31956" lon="-1.53811">
        <ele>10.4</ele>
        <time>2020-09-27T10:22:52.000Z</time>
      </trkpt>
      <trkpt lat="47.31957" lon="-1.53806">
        <ele>10.5</ele>
        <time>2020-09-27T10:22:53.000Z</time>
      </trkpt>
      <trkpt lat="47.31959" lon="-1.53802">
        <ele>10.6</ele>
        <time>2020-09-27T10:22:54.000Z</time>
      </trkpt>
      <trkpt lat="47.31961" lon="-1.53797">
        <ele>10.8</ele>
        <time>2020-09-27T10:22:55.000Z</time>
      </trkpt>
      <trkpt lat="47.31963" lon="-1.53793">
        <ele>10.9</ele>
        <time>2020-09-27T10:22:56.000Z</time>
      </trkpt>
      <trkpt lat="47.31964" lon="-1.53788">
        <ele>11</ele>
        <time>2020-09-27T10:22:57.000Z</time>
      </trkpt>
      <trkpt lat="47.31966" lon="-1.53784">
        <ele>11.2</ele>
        <time>2020-09-27T10:22:58.000Z</time>
      </trkpt>
      <trkpt lat="47.31968" lon="-1.5378">
        <ele>11.3</ele>
        <time>2020-09-27T10:22:59.000Z</time>
      </trkpt>
      <trkpt lat="47.3197" lon="-1.53776">
        <ele>11.4</ele>
        <time>2020-09-27T10:23:00.000Z</time>
      </trkpt>
      <trkpt lat="47.31972" lon="-1.53773">
        <ele>11.4</ele>
        <time>2020-09-27T10:23:01.000Z</time>
      </trkpt>
      <trkpt lat="47.31976" lon="-1.53769">
        <ele>11.4</ele>
        <time>2020-09-27T10:23:02.000Z</time>
      </trkpt>
      <trkpt lat="47.31979" lon="-1.53767">
        <ele>11.3</ele>
        <time>2020-09-27T10:23:03.000Z</time>
      </trkpt>
      <trkpt lat="47.31983" lon="-1.53764">
        <ele>11.2</ele>
        <time>2020-09-27T10:23:04.000Z</time>
      </trkpt>
      <trkpt lat="47.31987" lon="-1.53761">
        <ele>11.2</ele>
        <time>2020-09-27T10:23:05.000Z</time>
      </trkpt>
      <trkpt lat="47.3199" lon="-1.53757">
        <ele>11.2</ele>
        <time>2020-09-27T10:23:06.000Z</time>
      </trkpt>
      <trkpt lat="47.31994" lon="-1.53753">
        <ele>11.2</ele>
        <time>2020-09-27T10:23:07.000Z</time>
      </trkpt>
      <trkpt lat="47.31996" lon="-1.53749">
        <ele>11.3</ele>
        <time>2020-09-27T10:23:08.000Z</time>
      </trkpt>
      <trkpt lat="47.31998" lon="-1.53744">
        <ele>11.4</ele>
        <time>2020-09-27T10:23:09.000Z</time>
      </trkpt>
      <trkpt lat="47.32001" lon="-1.53741">
        <ele>11.5</ele>
        <time>2020-09-27T10:23:10.000Z</time>
      </trkpt>
      <trkpt lat="47.32004" lon="-1.53737">
        <ele>11.6</ele>
        <time>2020-09-27T10:23:11.000Z</time>
      </trkpt>
      <trkpt lat="47.32007" lon="-1.53734">
        <ele>11.7</ele>
        <time>2020-09-27T10:23:12.000Z</time>
      </trkpt>
      <trkpt lat="47.3201" lon="-1.53731">
        <ele>11.7</ele>
        <time>2020-09-27T10:23:13.000Z</time>
      </trkpt>
      <trkpt lat="47.32013" lon="-1.53729">
        <ele>11.7</ele>
        <time>2020-09-27T10:23:14.000Z</time>
      </trkpt>
      <trkpt lat="47.32016" lon="-1.53727">
        <ele>11.7</ele>
        <time>2020-09-27T10:23:15.000Z</time>
      </trkpt>
      <trkpt lat="47.3202" lon="-1.53724">
        <ele>11.7</ele>
        <time>2020-09-27T10:23:16.000Z</time>
      </trkpt>
      <trkpt lat="47.32023" lon="-1.53722">
        <ele>11.7</ele>
        <time>2020-09-27T10:23:17.000Z</time>
      </trkpt>
      <trkpt lat="47.32026" lon="-1.53719">
        <ele>11.7</ele>
        <time>2020-09-27T10:23:18.000Z</time>
      </trkpt>
      <trkpt lat="47.3203" lon="-1.53717">
        <ele>11.7</ele>
        <time>2020-09-27T10:23:19.000Z</time>
      </trkpt>
      <trkpt lat="47.32033" lon="-1.53715">
        <ele>11.7</ele>
        <time>2020-09-27T10:23:20.000Z</time>
      </trkpt>
      <trkpt lat="47.32036" lon="-1.53712">
        <ele>11.7</ele>
        <time>2020-09-27T10:23:21.000Z</time>
      </trkpt>
      <trkpt lat="47.32039" lon="-1.53709">
        <ele>11.8</ele>
        <time>2020-09-27T10:23:22.000Z</time>
      </trkpt>
      <trkpt lat="47.32043" lon="-1.53706">
        <ele>11.8</ele>
        <time>2020-09-27T10:23:23.000Z</time>
      </trkpt>
      <trkpt lat="47.32045" lon="-1.53703">
        <ele>11.9</ele>
        <time>2020-09-27T10:23:24.000Z</time>
      </trkpt>
      <trkpt lat="47.32048" lon="-1.537">
        <ele>12</ele>
        <time>2020-09-27T10:23:25.000Z</time>
      </trkpt>
      <trkpt lat="47.32051" lon="-1.53697">
        <ele>12.1</ele>
        <time>2020-09-27T10:23:26.000Z</time>
      </trkpt>
      <trkpt lat="47.32053" lon="-1.53694">
        <ele>12.3</ele>
        <time>2020-09-27T10:23:27.000Z</time>
      </trkpt>
      <trkpt lat="47.32055" lon="-1.5369">
        <ele>12.4</ele>
        <time>2020-09-27T10:23:28.000Z</time>
      </trkpt>
      <trkpt lat="47.32057" lon="-1.53686">
        <ele>12.6</ele>
        <time>2020-09-27T10:23:29.000Z</time>
      </trkpt>
      <trkpt lat="47.32059" lon="-1.53682">
        <ele>12.8</ele>
        <time>2020-09-27T10:23:30.000Z</time>
      </trkpt>
      <trkpt lat="47.3206" lon="-1.53678">
        <ele>13</ele>
        <time>2020-09-27T10:23:31.000Z</time>
      </trkpt>
      <trkpt lat="47.32061" lon="-1.53674">
        <ele>13.3</ele>
        <time>2020-09-27T10:23:32.000Z</time>
      </trkpt>
      <trkpt lat="47.32062" lon="-1.5367">
        <ele>13.5</ele>
        <time>2020-09-27T10:23:33.000Z</time>
      </trkpt>
      <trkpt lat="47.32062" lon="-1.53666">
        <ele>13.8</ele>
        <time>2020-09-27T10:23:34.000Z</time>
      </trkpt>
      <trkpt lat="47.32063" lon="-1.53661">
        <ele>13.9</ele>
        <time>2020-09-27T10:23:35.000Z</time>
      </trkpt>
      <trkpt lat="47.32064" lon="-1.53656">
        <ele>14</ele>
        <time>2020-09-27T10:23:36.000Z</time>
      </trkpt>
      <trkpt lat="47.32064" lon="-1.53652">
        <ele>14.1</ele>
        <time>2020-09-27T10:23:37.000Z</time>
      </trkpt>
      <trkpt lat="47.32065" lon="-1.53647">
        <ele>14.2</ele>
        <time>2020-09-27T10:23:38.000Z</time>
      </trkpt>
      <trkpt lat="47.32066" lon="-1.53642">
        <ele>14.3</ele>
        <time>2020-09-27T10:23:39.000Z</time>
      </trkpt>
      <trkpt lat="47.32067" lon="-1.53638">
        <ele>14.3</ele>
        <time>2020-09-27T10:23:40.000Z</time>
      </trkpt>
      <trkpt lat="47.32069" lon="-1.53633">
        <ele>14.4</ele>
        <time>2020-09-27T10:23:41.000Z</time>
      </trkpt>
      <trkpt lat="47.3207" lon="-1.53629">
        <ele>14.5</ele>
        <time>2020-09-27T10:23:42.000Z</time>
      </trkpt>
      <trkpt lat="47.32072" lon="-1.53624">
        <ele>14.5</ele>
        <time>2020-09-27T10:23:43.000Z</time>
      </trkpt>
      <trkpt lat="47.32075" lon="-1.5362">
        <ele>14.5</ele>
        <time>2020-09-27T10:23:44.000Z</time>
      </trkpt>
      <trkpt lat="47.32077" lon="-1.53617">
        <ele>14.5</ele>
        <time>2020-09-27T10:23:45.000Z</time>
      </trkpt>
      <trkpt lat="47.3208" lon="-1.53613">
        <ele>14.4</ele>
        <time>2020-09-27T10:23:46.000Z</time>
      </trkpt>
      <trkpt lat="47.32083" lon="-1.5361">
        <ele>14.4</ele>
        <time>2020-09-27T10:23:47.000Z</time>
      </trkpt>
      <trkpt lat="47.32086" lon="-1.53607">
        <ele>14.4</ele>
        <time>2020-09-27T10:23:48.000Z</time>
      </trkpt>
      <trkpt lat="47.32089" lon="-1.53604">
        <ele>14.5</ele>
        <time>2020-09-27T10:23:49.000Z</time>
      </trkpt>
      <trkpt lat="47.32092" lon="-1.53601">
        <ele>14.6</ele>
        <time>2020-09-27T10:23:50.000Z</time>
      </trkpt>
      <trkpt lat="47.32095" lon="-1.53599">
        <ele>14.6</ele>
        <time>2020-09-27T10:23:51.000Z</time>
      </trkpt>
      <trkpt lat="47.32099" lon="-1.53597">
        <ele>14.7</ele>
        <time>2020-09-27T10:23:52.000Z</time>
      </trkpt>
      <trkpt lat="47.32102" lon="-1.53595">
        <ele>14.7</ele>
        <time>2020-09-27T10:23:53.000Z</time>
      </trkpt>
      <trkpt lat="47.32105" lon="-1.53593">
        <ele>14.8</ele>
        <time>2020-09-27T10:23:54.000Z</time>
      </trkpt>
      <trkpt lat="47.32108" lon="-1.53591">
        <ele>14.8</ele>
        <time>2020-09-27T10:23:55.000Z</time>
      </trkpt>
      <trkpt lat="47.32112" lon="-1.5359">
        <ele>14.9</ele>
        <time>2020-09-27T10:23:56.000Z</time>
      </trkpt>
      <trkpt lat="47.32115" lon="-1.53588">
        <ele>14.9</ele>
        <time>2020-09-27T10:23:57.000Z</time>
      </trkpt>
      <trkpt lat="47.32118" lon="-1.53587">
        <ele>14.9</ele>
        <time>2020-09-27T10:23:58.000Z</time>
      </trkpt>
      <trkpt lat="47.32121" lon="-1.53586">
        <ele>14.9</ele>
        <time>2020-09-27T10:23:59.000Z</time>
      </trkpt>
      <trkpt lat="47.32124" lon="-1.53585">
        <ele>15</ele>
        <time>2020-09-27T10:24:00.000Z</time>
      </trkpt>
      <trkpt lat="47.32128" lon="-1.53584">
        <ele>15</ele>
        <time>2020-09-27T10:24:01.000Z</time>
      </trkpt>
      <trkpt lat="47.32131" lon="-1.53583">
        <ele>15</ele>
        <time>2020-09-27T10:24:02.000Z</time>
      </trkpt>
      <trkpt lat="47.32134" lon="-1.53583">
        <ele>15</ele>
        <time>2020-09-27T10:24:03.000Z</time>
      </trkpt>
      <trkpt lat="47.32138" lon="-1.53582">
        <ele>15.1</ele>
        <time>2020-09-27T10:24:04.000Z</time>
      </trkpt>
      <trkpt lat="47.32141" lon="-1.53582">
        <ele>15.1</ele>
        <time>2020-09-27T10:24:05.000Z</time>
      </trkpt>
      <trkpt lat="47.32144" lon="-1.53582">
        <ele>15.1</ele>
        <time>2020-09-27T10:24:06.000Z</time>
      </trkpt>
      <trkpt lat="47.32148" lon="-1.53581">
        <ele>15.1</ele>
        <time>2020-09-27T10:24:07.000Z</time>
      </trkpt>
      <trkpt lat="47.32152" lon="-1.53581">
        <ele>15.1</ele>
        <time>2020-09-27T10:24:08.000Z</time>
      </trkpt>
      <trkpt lat="47.32155" lon="-1.53581">
        <ele>15.1</ele>
        <time>2020-09-27T10:24:09.000Z</time>
      </trkpt>
      <trkpt lat="47.32159" lon="-1.53581">
        <ele>15.1</ele>
        <time>2020-09-27T10:24:10.000Z</time>
      </trkpt>
      <trkpt lat="47.32162" lon="-1.53581">
        <ele>15.1</ele>
        <time>2020-09-27T10:24:11.000Z</time>
      </trkpt>
      <trkpt lat="47.32166" lon="-1.53581">
        <ele>15.1</ele>
        <time>2020-09-27T10:24:12.000Z</time>
      </trkpt>
      <trkpt lat="47.32169" lon="-1.53581">
        <ele>15</ele>
        <time>2020-09-27T10:24:13.000Z</time>
      </trkpt>
      <trkpt lat="47.32173" lon="-1.53581">
        <ele>15</ele>
        <time>2020-09-27T10:24:14.000Z</time>
      </trkpt>
      <trkpt lat="47.32176" lon="-1.53581">
        <ele>15</ele>
        <time>2020-09-27T10:24:15.000Z</time>
      </trkpt>
      <trkpt lat="47.3218" lon="-1.53581">
        <ele>14.9</ele>
        <time>2020-09-27T10:24:16.000Z</time>
      </trkpt>
      <trkpt lat="47.32183" lon="-1.53581">
        <ele>14.9</ele>
        <time>2020-09-27T10:24:17.000Z</time>
      </trkpt>
      <trkpt lat="47.32186" lon="-1.53581">
        <ele>14.8</ele>
        <time>2020-09-27T10:24:18.000Z</time>
      </trkpt>
      <trkpt lat="47.32189" lon="-1.53581">
        <ele>14.8</ele>
        <time>2020-09-27T10:24:19.000Z</time>
      </trkpt>
      <trkpt lat="47.32192" lon="-1.53581">
        <ele>14.8</ele>
        <time>2020-09-27T10:24:20.000Z</time>
      </trkpt>
      <trkpt lat="47.32194" lon="-1.53581">
        <ele>14.7</ele>
        <time>2020-09-27T10:24:21.000Z</time>
      </trkpt>
      <trkpt lat="47.32197" lon="-1.53581">
        <ele>14.7</ele>
        <time>2020-09-27T10:24:22.000Z</time>
      </trkpt>
      <trkpt lat="47.32199" lon="-1.53581">
        <ele>14.7</ele>
        <time>2020-09-27T10:24:23.000Z</time>
      </trkpt>
      <trkpt lat="47.32201" lon="-1.53581">
        <ele>14.7</ele>
        <time>2020-09-27T10:24:24.000Z</time>
      </trkpt>
      <trkpt lat="47.32203" lon="-1.53581">
        <ele>14.6</ele>
        <time>2020-09-27T10:24:25.000Z</time>
      </trkpt>
      <trkpt lat="47.32206" lon="-1.5358">
        <ele>14.6</ele>
        <time>2020-09-27T10:24:26.000Z</time>
      </trkpt>
      <trkpt lat="47.32208" lon="-1.5358">
        <ele>14.6</ele>
        <time>2020-09-27T10:24:27.000Z</time>
      </trkpt>
      <trkpt lat="47.3221" lon="-1.5358">
        <ele>14.6</ele>
        <time>2020-09-27T10:24:28.000Z</time>
      </trkpt>
      <trkpt lat="47.32213" lon="-1.53579">
        <ele>14.6</ele>
        <time>2020-09-27T10:24:29.000Z</time>
      </trkpt>
      <trkpt lat="47.32216" lon="-1.53578">
        <ele>14.6</ele>
        <time>2020-09-27T10:24:30.000Z</time>
      </trkpt>
      <trkpt lat="47.32218" lon="-1.53577">
        <ele>14.6</ele>
        <time>2020-09-27T10:24:31.000Z</time>
      </trkpt>
      <trkpt lat="47.3222" lon="-1.53576">
        <ele>14.6</ele>
        <time>2020-09-27T10:24:32.000Z</time>
      </trkpt>
      <trkpt lat="47.32223" lon="-1.53575">
        <ele>14.6</ele>
        <time>2020-09-27T10:24:33.000Z</time>
      </trkpt>
      <trkpt lat="47.32225" lon="-1.53575">
        <ele>14.5</ele>
        <time>2020-09-27T10:24:34.000Z</time>
      </trkpt>
      <trkpt lat="47.32227" lon="-1.53576">
        <ele>14.5</ele>
        <time>2020-09-27T10:24:35.000Z</time>
      </trkpt>
      <trkpt lat="47.32228" lon="-1.53578">
        <ele>14.4</ele>
        <time>2020-09-27T10:24:36.000Z</time>
      </trkpt>
      <trkpt lat="47.3223" lon="-1.53579">
        <ele>14.4</ele>
        <time>2020-09-27T10:24:37.000Z</time>
      </trkpt>
      <trkpt lat="47.32233" lon="-1.53579">
        <ele>14.3</ele>
        <time>2020-09-27T10:24:38.000Z</time>
      </trkpt>
      <trkpt lat="47.32235" lon="-1.53579">
        <ele>14.3</ele>
        <time>2020-09-27T10:24:39.000Z</time>
      </trkpt>
      <trkpt lat="47.32238" lon="-1.53577">
        <ele>14.3</ele>
        <time>2020-09-27T10:24:40.000Z</time>
      </trkpt>
      <trkpt lat="47.32241" lon="-1.53575">
        <ele>14.3</ele>
        <time>2020-09-27T10:24:41.000Z</time>
      </trkpt>
      <trkpt lat="47.32244" lon="-1.53572">
        <ele>14.4</ele>
        <time>2020-09-27T10:24:42.000Z</time>
      </trkpt>
      <trkpt lat="47.32247" lon="-1.53567">
        <ele>14.4</ele>
        <time>2020-09-27T10:24:43.000Z</time>
      </trkpt>
      <trkpt lat="47.32249" lon="-1.53561">
        <ele>14.6</ele>
        <time>2020-09-27T10:24:44.000Z</time>
      </trkpt>
      <trkpt lat="47.3225" lon="-1.53555">
        <ele>14.7</ele>
        <time>2020-09-27T10:24:45.000Z</time>
      </trkpt>
      <trkpt lat="47.3225" lon="-1.53549">
        <ele>14.8</ele>
        <time>2020-09-27T10:24:46.000Z</time>
      </trkpt>
      <trkpt lat="47.32249" lon="-1.53543">
        <ele>15</ele>
        <time>2020-09-27T10:24:47.000Z</time>
      </trkpt>
      <trkpt lat="47.32249" lon="-1.53539">
        <ele>15.1</ele>
        <time>2020-09-27T10:24:48.000Z</time>
      </trkpt>
      <trkpt lat="47.32249" lon="-1.53536">
        <ele>15.2</ele>
        <time>2020-09-27T10:24:49.000Z</time>
      </trkpt>
      <trkpt lat="47.32249" lon="-1.53533">
        <ele>15.2</ele>
        <time>2020-09-27T10:24:50.000Z</time>
      </trkpt>
      <trkpt lat="47.32249" lon="-1.53531">
        <ele>15.3</ele>
        <time>2020-09-27T10:24:51.000Z</time>
      </trkpt>
      <trkpt lat="47.32249" lon="-1.53528">
        <ele>15.3</ele>
        <time>2020-09-27T10:24:52.000Z</time>
      </trkpt>
      <trkpt lat="47.32249" lon="-1.53525">
        <ele>15.4</ele>
        <time>2020-09-27T10:24:53.000Z</time>
      </trkpt>
      <trkpt lat="47.32249" lon="-1.53521">
        <ele>15.5</ele>
        <time>2020-09-27T10:24:54.000Z</time>
      </trkpt>
      <trkpt lat="47.32249" lon="-1.53517">
        <ele>15.6</ele>
        <time>2020-09-27T10:24:55.000Z</time>
      </trkpt>
      <trkpt lat="47.32249" lon="-1.53512">
        <ele>15.7</ele>
        <time>2020-09-27T10:24:56.000Z</time>
      </trkpt>
      <trkpt lat="47.32249" lon="-1.53509">
        <ele>15.8</ele>
        <time>2020-09-27T10:24:57.000Z</time>
      </trkpt>
      <trkpt lat="47.3225" lon="-1.53506">
        <ele>15.9</ele>
        <time>2020-09-27T10:24:58.000Z</time>
      </trkpt>
      <trkpt lat="47.32251" lon="-1.53504">
        <ele>15.9</ele>
        <time>2020-09-27T10:24:59.000Z</time>
      </trkpt>
      <trkpt lat="47.32253" lon="-1.53504">
        <ele>16.1</ele>
        <time>2020-09-27T10:25:00.000Z</time>
      </trkpt>
      <trkpt lat="47.32255" lon="-1.53505">
        <ele>16.2</ele>
        <time>2020-09-27T10:25:01.000Z</time>
      </trkpt>
      <trkpt lat="47.32257" lon="-1.53506">
        <ele>16.3</ele>
        <time>2020-09-27T10:25:02.000Z</time>
      </trkpt>
      <trkpt lat="47.3226" lon="-1.53508">
        <ele>16.4</ele>
        <time>2020-09-27T10:25:03.000Z</time>
      </trkpt>
      <trkpt lat="47.32263" lon="-1.5351">
        <ele>16.5</ele>
        <time>2020-09-27T10:25:04.000Z</time>
      </trkpt>
      <trkpt lat="47.32266" lon="-1.53512">
        <ele>16.6</ele>
        <time>2020-09-27T10:25:05.000Z</time>
      </trkpt>
      <trkpt lat="47.32269" lon="-1.53515">
        <ele>16.8</ele>
        <time>2020-09-27T10:25:06.000Z</time>
      </trkpt>
      <trkpt lat="47.32272" lon="-1.53517">
        <ele>16.9</ele>
        <time>2020-09-27T10:25:07.000Z</time>
      </trkpt>
      <trkpt lat="47.32276" lon="-1.53519">
        <ele>17</ele>
        <time>2020-09-27T10:25:08.000Z</time>
      </trkpt>
      <trkpt lat="47.32279" lon="-1.53521">
        <ele>17.1</ele>
        <time>2020-09-27T10:25:09.000Z</time>
      </trkpt>
      <trkpt lat="47.32282" lon="-1.53523">
        <ele>17.2</ele>
        <time>2020-09-27T10:25:10.000Z</time>
      </trkpt>
      <trkpt lat="47.32285" lon="-1.53525">
        <ele>17.4</ele>
        <time>2020-09-27T10:25:11.000Z</time>
      </trkpt>
      <trkpt lat="47.32287" lon="-1.53527">
        <ele>17.5</ele>
        <time>2020-09-27T10:25:12.000Z</time>
      </trkpt>
      <trkpt lat="47.3229" lon="-1.53528">
        <ele>17.6</ele>
        <time>2020-09-27T10:25:13.000Z</time>
      </trkpt>
      <trkpt lat="47.32293" lon="-1.5353">
        <ele>17.7</ele>
        <time>2020-09-27T10:25:14.000Z</time>
      </trkpt>
      <trkpt lat="47.32296" lon="-1.53531">
        <ele>17.8</ele>
        <time>2020-09-27T10:25:15.000Z</time>
      </trkpt>
      <trkpt lat="47.32298" lon="-1.53532">
        <ele>17.9</ele>
        <time>2020-09-27T10:25:16.000Z</time>
      </trkpt>
      <trkpt lat="47.32301" lon="-1.53533">
        <ele>18</ele>
        <time>2020-09-27T10:25:17.000Z</time>
      </trkpt>
      <trkpt lat="47.32303" lon="-1.53534">
        <ele>18.1</ele>
        <time>2020-09-27T10:25:18.000Z</time>
      </trkpt>
      <trkpt lat="47.32306" lon="-1.53535">
        <ele>18.2</ele>
        <time>2020-09-27T10:25:19.000Z</time>
      </trkpt>
      <trkpt lat="47.32309" lon="-1.53537">
        <ele>18.3</ele>
        <time>2020-09-27T10:25:20.000Z</time>
      </trkpt>
      <trkpt lat="47.32312" lon="-1.53538">
        <ele>18.4</ele>
        <time>2020-09-27T10:25:21.000Z</time>
      </trkpt>
      <trkpt lat="47.32315" lon="-1.5354">
        <ele>18.5</ele>
        <time>2020-09-27T10:25:22.000Z</time>
      </trkpt>
      <trkpt lat="47.32317" lon="-1.53542">
        <ele>18.6</ele>
        <time>2020-09-27T10:25:23.000Z</time>
      </trkpt>
      <trkpt lat="47.3232" lon="-1.53544">
        <ele>18.7</ele>
        <time>2020-09-27T10:25:24.000Z</time>
      </trkpt>
      <trkpt lat="47.32322" lon="-1.53546">
        <ele>18.8</ele>
        <time>2020-09-27T10:25:25.000Z</time>
      </trkpt>
      <trkpt lat="47.32324" lon="-1.53547">
        <ele>18.8</ele>
        <time>2020-09-27T10:25:26.000Z</time>
      </trkpt>
      <trkpt lat="47.32326" lon="-1.53549">
        <ele>18.8</ele>
        <time>2020-09-27T10:25:27.000Z</time>
      </trkpt>
      <trkpt lat="47.32328" lon="-1.5355">
        <ele>18.9</ele>
        <time>2020-09-27T10:25:28.000Z</time>
      </trkpt>
      <trkpt lat="47.32329" lon="-1.53551">
        <ele>19</ele>
        <time>2020-09-27T10:25:29.000Z</time>
      </trkpt>
      <trkpt lat="47.32332" lon="-1.53551">
        <ele>19.1</ele>
        <time>2020-09-27T10:25:30.000Z</time>
      </trkpt>
      <trkpt lat="47.32334" lon="-1.53552">
        <ele>19.2</ele>
        <time>2020-09-27T10:25:31.000Z</time>
      </trkpt>
      <trkpt lat="47.32336" lon="-1.53553">
        <ele>19.3</ele>
        <time>2020-09-27T10:25:32.000Z</time>
      </trkpt>
      <trkpt lat="47.32338" lon="-1.53554">
        <ele>19.4</ele>
        <time>2020-09-27T10:25:33.000Z</time>
      </trkpt>
      <trkpt lat="47.32341" lon="-1.53555">
        <ele>19.6</ele>
        <time>2020-09-27T10:25:34.000Z</time>
      </trkpt>
      <trkpt lat="47.32343" lon="-1.53556">
        <ele>19.7</ele>
        <time>2020-09-27T10:25:35.000Z</time>
      </trkpt>
      <trkpt lat="47.32346" lon="-1.53557">
        <ele>19.9</ele>
        <time>2020-09-27T10:25:36.000Z</time>
      </trkpt>
      <trkpt lat="47.32349" lon="-1.53558">
        <ele>20.1</ele>
        <time>2020-09-27T10:25:37.000Z</time>
      </trkpt>
      <trkpt lat="47.32351" lon="-1.53559">
        <ele>20.3</ele>
        <time>2020-09-27T10:25:38.000Z</time>
      </trkpt>
      <trkpt lat="47.32354" lon="-1.53561">
        <ele>20.4</ele>
        <time>2020-09-27T10:25:39.000Z</time>
      </trkpt>
      <trkpt lat="47.32357" lon="-1.53562">
        <ele>20.6</ele>
        <time>2020-09-27T10:25:40.000Z</time>
      </trkpt>
      <trkpt lat="47.3236" lon="-1.53563">
        <ele>20.8</ele>
        <time>2020-09-27T10:25:41.000Z</time>
      </trkpt>
      <trkpt lat="47.32363" lon="-1.53565">
        <ele>21</ele>
        <time>2020-09-27T10:25:42.000Z</time>
      </trkpt>
      <trkpt lat="47.32366" lon="-1.53566">
        <ele>21.2</ele>
        <time>2020-09-27T10:25:43.000Z</time>
      </trkpt>
      <trkpt lat="47.32369" lon="-1.53568">
        <ele>21.4</ele>
        <time>2020-09-27T10:25:44.000Z</time>
      </trkpt>
      <trkpt lat="47.32372" lon="-1.5357">
        <ele>21.6</ele>
        <time>2020-09-27T10:25:45.000Z</time>
      </trkpt>
      <trkpt lat="47.32375" lon="-1.53571">
        <ele>21.8</ele>
        <time>2020-09-27T10:25:46.000Z</time>
      </trkpt>
      <trkpt lat="47.32378" lon="-1.53573">
        <ele>22</ele>
        <time>2020-09-27T10:25:47.000Z</time>
      </trkpt>
      <trkpt lat="47.32381" lon="-1.53575">
        <ele>22.2</ele>
        <time>2020-09-27T10:25:48.000Z</time>
      </trkpt>
      <trkpt lat="47.32384" lon="-1.53577">
        <ele>22.4</ele>
        <time>2020-09-27T10:25:49.000Z</time>
      </trkpt>
      <trkpt lat="47.32387" lon="-1.53578">
        <ele>22.6</ele>
        <time>2020-09-27T10:25:50.000Z</time>
      </trkpt>
      <trkpt lat="47.32391" lon="-1.5358">
        <ele>22.9</ele>
        <time>2020-09-27T10:25:51.000Z</time>
      </trkpt>
      <trkpt lat="47.32394" lon="-1.53582">
        <ele>23.1</ele>
        <time>2020-09-27T10:25:52.000Z</time>
      </trkpt>
      <trkpt lat="47.32397" lon="-1.53583">
        <ele>23.3</ele>
        <time>2020-09-27T10:25:53.000Z</time>
      </trkpt>
      <trkpt lat="47.324" lon="-1.53585">
        <ele>23.6</ele>
        <time>2020-09-27T10:25:54.000Z</time>
      </trkpt>
      <trkpt lat="47.32403" lon="-1.53586">
        <ele>23.8</ele>
        <time>2020-09-27T10:25:55.000Z</time>
      </trkpt>
      <trkpt lat="47.32406" lon="-1.53588">
        <ele>24</ele>
        <time>2020-09-27T10:25:56.000Z</time>
      </trkpt>
      <trkpt lat="47.32409" lon="-1.53589">
        <ele>24.2</ele>
        <time>2020-09-27T10:25:57.000Z</time>
      </trkpt>
      <trkpt lat="47.32411" lon="-1.53591">
        <ele>24.5</ele>
        <time>2020-09-27T10:25:58.000Z</time>
      </trkpt>
      <trkpt lat="47.32414" lon="-1.53592">
        <ele>24.7</ele>
        <time>2020-09-27T10:25:59.000Z</time>
      </trkpt>
      <trkpt lat="47.32417" lon="-1.53594">
        <ele>24.9</ele>
        <time>2020-09-27T10:26:00.000Z</time>
      </trkpt>
      <trkpt lat="47.3242" lon="-1.53595">
        <ele>25</ele>
        <time>2020-09-27T10:26:01.000Z</time>
      </trkpt>
      <trkpt lat="47.32423" lon="-1.53596">
        <ele>25.2</ele>
        <time>2020-09-27T10:26:02.000Z</time>
      </trkpt>
      <trkpt lat="47.32426" lon="-1.53598">
        <ele>25.3</ele>
        <time>2020-09-27T10:26:03.000Z</time>
      </trkpt>
      <trkpt lat="47.32429" lon="-1.53599">
        <ele>25.4</ele>
        <time>2020-09-27T10:26:04.000Z</time>
      </trkpt>
      <trkpt lat="47.32432" lon="-1.536">
        <ele>25.6</ele>
        <time>2020-09-27T10:26:05.000Z</time>
      </trkpt>
      <trkpt lat="47.32435" lon="-1.53602">
        <ele>25.7</ele>
        <time>2020-09-27T10:26:06.000Z</time>
      </trkpt>
      <trkpt lat="47.32438" lon="-1.53603">
        <ele>25.8</ele>
        <time>2020-09-27T10:26:07.000Z</time>
      </trkpt>
      <trkpt lat="47.32441" lon="-1.53604">
        <ele>26</ele>
        <time>2020-09-27T10:26:08.000Z</time>
      </trkpt>
      <trkpt lat="47.32443" lon="-1.53606">
        <ele>26.1</ele>
        <time>2020-09-27T10:26:09.000Z</time>
      </trkpt>
      <trkpt lat="47.32446" lon="-1.53607">
        <ele>26.2</ele>
        <time>2020-09-27T10:26:10.000Z</time>
      </trkpt>
      <trkpt lat="47.32449" lon="-1.53609">
        <ele>26.4</ele>
        <time>2020-09-27T10:26:11.000Z</time>
      </trkpt>
      <trkpt lat="47.32452" lon="-1.5361">
        <ele>26.5</ele>
        <time>2020-09-27T10:26:12.000Z</time>
      </trkpt>
      <trkpt lat="47.32456" lon="-1.53612">
        <ele>26.7</ele>
        <time>2020-09-27T10:26:13.000Z</time>
      </trkpt>
      <trkpt lat="47.32459" lon="-1.53613">
        <ele>26.8</ele>
        <time>2020-09-27T10:26:14.000Z</time>
      </trkpt>
      <trkpt lat="47.32462" lon="-1.53615">
        <ele>27</ele>
        <time>2020-09-27T10:26:15.000Z</time>
      </trkpt>
      <trkpt lat="47.32465" lon="-1.53616">
        <ele>27.1</ele>
        <time>2020-09-27T10:26:16.000Z</time>
      </trkpt>
      <trkpt lat="47.32468" lon="-1.53618">
        <ele>27.3</ele>
        <time>2020-09-27T10:26:17.000Z</time>
      </trkpt>
      <trkpt lat="47.32471" lon="-1.5362">
        <ele>27.5</ele>
        <time>2020-09-27T10:26:18.000Z</time>
      </trkpt>
      <trkpt lat="47.32475" lon="-1.53621">
        <ele>27.6</ele>
        <time>2020-09-27T10:26:19.000Z</time>
      </trkpt>
      <trkpt lat="47.32478" lon="-1.53623">
        <ele>27.8</ele>
        <time>2020-09-27T10:26:20.000Z</time>
      </trkpt>
      <trkpt lat="47.32482" lon="-1.53625">
        <ele>28</ele>
        <time>2020-09-27T10:26:21.000Z</time>
      </trkpt>
      <trkpt lat="47.32485" lon="-1.53627">
        <ele>28.2</ele>
        <time>2020-09-27T10:26:22.000Z</time>
      </trkpt>
      <trkpt lat="47.32489" lon="-1.53629">
        <ele>28.4</ele>
        <time>2020-09-27T10:26:23.000Z</time>
      </trkpt>
      <trkpt lat="47.32493" lon="-1.5363">
        <ele>28.6</ele>
        <time>2020-09-27T10:26:24.000Z</time>
      </trkpt>
      <trkpt lat="47.32496" lon="-1.53632">
        <ele>28.8</ele>
        <time>2020-09-27T10:26:25.000Z</time>
      </trkpt>
      <trkpt lat="47.325" lon="-1.53634">
        <ele>29</ele>
        <time>2020-09-27T10:26:26.000Z</time>
      </trkpt>
      <trkpt lat="47.32504" lon="-1.53636">
        <ele>29</ele>
        <time>2020-09-27T10:26:27.000Z</time>
      </trkpt>
      <trkpt lat="47.32508" lon="-1.53637">
        <ele>29</ele>
        <time>2020-09-27T10:26:28.000Z</time>
      </trkpt>
      <trkpt lat="47.32513" lon="-1.53639">
        <ele>29</ele>
        <time>2020-09-27T10:26:29.000Z</time>
      </trkpt>
      <trkpt lat="47.32517" lon="-1.53641">
        <ele>29</ele>
        <time>2020-09-27T10:26:30.000Z</time>
      </trkpt>
      <trkpt lat="47.32521" lon="-1.53643">
        <ele>29</ele>
        <time>2020-09-27T10:26:31.000Z</time>
      </trkpt>
      <trkpt lat="47.32525" lon="-1.53645">
        <ele>29</ele>
        <time>2020-09-27T10:26:32.000Z</time>
      </trkpt>
      <trkpt lat="47.32529" lon="-1.53647">
        <ele>29</ele>
        <time>2020-09-27T10:26:33.000Z</time>
      </trkpt>
      <trkpt lat="47.32534" lon="-1.53649">
        <ele>29</ele>
        <time>2020-09-27T10:26:34.000Z</time>
      </trkpt>
      <trkpt lat="47.32538" lon="-1.5365">
        <ele>29</ele>
        <time>2020-09-27T10:26:35.000Z</time>
      </trkpt>
      <trkpt lat="47.32542" lon="-1.53652">
        <ele>29</ele>
        <time>2020-09-27T10:26:36.000Z</time>
      </trkpt>
      <trkpt lat="47.32546" lon="-1.53654">
        <ele>29</ele>
        <time>2020-09-27T10:26:37.000Z</time>
      </trkpt>
      <trkpt lat="47.3255" lon="-1.53656">
        <ele>29</ele>
        <time>2020-09-27T10:26:38.000Z</time>
      </trkpt>
      <trkpt lat="47.32554" lon="-1.53658">
        <ele>29</ele>
        <time>2020-09-27T10:26:39.000Z</time>
      </trkpt>
      <trkpt lat="47.32558" lon="-1.5366">
        <ele>29</ele>
        <time>2020-09-27T10:26:40.000Z</time>
      </trkpt>
      <trkpt lat="47.32563" lon="-1.53662">
        <ele>29</ele>
        <time>2020-09-27T10:26:41.000Z</time>
      </trkpt>
      <trkpt lat="47.32567" lon="-1.53664">
        <ele>29</ele>
        <time>2020-09-27T10:26:42.000Z</time>
      </trkpt>
      <trkpt lat="47.32571" lon="-1.53666">
        <ele>29</ele>
        <time>2020-09-27T10:26:43.000Z</time>
      </trkpt>
      <trkpt lat="47.32576" lon="-1.53668">
        <ele>29</ele>
        <time>2020-09-27T10:26:44.000Z</time>
      </trkpt>
      <trkpt lat="47.3258" lon="-1.53671">
        <ele>29</ele>
        <time>2020-09-27T10:26:45.000Z</time>
      </trkpt>
      <trkpt lat="47.32585" lon="-1.53673">
        <ele>28.8</ele>
        <time>2020-09-27T10:26:46.000Z</time>
      </trkpt>
      <trkpt lat="47.3259" lon="-1.53675">
        <ele>28.6</ele>
        <time>2020-09-27T10:26:47.000Z</time>
      </trkpt>
      <trkpt lat="47.32595" lon="-1.53677">
        <ele>28.4</ele>
        <time>2020-09-27T10:26:48.000Z</time>
      </trkpt>
      <trkpt lat="47.326" lon="-1.5368">
        <ele>28.1</ele>
        <time>2020-09-27T10:26:49.000Z</time>
      </trkpt>
      <trkpt lat="47.32605" lon="-1.53682">
        <ele>27.9</ele>
        <time>2020-09-27T10:26:50.000Z</time>
      </trkpt>
      <trkpt lat="47.3261" lon="-1.53684">
        <ele>27.7</ele>
        <time>2020-09-27T10:26:51.000Z</time>
      </trkpt>
      <trkpt lat="47.32614" lon="-1.53686">
        <ele>27.5</ele>
        <time>2020-09-27T10:26:52.000Z</time>
      </trkpt>
      <trkpt lat="47.32619" lon="-1.53688">
        <ele>27.3</ele>
        <time>2020-09-27T10:26:53.000Z</time>
      </trkpt>
      <trkpt lat="47.32623" lon="-1.53689">
        <ele>27.1</ele>
        <time>2020-09-27T10:26:54.000Z</time>
      </trkpt>
      <trkpt lat="47.32628" lon="-1.53691">
        <ele>26.9</ele>
        <time>2020-09-27T10:26:55.000Z</time>
      </trkpt>
      <trkpt lat="47.32632" lon="-1.53692">
        <ele>26.7</ele>
        <time>2020-09-27T10:26:56.000Z</time>
      </trkpt>
      <trkpt lat="47.32635" lon="-1.53693">
        <ele>26.6</ele>
        <time>2020-09-27T10:26:57.000Z</time>
      </trkpt>
      <trkpt lat="47.32639" lon="-1.53694">
        <ele>26.5</ele>
        <time>2020-09-27T10:26:58.000Z</time>
      </trkpt>
      <trkpt lat="47.32642" lon="-1.53694">
        <ele>26.3</ele>
        <time>2020-09-27T10:26:59.000Z</time>
      </trkpt>
      <trkpt lat="47.32644" lon="-1.53694">
        <ele>26.2</ele>
        <time>2020-09-27T10:27:00.000Z</time>
      </trkpt>
      <trkpt lat="47.32647" lon="-1.53695">
        <ele>26.1</ele>
        <time>2020-09-27T10:27:01.000Z</time>
      </trkpt>
      <trkpt lat="47.32649" lon="-1.53695">
        <ele>26</ele>
        <time>2020-09-27T10:27:02.000Z</time>
      </trkpt>
      <trkpt lat="47.32652" lon="-1.53695">
        <ele>25.9</ele>
        <time>2020-09-27T10:27:03.000Z</time>
      </trkpt>
      <trkpt lat="47.32654" lon="-1.53696">
        <ele>25.9</ele>
        <time>2020-09-27T10:27:04.000Z</time>
      </trkpt>
      <trkpt lat="47.32656" lon="-1.53696">
        <ele>25.8</ele>
        <time>2020-09-27T10:27:05.000Z</time>
      </trkpt>
      <trkpt lat="47.32659" lon="-1.53697">
        <ele>25.7</ele>
        <time>2020-09-27T10:27:06.000Z</time>
      </trkpt>
      <trkpt lat="47.32661" lon="-1.53697">
        <ele>25.6</ele>
        <time>2020-09-27T10:27:07.000Z</time>
      </trkpt>
      <trkpt lat="47.32664" lon="-1.53697">
        <ele>25.5</ele>
        <time>2020-09-27T10:27:08.000Z</time>
      </trkpt>
      <trkpt lat="47.32667" lon="-1.53697">
        <ele>25.4</ele>
        <time>2020-09-27T10:27:09.000Z</time>
      </trkpt>
      <trkpt lat="47.3267" lon="-1.53697">
        <ele>25.2</ele>
        <time>2020-09-27T10:27:10.000Z</time>
      </trkpt>
      <trkpt lat="47.32673" lon="-1.53697">
        <ele>25</ele>
        <time>2020-09-27T10:27:11.000Z</time>
      </trkpt>
      <trkpt lat="47.32677" lon="-1.53697">
        <ele>24.8</ele>
        <time>2020-09-27T10:27:12.000Z</time>
      </trkpt>
      <trkpt lat="47.32681" lon="-1.53698">
        <ele>24.6</ele>
        <time>2020-09-27T10:27:13.000Z</time>
      </trkpt>
      <trkpt lat="47.32685" lon="-1.53698">
        <ele>24.3</ele>
        <time>2020-09-27T10:27:14.000Z</time>
      </trkpt>
      <trkpt lat="47.3269" lon="-1.53699">
        <ele>24.1</ele>
        <time>2020-09-27T10:27:15.000Z</time>
      </trkpt>
      <trkpt lat="47.32695" lon="-1.537">
        <ele>23.9</ele>
        <time>2020-09-27T10:27:16.000Z</time>
      </trkpt>
      <trkpt lat="47.32699" lon="-1.53701">
        <ele>23.6</ele>
        <time>2020-09-27T10:27:17.000Z</time>
      </trkpt>
      <trkpt lat="47.32704" lon="-1.53701">
        <ele>23.4</ele>
        <time>2020-09-27T10:27:18.000Z</time>
      </trkpt>
      <trkpt lat="47.32709" lon="-1.53701">
        <ele>23.1</ele>
        <time>2020-09-27T10:27:19.000Z</time>
      </trkpt>
      <trkpt lat="47.32713" lon="-1.53701">
        <ele>22.8</ele>
        <time>2020-09-27T10:27:20.000Z</time>
      </trkpt>
      <trkpt lat="47.32718" lon="-1.53701">
        <ele>22.6</ele>
        <time>2020-09-27T10:27:21.000Z</time>
      </trkpt>
      <trkpt lat="47.32723" lon="-1.537">
        <ele>22.3</ele>
        <time>2020-09-27T10:27:22.000Z</time>
      </trkpt>
      <trkpt lat="47.32728" lon="-1.53699">
        <ele>22</ele>
        <time>2020-09-27T10:27:23.000Z</time>
      </trkpt>
      <trkpt lat="47.32733" lon="-1.53698">
        <ele>21.7</ele>
        <time>2020-09-27T10:27:24.000Z</time>
      </trkpt>
      <trkpt lat="47.32738" lon="-1.53697">
        <ele>21.4</ele>
        <time>2020-09-27T10:27:25.000Z</time>
      </trkpt>
      <trkpt lat="47.32743" lon="-1.53695">
        <ele>21</ele>
        <time>2020-09-27T10:27:26.000Z</time>
      </trkpt>
      <trkpt lat="47.32749" lon="-1.53693">
        <ele>20.7</ele>
        <time>2020-09-27T10:27:27.000Z</time>
      </trkpt>
      <trkpt lat="47.32754" lon="-1.53691">
        <ele>20.4</ele>
        <time>2020-09-27T10:27:28.000Z</time>
      </trkpt>
      <trkpt lat="47.3276" lon="-1.53689">
        <ele>20.1</ele>
        <time>2020-09-27T10:27:29.000Z</time>
      </trkpt>
      <trkpt lat="47.32766" lon="-1.53688">
        <ele>19.9</ele>
        <time>2020-09-27T10:27:30.000Z</time>
      </trkpt>
      <trkpt lat="47.32772" lon="-1.53687">
        <ele>19.6</ele>
        <time>2020-09-27T10:27:31.000Z</time>
      </trkpt>
      <trkpt lat="47.32779" lon="-1.53685">
        <ele>19.3</ele>
        <time>2020-09-27T10:27:32.000Z</time>
      </trkpt>
      <trkpt lat="47.32785" lon="-1.53684">
        <ele>19.1</ele>
        <time>2020-09-27T10:27:33.000Z</time>
      </trkpt>
      <trkpt lat="47.32792" lon="-1.53683">
        <ele>18.8</ele>
        <time>2020-09-27T10:27:34.000Z</time>
      </trkpt>
      <trkpt lat="47.32798" lon="-1.53682">
        <ele>18.5</ele>
        <time>2020-09-27T10:27:35.000Z</time>
      </trkpt>
      <trkpt lat="47.32804" lon="-1.53682">
        <ele>18.3</ele>
        <time>2020-09-27T10:27:36.000Z</time>
      </trkpt>
      <trkpt lat="47.32811" lon="-1.53681">
        <ele>18</ele>
        <time>2020-09-27T10:27:37.000Z</time>
      </trkpt>
      <trkpt lat="47.32817" lon="-1.5368">
        <ele>17.8</ele>
        <time>2020-09-27T10:27:38.000Z</time>
      </trkpt>
      <trkpt lat="47.32822" lon="-1.53679">
        <ele>17.6</ele>
        <time>2020-09-27T10:27:39.000Z</time>
      </trkpt>
      <trkpt lat="47.32827" lon="-1.53678">
        <ele>17.4</ele>
        <time>2020-09-27T10:27:40.000Z</time>
      </trkpt>
      <trkpt lat="47.32832" lon="-1.53677">
        <ele>17.2</ele>
        <time>2020-09-27T10:27:41.000Z</time>
      </trkpt>
      <trkpt lat="47.32837" lon="-1.53675">
        <ele>17</ele>
        <time>2020-09-27T10:27:42.000Z</time>
      </trkpt>
      <trkpt lat="47.32841" lon="-1.53674">
        <ele>16.8</ele>
        <time>2020-09-27T10:27:43.000Z</time>
      </trkpt>
      <trkpt lat="47.32845" lon="-1.53674">
        <ele>16.7</ele>
        <time>2020-09-27T10:27:44.000Z</time>
      </trkpt>
      <trkpt lat="47.32848" lon="-1.53673">
        <ele>16.6</ele>
        <time>2020-09-27T10:27:45.000Z</time>
      </trkpt>
      <trkpt lat="47.32851" lon="-1.53673">
        <ele>16.5</ele>
        <time>2020-09-27T10:27:46.000Z</time>
      </trkpt>
      <trkpt lat="47.32853" lon="-1.53674">
        <ele>16.4</ele>
        <time>2020-09-27T10:27:47.000Z</time>
      </trkpt>
      <trkpt lat="47.32855" lon="-1.53676">
        <ele>16.3</ele>
        <time>2020-09-27T10:27:48.000Z</time>
      </trkpt>
      <trkpt lat="47.32858" lon="-1.53677">
        <ele>16.3</ele>
        <time>2020-09-27T10:27:49.000Z</time>
      </trkpt>
      <trkpt lat="47.32859" lon="-1.53679">
        <ele>16.2</ele>
        <time>2020-09-27T10:27:50.000Z</time>
      </trkpt>
      <trkpt lat="47.32861" lon="-1.5368">
        <ele>16.1</ele>
        <time>2020-09-27T10:27:51.000Z</time>
      </trkpt>
      <trkpt lat="47.32864" lon="-1.53681">
        <ele>16.1</ele>
        <time>2020-09-27T10:27:52.000Z</time>
      </trkpt>
      <trkpt lat="47.32866" lon="-1.53682">
        <ele>16</ele>
        <time>2020-09-27T10:27:53.000Z</time>
      </trkpt>
      <trkpt lat="47.32868" lon="-1.53682">
        <ele>15.9</ele>
        <time>2020-09-27T10:27:54.000Z</time>
      </trkpt>
      <trkpt lat="47.32871" lon="-1.53682">
        <ele>15.8</ele>
        <time>2020-09-27T10:27:55.000Z</time>
      </trkpt>
      <trkpt lat="47.32874" lon="-1.53682">
        <ele>15.7</ele>
        <time>2020-09-27T10:27:56.000Z</time>
      </trkpt>
      <trkpt lat="47.32877" lon="-1.53681">
        <ele>15.6</ele>
        <time>2020-09-27T10:27:57.000Z</time>
      </trkpt>
      <trkpt lat="47.32881" lon="-1.53681">
        <ele>15.4</ele>
        <time>2020-09-27T10:27:58.000Z</time>
      </trkpt>
      <trkpt lat="47.32886" lon="-1.5368">
        <ele>15.3</ele>
        <time>2020-09-27T10:27:59.000Z</time>
      </trkpt>
      <trkpt lat="47.3289" lon="-1.53679">
        <ele>15.1</ele>
        <time>2020-09-27T10:28:00.000Z</time>
      </trkpt>
      <trkpt lat="47.32895" lon="-1.53678">
        <ele>14.9</ele>
        <time>2020-09-27T10:28:01.000Z</time>
      </trkpt>
      <trkpt lat="47.329" lon="-1.53677">
        <ele>14.7</ele>
        <time>2020-09-27T10:28:02.000Z</time>
      </trkpt>
      <trkpt lat="47.32905" lon="-1.53675">
        <ele>14.5</ele>
        <time>2020-09-27T10:28:03.000Z</time>
      </trkpt>
      <trkpt lat="47.3291" lon="-1.53674">
        <ele>14.3</ele>
        <time>2020-09-27T10:28:04.000Z</time>
      </trkpt>
      <trkpt lat="47.32915" lon="-1.53673">
        <ele>14.1</ele>
        <time>2020-09-27T10:28:05.000Z</time>
      </trkpt>
      <trkpt lat="47.3292" lon="-1.53671">
        <ele>14</ele>
        <time>2020-09-27T10:28:06.000Z</time>
      </trkpt>
      <trkpt lat="47.32926" lon="-1.5367">
        <ele>13.9</ele>
        <time>2020-09-27T10:28:07.000Z</time>
      </trkpt>
      <trkpt lat="47.32931" lon="-1.53668">
        <ele>13.8</ele>
        <time>2020-09-27T10:28:08.000Z</time>
      </trkpt>
      <trkpt lat="47.32937" lon="-1.53667">
        <ele>13.8</ele>
        <time>2020-09-27T10:28:09.000Z</time>
      </trkpt>
      <trkpt lat="47.32942" lon="-1.53665">
        <ele>13.7</ele>
        <time>2020-09-27T10:28:10.000Z</time>
      </trkpt>
      <trkpt lat="47.32947" lon="-1.53663">
        <ele>13.6</ele>
        <time>2020-09-27T10:28:11.000Z</time>
      </trkpt>
      <trkpt lat="47.32953" lon="-1.53661">
        <ele>13.5</ele>
        <time>2020-09-27T10:28:12.000Z</time>
      </trkpt>
      <trkpt lat="47.32958" lon="-1.5366">
        <ele>13.4</ele>
        <time>2020-09-27T10:28:13.000Z</time>
      </trkpt>
      <trkpt lat="47.32964" lon="-1.53658">
        <ele>13.3</ele>
        <time>2020-09-27T10:28:14.000Z</time>
      </trkpt>
      <trkpt lat="47.32969" lon="-1.53656">
        <ele>13.2</ele>
        <time>2020-09-27T10:28:15.000Z</time>
      </trkpt>
      <trkpt lat="47.32974" lon="-1.53654">
        <ele>13.2</ele>
        <time>2020-09-27T10:28:16.000Z</time>
      </trkpt>
      <trkpt lat="47.32979" lon="-1.53652">
        <ele>13.1</ele>
        <time>2020-09-27T10:28:17.000Z</time>
      </trkpt>
      <trkpt lat="47.32984" lon="-1.5365">
        <ele>13</ele>
        <time>2020-09-27T10:28:18.000Z</time>
      </trkpt>
      <trkpt lat="47.32989" lon="-1.53649">
        <ele>12.9</ele>
        <time>2020-09-27T10:28:19.000Z</time>
      </trkpt>
      <trkpt lat="47.32994" lon="-1.53647">
        <ele>12.8</ele>
        <time>2020-09-27T10:28:20.000Z</time>
      </trkpt>
      <trkpt lat="47.32999" lon="-1.53645">
        <ele>12.8</ele>
        <time>2020-09-27T10:28:21.000Z</time>
      </trkpt>
      <trkpt lat="47.33004" lon="-1.53643">
        <ele>12.9</ele>
        <time>2020-09-27T10:28:22.000Z</time>
      </trkpt>
      <trkpt lat="47.33008" lon="-1.53642">
        <ele>13.1</ele>
        <time>2020-09-27T10:28:23.000Z</time>
      </trkpt>
      <trkpt lat="47.33013" lon="-1.5364">
        <ele>13.4</ele>
        <time>2020-09-27T10:28:24.000Z</time>
      </trkpt>
      <trkpt lat="47.33017" lon="-1.53639">
        <ele>13.6</ele>
        <time>2020-09-27T10:28:25.000Z</time>
      </trkpt>
      <trkpt lat="47.33022" lon="-1.53637">
        <ele>13.8</ele>
        <time>2020-09-27T10:28:26.000Z</time>
      </trkpt>
      <trkpt lat="47.33026" lon="-1.53636">
        <ele>14</ele>
        <time>2020-09-27T10:28:27.000Z</time>
      </trkpt>
      <trkpt lat="47.3303" lon="-1.53634">
        <ele>14.2</ele>
        <time>2020-09-27T10:28:28.000Z</time>
      </trkpt>
      <trkpt lat="47.33034" lon="-1.53633">
        <ele>14.4</ele>
        <time>2020-09-27T10:28:29.000Z</time>
      </trkpt>
      <trkpt lat="47.33038" lon="-1.53631">
        <ele>14.6</ele>
        <time>2020-09-27T10:28:30.000Z</time>
      </trkpt>
      <trkpt lat="47.33042" lon="-1.5363">
        <ele>14.8</ele>
        <time>2020-09-27T10:28:31.000Z</time>
      </trkpt>
      <trkpt lat="47.33046" lon="-1.53629">
        <ele>15</ele>
        <time>2020-09-27T10:28:32.000Z</time>
      </trkpt>
      <trkpt lat="47.3305" lon="-1.53627">
        <ele>15.2</ele>
        <time>2020-09-27T10:28:33.000Z</time>
      </trkpt>
      <trkpt lat="47.33054" lon="-1.53626">
        <ele>15.4</ele>
        <time>2020-09-27T10:28:34.000Z</time>
      </trkpt>
      <trkpt lat="47.33057" lon="-1.53624">
        <ele>15.6</ele>
        <time>2020-09-27T10:28:35.000Z</time>
      </trkpt>
      <trkpt lat="47.33061" lon="-1.53623">
        <ele>15.8</ele>
        <time>2020-09-27T10:28:36.000Z</time>
      </trkpt>
      <trkpt lat="47.33066" lon="-1.53622">
        <ele>16</ele>
        <time>2020-09-27T10:28:37.000Z</time>
      </trkpt>
      <trkpt lat="47.3307" lon="-1.5362">
        <ele>16.2</ele>
        <time>2020-09-27T10:28:38.000Z</time>
      </trkpt>
      <trkpt lat="47.33074" lon="-1.53619">
        <ele>16.5</ele>
        <time>2020-09-27T10:28:39.000Z</time>
      </trkpt>
      <trkpt lat="47.33078" lon="-1.53617">
        <ele>16.7</ele>
        <time>2020-09-27T10:28:40.000Z</time>
      </trkpt>
      <trkpt lat="47.33082" lon="-1.53616">
        <ele>16.9</ele>
        <time>2020-09-27T10:28:41.000Z</time>
      </trkpt>
      <trkpt lat="47.33086" lon="-1.53615">
        <ele>17.1</ele>
        <time>2020-09-27T10:28:42.000Z</time>
      </trkpt>
      <trkpt lat="47.33091" lon="-1.53613">
        <ele>17.3</ele>
        <time>2020-09-27T10:28:43.000Z</time>
      </trkpt>
      <trkpt lat="47.33095" lon="-1.53612">
        <ele>17.5</ele>
        <time>2020-09-27T10:28:44.000Z</time>
      </trkpt>
      <trkpt lat="47.33099" lon="-1.5361">
        <ele>17.7</ele>
        <time>2020-09-27T10:28:45.000Z</time>
      </trkpt>
      <trkpt lat="47.33104" lon="-1.53609">
        <ele>17.9</ele>
        <time>2020-09-27T10:28:46.000Z</time>
      </trkpt>
      <trkpt lat="47.33108" lon="-1.53607">
        <ele>18.1</ele>
        <time>2020-09-27T10:28:47.000Z</time>
      </trkpt>
      <trkpt lat="47.33113" lon="-1.53606">
        <ele>18.3</ele>
        <time>2020-09-27T10:28:48.000Z</time>
      </trkpt>
      <trkpt lat="47.33117" lon="-1.53605">
        <ele>18.5</ele>
        <time>2020-09-27T10:28:49.000Z</time>
      </trkpt>
      <trkpt lat="47.33121" lon="-1.53603">
        <ele>18.7</ele>
        <time>2020-09-27T10:28:50.000Z</time>
      </trkpt>
      <trkpt lat="47.33126" lon="-1.53602">
        <ele>18.9</ele>
        <time>2020-09-27T10:28:51.000Z</time>
      </trkpt>
      <trkpt lat="47.3313" lon="-1.53601">
        <ele>19.1</ele>
        <time>2020-09-27T10:28:52.000Z</time>
      </trkpt>
      <trkpt lat="47.33134" lon="-1.536">
        <ele>19.3</ele>
        <time>2020-09-27T10:28:53.000Z</time>
      </trkpt>
      <trkpt lat="47.33139" lon="-1.53598">
        <ele>19.5</ele>
        <time>2020-09-27T10:28:54.000Z</time>
      </trkpt>
      <trkpt lat="47.33143" lon="-1.53597">
        <ele>19.7</ele>
        <time>2020-09-27T10:28:55.000Z</time>
      </trkpt>
      <trkpt lat="47.33147" lon="-1.53596">
        <ele>19.9</ele>
        <time>2020-09-27T10:28:56.000Z</time>
      </trkpt>
      <trkpt lat="47.33151" lon="-1.53595">
        <ele>20.2</ele>
        <time>2020-09-27T10:28:57.000Z</time>
      </trkpt>
      <trkpt lat="47.33156" lon="-1.53594">
        <ele>20.4</ele>
        <time>2020-09-27T10:28:58.000Z</time>
      </trkpt>
      <trkpt lat="47.3316" lon="-1.53592">
        <ele>20.6</ele>
        <time>2020-09-27T10:28:59.000Z</time>
      </trkpt>
      <trkpt lat="47.33164" lon="-1.53591">
        <ele>20.8</ele>
        <time>2020-09-27T10:29:00.000Z</time>
      </trkpt>
      <trkpt lat="47.33168" lon="-1.53589">
        <ele>20.9</ele>
        <time>2020-09-27T10:29:01.000Z</time>
      </trkpt>
      <trkpt lat="47.33172" lon="-1.53588">
        <ele>21</ele>
        <time>2020-09-27T10:29:02.000Z</time>
      </trkpt>
      <trkpt lat="47.33176" lon="-1.53586">
        <ele>21.1</ele>
        <time>2020-09-27T10:29:03.000Z</time>
      </trkpt>
      <trkpt lat="47.3318" lon="-1.53585">
        <ele>21.1</ele>
        <time>2020-09-27T10:29:04.000Z</time>
      </trkpt>
      <trkpt lat="47.33184" lon="-1.53583">
        <ele>21.2</ele>
        <time>2020-09-27T10:29:05.000Z</time>
      </trkpt>
      <trkpt lat="47.33188" lon="-1.53582">
        <ele>21.3</ele>
        <time>2020-09-27T10:29:06.000Z</time>
      </trkpt>
      <trkpt lat="47.33192" lon="-1.5358">
        <ele>21.3</ele>
        <time>2020-09-27T10:29:07.000Z</time>
      </trkpt>
      <trkpt lat="47.33196" lon="-1.53579">
        <ele>21.4</ele>
        <time>2020-09-27T10:29:08.000Z</time>
      </trkpt>
      <trkpt lat="47.332" lon="-1.53577">
        <ele>21.4</ele>
        <time>2020-09-27T10:29:09.000Z</time>
      </trkpt>
      <trkpt lat="47.33204" lon="-1.53576">
        <ele>21.5</ele>
        <time>2020-09-27T10:29:10.000Z</time>
      </trkpt>
      <trkpt lat="47.33208" lon="-1.53574">
        <ele>21.5</ele>
        <time>2020-09-27T10:29:11.000Z</time>
      </trkpt>
      <trkpt lat="47.33212" lon="-1.53573">
        <ele>21.6</ele>
        <time>2020-09-27T10:29:12.000Z</time>
      </trkpt>
      <trkpt lat="47.33216" lon="-1.53571">
        <ele>21.7</ele>
        <time>2020-09-27T10:29:13.000Z</time>
      </trkpt>
      <trkpt lat="47.3322" lon="-1.5357">
        <ele>21.7</ele>
        <time>2020-09-27T10:29:14.000Z</time>
      </trkpt>
      <trkpt lat="47.33224" lon="-1.53568">
        <ele>21.8</ele>
        <time>2020-09-27T10:29:15.000Z</time>
      </trkpt>
      <trkpt lat="47.33228" lon="-1.53566">
        <ele>21.9</ele>
        <time>2020-09-27T10:29:16.000Z</time>
      </trkpt>
      <trkpt lat="47.33232" lon="-1.53565">
        <ele>22</ele>
        <time>2020-09-27T10:29:17.000Z</time>
      </trkpt>
      <trkpt lat="47.33235" lon="-1.53563">
        <ele>22</ele>
        <time>2020-09-27T10:29:18.000Z</time>
      </trkpt>
      <trkpt lat="47.33239" lon="-1.53562">
        <ele>22.1</ele>
        <time>2020-09-27T10:29:19.000Z</time>
      </trkpt>
      <trkpt lat="47.33243" lon="-1.5356">
        <ele>22.2</ele>
        <time>2020-09-27T10:29:20.000Z</time>
      </trkpt>
      <trkpt lat="47.33246" lon="-1.53559">
        <ele>22.2</ele>
        <time>2020-09-27T10:29:21.000Z</time>
      </trkpt>
      <trkpt lat="47.33249" lon="-1.53557">
        <ele>22.3</ele>
        <time>2020-09-27T10:29:22.000Z</time>
      </trkpt>
      <trkpt lat="47.33252" lon="-1.53555">
        <ele>22.3</ele>
        <time>2020-09-27T10:29:23.000Z</time>
      </trkpt>
      <trkpt lat="47.33254" lon="-1.53553">
        <ele>22.3</ele>
        <time>2020-09-27T10:29:24.000Z</time>
      </trkpt>
      <trkpt lat="47.33255" lon="-1.5355">
        <ele>22.3</ele>
        <time>2020-09-27T10:29:25.000Z</time>
      </trkpt>
      <trkpt lat="47.33256" lon="-1.53548">
        <ele>22.4</ele>
        <time>2020-09-27T10:29:26.000Z</time>
      </trkpt>
      <trkpt lat="47.33258" lon="-1.53546">
        <ele>22.4</ele>
        <time>2020-09-27T10:29:27.000Z</time>
      </trkpt>
      <trkpt lat="47.33259" lon="-1.53546">
        <ele>22.3</ele>
        <time>2020-09-27T10:29:28.000Z</time>
      </trkpt>
      <trkpt lat="47.33262" lon="-1.53547">
        <ele>22.3</ele>
        <time>2020-09-27T10:29:29.000Z</time>
      </trkpt>
      <trkpt lat="47.33264" lon="-1.53548">
        <ele>22.3</ele>
        <time>2020-09-27T10:29:30.000Z</time>
      </trkpt>
      <trkpt lat="47.33266" lon="-1.53547">
        <ele>22.2</ele>
        <time>2020-09-27T10:29:31.000Z</time>
      </trkpt>
      <trkpt lat="47.33269" lon="-1.53547">
        <ele>22.2</ele>
        <time>2020-09-27T10:29:32.000Z</time>
      </trkpt>
      <trkpt lat="47.33271" lon="-1.53546">
        <ele>22.2</ele>
        <time>2020-09-27T10:29:33.000Z</time>
      </trkpt>
      <trkpt lat="47.33274" lon="-1.53544">
        <ele>22.2</ele>
        <time>2020-09-27T10:29:34.000Z</time>
      </trkpt>
      <trkpt lat="47.33277" lon="-1.53543">
        <ele>22.2</ele>
        <time>2020-09-27T10:29:35.000Z</time>
      </trkpt>
      <trkpt lat="47.3328" lon="-1.53542">
        <ele>22.1</ele>
        <time>2020-09-27T10:29:36.000Z</time>
      </trkpt>
      <trkpt lat="47.33283" lon="-1.5354">
        <ele>22.1</ele>
        <time>2020-09-27T10:29:37.000Z</time>
      </trkpt>
      <trkpt lat="47.33286" lon="-1.53539">
        <ele>22.1</ele>
        <time>2020-09-27T10:29:38.000Z</time>
      </trkpt>
      <trkpt lat="47.33289" lon="-1.53538">
        <ele>22.1</ele>
        <time>2020-09-27T10:29:39.000Z</time>
      </trkpt>
      <trkpt lat="47.33293" lon="-1.53537">
        <ele>22.1</ele>
        <time>2020-09-27T10:29:40.000Z</time>
      </trkpt>
      <trkpt lat="47.33296" lon="-1.53535">
        <ele>22</ele>
        <time>2020-09-27T10:29:41.000Z</time>
      </trkpt>
      <trkpt lat="47.33299" lon="-1.53534">
        <ele>22</ele>
        <time>2020-09-27T10:29:42.000Z</time>
      </trkpt>
      <trkpt lat="47.33303" lon="-1.53533">
        <ele>22</ele>
        <time>2020-09-27T10:29:43.000Z</time>
      </trkpt>
      <trkpt lat="47.33306" lon="-1.53531">
        <ele>22</ele>
        <time>2020-09-27T10:29:44.000Z</time>
      </trkpt>
      <trkpt lat="47.33309" lon="-1.5353">
        <ele>21.9</ele>
        <time>2020-09-27T10:29:45.000Z</time>
      </trkpt>
      <trkpt lat="47.33313" lon="-1.53529">
        <ele>21.9</ele>
        <time>2020-09-27T10:29:46.000Z</time>
      </trkpt>
      <trkpt lat="47.33316" lon="-1.53527">
        <ele>21.9</ele>
        <time>2020-09-27T10:29:47.000Z</time>
      </trkpt>
      <trkpt lat="47.33319" lon="-1.53526">
        <ele>21.9</ele>
        <time>2020-09-27T10:29:48.000Z</time>
      </trkpt>
      <trkpt lat="47.33323" lon="-1.53525">
        <ele>21.8</ele>
        <time>2020-09-27T10:29:49.000Z</time>
      </trkpt>
      <trkpt lat="47.33326" lon="-1.53523">
        <ele>21.8</ele>
        <time>2020-09-27T10:29:50.000Z</time>
      </trkpt>
      <trkpt lat="47.33329" lon="-1.53522">
        <ele>21.8</ele>
        <time>2020-09-27T10:29:51.000Z</time>
      </trkpt>
      <trkpt lat="47.33332" lon="-1.5352">
        <ele>21.8</ele>
        <time>2020-09-27T10:29:52.000Z</time>
      </trkpt>
      <trkpt lat="47.33336" lon="-1.53518">
        <ele>21.7</ele>
        <time>2020-09-27T10:29:53.000Z</time>
      </trkpt>
      <trkpt lat="47.33339" lon="-1.53517">
        <ele>21.7</ele>
        <time>2020-09-27T10:29:54.000Z</time>
      </trkpt>
      <trkpt lat="47.33342" lon="-1.53515">
        <ele>21.6</ele>
        <time>2020-09-27T10:29:55.000Z</time>
      </trkpt>
      <trkpt lat="47.33346" lon="-1.53514">
        <ele>21.5</ele>
        <time>2020-09-27T10:29:56.000Z</time>
      </trkpt>
      <trkpt lat="47.33349" lon="-1.53512">
        <ele>21.5</ele>
        <time>2020-09-27T10:29:57.000Z</time>
      </trkpt>
      <trkpt lat="47.33353" lon="-1.53511">
        <ele>21.4</ele>
        <time>2020-09-27T10:29:58.000Z</time>
      </trkpt>
      <trkpt lat="47.33357" lon="-1.53509">
        <ele>21.3</ele>
        <time>2020-09-27T10:29:59.000Z</time>
      </trkpt>
      <trkpt lat="47.3336" lon="-1.53508">
        <ele>21.3</ele>
        <time>2020-09-27T10:30:00.000Z</time>
      </trkpt>
      <trkpt lat="47.33364" lon="-1.53506">
        <ele>21.2</ele>
        <time>2020-09-27T10:30:01.000Z</time>
      </trkpt>
      <trkpt lat="47.33368" lon="-1.53505">
        <ele>21.1</ele>
        <time>2020-09-27T10:30:02.000Z</time>
      </trkpt>
      <trkpt lat="47.33371" lon="-1.53504">
        <ele>21.1</ele>
        <time>2020-09-27T10:30:03.000Z</time>
      </trkpt>
      <trkpt lat="47.33374" lon="-1.53503">
        <ele>21</ele>
        <time>2020-09-27T10:30:04.000Z</time>
      </trkpt>
      <trkpt lat="47.33378" lon="-1.53502">
        <ele>20.9</ele>
        <time>2020-09-27T10:30:05.000Z</time>
      </trkpt>
      <trkpt lat="47.33382" lon="-1.53501">
        <ele>20.8</ele>
        <time>2020-09-27T10:30:06.000Z</time>
      </trkpt>
      <trkpt lat="47.33385" lon="-1.535">
        <ele>20.8</ele>
        <time>2020-09-27T10:30:07.000Z</time>
      </trkpt>
      <trkpt lat="47.33389" lon="-1.53499">
        <ele>20.7</ele>
        <time>2020-09-27T10:30:08.000Z</time>
      </trkpt>
      <trkpt lat="47.33393" lon="-1.53499">
        <ele>20.6</ele>
        <time>2020-09-27T10:30:09.000Z</time>
      </trkpt>
      <trkpt lat="47.33397" lon="-1.53499">
        <ele>20.5</ele>
        <time>2020-09-27T10:30:10.000Z</time>
      </trkpt>
      <trkpt lat="47.33401" lon="-1.53498">
        <ele>20.4</ele>
        <time>2020-09-27T10:30:11.000Z</time>
      </trkpt>
      <trkpt lat="47.33405" lon="-1.53498">
        <ele>20.3</ele>
        <time>2020-09-27T10:30:12.000Z</time>
      </trkpt>
      <trkpt lat="47.3341" lon="-1.53497">
        <ele>20.2</ele>
        <time>2020-09-27T10:30:13.000Z</time>
      </trkpt>
      <trkpt lat="47.33414" lon="-1.53496">
        <ele>20.1</ele>
        <time>2020-09-27T10:30:14.000Z</time>
      </trkpt>
      <trkpt lat="47.33418" lon="-1.53495">
        <ele>20</ele>
        <time>2020-09-27T10:30:15.000Z</time>
      </trkpt>
      <trkpt lat="47.33423" lon="-1.53494">
        <ele>19.8</ele>
        <time>2020-09-27T10:30:16.000Z</time>
      </trkpt>
      <trkpt lat="47.33428" lon="-1.53493">
        <ele>19.7</ele>
        <time>2020-09-27T10:30:17.000Z</time>
      </trkpt>
      <trkpt lat="47.33432" lon="-1.53491">
        <ele>19.5</ele>
        <time>2020-09-27T10:30:18.000Z</time>
      </trkpt>
      <trkpt lat="47.33438" lon="-1.5349">
        <ele>19.3</ele>
        <time>2020-09-27T10:30:19.000Z</time>
      </trkpt>
      <trkpt lat="47.33443" lon="-1.53489">
        <ele>19.1</ele>
        <time>2020-09-27T10:30:20.000Z</time>
      </trkpt>
      <trkpt lat="47.33448" lon="-1.53488">
        <ele>19</ele>
        <time>2020-09-27T10:30:21.000Z</time>
      </trkpt>
      <trkpt lat="47.33454" lon="-1.53487">
        <ele>18.8</ele>
        <time>2020-09-27T10:30:22.000Z</time>
      </trkpt>
      <trkpt lat="47.33459" lon="-1.53486">
        <ele>18.6</ele>
        <time>2020-09-27T10:30:23.000Z</time>
      </trkpt>
      <trkpt lat="47.33464" lon="-1.53486">
        <ele>18.4</ele>
        <time>2020-09-27T10:30:24.000Z</time>
      </trkpt>
      <trkpt lat="47.33468" lon="-1.53485">
        <ele>18.2</ele>
        <time>2020-09-27T10:30:25.000Z</time>
      </trkpt>
      <trkpt lat="47.33472" lon="-1.53485">
        <ele>18.1</ele>
        <time>2020-09-27T10:30:26.000Z</time>
      </trkpt>
      <trkpt lat="47.33476" lon="-1.53484">
        <ele>17.9</ele>
        <time>2020-09-27T10:30:27.000Z</time>
      </trkpt>
      <trkpt lat="47.3348" lon="-1.53483">
        <ele>17.8</ele>
        <time>2020-09-27T10:30:28.000Z</time>
      </trkpt>
      <trkpt lat="47.33483" lon="-1.53483">
        <ele>17.6</ele>
        <time>2020-09-27T10:30:29.000Z</time>
      </trkpt>
      <trkpt lat="47.33486" lon="-1.53482">
        <ele>17.5</ele>
        <time>2020-09-27T10:30:30.000Z</time>
      </trkpt>
      <trkpt lat="47.33489" lon="-1.5348">
        <ele>17.4</ele>
        <time>2020-09-27T10:30:31.000Z</time>
      </trkpt>
      <trkpt lat="47.33491" lon="-1.53478">
        <ele>17.4</ele>
        <time>2020-09-27T10:30:32.000Z</time>
      </trkpt>
      <trkpt lat="47.33493" lon="-1.53476">
        <ele>17.3</ele>
        <time>2020-09-27T10:30:33.000Z</time>
      </trkpt>
      <trkpt lat="47.33494" lon="-1.53473">
        <ele>17.2</ele>
        <time>2020-09-27T10:30:34.000Z</time>
      </trkpt>
      <trkpt lat="47.33495" lon="-1.5347">
        <ele>17.2</ele>
        <time>2020-09-27T10:30:35.000Z</time>
      </trkpt>
      <trkpt lat="47.33496" lon="-1.53466">
        <ele>17.2</ele>
        <time>2020-09-27T10:30:36.000Z</time>
      </trkpt>
      <trkpt lat="47.33497" lon="-1.53462">
        <ele>17.1</ele>
        <time>2020-09-27T10:30:37.000Z</time>
      </trkpt>
      <trkpt lat="47.33498" lon="-1.53457">
        <ele>17.1</ele>
        <time>2020-09-27T10:30:38.000Z</time>
      </trkpt>
      <trkpt lat="47.33499" lon="-1.53453">
        <ele>17.1</ele>
        <time>2020-09-27T10:30:39.000Z</time>
      </trkpt>
      <trkpt lat="47.335" lon="-1.53448">
        <ele>17</ele>
        <time>2020-09-27T10:30:40.000Z</time>
      </trkpt>
      <trkpt lat="47.335" lon="-1.53442">
        <ele>17</ele>
        <time>2020-09-27T10:30:41.000Z</time>
      </trkpt>
      <trkpt lat="47.33501" lon="-1.53437">
        <ele>17</ele>
        <time>2020-09-27T10:30:42.000Z</time>
      </trkpt>
      <trkpt lat="47.33502" lon="-1.53431">
        <ele>16.9</ele>
        <time>2020-09-27T10:30:43.000Z</time>
      </trkpt>
      <trkpt lat="47.33502" lon="-1.53425">
        <ele>16.9</ele>
        <time>2020-09-27T10:30:44.000Z</time>
      </trkpt>
      <trkpt lat="47.33503" lon="-1.53419">
        <ele>16.9</ele>
        <time>2020-09-27T10:30:45.000Z</time>
      </trkpt>
      <trkpt lat="47.33503" lon="-1.53413">
        <ele>16.9</ele>
        <time>2020-09-27T10:30:46.000Z</time>
      </trkpt>
      <trkpt lat="47.33504" lon="-1.53408">
        <ele>16.9</ele>
        <time>2020-09-27T10:30:47.000Z</time>
      </trkpt>
      <trkpt lat="47.33505" lon="-1.53402">
        <ele>16.8</ele>
        <time>2020-09-27T10:30:48.000Z</time>
      </trkpt>
      <trkpt lat="47.33506" lon="-1.53396">
        <ele>16.8</ele>
        <time>2020-09-27T10:30:49.000Z</time>
      </trkpt>
      <trkpt lat="47.33506" lon="-1.5339">
        <ele>16.8</ele>
        <time>2020-09-27T10:30:50.000Z</time>
      </trkpt>
      <trkpt lat="47.33507" lon="-1.53384">
        <ele>16.8</ele>
        <time>2020-09-27T10:30:51.000Z</time>
      </trkpt>
      <trkpt lat="47.33508" lon="-1.53379">
        <ele>16.8</ele>
        <time>2020-09-27T10:30:52.000Z</time>
      </trkpt>
      <trkpt lat="47.33509" lon="-1.53373">
        <ele>16.8</ele>
        <time>2020-09-27T10:30:53.000Z</time>
      </trkpt>
      <trkpt lat="47.3351" lon="-1.53367">
        <ele>16.8</ele>
        <time>2020-09-27T10:30:54.000Z</time>
      </trkpt>
      <trkpt lat="47.3351" lon="-1.53362">
        <ele>16.8</ele>
        <time>2020-09-27T10:30:55.000Z</time>
      </trkpt>
      <trkpt lat="47.33511" lon="-1.53357">
        <ele>16.8</ele>
        <time>2020-09-27T10:30:56.000Z</time>
      </trkpt>
      <trkpt lat="47.33512" lon="-1.53351">
        <ele>16.8</ele>
        <time>2020-09-27T10:30:57.000Z</time>
      </trkpt>
      <trkpt lat="47.33512" lon="-1.53346">
        <ele>16.8</ele>
        <time>2020-09-27T10:30:58.000Z</time>
      </trkpt>
      <trkpt lat="47.33513" lon="-1.53341">
        <ele>16.8</ele>
        <time>2020-09-27T10:30:59.000Z</time>
      </trkpt>
      <trkpt lat="47.33514" lon="-1.53336">
        <ele>16.8</ele>
        <time>2020-09-27T10:31:00.000Z</time>
      </trkpt>
      <trkpt lat="47.33514" lon="-1.53331">
        <ele>16.8</ele>
        <time>2020-09-27T10:31:01.000Z</time>
      </trkpt>
      <trkpt lat="47.33514" lon="-1.53326">
        <ele>16.7</ele>
        <time>2020-09-27T10:31:02.000Z</time>
      </trkpt>
      <trkpt lat="47.33515" lon="-1.53321">
        <ele>16.6</ele>
        <time>2020-09-27T10:31:03.000Z</time>
      </trkpt>
      <trkpt lat="47.33515" lon="-1.53316">
        <ele>16.5</ele>
        <time>2020-09-27T10:31:04.000Z</time>
      </trkpt>
      <trkpt lat="47.33515" lon="-1.53312">
        <ele>16.4</ele>
        <time>2020-09-27T10:31:05.000Z</time>
      </trkpt>
      <trkpt lat="47.33516" lon="-1.53307">
        <ele>16.3</ele>
        <time>2020-09-27T10:31:06.000Z</time>
      </trkpt>
      <trkpt lat="47.33517" lon="-1.53303">
        <ele>16.2</ele>
        <time>2020-09-27T10:31:07.000Z</time>
      </trkpt>
      <trkpt lat="47.33519" lon="-1.53299">
        <ele>16.1</ele>
        <time>2020-09-27T10:31:08.000Z</time>
      </trkpt>
      <trkpt lat="47.33521" lon="-1.53296">
        <ele>16</ele>
        <time>2020-09-27T10:31:09.000Z</time>
      </trkpt>
      <trkpt lat="47.33523" lon="-1.53293">
        <ele>15.8</ele>
        <time>2020-09-27T10:31:10.000Z</time>
      </trkpt>
      <trkpt lat="47.33526" lon="-1.53289">
        <ele>15.7</ele>
        <time>2020-09-27T10:31:11.000Z</time>
      </trkpt>
      <trkpt lat="47.33529" lon="-1.53286">
        <ele>15.5</ele>
        <time>2020-09-27T10:31:12.000Z</time>
      </trkpt>
      <trkpt lat="47.33532" lon="-1.53283">
        <ele>15.3</ele>
        <time>2020-09-27T10:31:13.000Z</time>
      </trkpt>
      <trkpt lat="47.33536" lon="-1.5328">
        <ele>15.1</ele>
        <time>2020-09-27T10:31:14.000Z</time>
      </trkpt>
      <trkpt lat="47.3354" lon="-1.53277">
        <ele>14.9</ele>
        <time>2020-09-27T10:31:15.000Z</time>
      </trkpt>
      <trkpt lat="47.33545" lon="-1.53274">
        <ele>14.6</ele>
        <time>2020-09-27T10:31:16.000Z</time>
      </trkpt>
      <trkpt lat="47.33549" lon="-1.53271">
        <ele>14.4</ele>
        <time>2020-09-27T10:31:17.000Z</time>
      </trkpt>
      <trkpt lat="47.33553" lon="-1.53269">
        <ele>14.1</ele>
        <time>2020-09-27T10:31:18.000Z</time>
      </trkpt>
      <trkpt lat="47.33558" lon="-1.53266">
        <ele>13.8</ele>
        <time>2020-09-27T10:31:19.000Z</time>
      </trkpt>
      <trkpt lat="47.33563" lon="-1.53264">
        <ele>13.5</ele>
        <time>2020-09-27T10:31:20.000Z</time>
      </trkpt>
      <trkpt lat="47.33567" lon="-1.53262">
        <ele>13.3</ele>
        <time>2020-09-27T10:31:21.000Z</time>
      </trkpt>
      <trkpt lat="47.33572" lon="-1.5326">
        <ele>13</ele>
        <time>2020-09-27T10:31:22.000Z</time>
      </trkpt>
      <trkpt lat="47.33576" lon="-1.53257">
        <ele>12.7</ele>
        <time>2020-09-27T10:31:23.000Z</time>
      </trkpt>
      <trkpt lat="47.33581" lon="-1.53255">
        <ele>12.3</ele>
        <time>2020-09-27T10:31:24.000Z</time>
      </trkpt>
      <trkpt lat="47.33585" lon="-1.53252">
        <ele>12</ele>
        <time>2020-09-27T10:31:25.000Z</time>
      </trkpt>
      <trkpt lat="47.33589" lon="-1.53249">
        <ele>11.7</ele>
        <time>2020-09-27T10:31:26.000Z</time>
      </trkpt>
      <trkpt lat="47.33593" lon="-1.53247">
        <ele>11.5</ele>
        <time>2020-09-27T10:31:27.000Z</time>
      </trkpt>
      <trkpt lat="47.33597" lon="-1.53244">
        <ele>11.3</ele>
        <time>2020-09-27T10:31:28.000Z</time>
      </trkpt>
      <trkpt lat="47.336" lon="-1.53242">
        <ele>11.1</ele>
        <time>2020-09-27T10:31:29.000Z</time>
      </trkpt>
      <trkpt lat="47.33604" lon="-1.5324">
        <ele>10.9</ele>
        <time>2020-09-27T10:31:30.000Z</time>
      </trkpt>
      <trkpt lat="47.33607" lon="-1.53238">
        <ele>10.8</ele>
        <time>2020-09-27T10:31:31.000Z</time>
      </trkpt>
      <trkpt lat="47.3361" lon="-1.53236">
        <ele>10.6</ele>
        <time>2020-09-27T10:31:32.000Z</time>
      </trkpt>
      <trkpt lat="47.33613" lon="-1.53234">
        <ele>10.4</ele>
        <time>2020-09-27T10:31:33.000Z</time>
      </trkpt>
      <trkpt lat="47.33617" lon="-1.53232">
        <ele>10.3</ele>
        <time>2020-09-27T10:31:34.000Z</time>
      </trkpt>
      <trkpt lat="47.3362" lon="-1.5323">
        <ele>10.1</ele>
        <time>2020-09-27T10:31:35.000Z</time>
      </trkpt>
      <trkpt lat="47.33624" lon="-1.53227">
        <ele>9.9</ele>
        <time>2020-09-27T10:31:36.000Z</time>
      </trkpt>
      <trkpt lat="47.33628" lon="-1.53225">
        <ele>9.7</ele>
        <time>2020-09-27T10:31:37.000Z</time>
      </trkpt>
      <trkpt lat="47.33633" lon="-1.53222">
        <ele>9.5</ele>
        <time>2020-09-27T10:31:38.000Z</time>
      </trkpt>
      <trkpt lat="47.33637" lon="-1.5322">
        <ele>9.3</ele>
        <time>2020-09-27T10:31:39.000Z</time>
      </trkpt>
      <trkpt lat="47.33641" lon="-1.53217">
        <ele>9.1</ele>
        <time>2020-09-27T10:31:40.000Z</time>
      </trkpt>
      <trkpt lat="47.33645" lon="-1.53215">
        <ele>8.9</ele>
        <time>2020-09-27T10:31:41.000Z</time>
      </trkpt>
      <trkpt lat="47.33649" lon="-1.53213">
        <ele>8.8</ele>
        <time>2020-09-27T10:31:42.000Z</time>
      </trkpt>
      <trkpt lat="47.33653" lon="-1.53211">
        <ele>8.6</ele>
        <time>2020-09-27T10:31:43.000Z</time>
      </trkpt>
      <trkpt lat="47.33656" lon="-1.53209">
        <ele>8.4</ele>
        <time>2020-09-27T10:31:44.000Z</time>
      </trkpt>
      <trkpt lat="47.3366" lon="-1.53207">
        <ele>8.3</ele>
        <time>2020-09-27T10:31:45.000Z</time>
      </trkpt>
      <trkpt lat="47.33663" lon="-1.53205">
        <ele>8.1</ele>
        <time>2020-09-27T10:31:46.000Z</time>
      </trkpt>
      <trkpt lat="47.33667" lon="-1.53202">
        <ele>8</ele>
        <time>2020-09-27T10:31:47.000Z</time>
      </trkpt>
      <trkpt lat="47.3367" lon="-1.532">
        <ele>7.9</ele>
        <time>2020-09-27T10:31:48.000Z</time>
      </trkpt>
      <trkpt lat="47.33673" lon="-1.53198">
        <ele>7.9</ele>
        <time>2020-09-27T10:31:49.000Z</time>
      </trkpt>
      <trkpt lat="47.33677" lon="-1.53196">
        <ele>7.8</ele>
        <time>2020-09-27T10:31:50.000Z</time>
      </trkpt>
      <trkpt lat="47.33681" lon="-1.53194">
        <ele>7.8</ele>
        <time>2020-09-27T10:31:51.000Z</time>
      </trkpt>
      <trkpt lat="47.33685" lon="-1.53193">
        <ele>7.7</ele>
        <time>2020-09-27T10:31:52.000Z</time>
      </trkpt>
      <trkpt lat="47.33689" lon="-1.53192">
        <ele>7.7</ele>
        <time>2020-09-27T10:31:53.000Z</time>
      </trkpt>
      <trkpt lat="47.33692" lon="-1.53191">
        <ele>7.6</ele>
        <time>2020-09-27T10:31:54.000Z</time>
      </trkpt>
      <trkpt lat="47.33696" lon="-1.5319">
        <ele>7.6</ele>
        <time>2020-09-27T10:31:55.000Z</time>
      </trkpt>
      <trkpt lat="47.33699" lon="-1.53189">
        <ele>7.5</ele>
        <time>2020-09-27T10:31:56.000Z</time>
      </trkpt>
      <trkpt lat="47.33702" lon="-1.53188">
        <ele>7.5</ele>
        <time>2020-09-27T10:31:57.000Z</time>
      </trkpt>
      <trkpt lat="47.33704" lon="-1.53187">
        <ele>7.4</ele>
        <time>2020-09-27T10:31:58.000Z</time>
      </trkpt>
      <trkpt lat="47.33706" lon="-1.53186">
        <ele>7.4</ele>
        <time>2020-09-27T10:31:59.000Z</time>
      </trkpt>
      <trkpt lat="47.33709" lon="-1.53185">
        <ele>7.4</ele>
        <time>2020-09-27T10:32:00.000Z</time>
      </trkpt>
      <trkpt lat="47.33711" lon="-1.53184">
        <ele>7.4</ele>
        <time>2020-09-27T10:32:01.000Z</time>
      </trkpt>
      <trkpt lat="47.33713" lon="-1.53183">
        <ele>7.3</ele>
        <time>2020-09-27T10:32:02.000Z</time>
      </trkpt>
      <trkpt lat="47.33715" lon="-1.53182">
        <ele>7.3</ele>
        <time>2020-09-27T10:32:03.000Z</time>
      </trkpt>
      <trkpt lat="47.33717" lon="-1.5318">
        <ele>7.3</ele>
        <time>2020-09-27T10:32:04.000Z</time>
      </trkpt>
      <trkpt lat="47.33719" lon="-1.53179">
        <ele>7.3</ele>
        <time>2020-09-27T10:32:05.000Z</time>
      </trkpt>
      <trkpt lat="47.33721" lon="-1.53178">
        <ele>7.3</ele>
        <time>2020-09-27T10:32:06.000Z</time>
      </trkpt>
      <trkpt lat="47.33724" lon="-1.53176">
        <ele>7.2</ele>
        <time>2020-09-27T10:32:07.000Z</time>
      </trkpt>
      <trkpt lat="47.33726" lon="-1.53175">
        <ele>7.2</ele>
        <time>2020-09-27T10:32:08.000Z</time>
      </trkpt>
      <trkpt lat="47.33729" lon="-1.53173">
        <ele>7.2</ele>
        <time>2020-09-27T10:32:09.000Z</time>
      </trkpt>
      <trkpt lat="47.33731" lon="-1.53172">
        <ele>7.2</ele>
        <time>2020-09-27T10:32:10.000Z</time>
      </trkpt>
      <trkpt lat="47.33733" lon="-1.53171">
        <ele>7.2</ele>
        <time>2020-09-27T10:32:11.000Z</time>
      </trkpt>
      <trkpt lat="47.33736" lon="-1.5317">
        <ele>7.1</ele>
        <time>2020-09-27T10:32:12.000Z</time>
      </trkpt>
      <trkpt lat="47.33738" lon="-1.53169">
        <ele>7.1</ele>
        <time>2020-09-27T10:32:13.000Z</time>
      </trkpt>
      <trkpt lat="47.33741" lon="-1.53167">
        <ele>7.1</ele>
        <time>2020-09-27T10:32:14.000Z</time>
      </trkpt>
      <trkpt lat="47.33743" lon="-1.53166">
        <ele>7.1</ele>
        <time>2020-09-27T10:32:15.000Z</time>
      </trkpt>
      <trkpt lat="47.33746" lon="-1.53164">
        <ele>7</ele>
        <time>2020-09-27T10:32:16.000Z</time>
      </trkpt>
      <trkpt lat="47.33749" lon="-1.53163">
        <ele>7</ele>
        <time>2020-09-27T10:32:17.000Z</time>
      </trkpt>
      <trkpt lat="47.33752" lon="-1.53161">
        <ele>7</ele>
        <time>2020-09-27T10:32:18.000Z</time>
      </trkpt>
      <trkpt lat="47.33755" lon="-1.53159">
        <ele>7</ele>
        <time>2020-09-27T10:32:19.000Z</time>
      </trkpt>
      <trkpt lat="47.33758" lon="-1.53158">
        <ele>7</ele>
        <time>2020-09-27T10:32:20.000Z</time>
      </trkpt>
      <trkpt lat="47.33761" lon="-1.53156">
        <ele>7</ele>
        <time>2020-09-27T10:32:21.000Z</time>
      </trkpt>
      <trkpt lat="47.33763" lon="-1.53154">
        <ele>7</ele>
        <time>2020-09-27T10:32:22.000Z</time>
      </trkpt>
      <trkpt lat="47.33766" lon="-1.53152">
        <ele>7</ele>
        <time>2020-09-27T10:32:23.000Z</time>
      </trkpt>
      <trkpt lat="47.33768" lon="-1.53151">
        <ele>7</ele>
        <time>2020-09-27T10:32:24.000Z</time>
      </trkpt>
      <trkpt lat="47.3377" lon="-1.53149">
        <ele>7</ele>
        <time>2020-09-27T10:32:25.000Z</time>
      </trkpt>
      <trkpt lat="47.33772" lon="-1.53148">
        <ele>7</ele>
        <time>2020-09-27T10:32:26.000Z</time>
      </trkpt>
      <trkpt lat="47.33774" lon="-1.53146">
        <ele>7</ele>
        <time>2020-09-27T10:32:27.000Z</time>
      </trkpt>
      <trkpt lat="47.33775" lon="-1.53144">
        <ele>6.9</ele>
        <time>2020-09-27T10:32:28.000Z</time>
      </trkpt>
      <trkpt lat="47.33776" lon="-1.53142">
        <ele>6.9</ele>
        <time>2020-09-27T10:32:29.000Z</time>
      </trkpt>
      <trkpt lat="47.33778" lon="-1.5314">
        <ele>6.9</ele>
        <time>2020-09-27T10:32:30.000Z</time>
      </trkpt>
      <trkpt lat="47.33779" lon="-1.53137">
        <ele>6.9</ele>
        <time>2020-09-27T10:32:31.000Z</time>
      </trkpt>
      <trkpt lat="47.3378" lon="-1.53134">
        <ele>6.8</ele>
        <time>2020-09-27T10:32:32.000Z</time>
      </trkpt>
      <trkpt lat="47.33781" lon="-1.53131">
        <ele>6.8</ele>
        <time>2020-09-27T10:32:33.000Z</time>
      </trkpt>
      <trkpt lat="47.33782" lon="-1.53129">
        <ele>6.7</ele>
        <time>2020-09-27T10:32:34.000Z</time>
      </trkpt>
      <trkpt lat="47.33783" lon="-1.53126">
        <ele>6.7</ele>
        <time>2020-09-27T10:32:35.000Z</time>
      </trkpt>
      <trkpt lat="47.33784" lon="-1.53123">
        <ele>6.7</ele>
        <time>2020-09-27T10:32:36.000Z</time>
      </trkpt>
      <trkpt lat="47.33786" lon="-1.5312">
        <ele>6.6</ele>
        <time>2020-09-27T10:32:37.000Z</time>
      </trkpt>
      <trkpt lat="47.33787" lon="-1.53117">
        <ele>6.6</ele>
        <time>2020-09-27T10:32:38.000Z</time>
      </trkpt>
      <trkpt lat="47.33789" lon="-1.53114">
        <ele>6.5</ele>
        <time>2020-09-27T10:32:39.000Z</time>
      </trkpt>
      <trkpt lat="47.3379" lon="-1.53111">
        <ele>6.5</ele>
        <time>2020-09-27T10:32:40.000Z</time>
      </trkpt>
      <trkpt lat="47.33792" lon="-1.53108">
        <ele>6.4</ele>
        <time>2020-09-27T10:32:41.000Z</time>
      </trkpt>
      <trkpt lat="47.33793" lon="-1.53105">
        <ele>6.4</ele>
        <time>2020-09-27T10:32:42.000Z</time>
      </trkpt>
      <trkpt lat="47.33795" lon="-1.53101">
        <ele>6.3</ele>
        <time>2020-09-27T10:32:43.000Z</time>
      </trkpt>
      <trkpt lat="47.33797" lon="-1.53098">
        <ele>6.3</ele>
        <time>2020-09-27T10:32:44.000Z</time>
      </trkpt>
      <trkpt lat="47.33798" lon="-1.53095">
        <ele>6.2</ele>
        <time>2020-09-27T10:32:45.000Z</time>
      </trkpt>
      <trkpt lat="47.338" lon="-1.53091">
        <ele>6.2</ele>
        <time>2020-09-27T10:32:46.000Z</time>
      </trkpt>
      <trkpt lat="47.33802" lon="-1.53088">
        <ele>6.1</ele>
        <time>2020-09-27T10:32:47.000Z</time>
      </trkpt>
      <trkpt lat="47.33803" lon="-1.53085">
        <ele>6</ele>
        <time>2020-09-27T10:32:48.000Z</time>
      </trkpt>
      <trkpt lat="47.33805" lon="-1.53082">
        <ele>6</ele>
        <time>2020-09-27T10:32:49.000Z</time>
      </trkpt>
      <trkpt lat="47.33806" lon="-1.53079">
        <ele>6</ele>
        <time>2020-09-27T10:32:50.000Z</time>
      </trkpt>
      <trkpt lat="47.33808" lon="-1.53076">
        <ele>5.9</ele>
        <time>2020-09-27T10:32:51.000Z</time>
      </trkpt>
      <trkpt lat="47.33809" lon="-1.53073">
        <ele>5.9</ele>
        <time>2020-09-27T10:32:52.000Z</time>
      </trkpt>
      <trkpt lat="47.3381" lon="-1.5307">
        <ele>5.9</ele>
        <time>2020-09-27T10:32:53.000Z</time>
      </trkpt>
      <trkpt lat="47.33812" lon="-1.53066">
        <ele>5.8</ele>
        <time>2020-09-27T10:32:54.000Z</time>
      </trkpt>
      <trkpt lat="47.33813" lon="-1.53063">
        <ele>5.8</ele>
        <time>2020-09-27T10:32:55.000Z</time>
      </trkpt>
      <trkpt lat="47.33814" lon="-1.53059">
        <ele>5.8</ele>
        <time>2020-09-27T10:32:56.000Z</time>
      </trkpt>
      <trkpt lat="47.33816" lon="-1.53057">
        <ele>5.8</ele>
        <time>2020-09-27T10:32:57.000Z</time>
      </trkpt>
      <trkpt lat="47.33818" lon="-1.53056">
        <ele>5.7</ele>
        <time>2020-09-27T10:32:58.000Z</time>
      </trkpt>
      <trkpt lat="47.3382" lon="-1.53057">
        <ele>5.7</ele>
        <time>2020-09-27T10:32:59.000Z</time>
      </trkpt>
      <trkpt lat="47.33822" lon="-1.53059">
        <ele>5.7</ele>
        <time>2020-09-27T10:33:00.000Z</time>
      </trkpt>
      <trkpt lat="47.33825" lon="-1.53061">
        <ele>5.8</ele>
        <time>2020-09-27T10:33:01.000Z</time>
      </trkpt>
      <trkpt lat="47.33827" lon="-1.53063">
        <ele>5.8</ele>
        <time>2020-09-27T10:33:02.000Z</time>
      </trkpt>
      <trkpt lat="47.33829" lon="-1.53065">
        <ele>5.8</ele>
        <time>2020-09-27T10:33:03.000Z</time>
      </trkpt>
      <trkpt lat="47.33831" lon="-1.53068">
        <ele>5.8</ele>
        <time>2020-09-27T10:33:04.000Z</time>
      </trkpt>
      <trkpt lat="47.33833" lon="-1.53071">
        <ele>5.9</ele>
        <time>2020-09-27T10:33:05.000Z</time>
      </trkpt>
      <trkpt lat="47.33835" lon="-1.53074">
        <ele>5.9</ele>
        <time>2020-09-27T10:33:06.000Z</time>
      </trkpt>
      <trkpt lat="47.33837" lon="-1.53077">
        <ele>6</ele>
        <time>2020-09-27T10:33:07.000Z</time>
      </trkpt>
      <trkpt lat="47.33839" lon="-1.5308">
        <ele>6.1</ele>
        <time>2020-09-27T10:33:08.000Z</time>
      </trkpt>
      <trkpt lat="47.3384" lon="-1.53083">
        <ele>6.2</ele>
        <time>2020-09-27T10:33:09.000Z</time>
      </trkpt>
      <trkpt lat="47.33842" lon="-1.53086">
        <ele>6.3</ele>
        <time>2020-09-27T10:33:10.000Z</time>
      </trkpt>
      <trkpt lat="47.33844" lon="-1.53089">
        <ele>6.4</ele>
        <time>2020-09-27T10:33:11.000Z</time>
      </trkpt>
      <trkpt lat="47.33846" lon="-1.53092">
        <ele>6.5</ele>
        <time>2020-09-27T10:33:12.000Z</time>
      </trkpt>
      <trkpt lat="47.33848" lon="-1.53095">
        <ele>6.6</ele>
        <time>2020-09-27T10:33:13.000Z</time>
      </trkpt>
      <trkpt lat="47.3385" lon="-1.53099">
        <ele>6.8</ele>
        <time>2020-09-27T10:33:14.000Z</time>
      </trkpt>
      <trkpt lat="47.33852" lon="-1.53102">
        <ele>6.9</ele>
        <time>2020-09-27T10:33:15.000Z</time>
      </trkpt>
      <trkpt lat="47.33853" lon="-1.53105">
        <ele>7</ele>
        <time>2020-09-27T10:33:16.000Z</time>
      </trkpt>
      <trkpt lat="47.33855" lon="-1.53109">
        <ele>7.1</ele>
        <time>2020-09-27T10:33:17.000Z</time>
      </trkpt>
      <trkpt lat="47.33857" lon="-1.53112">
        <ele>7.2</ele>
        <time>2020-09-27T10:33:18.000Z</time>
      </trkpt>
      <trkpt lat="47.33859" lon="-1.53114">
        <ele>7.4</ele>
        <time>2020-09-27T10:33:19.000Z</time>
      </trkpt>
      <trkpt lat="47.33861" lon="-1.53117">
        <ele>7.5</ele>
        <time>2020-09-27T10:33:20.000Z</time>
      </trkpt>
      <trkpt lat="47.33863" lon="-1.53118">
        <ele>7.6</ele>
        <time>2020-09-27T10:33:21.000Z</time>
      </trkpt>
      <trkpt lat="47.33866" lon="-1.53119">
        <ele>7.6</ele>
        <time>2020-09-27T10:33:22.000Z</time>
      </trkpt>
      <trkpt lat="47.33868" lon="-1.53119">
        <ele>7.7</ele>
        <time>2020-09-27T10:33:23.000Z</time>
      </trkpt>
      <trkpt lat="47.33871" lon="-1.53118">
        <ele>7.7</ele>
        <time>2020-09-27T10:33:24.000Z</time>
      </trkpt>
      <trkpt lat="47.33873" lon="-1.53116">
        <ele>7.7</ele>
        <time>2020-09-27T10:33:25.000Z</time>
      </trkpt>
      <trkpt lat="47.33874" lon="-1.53113">
        <ele>7.7</ele>
        <time>2020-09-27T10:33:26.000Z</time>
      </trkpt>
      <trkpt lat="47.33875" lon="-1.53109">
        <ele>7.6</ele>
        <time>2020-09-27T10:33:27.000Z</time>
      </trkpt>
      <trkpt lat="47.33876" lon="-1.53106">
        <ele>7.6</ele>
        <time>2020-09-27T10:33:28.000Z</time>
      </trkpt>
      <trkpt lat="47.33877" lon="-1.53103">
        <ele>7.5</ele>
        <time>2020-09-27T10:33:29.000Z</time>
      </trkpt>
      <trkpt lat="47.33879" lon="-1.53099">
        <ele>7.5</ele>
        <time>2020-09-27T10:33:30.000Z</time>
      </trkpt>
      <trkpt lat="47.3388" lon="-1.53096">
        <ele>7.4</ele>
        <time>2020-09-27T10:33:31.000Z</time>
      </trkpt>
      <trkpt lat="47.33882" lon="-1.53093">
        <ele>7.4</ele>
        <time>2020-09-27T10:33:32.000Z</time>
      </trkpt>
      <trkpt lat="47.33883" lon="-1.53089">
        <ele>7.3</ele>
        <time>2020-09-27T10:33:33.000Z</time>
      </trkpt>
      <trkpt lat="47.33884" lon="-1.53086">
        <ele>7.3</ele>
        <time>2020-09-27T10:33:34.000Z</time>
      </trkpt>
      <trkpt lat="47.33886" lon="-1.53083">
        <ele>7.3</ele>
        <time>2020-09-27T10:33:35.000Z</time>
      </trkpt>
      <trkpt lat="47.33887" lon="-1.5308">
        <ele>7.2</ele>
        <time>2020-09-27T10:33:36.000Z</time>
      </trkpt>
      <trkpt lat="47.33889" lon="-1.53077">
        <ele>7.2</ele>
        <time>2020-09-27T10:33:37.000Z</time>
      </trkpt>
      <trkpt lat="47.3389" lon="-1.53073">
        <ele>7.2</ele>
        <time>2020-09-27T10:33:38.000Z</time>
      </trkpt>
      <trkpt lat="47.33891" lon="-1.5307">
        <ele>7.1</ele>
        <time>2020-09-27T10:33:39.000Z</time>
      </trkpt>
      <trkpt lat="47.33892" lon="-1.53067">
        <ele>7.1</ele>
        <time>2020-09-27T10:33:40.000Z</time>
      </trkpt>
      <trkpt lat="47.33894" lon="-1.53063">
        <ele>7</ele>
        <time>2020-09-27T10:33:41.000Z</time>
      </trkpt>
      <trkpt lat="47.33895" lon="-1.5306">
        <ele>7</ele>
        <time>2020-09-27T10:33:42.000Z</time>
      </trkpt>
      <trkpt lat="47.33897" lon="-1.53056">
        <ele>6.9</ele>
        <time>2020-09-27T10:33:43.000Z</time>
      </trkpt>
      <trkpt lat="47.33898" lon="-1.53051">
        <ele>6.9</ele>
        <time>2020-09-27T10:33:44.000Z</time>
      </trkpt>
      <trkpt lat="47.339" lon="-1.53046">
        <ele>6.8</ele>
        <time>2020-09-27T10:33:45.000Z</time>
      </trkpt>
      <trkpt lat="47.33902" lon="-1.5304">
        <ele>6.7</ele>
        <time>2020-09-27T10:33:46.000Z</time>
      </trkpt>
      <trkpt lat="47.33905" lon="-1.53034">
        <ele>6.6</ele>
        <time>2020-09-27T10:33:47.000Z</time>
      </trkpt>
      <trkpt lat="47.33907" lon="-1.53028">
        <ele>6.5</ele>
        <time>2020-09-27T10:33:48.000Z</time>
      </trkpt>
      <trkpt lat="47.33909" lon="-1.53022">
        <ele>6.4</ele>
        <time>2020-09-27T10:33:49.000Z</time>
      </trkpt>
      <trkpt lat="47.33912" lon="-1.53016">
        <ele>6.3</ele>
        <time>2020-09-27T10:33:50.000Z</time>
      </trkpt>
      <trkpt lat="47.33914" lon="-1.5301">
        <ele>6.2</ele>
        <time>2020-09-27T10:33:51.000Z</time>
      </trkpt>
      <trkpt lat="47.33916" lon="-1.53004">
        <ele>6.1</ele>
        <time>2020-09-27T10:33:52.000Z</time>
      </trkpt>
      <trkpt lat="47.33918" lon="-1.52998">
        <ele>6.1</ele>
        <time>2020-09-27T10:33:53.000Z</time>
      </trkpt>
      <trkpt lat="47.33921" lon="-1.52993">
        <ele>6.2</ele>
        <time>2020-09-27T10:33:54.000Z</time>
      </trkpt>
      <trkpt lat="47.33923" lon="-1.52987">
        <ele>6.4</ele>
        <time>2020-09-27T10:33:55.000Z</time>
      </trkpt>
      <trkpt lat="47.33925" lon="-1.52982">
        <ele>6.5</ele>
        <time>2020-09-27T10:33:56.000Z</time>
      </trkpt>
      <trkpt lat="47.33927" lon="-1.52976">
        <ele>6.6</ele>
        <time>2020-09-27T10:33:57.000Z</time>
      </trkpt>
      <trkpt lat="47.33929" lon="-1.52971">
        <ele>6.7</ele>
        <time>2020-09-27T10:33:58.000Z</time>
      </trkpt>
      <trkpt lat="47.33931" lon="-1.52966">
        <ele>6.8</ele>
        <time>2020-09-27T10:33:59.000Z</time>
      </trkpt>
      <trkpt lat="47.33933" lon="-1.52961">
        <ele>6.9</ele>
        <time>2020-09-27T10:34:00.000Z</time>
      </trkpt>
      <trkpt lat="47.33935" lon="-1.52957">
        <ele>7</ele>
        <time>2020-09-27T10:34:01.000Z</time>
      </trkpt>
      <trkpt lat="47.33937" lon="-1.52952">
        <ele>7.1</ele>
        <time>2020-09-27T10:34:02.000Z</time>
      </trkpt>
      <trkpt lat="47.33938" lon="-1.52948">
        <ele>7.1</ele>
        <time>2020-09-27T10:34:03.000Z</time>
      </trkpt>
      <trkpt lat="47.3394" lon="-1.52944">
        <ele>7.2</ele>
        <time>2020-09-27T10:34:04.000Z</time>
      </trkpt>
      <trkpt lat="47.33942" lon="-1.52939">
        <ele>7.3</ele>
        <time>2020-09-27T10:34:05.000Z</time>
      </trkpt>
      <trkpt lat="47.33943" lon="-1.52935">
        <ele>7.3</ele>
        <time>2020-09-27T10:34:06.000Z</time>
      </trkpt>
      <trkpt lat="47.33945" lon="-1.52931">
        <ele>7.4</ele>
        <time>2020-09-27T10:34:07.000Z</time>
      </trkpt>
      <trkpt lat="47.33946" lon="-1.52927">
        <ele>7.5</ele>
        <time>2020-09-27T10:34:08.000Z</time>
      </trkpt>
      <trkpt lat="47.33948" lon="-1.52923">
        <ele>7.5</ele>
        <time>2020-09-27T10:34:09.000Z</time>
      </trkpt>
      <trkpt lat="47.33949" lon="-1.52919">
        <ele>7.6</ele>
        <time>2020-09-27T10:34:10.000Z</time>
      </trkpt>
      <trkpt lat="47.33951" lon="-1.52914">
        <ele>7.6</ele>
        <time>2020-09-27T10:34:11.000Z</time>
      </trkpt>
      <trkpt lat="47.33952" lon="-1.5291">
        <ele>7.7</ele>
        <time>2020-09-27T10:34:12.000Z</time>
      </trkpt>
      <trkpt lat="47.33954" lon="-1.52906">
        <ele>7.8</ele>
        <time>2020-09-27T10:34:13.000Z</time>
      </trkpt>
      <trkpt lat="47.33955" lon="-1.52902">
        <ele>7.9</ele>
        <time>2020-09-27T10:34:14.000Z</time>
      </trkpt>
      <trkpt lat="47.33957" lon="-1.52898">
        <ele>7.9</ele>
        <time>2020-09-27T10:34:15.000Z</time>
      </trkpt>
      <trkpt lat="47.33958" lon="-1.52894">
        <ele>8</ele>
        <time>2020-09-27T10:34:16.000Z</time>
      </trkpt>
      <trkpt lat="47.3396" lon="-1.52891">
        <ele>8.1</ele>
        <time>2020-09-27T10:34:17.000Z</time>
      </trkpt>
      <trkpt lat="47.33961" lon="-1.52887">
        <ele>8.1</ele>
        <time>2020-09-27T10:34:18.000Z</time>
      </trkpt>
      <trkpt lat="47.33963" lon="-1.52884">
        <ele>8.2</ele>
        <time>2020-09-27T10:34:19.000Z</time>
      </trkpt>
      <trkpt lat="47.33964" lon="-1.52881">
        <ele>8.3</ele>
        <time>2020-09-27T10:34:20.000Z</time>
      </trkpt>
      <trkpt lat="47.33966" lon="-1.52878">
        <ele>8.3</ele>
        <time>2020-09-27T10:34:21.000Z</time>
      </trkpt>
      <trkpt lat="47.33967" lon="-1.52875">
        <ele>8.4</ele>
        <time>2020-09-27T10:34:22.000Z</time>
      </trkpt>
      <trkpt lat="47.33968" lon="-1.52872">
        <ele>8.5</ele>
        <time>2020-09-27T10:34:23.000Z</time>
      </trkpt>
      <trkpt lat="47.33969" lon="-1.52869">
        <ele>8.5</ele>
        <time>2020-09-27T10:34:24.000Z</time>
      </trkpt>
      <trkpt lat="47.3397" lon="-1.52867">
        <ele>8.6</ele>
        <time>2020-09-27T10:34:25.000Z</time>
      </trkpt>
      <trkpt lat="47.33971" lon="-1.52864">
        <ele>8.6</ele>
        <time>2020-09-27T10:34:26.000Z</time>
      </trkpt>
      <trkpt lat="47.33971" lon="-1.52862">
        <ele>8.6</ele>
        <time>2020-09-27T10:34:27.000Z</time>
      </trkpt>
      <trkpt lat="47.33971" lon="-1.5286">
        <ele>8.6</ele>
        <time>2020-09-27T10:34:28.000Z</time>
      </trkpt>
      <trkpt lat="47.3397" lon="-1.52858">
        <ele>8.6</ele>
        <time>2020-09-27T10:34:29.000Z</time>
      </trkpt>
      <trkpt lat="47.33969" lon="-1.52857">
        <ele>8.5</ele>
        <time>2020-09-27T10:34:30.000Z</time>
      </trkpt>
      <trkpt lat="47.33968" lon="-1.52855">
        <ele>8.5</ele>
        <time>2020-09-27T10:34:31.000Z</time>
      </trkpt>
      <trkpt lat="47.33966" lon="-1.52854">
        <ele>8.4</ele>
        <time>2020-09-27T10:34:32.000Z</time>
      </trkpt>
      <trkpt lat="47.33964" lon="-1.52852">
        <ele>8.3</ele>
        <time>2020-09-27T10:34:33.000Z</time>
      </trkpt>
      <trkpt lat="47.33961" lon="-1.5285">
        <ele>8.1</ele>
        <time>2020-09-27T10:34:34.000Z</time>
      </trkpt>
      <trkpt lat="47.33959" lon="-1.52848">
        <ele>8</ele>
        <time>2020-09-27T10:34:35.000Z</time>
      </trkpt>
      <trkpt lat="47.33955" lon="-1.52845">
        <ele>7.9</ele>
        <time>2020-09-27T10:34:36.000Z</time>
      </trkpt>
      <trkpt lat="47.33952" lon="-1.52843">
        <ele>7.7</ele>
        <time>2020-09-27T10:34:37.000Z</time>
      </trkpt>
      <trkpt lat="47.33948" lon="-1.5284">
        <ele>7.5</ele>
        <time>2020-09-27T10:34:38.000Z</time>
      </trkpt>
      <trkpt lat="47.33944" lon="-1.52837">
        <ele>7.3</ele>
        <time>2020-09-27T10:34:39.000Z</time>
      </trkpt>
      <trkpt lat="47.3394" lon="-1.52834">
        <ele>7.1</ele>
        <time>2020-09-27T10:34:40.000Z</time>
      </trkpt>
      <trkpt lat="47.33936" lon="-1.5283">
        <ele>6.9</ele>
        <time>2020-09-27T10:34:41.000Z</time>
      </trkpt>
      <trkpt lat="47.33932" lon="-1.52827">
        <ele>6.8</ele>
        <time>2020-09-27T10:34:42.000Z</time>
      </trkpt>
      <trkpt lat="47.33929" lon="-1.52824">
        <ele>6.6</ele>
        <time>2020-09-27T10:34:43.000Z</time>
      </trkpt>
      <trkpt lat="47.33925" lon="-1.52821">
        <ele>6.4</ele>
        <time>2020-09-27T10:34:44.000Z</time>
      </trkpt>
      <trkpt lat="47.33922" lon="-1.52819">
        <ele>6.2</ele>
        <time>2020-09-27T10:34:45.000Z</time>
      </trkpt>
      <trkpt lat="47.33919" lon="-1.52816">
        <ele>6.1</ele>
        <time>2020-09-27T10:34:46.000Z</time>
      </trkpt>
      <trkpt lat="47.33916" lon="-1.52814">
        <ele>6</ele>
        <time>2020-09-27T10:34:47.000Z</time>
      </trkpt>
      <trkpt lat="47.33914" lon="-1.52811">
        <ele>5.9</ele>
        <time>2020-09-27T10:34:48.000Z</time>
      </trkpt>
      <trkpt lat="47.33912" lon="-1.52808">
        <ele>5.8</ele>
        <time>2020-09-27T10:34:49.000Z</time>
      </trkpt>
      <trkpt lat="47.3391" lon="-1.52805">
        <ele>5.8</ele>
        <time>2020-09-27T10:34:50.000Z</time>
      </trkpt>
      <trkpt lat="47.33908" lon="-1.52802">
        <ele>5.7</ele>
        <time>2020-09-27T10:34:51.000Z</time>
      </trkpt>
      <trkpt lat="47.33907" lon="-1.52799">
        <ele>5.7</ele>
        <time>2020-09-27T10:34:52.000Z</time>
      </trkpt>
      <trkpt lat="47.33906" lon="-1.52796">
        <ele>5.7</ele>
        <time>2020-09-27T10:34:53.000Z</time>
      </trkpt>
      <trkpt lat="47.33905" lon="-1.52794">
        <ele>5.6</ele>
        <time>2020-09-27T10:34:54.000Z</time>
      </trkpt>
      <trkpt lat="47.33905" lon="-1.52792">
        <ele>5.6</ele>
        <time>2020-09-27T10:34:55.000Z</time>
      </trkpt>
      <trkpt lat="47.33904" lon="-1.52791">
        <ele>5.6</ele>
        <time>2020-09-27T10:34:56.000Z</time>
      </trkpt>
      <trkpt lat="47.33904" lon="-1.5279">
        <ele>5.6</ele>
        <time>2020-09-27T10:34:57.000Z</time>
      </trkpt>
      <trkpt lat="47.33904" lon="-1.5279">
        <ele>5.6</ele>
        <time>2020-09-27T10:34:58.000Z</time>
      </trkpt>
      <trkpt lat="47.33904" lon="-1.5279">
        <ele>5.6</ele>
        <time>2020-09-27T10:34:59.000Z</time>
      </trkpt>
      <trkpt lat="47.33904" lon="-1.5279">
        <ele>5.6</ele>
        <time>2020-09-27T10:35:00.000Z</time>
      </trkpt>
      <trkpt lat="47.33904" lon="-1.52789">
        <ele>5.6</ele>
        <time>2020-09-27T10:35:01.000Z</time>
      </trkpt>
      <trkpt lat="47.33904" lon="-1.52789">
        <ele>5.6</ele>
        <time>2020-09-27T10:35:02.000Z</time>
      </trkpt>
      <trkpt lat="47.33904" lon="-1.52789">
        <ele>5.6</ele>
        <time>2020-09-27T10:35:03.000Z</time>
      </trkpt>
      <trkpt lat="47.33904" lon="-1.52789">
        <ele>5.6</ele>
        <time>2020-09-27T10:35:04.000Z</time>
      </trkpt>
      <trkpt lat="47.33904" lon="-1.5279">
        <ele>5.6</ele>
        <time>2020-09-27T10:35:05.000Z</time>
      </trkpt>
      <trkpt lat="47.33904" lon="-1.5279">
        <ele>5.6</ele>
        <time>2020-09-27T10:35:06.000Z</time>
      </trkpt>
      <trkpt lat="47.33904" lon="-1.52789">
        <ele>5.6</ele>
        <time>2020-09-27T10:35:07.000Z</time>
      </trkpt>
      <trkpt lat="47.33904" lon="-1.52789">
        <ele>5.6</ele>
        <time>2020-09-27T10:35:08.000Z</time>
      </trkpt>
      <trkpt lat="47.33904" lon="-1.52789">
        <ele>5.6</ele>
        <time>2020-09-27T10:35:09.000Z</time>
      </trkpt>
      <trkpt lat="47.33904" lon="-1.52789">
        <ele>5.6</ele>
        <time>2020-09-27T10:35:10.000Z</time>
      </trkpt>
      <trkpt lat="47.33904" lon="-1.52789">
        <ele>5.6</ele>
        <time>2020-09-27T10:35:11.000Z</time>
      </trkpt>
      <trkpt lat="47.33904" lon="-1.52788">
        <ele>5.6</ele>
        <time>2020-09-27T10:35:12.000Z</time>
      </trkpt>
      <trkpt lat="47.33904" lon="-1.52788">
        <ele>5.6</ele>
        <time>2020-09-27T10:35:13.000Z</time>
      </trkpt>
      <trkpt lat="47.33905" lon="-1.52787">
        <ele>5.6</ele>
        <time>2020-09-27T10:35:14.000Z</time>
      </trkpt>
      <trkpt lat="47.33905" lon="-1.52787">
        <ele>5.6</ele>
        <time>2020-09-27T10:35:15.000Z</time>
      </trkpt>
      <trkpt lat="47.33905" lon="-1.52786">
        <ele>5.7</ele>
        <time>2020-09-27T10:35:16.000Z</time>
      </trkpt>
      <trkpt lat="47.33905" lon="-1.52786">
        <ele>5.7</ele>
        <time>2020-09-27T10:35:17.000Z</time>
      </trkpt>
      <trkpt lat="47.33905" lon="-1.52786">
        <ele>5.7</ele>
        <time>2020-09-27T10:35:18.000Z</time>
      </trkpt>
      <trkpt lat="47.33905" lon="-1.52786">
        <ele>5.7</ele>
        <time>2020-09-27T10:35:19.000Z</time>
      </trkpt>
      <trkpt lat="47.33905" lon="-1.52786">
        <ele>5.7</ele>
        <time>2020-09-27T10:35:20.000Z</time>
      </trkpt>
      <trkpt lat="47.33905" lon="-1.52786">
        <ele>5.7</ele>
        <time>2020-09-27T10:35:21.000Z</time>
      </trkpt>
      <trkpt lat="47.33905" lon="-1.52786">
        <ele>5.7</ele>
        <time>2020-09-27T10:35:22.000Z</time>
      </trkpt>
      <trkpt lat="47.33905" lon="-1.52786">
        <ele>5.7</ele>
        <time>2020-09-27T10:35:23.000Z</time>
      </trkpt>
      <trkpt lat="47.33905" lon="-1.52786">
        <ele>5.7</ele>
        <time>2020-09-27T10:35:24.000Z</time>
      </trkpt>
      <trkpt lat="47.33905" lon="-1.52786">
        <ele>5.7</ele>
        <time>2020-09-27T10:35:25.000Z</time>
      </trkpt>
      <trkpt lat="47.33905" lon="-1.52786">
        <ele>5.7</ele>
        <time>2020-09-27T10:35:26.000Z</time>
      </trkpt>
      <trkpt lat="47.33905" lon="-1.52786">
        <ele>5.7</ele>
        <time>2020-09-27T10:35:27.000Z</time>
      </trkpt>
      <trkpt lat="47.33905" lon="-1.52785">
        <ele>5.7</ele>
        <time>2020-09-27T10:35:28.000Z</time>
      </trkpt>
      <trkpt lat="47.33905" lon="-1.52785">
        <ele>5.7</ele>
        <time>2020-09-27T10:35:29.000Z</time>
      </trkpt>
      <trkpt lat="47.33905" lon="-1.52785">
        <ele>5.7</ele>
        <time>2020-09-27T10:35:30.000Z</time>
      </trkpt>
      <trkpt lat="47.33905" lon="-1.52784">
        <ele>5.7</ele>
        <time>2020-09-27T10:35:31.000Z</time>
      </trkpt>
      <trkpt lat="47.33906" lon="-1.52783">
        <ele>5.7</ele>
        <time>2020-09-27T10:35:32.000Z</time>
      </trkpt>
      <trkpt lat="47.33906" lon="-1.52781">
        <ele>5.7</ele>
        <time>2020-09-27T10:35:33.000Z</time>
      </trkpt>
      <trkpt lat="47.33906" lon="-1.5278">
        <ele>5.7</ele>
        <time>2020-09-27T10:35:34.000Z</time>
      </trkpt>
      <trkpt lat="47.33907" lon="-1.52778">
        <ele>5.7</ele>
        <time>2020-09-27T10:35:35.000Z</time>
      </trkpt>
      <trkpt lat="47.33907" lon="-1.52776">
        <ele>5.7</ele>
        <time>2020-09-27T10:35:36.000Z</time>
      </trkpt>
      <trkpt lat="47.33907" lon="-1.52774">
        <ele>5.7</ele>
        <time>2020-09-27T10:35:37.000Z</time>
      </trkpt>
      <trkpt lat="47.33907" lon="-1.52773">
        <ele>5.7</ele>
        <time>2020-09-27T10:35:38.000Z</time>
      </trkpt>
      <trkpt lat="47.33908" lon="-1.52772">
        <ele>5.8</ele>
        <time>2020-09-27T10:35:39.000Z</time>
      </trkpt>
      <trkpt lat="47.33908" lon="-1.52771">
        <ele>5.8</ele>
        <time>2020-09-27T10:35:40.000Z</time>
      </trkpt>
      <trkpt lat="47.33908" lon="-1.52771">
        <ele>5.8</ele>
        <time>2020-09-27T10:35:41.000Z</time>
      </trkpt>
      <trkpt lat="47.33909" lon="-1.52771">
        <ele>5.8</ele>
        <time>2020-09-27T10:35:42.000Z</time>
      </trkpt>
      <trkpt lat="47.33909" lon="-1.52771">
        <ele>5.8</ele>
        <time>2020-09-27T10:35:43.000Z</time>
      </trkpt>
      <trkpt lat="47.33909" lon="-1.52772">
        <ele>5.8</ele>
        <time>2020-09-27T10:35:44.000Z</time>
      </trkpt>
      <trkpt lat="47.33908" lon="-1.52772">
        <ele>5.8</ele>
        <time>2020-09-27T10:35:45.000Z</time>
      </trkpt>
      <trkpt lat="47.33908" lon="-1.52771">
        <ele>5.8</ele>
        <time>2020-09-27T10:35:46.000Z</time>
      </trkpt>
      <trkpt lat="47.33909" lon="-1.5277">
        <ele>5.8</ele>
        <time>2020-09-27T10:35:47.000Z</time>
      </trkpt>
      <trkpt lat="47.33909" lon="-1.52769">
        <ele>5.8</ele>
        <time>2020-09-27T10:35:48.000Z</time>
      </trkpt>
      <trkpt lat="47.3391" lon="-1.52767">
        <ele>5.8</ele>
        <time>2020-09-27T10:35:49.000Z</time>
      </trkpt>
      <trkpt lat="47.3391" lon="-1.52765">
        <ele>5.8</ele>
        <time>2020-09-27T10:35:50.000Z</time>
      </trkpt>
      <trkpt lat="47.33911" lon="-1.52763">
        <ele>5.9</ele>
        <time>2020-09-27T10:35:51.000Z</time>
      </trkpt>
      <trkpt lat="47.33912" lon="-1.52761">
        <ele>5.9</ele>
        <time>2020-09-27T10:35:52.000Z</time>
      </trkpt>
      <trkpt lat="47.33912" lon="-1.52759">
        <ele>5.9</ele>
        <time>2020-09-27T10:35:53.000Z</time>
      </trkpt>
      <trkpt lat="47.33913" lon="-1.52757">
        <ele>5.9</ele>
        <time>2020-09-27T10:35:54.000Z</time>
      </trkpt>
      <trkpt lat="47.33913" lon="-1.52755">
        <ele>5.9</ele>
        <time>2020-09-27T10:35:55.000Z</time>
      </trkpt>
      <trkpt lat="47.33913" lon="-1.52754">
        <ele>5.9</ele>
        <time>2020-09-27T10:35:56.000Z</time>
      </trkpt>
      <trkpt lat="47.33914" lon="-1.52752">
        <ele>5.9</ele>
        <time>2020-09-27T10:35:57.000Z</time>
      </trkpt>
      <trkpt lat="47.33914" lon="-1.52751">
        <ele>5.9</ele>
        <time>2020-09-27T10:35:58.000Z</time>
      </trkpt>
      <trkpt lat="47.33914" lon="-1.5275">
        <ele>5.9</ele>
        <time>2020-09-27T10:35:59.000Z</time>
      </trkpt>
      <trkpt lat="47.33915" lon="-1.52749">
        <ele>6</ele>
        <time>2020-09-27T10:36:00.000Z</time>
      </trkpt>
      <trkpt lat="47.33915" lon="-1.52748">
        <ele>6</ele>
        <time>2020-09-27T10:36:01.000Z</time>
      </trkpt>
      <trkpt lat="47.33915" lon="-1.52747">
        <ele>6</ele>
        <time>2020-09-27T10:36:02.000Z</time>
      </trkpt>
      <trkpt lat="47.33915" lon="-1.52747">
        <ele>6</ele>
        <time>2020-09-27T10:36:03.000Z</time>
      </trkpt>
      <trkpt lat="47.33915" lon="-1.52746">
        <ele>6</ele>
        <time>2020-09-27T10:36:04.000Z</time>
      </trkpt>
      <trkpt lat="47.33915" lon="-1.52746">
        <ele>6</ele>
        <time>2020-09-27T10:36:05.000Z</time>
      </trkpt>
      <trkpt lat="47.33915" lon="-1.52746">
        <ele>6</ele>
        <time>2020-09-27T10:36:06.000Z</time>
      </trkpt>
      <trkpt lat="47.33915" lon="-1.52746">
        <ele>6</ele>
        <time>2020-09-27T10:36:07.000Z</time>
      </trkpt>
      <trkpt lat="47.33915" lon="-1.52746">
        <ele>6</ele>
        <time>2020-09-27T10:36:08.000Z</time>
      </trkpt>
      <trkpt lat="47.33915" lon="-1.52746">
        <ele>6</ele>
        <time>2020-09-27T10:36:09.000Z</time>
      </trkpt>
      <trkpt lat="47.33915" lon="-1.52746">
        <ele>6</ele>
        <time>2020-09-27T10:36:10.000Z</time>
      </trkpt>
      <trkpt lat="47.33915" lon="-1.52746">
        <ele>6</ele>
        <time>2020-09-27T10:36:11.000Z</time>
      </trkpt>
      <trkpt lat="47.33915" lon="-1.52746">
        <ele>6</ele>
        <time>2020-09-27T10:36:12.000Z</time>
      </trkpt>
      <trkpt lat="47.33915" lon="-1.52746">
        <ele>6</ele>
        <time>2020-09-27T10:36:13.000Z</time>
      </trkpt>
      <trkpt lat="47.33914" lon="-1.52746">
        <ele>6</ele>
        <time>2020-09-27T10:36:14.000Z</time>
      </trkpt>
      <trkpt lat="47.33914" lon="-1.52746">
        <ele>6</ele>
        <time>2020-09-27T10:36:15.000Z</time>
      </trkpt>
      <trkpt lat="47.33913" lon="-1.52747">
        <ele>6</ele>
        <time>2020-09-27T10:36:16.000Z</time>
      </trkpt>
      <trkpt lat="47.33913" lon="-1.52747">
        <ele>5.9</ele>
        <time>2020-09-27T10:36:17.000Z</time>
      </trkpt>
      <trkpt lat="47.33912" lon="-1.52748">
        <ele>5.9</ele>
        <time>2020-09-27T10:36:18.000Z</time>
      </trkpt>
      <trkpt lat="47.33912" lon="-1.52749">
        <ele>5.9</ele>
        <time>2020-09-27T10:36:19.000Z</time>
      </trkpt>
      <trkpt lat="47.33912" lon="-1.5275">
        <ele>5.9</ele>
        <time>2020-09-27T10:36:20.000Z</time>
      </trkpt>
      <trkpt lat="47.33911" lon="-1.52751">
        <ele>5.9</ele>
        <time>2020-09-27T10:36:21.000Z</time>
      </trkpt>
      <trkpt lat="47.33911" lon="-1.52751">
        <ele>5.9</ele>
        <time>2020-09-27T10:36:22.000Z</time>
      </trkpt>
      <trkpt lat="47.33911" lon="-1.52752">
        <ele>5.9</ele>
        <time>2020-09-27T10:36:23.000Z</time>
      </trkpt>
      <trkpt lat="47.33911" lon="-1.52752">
        <ele>5.9</ele>
        <time>2020-09-27T10:36:24.000Z</time>
      </trkpt>
      <trkpt lat="47.33911" lon="-1.52753">
        <ele>5.9</ele>
        <time>2020-09-27T10:36:25.000Z</time>
      </trkpt>
      <trkpt lat="47.33911" lon="-1.52753">
        <ele>5.9</ele>
        <time>2020-09-27T10:36:26.000Z</time>
      </trkpt>
      <trkpt lat="47.33911" lon="-1.52753">
        <ele>5.9</ele>
        <time>2020-09-27T10:36:27.000Z</time>
      </trkpt>
      <trkpt lat="47.33911" lon="-1.52753">
        <ele>5.9</ele>
        <time>2020-09-27T10:36:28.000Z</time>
      </trkpt>
      <trkpt lat="47.33911" lon="-1.52753">
        <ele>5.9</ele>
        <time>2020-09-27T10:36:29.000Z</time>
      </trkpt>
      <trkpt lat="47.33911" lon="-1.52753">
        <ele>5.9</ele>
        <time>2020-09-27T10:36:30.000Z</time>
      </trkpt>
      <trkpt lat="47.33911" lon="-1.52753">
        <ele>5.9</ele>
        <time>2020-09-27T10:36:31.000Z</time>
      </trkpt>
      <trkpt lat="47.33911" lon="-1.52753">
        <ele>5.9</ele>
        <time>2020-09-27T10:36:32.000Z</time>
      </trkpt>
      <trkpt lat="47.33911" lon="-1.52753">
        <ele>5.9</ele>
        <time>2020-09-27T10:36:33.000Z</time>
      </trkpt>
      <trkpt lat="47.33911" lon="-1.52753">
        <ele>5.9</ele>
        <time>2020-09-27T10:36:34.000Z</time>
      </trkpt>
      <trkpt lat="47.33911" lon="-1.52753">
        <ele>5.9</ele>
        <time>2020-09-27T10:36:35.000Z</time>
      </trkpt>
      <trkpt lat="47.33911" lon="-1.52753">
        <ele>5.9</ele>
        <time>2020-09-27T10:36:36.000Z</time>
      </trkpt>
      <trkpt lat="47.33911" lon="-1.52753">
        <ele>5.9</ele>
        <time>2020-09-27T10:36:37.000Z</time>
      </trkpt>
      <trkpt lat="47.33911" lon="-1.52753">
        <ele>5.9</ele>
        <time>2020-09-27T10:36:38.000Z</time>
      </trkpt>
      <trkpt lat="47.33911" lon="-1.52753">
        <ele>5.9</ele>
        <time>2020-09-27T10:36:39.000Z</time>
      </trkpt>
      <trkpt lat="47.33911" lon="-1.52753">
        <ele>5.9</ele>
        <time>2020-09-27T10:36:40.000Z</time>
      </trkpt>
      <trkpt lat="47.33911" lon="-1.52753">
        <ele>5.9</ele>
        <time>2020-09-27T10:36:41.000Z</time>
      </trkpt>
      <trkpt lat="47.33911" lon="-1.52753">
        <ele>5.9</ele>
        <time>2020-09-27T10:36:42.000Z</time>
      </trkpt>
      <trkpt lat="47.33911" lon="-1.52753">
        <ele>5.9</ele>
        <time>2020-09-27T10:36:43.000Z</time>
      </trkpt>
      <trkpt lat="47.33911" lon="-1.52753">
        <ele>5.9</ele>
        <time>2020-09-27T10:36:44.000Z</time>
      </trkpt>
      <trkpt lat="47.33911" lon="-1.52753">
        <ele>5.9</ele>
        <time>2020-09-27T10:36:45.000Z</time>
      </trkpt>
      <trkpt lat="47.33911" lon="-1.52753">
        <ele>5.9</ele>
        <time>2020-09-27T10:36:46.000Z</time>
      </trkpt>
      <trkpt lat="47.33911" lon="-1.52753">
        <ele>5.9</ele>
        <time>2020-09-27T10:36:47.000Z</time>
      </trkpt>
      <trkpt lat="47.33911" lon="-1.52753">
        <ele>5.9</ele>
        <time>2020-09-27T10:36:48.000Z</time>
      </trkpt>
      <trkpt lat="47.33911" lon="-1.52753">
        <ele>5.9</ele>
        <time>2020-09-27T10:36:49.000Z</time>
      </trkpt>
      <trkpt lat="47.33911" lon="-1.52753">
        <ele>5.9</ele>
        <time>2020-09-27T10:36:50.000Z</time>
      </trkpt>
      <trkpt lat="47.33911" lon="-1.52754">
        <ele>5.9</ele>
        <time>2020-09-27T10:36:51.000Z</time>
      </trkpt>
      <trkpt lat="47.3391" lon="-1.52754">
        <ele>5.8</ele>
        <time>2020-09-27T10:36:52.000Z</time>
      </trkpt>
      <trkpt lat="47.3391" lon="-1.52756">
        <ele>5.8</ele>
        <time>2020-09-27T10:36:53.000Z</time>
      </trkpt>
      <trkpt lat="47.33909" lon="-1.52757">
        <ele>5.8</ele>
        <time>2020-09-27T10:36:54.000Z</time>
      </trkpt>
      <trkpt lat="47.33909" lon="-1.52759">
        <ele>5.8</ele>
        <time>2020-09-27T10:36:55.000Z</time>
      </trkpt>
      <trkpt lat="47.33909" lon="-1.5276">
        <ele>5.8</ele>
        <time>2020-09-27T10:36:56.000Z</time>
      </trkpt>
      <trkpt lat="47.33909" lon="-1.52761">
        <ele>5.8</ele>
        <time>2020-09-27T10:36:57.000Z</time>
      </trkpt>
      <trkpt lat="47.33908" lon="-1.52762">
        <ele>5.8</ele>
        <time>2020-09-27T10:36:58.000Z</time>
      </trkpt>
      <trkpt lat="47.33908" lon="-1.52763">
        <ele>5.8</ele>
        <time>2020-09-27T10:36:59.000Z</time>
      </trkpt>
      <trkpt lat="47.33908" lon="-1.52765">
        <ele>5.8</ele>
        <time>2020-09-27T10:37:00.000Z</time>
      </trkpt>
      <trkpt lat="47.33908" lon="-1.52766">
        <ele>5.8</ele>
        <time>2020-09-27T10:37:01.000Z</time>
      </trkpt>
      <trkpt lat="47.33908" lon="-1.52767">
        <ele>5.8</ele>
        <time>2020-09-27T10:37:02.000Z</time>
      </trkpt>
      <trkpt lat="47.33908" lon="-1.52769">
        <ele>5.8</ele>
        <time>2020-09-27T10:37:03.000Z</time>
      </trkpt>
      <trkpt lat="47.33908" lon="-1.5277">
        <ele>5.8</ele>
        <time>2020-09-27T10:37:04.000Z</time>
      </trkpt>
      <trkpt lat="47.33907" lon="-1.52771">
        <ele>5.7</ele>
        <time>2020-09-27T10:37:05.000Z</time>
      </trkpt>
      <trkpt lat="47.33907" lon="-1.52772">
        <ele>5.7</ele>
        <time>2020-09-27T10:37:06.000Z</time>
      </trkpt>
      <trkpt lat="47.33907" lon="-1.52774">
        <ele>5.7</ele>
        <time>2020-09-27T10:37:07.000Z</time>
      </trkpt>
      <trkpt lat="47.33906" lon="-1.52775">
        <ele>5.7</ele>
        <time>2020-09-27T10:37:08.000Z</time>
      </trkpt>
      <trkpt lat="47.33906" lon="-1.52776">
        <ele>5.7</ele>
        <time>2020-09-27T10:37:09.000Z</time>
      </trkpt>
      <trkpt lat="47.33906" lon="-1.52777">
        <ele>5.7</ele>
        <time>2020-09-27T10:37:10.000Z</time>
      </trkpt>
      <trkpt lat="47.33905" lon="-1.52778">
        <ele>5.7</ele>
        <time>2020-09-27T10:37:11.000Z</time>
      </trkpt>
      <trkpt lat="47.33905" lon="-1.52779">
        <ele>5.7</ele>
        <time>2020-09-27T10:37:12.000Z</time>
      </trkpt>
      <trkpt lat="47.33905" lon="-1.5278">
        <ele>5.7</ele>
        <time>2020-09-27T10:37:13.000Z</time>
      </trkpt>
      <trkpt lat="47.33904" lon="-1.52781">
        <ele>5.7</ele>
        <time>2020-09-27T10:37:14.000Z</time>
      </trkpt>
      <trkpt lat="47.33904" lon="-1.52782">
        <ele>5.6</ele>
        <time>2020-09-27T10:37:15.000Z</time>
      </trkpt>
      <trkpt lat="47.33904" lon="-1.52783">
        <ele>5.6</ele>
        <time>2020-09-27T10:37:16.000Z</time>
      </trkpt>
      <trkpt lat="47.33904" lon="-1.52784">
        <ele>5.6</ele>
        <time>2020-09-27T10:37:17.000Z</time>
      </trkpt>
      <trkpt lat="47.33904" lon="-1.52785">
        <ele>5.6</ele>
        <time>2020-09-27T10:37:18.000Z</time>
      </trkpt>
      <trkpt lat="47.33904" lon="-1.52786">
        <ele>5.6</ele>
        <time>2020-09-27T10:37:19.000Z</time>
      </trkpt>
      <trkpt lat="47.33905" lon="-1.52787">
        <ele>5.6</ele>
        <time>2020-09-27T10:37:20.000Z</time>
      </trkpt>
      <trkpt lat="47.33905" lon="-1.52787">
        <ele>5.6</ele>
        <time>2020-09-27T10:37:21.000Z</time>
      </trkpt>
      <trkpt lat="47.33905" lon="-1.52787">
        <ele>5.6</ele>
        <time>2020-09-27T10:37:22.000Z</time>
      </trkpt>
      <trkpt lat="47.33905" lon="-1.52788">
        <ele>5.6</ele>
        <time>2020-09-27T10:37:23.000Z</time>
      </trkpt>
      <trkpt lat="47.33905" lon="-1.52788">
        <ele>5.6</ele>
        <time>2020-09-27T10:37:24.000Z</time>
      </trkpt>
      <trkpt lat="47.33905" lon="-1.52788">
        <ele>5.6</ele>
        <time>2020-09-27T10:37:25.000Z</time>
      </trkpt>
      <trkpt lat="47.33905" lon="-1.52788">
        <ele>5.6</ele>
        <time>2020-09-27T10:37:26.000Z</time>
      </trkpt>
      <trkpt lat="47.33905" lon="-1.52788">
        <ele>5.6</ele>
        <time>2020-09-27T10:37:27.000Z</time>
      </trkpt>
      <trkpt lat="47.33905" lon="-1.52788">
        <ele>5.6</ele>
        <time>2020-09-27T10:37:28.000Z</time>
      </trkpt>
      <trkpt lat="47.33905" lon="-1.52788">
        <ele>5.6</ele>
        <time>2020-09-27T10:37:29.000Z</time>
      </trkpt>
      <trkpt lat="47.33905" lon="-1.52788">
        <ele>5.6</ele>
        <time>2020-09-27T10:37:30.000Z</time>
      </trkpt>
      <trkpt lat="47.33905" lon="-1.52788">
        <ele>5.6</ele>
        <time>2020-09-27T10:37:31.000Z</time>
      </trkpt>
      <trkpt lat="47.33905" lon="-1.52788">
        <ele>5.6</ele>
        <time>2020-09-27T10:37:32.000Z</time>
      </trkpt>
      <trkpt lat="47.33905" lon="-1.52788">
        <ele>5.6</ele>
        <time>2020-09-27T10:37:33.000Z</time>
      </trkpt>
      <trkpt lat="47.33905" lon="-1.52788">
        <ele>5.6</ele>
        <time>2020-09-27T10:37:34.000Z</time>
      </trkpt>
      <trkpt lat="47.33905" lon="-1.52788">
        <ele>5.6</ele>
        <time>2020-09-27T10:37:35.000Z</time>
      </trkpt>
      <trkpt lat="47.33905" lon="-1.52788">
        <ele>5.6</ele>
        <time>2020-09-27T10:37:36.000Z</time>
      </trkpt>
      <trkpt lat="47.33905" lon="-1.52788">
        <ele>5.6</ele>
        <time>2020-09-27T10:37:37.000Z</time>
      </trkpt>
      <trkpt lat="47.33905" lon="-1.52788">
        <ele>5.6</ele>
        <time>2020-09-27T10:37:38.000Z</time>
      </trkpt>
      <trkpt lat="47.33905" lon="-1.52788">
        <ele>5.6</ele>
        <time>2020-09-27T10:37:39.000Z</time>
      </trkpt>
      <trkpt lat="47.33905" lon="-1.52788">
        <ele>5.6</ele>
        <time>2020-09-27T10:37:40.000Z</time>
      </trkpt>
      <trkpt lat="47.33905" lon="-1.52788">
        <ele>5.6</ele>
        <time>2020-09-27T10:37:41.000Z</time>
      </trkpt>
      <trkpt lat="47.33905" lon="-1.52788">
        <ele>5.6</ele>
        <time>2020-09-27T10:37:42.000Z</time>
      </trkpt>
      <trkpt lat="47.33905" lon="-1.52788">
        <ele>5.6</ele>
        <time>2020-09-27T10:37:43.000Z</time>
      </trkpt>
      <trkpt lat="47.33905" lon="-1.52788">
        <ele>5.6</ele>
        <time>2020-09-27T10:37:44.000Z</time>
      </trkpt>
      <trkpt lat="47.33905" lon="-1.52788">
        <ele>5.6</ele>
        <time>2020-09-27T10:37:45.000Z</time>
      </trkpt>
      <trkpt lat="47.33905" lon="-1.52788">
        <ele>5.6</ele>
        <time>2020-09-27T10:37:46.000Z</time>
      </trkpt>
      <trkpt lat="47.33905" lon="-1.52788">
        <ele>5.6</ele>
        <time>2020-09-27T10:37:47.000Z</time>
      </trkpt>
      <trkpt lat="47.33905" lon="-1.52788">
        <ele>5.6</ele>
        <time>2020-09-27T10:37:48.000Z</time>
      </trkpt>
      <trkpt lat="47.33905" lon="-1.52788">
        <ele>5.6</ele>
        <time>2020-09-27T10:37:49.000Z</time>
      </trkpt>
      <trkpt lat="47.33905" lon="-1.52788">
        <ele>5.6</ele>
        <time>2020-09-27T10:37:50.000Z</time>
      </trkpt>
      <trkpt lat="47.33905" lon="-1.52788">
        <ele>5.6</ele>
        <time>2020-09-27T10:37:51.000Z</time>
      </trkpt>
      <trkpt lat="47.33905" lon="-1.52788">
        <ele>5.6</ele>
        <time>2020-09-27T10:37:52.000Z</time>
      </trkpt>
      <trkpt lat="47.33905" lon="-1.52788">
        <ele>5.6</ele>
        <time>2020-09-27T10:37:53.000Z</time>
      </trkpt>
      <trkpt lat="47.33905" lon="-1.52788">
        <ele>5.6</ele>
        <time>2020-09-27T10:37:54.000Z</time>
      </trkpt>
      <trkpt lat="47.33905" lon="-1.52788">
        <ele>5.6</ele>
        <time>2020-09-27T10:37:55.000Z</time>
      </trkpt>
      <trkpt lat="47.33905" lon="-1.52788">
        <ele>5.6</ele>
        <time>2020-09-27T10:37:56.000Z</time>
      </trkpt>
      <trkpt lat="47.33905" lon="-1.52788">
        <ele>5.6</ele>
        <time>2020-09-27T10:37:57.000Z</time>
      </trkpt>
      <trkpt lat="47.33905" lon="-1.52788">
        <ele>5.6</ele>
        <time>2020-09-27T10:37:58.000Z</time>
      </trkpt>
      <trkpt lat="47.33905" lon="-1.52788">
        <ele>5.6</ele>
        <time>2020-09-27T10:37:59.000Z</time>
      </trkpt>
      <trkpt lat="47.33905" lon="-1.52788">
        <ele>5.6</ele>
        <time>2020-09-27T10:38:00.000Z</time>
      </trkpt>
      <trkpt lat="47.33905" lon="-1.52788">
        <ele>5.6</ele>
        <time>2020-09-27T10:38:01.000Z</time>
      </trkpt>
      <trkpt lat="47.33905" lon="-1.52788">
        <ele>5.6</ele>
        <time>2020-09-27T10:38:02.000Z</time>
      </trkpt>
      <trkpt lat="47.33905" lon="-1.52788">
        <ele>5.6</ele>
        <time>2020-09-27T10:38:03.000Z</time>
      </trkpt>
      <trkpt lat="47.33905" lon="-1.52788">
        <ele>5.6</ele>
        <time>2020-09-27T10:38:04.000Z</time>
      </trkpt>
      <trkpt lat="47.33905" lon="-1.52788">
        <ele>5.6</ele>
        <time>2020-09-27T10:38:05.000Z</time>
      </trkpt>
      <trkpt lat="47.33905" lon="-1.52788">
        <ele>5.6</ele>
        <time>2020-09-27T10:38:06.000Z</time>
      </trkpt>
      <trkpt lat="47.33905" lon="-1.52788">
        <ele>5.6</ele>
        <time>2020-09-27T10:38:07.000Z</time>
      </trkpt>
      <trkpt lat="47.33905" lon="-1.52788">
        <ele>5.6</ele>
        <time>2020-09-27T10:38:08.000Z</time>
      </trkpt>
      <trkpt lat="47.33905" lon="-1.52788">
        <ele>5.6</ele>
        <time>2020-09-27T10:38:09.000Z</time>
      </trkpt>
      <trkpt lat="47.33905" lon="-1.52788">
        <ele>5.6</ele>
        <time>2020-09-27T10:38:10.000Z</time>
      </trkpt>
      <trkpt lat="47.33905" lon="-1.52788">
        <ele>5.6</ele>
        <time>2020-09-27T10:38:11.000Z</time>
      </trkpt>
      <trkpt lat="47.33905" lon="-1.52788">
        <ele>5.6</ele>
        <time>2020-09-27T10:38:12.000Z</time>
      </trkpt>
      <trkpt lat="47.33905" lon="-1.52788">
        <ele>5.6</ele>
        <time>2020-09-27T10:38:13.000Z</time>
      </trkpt>
      <trkpt lat="47.33905" lon="-1.52788">
        <ele>5.6</ele>
        <time>2020-09-27T10:38:14.000Z</time>
      </trkpt>
      <trkpt lat="47.33905" lon="-1.52788">
        <ele>5.6</ele>
        <time>2020-09-27T10:38:15.000Z</time>
      </trkpt>
      <trkpt lat="47.33905" lon="-1.52788">
        <ele>5.6</ele>
        <time>2020-09-27T10:38:16.000Z</time>
      </trkpt>
      <trkpt lat="47.33905" lon="-1.52788">
        <ele>5.6</ele>
        <time>2020-09-27T10:38:17.000Z</time>
      </trkpt>
      <trkpt lat="47.33905" lon="-1.52788">
        <ele>5.6</ele>
        <time>2020-09-27T10:38:18.000Z</time>
      </trkpt>
      <trkpt lat="47.33905" lon="-1.52788">
        <ele>5.6</ele>
        <time>2020-09-27T10:38:19.000Z</time>
      </trkpt>
      <trkpt lat="47.33905" lon="-1.52788">
        <ele>5.6</ele>
        <time>2020-09-27T10:38:20.000Z</time>
      </trkpt>
      <trkpt lat="47.33905" lon="-1.52788">
        <ele>5.6</ele>
        <time>2020-09-27T10:38:21.000Z</time>
      </trkpt>
      <trkpt lat="47.33905" lon="-1.52788">
        <ele>5.6</ele>
        <time>2020-09-27T10:38:22.000Z</time>
      </trkpt>
      <trkpt lat="47.33905" lon="-1.52788">
        <ele>5.6</ele>
        <time>2020-09-27T10:38:23.000Z</time>
      </trkpt>
      <trkpt lat="47.33905" lon="-1.52788">
        <ele>5.6</ele>
        <time>2020-09-27T10:38:24.000Z</time>
      </trkpt>
      <trkpt lat="47.33905" lon="-1.52788">
        <ele>5.6</ele>
        <time>2020-09-27T10:38:25.000Z</time>
      </trkpt>
      <trkpt lat="47.33905" lon="-1.52788">
        <ele>5.6</ele>
        <time>2020-09-27T10:38:26.000Z</time>
      </trkpt>
      <trkpt lat="47.33905" lon="-1.52788">
        <ele>5.6</ele>
        <time>2020-09-27T10:38:27.000Z</time>
      </trkpt>
      <trkpt lat="47.33905" lon="-1.52788">
        <ele>5.6</ele>
        <time>2020-09-27T10:38:28.000Z</time>
      </trkpt>
      <trkpt lat="47.33905" lon="-1.52788">
        <ele>5.6</ele>
        <time>2020-09-27T10:38:29.000Z</time>
      </trkpt>
      <trkpt lat="47.33905" lon="-1.52788">
        <ele>5.6</ele>
        <time>2020-09-27T10:38:30.000Z</time>
      </trkpt>
      <trkpt lat="47.33905" lon="-1.52788">
        <ele>5.6</ele>
        <time>2020-09-27T10:38:31.000Z</time>
      </trkpt>
      <trkpt lat="47.33905" lon="-1.52788">
        <ele>5.6</ele>
        <time>2020-09-27T10:38:32.000Z</time>
      </trkpt>
      <trkpt lat="47.33905" lon="-1.52788">
        <ele>5.6</ele>
        <time>2020-09-27T10:38:33.000Z</time>
      </trkpt>
      <trkpt lat="47.33905" lon="-1.52788">
        <ele>5.6</ele>
        <time>2020-09-27T10:38:34.000Z</time>
      </trkpt>
      <trkpt lat="47.33905" lon="-1.52788">
        <ele>5.6</ele>
        <time>2020-09-27T10:38:35.000Z</time>
      </trkpt>
      <trkpt lat="47.33905" lon="-1.52788">
        <ele>5.6</ele>
        <time>2020-09-27T10:38:36.000Z</time>
      </trkpt>
      <trkpt lat="47.33905" lon="-1.52788">
        <ele>5.6</ele>
        <time>2020-09-27T10:38:37.000Z</time>
      </trkpt>
      <trkpt lat="47.33905" lon="-1.52788">
        <ele>5.6</ele>
        <time>2020-09-27T10:38:38.000Z</time>
      </trkpt>
      <trkpt lat="47.33905" lon="-1.52788">
        <ele>5.6</ele>
        <time>2020-09-27T10:38:39.000Z</time>
      </trkpt>
      <trkpt lat="47.33905" lon="-1.52788">
        <ele>5.6</ele>
        <time>2020-09-27T10:38:40.000Z</time>
      </trkpt>
      <trkpt lat="47.33905" lon="-1.52788">
        <ele>5.6</ele>
        <time>2020-09-27T10:38:41.000Z</time>
      </trkpt>
      <trkpt lat="47.33905" lon="-1.52788">
        <ele>5.6</ele>
        <time>2020-09-27T10:38:42.000Z</time>
      </trkpt>
      <trkpt lat="47.33905" lon="-1.52788">
        <ele>5.6</ele>
        <time>2020-09-27T10:38:43.000Z</time>
      </trkpt>
      <trkpt lat="47.33905" lon="-1.52788">
        <ele>5.6</ele>
        <time>2020-09-27T10:38:44.000Z</time>
      </trkpt>
      <trkpt lat="47.33905" lon="-1.52788">
        <ele>5.6</ele>
        <time>2020-09-27T10:38:45.000Z</time>
      </trkpt>
      <trkpt lat="47.33905" lon="-1.52788">
        <ele>5.6</ele>
        <time>2020-09-27T10:38:46.000Z</time>
      </trkpt>
      <trkpt lat="47.33905" lon="-1.52788">
        <ele>5.6</ele>
        <time>2020-09-27T10:38:47.000Z</time>
      </trkpt>
      <trkpt lat="47.33905" lon="-1.52788">
        <ele>5.6</ele>
        <time>2020-09-27T10:38:48.000Z</time>
      </trkpt>
      <trkpt lat="47.33905" lon="-1.52788">
        <ele>5.6</ele>
        <time>2020-09-27T10:38:49.000Z</time>
      </trkpt>
      <trkpt lat="47.33905" lon="-1.52788">
        <ele>5.6</ele>
        <time>2020-09-27T10:38:50.000Z</time>
      </trkpt>
      <trkpt lat="47.33905" lon="-1.52788">
        <ele>5.6</ele>
        <time>2020-09-27T10:38:51.000Z</time>
      </trkpt>
      <trkpt lat="47.33905" lon="-1.52788">
        <ele>5.6</ele>
        <time>2020-09-27T10:38:52.000Z</time>
      </trkpt>
      <trkpt lat="47.33905" lon="-1.52788">
        <ele>5.6</ele>
        <time>2020-09-27T10:38:53.000Z</time>
      </trkpt>
      <trkpt lat="47.33905" lon="-1.52788">
        <ele>5.6</ele>
        <time>2020-09-27T10:38:54.000Z</time>
      </trkpt>
      <trkpt lat="47.33905" lon="-1.52788">
        <ele>5.6</ele>
        <time>2020-09-27T10:38:55.000Z</time>
      </trkpt>
      <trkpt lat="47.33905" lon="-1.52788">
        <ele>5.6</ele>
        <time>2020-09-27T10:38:56.000Z</time>
      </trkpt>
      <trkpt lat="47.33905" lon="-1.52788">
        <ele>5.6</ele>
        <time>2020-09-27T10:38:57.000Z</time>
      </trkpt>
      <trkpt lat="47.33905" lon="-1.52788">
        <ele>5.6</ele>
        <time>2020-09-27T10:38:58.000Z</time>
      </trkpt>
      <trkpt lat="47.33905" lon="-1.52788">
        <ele>5.6</ele>
        <time>2020-09-27T10:38:59.000Z</time>
      </trkpt>
      <trkpt lat="47.33905" lon="-1.52788">
        <ele>5.6</ele>
        <time>2020-09-27T10:39:00.000Z</time>
      </trkpt>
      <trkpt lat="47.33905" lon="-1.52788">
        <ele>5.6</ele>
        <time>2020-09-27T10:39:01.000Z</time>
      </trkpt>
      <trkpt lat="47.33905" lon="-1.52788">
        <ele>5.6</ele>
        <time>2020-09-27T10:39:02.000Z</time>
      </trkpt>
      <trkpt lat="47.33905" lon="-1.52788">
        <ele>5.6</ele>
        <time>2020-09-27T10:39:03.000Z</time>
      </trkpt>
      <trkpt lat="47.33905" lon="-1.52788">
        <ele>5.6</ele>
        <time>2020-09-27T10:39:04.000Z</time>
      </trkpt>
      <trkpt lat="47.33905" lon="-1.52788">
        <ele>5.6</ele>
        <time>2020-09-27T10:39:05.000Z</time>
      </trkpt>
      <trkpt lat="47.33905" lon="-1.52788">
        <ele>5.6</ele>
        <time>2020-09-27T10:39:06.000Z</time>
      </trkpt>
      <trkpt lat="47.33905" lon="-1.52788">
        <ele>5.6</ele>
        <time>2020-09-27T10:39:07.000Z</time>
      </trkpt>
      <trkpt lat="47.33905" lon="-1.52788">
        <ele>5.6</ele>
        <time>2020-09-27T10:39:08.000Z</time>
      </trkpt>
      <trkpt lat="47.33905" lon="-1.52788">
        <ele>5.6</ele>
        <time>2020-09-27T10:39:09.000Z</time>
      </trkpt>
      <trkpt lat="47.33905" lon="-1.52788">
        <ele>5.6</ele>
        <time>2020-09-27T10:39:10.000Z</time>
      </trkpt>
      <trkpt lat="47.33905" lon="-1.52788">
        <ele>5.6</ele>
        <time>2020-09-27T10:39:11.000Z</time>
      </trkpt>
      <trkpt lat="47.33905" lon="-1.52788">
        <ele>5.6</ele>
        <time>2020-09-27T10:39:12.000Z</time>
      </trkpt>
      <trkpt lat="47.33905" lon="-1.52788">
        <ele>5.6</ele>
        <time>2020-09-27T10:39:13.000Z</time>
      </trkpt>
      <trkpt lat="47.33905" lon="-1.52788">
        <ele>5.6</ele>
        <time>2020-09-27T10:39:14.000Z</time>
      </trkpt>
      <trkpt lat="47.33905" lon="-1.52788">
        <ele>5.6</ele>
        <time>2020-09-27T10:39:15.000Z</time>
      </trkpt>
      <trkpt lat="47.33905" lon="-1.52788">
        <ele>5.6</ele>
        <time>2020-09-27T10:39:16.000Z</time>
      </trkpt>
      <trkpt lat="47.33905" lon="-1.52788">
        <ele>5.6</ele>
        <time>2020-09-27T10:39:17.000Z</time>
      </trkpt>
      <trkpt lat="47.33905" lon="-1.52788">
        <ele>5.6</ele>
        <time>2020-09-27T10:39:18.000Z</time>
      </trkpt>
      <trkpt lat="47.33905" lon="-1.52788">
        <ele>5.6</ele>
        <time>2020-09-27T10:39:19.000Z</time>
      </trkpt>
      <trkpt lat="47.33905" lon="-1.52788">
        <ele>5.6</ele>
        <time>2020-09-27T10:39:20.000Z</time>
      </trkpt>
      <trkpt lat="47.33905" lon="-1.52788">
        <ele>5.6</ele>
        <time>2020-09-27T10:39:21.000Z</time>
      </trkpt>
      <trkpt lat="47.33905" lon="-1.52788">
        <ele>5.6</ele>
        <time>2020-09-27T10:39:22.000Z</time>
      </trkpt>
      <trkpt lat="47.33905" lon="-1.52788">
        <ele>5.6</ele>
        <time>2020-09-27T10:39:23.000Z</time>
      </trkpt>
      <trkpt lat="47.33905" lon="-1.52788">
        <ele>5.6</ele>
        <time>2020-09-27T10:39:24.000Z</time>
      </trkpt>
      <trkpt lat="47.33905" lon="-1.52788">
        <ele>5.6</ele>
        <time>2020-09-27T10:39:25.000Z</time>
      </trkpt>
      <trkpt lat="47.33905" lon="-1.52788">
        <ele>5.6</ele>
        <time>2020-09-27T10:39:26.000Z</time>
      </trkpt>
      <trkpt lat="47.33905" lon="-1.52788">
        <ele>5.6</ele>
        <time>2020-09-27T10:39:27.000Z</time>
      </trkpt>
      <trkpt lat="47.33905" lon="-1.52788">
        <ele>5.6</ele>
        <time>2020-09-27T10:39:28.000Z</time>
      </trkpt>
      <trkpt lat="47.33905" lon="-1.52788">
        <ele>5.6</ele>
        <time>2020-09-27T10:39:29.000Z</time>
      </trkpt>
      <trkpt lat="47.33905" lon="-1.52788">
        <ele>5.6</ele>
        <time>2020-09-27T10:39:30.000Z</time>
      </trkpt>
      <trkpt lat="47.33905" lon="-1.52788">
        <ele>5.6</ele>
        <time>2020-09-27T10:39:31.000Z</time>
      </trkpt>
      <trkpt lat="47.33905" lon="-1.52788">
        <ele>5.6</ele>
        <time>2020-09-27T10:39:32.000Z</time>
      </trkpt>
      <trkpt lat="47.33905" lon="-1.52788">
        <ele>5.6</ele>
        <time>2020-09-27T10:39:33.000Z</time>
      </trkpt>
      <trkpt lat="47.33905" lon="-1.52788">
        <ele>5.6</ele>
        <time>2020-09-27T10:39:34.000Z</time>
      </trkpt>
      <trkpt lat="47.33905" lon="-1.52788">
        <ele>5.6</ele>
        <time>2020-09-27T10:39:35.000Z</time>
      </trkpt>
      <trkpt lat="47.33905" lon="-1.52788">
        <ele>5.6</ele>
        <time>2020-09-27T10:39:36.000Z</time>
      </trkpt>
      <trkpt lat="47.33905" lon="-1.52788">
        <ele>5.6</ele>
        <time>2020-09-27T10:39:37.000Z</time>
      </trkpt>
      <trkpt lat="47.33905" lon="-1.52788">
        <ele>5.6</ele>
        <time>2020-09-27T10:39:38.000Z</time>
      </trkpt>
      <trkpt lat="47.33905" lon="-1.52788">
        <ele>5.6</ele>
        <time>2020-09-27T10:39:39.000Z</time>
      </trkpt>
      <trkpt lat="47.33905" lon="-1.52788">
        <ele>5.6</ele>
        <time>2020-09-27T10:39:40.000Z</time>
      </trkpt>
      <trkpt lat="47.33905" lon="-1.52788">
        <ele>5.6</ele>
        <time>2020-09-27T10:39:41.000Z</time>
      </trkpt>
      <trkpt lat="47.33905" lon="-1.52788">
        <ele>5.6</ele>
        <time>2020-09-27T10:39:42.000Z</time>
      </trkpt>
      <trkpt lat="47.33905" lon="-1.52788">
        <ele>5.6</ele>
        <time>2020-09-27T10:39:43.000Z</time>
      </trkpt>
      <trkpt lat="47.33905" lon="-1.52788">
        <ele>5.6</ele>
        <time>2020-09-27T10:39:44.000Z</time>
      </trkpt>
      <trkpt lat="47.33905" lon="-1.52788">
        <ele>5.6</ele>
        <time>2020-09-27T10:39:45.000Z</time>
      </trkpt>
      <trkpt lat="47.33905" lon="-1.52788">
        <ele>5.6</ele>
        <time>2020-09-27T10:39:46.000Z</time>
      </trkpt>
      <trkpt lat="47.33905" lon="-1.52788">
        <ele>5.6</ele>
        <time>2020-09-27T10:39:47.000Z</time>
      </trkpt>
      <trkpt lat="47.33905" lon="-1.52788">
        <ele>5.6</ele>
        <time>2020-09-27T10:39:48.000Z</time>
      </trkpt>
      <trkpt lat="47.33905" lon="-1.52788">
        <ele>5.6</ele>
        <time>2020-09-27T10:39:49.000Z</time>
      </trkpt>
      <trkpt lat="47.33905" lon="-1.52788">
        <ele>5.6</ele>
        <time>2020-09-27T10:39:50.000Z</time>
      </trkpt>
      <trkpt lat="47.33905" lon="-1.52788">
        <ele>5.6</ele>
        <time>2020-09-27T10:39:51.000Z</time>
      </trkpt>
      <trkpt lat="47.33905" lon="-1.52788">
        <ele>5.6</ele>
        <time>2020-09-27T10:39:52.000Z</time>
      </trkpt>
      <trkpt lat="47.33905" lon="-1.52788">
        <ele>5.6</ele>
        <time>2020-09-27T10:39:53.000Z</time>
      </trkpt>
      <trkpt lat="47.33905" lon="-1.52788">
        <ele>5.6</ele>
        <time>2020-09-27T10:39:54.000Z</time>
      </trkpt>
      <trkpt lat="47.33905" lon="-1.52788">
        <ele>5.6</ele>
        <time>2020-09-27T10:39:55.000Z</time>
      </trkpt>
      <trkpt lat="47.33905" lon="-1.52788">
        <ele>5.6</ele>
        <time>2020-09-27T10:39:56.000Z</time>
      </trkpt>
      <trkpt lat="47.33905" lon="-1.52788">
        <ele>5.6</ele>
        <time>2020-09-27T10:39:57.000Z</time>
      </trkpt>
      <trkpt lat="47.33905" lon="-1.52788">
        <ele>5.6</ele>
        <time>2020-09-27T10:39:58.000Z</time>
      </trkpt>
      <trkpt lat="47.33905" lon="-1.52788">
        <ele>5.6</ele>
        <time>2020-09-27T10:39:59.000Z</time>
      </trkpt>
      <trkpt lat="47.33905" lon="-1.52788">
        <ele>5.6</ele>
        <time>2020-09-27T10:40:00.000Z</time>
      </trkpt>
      <trkpt lat="47.33905" lon="-1.52788">
        <ele>5.6</ele>
        <time>2020-09-27T10:40:01.000Z</time>
      </trkpt>
      <trkpt lat="47.33905" lon="-1.52788">
        <ele>5.6</ele>
        <time>2020-09-27T10:40:02.000Z</time>
      </trkpt>
      <trkpt lat="47.33905" lon="-1.52788">
        <ele>5.6</ele>
        <time>2020-09-27T10:40:03.000Z</time>
      </trkpt>
      <trkpt lat="47.33905" lon="-1.52788">
        <ele>5.6</ele>
        <time>2020-09-27T10:40:04.000Z</time>
      </trkpt>
      <trkpt lat="47.33905" lon="-1.52788">
        <ele>5.6</ele>
        <time>2020-09-27T10:40:05.000Z</time>
      </trkpt>
      <trkpt lat="47.33905" lon="-1.52788">
        <ele>5.6</ele>
        <time>2020-09-27T10:40:06.000Z</time>
      </trkpt>
      <trkpt lat="47.33905" lon="-1.52788">
        <ele>5.6</ele>
        <time>2020-09-27T10:40:07.000Z</time>
      </trkpt>
      <trkpt lat="47.33905" lon="-1.52788">
        <ele>5.6</ele>
        <time>2020-09-27T10:40:08.000Z</time>
      </trkpt>
      <trkpt lat="47.33905" lon="-1.52788">
        <ele>5.6</ele>
        <time>2020-09-27T10:40:09.000Z</time>
      </trkpt>
      <trkpt lat="47.33905" lon="-1.52788">
        <ele>5.6</ele>
        <time>2020-09-27T10:40:10.000Z</time>
      </trkpt>
      <trkpt lat="47.33905" lon="-1.52788">
        <ele>5.6</ele>
        <time>2020-09-27T10:40:11.000Z</time>
      </trkpt>
      <trkpt lat="47.33905" lon="-1.52788">
        <ele>5.6</ele>
        <time>2020-09-27T10:40:12.000Z</time>
      </trkpt>
      <trkpt lat="47.33905" lon="-1.52788">
        <ele>5.6</ele>
        <time>2020-09-27T10:40:13.000Z</time>
      </trkpt>
      <trkpt lat="47.33905" lon="-1.52788">
        <ele>5.6</ele>
        <time>2020-09-27T10:40:14.000Z</time>
      </trkpt>
      <trkpt lat="47.33905" lon="-1.52788">
        <ele>5.6</ele>
        <time>2020-09-27T10:40:15.000Z</time>
      </trkpt>
      <trkpt lat="47.33905" lon="-1.52788">
        <ele>5.6</ele>
        <time>2020-09-27T10:40:16.000Z</time>
      </trkpt>
      <trkpt lat="47.33905" lon="-1.52788">
        <ele>5.6</ele>
        <time>2020-09-27T10:40:17.000Z</time>
      </trkpt>
      <trkpt lat="47.33905" lon="-1.52788">
        <ele>5.6</ele>
        <time>2020-09-27T10:40:18.000Z</time>
      </trkpt>
      <trkpt lat="47.33905" lon="-1.52788">
        <ele>5.6</ele>
        <time>2020-09-27T10:40:19.000Z</time>
      </trkpt>
      <trkpt lat="47.33905" lon="-1.52788">
        <ele>5.6</ele>
        <time>2020-09-27T10:40:20.000Z</time>
      </trkpt>
      <trkpt lat="47.33905" lon="-1.52788">
        <ele>5.6</ele>
        <time>2020-09-27T10:40:21.000Z</time>
      </trkpt>
      <trkpt lat="47.33905" lon="-1.52787">
        <ele>5.7</ele>
        <time>2020-09-27T10:40:22.000Z</time>
      </trkpt>
      <trkpt lat="47.33905" lon="-1.52786">
        <ele>5.7</ele>
        <time>2020-09-27T10:40:23.000Z</time>
      </trkpt>
      <trkpt lat="47.33906" lon="-1.52784">
        <ele>5.7</ele>
        <time>2020-09-27T10:40:24.000Z</time>
      </trkpt>
      <trkpt lat="47.33907" lon="-1.52783">
        <ele>5.7</ele>
        <time>2020-09-27T10:40:25.000Z</time>
      </trkpt>
      <trkpt lat="47.33907" lon="-1.52781">
        <ele>5.7</ele>
        <time>2020-09-27T10:40:26.000Z</time>
      </trkpt>
      <trkpt lat="47.33908" lon="-1.52778">
        <ele>5.7</ele>
        <time>2020-09-27T10:40:27.000Z</time>
      </trkpt>
      <trkpt lat="47.33908" lon="-1.52775">
        <ele>5.8</ele>
        <time>2020-09-27T10:40:28.000Z</time>
      </trkpt>
      <trkpt lat="47.33908" lon="-1.52772">
        <ele>5.8</ele>
        <time>2020-09-27T10:40:29.000Z</time>
      </trkpt>
      <trkpt lat="47.33908" lon="-1.52768">
        <ele>5.8</ele>
        <time>2020-09-27T10:40:30.000Z</time>
      </trkpt>
      <trkpt lat="47.33909" lon="-1.52764">
        <ele>5.8</ele>
        <time>2020-09-27T10:40:31.000Z</time>
      </trkpt>
      <trkpt lat="47.33909" lon="-1.52761">
        <ele>5.8</ele>
        <time>2020-09-27T10:40:32.000Z</time>
      </trkpt>
      <trkpt lat="47.3391" lon="-1.52757">
        <ele>5.8</ele>
        <time>2020-09-27T10:40:33.000Z</time>
      </trkpt>
      <trkpt lat="47.33911" lon="-1.52754">
        <ele>5.9</ele>
        <time>2020-09-27T10:40:34.000Z</time>
      </trkpt>
      <trkpt lat="47.33912" lon="-1.5275">
        <ele>5.9</ele>
        <time>2020-09-27T10:40:35.000Z</time>
      </trkpt>
      <trkpt lat="47.33913" lon="-1.52747">
        <ele>5.9</ele>
        <time>2020-09-27T10:40:36.000Z</time>
      </trkpt>
      <trkpt lat="47.33914" lon="-1.52743">
        <ele>6</ele>
        <time>2020-09-27T10:40:37.000Z</time>
      </trkpt>
      <trkpt lat="47.33915" lon="-1.52739">
        <ele>6.1</ele>
        <time>2020-09-27T10:40:38.000Z</time>
      </trkpt>
      <trkpt lat="47.33916" lon="-1.52736">
        <ele>6.1</ele>
        <time>2020-09-27T10:40:39.000Z</time>
      </trkpt>
      <trkpt lat="47.33917" lon="-1.52732">
        <ele>6.2</ele>
        <time>2020-09-27T10:40:40.000Z</time>
      </trkpt>
      <trkpt lat="47.33918" lon="-1.52728">
        <ele>6.3</ele>
        <time>2020-09-27T10:40:41.000Z</time>
      </trkpt>
      <trkpt lat="47.33918" lon="-1.52723">
        <ele>6.4</ele>
        <time>2020-09-27T10:40:42.000Z</time>
      </trkpt>
      <trkpt lat="47.33919" lon="-1.52719">
        <ele>6.5</ele>
        <time>2020-09-27T10:40:43.000Z</time>
      </trkpt>
      <trkpt lat="47.33919" lon="-1.52714">
        <ele>6.5</ele>
        <time>2020-09-27T10:40:44.000Z</time>
      </trkpt>
      <trkpt lat="47.33919" lon="-1.5271">
        <ele>6.6</ele>
        <time>2020-09-27T10:40:45.000Z</time>
      </trkpt>
      <trkpt lat="47.33919" lon="-1.52705">
        <ele>6.7</ele>
        <time>2020-09-27T10:40:46.000Z</time>
      </trkpt>
      <trkpt lat="47.3392" lon="-1.52701">
        <ele>6.7</ele>
        <time>2020-09-27T10:40:47.000Z</time>
      </trkpt>
      <trkpt lat="47.3392" lon="-1.52696">
        <ele>6.8</ele>
        <time>2020-09-27T10:40:48.000Z</time>
      </trkpt>
      <trkpt lat="47.33921" lon="-1.52692">
        <ele>6.9</ele>
        <time>2020-09-27T10:40:49.000Z</time>
      </trkpt>
      <trkpt lat="47.33922" lon="-1.52687">
        <ele>7</ele>
        <time>2020-09-27T10:40:50.000Z</time>
      </trkpt>
      <trkpt lat="47.33923" lon="-1.52683">
        <ele>7</ele>
        <time>2020-09-27T10:40:51.000Z</time>
      </trkpt>
      <trkpt lat="47.33924" lon="-1.52679">
        <ele>7.1</ele>
        <time>2020-09-27T10:40:52.000Z</time>
      </trkpt>
      <trkpt lat="47.33924" lon="-1.52674">
        <ele>7.2</ele>
        <time>2020-09-27T10:40:53.000Z</time>
      </trkpt>
      <trkpt lat="47.33925" lon="-1.5267">
        <ele>7.2</ele>
        <time>2020-09-27T10:40:54.000Z</time>
      </trkpt>
      <trkpt lat="47.33925" lon="-1.52666">
        <ele>7.3</ele>
        <time>2020-09-27T10:40:55.000Z</time>
      </trkpt>
      <trkpt lat="47.33925" lon="-1.52661">
        <ele>7.2</ele>
        <time>2020-09-27T10:40:56.000Z</time>
      </trkpt>
      <trkpt lat="47.33925" lon="-1.52657">
        <ele>7.2</ele>
        <time>2020-09-27T10:40:57.000Z</time>
      </trkpt>
      <trkpt lat="47.33924" lon="-1.52653">
        <ele>7.1</ele>
        <time>2020-09-27T10:40:58.000Z</time>
      </trkpt>
      <trkpt lat="47.33925" lon="-1.52648">
        <ele>7.1</ele>
        <time>2020-09-27T10:40:59.000Z</time>
      </trkpt>
      <trkpt lat="47.33925" lon="-1.52644">
        <ele>7.1</ele>
        <time>2020-09-27T10:41:00.000Z</time>
      </trkpt>
      <trkpt lat="47.33925" lon="-1.52641">
        <ele>7.1</ele>
        <time>2020-09-27T10:41:01.000Z</time>
      </trkpt>
      <trkpt lat="47.33926" lon="-1.52637">
        <ele>7.1</ele>
        <time>2020-09-27T10:41:02.000Z</time>
      </trkpt>
      <trkpt lat="47.33927" lon="-1.52634">
        <ele>7.1</ele>
        <time>2020-09-27T10:41:03.000Z</time>
      </trkpt>
      <trkpt lat="47.33927" lon="-1.5263">
        <ele>7.1</ele>
        <time>2020-09-27T10:41:04.000Z</time>
      </trkpt>
      <trkpt lat="47.33928" lon="-1.52627">
        <ele>7.1</ele>
        <time>2020-09-27T10:41:05.000Z</time>
      </trkpt>
      <trkpt lat="47.33928" lon="-1.52625">
        <ele>7.1</ele>
        <time>2020-09-27T10:41:06.000Z</time>
      </trkpt>
      <trkpt lat="47.33929" lon="-1.52622">
        <ele>7</ele>
        <time>2020-09-27T10:41:07.000Z</time>
      </trkpt>
      <trkpt lat="47.33929" lon="-1.52619">
        <ele>7</ele>
        <time>2020-09-27T10:41:08.000Z</time>
      </trkpt>
      <trkpt lat="47.33929" lon="-1.52616">
        <ele>7</ele>
        <time>2020-09-27T10:41:09.000Z</time>
      </trkpt>
      <trkpt lat="47.33929" lon="-1.52613">
        <ele>7</ele>
        <time>2020-09-27T10:41:10.000Z</time>
      </trkpt>
      <trkpt lat="47.33928" lon="-1.5261">
        <ele>6.9</ele>
        <time>2020-09-27T10:41:11.000Z</time>
      </trkpt>
      <trkpt lat="47.33927" lon="-1.52607">
        <ele>6.8</ele>
        <time>2020-09-27T10:41:12.000Z</time>
      </trkpt>
      <trkpt lat="47.33925" lon="-1.52605">
        <ele>6.7</ele>
        <time>2020-09-27T10:41:13.000Z</time>
      </trkpt>
      <trkpt lat="47.33923" lon="-1.52603">
        <ele>6.6</ele>
        <time>2020-09-27T10:41:14.000Z</time>
      </trkpt>
      <trkpt lat="47.3392" lon="-1.52602">
        <ele>6.4</ele>
        <time>2020-09-27T10:41:15.000Z</time>
      </trkpt>
      <trkpt lat="47.33917" lon="-1.52601">
        <ele>6.2</ele>
        <time>2020-09-27T10:41:16.000Z</time>
      </trkpt>
      <trkpt lat="47.33914" lon="-1.526">
        <ele>6.1</ele>
        <time>2020-09-27T10:41:17.000Z</time>
      </trkpt>
      <trkpt lat="47.33911" lon="-1.52599">
        <ele>6</ele>
        <time>2020-09-27T10:41:18.000Z</time>
      </trkpt>
      <trkpt lat="47.33908" lon="-1.52598">
        <ele>5.8</ele>
        <time>2020-09-27T10:41:19.000Z</time>
      </trkpt>
      <trkpt lat="47.33905" lon="-1.52597">
        <ele>5.7</ele>
        <time>2020-09-27T10:41:20.000Z</time>
      </trkpt>
      <trkpt lat="47.33902" lon="-1.52596">
        <ele>5.6</ele>
        <time>2020-09-27T10:41:21.000Z</time>
      </trkpt>
      <trkpt lat="47.33899" lon="-1.52595">
        <ele>5.5</ele>
        <time>2020-09-27T10:41:22.000Z</time>
      </trkpt>
      <trkpt lat="47.33897" lon="-1.52594">
        <ele>5.4</ele>
        <time>2020-09-27T10:41:23.000Z</time>
      </trkpt>
      <trkpt lat="47.33894" lon="-1.52593">
        <ele>5.2</ele>
        <time>2020-09-27T10:41:24.000Z</time>
      </trkpt>
      <trkpt lat="47.3389" lon="-1.52592">
        <ele>5.1</ele>
        <time>2020-09-27T10:41:25.000Z</time>
      </trkpt>
      <trkpt lat="47.33887" lon="-1.52591">
        <ele>5</ele>
        <time>2020-09-27T10:41:26.000Z</time>
      </trkpt>
      <trkpt lat="47.33884" lon="-1.5259">
        <ele>4.9</ele>
        <time>2020-09-27T10:41:27.000Z</time>
      </trkpt>
      <trkpt lat="47.3388" lon="-1.52589">
        <ele>4.7</ele>
        <time>2020-09-27T10:41:28.000Z</time>
      </trkpt>
      <trkpt lat="47.33877" lon="-1.52589">
        <ele>4.6</ele>
        <time>2020-09-27T10:41:29.000Z</time>
      </trkpt>
      <trkpt lat="47.33873" lon="-1.52588">
        <ele>4.5</ele>
        <time>2020-09-27T10:41:30.000Z</time>
      </trkpt>
      <trkpt lat="47.3387" lon="-1.52587">
        <ele>4.3</ele>
        <time>2020-09-27T10:41:31.000Z</time>
      </trkpt>
      <trkpt lat="47.33867" lon="-1.52586">
        <ele>4.2</ele>
        <time>2020-09-27T10:41:32.000Z</time>
      </trkpt>
      <trkpt lat="47.33864" lon="-1.52585">
        <ele>4.1</ele>
        <time>2020-09-27T10:41:33.000Z</time>
      </trkpt>
      <trkpt lat="47.33861" lon="-1.52585">
        <ele>4</ele>
        <time>2020-09-27T10:41:34.000Z</time>
      </trkpt>
      <trkpt lat="47.33859" lon="-1.52584">
        <ele>3.9</ele>
        <time>2020-09-27T10:41:35.000Z</time>
      </trkpt>
      <trkpt lat="47.33856" lon="-1.52583">
        <ele>3.8</ele>
        <time>2020-09-27T10:41:36.000Z</time>
      </trkpt>
      <trkpt lat="47.33854" lon="-1.52583">
        <ele>3.7</ele>
        <time>2020-09-27T10:41:37.000Z</time>
      </trkpt>
      <trkpt lat="47.33851" lon="-1.52582">
        <ele>3.6</ele>
        <time>2020-09-27T10:41:38.000Z</time>
      </trkpt>
      <trkpt lat="47.33848" lon="-1.52581">
        <ele>3.5</ele>
        <time>2020-09-27T10:41:39.000Z</time>
      </trkpt>
      <trkpt lat="47.33846" lon="-1.5258">
        <ele>3.4</ele>
        <time>2020-09-27T10:41:40.000Z</time>
      </trkpt>
      <trkpt lat="47.33843" lon="-1.5258">
        <ele>3.3</ele>
        <time>2020-09-27T10:41:41.000Z</time>
      </trkpt>
      <trkpt lat="47.3384" lon="-1.52579">
        <ele>3.2</ele>
        <time>2020-09-27T10:41:42.000Z</time>
      </trkpt>
      <trkpt lat="47.33837" lon="-1.52578">
        <ele>3.1</ele>
        <time>2020-09-27T10:41:43.000Z</time>
      </trkpt>
      <trkpt lat="47.33834" lon="-1.52577">
        <ele>3</ele>
        <time>2020-09-27T10:41:44.000Z</time>
      </trkpt>
      <trkpt lat="47.33832" lon="-1.52576">
        <ele>3</ele>
        <time>2020-09-27T10:41:45.000Z</time>
      </trkpt>
      <trkpt lat="47.33829" lon="-1.52576">
        <ele>3</ele>
        <time>2020-09-27T10:41:46.000Z</time>
      </trkpt>
      <trkpt lat="47.33826" lon="-1.52575">
        <ele>3</ele>
        <time>2020-09-27T10:41:47.000Z</time>
      </trkpt>
      <trkpt lat="47.33823" lon="-1.52574">
        <ele>3</ele>
        <time>2020-09-27T10:41:48.000Z</time>
      </trkpt>
      <trkpt lat="47.3382" lon="-1.52573">
        <ele>3</ele>
        <time>2020-09-27T10:41:49.000Z</time>
      </trkpt>
      <trkpt lat="47.33817" lon="-1.52572">
        <ele>3</ele>
        <time>2020-09-27T10:41:50.000Z</time>
      </trkpt>
      <trkpt lat="47.33814" lon="-1.5257">
        <ele>3</ele>
        <time>2020-09-27T10:41:51.000Z</time>
      </trkpt>
      <trkpt lat="47.33811" lon="-1.52569">
        <ele>3</ele>
        <time>2020-09-27T10:41:52.000Z</time>
      </trkpt>
      <trkpt lat="47.33808" lon="-1.52568">
        <ele>3</ele>
        <time>2020-09-27T10:41:53.000Z</time>
      </trkpt>
      <trkpt lat="47.33805" lon="-1.52567">
        <ele>3</ele>
        <time>2020-09-27T10:41:54.000Z</time>
      </trkpt>
      <trkpt lat="47.33801" lon="-1.52565">
        <ele>3</ele>
        <time>2020-09-27T10:41:55.000Z</time>
      </trkpt>
      <trkpt lat="47.33798" lon="-1.52564">
        <ele>3</ele>
        <time>2020-09-27T10:41:56.000Z</time>
      </trkpt>
      <trkpt lat="47.33795" lon="-1.52563">
        <ele>3</ele>
        <time>2020-09-27T10:41:57.000Z</time>
      </trkpt>
      <trkpt lat="47.33793" lon="-1.52561">
        <ele>3</ele>
        <time>2020-09-27T10:41:58.000Z</time>
      </trkpt>
      <trkpt lat="47.33791" lon="-1.5256">
        <ele>3</ele>
        <time>2020-09-27T10:41:59.000Z</time>
      </trkpt>
      <trkpt lat="47.33789" lon="-1.52559">
        <ele>3</ele>
        <time>2020-09-27T10:42:00.000Z</time>
      </trkpt>
      <trkpt lat="47.33788" lon="-1.52558">
        <ele>3</ele>
        <time>2020-09-27T10:42:01.000Z</time>
      </trkpt>
      <trkpt lat="47.33787" lon="-1.52557">
        <ele>3</ele>
        <time>2020-09-27T10:42:02.000Z</time>
      </trkpt>
      <trkpt lat="47.33787" lon="-1.52556">
        <ele>3</ele>
        <time>2020-09-27T10:42:03.000Z</time>
      </trkpt>
      <trkpt lat="47.33786" lon="-1.52555">
        <ele>3</ele>
        <time>2020-09-27T10:42:04.000Z</time>
      </trkpt>
      <trkpt lat="47.33786" lon="-1.52554">
        <ele>3</ele>
        <time>2020-09-27T10:42:05.000Z</time>
      </trkpt>
      <trkpt lat="47.33786" lon="-1.52553">
        <ele>3</ele>
        <time>2020-09-27T10:42:06.000Z</time>
      </trkpt>
      <trkpt lat="47.33785" lon="-1.52552">
        <ele>3</ele>
        <time>2020-09-27T10:42:07.000Z</time>
      </trkpt>
      <trkpt lat="47.33785" lon="-1.52551">
        <ele>3</ele>
        <time>2020-09-27T10:42:08.000Z</time>
      </trkpt>
      <trkpt lat="47.33785" lon="-1.5255">
        <ele>3</ele>
        <time>2020-09-27T10:42:09.000Z</time>
      </trkpt>
      <trkpt lat="47.33785" lon="-1.52549">
        <ele>3</ele>
        <time>2020-09-27T10:42:10.000Z</time>
      </trkpt>
      <trkpt lat="47.33785" lon="-1.52547">
        <ele>3</ele>
        <time>2020-09-27T10:42:11.000Z</time>
      </trkpt>
      <trkpt lat="47.33785" lon="-1.52546">
        <ele>3</ele>
        <time>2020-09-27T10:42:12.000Z</time>
      </trkpt>
      <trkpt lat="47.33785" lon="-1.52544">
        <ele>3</ele>
        <time>2020-09-27T10:42:13.000Z</time>
      </trkpt>
      <trkpt lat="47.33786" lon="-1.52543">
        <ele>3</ele>
        <time>2020-09-27T10:42:14.000Z</time>
      </trkpt>
      <trkpt lat="47.33786" lon="-1.52542">
        <ele>3</ele>
        <time>2020-09-27T10:42:15.000Z</time>
      </trkpt>
      <trkpt lat="47.33786" lon="-1.52541">
        <ele>3</ele>
        <time>2020-09-27T10:42:16.000Z</time>
      </trkpt>
      <trkpt lat="47.33786" lon="-1.5254">
        <ele>3</ele>
        <time>2020-09-27T10:42:17.000Z</time>
      </trkpt>
      <trkpt lat="47.33787" lon="-1.52539">
        <ele>3</ele>
        <time>2020-09-27T10:42:18.000Z</time>
      </trkpt>
      <trkpt lat="47.33787" lon="-1.52538">
        <ele>3</ele>
        <time>2020-09-27T10:42:19.000Z</time>
      </trkpt>
      <trkpt lat="47.33788" lon="-1.52537">
        <ele>3</ele>
        <time>2020-09-27T10:42:20.000Z</time>
      </trkpt>
      <trkpt lat="47.33788" lon="-1.52536">
        <ele>3</ele>
        <time>2020-09-27T10:42:21.000Z</time>
      </trkpt>
      <trkpt lat="47.33789" lon="-1.52535">
        <ele>3</ele>
        <time>2020-09-27T10:42:22.000Z</time>
      </trkpt>
      <trkpt lat="47.33789" lon="-1.52534">
        <ele>3</ele>
        <time>2020-09-27T10:42:23.000Z</time>
      </trkpt>
      <trkpt lat="47.3379" lon="-1.52533">
        <ele>3</ele>
        <time>2020-09-27T10:42:24.000Z</time>
      </trkpt>
      <trkpt lat="47.33791" lon="-1.52532">
        <ele>3</ele>
        <time>2020-09-27T10:42:25.000Z</time>
      </trkpt>
      <trkpt lat="47.33792" lon="-1.52531">
        <ele>3</ele>
        <time>2020-09-27T10:42:26.000Z</time>
      </trkpt>
      <trkpt lat="47.33793" lon="-1.52531">
        <ele>3</ele>
        <time>2020-09-27T10:42:27.000Z</time>
      </trkpt>
      <trkpt lat="47.33795" lon="-1.52531">
        <ele>3</ele>
        <time>2020-09-27T10:42:28.000Z</time>
      </trkpt>
      <trkpt lat="47.33796" lon="-1.5253">
        <ele>3</ele>
        <time>2020-09-27T10:42:29.000Z</time>
      </trkpt>
      <trkpt lat="47.33797" lon="-1.5253">
        <ele>3</ele>
        <time>2020-09-27T10:42:30.000Z</time>
      </trkpt>
      <trkpt lat="47.33798" lon="-1.5253">
        <ele>3</ele>
        <time>2020-09-27T10:42:31.000Z</time>
      </trkpt>
      <trkpt lat="47.33798" lon="-1.5253">
        <ele>3</ele>
        <time>2020-09-27T10:42:32.000Z</time>
      </trkpt>
      <trkpt lat="47.33799" lon="-1.5253">
        <ele>3</ele>
        <time>2020-09-27T10:42:33.000Z</time>
      </trkpt>
      <trkpt lat="47.33799" lon="-1.5253">
        <ele>3</ele>
        <time>2020-09-27T10:42:34.000Z</time>
      </trkpt>
      <trkpt lat="47.33799" lon="-1.5253">
        <ele>3</ele>
        <time>2020-09-27T10:42:35.000Z</time>
      </trkpt>
      <trkpt lat="47.33799" lon="-1.5253">
        <ele>3</ele>
        <time>2020-09-27T10:42:36.000Z</time>
      </trkpt>
      <trkpt lat="47.33799" lon="-1.5253">
        <ele>3</ele>
        <time>2020-09-27T10:42:37.000Z</time>
      </trkpt>
      <trkpt lat="47.338" lon="-1.5253">
        <ele>3</ele>
        <time>2020-09-27T10:42:38.000Z</time>
      </trkpt>
      <trkpt lat="47.338" lon="-1.5253">
        <ele>3</ele>
        <time>2020-09-27T10:42:39.000Z</time>
      </trkpt>
      <trkpt lat="47.33801" lon="-1.5253">
        <ele>3</ele>
        <time>2020-09-27T10:42:40.000Z</time>
      </trkpt>
      <trkpt lat="47.33802" lon="-1.5253">
        <ele>3</ele>
        <time>2020-09-27T10:42:41.000Z</time>
      </trkpt>
      <trkpt lat="47.33803" lon="-1.5253">
        <ele>3</ele>
        <time>2020-09-27T10:42:42.000Z</time>
      </trkpt>
      <trkpt lat="47.33804" lon="-1.5253">
        <ele>3</ele>
        <time>2020-09-27T10:42:43.000Z</time>
      </trkpt>
      <trkpt lat="47.33805" lon="-1.52531">
        <ele>3</ele>
        <time>2020-09-27T10:42:44.000Z</time>
      </trkpt>
      <trkpt lat="47.33806" lon="-1.52531">
        <ele>3</ele>
        <time>2020-09-27T10:42:45.000Z</time>
      </trkpt>
      <trkpt lat="47.33806" lon="-1.52532">
        <ele>3</ele>
        <time>2020-09-27T10:42:46.000Z</time>
      </trkpt>
      <trkpt lat="47.33807" lon="-1.52532">
        <ele>3</ele>
        <time>2020-09-27T10:42:47.000Z</time>
      </trkpt>
      <trkpt lat="47.33808" lon="-1.52532">
        <ele>3</ele>
        <time>2020-09-27T10:42:48.000Z</time>
      </trkpt>
      <trkpt lat="47.33809" lon="-1.52533">
        <ele>3</ele>
        <time>2020-09-27T10:42:49.000Z</time>
      </trkpt>
      <trkpt lat="47.33809" lon="-1.52533">
        <ele>3</ele>
        <time>2020-09-27T10:42:50.000Z</time>
      </trkpt>
      <trkpt lat="47.3381" lon="-1.52533">
        <ele>3</ele>
        <time>2020-09-27T10:42:51.000Z</time>
      </trkpt>
      <trkpt lat="47.3381" lon="-1.52533">
        <ele>3</ele>
        <time>2020-09-27T10:42:52.000Z</time>
      </trkpt>
      <trkpt lat="47.3381" lon="-1.52533">
        <ele>3</ele>
        <time>2020-09-27T10:42:53.000Z</time>
      </trkpt>
      <trkpt lat="47.3381" lon="-1.52533">
        <ele>3</ele>
        <time>2020-09-27T10:42:54.000Z</time>
      </trkpt>
      <trkpt lat="47.3381" lon="-1.52533">
        <ele>3</ele>
        <time>2020-09-27T10:42:55.000Z</time>
      </trkpt>
      <trkpt lat="47.3381" lon="-1.52533">
        <ele>3</ele>
        <time>2020-09-27T10:42:56.000Z</time>
      </trkpt>
      <trkpt lat="47.3381" lon="-1.52533">
        <ele>3</ele>
        <time>2020-09-27T10:42:57.000Z</time>
      </trkpt>
      <trkpt lat="47.33809" lon="-1.52533">
        <ele>3</ele>
        <time>2020-09-27T10:42:58.000Z</time>
      </trkpt>
      <trkpt lat="47.33809" lon="-1.52534">
        <ele>3</ele>
        <time>2020-09-27T10:42:59.000Z</time>
      </trkpt>
      <trkpt lat="47.33809" lon="-1.52534">
        <ele>3</ele>
        <time>2020-09-27T10:43:00.000Z</time>
      </trkpt>
      <trkpt lat="47.33808" lon="-1.52535">
        <ele>3</ele>
        <time>2020-09-27T10:43:01.000Z</time>
      </trkpt>
      <trkpt lat="47.33808" lon="-1.52535">
        <ele>3</ele>
        <time>2020-09-27T10:43:02.000Z</time>
      </trkpt>
      <trkpt lat="47.33807" lon="-1.52534">
        <ele>3</ele>
        <time>2020-09-27T10:43:03.000Z</time>
      </trkpt>
      <trkpt lat="47.33806" lon="-1.52533">
        <ele>3</ele>
        <time>2020-09-27T10:43:04.000Z</time>
      </trkpt>
      <trkpt lat="47.33805" lon="-1.52532">
        <ele>3</ele>
        <time>2020-09-27T10:43:05.000Z</time>
      </trkpt>
      <trkpt lat="47.33803" lon="-1.5253">
        <ele>3</ele>
        <time>2020-09-27T10:43:06.000Z</time>
      </trkpt>
      <trkpt lat="47.33801" lon="-1.5253">
        <ele>3</ele>
        <time>2020-09-27T10:43:07.000Z</time>
      </trkpt>
      <trkpt lat="47.33799" lon="-1.52529">
        <ele>3</ele>
        <time>2020-09-27T10:43:08.000Z</time>
      </trkpt>
      <trkpt lat="47.33796" lon="-1.52529">
        <ele>3</ele>
        <time>2020-09-27T10:43:09.000Z</time>
      </trkpt>
      <trkpt lat="47.33795" lon="-1.52528">
        <ele>3</ele>
        <time>2020-09-27T10:43:10.000Z</time>
      </trkpt>
      <trkpt lat="47.33794" lon="-1.52528">
        <ele>3</ele>
        <time>2020-09-27T10:43:11.000Z</time>
      </trkpt>
      <trkpt lat="47.33792" lon="-1.52528">
        <ele>3</ele>
        <time>2020-09-27T10:43:12.000Z</time>
      </trkpt>
      <trkpt lat="47.33792" lon="-1.52528">
        <ele>3</ele>
        <time>2020-09-27T10:43:13.000Z</time>
      </trkpt>
      <trkpt lat="47.33791" lon="-1.52529">
        <ele>3</ele>
        <time>2020-09-27T10:43:14.000Z</time>
      </trkpt>
      <trkpt lat="47.3379" lon="-1.52529">
        <ele>3</ele>
        <time>2020-09-27T10:43:15.000Z</time>
      </trkpt>
      <trkpt lat="47.3379" lon="-1.5253">
        <ele>3</ele>
        <time>2020-09-27T10:43:16.000Z</time>
      </trkpt>
      <trkpt lat="47.33789" lon="-1.5253">
        <ele>3</ele>
        <time>2020-09-27T10:43:17.000Z</time>
      </trkpt>
      <trkpt lat="47.33789" lon="-1.52531">
        <ele>3</ele>
        <time>2020-09-27T10:43:18.000Z</time>
      </trkpt>
      <trkpt lat="47.33788" lon="-1.52532">
        <ele>3</ele>
        <time>2020-09-27T10:43:19.000Z</time>
      </trkpt>
      <trkpt lat="47.33788" lon="-1.52533">
        <ele>3</ele>
        <time>2020-09-27T10:43:20.000Z</time>
      </trkpt>
      <trkpt lat="47.33787" lon="-1.52534">
        <ele>3</ele>
        <time>2020-09-27T10:43:21.000Z</time>
      </trkpt>
      <trkpt lat="47.33787" lon="-1.52535">
        <ele>3</ele>
        <time>2020-09-27T10:43:22.000Z</time>
      </trkpt>
      <trkpt lat="47.33787" lon="-1.52537">
        <ele>3</ele>
        <time>2020-09-27T10:43:23.000Z</time>
      </trkpt>
      <trkpt lat="47.33786" lon="-1.52538">
        <ele>3</ele>
        <time>2020-09-27T10:43:24.000Z</time>
      </trkpt>
      <trkpt lat="47.33786" lon="-1.5254">
        <ele>3</ele>
        <time>2020-09-27T10:43:25.000Z</time>
      </trkpt>
      <trkpt lat="47.33786" lon="-1.52541">
        <ele>3</ele>
        <time>2020-09-27T10:43:26.000Z</time>
      </trkpt>
      <trkpt lat="47.33786" lon="-1.52543">
        <ele>3</ele>
        <time>2020-09-27T10:43:27.000Z</time>
      </trkpt>
      <trkpt lat="47.33786" lon="-1.52544">
        <ele>3</ele>
        <time>2020-09-27T10:43:28.000Z</time>
      </trkpt>
      <trkpt lat="47.33785" lon="-1.52546">
        <ele>3</ele>
        <time>2020-09-27T10:43:29.000Z</time>
      </trkpt>
      <trkpt lat="47.33785" lon="-1.52548">
        <ele>3</ele>
        <time>2020-09-27T10:43:30.000Z</time>
      </trkpt>
      <trkpt lat="47.33785" lon="-1.52549">
        <ele>3</ele>
        <time>2020-09-27T10:43:31.000Z</time>
      </trkpt>
      <trkpt lat="47.33785" lon="-1.52551">
        <ele>3</ele>
        <time>2020-09-27T10:43:32.000Z</time>
      </trkpt>
      <trkpt lat="47.33786" lon="-1.52553">
        <ele>3</ele>
        <time>2020-09-27T10:43:33.000Z</time>
      </trkpt>
      <trkpt lat="47.33786" lon="-1.52554">
        <ele>3</ele>
        <time>2020-09-27T10:43:34.000Z</time>
      </trkpt>
      <trkpt lat="47.33786" lon="-1.52555">
        <ele>3</ele>
        <time>2020-09-27T10:43:35.000Z</time>
      </trkpt>
      <trkpt lat="47.33786" lon="-1.52557">
        <ele>3</ele>
        <time>2020-09-27T10:43:36.000Z</time>
      </trkpt>
      <trkpt lat="47.33787" lon="-1.52558">
        <ele>3</ele>
        <time>2020-09-27T10:43:37.000Z</time>
      </trkpt>
      <trkpt lat="47.33788" lon="-1.52559">
        <ele>3</ele>
        <time>2020-09-27T10:43:38.000Z</time>
      </trkpt>
      <trkpt lat="47.33789" lon="-1.5256">
        <ele>3</ele>
        <time>2020-09-27T10:43:39.000Z</time>
      </trkpt>
      <trkpt lat="47.33789" lon="-1.5256">
        <ele>3</ele>
        <time>2020-09-27T10:43:40.000Z</time>
      </trkpt>
      <trkpt lat="47.3379" lon="-1.52561">
        <ele>3</ele>
        <time>2020-09-27T10:43:41.000Z</time>
      </trkpt>
      <trkpt lat="47.33791" lon="-1.52562">
        <ele>3</ele>
        <time>2020-09-27T10:43:42.000Z</time>
      </trkpt>
      <trkpt lat="47.33793" lon="-1.52562">
        <ele>3</ele>
        <time>2020-09-27T10:43:43.000Z</time>
      </trkpt>
      <trkpt lat="47.33794" lon="-1.52563">
        <ele>3</ele>
        <time>2020-09-27T10:43:44.000Z</time>
      </trkpt>
      <trkpt lat="47.33795" lon="-1.52564">
        <ele>3</ele>
        <time>2020-09-27T10:43:45.000Z</time>
      </trkpt>
      <trkpt lat="47.33796" lon="-1.52564">
        <ele>3</ele>
        <time>2020-09-27T10:43:46.000Z</time>
      </trkpt>
      <trkpt lat="47.33797" lon="-1.52565">
        <ele>3</ele>
        <time>2020-09-27T10:43:47.000Z</time>
      </trkpt>
      <trkpt lat="47.33798" lon="-1.52565">
        <ele>3</ele>
        <time>2020-09-27T10:43:48.000Z</time>
      </trkpt>
      <trkpt lat="47.33799" lon="-1.52565">
        <ele>3</ele>
        <time>2020-09-27T10:43:49.000Z</time>
      </trkpt>
      <trkpt lat="47.338" lon="-1.52566">
        <ele>3</ele>
        <time>2020-09-27T10:43:50.000Z</time>
      </trkpt>
      <trkpt lat="47.33801" lon="-1.52566">
        <ele>3</ele>
        <time>2020-09-27T10:43:51.000Z</time>
      </trkpt>
      <trkpt lat="47.33802" lon="-1.52566">
        <ele>3</ele>
        <time>2020-09-27T10:43:52.000Z</time>
      </trkpt>
      <trkpt lat="47.33802" lon="-1.52567">
        <ele>3</ele>
        <time>2020-09-27T10:43:53.000Z</time>
      </trkpt>
      <trkpt lat="47.33803" lon="-1.52567">
        <ele>3</ele>
        <time>2020-09-27T10:43:54.000Z</time>
      </trkpt>
      <trkpt lat="47.33804" lon="-1.52567">
        <ele>3</ele>
        <time>2020-09-27T10:43:55.000Z</time>
      </trkpt>
      <trkpt lat="47.33804" lon="-1.52567">
        <ele>3</ele>
        <time>2020-09-27T10:43:56.000Z</time>
      </trkpt>
      <trkpt lat="47.33804" lon="-1.52567">
        <ele>3</ele>
        <time>2020-09-27T10:43:57.000Z</time>
      </trkpt>
      <trkpt lat="47.33805" lon="-1.52568">
        <ele>3</ele>
        <time>2020-09-27T10:43:58.000Z</time>
      </trkpt>
      <trkpt lat="47.33805" lon="-1.52568">
        <ele>3</ele>
        <time>2020-09-27T10:43:59.000Z</time>
      </trkpt>
      <trkpt lat="47.33805" lon="-1.52568">
        <ele>3</ele>
        <time>2020-09-27T10:44:00.000Z</time>
      </trkpt>
      <trkpt lat="47.33805" lon="-1.52568">
        <ele>3</ele>
        <time>2020-09-27T10:44:01.000Z</time>
      </trkpt>
      <trkpt lat="47.33805" lon="-1.52568">
        <ele>3</ele>
        <time>2020-09-27T10:44:02.000Z</time>
      </trkpt>
      <trkpt lat="47.33806" lon="-1.52568">
        <ele>3</ele>
        <time>2020-09-27T10:44:03.000Z</time>
      </trkpt>
      <trkpt lat="47.33807" lon="-1.52568">
        <ele>3</ele>
        <time>2020-09-27T10:44:04.000Z</time>
      </trkpt>
      <trkpt lat="47.33808" lon="-1.52569">
        <ele>3</ele>
        <time>2020-09-27T10:44:05.000Z</time>
      </trkpt>
      <trkpt lat="47.33809" lon="-1.52569">
        <ele>3</ele>
        <time>2020-09-27T10:44:06.000Z</time>
      </trkpt>
      <trkpt lat="47.3381" lon="-1.5257">
        <ele>3</ele>
        <time>2020-09-27T10:44:07.000Z</time>
      </trkpt>
      <trkpt lat="47.33811" lon="-1.5257">
        <ele>3</ele>
        <time>2020-09-27T10:44:08.000Z</time>
      </trkpt>
      <trkpt lat="47.33812" lon="-1.52571">
        <ele>3</ele>
        <time>2020-09-27T10:44:09.000Z</time>
      </trkpt>
      <trkpt lat="47.33813" lon="-1.52571">
        <ele>3</ele>
        <time>2020-09-27T10:44:10.000Z</time>
      </trkpt>
      <trkpt lat="47.33814" lon="-1.52572">
        <ele>3</ele>
        <time>2020-09-27T10:44:11.000Z</time>
      </trkpt>
      <trkpt lat="47.33815" lon="-1.52572">
        <ele>3</ele>
        <time>2020-09-27T10:44:12.000Z</time>
      </trkpt>
      <trkpt lat="47.33816" lon="-1.52573">
        <ele>3</ele>
        <time>2020-09-27T10:44:13.000Z</time>
      </trkpt>
      <trkpt lat="47.33817" lon="-1.52573">
        <ele>3</ele>
        <time>2020-09-27T10:44:14.000Z</time>
      </trkpt>
      <trkpt lat="47.33818" lon="-1.52574">
        <ele>3</ele>
        <time>2020-09-27T10:44:15.000Z</time>
      </trkpt>
      <trkpt lat="47.33819" lon="-1.52575">
        <ele>3</ele>
        <time>2020-09-27T10:44:16.000Z</time>
      </trkpt>
      <trkpt lat="47.3382" lon="-1.52575">
        <ele>3</ele>
        <time>2020-09-27T10:44:17.000Z</time>
      </trkpt>
      <trkpt lat="47.33821" lon="-1.52576">
        <ele>3</ele>
        <time>2020-09-27T10:44:18.000Z</time>
      </trkpt>
      <trkpt lat="47.33821" lon="-1.52577">
        <ele>3</ele>
        <time>2020-09-27T10:44:19.000Z</time>
      </trkpt>
      <trkpt lat="47.33822" lon="-1.52577">
        <ele>3</ele>
        <time>2020-09-27T10:44:20.000Z</time>
      </trkpt>
      <trkpt lat="47.33823" lon="-1.52578">
        <ele>3</ele>
        <time>2020-09-27T10:44:21.000Z</time>
      </trkpt>
      <trkpt lat="47.33824" lon="-1.52579">
        <ele>3</ele>
        <time>2020-09-27T10:44:22.000Z</time>
      </trkpt>
      <trkpt lat="47.33824" lon="-1.52579">
        <ele>3</ele>
        <time>2020-09-27T10:44:23.000Z</time>
      </trkpt>
      <trkpt lat="47.33825" lon="-1.5258">
        <ele>3</ele>
        <time>2020-09-27T10:44:24.000Z</time>
      </trkpt>
      <trkpt lat="47.33826" lon="-1.5258">
        <ele>3</ele>
        <time>2020-09-27T10:44:25.000Z</time>
      </trkpt>
      <trkpt lat="47.33826" lon="-1.52581">
        <ele>3</ele>
        <time>2020-09-27T10:44:26.000Z</time>
      </trkpt>
      <trkpt lat="47.33827" lon="-1.52581">
        <ele>3</ele>
        <time>2020-09-27T10:44:27.000Z</time>
      </trkpt>
      <trkpt lat="47.33828" lon="-1.52581">
        <ele>3</ele>
        <time>2020-09-27T10:44:28.000Z</time>
      </trkpt>
      <trkpt lat="47.33828" lon="-1.52581">
        <ele>3</ele>
        <time>2020-09-27T10:44:29.000Z</time>
      </trkpt>
      <trkpt lat="47.33829" lon="-1.52581">
        <ele>3</ele>
        <time>2020-09-27T10:44:30.000Z</time>
      </trkpt>
      <trkpt lat="47.3383" lon="-1.52581">
        <ele>3</ele>
        <time>2020-09-27T10:44:31.000Z</time>
      </trkpt>
      <trkpt lat="47.33831" lon="-1.52581">
        <ele>3</ele>
        <time>2020-09-27T10:44:32.000Z</time>
      </trkpt>
      <trkpt lat="47.33831" lon="-1.52582">
        <ele>3</ele>
        <time>2020-09-27T10:44:33.000Z</time>
      </trkpt>
      <trkpt lat="47.33832" lon="-1.52582">
        <ele>3</ele>
        <time>2020-09-27T10:44:34.000Z</time>
      </trkpt>
      <trkpt lat="47.33833" lon="-1.52582">
        <ele>3</ele>
        <time>2020-09-27T10:44:35.000Z</time>
      </trkpt>
      <trkpt lat="47.33834" lon="-1.52583">
        <ele>3</ele>
        <time>2020-09-27T10:44:36.000Z</time>
      </trkpt>
      <trkpt lat="47.33834" lon="-1.52583">
        <ele>3</ele>
        <time>2020-09-27T10:44:37.000Z</time>
      </trkpt>
      <trkpt lat="47.33835" lon="-1.52583">
        <ele>3</ele>
        <time>2020-09-27T10:44:38.000Z</time>
      </trkpt>
      <trkpt lat="47.33835" lon="-1.52582">
        <ele>3</ele>
        <time>2020-09-27T10:44:39.000Z</time>
      </trkpt>
      <trkpt lat="47.33835" lon="-1.52582">
        <ele>3.1</ele>
        <time>2020-09-27T10:44:40.000Z</time>
      </trkpt>
      <trkpt lat="47.33835" lon="-1.52582">
        <ele>3.1</ele>
        <time>2020-09-27T10:44:41.000Z</time>
      </trkpt>
      <trkpt lat="47.33835" lon="-1.52582">
        <ele>3.1</ele>
        <time>2020-09-27T10:44:42.000Z</time>
      </trkpt>
      <trkpt lat="47.33835" lon="-1.52582">
        <ele>3.1</ele>
        <time>2020-09-27T10:44:43.000Z</time>
      </trkpt>
      <trkpt lat="47.33835" lon="-1.52582">
        <ele>3.1</ele>
        <time>2020-09-27T10:44:44.000Z</time>
      </trkpt>
      <trkpt lat="47.33835" lon="-1.52582">
        <ele>3.1</ele>
        <time>2020-09-27T10:44:45.000Z</time>
      </trkpt>
      <trkpt lat="47.33835" lon="-1.52582">
        <ele>3.1</ele>
        <time>2020-09-27T10:44:46.000Z</time>
      </trkpt>
      <trkpt lat="47.33835" lon="-1.52582">
        <ele>3.1</ele>
        <time>2020-09-27T10:44:47.000Z</time>
      </trkpt>
      <trkpt lat="47.33835" lon="-1.52582">
        <ele>3.1</ele>
        <time>2020-09-27T10:44:48.000Z</time>
      </trkpt>
      <trkpt lat="47.33835" lon="-1.52582">
        <ele>3.1</ele>
        <time>2020-09-27T10:44:49.000Z</time>
      </trkpt>
      <trkpt lat="47.33835" lon="-1.52582">
        <ele>3.1</ele>
        <time>2020-09-27T10:44:50.000Z</time>
      </trkpt>
      <trkpt lat="47.33835" lon="-1.52582">
        <ele>3.1</ele>
        <time>2020-09-27T10:44:51.000Z</time>
      </trkpt>
      <trkpt lat="47.33835" lon="-1.52582">
        <ele>3.1</ele>
        <time>2020-09-27T10:44:52.000Z</time>
      </trkpt>
      <trkpt lat="47.33835" lon="-1.52582">
        <ele>3.1</ele>
        <time>2020-09-27T10:44:53.000Z</time>
      </trkpt>
      <trkpt lat="47.33835" lon="-1.52582">
        <ele>3.1</ele>
        <time>2020-09-27T10:44:54.000Z</time>
      </trkpt>
      <trkpt lat="47.33835" lon="-1.52582">
        <ele>3.1</ele>
        <time>2020-09-27T10:44:55.000Z</time>
      </trkpt>
      <trkpt lat="47.33835" lon="-1.52582">
        <ele>3.1</ele>
        <time>2020-09-27T10:44:56.000Z</time>
      </trkpt>
      <trkpt lat="47.33835" lon="-1.52582">
        <ele>3.1</ele>
        <time>2020-09-27T10:44:57.000Z</time>
      </trkpt>
      <trkpt lat="47.33835" lon="-1.52582">
        <ele>3.1</ele>
        <time>2020-09-27T10:44:58.000Z</time>
      </trkpt>
      <trkpt lat="47.33835" lon="-1.52582">
        <ele>3.1</ele>
        <time>2020-09-27T10:44:59.000Z</time>
      </trkpt>
      <trkpt lat="47.33835" lon="-1.52582">
        <ele>3.1</ele>
        <time>2020-09-27T10:45:00.000Z</time>
      </trkpt>
      <trkpt lat="47.33835" lon="-1.52582">
        <ele>3.1</ele>
        <time>2020-09-27T10:45:01.000Z</time>
      </trkpt>
      <trkpt lat="47.33835" lon="-1.52582">
        <ele>3.1</ele>
        <time>2020-09-27T10:45:02.000Z</time>
      </trkpt>
      <trkpt lat="47.33835" lon="-1.52582">
        <ele>3.1</ele>
        <time>2020-09-27T10:45:03.000Z</time>
      </trkpt>
      <trkpt lat="47.33835" lon="-1.52581">
        <ele>3.1</ele>
        <time>2020-09-27T10:45:04.000Z</time>
      </trkpt>
      <trkpt lat="47.33835" lon="-1.52581">
        <ele>3.1</ele>
        <time>2020-09-27T10:45:05.000Z</time>
      </trkpt>
      <trkpt lat="47.33835" lon="-1.52581">
        <ele>3.1</ele>
        <time>2020-09-27T10:45:06.000Z</time>
      </trkpt>
      <trkpt lat="47.33835" lon="-1.52581">
        <ele>3.1</ele>
        <time>2020-09-27T10:45:07.000Z</time>
      </trkpt>
      <trkpt lat="47.33835" lon="-1.52581">
        <ele>3.1</ele>
        <time>2020-09-27T10:45:08.000Z</time>
      </trkpt>
      <trkpt lat="47.33836" lon="-1.52581">
        <ele>3.1</ele>
        <time>2020-09-27T10:45:09.000Z</time>
      </trkpt>
      <trkpt lat="47.33836" lon="-1.52581">
        <ele>3.1</ele>
        <time>2020-09-27T10:45:10.000Z</time>
      </trkpt>
      <trkpt lat="47.33836" lon="-1.52581">
        <ele>3.1</ele>
        <time>2020-09-27T10:45:11.000Z</time>
      </trkpt>
      <trkpt lat="47.33836" lon="-1.5258">
        <ele>3.1</ele>
        <time>2020-09-27T10:45:12.000Z</time>
      </trkpt>
      <trkpt lat="47.33836" lon="-1.5258">
        <ele>3.1</ele>
        <time>2020-09-27T10:45:13.000Z</time>
      </trkpt>
      <trkpt lat="47.33836" lon="-1.5258">
        <ele>3.1</ele>
        <time>2020-09-27T10:45:14.000Z</time>
      </trkpt>
      <trkpt lat="47.33836" lon="-1.5258">
        <ele>3.1</ele>
        <time>2020-09-27T10:45:15.000Z</time>
      </trkpt>
      <trkpt lat="47.33836" lon="-1.5258">
        <ele>3.1</ele>
        <time>2020-09-27T10:45:16.000Z</time>
      </trkpt>
      <trkpt lat="47.33836" lon="-1.5258">
        <ele>3.1</ele>
        <time>2020-09-27T10:45:17.000Z</time>
      </trkpt>
      <trkpt lat="47.33836" lon="-1.5258">
        <ele>3.1</ele>
        <time>2020-09-27T10:45:18.000Z</time>
      </trkpt>
      <trkpt lat="47.33836" lon="-1.5258">
        <ele>3.1</ele>
        <time>2020-09-27T10:45:19.000Z</time>
      </trkpt>
      <trkpt lat="47.33836" lon="-1.5258">
        <ele>3.1</ele>
        <time>2020-09-27T10:45:20.000Z</time>
      </trkpt>
      <trkpt lat="47.33836" lon="-1.5258">
        <ele>3.1</ele>
        <time>2020-09-27T10:45:21.000Z</time>
      </trkpt>
      <trkpt lat="47.33836" lon="-1.5258">
        <ele>3.1</ele>
        <time>2020-09-27T10:45:22.000Z</time>
      </trkpt>
      <trkpt lat="47.33836" lon="-1.5258">
        <ele>3.1</ele>
        <time>2020-09-27T10:45:23.000Z</time>
      </trkpt>
      <trkpt lat="47.33836" lon="-1.5258">
        <ele>3.1</ele>
        <time>2020-09-27T10:45:24.000Z</time>
      </trkpt>
      <trkpt lat="47.33836" lon="-1.5258">
        <ele>3.1</ele>
        <time>2020-09-27T10:45:25.000Z</time>
      </trkpt>
      <trkpt lat="47.33836" lon="-1.5258">
        <ele>3.1</ele>
        <time>2020-09-27T10:45:26.000Z</time>
      </trkpt>
      <trkpt lat="47.33836" lon="-1.5258">
        <ele>3.1</ele>
        <time>2020-09-27T10:45:27.000Z</time>
      </trkpt>
      <trkpt lat="47.33836" lon="-1.5258">
        <ele>3.1</ele>
        <time>2020-09-27T10:45:28.000Z</time>
      </trkpt>
      <trkpt lat="47.33836" lon="-1.5258">
        <ele>3.1</ele>
        <time>2020-09-27T10:45:29.000Z</time>
      </trkpt>
      <trkpt lat="47.33836" lon="-1.5258">
        <ele>3.1</ele>
        <time>2020-09-27T10:45:30.000Z</time>
      </trkpt>
      <trkpt lat="47.33836" lon="-1.5258">
        <ele>3.1</ele>
        <time>2020-09-27T10:45:31.000Z</time>
      </trkpt>
      <trkpt lat="47.33836" lon="-1.5258">
        <ele>3.1</ele>
        <time>2020-09-27T10:45:32.000Z</time>
      </trkpt>
      <trkpt lat="47.33836" lon="-1.5258">
        <ele>3.1</ele>
        <time>2020-09-27T10:45:33.000Z</time>
      </trkpt>
      <trkpt lat="47.33836" lon="-1.5258">
        <ele>3.1</ele>
        <time>2020-09-27T10:45:34.000Z</time>
      </trkpt>
      <trkpt lat="47.33836" lon="-1.5258">
        <ele>3.1</ele>
        <time>2020-09-27T10:45:35.000Z</time>
      </trkpt>
      <trkpt lat="47.33836" lon="-1.5258">
        <ele>3.1</ele>
        <time>2020-09-27T10:45:36.000Z</time>
      </trkpt>
      <trkpt lat="47.33836" lon="-1.5258">
        <ele>3.1</ele>
        <time>2020-09-27T10:45:37.000Z</time>
      </trkpt>
      <trkpt lat="47.33836" lon="-1.5258">
        <ele>3.1</ele>
        <time>2020-09-27T10:45:38.000Z</time>
      </trkpt>
      <trkpt lat="47.33835" lon="-1.5258">
        <ele>3.1</ele>
        <time>2020-09-27T10:45:39.000Z</time>
      </trkpt>
      <trkpt lat="47.33835" lon="-1.5258">
        <ele>3.1</ele>
        <time>2020-09-27T10:45:40.000Z</time>
      </trkpt>
      <trkpt lat="47.33835" lon="-1.5258">
        <ele>3.1</ele>
        <time>2020-09-27T10:45:41.000Z</time>
      </trkpt>
      <trkpt lat="47.33835" lon="-1.5258">
        <ele>3.1</ele>
        <time>2020-09-27T10:45:42.000Z</time>
      </trkpt>
      <trkpt lat="47.33835" lon="-1.5258">
        <ele>3.1</ele>
        <time>2020-09-27T10:45:43.000Z</time>
      </trkpt>
      <trkpt lat="47.33835" lon="-1.5258">
        <ele>3.1</ele>
        <time>2020-09-27T10:45:44.000Z</time>
      </trkpt>
      <trkpt lat="47.33835" lon="-1.5258">
        <ele>3.1</ele>
        <time>2020-09-27T10:45:45.000Z</time>
      </trkpt>
      <trkpt lat="47.33835" lon="-1.52579">
        <ele>3.1</ele>
        <time>2020-09-27T10:45:46.000Z</time>
      </trkpt>
      <trkpt lat="47.33835" lon="-1.52579">
        <ele>3.1</ele>
        <time>2020-09-27T10:45:47.000Z</time>
      </trkpt>
      <trkpt lat="47.33835" lon="-1.52579">
        <ele>3.1</ele>
        <time>2020-09-27T10:45:48.000Z</time>
      </trkpt>
      <trkpt lat="47.33835" lon="-1.52579">
        <ele>3.1</ele>
        <time>2020-09-27T10:45:49.000Z</time>
      </trkpt>
      <trkpt lat="47.33835" lon="-1.52579">
        <ele>3.1</ele>
        <time>2020-09-27T10:45:50.000Z</time>
      </trkpt>
      <trkpt lat="47.33835" lon="-1.52579">
        <ele>3.1</ele>
        <time>2020-09-27T10:45:51.000Z</time>
      </trkpt>
      <trkpt lat="47.33835" lon="-1.52579">
        <ele>3.1</ele>
        <time>2020-09-27T10:45:52.000Z</time>
      </trkpt>
      <trkpt lat="47.33835" lon="-1.52579">
        <ele>3.1</ele>
        <time>2020-09-27T10:45:53.000Z</time>
      </trkpt>
      <trkpt lat="47.33835" lon="-1.52579">
        <ele>3.1</ele>
        <time>2020-09-27T10:45:54.000Z</time>
      </trkpt>
      <trkpt lat="47.33835" lon="-1.52579">
        <ele>3.1</ele>
        <time>2020-09-27T10:45:55.000Z</time>
      </trkpt>
      <trkpt lat="47.33835" lon="-1.52579">
        <ele>3.1</ele>
        <time>2020-09-27T10:45:56.000Z</time>
      </trkpt>
      <trkpt lat="47.33835" lon="-1.52579">
        <ele>3.1</ele>
        <time>2020-09-27T10:45:57.000Z</time>
      </trkpt>
      <trkpt lat="47.33835" lon="-1.52579">
        <ele>3.1</ele>
        <time>2020-09-27T10:45:58.000Z</time>
      </trkpt>
      <trkpt lat="47.33835" lon="-1.52579">
        <ele>3.1</ele>
        <time>2020-09-27T10:45:59.000Z</time>
      </trkpt>
      <trkpt lat="47.33835" lon="-1.52579">
        <ele>3.1</ele>
        <time>2020-09-27T10:46:00.000Z</time>
      </trkpt>
      <trkpt lat="47.33835" lon="-1.52579">
        <ele>3.1</ele>
        <time>2020-09-27T10:46:01.000Z</time>
      </trkpt>
      <trkpt lat="47.33835" lon="-1.52579">
        <ele>3.1</ele>
        <time>2020-09-27T10:46:02.000Z</time>
      </trkpt>
      <trkpt lat="47.33835" lon="-1.52579">
        <ele>3.1</ele>
        <time>2020-09-27T10:46:03.000Z</time>
      </trkpt>
      <trkpt lat="47.33835" lon="-1.52579">
        <ele>3.1</ele>
        <time>2020-09-27T10:46:04.000Z</time>
      </trkpt>
      <trkpt lat="47.33835" lon="-1.52579">
        <ele>3.1</ele>
        <time>2020-09-27T10:46:05.000Z</time>
      </trkpt>
      <trkpt lat="47.33835" lon="-1.52579">
        <ele>3.1</ele>
        <time>2020-09-27T10:46:06.000Z</time>
      </trkpt>
      <trkpt lat="47.33835" lon="-1.52579">
        <ele>3.1</ele>
        <time>2020-09-27T10:46:07.000Z</time>
      </trkpt>
      <trkpt lat="47.33835" lon="-1.52579">
        <ele>3.1</ele>
        <time>2020-09-27T10:46:08.000Z</time>
      </trkpt>
      <trkpt lat="47.33835" lon="-1.52579">
        <ele>3.1</ele>
        <time>2020-09-27T10:46:09.000Z</time>
      </trkpt>
      <trkpt lat="47.33835" lon="-1.52579">
        <ele>3.1</ele>
        <time>2020-09-27T10:46:10.000Z</time>
      </trkpt>
      <trkpt lat="47.33835" lon="-1.52579">
        <ele>3.1</ele>
        <time>2020-09-27T10:46:11.000Z</time>
      </trkpt>
      <trkpt lat="47.33835" lon="-1.52579">
        <ele>3.1</ele>
        <time>2020-09-27T10:46:12.000Z</time>
      </trkpt>
      <trkpt lat="47.33835" lon="-1.52579">
        <ele>3.1</ele>
        <time>2020-09-27T10:46:13.000Z</time>
      </trkpt>
      <trkpt lat="47.33835" lon="-1.52579">
        <ele>3.1</ele>
        <time>2020-09-27T10:46:14.000Z</time>
      </trkpt>
      <trkpt lat="47.33835" lon="-1.52579">
        <ele>3.1</ele>
        <time>2020-09-27T10:46:15.000Z</time>
      </trkpt>
      <trkpt lat="47.33835" lon="-1.52579">
        <ele>3.1</ele>
        <time>2020-09-27T10:46:16.000Z</time>
      </trkpt>
      <trkpt lat="47.33835" lon="-1.52579">
        <ele>3.1</ele>
        <time>2020-09-27T10:46:17.000Z</time>
      </trkpt>
      <trkpt lat="47.33835" lon="-1.52579">
        <ele>3.1</ele>
        <time>2020-09-27T10:46:18.000Z</time>
      </trkpt>
      <trkpt lat="47.33835" lon="-1.52579">
        <ele>3.1</ele>
        <time>2020-09-27T10:46:19.000Z</time>
      </trkpt>
      <trkpt lat="47.33835" lon="-1.52579">
        <ele>3.1</ele>
        <time>2020-09-27T10:46:20.000Z</time>
      </trkpt>
      <trkpt lat="47.33835" lon="-1.52579">
        <ele>3.1</ele>
        <time>2020-09-27T10:46:21.000Z</time>
      </trkpt>
      <trkpt lat="47.33835" lon="-1.52579">
        <ele>3.1</ele>
        <time>2020-09-27T10:46:22.000Z</time>
      </trkpt>
      <trkpt lat="47.33835" lon="-1.52579">
        <ele>3.1</ele>
        <time>2020-09-27T10:46:23.000Z</time>
      </trkpt>
      <trkpt lat="47.33835" lon="-1.52579">
        <ele>3.1</ele>
        <time>2020-09-27T10:46:24.000Z</time>
      </trkpt>
      <trkpt lat="47.33835" lon="-1.52579">
        <ele>3.1</ele>
        <time>2020-09-27T10:46:25.000Z</time>
      </trkpt>
      <trkpt lat="47.33835" lon="-1.52579">
        <ele>3.1</ele>
        <time>2020-09-27T10:46:26.000Z</time>
      </trkpt>
      <trkpt lat="47.33835" lon="-1.52579">
        <ele>3.1</ele>
        <time>2020-09-27T10:46:27.000Z</time>
      </trkpt>
      <trkpt lat="47.33835" lon="-1.52579">
        <ele>3.1</ele>
        <time>2020-09-27T10:46:28.000Z</time>
      </trkpt>
      <trkpt lat="47.33835" lon="-1.52579">
        <ele>3.1</ele>
        <time>2020-09-27T10:46:29.000Z</time>
      </trkpt>
      <trkpt lat="47.33835" lon="-1.52579">
        <ele>3.1</ele>
        <time>2020-09-27T10:46:30.000Z</time>
      </trkpt>
      <trkpt lat="47.33835" lon="-1.52579">
        <ele>3.1</ele>
        <time>2020-09-27T10:46:31.000Z</time>
      </trkpt>
      <trkpt lat="47.33835" lon="-1.52579">
        <ele>3.1</ele>
        <time>2020-09-27T10:46:32.000Z</time>
      </trkpt>
      <trkpt lat="47.33835" lon="-1.52579">
        <ele>3.1</ele>
        <time>2020-09-27T10:46:33.000Z</time>
      </trkpt>
      <trkpt lat="47.33835" lon="-1.52579">
        <ele>3.1</ele>
        <time>2020-09-27T10:46:34.000Z</time>
      </trkpt>
      <trkpt lat="47.33835" lon="-1.52579">
        <ele>3.1</ele>
        <time>2020-09-27T10:46:35.000Z</time>
      </trkpt>
      <trkpt lat="47.33835" lon="-1.52579">
        <ele>3.1</ele>
        <time>2020-09-27T10:46:36.000Z</time>
      </trkpt>
      <trkpt lat="47.33835" lon="-1.52579">
        <ele>3.1</ele>
        <time>2020-09-27T10:46:37.000Z</time>
      </trkpt>
      <trkpt lat="47.33835" lon="-1.52579">
        <ele>3.1</ele>
        <time>2020-09-27T10:46:38.000Z</time>
      </trkpt>
      <trkpt lat="47.33835" lon="-1.52579">
        <ele>3.1</ele>
        <time>2020-09-27T10:46:39.000Z</time>
      </trkpt>
      <trkpt lat="47.33835" lon="-1.52579">
        <ele>3.1</ele>
        <time>2020-09-27T10:46:40.000Z</time>
      </trkpt>
      <trkpt lat="47.33835" lon="-1.52579">
        <ele>3.1</ele>
        <time>2020-09-27T10:46:41.000Z</time>
      </trkpt>
      <trkpt lat="47.33835" lon="-1.52579">
        <ele>3.1</ele>
        <time>2020-09-27T10:46:42.000Z</time>
      </trkpt>
      <trkpt lat="47.33835" lon="-1.52579">
        <ele>3.1</ele>
        <time>2020-09-27T10:46:43.000Z</time>
      </trkpt>
      <trkpt lat="47.33835" lon="-1.52579">
        <ele>3.1</ele>
        <time>2020-09-27T10:46:44.000Z</time>
      </trkpt>
      <trkpt lat="47.33835" lon="-1.52579">
        <ele>3.1</ele>
        <time>2020-09-27T10:46:45.000Z</time>
      </trkpt>
      <trkpt lat="47.33835" lon="-1.52579">
        <ele>3.1</ele>
        <time>2020-09-27T10:46:46.000Z</time>
      </trkpt>
      <trkpt lat="47.33835" lon="-1.52579">
        <ele>3.1</ele>
        <time>2020-09-27T10:46:47.000Z</time>
      </trkpt>
      <trkpt lat="47.33835" lon="-1.52579">
        <ele>3.1</ele>
        <time>2020-09-27T10:46:48.000Z</time>
      </trkpt>
      <trkpt lat="47.33835" lon="-1.52579">
        <ele>3.1</ele>
        <time>2020-09-27T10:46:49.000Z</time>
      </trkpt>
      <trkpt lat="47.33835" lon="-1.52579">
        <ele>3.1</ele>
        <time>2020-09-27T10:46:50.000Z</time>
      </trkpt>
      <trkpt lat="47.33835" lon="-1.52579">
        <ele>3.1</ele>
        <time>2020-09-27T10:46:51.000Z</time>
      </trkpt>
      <trkpt lat="47.33835" lon="-1.52579">
        <ele>3.1</ele>
        <time>2020-09-27T10:46:52.000Z</time>
      </trkpt>
      <trkpt lat="47.33835" lon="-1.52579">
        <ele>3.1</ele>
        <time>2020-09-27T10:46:53.000Z</time>
      </trkpt>
      <trkpt lat="47.33835" lon="-1.52579">
        <ele>3.1</ele>
        <time>2020-09-27T10:46:54.000Z</time>
      </trkpt>
      <trkpt lat="47.33835" lon="-1.52579">
        <ele>3.1</ele>
        <time>2020-09-27T10:46:55.000Z</time>
      </trkpt>
      <trkpt lat="47.33835" lon="-1.52579">
        <ele>3.1</ele>
        <time>2020-09-27T10:46:56.000Z</time>
      </trkpt>
      <trkpt lat="47.33835" lon="-1.52579">
        <ele>3.1</ele>
        <time>2020-09-27T10:46:57.000Z</time>
      </trkpt>
      <trkpt lat="47.33835" lon="-1.52579">
        <ele>3.1</ele>
        <time>2020-09-27T10:46:58.000Z</time>
      </trkpt>
      <trkpt lat="47.33835" lon="-1.52579">
        <ele>3.1</ele>
        <time>2020-09-27T10:46:59.000Z</time>
      </trkpt>
      <trkpt lat="47.33835" lon="-1.52579">
        <ele>3.1</ele>
        <time>2020-09-27T10:47:00.000Z</time>
      </trkpt>
      <trkpt lat="47.33835" lon="-1.52579">
        <ele>3.1</ele>
        <time>2020-09-27T10:47:01.000Z</time>
      </trkpt>
      <trkpt lat="47.33835" lon="-1.52579">
        <ele>3.1</ele>
        <time>2020-09-27T10:47:02.000Z</time>
      </trkpt>
      <trkpt lat="47.33835" lon="-1.52579">
        <ele>3.1</ele>
        <time>2020-09-27T10:47:03.000Z</time>
      </trkpt>
      <trkpt lat="47.33835" lon="-1.52579">
        <ele>3.1</ele>
        <time>2020-09-27T10:47:04.000Z</time>
      </trkpt>
      <trkpt lat="47.33835" lon="-1.52579">
        <ele>3.1</ele>
        <time>2020-09-27T10:47:05.000Z</time>
      </trkpt>
      <trkpt lat="47.33835" lon="-1.52579">
        <ele>3.1</ele>
        <time>2020-09-27T10:47:06.000Z</time>
      </trkpt>
      <trkpt lat="47.33835" lon="-1.52579">
        <ele>3.1</ele>
        <time>2020-09-27T10:47:07.000Z</time>
      </trkpt>
      <trkpt lat="47.33835" lon="-1.52579">
        <ele>3.1</ele>
        <time>2020-09-27T10:47:08.000Z</time>
      </trkpt>
      <trkpt lat="47.33835" lon="-1.5258">
        <ele>3.1</ele>
        <time>2020-09-27T10:47:09.000Z</time>
      </trkpt>
      <trkpt lat="47.33835" lon="-1.52581">
        <ele>3.1</ele>
        <time>2020-09-27T10:47:10.000Z</time>
      </trkpt>
      <trkpt lat="47.33835" lon="-1.52582">
        <ele>3.1</ele>
        <time>2020-09-27T10:47:11.000Z</time>
      </trkpt>
      <trkpt lat="47.33835" lon="-1.52582">
        <ele>3.1</ele>
        <time>2020-09-27T10:47:12.000Z</time>
      </trkpt>
      <trkpt lat="47.33835" lon="-1.52582">
        <ele>3.1</ele>
        <time>2020-09-27T10:47:13.000Z</time>
      </trkpt>
      <trkpt lat="47.33835" lon="-1.52582">
        <ele>3.1</ele>
        <time>2020-09-27T10:47:14.000Z</time>
      </trkpt>
      <trkpt lat="47.33835" lon="-1.52582">
        <ele>3.1</ele>
        <time>2020-09-27T10:47:15.000Z</time>
      </trkpt>
      <trkpt lat="47.33835" lon="-1.52582">
        <ele>3.1</ele>
        <time>2020-09-27T10:47:16.000Z</time>
      </trkpt>
      <trkpt lat="47.33835" lon="-1.52582">
        <ele>3.1</ele>
        <time>2020-09-27T10:47:17.000Z</time>
      </trkpt>
      <trkpt lat="47.33835" lon="-1.52582">
        <ele>3.1</ele>
        <time>2020-09-27T10:47:18.000Z</time>
      </trkpt>
      <trkpt lat="47.33835" lon="-1.52582">
        <ele>3.1</ele>
        <time>2020-09-27T10:47:19.000Z</time>
      </trkpt>
      <trkpt lat="47.33835" lon="-1.52582">
        <ele>3</ele>
        <time>2020-09-27T10:47:20.000Z</time>
      </trkpt>
      <trkpt lat="47.33835" lon="-1.52582">
        <ele>3</ele>
        <time>2020-09-27T10:47:21.000Z</time>
      </trkpt>
      <trkpt lat="47.33834" lon="-1.52582">
        <ele>3</ele>
        <time>2020-09-27T10:47:22.000Z</time>
      </trkpt>
      <trkpt lat="47.33834" lon="-1.52582">
        <ele>3</ele>
        <time>2020-09-27T10:47:23.000Z</time>
      </trkpt>
      <trkpt lat="47.33833" lon="-1.52582">
        <ele>3</ele>
        <time>2020-09-27T10:47:24.000Z</time>
      </trkpt>
      <trkpt lat="47.33832" lon="-1.52582">
        <ele>3</ele>
        <time>2020-09-27T10:47:25.000Z</time>
      </trkpt>
      <trkpt lat="47.33832" lon="-1.52582">
        <ele>3</ele>
        <time>2020-09-27T10:47:26.000Z</time>
      </trkpt>
      <trkpt lat="47.33831" lon="-1.52581">
        <ele>3</ele>
        <time>2020-09-27T10:47:27.000Z</time>
      </trkpt>
      <trkpt lat="47.33831" lon="-1.52581">
        <ele>3</ele>
        <time>2020-09-27T10:47:28.000Z</time>
      </trkpt>
      <trkpt lat="47.3383" lon="-1.5258">
        <ele>3</ele>
        <time>2020-09-27T10:47:29.000Z</time>
      </trkpt>
      <trkpt lat="47.3383" lon="-1.52579">
        <ele>3</ele>
        <time>2020-09-27T10:47:30.000Z</time>
      </trkpt>
      <trkpt lat="47.33829" lon="-1.52579">
        <ele>3</ele>
        <time>2020-09-27T10:47:31.000Z</time>
      </trkpt>
      <trkpt lat="47.33828" lon="-1.52579">
        <ele>3</ele>
        <time>2020-09-27T10:47:32.000Z</time>
      </trkpt>
      <trkpt lat="47.33827" lon="-1.52578">
        <ele>3</ele>
        <time>2020-09-27T10:47:33.000Z</time>
      </trkpt>
      <trkpt lat="47.33827" lon="-1.52578">
        <ele>3</ele>
        <time>2020-09-27T10:47:34.000Z</time>
      </trkpt>
      <trkpt lat="47.33826" lon="-1.52578">
        <ele>3</ele>
        <time>2020-09-27T10:47:35.000Z</time>
      </trkpt>
      <trkpt lat="47.33826" lon="-1.52578">
        <ele>3</ele>
        <time>2020-09-27T10:47:36.000Z</time>
      </trkpt>
      <trkpt lat="47.33826" lon="-1.52578">
        <ele>3</ele>
        <time>2020-09-27T10:47:37.000Z</time>
      </trkpt>
      <trkpt lat="47.33826" lon="-1.52578">
        <ele>3</ele>
        <time>2020-09-27T10:47:38.000Z</time>
      </trkpt>
      <trkpt lat="47.33826" lon="-1.52578">
        <ele>3</ele>
        <time>2020-09-27T10:47:39.000Z</time>
      </trkpt>
      <trkpt lat="47.33826" lon="-1.52578">
        <ele>3</ele>
        <time>2020-09-27T10:47:40.000Z</time>
      </trkpt>
      <trkpt lat="47.33826" lon="-1.52578">
        <ele>3</ele>
        <time>2020-09-27T10:47:41.000Z</time>
      </trkpt>
      <trkpt lat="47.33826" lon="-1.52578">
        <ele>3</ele>
        <time>2020-09-27T10:47:42.000Z</time>
      </trkpt>
      <trkpt lat="47.33826" lon="-1.52578">
        <ele>3</ele>
        <time>2020-09-27T10:47:43.000Z</time>
      </trkpt>
      <trkpt lat="47.33826" lon="-1.52578">
        <ele>3</ele>
        <time>2020-09-27T10:47:44.000Z</time>
      </trkpt>
      <trkpt lat="47.33826" lon="-1.52578">
        <ele>3</ele>
        <time>2020-09-27T10:47:45.000Z</time>
      </trkpt>
      <trkpt lat="47.33827" lon="-1.52579">
        <ele>3</ele>
        <time>2020-09-27T10:47:46.000Z</time>
      </trkpt>
      <trkpt lat="47.33827" lon="-1.52579">
        <ele>3</ele>
        <time>2020-09-27T10:47:47.000Z</time>
      </trkpt>
      <trkpt lat="47.33827" lon="-1.52579">
        <ele>3</ele>
        <time>2020-09-27T10:47:48.000Z</time>
      </trkpt>
      <trkpt lat="47.33828" lon="-1.52579">
        <ele>3</ele>
        <time>2020-09-27T10:47:49.000Z</time>
      </trkpt>
      <trkpt lat="47.33829" lon="-1.5258">
        <ele>3</ele>
        <time>2020-09-27T10:47:50.000Z</time>
      </trkpt>
      <trkpt lat="47.33829" lon="-1.5258">
        <ele>3</ele>
        <time>2020-09-27T10:47:51.000Z</time>
      </trkpt>
      <trkpt lat="47.3383" lon="-1.5258">
        <ele>3</ele>
        <time>2020-09-27T10:47:52.000Z</time>
      </trkpt>
      <trkpt lat="47.3383" lon="-1.52581">
        <ele>3</ele>
        <time>2020-09-27T10:47:53.000Z</time>
      </trkpt>
      <trkpt lat="47.3383" lon="-1.52581">
        <ele>3</ele>
        <time>2020-09-27T10:47:54.000Z</time>
      </trkpt>
      <trkpt lat="47.33831" lon="-1.52581">
        <ele>3</ele>
        <time>2020-09-27T10:47:55.000Z</time>
      </trkpt>
      <trkpt lat="47.33831" lon="-1.52581">
        <ele>3</ele>
        <time>2020-09-27T10:47:56.000Z</time>
      </trkpt>
      <trkpt lat="47.33831" lon="-1.52581">
        <ele>3</ele>
        <time>2020-09-27T10:47:57.000Z</time>
      </trkpt>
      <trkpt lat="47.33831" lon="-1.52581">
        <ele>3</ele>
        <time>2020-09-27T10:47:58.000Z</time>
      </trkpt>
      <trkpt lat="47.33831" lon="-1.52581">
        <ele>3</ele>
        <time>2020-09-27T10:47:59.000Z</time>
      </trkpt>
      <trkpt lat="47.33831" lon="-1.52581">
        <ele>3</ele>
        <time>2020-09-27T10:48:00.000Z</time>
      </trkpt>
      <trkpt lat="47.33831" lon="-1.52581">
        <ele>3</ele>
        <time>2020-09-27T10:48:01.000Z</time>
      </trkpt>
      <trkpt lat="47.33831" lon="-1.52582">
        <ele>3</ele>
        <time>2020-09-27T10:48:02.000Z</time>
      </trkpt>
      <trkpt lat="47.33832" lon="-1.52582">
        <ele>3</ele>
        <time>2020-09-27T10:48:03.000Z</time>
      </trkpt>
      <trkpt lat="47.33832" lon="-1.52582">
        <ele>3</ele>
        <time>2020-09-27T10:48:04.000Z</time>
      </trkpt>
      <trkpt lat="47.33833" lon="-1.52582">
        <ele>3</ele>
        <time>2020-09-27T10:48:05.000Z</time>
      </trkpt>
      <trkpt lat="47.33834" lon="-1.52583">
        <ele>3</ele>
        <time>2020-09-27T10:48:06.000Z</time>
      </trkpt>
      <trkpt lat="47.33834" lon="-1.52583">
        <ele>3</ele>
        <time>2020-09-27T10:48:07.000Z</time>
      </trkpt>
      <trkpt lat="47.33834" lon="-1.52583">
        <ele>3</ele>
        <time>2020-09-27T10:48:08.000Z</time>
      </trkpt>
      <trkpt lat="47.33835" lon="-1.52583">
        <ele>3</ele>
        <time>2020-09-27T10:48:09.000Z</time>
      </trkpt>
      <trkpt lat="47.33835" lon="-1.52583">
        <ele>3</ele>
        <time>2020-09-27T10:48:10.000Z</time>
      </trkpt>
      <trkpt lat="47.33835" lon="-1.52583">
        <ele>3</ele>
        <time>2020-09-27T10:48:11.000Z</time>
      </trkpt>
      <trkpt lat="47.33835" lon="-1.52583">
        <ele>3</ele>
        <time>2020-09-27T10:48:12.000Z</time>
      </trkpt>
      <trkpt lat="47.33835" lon="-1.52583">
        <ele>3</ele>
        <time>2020-09-27T10:48:13.000Z</time>
      </trkpt>
      <trkpt lat="47.33835" lon="-1.52583">
        <ele>3</ele>
        <time>2020-09-27T10:48:14.000Z</time>
      </trkpt>
      <trkpt lat="47.33835" lon="-1.52583">
        <ele>3</ele>
        <time>2020-09-27T10:48:15.000Z</time>
      </trkpt>
      <trkpt lat="47.33835" lon="-1.52583">
        <ele>3</ele>
        <time>2020-09-27T10:48:16.000Z</time>
      </trkpt>
      <trkpt lat="47.33835" lon="-1.52583">
        <ele>3</ele>
        <time>2020-09-27T10:48:17.000Z</time>
      </trkpt>
      <trkpt lat="47.33835" lon="-1.52583">
        <ele>3</ele>
        <time>2020-09-27T10:48:18.000Z</time>
      </trkpt>
      <trkpt lat="47.33835" lon="-1.52583">
        <ele>3</ele>
        <time>2020-09-27T10:48:19.000Z</time>
      </trkpt>
      <trkpt lat="47.33835" lon="-1.52583">
        <ele>3</ele>
        <time>2020-09-27T10:48:20.000Z</time>
      </trkpt>
      <trkpt lat="47.33835" lon="-1.52583">
        <ele>3</ele>
        <time>2020-09-27T10:48:21.000Z</time>
      </trkpt>
      <trkpt lat="47.33835" lon="-1.52583">
        <ele>3</ele>
        <time>2020-09-27T10:48:22.000Z</time>
      </trkpt>
      <trkpt lat="47.33835" lon="-1.52583">
        <ele>3</ele>
        <time>2020-09-27T10:48:23.000Z</time>
      </trkpt>
      <trkpt lat="47.33835" lon="-1.52583">
        <ele>3</ele>
        <time>2020-09-27T10:48:24.000Z</time>
      </trkpt>
      <trkpt lat="47.33835" lon="-1.52583">
        <ele>3</ele>
        <time>2020-09-27T10:48:25.000Z</time>
      </trkpt>
      <trkpt lat="47.33835" lon="-1.52583">
        <ele>3</ele>
        <time>2020-09-27T10:48:26.000Z</time>
      </trkpt>
      <trkpt lat="47.33835" lon="-1.52583">
        <ele>3</ele>
        <time>2020-09-27T10:48:27.000Z</time>
      </trkpt>
      <trkpt lat="47.33835" lon="-1.52583">
        <ele>3</ele>
        <time>2020-09-27T10:48:28.000Z</time>
      </trkpt>
      <trkpt lat="47.33835" lon="-1.52583">
        <ele>3</ele>
        <time>2020-09-27T10:48:29.000Z</time>
      </trkpt>
      <trkpt lat="47.33835" lon="-1.52583">
        <ele>3</ele>
        <time>2020-09-27T10:48:30.000Z</time>
      </trkpt>
      <trkpt lat="47.33835" lon="-1.52583">
        <ele>3</ele>
        <time>2020-09-27T10:48:31.000Z</time>
      </trkpt>
      <trkpt lat="47.33835" lon="-1.52583">
        <ele>3</ele>
        <time>2020-09-27T10:48:32.000Z</time>
      </trkpt>
      <trkpt lat="47.33835" lon="-1.52583">
        <ele>3</ele>
        <time>2020-09-27T10:48:33.000Z</time>
      </trkpt>
      <trkpt lat="47.33835" lon="-1.52583">
        <ele>3</ele>
        <time>2020-09-27T10:48:34.000Z</time>
      </trkpt>
      <trkpt lat="47.33835" lon="-1.52583">
        <ele>3</ele>
        <time>2020-09-27T10:48:35.000Z</time>
      </trkpt>
      <trkpt lat="47.33835" lon="-1.52583">
        <ele>3</ele>
        <time>2020-09-27T10:48:36.000Z</time>
      </trkpt>
      <trkpt lat="47.33835" lon="-1.52583">
        <ele>3</ele>
        <time>2020-09-27T10:48:37.000Z</time>
      </trkpt>
      <trkpt lat="47.33835" lon="-1.52583">
        <ele>3</ele>
        <time>2020-09-27T10:48:38.000Z</time>
      </trkpt>
      <trkpt lat="47.33835" lon="-1.52583">
        <ele>3</ele>
        <time>2020-09-27T10:48:39.000Z</time>
      </trkpt>
      <trkpt lat="47.33835" lon="-1.52583">
        <ele>3</ele>
        <time>2020-09-27T10:48:40.000Z</time>
      </trkpt>
      <trkpt lat="47.33835" lon="-1.52583">
        <ele>3</ele>
        <time>2020-09-27T10:48:41.000Z</time>
      </trkpt>
      <trkpt lat="47.33835" lon="-1.52583">
        <ele>3</ele>
        <time>2020-09-27T10:48:42.000Z</time>
      </trkpt>
      <trkpt lat="47.33835" lon="-1.52583">
        <ele>3</ele>
        <time>2020-09-27T10:48:43.000Z</time>
      </trkpt>
      <trkpt lat="47.33835" lon="-1.52583">
        <ele>3</ele>
        <time>2020-09-27T10:48:44.000Z</time>
      </trkpt>
      <trkpt lat="47.33835" lon="-1.52583">
        <ele>3</ele>
        <time>2020-09-27T10:48:45.000Z</time>
      </trkpt>
      <trkpt lat="47.33835" lon="-1.52583">
        <ele>3</ele>
        <time>2020-09-27T10:48:46.000Z</time>
      </trkpt>
      <trkpt lat="47.33835" lon="-1.52583">
        <ele>3</ele>
        <time>2020-09-27T10:48:47.000Z</time>
      </trkpt>
      <trkpt lat="47.33835" lon="-1.52583">
        <ele>3</ele>
        <time>2020-09-27T10:48:48.000Z</time>
      </trkpt>
      <trkpt lat="47.33835" lon="-1.52583">
        <ele>3</ele>
        <time>2020-09-27T10:48:49.000Z</time>
      </trkpt>
      <trkpt lat="47.33835" lon="-1.52583">
        <ele>3</ele>
        <time>2020-09-27T10:48:50.000Z</time>
      </trkpt>
      <trkpt lat="47.33835" lon="-1.52583">
        <ele>3</ele>
        <time>2020-09-27T10:48:51.000Z</time>
      </trkpt>
      <trkpt lat="47.33835" lon="-1.52583">
        <ele>3</ele>
        <time>2020-09-27T10:48:52.000Z</time>
      </trkpt>
      <trkpt lat="47.33835" lon="-1.52583">
        <ele>3</ele>
        <time>2020-09-27T10:48:53.000Z</time>
      </trkpt>
      <trkpt lat="47.33835" lon="-1.52583">
        <ele>3</ele>
        <time>2020-09-27T10:48:54.000Z</time>
      </trkpt>
      <trkpt lat="47.33835" lon="-1.52583">
        <ele>3</ele>
        <time>2020-09-27T10:48:55.000Z</time>
      </trkpt>
      <trkpt lat="47.33835" lon="-1.52583">
        <ele>3</ele>
        <time>2020-09-27T10:48:56.000Z</time>
      </trkpt>
      <trkpt lat="47.33835" lon="-1.52583">
        <ele>3</ele>
        <time>2020-09-27T10:48:57.000Z</time>
      </trkpt>
      <trkpt lat="47.33835" lon="-1.52583">
        <ele>3</ele>
        <time>2020-09-27T10:48:58.000Z</time>
      </trkpt>
      <trkpt lat="47.33835" lon="-1.52583">
        <ele>3</ele>
        <time>2020-09-27T10:48:59.000Z</time>
      </trkpt>
      <trkpt lat="47.33835" lon="-1.52583">
        <ele>3</ele>
        <time>2020-09-27T10:49:00.000Z</time>
      </trkpt>
      <trkpt lat="47.33835" lon="-1.52583">
        <ele>3</ele>
        <time>2020-09-27T10:49:01.000Z</time>
      </trkpt>
      <trkpt lat="47.33835" lon="-1.52583">
        <ele>3</ele>
        <time>2020-09-27T10:49:02.000Z</time>
      </trkpt>
      <trkpt lat="47.33835" lon="-1.52583">
        <ele>3</ele>
        <time>2020-09-27T10:49:03.000Z</time>
      </trkpt>
      <trkpt lat="47.33835" lon="-1.52583">
        <ele>3</ele>
        <time>2020-09-27T10:49:04.000Z</time>
      </trkpt>
      <trkpt lat="47.33835" lon="-1.52583">
        <ele>3</ele>
        <time>2020-09-27T10:49:05.000Z</time>
      </trkpt>
      <trkpt lat="47.33835" lon="-1.52583">
        <ele>3</ele>
        <time>2020-09-27T10:49:06.000Z</time>
      </trkpt>
      <trkpt lat="47.33835" lon="-1.52583">
        <ele>3</ele>
        <time>2020-09-27T10:49:07.000Z</time>
      </trkpt>
      <trkpt lat="47.33835" lon="-1.52583">
        <ele>3</ele>
        <time>2020-09-27T10:49:08.000Z</time>
      </trkpt>
      <trkpt lat="47.33835" lon="-1.52583">
        <ele>3</ele>
        <time>2020-09-27T10:49:09.000Z</time>
      </trkpt>
      <trkpt lat="47.33835" lon="-1.52583">
        <ele>3</ele>
        <time>2020-09-27T10:49:10.000Z</time>
      </trkpt>
      <trkpt lat="47.33835" lon="-1.52583">
        <ele>3</ele>
        <time>2020-09-27T10:49:11.000Z</time>
      </trkpt>
      <trkpt lat="47.33835" lon="-1.52583">
        <ele>3</ele>
        <time>2020-09-27T10:49:12.000Z</time>
      </trkpt>
      <trkpt lat="47.33835" lon="-1.52583">
        <ele>3</ele>
        <time>2020-09-27T10:49:13.000Z</time>
      </trkpt>
      <trkpt lat="47.33835" lon="-1.52583">
        <ele>3</ele>
        <time>2020-09-27T10:49:14.000Z</time>
      </trkpt>
      <trkpt lat="47.33835" lon="-1.52583">
        <ele>3</ele>
        <time>2020-09-27T10:49:15.000Z</time>
      </trkpt>
      <trkpt lat="47.33835" lon="-1.52583">
        <ele>3</ele>
        <time>2020-09-27T10:49:16.000Z</time>
      </trkpt>
      <trkpt lat="47.33835" lon="-1.52583">
        <ele>3</ele>
        <time>2020-09-27T10:49:17.000Z</time>
      </trkpt>
      <trkpt lat="47.33835" lon="-1.52583">
        <ele>3</ele>
        <time>2020-09-27T10:49:18.000Z</time>
      </trkpt>
      <trkpt lat="47.33835" lon="-1.52583">
        <ele>3</ele>
        <time>2020-09-27T10:49:19.000Z</time>
      </trkpt>
      <trkpt lat="47.33835" lon="-1.52583">
        <ele>3</ele>
        <time>2020-09-27T10:49:20.000Z</time>
      </trkpt>
      <trkpt lat="47.33835" lon="-1.52583">
        <ele>3</ele>
        <time>2020-09-27T10:49:21.000Z</time>
      </trkpt>
      <trkpt lat="47.33835" lon="-1.52583">
        <ele>3</ele>
        <time>2020-09-27T10:49:22.000Z</time>
      </trkpt>
      <trkpt lat="47.33835" lon="-1.52583">
        <ele>3</ele>
        <time>2020-09-27T10:49:23.000Z</time>
      </trkpt>
      <trkpt lat="47.33835" lon="-1.52583">
        <ele>3</ele>
        <time>2020-09-27T10:49:24.000Z</time>
      </trkpt>
      <trkpt lat="47.33835" lon="-1.52583">
        <ele>3</ele>
        <time>2020-09-27T10:49:25.000Z</time>
      </trkpt>
      <trkpt lat="47.33835" lon="-1.52583">
        <ele>3</ele>
        <time>2020-09-27T10:49:26.000Z</time>
      </trkpt>
      <trkpt lat="47.33835" lon="-1.52583">
        <ele>3</ele>
        <time>2020-09-27T10:49:27.000Z</time>
      </trkpt>
      <trkpt lat="47.33835" lon="-1.52583">
        <ele>3</ele>
        <time>2020-09-27T10:49:28.000Z</time>
      </trkpt>
      <trkpt lat="47.33835" lon="-1.52583">
        <ele>3</ele>
        <time>2020-09-27T10:49:29.000Z</time>
      </trkpt>
      <trkpt lat="47.33835" lon="-1.52583">
        <ele>3</ele>
        <time>2020-09-27T10:49:30.000Z</time>
      </trkpt>
      <trkpt lat="47.33835" lon="-1.52583">
        <ele>3</ele>
        <time>2020-09-27T10:49:31.000Z</time>
      </trkpt>
      <trkpt lat="47.33835" lon="-1.52583">
        <ele>3</ele>
        <time>2020-09-27T10:49:32.000Z</time>
      </trkpt>
      <trkpt lat="47.33835" lon="-1.52583">
        <ele>3</ele>
        <time>2020-09-27T10:49:33.000Z</time>
      </trkpt>
      <trkpt lat="47.33835" lon="-1.52583">
        <ele>3</ele>
        <time>2020-09-27T10:49:34.000Z</time>
      </trkpt>
      <trkpt lat="47.33835" lon="-1.52583">
        <ele>3</ele>
        <time>2020-09-27T10:49:35.000Z</time>
      </trkpt>
      <trkpt lat="47.33835" lon="-1.52583">
        <ele>3</ele>
        <time>2020-09-27T10:49:36.000Z</time>
      </trkpt>
      <trkpt lat="47.33835" lon="-1.52583">
        <ele>3</ele>
        <time>2020-09-27T10:49:37.000Z</time>
      </trkpt>
      <trkpt lat="47.33835" lon="-1.52583">
        <ele>3</ele>
        <time>2020-09-27T10:49:38.000Z</time>
      </trkpt>
      <trkpt lat="47.33835" lon="-1.52583">
        <ele>3</ele>
        <time>2020-09-27T10:49:39.000Z</time>
      </trkpt>
      <trkpt lat="47.33835" lon="-1.52583">
        <ele>3</ele>
        <time>2020-09-27T10:49:40.000Z</time>
      </trkpt>
      <trkpt lat="47.33835" lon="-1.52583">
        <ele>3</ele>
        <time>2020-09-27T10:49:41.000Z</time>
      </trkpt>
      <trkpt lat="47.33835" lon="-1.52583">
        <ele>3</ele>
        <time>2020-09-27T10:49:42.000Z</time>
      </trkpt>
      <trkpt lat="47.33835" lon="-1.52583">
        <ele>3</ele>
        <time>2020-09-27T10:49:43.000Z</time>
      </trkpt>
      <trkpt lat="47.33835" lon="-1.52583">
        <ele>3</ele>
        <time>2020-09-27T10:49:44.000Z</time>
      </trkpt>
      <trkpt lat="47.33835" lon="-1.52583">
        <ele>3</ele>
        <time>2020-09-27T10:49:45.000Z</time>
      </trkpt>
      <trkpt lat="47.33835" lon="-1.52583">
        <ele>3</ele>
        <time>2020-09-27T10:49:46.000Z</time>
      </trkpt>
      <trkpt lat="47.33835" lon="-1.52583">
        <ele>3</ele>
        <time>2020-09-27T10:49:47.000Z</time>
      </trkpt>
      <trkpt lat="47.33835" lon="-1.52583">
        <ele>3</ele>
        <time>2020-09-27T10:49:48.000Z</time>
      </trkpt>
      <trkpt lat="47.33835" lon="-1.52583">
        <ele>3</ele>
        <time>2020-09-27T10:49:49.000Z</time>
      </trkpt>
      <trkpt lat="47.33835" lon="-1.52583">
        <ele>3</ele>
        <time>2020-09-27T10:49:50.000Z</time>
      </trkpt>
      <trkpt lat="47.33835" lon="-1.52583">
        <ele>3</ele>
        <time>2020-09-27T10:49:51.000Z</time>
      </trkpt>
      <trkpt lat="47.33835" lon="-1.52583">
        <ele>3</ele>
        <time>2020-09-27T10:49:52.000Z</time>
      </trkpt>
      <trkpt lat="47.33835" lon="-1.52583">
        <ele>3</ele>
        <time>2020-09-27T10:49:53.000Z</time>
      </trkpt>
      <trkpt lat="47.33835" lon="-1.52583">
        <ele>3</ele>
        <time>2020-09-27T10:49:54.000Z</time>
      </trkpt>
      <trkpt lat="47.33835" lon="-1.52583">
        <ele>3</ele>
        <time>2020-09-27T10:49:55.000Z</time>
      </trkpt>
      <trkpt lat="47.33835" lon="-1.52583">
        <ele>3</ele>
        <time>2020-09-27T10:49:56.000Z</time>
      </trkpt>
      <trkpt lat="47.33835" lon="-1.52583">
        <ele>3</ele>
        <time>2020-09-27T10:49:57.000Z</time>
      </trkpt>
      <trkpt lat="47.33835" lon="-1.52583">
        <ele>3</ele>
        <time>2020-09-27T10:49:58.000Z</time>
      </trkpt>
      <trkpt lat="47.33835" lon="-1.52583">
        <ele>3</ele>
        <time>2020-09-27T10:49:59.000Z</time>
      </trkpt>
      <trkpt lat="47.33835" lon="-1.52583">
        <ele>3</ele>
        <time>2020-09-27T10:50:00.000Z</time>
      </trkpt>
      <trkpt lat="47.33835" lon="-1.52583">
        <ele>3</ele>
        <time>2020-09-27T10:50:01.000Z</time>
      </trkpt>
      <trkpt lat="47.33835" lon="-1.52583">
        <ele>3</ele>
        <time>2020-09-27T10:50:02.000Z</time>
      </trkpt>
      <trkpt lat="47.33835" lon="-1.52583">
        <ele>3</ele>
        <time>2020-09-27T10:50:03.000Z</time>
      </trkpt>
      <trkpt lat="47.33835" lon="-1.52583">
        <ele>3</ele>
        <time>2020-09-27T10:50:04.000Z</time>
      </trkpt>
      <trkpt lat="47.33835" lon="-1.52583">
        <ele>3</ele>
        <time>2020-09-27T10:50:05.000Z</time>
      </trkpt>
      <trkpt lat="47.33835" lon="-1.52583">
        <ele>3</ele>
        <time>2020-09-27T10:50:06.000Z</time>
      </trkpt>
      <trkpt lat="47.33835" lon="-1.52583">
        <ele>3</ele>
        <time>2020-09-27T10:50:07.000Z</time>
      </trkpt>
      <trkpt lat="47.33835" lon="-1.52583">
        <ele>3</ele>
        <time>2020-09-27T10:50:08.000Z</time>
      </trkpt>
      <trkpt lat="47.33835" lon="-1.52583">
        <ele>3</ele>
        <time>2020-09-27T10:50:09.000Z</time>
      </trkpt>
      <trkpt lat="47.33835" lon="-1.52583">
        <ele>3</ele>
        <time>2020-09-27T10:50:10.000Z</time>
      </trkpt>
      <trkpt lat="47.33835" lon="-1.52583">
        <ele>3</ele>
        <time>2020-09-27T10:50:11.000Z</time>
      </trkpt>
      <trkpt lat="47.33835" lon="-1.52583">
        <ele>3</ele>
        <time>2020-09-27T10:50:12.000Z</time>
      </trkpt>
      <trkpt lat="47.33835" lon="-1.52583">
        <ele>3</ele>
        <time>2020-09-27T10:50:13.000Z</time>
      </trkpt>
      <trkpt lat="47.33835" lon="-1.52583">
        <ele>3</ele>
        <time>2020-09-27T10:50:14.000Z</time>
      </trkpt>
      <trkpt lat="47.33835" lon="-1.52583">
        <ele>3</ele>
        <time>2020-09-27T10:50:15.000Z</time>
      </trkpt>
      <trkpt lat="47.33835" lon="-1.52583">
        <ele>3</ele>
        <time>2020-09-27T10:50:16.000Z</time>
      </trkpt>
      <trkpt lat="47.33835" lon="-1.52583">
        <ele>3</ele>
        <time>2020-09-27T10:50:17.000Z</time>
      </trkpt>
      <trkpt lat="47.33835" lon="-1.52583">
        <ele>3</ele>
        <time>2020-09-27T10:50:18.000Z</time>
      </trkpt>
      <trkpt lat="47.33835" lon="-1.52583">
        <ele>3</ele>
        <time>2020-09-27T10:50:19.000Z</time>
      </trkpt>
      <trkpt lat="47.33835" lon="-1.52583">
        <ele>3</ele>
        <time>2020-09-27T10:50:20.000Z</time>
      </trkpt>
      <trkpt lat="47.33835" lon="-1.52583">
        <ele>3</ele>
        <time>2020-09-27T10:50:21.000Z</time>
      </trkpt>
      <trkpt lat="47.33835" lon="-1.52583">
        <ele>3</ele>
        <time>2020-09-27T10:50:22.000Z</time>
      </trkpt>
      <trkpt lat="47.33835" lon="-1.52583">
        <ele>3</ele>
        <time>2020-09-27T10:50:23.000Z</time>
      </trkpt>
      <trkpt lat="47.33835" lon="-1.52583">
        <ele>3</ele>
        <time>2020-09-27T10:50:24.000Z</time>
      </trkpt>
      <trkpt lat="47.33835" lon="-1.52583">
        <ele>3</ele>
        <time>2020-09-27T10:50:25.000Z</time>
      </trkpt>
      <trkpt lat="47.33835" lon="-1.52583">
        <ele>3</ele>
        <time>2020-09-27T10:50:26.000Z</time>
      </trkpt>
      <trkpt lat="47.33835" lon="-1.52583">
        <ele>3</ele>
        <time>2020-09-27T10:50:27.000Z</time>
      </trkpt>
      <trkpt lat="47.33835" lon="-1.52583">
        <ele>3</ele>
        <time>2020-09-27T10:50:28.000Z</time>
      </trkpt>
      <trkpt lat="47.33835" lon="-1.52583">
        <ele>3</ele>
        <time>2020-09-27T10:50:29.000Z</time>
      </trkpt>
      <trkpt lat="47.33835" lon="-1.52583">
        <ele>3</ele>
        <time>2020-09-27T10:50:30.000Z</time>
      </trkpt>
      <trkpt lat="47.33835" lon="-1.52583">
        <ele>3</ele>
        <time>2020-09-27T10:50:31.000Z</time>
      </trkpt>
      <trkpt lat="47.33835" lon="-1.52583">
        <ele>3</ele>
        <time>2020-09-27T10:50:32.000Z</time>
      </trkpt>
      <trkpt lat="47.33835" lon="-1.52583">
        <ele>3</ele>
        <time>2020-09-27T10:50:33.000Z</time>
      </trkpt>
      <trkpt lat="47.33835" lon="-1.52583">
        <ele>3</ele>
        <time>2020-09-27T10:50:34.000Z</time>
      </trkpt>
      <trkpt lat="47.33835" lon="-1.52583">
        <ele>3</ele>
        <time>2020-09-27T10:50:35.000Z</time>
      </trkpt>
      <trkpt lat="47.33835" lon="-1.52583">
        <ele>3</ele>
        <time>2020-09-27T10:50:36.000Z</time>
      </trkpt>
      <trkpt lat="47.33835" lon="-1.52583">
        <ele>3</ele>
        <time>2020-09-27T10:50:37.000Z</time>
      </trkpt>
      <trkpt lat="47.33835" lon="-1.52583">
        <ele>3</ele>
        <time>2020-09-27T10:50:38.000Z</time>
      </trkpt>
      <trkpt lat="47.33835" lon="-1.52583">
        <ele>3</ele>
        <time>2020-09-27T10:50:39.000Z</time>
      </trkpt>
      <trkpt lat="47.33835" lon="-1.52583">
        <ele>3</ele>
        <time>2020-09-27T10:50:40.000Z</time>
      </trkpt>
      <trkpt lat="47.33835" lon="-1.52583">
        <ele>3</ele>
        <time>2020-09-27T10:50:41.000Z</time>
      </trkpt>
      <trkpt lat="47.33835" lon="-1.52583">
        <ele>3</ele>
        <time>2020-09-27T10:50:42.000Z</time>
      </trkpt>
      <trkpt lat="47.33835" lon="-1.52583">
        <ele>3</ele>
        <time>2020-09-27T10:50:43.000Z</time>
      </trkpt>
      <trkpt lat="47.33835" lon="-1.52583">
        <ele>3</ele>
        <time>2020-09-27T10:50:44.000Z</time>
      </trkpt>
      <trkpt lat="47.33835" lon="-1.52583">
        <ele>3</ele>
        <time>2020-09-27T10:50:45.000Z</time>
      </trkpt>
      <trkpt lat="47.33835" lon="-1.52583">
        <ele>3</ele>
        <time>2020-09-27T10:50:46.000Z</time>
      </trkpt>
      <trkpt lat="47.33835" lon="-1.52583">
        <ele>3</ele>
        <time>2020-09-27T10:50:47.000Z</time>
      </trkpt>
      <trkpt lat="47.33835" lon="-1.52583">
        <ele>3</ele>
        <time>2020-09-27T10:50:48.000Z</time>
      </trkpt>
      <trkpt lat="47.33835" lon="-1.52583">
        <ele>3</ele>
        <time>2020-09-27T10:50:49.000Z</time>
      </trkpt>
      <trkpt lat="47.33835" lon="-1.52583">
        <ele>3</ele>
        <time>2020-09-27T10:50:50.000Z</time>
      </trkpt>
      <trkpt lat="47.33835" lon="-1.52583">
        <ele>3</ele>
        <time>2020-09-27T10:50:51.000Z</time>
      </trkpt>
      <trkpt lat="47.33835" lon="-1.52583">
        <ele>3</ele>
        <time>2020-09-27T10:50:52.000Z</time>
      </trkpt>
      <trkpt lat="47.33835" lon="-1.52583">
        <ele>3</ele>
        <time>2020-09-27T10:50:53.000Z</time>
      </trkpt>
      <trkpt lat="47.33835" lon="-1.52583">
        <ele>3</ele>
        <time>2020-09-27T10:50:54.000Z</time>
      </trkpt>
      <trkpt lat="47.33835" lon="-1.52583">
        <ele>3</ele>
        <time>2020-09-27T10:50:55.000Z</time>
      </trkpt>
      <trkpt lat="47.33835" lon="-1.52583">
        <ele>3</ele>
        <time>2020-09-27T10:50:56.000Z</time>
      </trkpt>
      <trkpt lat="47.33835" lon="-1.52583">
        <ele>3</ele>
        <time>2020-09-27T10:50:57.000Z</time>
      </trkpt>
      <trkpt lat="47.33835" lon="-1.52583">
        <ele>3</ele>
        <time>2020-09-27T10:50:58.000Z</time>
      </trkpt>
      <trkpt lat="47.33835" lon="-1.52583">
        <ele>3</ele>
        <time>2020-09-27T10:50:59.000Z</time>
      </trkpt>
      <trkpt lat="47.33835" lon="-1.52583">
        <ele>3</ele>
        <time>2020-09-27T10:51:00.000Z</time>
      </trkpt>
      <trkpt lat="47.33835" lon="-1.52583">
        <ele>3</ele>
        <time>2020-09-27T10:51:01.000Z</time>
      </trkpt>
      <trkpt lat="47.33835" lon="-1.52583">
        <ele>3</ele>
        <time>2020-09-27T10:51:02.000Z</time>
      </trkpt>
      <trkpt lat="47.33835" lon="-1.52583">
        <ele>3</ele>
        <time>2020-09-27T10:51:03.000Z</time>
      </trkpt>
      <trkpt lat="47.33835" lon="-1.52583">
        <ele>3</ele>
        <time>2020-09-27T10:51:04.000Z</time>
      </trkpt>
      <trkpt lat="47.33835" lon="-1.52583">
        <ele>3</ele>
        <time>2020-09-27T10:51:05.000Z</time>
      </trkpt>
      <trkpt lat="47.33835" lon="-1.52583">
        <ele>3</ele>
        <time>2020-09-27T10:51:06.000Z</time>
      </trkpt>
      <trkpt lat="47.33835" lon="-1.52583">
        <ele>3</ele>
        <time>2020-09-27T10:51:07.000Z</time>
      </trkpt>
      <trkpt lat="47.33835" lon="-1.52583">
        <ele>3</ele>
        <time>2020-09-27T10:51:08.000Z</time>
      </trkpt>
      <trkpt lat="47.33835" lon="-1.52583">
        <ele>3</ele>
        <time>2020-09-27T10:51:09.000Z</time>
      </trkpt>
      <trkpt lat="47.33835" lon="-1.52583">
        <ele>3</ele>
        <time>2020-09-27T10:51:10.000Z</time>
      </trkpt>
      <trkpt lat="47.33835" lon="-1.52583">
        <ele>3</ele>
        <time>2020-09-27T10:51:11.000Z</time>
      </trkpt>
      <trkpt lat="47.33835" lon="-1.52583">
        <ele>3</ele>
        <time>2020-09-27T10:51:12.000Z</time>
      </trkpt>
      <trkpt lat="47.33835" lon="-1.52583">
        <ele>3</ele>
        <time>2020-09-27T10:51:13.000Z</time>
      </trkpt>
      <trkpt lat="47.33835" lon="-1.52583">
        <ele>3</ele>
        <time>2020-09-27T10:51:14.000Z</time>
      </trkpt>
      <trkpt lat="47.33835" lon="-1.52583">
        <ele>3</ele>
        <time>2020-09-27T10:51:15.000Z</time>
      </trkpt>
      <trkpt lat="47.33835" lon="-1.52583">
        <ele>3</ele>
        <time>2020-09-27T10:51:16.000Z</time>
      </trkpt>
      <trkpt lat="47.33835" lon="-1.52583">
        <ele>3</ele>
        <time>2020-09-27T10:51:17.000Z</time>
      </trkpt>
      <trkpt lat="47.33835" lon="-1.52583">
        <ele>3</ele>
        <time>2020-09-27T10:51:18.000Z</time>
      </trkpt>
      <trkpt lat="47.33835" lon="-1.52583">
        <ele>3</ele>
        <time>2020-09-27T10:51:19.000Z</time>
      </trkpt>
      <trkpt lat="47.33835" lon="-1.52583">
        <ele>3</ele>
        <time>2020-09-27T10:51:20.000Z</time>
      </trkpt>
      <trkpt lat="47.33835" lon="-1.52583">
        <ele>3</ele>
        <time>2020-09-27T10:51:21.000Z</time>
      </trkpt>
      <trkpt lat="47.33835" lon="-1.52583">
        <ele>3</ele>
        <time>2020-09-27T10:51:22.000Z</time>
      </trkpt>
      <trkpt lat="47.33835" lon="-1.52583">
        <ele>3</ele>
        <time>2020-09-27T10:51:23.000Z</time>
      </trkpt>
      <trkpt lat="47.33835" lon="-1.52583">
        <ele>3</ele>
        <time>2020-09-27T10:51:24.000Z</time>
      </trkpt>
      <trkpt lat="47.33835" lon="-1.52583">
        <ele>3</ele>
        <time>2020-09-27T10:51:25.000Z</time>
      </trkpt>
      <trkpt lat="47.33835" lon="-1.52583">
        <ele>3</ele>
        <time>2020-09-27T10:51:26.000Z</time>
      </trkpt>
      <trkpt lat="47.33835" lon="-1.52583">
        <ele>3</ele>
        <time>2020-09-27T10:51:27.000Z</time>
      </trkpt>
      <trkpt lat="47.33835" lon="-1.52583">
        <ele>3</ele>
        <time>2020-09-27T10:51:28.000Z</time>
      </trkpt>
      <trkpt lat="47.33835" lon="-1.52583">
        <ele>3</ele>
        <time>2020-09-27T10:51:29.000Z</time>
      </trkpt>
      <trkpt lat="47.33835" lon="-1.52583">
        <ele>3</ele>
        <time>2020-09-27T10:51:30.000Z</time>
      </trkpt>
      <trkpt lat="47.33835" lon="-1.52583">
        <ele>3</ele>
        <time>2020-09-27T10:51:31.000Z</time>
      </trkpt>
      <trkpt lat="47.33835" lon="-1.52583">
        <ele>3</ele>
        <time>2020-09-27T10:51:32.000Z</time>
      </trkpt>
      <trkpt lat="47.33835" lon="-1.52583">
        <ele>3</ele>
        <time>2020-09-27T10:51:33.000Z</time>
      </trkpt>
      <trkpt lat="47.33835" lon="-1.52583">
        <ele>3</ele>
        <time>2020-09-27T10:51:34.000Z</time>
      </trkpt>
      <trkpt lat="47.33835" lon="-1.52583">
        <ele>3</ele>
        <time>2020-09-27T10:51:35.000Z</time>
      </trkpt>
      <trkpt lat="47.33835" lon="-1.52583">
        <ele>3</ele>
        <time>2020-09-27T10:51:36.000Z</time>
      </trkpt>
      <trkpt lat="47.33835" lon="-1.52583">
        <ele>3</ele>
        <time>2020-09-27T10:51:37.000Z</time>
      </trkpt>
      <trkpt lat="47.33835" lon="-1.52583">
        <ele>3</ele>
        <time>2020-09-27T10:51:38.000Z</time>
      </trkpt>
      <trkpt lat="47.33835" lon="-1.52583">
        <ele>3</ele>
        <time>2020-09-27T10:51:39.000Z</time>
      </trkpt>
      <trkpt lat="47.33835" lon="-1.52583">
        <ele>3</ele>
        <time>2020-09-27T10:51:40.000Z</time>
      </trkpt>
      <trkpt lat="47.33835" lon="-1.52583">
        <ele>3</ele>
        <time>2020-09-27T10:51:41.000Z</time>
      </trkpt>
      <trkpt lat="47.33835" lon="-1.52583">
        <ele>3</ele>
        <time>2020-09-27T10:51:42.000Z</time>
      </trkpt>
      <trkpt lat="47.33835" lon="-1.52583">
        <ele>3</ele>
        <time>2020-09-27T10:51:43.000Z</time>
      </trkpt>
      <trkpt lat="47.33835" lon="-1.52583">
        <ele>3</ele>
        <time>2020-09-27T10:51:44.000Z</time>
      </trkpt>
      <trkpt lat="47.33835" lon="-1.52583">
        <ele>3</ele>
        <time>2020-09-27T10:51:45.000Z</time>
      </trkpt>
      <trkpt lat="47.33835" lon="-1.52583">
        <ele>3</ele>
        <time>2020-09-27T10:51:46.000Z</time>
      </trkpt>
      <trkpt lat="47.33835" lon="-1.52583">
        <ele>3</ele>
        <time>2020-09-27T10:51:47.000Z</time>
      </trkpt>
      <trkpt lat="47.33835" lon="-1.52583">
        <ele>3</ele>
        <time>2020-09-27T10:51:48.000Z</time>
      </trkpt>
      <trkpt lat="47.33835" lon="-1.52583">
        <ele>3</ele>
        <time>2020-09-27T10:51:49.000Z</time>
      </trkpt>
      <trkpt lat="47.33835" lon="-1.52583">
        <ele>3</ele>
        <time>2020-09-27T10:51:50.000Z</time>
      </trkpt>
      <trkpt lat="47.33835" lon="-1.52583">
        <ele>3</ele>
        <time>2020-09-27T10:51:51.000Z</time>
      </trkpt>
      <trkpt lat="47.33835" lon="-1.52583">
        <ele>3</ele>
        <time>2020-09-27T10:51:52.000Z</time>
      </trkpt>
      <trkpt lat="47.33835" lon="-1.52583">
        <ele>3</ele>
        <time>2020-09-27T10:51:53.000Z</time>
      </trkpt>
      <trkpt lat="47.33835" lon="-1.52583">
        <ele>3</ele>
        <time>2020-09-27T10:51:54.000Z</time>
      </trkpt>
      <trkpt lat="47.33835" lon="-1.52583">
        <ele>3</ele>
        <time>2020-09-27T10:51:55.000Z</time>
      </trkpt>
      <trkpt lat="47.33835" lon="-1.52583">
        <ele>3</ele>
        <time>2020-09-27T10:51:56.000Z</time>
      </trkpt>
      <trkpt lat="47.33835" lon="-1.52583">
        <ele>3</ele>
        <time>2020-09-27T10:51:57.000Z</time>
      </trkpt>
      <trkpt lat="47.33835" lon="-1.52583">
        <ele>3</ele>
        <time>2020-09-27T10:51:58.000Z</time>
      </trkpt>
      <trkpt lat="47.33835" lon="-1.52583">
        <ele>3</ele>
        <time>2020-09-27T10:51:59.000Z</time>
      </trkpt>
      <trkpt lat="47.33835" lon="-1.52583">
        <ele>3</ele>
        <time>2020-09-27T10:52:00.000Z</time>
      </trkpt>
      <trkpt lat="47.33835" lon="-1.52583">
        <ele>3</ele>
        <time>2020-09-27T10:52:01.000Z</time>
      </trkpt>
      <trkpt lat="47.33835" lon="-1.52583">
        <ele>3</ele>
        <time>2020-09-27T10:52:02.000Z</time>
      </trkpt>
      <trkpt lat="47.33835" lon="-1.52583">
        <ele>3</ele>
        <time>2020-09-27T10:52:03.000Z</time>
      </trkpt>
      <trkpt lat="47.33835" lon="-1.52583">
        <ele>3</ele>
        <time>2020-09-27T10:52:04.000Z</time>
      </trkpt>
      <trkpt lat="47.33835" lon="-1.52583">
        <ele>3</ele>
        <time>2020-09-27T10:52:05.000Z</time>
      </trkpt>
      <trkpt lat="47.33835" lon="-1.52583">
        <ele>3</ele>
        <time>2020-09-27T10:52:06.000Z</time>
      </trkpt>
      <trkpt lat="47.33835" lon="-1.52583">
        <ele>3</ele>
        <time>2020-09-27T10:52:07.000Z</time>
      </trkpt>
      <trkpt lat="47.33835" lon="-1.52583">
        <ele>3</ele>
        <time>2020-09-27T10:52:08.000Z</time>
      </trkpt>
      <trkpt lat="47.33835" lon="-1.52583">
        <ele>3</ele>
        <time>2020-09-27T10:52:09.000Z</time>
      </trkpt>
      <trkpt lat="47.33835" lon="-1.52583">
        <ele>3</ele>
        <time>2020-09-27T10:52:10.000Z</time>
      </trkpt>
      <trkpt lat="47.33835" lon="-1.52583">
        <ele>3</ele>
        <time>2020-09-27T10:52:11.000Z</time>
      </trkpt>
      <trkpt lat="47.33835" lon="-1.52583">
        <ele>3</ele>
        <time>2020-09-27T10:52:12.000Z</time>
      </trkpt>
      <trkpt lat="47.33835" lon="-1.52583">
        <ele>3</ele>
        <time>2020-09-27T10:52:13.000Z</time>
      </trkpt>
      <trkpt lat="47.33835" lon="-1.52583">
        <ele>3</ele>
        <time>2020-09-27T10:52:14.000Z</time>
      </trkpt>
      <trkpt lat="47.33835" lon="-1.52583">
        <ele>3</ele>
        <time>2020-09-27T10:52:15.000Z</time>
      </trkpt>
      <trkpt lat="47.33835" lon="-1.52583">
        <ele>3</ele>
        <time>2020-09-27T10:52:16.000Z</time>
      </trkpt>
      <trkpt lat="47.33835" lon="-1.52583">
        <ele>3</ele>
        <time>2020-09-27T10:52:17.000Z</time>
      </trkpt>
      <trkpt lat="47.33835" lon="-1.52583">
        <ele>3</ele>
        <time>2020-09-27T10:52:18.000Z</time>
      </trkpt>
      <trkpt lat="47.33835" lon="-1.52583">
        <ele>3</ele>
        <time>2020-09-27T10:52:19.000Z</time>
      </trkpt>
      <trkpt lat="47.33835" lon="-1.52583">
        <ele>3</ele>
        <time>2020-09-27T10:52:20.000Z</time>
      </trkpt>
      <trkpt lat="47.33835" lon="-1.52583">
        <ele>3</ele>
        <time>2020-09-27T10:52:21.000Z</time>
      </trkpt>
      <trkpt lat="47.33835" lon="-1.52583">
        <ele>3</ele>
        <time>2020-09-27T10:52:22.000Z</time>
      </trkpt>
      <trkpt lat="47.33835" lon="-1.52583">
        <ele>3</ele>
        <time>2020-09-27T10:52:23.000Z</time>
      </trkpt>
      <trkpt lat="47.33835" lon="-1.52583">
        <ele>3</ele>
        <time>2020-09-27T10:52:24.000Z</time>
      </trkpt>
      <trkpt lat="47.33835" lon="-1.52583">
        <ele>3</ele>
        <time>2020-09-27T10:52:25.000Z</time>
      </trkpt>
      <trkpt lat="47.33835" lon="-1.52583">
        <ele>3</ele>
        <time>2020-09-27T10:52:26.000Z</time>
      </trkpt>
      <trkpt lat="47.33835" lon="-1.52583">
        <ele>3</ele>
        <time>2020-09-27T10:52:27.000Z</time>
      </trkpt>
      <trkpt lat="47.33835" lon="-1.52583">
        <ele>3</ele>
        <time>2020-09-27T10:52:28.000Z</time>
      </trkpt>
      <trkpt lat="47.33835" lon="-1.52583">
        <ele>3</ele>
        <time>2020-09-27T10:52:29.000Z</time>
      </trkpt>
      <trkpt lat="47.33835" lon="-1.52583">
        <ele>3</ele>
        <time>2020-09-27T10:52:30.000Z</time>
      </trkpt>
      <trkpt lat="47.33835" lon="-1.52583">
        <ele>3</ele>
        <time>2020-09-27T10:52:31.000Z</time>
      </trkpt>
      <trkpt lat="47.33835" lon="-1.52583">
        <ele>3</ele>
        <time>2020-09-27T10:52:32.000Z</time>
      </trkpt>
      <trkpt lat="47.33835" lon="-1.52583">
        <ele>3</ele>
        <time>2020-09-27T10:52:33.000Z</time>
      </trkpt>
      <trkpt lat="47.33835" lon="-1.52583">
        <ele>3</ele>
        <time>2020-09-27T10:52:34.000Z</time>
      </trkpt>
      <trkpt lat="47.33835" lon="-1.52583">
        <ele>3</ele>
        <time>2020-09-27T10:52:35.000Z</time>
      </trkpt>
      <trkpt lat="47.33835" lon="-1.52583">
        <ele>3</ele>
        <time>2020-09-27T10:52:36.000Z</time>
      </trkpt>
      <trkpt lat="47.33835" lon="-1.52583">
        <ele>3</ele>
        <time>2020-09-27T10:52:37.000Z</time>
      </trkpt>
      <trkpt lat="47.33835" lon="-1.52583">
        <ele>3</ele>
        <time>2020-09-27T10:52:38.000Z</time>
      </trkpt>
      <trkpt lat="47.33835" lon="-1.52583">
        <ele>3</ele>
        <time>2020-09-27T10:52:39.000Z</time>
      </trkpt>
      <trkpt lat="47.33835" lon="-1.52583">
        <ele>3</ele>
        <time>2020-09-27T10:52:40.000Z</time>
      </trkpt>
      <trkpt lat="47.33835" lon="-1.52583">
        <ele>3</ele>
        <time>2020-09-27T10:52:41.000Z</time>
      </trkpt>
      <trkpt lat="47.33835" lon="-1.52583">
        <ele>3</ele>
        <time>2020-09-27T10:52:42.000Z</time>
      </trkpt>
      <trkpt lat="47.33835" lon="-1.52583">
        <ele>3</ele>
        <time>2020-09-27T10:52:43.000Z</time>
      </trkpt>
      <trkpt lat="47.33835" lon="-1.52583">
        <ele>3</ele>
        <time>2020-09-27T10:52:44.000Z</time>
      </trkpt>
      <trkpt lat="47.33835" lon="-1.52583">
        <ele>3</ele>
        <time>2020-09-27T10:52:45.000Z</time>
      </trkpt>
      <trkpt lat="47.33835" lon="-1.52583">
        <ele>3</ele>
        <time>2020-09-27T10:52:46.000Z</time>
      </trkpt>
      <trkpt lat="47.33835" lon="-1.52583">
        <ele>3</ele>
        <time>2020-09-27T10:52:47.000Z</time>
      </trkpt>
      <trkpt lat="47.33835" lon="-1.52583">
        <ele>3</ele>
        <time>2020-09-27T10:52:48.000Z</time>
      </trkpt>
      <trkpt lat="47.33835" lon="-1.52583">
        <ele>3</ele>
        <time>2020-09-27T10:52:49.000Z</time>
      </trkpt>
      <trkpt lat="47.33835" lon="-1.52583">
        <ele>3</ele>
        <time>2020-09-27T10:52:50.000Z</time>
      </trkpt>
      <trkpt lat="47.33835" lon="-1.52583">
        <ele>3</ele>
        <time>2020-09-27T10:52:51.000Z</time>
      </trkpt>
      <trkpt lat="47.33835" lon="-1.52583">
        <ele>3</ele>
        <time>2020-09-27T10:52:52.000Z</time>
      </trkpt>
      <trkpt lat="47.33835" lon="-1.52583">
        <ele>3</ele>
        <time>2020-09-27T10:52:53.000Z</time>
      </trkpt>
      <trkpt lat="47.33835" lon="-1.52583">
        <ele>3</ele>
        <time>2020-09-27T10:52:54.000Z</time>
      </trkpt>
      <trkpt lat="47.33835" lon="-1.52583">
        <ele>3</ele>
        <time>2020-09-27T10:52:55.000Z</time>
      </trkpt>
      <trkpt lat="47.33835" lon="-1.52583">
        <ele>3</ele>
        <time>2020-09-27T10:52:56.000Z</time>
      </trkpt>
      <trkpt lat="47.33835" lon="-1.52583">
        <ele>3</ele>
        <time>2020-09-27T10:52:57.000Z</time>
      </trkpt>
      <trkpt lat="47.33835" lon="-1.52583">
        <ele>3</ele>
        <time>2020-09-27T10:52:58.000Z</time>
      </trkpt>
      <trkpt lat="47.33835" lon="-1.52583">
        <ele>3</ele>
        <time>2020-09-27T10:52:59.000Z</time>
      </trkpt>
      <trkpt lat="47.33835" lon="-1.52583">
        <ele>3</ele>
        <time>2020-09-27T10:53:00.000Z</time>
      </trkpt>
      <trkpt lat="47.33835" lon="-1.52583">
        <ele>3</ele>
        <time>2020-09-27T10:53:01.000Z</time>
      </trkpt>
      <trkpt lat="47.33835" lon="-1.52583">
        <ele>3</ele>
        <time>2020-09-27T10:53:02.000Z</time>
      </trkpt>
      <trkpt lat="47.33835" lon="-1.52583">
        <ele>3</ele>
        <time>2020-09-27T10:53:03.000Z</time>
      </trkpt>
      <trkpt lat="47.33835" lon="-1.52583">
        <ele>3</ele>
        <time>2020-09-27T10:53:04.000Z</time>
      </trkpt>
      <trkpt lat="47.33835" lon="-1.52583">
        <ele>3</ele>
        <time>2020-09-27T10:53:05.000Z</time>
      </trkpt>
      <trkpt lat="47.33835" lon="-1.52583">
        <ele>3</ele>
        <time>2020-09-27T10:53:06.000Z</time>
      </trkpt>
      <trkpt lat="47.33835" lon="-1.52583">
        <ele>3</ele>
        <time>2020-09-27T10:53:07.000Z</time>
      </trkpt>
      <trkpt lat="47.33835" lon="-1.52583">
        <ele>3</ele>
        <time>2020-09-27T10:53:08.000Z</time>
      </trkpt>
      <trkpt lat="47.33835" lon="-1.52583">
        <ele>3</ele>
        <time>2020-09-27T10:53:09.000Z</time>
      </trkpt>
      <trkpt lat="47.33835" lon="-1.52583">
        <ele>3</ele>
        <time>2020-09-27T10:53:10.000Z</time>
      </trkpt>
      <trkpt lat="47.33835" lon="-1.52583">
        <ele>3</ele>
        <time>2020-09-27T10:53:11.000Z</time>
      </trkpt>
      <trkpt lat="47.33835" lon="-1.52583">
        <ele>3</ele>
        <time>2020-09-27T10:53:12.000Z</time>
      </trkpt>
      <trkpt lat="47.33835" lon="-1.52583">
        <ele>3</ele>
        <time>2020-09-27T10:53:13.000Z</time>
      </trkpt>
      <trkpt lat="47.33835" lon="-1.52583">
        <ele>3</ele>
        <time>2020-09-27T10:53:14.000Z</time>
      </trkpt>
      <trkpt lat="47.33835" lon="-1.52583">
        <ele>3</ele>
        <time>2020-09-27T10:53:15.000Z</time>
      </trkpt>
      <trkpt lat="47.33835" lon="-1.52583">
        <ele>3</ele>
        <time>2020-09-27T10:53:16.000Z</time>
      </trkpt>
      <trkpt lat="47.33835" lon="-1.52583">
        <ele>3</ele>
        <time>2020-09-27T10:53:17.000Z</time>
      </trkpt>
      <trkpt lat="47.33835" lon="-1.52583">
        <ele>3</ele>
        <time>2020-09-27T10:53:18.000Z</time>
      </trkpt>
      <trkpt lat="47.33835" lon="-1.52583">
        <ele>3</ele>
        <time>2020-09-27T10:53:19.000Z</time>
      </trkpt>
      <trkpt lat="47.33835" lon="-1.52583">
        <ele>3</ele>
        <time>2020-09-27T10:53:20.000Z</time>
      </trkpt>
      <trkpt lat="47.33835" lon="-1.52583">
        <ele>3</ele>
        <time>2020-09-27T10:53:21.000Z</time>
      </trkpt>
      <trkpt lat="47.33835" lon="-1.52583">
        <ele>3</ele>
        <time>2020-09-27T10:53:22.000Z</time>
      </trkpt>
      <trkpt lat="47.33835" lon="-1.52583">
        <ele>3</ele>
        <time>2020-09-27T10:53:23.000Z</time>
      </trkpt>
      <trkpt lat="47.33835" lon="-1.52583">
        <ele>3</ele>
        <time>2020-09-27T10:53:24.000Z</time>
      </trkpt>
      <trkpt lat="47.33835" lon="-1.52583">
        <ele>3</ele>
        <time>2020-09-27T10:53:25.000Z</time>
      </trkpt>
      <trkpt lat="47.33835" lon="-1.52583">
        <ele>3</ele>
        <time>2020-09-27T10:53:26.000Z</time>
      </trkpt>
      <trkpt lat="47.33835" lon="-1.52583">
        <ele>3</ele>
        <time>2020-09-27T10:53:27.000Z</time>
      </trkpt>
      <trkpt lat="47.33835" lon="-1.52583">
        <ele>3</ele>
        <time>2020-09-27T10:53:28.000Z</time>
      </trkpt>
      <trkpt lat="47.33835" lon="-1.52583">
        <ele>3</ele>
        <time>2020-09-27T10:53:29.000Z</time>
      </trkpt>
      <trkpt lat="47.33835" lon="-1.52583">
        <ele>3</ele>
        <time>2020-09-27T10:53:30.000Z</time>
      </trkpt>
      <trkpt lat="47.33835" lon="-1.52583">
        <ele>3</ele>
        <time>2020-09-27T10:53:31.000Z</time>
      </trkpt>
      <trkpt lat="47.33835" lon="-1.52583">
        <ele>3</ele>
        <time>2020-09-27T10:53:32.000Z</time>
      </trkpt>
      <trkpt lat="47.33835" lon="-1.52583">
        <ele>3</ele>
        <time>2020-09-27T10:53:33.000Z</time>
      </trkpt>
      <trkpt lat="47.33835" lon="-1.52583">
        <ele>3</ele>
        <time>2020-09-27T10:53:34.000Z</time>
      </trkpt>
      <trkpt lat="47.33835" lon="-1.52583">
        <ele>3</ele>
        <time>2020-09-27T10:53:35.000Z</time>
      </trkpt>
      <trkpt lat="47.33835" lon="-1.52583">
        <ele>3</ele>
        <time>2020-09-27T10:53:36.000Z</time>
      </trkpt>
      <trkpt lat="47.33835" lon="-1.52583">
        <ele>3</ele>
        <time>2020-09-27T10:53:37.000Z</time>
      </trkpt>
      <trkpt lat="47.33835" lon="-1.52583">
        <ele>3</ele>
        <time>2020-09-27T10:53:38.000Z</time>
      </trkpt>
      <trkpt lat="47.33835" lon="-1.52583">
        <ele>3</ele>
        <time>2020-09-27T10:53:39.000Z</time>
      </trkpt>
      <trkpt lat="47.33835" lon="-1.52583">
        <ele>3</ele>
        <time>2020-09-27T10:53:40.000Z</time>
      </trkpt>
      <trkpt lat="47.33835" lon="-1.52583">
        <ele>3</ele>
        <time>2020-09-27T10:53:41.000Z</time>
      </trkpt>
      <trkpt lat="47.33835" lon="-1.52583">
        <ele>3</ele>
        <time>2020-09-27T10:53:42.000Z</time>
      </trkpt>
      <trkpt lat="47.33835" lon="-1.52583">
        <ele>3</ele>
        <time>2020-09-27T10:53:43.000Z</time>
      </trkpt>
      <trkpt lat="47.33835" lon="-1.52583">
        <ele>3</ele>
        <time>2020-09-27T10:53:44.000Z</time>
      </trkpt>
      <trkpt lat="47.33835" lon="-1.52583">
        <ele>3</ele>
        <time>2020-09-27T10:53:45.000Z</time>
      </trkpt>
      <trkpt lat="47.33835" lon="-1.52583">
        <ele>3</ele>
        <time>2020-09-27T10:53:46.000Z</time>
      </trkpt>
      <trkpt lat="47.33835" lon="-1.52583">
        <ele>3</ele>
        <time>2020-09-27T10:53:47.000Z</time>
      </trkpt>
      <trkpt lat="47.33835" lon="-1.52583">
        <ele>3</ele>
        <time>2020-09-27T10:53:48.000Z</time>
      </trkpt>
      <trkpt lat="47.33835" lon="-1.52583">
        <ele>3</ele>
        <time>2020-09-27T10:53:49.000Z</time>
      </trkpt>
      <trkpt lat="47.33835" lon="-1.52583">
        <ele>3</ele>
        <time>2020-09-27T10:53:50.000Z</time>
      </trkpt>
      <trkpt lat="47.33835" lon="-1.52583">
        <ele>3</ele>
        <time>2020-09-27T10:53:51.000Z</time>
      </trkpt>
      <trkpt lat="47.33835" lon="-1.52583">
        <ele>3</ele>
        <time>2020-09-27T10:53:52.000Z</time>
      </trkpt>
      <trkpt lat="47.33835" lon="-1.52583">
        <ele>3</ele>
        <time>2020-09-27T10:53:53.000Z</time>
      </trkpt>
      <trkpt lat="47.33835" lon="-1.52583">
        <ele>3</ele>
        <time>2020-09-27T10:53:54.000Z</time>
      </trkpt>
      <trkpt lat="47.33835" lon="-1.52583">
        <ele>3</ele>
        <time>2020-09-27T10:53:55.000Z</time>
      </trkpt>
      <trkpt lat="47.33835" lon="-1.52583">
        <ele>3</ele>
        <time>2020-09-27T10:53:56.000Z</time>
      </trkpt>
      <trkpt lat="47.33835" lon="-1.52583">
        <ele>3</ele>
        <time>2020-09-27T10:53:57.000Z</time>
      </trkpt>
      <trkpt lat="47.33835" lon="-1.52583">
        <ele>3</ele>
        <time>2020-09-27T10:53:58.000Z</time>
      </trkpt>
      <trkpt lat="47.33835" lon="-1.52583">
        <ele>3</ele>
        <time>2020-09-27T10:53:59.000Z</time>
      </trkpt>
      <trkpt lat="47.33835" lon="-1.52583">
        <ele>3</ele>
        <time>2020-09-27T10:54:00.000Z</time>
      </trkpt>
      <trkpt lat="47.33835" lon="-1.52583">
        <ele>3</ele>
        <time>2020-09-27T10:54:01.000Z</time>
      </trkpt>
      <trkpt lat="47.33835" lon="-1.52583">
        <ele>3</ele>
        <time>2020-09-27T10:54:02.000Z</time>
      </trkpt>
      <trkpt lat="47.33835" lon="-1.52583">
        <ele>3</ele>
        <time>2020-09-27T10:54:03.000Z</time>
      </trkpt>
      <trkpt lat="47.33835" lon="-1.52583">
        <ele>3</ele>
        <time>2020-09-27T10:54:04.000Z</time>
      </trkpt>
      <trkpt lat="47.33835" lon="-1.52583">
        <ele>3</ele>
        <time>2020-09-27T10:54:05.000Z</time>
      </trkpt>
      <trkpt lat="47.33835" lon="-1.52583">
        <ele>3</ele>
        <time>2020-09-27T10:54:06.000Z</time>
      </trkpt>
      <trkpt lat="47.33835" lon="-1.52583">
        <ele>3</ele>
        <time>2020-09-27T10:54:07.000Z</time>
      </trkpt>
      <trkpt lat="47.33835" lon="-1.52583">
        <ele>3</ele>
        <time>2020-09-27T10:54:08.000Z</time>
      </trkpt>
      <trkpt lat="47.33835" lon="-1.52583">
        <ele>3</ele>
        <time>2020-09-27T10:54:09.000Z</time>
      </trkpt>
      <trkpt lat="47.33835" lon="-1.52583">
        <ele>3</ele>
        <time>2020-09-27T10:54:10.000Z</time>
      </trkpt>
      <trkpt lat="47.33835" lon="-1.52583">
        <ele>3</ele>
        <time>2020-09-27T10:54:11.000Z</time>
      </trkpt>
      <trkpt lat="47.33835" lon="-1.52583">
        <ele>3</ele>
        <time>2020-09-27T10:54:12.000Z</time>
      </trkpt>
      <trkpt lat="47.33835" lon="-1.52583">
        <ele>3</ele>
        <time>2020-09-27T10:54:13.000Z</time>
      </trkpt>
      <trkpt lat="47.33835" lon="-1.52583">
        <ele>3</ele>
        <time>2020-09-27T10:54:14.000Z</time>
      </trkpt>
      <trkpt lat="47.33835" lon="-1.52583">
        <ele>3</ele>
        <time>2020-09-27T10:54:15.000Z</time>
      </trkpt>
      <trkpt lat="47.33835" lon="-1.52583">
        <ele>3</ele>
        <time>2020-09-27T10:54:16.000Z</time>
      </trkpt>
      <trkpt lat="47.33835" lon="-1.52583">
        <ele>3</ele>
        <time>2020-09-27T10:54:17.000Z</time>
      </trkpt>
      <trkpt lat="47.33835" lon="-1.52583">
        <ele>3</ele>
        <time>2020-09-27T10:54:18.000Z</time>
      </trkpt>
      <trkpt lat="47.33835" lon="-1.52583">
        <ele>3</ele>
        <time>2020-09-27T10:54:19.000Z</time>
      </trkpt>
      <trkpt lat="47.33835" lon="-1.52583">
        <ele>3</ele>
        <time>2020-09-27T10:54:20.000Z</time>
      </trkpt>
      <trkpt lat="47.33835" lon="-1.52583">
        <ele>3</ele>
        <time>2020-09-27T10:54:21.000Z</time>
      </trkpt>
      <trkpt lat="47.33835" lon="-1.52583">
        <ele>3</ele>
        <time>2020-09-27T10:54:22.000Z</time>
      </trkpt>
      <trkpt lat="47.33835" lon="-1.52583">
        <ele>3</ele>
        <time>2020-09-27T10:54:23.000Z</time>
      </trkpt>
      <trkpt lat="47.33835" lon="-1.52583">
        <ele>3</ele>
        <time>2020-09-27T10:54:24.000Z</time>
      </trkpt>
      <trkpt lat="47.33835" lon="-1.52583">
        <ele>3</ele>
        <time>2020-09-27T10:54:25.000Z</time>
      </trkpt>
      <trkpt lat="47.33835" lon="-1.52583">
        <ele>3</ele>
        <time>2020-09-27T10:54:26.000Z</time>
      </trkpt>
      <trkpt lat="47.33835" lon="-1.52583">
        <ele>3</ele>
        <time>2020-09-27T10:54:27.000Z</time>
      </trkpt>
      <trkpt lat="47.33835" lon="-1.52583">
        <ele>3</ele>
        <time>2020-09-27T10:54:28.000Z</time>
      </trkpt>
      <trkpt lat="47.33835" lon="-1.52583">
        <ele>3</ele>
        <time>2020-09-27T10:54:29.000Z</time>
      </trkpt>
      <trkpt lat="47.33835" lon="-1.52583">
        <ele>3</ele>
        <time>2020-09-27T10:54:30.000Z</time>
      </trkpt>
      <trkpt lat="47.33835" lon="-1.52583">
        <ele>3</ele>
        <time>2020-09-27T10:54:31.000Z</time>
      </trkpt>
      <trkpt lat="47.33835" lon="-1.52583">
        <ele>3</ele>
        <time>2020-09-27T10:54:32.000Z</time>
      </trkpt>
      <trkpt lat="47.33835" lon="-1.52583">
        <ele>3</ele>
        <time>2020-09-27T10:54:33.000Z</time>
      </trkpt>
      <trkpt lat="47.33835" lon="-1.52583">
        <ele>3</ele>
        <time>2020-09-27T10:54:34.000Z</time>
      </trkpt>
      <trkpt lat="47.33835" lon="-1.52583">
        <ele>3</ele>
        <time>2020-09-27T10:54:35.000Z</time>
      </trkpt>
      <trkpt lat="47.33835" lon="-1.52583">
        <ele>3</ele>
        <time>2020-09-27T10:54:36.000Z</time>
      </trkpt>
      <trkpt lat="47.33835" lon="-1.52583">
        <ele>3</ele>
        <time>2020-09-27T10:54:37.000Z</time>
      </trkpt>
      <trkpt lat="47.33835" lon="-1.52583">
        <ele>3</ele>
        <time>2020-09-27T10:54:38.000Z</time>
      </trkpt>
      <trkpt lat="47.33835" lon="-1.52583">
        <ele>3</ele>
        <time>2020-09-27T10:54:39.000Z</time>
      </trkpt>
      <trkpt lat="47.33835" lon="-1.52583">
        <ele>3</ele>
        <time>2020-09-27T10:54:40.000Z</time>
      </trkpt>
      <trkpt lat="47.33835" lon="-1.52583">
        <ele>3</ele>
        <time>2020-09-27T10:54:41.000Z</time>
      </trkpt>
      <trkpt lat="47.33835" lon="-1.52583">
        <ele>3</ele>
        <time>2020-09-27T10:54:42.000Z</time>
      </trkpt>
      <trkpt lat="47.33835" lon="-1.52583">
        <ele>3</ele>
        <time>2020-09-27T10:54:43.000Z</time>
      </trkpt>
      <trkpt lat="47.33835" lon="-1.52583">
        <ele>3</ele>
        <time>2020-09-27T10:54:44.000Z</time>
      </trkpt>
      <trkpt lat="47.33835" lon="-1.52583">
        <ele>3</ele>
        <time>2020-09-27T10:54:45.000Z</time>
      </trkpt>
      <trkpt lat="47.33835" lon="-1.52583">
        <ele>3</ele>
        <time>2020-09-27T10:54:46.000Z</time>
      </trkpt>
      <trkpt lat="47.33835" lon="-1.52583">
        <ele>3</ele>
        <time>2020-09-27T10:54:47.000Z</time>
      </trkpt>
      <trkpt lat="47.33835" lon="-1.52583">
        <ele>3</ele>
        <time>2020-09-27T10:54:48.000Z</time>
      </trkpt>
      <trkpt lat="47.33835" lon="-1.52583">
        <ele>3</ele>
        <time>2020-09-27T10:54:49.000Z</time>
      </trkpt>
      <trkpt lat="47.33835" lon="-1.52583">
        <ele>3</ele>
        <time>2020-09-27T10:54:50.000Z</time>
      </trkpt>
      <trkpt lat="47.33835" lon="-1.52583">
        <ele>3</ele>
        <time>2020-09-27T10:54:51.000Z</time>
      </trkpt>
      <trkpt lat="47.33835" lon="-1.52583">
        <ele>3</ele>
        <time>2020-09-27T10:54:52.000Z</time>
      </trkpt>
      <trkpt lat="47.33835" lon="-1.52583">
        <ele>3</ele>
        <time>2020-09-27T10:54:53.000Z</time>
      </trkpt>
      <trkpt lat="47.33835" lon="-1.52583">
        <ele>3</ele>
        <time>2020-09-27T10:54:54.000Z</time>
      </trkpt>
      <trkpt lat="47.33835" lon="-1.52583">
        <ele>3</ele>
        <time>2020-09-27T10:54:55.000Z</time>
      </trkpt>
      <trkpt lat="47.33835" lon="-1.52583">
        <ele>3</ele>
        <time>2020-09-27T10:54:56.000Z</time>
      </trkpt>
      <trkpt lat="47.33835" lon="-1.52583">
        <ele>3</ele>
        <time>2020-09-27T10:54:57.000Z</time>
      </trkpt>
      <trkpt lat="47.33835" lon="-1.52583">
        <ele>3</ele>
        <time>2020-09-27T10:54:58.000Z</time>
      </trkpt>
      <trkpt lat="47.33835" lon="-1.52583">
        <ele>3</ele>
        <time>2020-09-27T10:54:59.000Z</time>
      </trkpt>
      <trkpt lat="47.33835" lon="-1.52583">
        <ele>3</ele>
        <time>2020-09-27T10:55:00.000Z</time>
      </trkpt>
      <trkpt lat="47.33835" lon="-1.52583">
        <ele>3</ele>
        <time>2020-09-27T10:55:01.000Z</time>
      </trkpt>
      <trkpt lat="47.33835" lon="-1.52583">
        <ele>3</ele>
        <time>2020-09-27T10:55:02.000Z</time>
      </trkpt>
      <trkpt lat="47.33835" lon="-1.52583">
        <ele>3</ele>
        <time>2020-09-27T10:55:03.000Z</time>
      </trkpt>
      <trkpt lat="47.33835" lon="-1.52583">
        <ele>3</ele>
        <time>2020-09-27T10:55:04.000Z</time>
      </trkpt>
      <trkpt lat="47.33835" lon="-1.52583">
        <ele>3</ele>
        <time>2020-09-27T10:55:05.000Z</time>
      </trkpt>
      <trkpt lat="47.33835" lon="-1.52583">
        <ele>3</ele>
        <time>2020-09-27T10:55:06.000Z</time>
      </trkpt>
      <trkpt lat="47.33835" lon="-1.52583">
        <ele>3</ele>
        <time>2020-09-27T10:55:07.000Z</time>
      </trkpt>
      <trkpt lat="47.33835" lon="-1.52583">
        <ele>3</ele>
        <time>2020-09-27T10:55:08.000Z</time>
      </trkpt>
      <trkpt lat="47.33835" lon="-1.52583">
        <ele>3</ele>
        <time>2020-09-27T10:55:09.000Z</time>
      </trkpt>
      <trkpt lat="47.33835" lon="-1.52583">
        <ele>3</ele>
        <time>2020-09-27T10:55:10.000Z</time>
      </trkpt>
      <trkpt lat="47.33835" lon="-1.52583">
        <ele>3</ele>
        <time>2020-09-27T10:55:11.000Z</time>
      </trkpt>
      <trkpt lat="47.33835" lon="-1.52583">
        <ele>3</ele>
        <time>2020-09-27T10:55:12.000Z</time>
      </trkpt>
      <trkpt lat="47.33835" lon="-1.52583">
        <ele>3</ele>
        <time>2020-09-27T10:55:13.000Z</time>
      </trkpt>
      <trkpt lat="47.33835" lon="-1.52583">
        <ele>3</ele>
        <time>2020-09-27T10:55:14.000Z</time>
      </trkpt>
      <trkpt lat="47.33835" lon="-1.52583">
        <ele>3</ele>
        <time>2020-09-27T10:55:15.000Z</time>
      </trkpt>
      <trkpt lat="47.33835" lon="-1.52583">
        <ele>3</ele>
        <time>2020-09-27T10:55:16.000Z</time>
      </trkpt>
      <trkpt lat="47.33835" lon="-1.52583">
        <ele>3</ele>
        <time>2020-09-27T10:55:17.000Z</time>
      </trkpt>
      <trkpt lat="47.33835" lon="-1.52583">
        <ele>3</ele>
        <time>2020-09-27T10:55:18.000Z</time>
      </trkpt>
      <trkpt lat="47.33835" lon="-1.52583">
        <ele>3</ele>
        <time>2020-09-27T10:55:19.000Z</time>
      </trkpt>
      <trkpt lat="47.33835" lon="-1.52583">
        <ele>3</ele>
        <time>2020-09-27T10:55:20.000Z</time>
      </trkpt>
      <trkpt lat="47.33835" lon="-1.52583">
        <ele>3</ele>
        <time>2020-09-27T10:55:21.000Z</time>
      </trkpt>
      <trkpt lat="47.33835" lon="-1.52583">
        <ele>3</ele>
        <time>2020-09-27T10:55:22.000Z</time>
      </trkpt>
      <trkpt lat="47.33835" lon="-1.52583">
        <ele>3</ele>
        <time>2020-09-27T10:55:23.000Z</time>
      </trkpt>
      <trkpt lat="47.33835" lon="-1.52583">
        <ele>3</ele>
        <time>2020-09-27T10:55:24.000Z</time>
      </trkpt>
      <trkpt lat="47.33835" lon="-1.52583">
        <ele>3</ele>
        <time>2020-09-27T10:55:25.000Z</time>
      </trkpt>
      <trkpt lat="47.33835" lon="-1.52583">
        <ele>3</ele>
        <time>2020-09-27T10:55:26.000Z</time>
      </trkpt>
      <trkpt lat="47.33835" lon="-1.52583">
        <ele>3</ele>
        <time>2020-09-27T10:55:27.000Z</time>
      </trkpt>
      <trkpt lat="47.33835" lon="-1.52583">
        <ele>3</ele>
        <time>2020-09-27T10:55:28.000Z</time>
      </trkpt>
      <trkpt lat="47.33835" lon="-1.52583">
        <ele>3</ele>
        <time>2020-09-27T10:55:29.000Z</time>
      </trkpt>
      <trkpt lat="47.33835" lon="-1.52583">
        <ele>3</ele>
        <time>2020-09-27T10:55:30.000Z</time>
      </trkpt>
      <trkpt lat="47.33835" lon="-1.52583">
        <ele>3</ele>
        <time>2020-09-27T10:55:31.000Z</time>
      </trkpt>
      <trkpt lat="47.33835" lon="-1.52583">
        <ele>3</ele>
        <time>2020-09-27T10:55:32.000Z</time>
      </trkpt>
      <trkpt lat="47.33835" lon="-1.52583">
        <ele>3</ele>
        <time>2020-09-27T10:55:33.000Z</time>
      </trkpt>
      <trkpt lat="47.33835" lon="-1.52583">
        <ele>3</ele>
        <time>2020-09-27T10:55:34.000Z</time>
      </trkpt>
      <trkpt lat="47.33835" lon="-1.52583">
        <ele>3</ele>
        <time>2020-09-27T10:55:35.000Z</time>
      </trkpt>
      <trkpt lat="47.33835" lon="-1.52583">
        <ele>3</ele>
        <time>2020-09-27T10:55:36.000Z</time>
      </trkpt>
      <trkpt lat="47.33835" lon="-1.52583">
        <ele>3</ele>
        <time>2020-09-27T10:55:37.000Z</time>
      </trkpt>
      <trkpt lat="47.33835" lon="-1.52583">
        <ele>3</ele>
        <time>2020-09-27T10:55:38.000Z</time>
      </trkpt>
      <trkpt lat="47.33835" lon="-1.52583">
        <ele>3</ele>
        <time>2020-09-27T10:55:39.000Z</time>
      </trkpt>
      <trkpt lat="47.33835" lon="-1.52583">
        <ele>3</ele>
        <time>2020-09-27T10:55:40.000Z</time>
      </trkpt>
      <trkpt lat="47.33835" lon="-1.52583">
        <ele>3</ele>
        <time>2020-09-27T10:55:41.000Z</time>
      </trkpt>
      <trkpt lat="47.33835" lon="-1.52583">
        <ele>3</ele>
        <time>2020-09-27T10:55:42.000Z</time>
      </trkpt>
      <trkpt lat="47.33835" lon="-1.52583">
        <ele>3</ele>
        <time>2020-09-27T10:55:43.000Z</time>
      </trkpt>
      <trkpt lat="47.33835" lon="-1.52583">
        <ele>3</ele>
        <time>2020-09-27T10:55:44.000Z</time>
      </trkpt>
      <trkpt lat="47.33835" lon="-1.52583">
        <ele>3</ele>
        <time>2020-09-27T10:55:45.000Z</time>
      </trkpt>
      <trkpt lat="47.33835" lon="-1.52583">
        <ele>3</ele>
        <time>2020-09-27T10:55:46.000Z</time>
      </trkpt>
      <trkpt lat="47.33835" lon="-1.52583">
        <ele>3</ele>
        <time>2020-09-27T10:55:47.000Z</time>
      </trkpt>
      <trkpt lat="47.33835" lon="-1.52583">
        <ele>3</ele>
        <time>2020-09-27T10:55:48.000Z</time>
      </trkpt>
      <trkpt lat="47.33835" lon="-1.52583">
        <ele>3</ele>
        <time>2020-09-27T10:55:49.000Z</time>
      </trkpt>
      <trkpt lat="47.33835" lon="-1.52583">
        <ele>3</ele>
        <time>2020-09-27T10:55:50.000Z</time>
      </trkpt>
      <trkpt lat="47.33835" lon="-1.52583">
        <ele>3</ele>
        <time>2020-09-27T10:55:51.000Z</time>
      </trkpt>
      <trkpt lat="47.33835" lon="-1.52583">
        <ele>3</ele>
        <time>2020-09-27T10:55:52.000Z</time>
      </trkpt>
      <trkpt lat="47.33835" lon="-1.52583">
        <ele>3</ele>
        <time>2020-09-27T10:55:53.000Z</time>
      </trkpt>
      <trkpt lat="47.33835" lon="-1.52583">
        <ele>3</ele>
        <time>2020-09-27T10:55:54.000Z</time>
      </trkpt>
      <trkpt lat="47.33835" lon="-1.52583">
        <ele>3</ele>
        <time>2020-09-27T10:55:55.000Z</time>
      </trkpt>
      <trkpt lat="47.33835" lon="-1.52583">
        <ele>3</ele>
        <time>2020-09-27T10:55:56.000Z</time>
      </trkpt>
      <trkpt lat="47.33835" lon="-1.52583">
        <ele>3</ele>
        <time>2020-09-27T10:55:57.000Z</time>
      </trkpt>
      <trkpt lat="47.33835" lon="-1.52583">
        <ele>3</ele>
        <time>2020-09-27T10:55:58.000Z</time>
      </trkpt>
      <trkpt lat="47.33835" lon="-1.52583">
        <ele>3</ele>
        <time>2020-09-27T10:55:59.000Z</time>
      </trkpt>
      <trkpt lat="47.33835" lon="-1.52583">
        <ele>3</ele>
        <time>2020-09-27T10:56:00.000Z</time>
      </trkpt>
      <trkpt lat="47.33835" lon="-1.52583">
        <ele>3</ele>
        <time>2020-09-27T10:56:01.000Z</time>
      </trkpt>
      <trkpt lat="47.33835" lon="-1.52583">
        <ele>3</ele>
        <time>2020-09-27T10:56:02.000Z</time>
      </trkpt>
      <trkpt lat="47.33835" lon="-1.52583">
        <ele>3</ele>
        <time>2020-09-27T10:56:03.000Z</time>
      </trkpt>
      <trkpt lat="47.33835" lon="-1.52583">
        <ele>3</ele>
        <time>2020-09-27T10:56:04.000Z</time>
      </trkpt>
      <trkpt lat="47.33835" lon="-1.52583">
        <ele>3</ele>
        <time>2020-09-27T10:56:05.000Z</time>
      </trkpt>
      <trkpt lat="47.33835" lon="-1.52583">
        <ele>3</ele>
        <time>2020-09-27T10:56:06.000Z</time>
      </trkpt>
      <trkpt lat="47.33834" lon="-1.52583">
        <ele>3</ele>
        <time>2020-09-27T10:56:07.000Z</time>
      </trkpt>
      <trkpt lat="47.33834" lon="-1.52583">
        <ele>3</ele>
        <time>2020-09-27T10:56:08.000Z</time>
      </trkpt>
      <trkpt lat="47.33834" lon="-1.52583">
        <ele>3</ele>
        <time>2020-09-27T10:56:09.000Z</time>
      </trkpt>
      <trkpt lat="47.33834" lon="-1.52583">
        <ele>3</ele>
        <time>2020-09-27T10:56:10.000Z</time>
      </trkpt>
      <trkpt lat="47.33834" lon="-1.52583">
        <ele>3</ele>
        <time>2020-09-27T10:56:11.000Z</time>
      </trkpt>
      <trkpt lat="47.33834" lon="-1.52583">
        <ele>3</ele>
        <time>2020-09-27T10:56:12.000Z</time>
      </trkpt>
      <trkpt lat="47.33834" lon="-1.52583">
        <ele>3</ele>
        <time>2020-09-27T10:56:13.000Z</time>
      </trkpt>
      <trkpt lat="47.33834" lon="-1.52583">
        <ele>3</ele>
        <time>2020-09-27T10:56:14.000Z</time>
      </trkpt>
      <trkpt lat="47.33834" lon="-1.52583">
        <ele>3</ele>
        <time>2020-09-27T10:56:15.000Z</time>
      </trkpt>
      <trkpt lat="47.33834" lon="-1.52583">
        <ele>3</ele>
        <time>2020-09-27T10:56:16.000Z</time>
      </trkpt>
      <trkpt lat="47.33834" lon="-1.52583">
        <ele>3</ele>
        <time>2020-09-27T10:56:17.000Z</time>
      </trkpt>
      <trkpt lat="47.33834" lon="-1.52583">
        <ele>3</ele>
        <time>2020-09-27T10:56:18.000Z</time>
      </trkpt>
      <trkpt lat="47.33834" lon="-1.52583">
        <ele>3</ele>
        <time>2020-09-27T10:56:19.000Z</time>
      </trkpt>
      <trkpt lat="47.33834" lon="-1.52582">
        <ele>3</ele>
        <time>2020-09-27T10:56:20.000Z</time>
      </trkpt>
      <trkpt lat="47.33834" lon="-1.52582">
        <ele>3</ele>
        <time>2020-09-27T10:56:21.000Z</time>
      </trkpt>
      <trkpt lat="47.33834" lon="-1.52582">
        <ele>3</ele>
        <time>2020-09-27T10:56:22.000Z</time>
      </trkpt>
      <trkpt lat="47.33834" lon="-1.52582">
        <ele>3</ele>
        <time>2020-09-27T10:56:23.000Z</time>
      </trkpt>
      <trkpt lat="47.33834" lon="-1.52582">
        <ele>3</ele>
        <time>2020-09-27T10:56:24.000Z</time>
      </trkpt>
      <trkpt lat="47.33834" lon="-1.52582">
        <ele>3</ele>
        <time>2020-09-27T10:56:25.000Z</time>
      </trkpt>
      <trkpt lat="47.33834" lon="-1.52582">
        <ele>3</ele>
        <time>2020-09-27T10:56:26.000Z</time>
      </trkpt>
      <trkpt lat="47.33834" lon="-1.52583">
        <ele>3</ele>
        <time>2020-09-27T10:56:27.000Z</time>
      </trkpt>
      <trkpt lat="47.33834" lon="-1.52583">
        <ele>3</ele>
        <time>2020-09-27T10:56:28.000Z</time>
      </trkpt>
      <trkpt lat="47.33834" lon="-1.52583">
        <ele>3</ele>
        <time>2020-09-27T10:56:29.000Z</time>
      </trkpt>
      <trkpt lat="47.33834" lon="-1.52583">
        <ele>3</ele>
        <time>2020-09-27T10:56:30.000Z</time>
      </trkpt>
      <trkpt lat="47.33834" lon="-1.52583">
        <ele>3</ele>
        <time>2020-09-27T10:56:31.000Z</time>
      </trkpt>
      <trkpt lat="47.33834" lon="-1.52583">
        <ele>3</ele>
        <time>2020-09-27T10:56:32.000Z</time>
      </trkpt>
      <trkpt lat="47.33834" lon="-1.52583">
        <ele>3</ele>
        <time>2020-09-27T10:56:33.000Z</time>
      </trkpt>
      <trkpt lat="47.33834" lon="-1.52583">
        <ele>3</ele>
        <time>2020-09-27T10:56:34.000Z</time>
      </trkpt>
      <trkpt lat="47.33834" lon="-1.52583">
        <ele>3</ele>
        <time>2020-09-27T10:56:35.000Z</time>
      </trkpt>
      <trkpt lat="47.33834" lon="-1.52582">
        <ele>3</ele>
        <time>2020-09-27T10:56:36.000Z</time>
      </trkpt>
      <trkpt lat="47.33834" lon="-1.52582">
        <ele>3</ele>
        <time>2020-09-27T10:56:37.000Z</time>
      </trkpt>
      <trkpt lat="47.33834" lon="-1.52582">
        <ele>3</ele>
        <time>2020-09-27T10:56:38.000Z</time>
      </trkpt>
      <trkpt lat="47.33834" lon="-1.52582">
        <ele>3</ele>
        <time>2020-09-27T10:56:39.000Z</time>
      </trkpt>
      <trkpt lat="47.33834" lon="-1.52582">
        <ele>3</ele>
        <time>2020-09-27T10:56:40.000Z</time>
      </trkpt>
      <trkpt lat="47.33834" lon="-1.52582">
        <ele>3</ele>
        <time>2020-09-27T10:56:41.000Z</time>
      </trkpt>
      <trkpt lat="47.33834" lon="-1.52582">
        <ele>3</ele>
        <time>2020-09-27T10:56:42.000Z</time>
      </trkpt>
      <trkpt lat="47.33834" lon="-1.52582">
        <ele>3</ele>
        <time>2020-09-27T10:56:43.000Z</time>
      </trkpt>
      <trkpt lat="47.33834" lon="-1.52582">
        <ele>3</ele>
        <time>2020-09-27T10:56:44.000Z</time>
      </trkpt>
      <trkpt lat="47.33834" lon="-1.52582">
        <ele>3</ele>
        <time>2020-09-27T10:56:45.000Z</time>
      </trkpt>
      <trkpt lat="47.33834" lon="-1.52582">
        <ele>3</ele>
        <time>2020-09-27T10:56:46.000Z</time>
      </trkpt>
      <trkpt lat="47.33834" lon="-1.52582">
        <ele>3</ele>
        <time>2020-09-27T10:56:47.000Z</time>
      </trkpt>
      <trkpt lat="47.33834" lon="-1.52582">
        <ele>3</ele>
        <time>2020-09-27T10:56:48.000Z</time>
      </trkpt>
      <trkpt lat="47.33834" lon="-1.52582">
        <ele>3</ele>
        <time>2020-09-27T10:56:49.000Z</time>
      </trkpt>
      <trkpt lat="47.33834" lon="-1.52582">
        <ele>3</ele>
        <time>2020-09-27T10:56:50.000Z</time>
      </trkpt>
      <trkpt lat="47.33834" lon="-1.52582">
        <ele>3</ele>
        <time>2020-09-27T10:56:51.000Z</time>
      </trkpt>
      <trkpt lat="47.33834" lon="-1.52582">
        <ele>3</ele>
        <time>2020-09-27T10:56:52.000Z</time>
      </trkpt>
      <trkpt lat="47.33834" lon="-1.52582">
        <ele>3</ele>
        <time>2020-09-27T10:56:53.000Z</time>
      </trkpt>
      <trkpt lat="47.33834" lon="-1.52582">
        <ele>3</ele>
        <time>2020-09-27T10:56:54.000Z</time>
      </trkpt>
      <trkpt lat="47.33834" lon="-1.52582">
        <ele>3</ele>
        <time>2020-09-27T10:56:55.000Z</time>
      </trkpt>
      <trkpt lat="47.33834" lon="-1.52582">
        <ele>3</ele>
        <time>2020-09-27T10:56:56.000Z</time>
      </trkpt>
      <trkpt lat="47.33834" lon="-1.52582">
        <ele>3</ele>
        <time>2020-09-27T10:56:57.000Z</time>
      </trkpt>
      <trkpt lat="47.33834" lon="-1.52582">
        <ele>3</ele>
        <time>2020-09-27T10:56:58.000Z</time>
      </trkpt>
      <trkpt lat="47.33834" lon="-1.52582">
        <ele>3</ele>
        <time>2020-09-27T10:56:59.000Z</time>
      </trkpt>
      <trkpt lat="47.33834" lon="-1.52582">
        <ele>3</ele>
        <time>2020-09-27T10:57:00.000Z</time>
      </trkpt>
      <trkpt lat="47.33834" lon="-1.52582">
        <ele>3</ele>
        <time>2020-09-27T10:57:01.000Z</time>
      </trkpt>
      <trkpt lat="47.33834" lon="-1.52582">
        <ele>3</ele>
        <time>2020-09-27T10:57:02.000Z</time>
      </trkpt>
      <trkpt lat="47.33834" lon="-1.52582">
        <ele>3</ele>
        <time>2020-09-27T10:57:03.000Z</time>
      </trkpt>
      <trkpt lat="47.33834" lon="-1.52582">
        <ele>3</ele>
        <time>2020-09-27T10:57:04.000Z</time>
      </trkpt>
      <trkpt lat="47.33834" lon="-1.52582">
        <ele>3</ele>
        <time>2020-09-27T10:57:05.000Z</time>
      </trkpt>
      <trkpt lat="47.33834" lon="-1.52582">
        <ele>3</ele>
        <time>2020-09-27T10:57:06.000Z</time>
      </trkpt>
      <trkpt lat="47.33834" lon="-1.52582">
        <ele>3</ele>
        <time>2020-09-27T10:57:07.000Z</time>
      </trkpt>
      <trkpt lat="47.33834" lon="-1.52582">
        <ele>3</ele>
        <time>2020-09-27T10:57:08.000Z</time>
      </trkpt>
      <trkpt lat="47.33834" lon="-1.52582">
        <ele>3</ele>
        <time>2020-09-27T10:57:09.000Z</time>
      </trkpt>
      <trkpt lat="47.33834" lon="-1.52582">
        <ele>3</ele>
        <time>2020-09-27T10:57:10.000Z</time>
      </trkpt>
      <trkpt lat="47.33834" lon="-1.52582">
        <ele>3</ele>
        <time>2020-09-27T10:57:11.000Z</time>
      </trkpt>
      <trkpt lat="47.33834" lon="-1.52582">
        <ele>3</ele>
        <time>2020-09-27T10:57:12.000Z</time>
      </trkpt>
      <trkpt lat="47.33834" lon="-1.52582">
        <ele>3</ele>
        <time>2020-09-27T10:57:13.000Z</time>
      </trkpt>
      <trkpt lat="47.33834" lon="-1.52582">
        <ele>3</ele>
        <time>2020-09-27T10:57:14.000Z</time>
      </trkpt>
      <trkpt lat="47.33834" lon="-1.52582">
        <ele>3</ele>
        <time>2020-09-27T10:57:15.000Z</time>
      </trkpt>
      <trkpt lat="47.33834" lon="-1.52582">
        <ele>3</ele>
        <time>2020-09-27T10:57:16.000Z</time>
      </trkpt>
      <trkpt lat="47.33834" lon="-1.52582">
        <ele>3</ele>
        <time>2020-09-27T10:57:17.000Z</time>
      </trkpt>
      <trkpt lat="47.33834" lon="-1.52582">
        <ele>3</ele>
        <time>2020-09-27T10:57:18.000Z</time>
      </trkpt>
      <trkpt lat="47.33834" lon="-1.52582">
        <ele>3</ele>
        <time>2020-09-27T10:57:19.000Z</time>
      </trkpt>
      <trkpt lat="47.33834" lon="-1.52582">
        <ele>3</ele>
        <time>2020-09-27T10:57:20.000Z</time>
      </trkpt>
      <trkpt lat="47.33834" lon="-1.52582">
        <ele>3</ele>
        <time>2020-09-27T10:57:21.000Z</time>
      </trkpt>
      <trkpt lat="47.33834" lon="-1.52582">
        <ele>3</ele>
        <time>2020-09-27T10:57:22.000Z</time>
      </trkpt>
      <trkpt lat="47.33834" lon="-1.52582">
        <ele>3</ele>
        <time>2020-09-27T10:57:23.000Z</time>
      </trkpt>
      <trkpt lat="47.33834" lon="-1.52582">
        <ele>3</ele>
        <time>2020-09-27T10:57:24.000Z</time>
      </trkpt>
      <trkpt lat="47.33834" lon="-1.52582">
        <ele>3</ele>
        <time>2020-09-27T10:57:25.000Z</time>
      </trkpt>
      <trkpt lat="47.33834" lon="-1.52582">
        <ele>3</ele>
        <time>2020-09-27T10:57:26.000Z</time>
      </trkpt>
      <trkpt lat="47.33834" lon="-1.52582">
        <ele>3</ele>
        <time>2020-09-27T10:57:27.000Z</time>
      </trkpt>
      <trkpt lat="47.33834" lon="-1.52582">
        <ele>3</ele>
        <time>2020-09-27T10:57:28.000Z</time>
      </trkpt>
      <trkpt lat="47.33834" lon="-1.52582">
        <ele>3</ele>
        <time>2020-09-27T10:57:29.000Z</time>
      </trkpt>
      <trkpt lat="47.33834" lon="-1.52582">
        <ele>3</ele>
        <time>2020-09-27T10:57:30.000Z</time>
      </trkpt>
      <trkpt lat="47.33834" lon="-1.52582">
        <ele>3</ele>
        <time>2020-09-27T10:57:31.000Z</time>
      </trkpt>
      <trkpt lat="47.33834" lon="-1.52582">
        <ele>3</ele>
        <time>2020-09-27T10:57:32.000Z</time>
      </trkpt>
      <trkpt lat="47.33834" lon="-1.52582">
        <ele>3</ele>
        <time>2020-09-27T10:57:33.000Z</time>
      </trkpt>
      <trkpt lat="47.33834" lon="-1.52582">
        <ele>3</ele>
        <time>2020-09-27T10:57:34.000Z</time>
      </trkpt>
      <trkpt lat="47.33834" lon="-1.52582">
        <ele>3</ele>
        <time>2020-09-27T10:57:35.000Z</time>
      </trkpt>
      <trkpt lat="47.33834" lon="-1.52582">
        <ele>3</ele>
        <time>2020-09-27T10:57:36.000Z</time>
      </trkpt>
      <trkpt lat="47.33834" lon="-1.52582">
        <ele>3</ele>
        <time>2020-09-27T10:57:37.000Z</time>
      </trkpt>
      <trkpt lat="47.33834" lon="-1.52582">
        <ele>3</ele>
        <time>2020-09-27T10:57:38.000Z</time>
      </trkpt>
      <trkpt lat="47.33834" lon="-1.52582">
        <ele>3</ele>
        <time>2020-09-27T10:57:39.000Z</time>
      </trkpt>
      <trkpt lat="47.33834" lon="-1.52582">
        <ele>3</ele>
        <time>2020-09-27T10:57:40.000Z</time>
      </trkpt>
      <trkpt lat="47.33834" lon="-1.52582">
        <ele>3</ele>
        <time>2020-09-27T10:57:41.000Z</time>
      </trkpt>
      <trkpt lat="47.33834" lon="-1.52582">
        <ele>3</ele>
        <time>2020-09-27T10:57:42.000Z</time>
      </trkpt>
      <trkpt lat="47.33834" lon="-1.52582">
        <ele>3</ele>
        <time>2020-09-27T10:57:43.000Z</time>
      </trkpt>
      <trkpt lat="47.33834" lon="-1.52582">
        <ele>3</ele>
        <time>2020-09-27T10:57:44.000Z</time>
      </trkpt>
      <trkpt lat="47.33834" lon="-1.52582">
        <ele>3</ele>
        <time>2020-09-27T10:57:45.000Z</time>
      </trkpt>
      <trkpt lat="47.33834" lon="-1.52582">
        <ele>3</ele>
        <time>2020-09-27T10:57:46.000Z</time>
      </trkpt>
      <trkpt lat="47.33834" lon="-1.52582">
        <ele>3</ele>
        <time>2020-09-27T10:57:47.000Z</time>
      </trkpt>
      <trkpt lat="47.33834" lon="-1.52582">
        <ele>3</ele>
        <time>2020-09-27T10:57:48.000Z</time>
      </trkpt>
      <trkpt lat="47.33834" lon="-1.52582">
        <ele>3</ele>
        <time>2020-09-27T10:57:49.000Z</time>
      </trkpt>
      <trkpt lat="47.33834" lon="-1.52582">
        <ele>3</ele>
        <time>2020-09-27T10:57:50.000Z</time>
      </trkpt>
      <trkpt lat="47.33834" lon="-1.52582">
        <ele>3</ele>
        <time>2020-09-27T10:57:51.000Z</time>
      </trkpt>
      <trkpt lat="47.33834" lon="-1.52582">
        <ele>3</ele>
        <time>2020-09-27T10:57:52.000Z</time>
      </trkpt>
      <trkpt lat="47.33834" lon="-1.52582">
        <ele>3</ele>
        <time>2020-09-27T10:57:53.000Z</time>
      </trkpt>
      <trkpt lat="47.33834" lon="-1.52582">
        <ele>3</ele>
        <time>2020-09-27T10:57:54.000Z</time>
      </trkpt>
      <trkpt lat="47.33834" lon="-1.52582">
        <ele>3</ele>
        <time>2020-09-27T10:57:55.000Z</time>
      </trkpt>
      <trkpt lat="47.33834" lon="-1.52582">
        <ele>3</ele>
        <time>2020-09-27T10:57:56.000Z</time>
      </trkpt>
      <trkpt lat="47.33834" lon="-1.52582">
        <ele>3</ele>
        <time>2020-09-27T10:57:57.000Z</time>
      </trkpt>
      <trkpt lat="47.33834" lon="-1.52582">
        <ele>3</ele>
        <time>2020-09-27T10:57:58.000Z</time>
      </trkpt>
      <trkpt lat="47.33834" lon="-1.52582">
        <ele>3</ele>
        <time>2020-09-27T10:57:59.000Z</time>
      </trkpt>
      <trkpt lat="47.33834" lon="-1.52582">
        <ele>3</ele>
        <time>2020-09-27T10:58:00.000Z</time>
      </trkpt>
      <trkpt lat="47.33834" lon="-1.52582">
        <ele>3</ele>
        <time>2020-09-27T10:58:01.000Z</time>
      </trkpt>
      <trkpt lat="47.33834" lon="-1.52582">
        <ele>3</ele>
        <time>2020-09-27T10:58:02.000Z</time>
      </trkpt>
      <trkpt lat="47.33834" lon="-1.52582">
        <ele>3</ele>
        <time>2020-09-27T10:58:03.000Z</time>
      </trkpt>
      <trkpt lat="47.33834" lon="-1.52582">
        <ele>3</ele>
        <time>2020-09-27T10:58:04.000Z</time>
      </trkpt>
      <trkpt lat="47.33834" lon="-1.52582">
        <ele>3</ele>
        <time>2020-09-27T10:58:05.000Z</time>
      </trkpt>
      <trkpt lat="47.33834" lon="-1.52582">
        <ele>3</ele>
        <time>2020-09-27T10:58:06.000Z</time>
      </trkpt>
      <trkpt lat="47.33834" lon="-1.52582">
        <ele>3</ele>
        <time>2020-09-27T10:58:07.000Z</time>
      </trkpt>
      <trkpt lat="47.33834" lon="-1.52582">
        <ele>3</ele>
        <time>2020-09-27T10:58:08.000Z</time>
      </trkpt>
      <trkpt lat="47.33834" lon="-1.52582">
        <ele>3</ele>
        <time>2020-09-27T10:58:09.000Z</time>
      </trkpt>
      <trkpt lat="47.33834" lon="-1.52582">
        <ele>3</ele>
        <time>2020-09-27T10:58:10.000Z</time>
      </trkpt>
      <trkpt lat="47.33834" lon="-1.52582">
        <ele>3</ele>
        <time>2020-09-27T10:58:11.000Z</time>
      </trkpt>
      <trkpt lat="47.33834" lon="-1.52582">
        <ele>3</ele>
        <time>2020-09-27T10:58:12.000Z</time>
      </trkpt>
      <trkpt lat="47.33834" lon="-1.52582">
        <ele>3</ele>
        <time>2020-09-27T10:58:13.000Z</time>
      </trkpt>
      <trkpt lat="47.33834" lon="-1.52582">
        <ele>3</ele>
        <time>2020-09-27T10:58:14.000Z</time>
      </trkpt>
      <trkpt lat="47.33834" lon="-1.52582">
        <ele>3</ele>
        <time>2020-09-27T10:58:15.000Z</time>
      </trkpt>
      <trkpt lat="47.33834" lon="-1.52582">
        <ele>3</ele>
        <time>2020-09-27T10:58:16.000Z</time>
      </trkpt>
      <trkpt lat="47.33834" lon="-1.52582">
        <ele>3</ele>
        <time>2020-09-27T10:58:17.000Z</time>
      </trkpt>
      <trkpt lat="47.33834" lon="-1.52582">
        <ele>3</ele>
        <time>2020-09-27T10:58:18.000Z</time>
      </trkpt>
      <trkpt lat="47.33834" lon="-1.52582">
        <ele>3</ele>
        <time>2020-09-27T10:58:19.000Z</time>
      </trkpt>
      <trkpt lat="47.33834" lon="-1.52582">
        <ele>3</ele>
        <time>2020-09-27T10:58:20.000Z</time>
      </trkpt>
      <trkpt lat="47.33834" lon="-1.52582">
        <ele>3</ele>
        <time>2020-09-27T10:58:21.000Z</time>
      </trkpt>
      <trkpt lat="47.33834" lon="-1.52582">
        <ele>3</ele>
        <time>2020-09-27T10:58:22.000Z</time>
      </trkpt>
      <trkpt lat="47.33834" lon="-1.52582">
        <ele>3</ele>
        <time>2020-09-27T10:58:23.000Z</time>
      </trkpt>
      <trkpt lat="47.33834" lon="-1.52582">
        <ele>3</ele>
        <time>2020-09-27T10:58:24.000Z</time>
      </trkpt>
      <trkpt lat="47.33834" lon="-1.52582">
        <ele>3</ele>
        <time>2020-09-27T10:58:25.000Z</time>
      </trkpt>
      <trkpt lat="47.33834" lon="-1.52582">
        <ele>3</ele>
        <time>2020-09-27T10:58:26.000Z</time>
      </trkpt>
      <trkpt lat="47.33834" lon="-1.52582">
        <ele>3</ele>
        <time>2020-09-27T10:58:27.000Z</time>
      </trkpt>
      <trkpt lat="47.33834" lon="-1.52582">
        <ele>3</ele>
        <time>2020-09-27T10:58:28.000Z</time>
      </trkpt>
      <trkpt lat="47.33834" lon="-1.52582">
        <ele>3</ele>
        <time>2020-09-27T10:58:29.000Z</time>
      </trkpt>
      <trkpt lat="47.33834" lon="-1.52582">
        <ele>3</ele>
        <time>2020-09-27T10:58:30.000Z</time>
      </trkpt>
      <trkpt lat="47.33834" lon="-1.52582">
        <ele>3</ele>
        <time>2020-09-27T10:58:31.000Z</time>
      </trkpt>
      <trkpt lat="47.33834" lon="-1.52582">
        <ele>3</ele>
        <time>2020-09-27T10:58:32.000Z</time>
      </trkpt>
      <trkpt lat="47.33834" lon="-1.52582">
        <ele>3</ele>
        <time>2020-09-27T10:58:33.000Z</time>
      </trkpt>
      <trkpt lat="47.33834" lon="-1.52582">
        <ele>3</ele>
        <time>2020-09-27T10:58:34.000Z</time>
      </trkpt>
      <trkpt lat="47.33834" lon="-1.52582">
        <ele>3</ele>
        <time>2020-09-27T10:58:35.000Z</time>
      </trkpt>
      <trkpt lat="47.33834" lon="-1.52582">
        <ele>3</ele>
        <time>2020-09-27T10:58:36.000Z</time>
      </trkpt>
      <trkpt lat="47.33834" lon="-1.52582">
        <ele>3</ele>
        <time>2020-09-27T10:58:37.000Z</time>
      </trkpt>
      <trkpt lat="47.33834" lon="-1.52582">
        <ele>3</ele>
        <time>2020-09-27T10:58:38.000Z</time>
      </trkpt>
      <trkpt lat="47.33834" lon="-1.52582">
        <ele>3</ele>
        <time>2020-09-27T10:58:39.000Z</time>
      </trkpt>
      <trkpt lat="47.33834" lon="-1.52582">
        <ele>3</ele>
        <time>2020-09-27T10:58:40.000Z</time>
      </trkpt>
      <trkpt lat="47.33834" lon="-1.52582">
        <ele>3</ele>
        <time>2020-09-27T10:58:41.000Z</time>
      </trkpt>
      <trkpt lat="47.33834" lon="-1.52582">
        <ele>3</ele>
        <time>2020-09-27T10:58:42.000Z</time>
      </trkpt>
      <trkpt lat="47.33834" lon="-1.52582">
        <ele>3</ele>
        <time>2020-09-27T10:58:43.000Z</time>
      </trkpt>
      <trkpt lat="47.33834" lon="-1.52582">
        <ele>3</ele>
        <time>2020-09-27T10:58:44.000Z</time>
      </trkpt>
      <trkpt lat="47.33834" lon="-1.52582">
        <ele>3</ele>
        <time>2020-09-27T10:58:45.000Z</time>
      </trkpt>
      <trkpt lat="47.33834" lon="-1.52582">
        <ele>3</ele>
        <time>2020-09-27T10:58:46.000Z</time>
      </trkpt>
      <trkpt lat="47.33834" lon="-1.52582">
        <ele>3</ele>
        <time>2020-09-27T10:58:47.000Z</time>
      </trkpt>
      <trkpt lat="47.33834" lon="-1.52582">
        <ele>3</ele>
        <time>2020-09-27T10:58:48.000Z</time>
      </trkpt>
      <trkpt lat="47.33834" lon="-1.52582">
        <ele>3</ele>
        <time>2020-09-27T10:58:49.000Z</time>
      </trkpt>
      <trkpt lat="47.33834" lon="-1.52582">
        <ele>3</ele>
        <time>2020-09-27T10:58:50.000Z</time>
      </trkpt>
      <trkpt lat="47.33834" lon="-1.52582">
        <ele>3</ele>
        <time>2020-09-27T10:58:51.000Z</time>
      </trkpt>
      <trkpt lat="47.33834" lon="-1.52582">
        <ele>3</ele>
        <time>2020-09-27T10:58:52.000Z</time>
      </trkpt>
      <trkpt lat="47.33834" lon="-1.52582">
        <ele>3</ele>
        <time>2020-09-27T10:58:53.000Z</time>
      </trkpt>
      <trkpt lat="47.33834" lon="-1.52582">
        <ele>3</ele>
        <time>2020-09-27T10:58:54.000Z</time>
      </trkpt>
      <trkpt lat="47.33834" lon="-1.52582">
        <ele>3</ele>
        <time>2020-09-27T10:58:55.000Z</time>
      </trkpt>
      <trkpt lat="47.33834" lon="-1.52582">
        <ele>3</ele>
        <time>2020-09-27T10:58:56.000Z</time>
      </trkpt>
      <trkpt lat="47.33834" lon="-1.52582">
        <ele>3</ele>
        <time>2020-09-27T10:58:57.000Z</time>
      </trkpt>
      <trkpt lat="47.33834" lon="-1.52582">
        <ele>3</ele>
        <time>2020-09-27T10:58:58.000Z</time>
      </trkpt>
      <trkpt lat="47.33834" lon="-1.52582">
        <ele>3</ele>
        <time>2020-09-27T10:58:59.000Z</time>
      </trkpt>
      <trkpt lat="47.33834" lon="-1.52582">
        <ele>3</ele>
        <time>2020-09-27T10:59:00.000Z</time>
      </trkpt>
      <trkpt lat="47.33834" lon="-1.52582">
        <ele>3</ele>
        <time>2020-09-27T10:59:01.000Z</time>
      </trkpt>
      <trkpt lat="47.33834" lon="-1.52582">
        <ele>3</ele>
        <time>2020-09-27T10:59:02.000Z</time>
      </trkpt>
      <trkpt lat="47.33834" lon="-1.52582">
        <ele>3</ele>
        <time>2020-09-27T10:59:03.000Z</time>
      </trkpt>
      <trkpt lat="47.33834" lon="-1.52582">
        <ele>3</ele>
        <time>2020-09-27T10:59:04.000Z</time>
      </trkpt>
      <trkpt lat="47.33834" lon="-1.52582">
        <ele>3</ele>
        <time>2020-09-27T10:59:05.000Z</time>
      </trkpt>
      <trkpt lat="47.33834" lon="-1.52582">
        <ele>3</ele>
        <time>2020-09-27T10:59:06.000Z</time>
      </trkpt>
      <trkpt lat="47.33834" lon="-1.52582">
        <ele>3</ele>
        <time>2020-09-27T10:59:07.000Z</time>
      </trkpt>
      <trkpt lat="47.33834" lon="-1.52582">
        <ele>3</ele>
        <time>2020-09-27T10:59:08.000Z</time>
      </trkpt>
      <trkpt lat="47.33834" lon="-1.52582">
        <ele>3</ele>
        <time>2020-09-27T10:59:09.000Z</time>
      </trkpt>
      <trkpt lat="47.33834" lon="-1.52582">
        <ele>3</ele>
        <time>2020-09-27T10:59:10.000Z</time>
      </trkpt>
      <trkpt lat="47.33834" lon="-1.52582">
        <ele>3</ele>
        <time>2020-09-27T10:59:11.000Z</time>
      </trkpt>
      <trkpt lat="47.33834" lon="-1.52582">
        <ele>3</ele>
        <time>2020-09-27T10:59:12.000Z</time>
      </trkpt>
      <trkpt lat="47.33834" lon="-1.52582">
        <ele>3</ele>
        <time>2020-09-27T10:59:13.000Z</time>
      </trkpt>
      <trkpt lat="47.33834" lon="-1.52582">
        <ele>3</ele>
        <time>2020-09-27T10:59:14.000Z</time>
      </trkpt>
      <trkpt lat="47.33834" lon="-1.52582">
        <ele>3</ele>
        <time>2020-09-27T10:59:15.000Z</time>
      </trkpt>
      <trkpt lat="47.33834" lon="-1.52582">
        <ele>3</ele>
        <time>2020-09-27T10:59:16.000Z</time>
      </trkpt>
      <trkpt lat="47.33834" lon="-1.52582">
        <ele>3</ele>
        <time>2020-09-27T10:59:17.000Z</time>
      </trkpt>
      <trkpt lat="47.33834" lon="-1.52582">
        <ele>3</ele>
        <time>2020-09-27T10:59:18.000Z</time>
      </trkpt>
      <trkpt lat="47.33834" lon="-1.52582">
        <ele>3</ele>
        <time>2020-09-27T10:59:19.000Z</time>
      </trkpt>
      <trkpt lat="47.33834" lon="-1.52582">
        <ele>3</ele>
        <time>2020-09-27T10:59:20.000Z</time>
      </trkpt>
      <trkpt lat="47.33834" lon="-1.52582">
        <ele>3</ele>
        <time>2020-09-27T10:59:21.000Z</time>
      </trkpt>
      <trkpt lat="47.33834" lon="-1.52582">
        <ele>3</ele>
        <time>2020-09-27T10:59:22.000Z</time>
      </trkpt>
      <trkpt lat="47.33834" lon="-1.52582">
        <ele>3</ele>
        <time>2020-09-27T10:59:23.000Z</time>
      </trkpt>
      <trkpt lat="47.33834" lon="-1.52582">
        <ele>3</ele>
        <time>2020-09-27T10:59:24.000Z</time>
      </trkpt>
      <trkpt lat="47.33834" lon="-1.52582">
        <ele>3</ele>
        <time>2020-09-27T10:59:25.000Z</time>
      </trkpt>
      <trkpt lat="47.33834" lon="-1.52582">
        <ele>3</ele>
        <time>2020-09-27T10:59:26.000Z</time>
      </trkpt>
      <trkpt lat="47.33834" lon="-1.52582">
        <ele>3</ele>
        <time>2020-09-27T10:59:27.000Z</time>
      </trkpt>
      <trkpt lat="47.33834" lon="-1.52582">
        <ele>3</ele>
        <time>2020-09-27T10:59:28.000Z</time>
      </trkpt>
      <trkpt lat="47.33834" lon="-1.52582">
        <ele>3</ele>
        <time>2020-09-27T10:59:29.000Z</time>
      </trkpt>
      <trkpt lat="47.33834" lon="-1.52582">
        <ele>3</ele>
        <time>2020-09-27T10:59:30.000Z</time>
      </trkpt>
      <trkpt lat="47.33834" lon="-1.52582">
        <ele>3</ele>
        <time>2020-09-27T10:59:31.000Z</time>
      </trkpt>
      <trkpt lat="47.33834" lon="-1.52582">
        <ele>3</ele>
        <time>2020-09-27T10:59:32.000Z</time>
      </trkpt>
      <trkpt lat="47.33834" lon="-1.52582">
        <ele>3</ele>
        <time>2020-09-27T10:59:33.000Z</time>
      </trkpt>
      <trkpt lat="47.33834" lon="-1.52582">
        <ele>3</ele>
        <time>2020-09-27T10:59:34.000Z</time>
      </trkpt>
      <trkpt lat="47.33834" lon="-1.52582">
        <ele>3</ele>
        <time>2020-09-27T10:59:35.000Z</time>
      </trkpt>
      <trkpt lat="47.33834" lon="-1.52582">
        <ele>3</ele>
        <time>2020-09-27T10:59:36.000Z</time>
      </trkpt>
      <trkpt lat="47.33834" lon="-1.52582">
        <ele>3</ele>
        <time>2020-09-27T10:59:37.000Z</time>
      </trkpt>
      <trkpt lat="47.33834" lon="-1.52582">
        <ele>3</ele>
        <time>2020-09-27T10:59:38.000Z</time>
      </trkpt>
      <trkpt lat="47.33834" lon="-1.52582">
        <ele>3</ele>
        <time>2020-09-27T10:59:39.000Z</time>
      </trkpt>
      <trkpt lat="47.33834" lon="-1.52582">
        <ele>3</ele>
        <time>2020-09-27T10:59:40.000Z</time>
      </trkpt>
      <trkpt lat="47.33834" lon="-1.52582">
        <ele>3</ele>
        <time>2020-09-27T10:59:41.000Z</time>
      </trkpt>
      <trkpt lat="47.33834" lon="-1.52582">
        <ele>3</ele>
        <time>2020-09-27T10:59:42.000Z</time>
      </trkpt>
      <trkpt lat="47.33834" lon="-1.52582">
        <ele>3</ele>
        <time>2020-09-27T10:59:43.000Z</time>
      </trkpt>
      <trkpt lat="47.33834" lon="-1.52582">
        <ele>3</ele>
        <time>2020-09-27T10:59:44.000Z</time>
      </trkpt>
      <trkpt lat="47.33834" lon="-1.52582">
        <ele>3</ele>
        <time>2020-09-27T10:59:45.000Z</time>
      </trkpt>
      <trkpt lat="47.33834" lon="-1.52582">
        <ele>3</ele>
        <time>2020-09-27T10:59:46.000Z</time>
      </trkpt>
      <trkpt lat="47.33834" lon="-1.52582">
        <ele>3</ele>
        <time>2020-09-27T10:59:47.000Z</time>
      </trkpt>
      <trkpt lat="47.33834" lon="-1.52582">
        <ele>3</ele>
        <time>2020-09-27T10:59:48.000Z</time>
      </trkpt>
      <trkpt lat="47.33834" lon="-1.52582">
        <ele>3</ele>
        <time>2020-09-27T10:59:49.000Z</time>
      </trkpt>
      <trkpt lat="47.33834" lon="-1.52582">
        <ele>3</ele>
        <time>2020-09-27T10:59:50.000Z</time>
      </trkpt>
      <trkpt lat="47.33834" lon="-1.52582">
        <ele>3</ele>
        <time>2020-09-27T10:59:51.000Z</time>
      </trkpt>
      <trkpt lat="47.33834" lon="-1.52582">
        <ele>3</ele>
        <time>2020-09-27T10:59:52.000Z</time>
      </trkpt>
      <trkpt lat="47.33834" lon="-1.52583">
        <ele>3</ele>
        <time>2020-09-27T10:59:53.000Z</time>
      </trkpt>
      <trkpt lat="47.33834" lon="-1.52583">
        <ele>3</ele>
        <time>2020-09-27T10:59:54.000Z</time>
      </trkpt>
      <trkpt lat="47.33834" lon="-1.52583">
        <ele>3</ele>
        <time>2020-09-27T10:59:55.000Z</time>
      </trkpt>
      <trkpt lat="47.33834" lon="-1.52583">
        <ele>3</ele>
        <time>2020-09-27T10:59:56.000Z</time>
      </trkpt>
      <trkpt lat="47.33834" lon="-1.52583">
        <ele>3</ele>
        <time>2020-09-27T10:59:57.000Z</time>
      </trkpt>
      <trkpt lat="47.33834" lon="-1.52583">
        <ele>3</ele>
        <time>2020-09-27T10:59:58.000Z</time>
      </trkpt>
      <trkpt lat="47.33834" lon="-1.52583">
        <ele>3</ele>
        <time>2020-09-27T10:59:59.000Z</time>
      </trkpt>
      <trkpt lat="47.33834" lon="-1.52583">
        <ele>3</ele>
        <time>2020-09-27T11:00:00.000Z</time>
      </trkpt>
      <trkpt lat="47.33834" lon="-1.52583">
        <ele>3</ele>
        <time>2020-09-27T11:00:01.000Z</time>
      </trkpt>
      <trkpt lat="47.33834" lon="-1.52583">
        <ele>3</ele>
        <time>2020-09-27T11:00:02.000Z</time>
      </trkpt>
      <trkpt lat="47.33834" lon="-1.52583">
        <ele>3</ele>
        <time>2020-09-27T11:00:03.000Z</time>
      </trkpt>
      <trkpt lat="47.33834" lon="-1.52583">
        <ele>3</ele>
        <time>2020-09-27T11:00:04.000Z</time>
      </trkpt>
      <trkpt lat="47.33834" lon="-1.52583">
        <ele>3</ele>
        <time>2020-09-27T11:00:05.000Z</time>
      </trkpt>
      <trkpt lat="47.33834" lon="-1.52583">
        <ele>3</ele>
        <time>2020-09-27T11:00:06.000Z</time>
      </trkpt>
      <trkpt lat="47.33834" lon="-1.52583">
        <ele>3</ele>
        <time>2020-09-27T11:00:07.000Z</time>
      </trkpt>
      <trkpt lat="47.33834" lon="-1.52583">
        <ele>3</ele>
        <time>2020-09-27T11:00:08.000Z</time>
      </trkpt>
      <trkpt lat="47.33834" lon="-1.52583">
        <ele>3</ele>
        <time>2020-09-27T11:00:09.000Z</time>
      </trkpt>
      <trkpt lat="47.33834" lon="-1.52583">
        <ele>3</ele>
        <time>2020-09-27T11:00:10.000Z</time>
      </trkpt>
      <trkpt lat="47.33834" lon="-1.52583">
        <ele>3</ele>
        <time>2020-09-27T11:00:11.000Z</time>
      </trkpt>
      <trkpt lat="47.33834" lon="-1.52583">
        <ele>3</ele>
        <time>2020-09-27T11:00:12.000Z</time>
      </trkpt>
      <trkpt lat="47.33834" lon="-1.52583">
        <ele>3</ele>
        <time>2020-09-27T11:00:13.000Z</time>
      </trkpt>
      <trkpt lat="47.33834" lon="-1.52583">
        <ele>3</ele>
        <time>2020-09-27T11:00:14.000Z</time>
      </trkpt>
      <trkpt lat="47.33834" lon="-1.52583">
        <ele>3</ele>
        <time>2020-09-27T11:00:15.000Z</time>
      </trkpt>
      <trkpt lat="47.33834" lon="-1.52583">
        <ele>3</ele>
        <time>2020-09-27T11:00:16.000Z</time>
      </trkpt>
      <trkpt lat="47.33834" lon="-1.52583">
        <ele>3</ele>
        <time>2020-09-27T11:00:17.000Z</time>
      </trkpt>
      <trkpt lat="47.33834" lon="-1.52583">
        <ele>3</ele>
        <time>2020-09-27T11:00:18.000Z</time>
      </trkpt>
      <trkpt lat="47.33834" lon="-1.52583">
        <ele>3</ele>
        <time>2020-09-27T11:00:19.000Z</time>
      </trkpt>
      <trkpt lat="47.33834" lon="-1.52583">
        <ele>3</ele>
        <time>2020-09-27T11:00:20.000Z</time>
      </trkpt>
      <trkpt lat="47.33834" lon="-1.52583">
        <ele>3</ele>
        <time>2020-09-27T11:00:21.000Z</time>
      </trkpt>
      <trkpt lat="47.33834" lon="-1.52583">
        <ele>3</ele>
        <time>2020-09-27T11:00:22.000Z</time>
      </trkpt>
      <trkpt lat="47.33834" lon="-1.52583">
        <ele>3</ele>
        <time>2020-09-27T11:00:23.000Z</time>
      </trkpt>
      <trkpt lat="47.33834" lon="-1.52583">
        <ele>3</ele>
        <time>2020-09-27T11:00:24.000Z</time>
      </trkpt>
      <trkpt lat="47.33834" lon="-1.52583">
        <ele>3</ele>
        <time>2020-09-27T11:00:25.000Z</time>
      </trkpt>
      <trkpt lat="47.33834" lon="-1.52583">
        <ele>3</ele>
        <time>2020-09-27T11:00:26.000Z</time>
      </trkpt>
      <trkpt lat="47.33834" lon="-1.52583">
        <ele>3</ele>
        <time>2020-09-27T11:00:27.000Z</time>
      </trkpt>
      <trkpt lat="47.33834" lon="-1.52583">
        <ele>3</ele>
        <time>2020-09-27T11:00:28.000Z</time>
      </trkpt>
      <trkpt lat="47.33834" lon="-1.52583">
        <ele>3</ele>
        <time>2020-09-27T11:00:29.000Z</time>
      </trkpt>
      <trkpt lat="47.33834" lon="-1.52583">
        <ele>3</ele>
        <time>2020-09-27T11:00:30.000Z</time>
      </trkpt>
      <trkpt lat="47.33834" lon="-1.52583">
        <ele>3</ele>
        <time>2020-09-27T11:00:31.000Z</time>
      </trkpt>
      <trkpt lat="47.33834" lon="-1.52583">
        <ele>3</ele>
        <time>2020-09-27T11:00:32.000Z</time>
      </trkpt>
      <trkpt lat="47.33834" lon="-1.52583">
        <ele>3</ele>
        <time>2020-09-27T11:00:33.000Z</time>
      </trkpt>
      <trkpt lat="47.33834" lon="-1.52583">
        <ele>3</ele>
        <time>2020-09-27T11:00:34.000Z</time>
      </trkpt>
      <trkpt lat="47.33834" lon="-1.52583">
        <ele>3</ele>
        <time>2020-09-27T11:00:35.000Z</time>
      </trkpt>
      <trkpt lat="47.33834" lon="-1.52583">
        <ele>3</ele>
        <time>2020-09-27T11:00:36.000Z</time>
      </trkpt>
      <trkpt lat="47.33834" lon="-1.52582">
        <ele>3</ele>
        <time>2020-09-27T11:00:37.000Z</time>
      </trkpt>
      <trkpt lat="47.33834" lon="-1.52582">
        <ele>3</ele>
        <time>2020-09-27T11:00:38.000Z</time>
      </trkpt>
      <trkpt lat="47.33834" lon="-1.52582">
        <ele>3</ele>
        <time>2020-09-27T11:00:39.000Z</time>
      </trkpt>
      <trkpt lat="47.33834" lon="-1.52582">
        <ele>3</ele>
        <time>2020-09-27T11:00:40.000Z</time>
      </trkpt>
      <trkpt lat="47.33834" lon="-1.52582">
        <ele>3</ele>
        <time>2020-09-27T11:00:41.000Z</time>
      </trkpt>
      <trkpt lat="47.33834" lon="-1.52582">
        <ele>3</ele>
        <time>2020-09-27T11:00:42.000Z</time>
      </trkpt>
      <trkpt lat="47.33834" lon="-1.52582">
        <ele>3</ele>
        <time>2020-09-27T11:00:43.000Z</time>
      </trkpt>
      <trkpt lat="47.33834" lon="-1.52582">
        <ele>3</ele>
        <time>2020-09-27T11:00:44.000Z</time>
      </trkpt>
      <trkpt lat="47.33834" lon="-1.52582">
        <ele>3</ele>
        <time>2020-09-27T11:00:45.000Z</time>
      </trkpt>
      <trkpt lat="47.33834" lon="-1.52582">
        <ele>3</ele>
        <time>2020-09-27T11:00:46.000Z</time>
      </trkpt>
      <trkpt lat="47.33834" lon="-1.52582">
        <ele>3</ele>
        <time>2020-09-27T11:00:47.000Z</time>
      </trkpt>
      <trkpt lat="47.33834" lon="-1.52582">
        <ele>3</ele>
        <time>2020-09-27T11:00:48.000Z</time>
      </trkpt>
      <trkpt lat="47.33834" lon="-1.52582">
        <ele>3</ele>
        <time>2020-09-27T11:00:49.000Z</time>
      </trkpt>
      <trkpt lat="47.33834" lon="-1.52582">
        <ele>3</ele>
        <time>2020-09-27T11:00:50.000Z</time>
      </trkpt>
      <trkpt lat="47.33834" lon="-1.52582">
        <ele>3</ele>
        <time>2020-09-27T11:00:51.000Z</time>
      </trkpt>
      <trkpt lat="47.33834" lon="-1.52582">
        <ele>3</ele>
        <time>2020-09-27T11:00:52.000Z</time>
      </trkpt>
      <trkpt lat="47.33834" lon="-1.52582">
        <ele>3</ele>
        <time>2020-09-27T11:00:53.000Z</time>
      </trkpt>
      <trkpt lat="47.33834" lon="-1.52582">
        <ele>3</ele>
        <time>2020-09-27T11:00:54.000Z</time>
      </trkpt>
      <trkpt lat="47.33834" lon="-1.52582">
        <ele>3</ele>
        <time>2020-09-27T11:00:55.000Z</time>
      </trkpt>
      <trkpt lat="47.33834" lon="-1.52582">
        <ele>3</ele>
        <time>2020-09-27T11:00:56.000Z</time>
      </trkpt>
      <trkpt lat="47.33834" lon="-1.52582">
        <ele>3</ele>
        <time>2020-09-27T11:00:57.000Z</time>
      </trkpt>
      <trkpt lat="47.33834" lon="-1.52582">
        <ele>3</ele>
        <time>2020-09-27T11:00:58.000Z</time>
      </trkpt>
      <trkpt lat="47.33834" lon="-1.52582">
        <ele>3</ele>
        <time>2020-09-27T11:00:59.000Z</time>
      </trkpt>
      <trkpt lat="47.33834" lon="-1.52582">
        <ele>3</ele>
        <time>2020-09-27T11:01:00.000Z</time>
      </trkpt>
      <trkpt lat="47.33834" lon="-1.52582">
        <ele>3</ele>
        <time>2020-09-27T11:01:01.000Z</time>
      </trkpt>
      <trkpt lat="47.33834" lon="-1.52582">
        <ele>3</ele>
        <time>2020-09-27T11:01:02.000Z</time>
      </trkpt>
      <trkpt lat="47.33834" lon="-1.52582">
        <ele>3</ele>
        <time>2020-09-27T11:01:03.000Z</time>
      </trkpt>
      <trkpt lat="47.33834" lon="-1.52582">
        <ele>3</ele>
        <time>2020-09-27T11:01:04.000Z</time>
      </trkpt>
      <trkpt lat="47.33834" lon="-1.52582">
        <ele>3</ele>
        <time>2020-09-27T11:01:05.000Z</time>
      </trkpt>
      <trkpt lat="47.33834" lon="-1.52582">
        <ele>3</ele>
        <time>2020-09-27T11:01:06.000Z</time>
      </trkpt>
      <trkpt lat="47.33834" lon="-1.52582">
        <ele>3</ele>
        <time>2020-09-27T11:01:07.000Z</time>
      </trkpt>
      <trkpt lat="47.33834" lon="-1.52582">
        <ele>3</ele>
        <time>2020-09-27T11:01:08.000Z</time>
      </trkpt>
      <trkpt lat="47.33834" lon="-1.52582">
        <ele>3</ele>
        <time>2020-09-27T11:01:09.000Z</time>
      </trkpt>
      <trkpt lat="47.33834" lon="-1.52582">
        <ele>3</ele>
        <time>2020-09-27T11:01:10.000Z</time>
      </trkpt>
      <trkpt lat="47.33834" lon="-1.52582">
        <ele>3</ele>
        <time>2020-09-27T11:01:11.000Z</time>
      </trkpt>
      <trkpt lat="47.33834" lon="-1.52582">
        <ele>3</ele>
        <time>2020-09-27T11:01:12.000Z</time>
      </trkpt>
      <trkpt lat="47.33834" lon="-1.52582">
        <ele>3</ele>
        <time>2020-09-27T11:01:13.000Z</time>
      </trkpt>
      <trkpt lat="47.33834" lon="-1.52582">
        <ele>3</ele>
        <time>2020-09-27T11:01:14.000Z</time>
      </trkpt>
      <trkpt lat="47.33834" lon="-1.52582">
        <ele>3</ele>
        <time>2020-09-27T11:01:15.000Z</time>
      </trkpt>
      <trkpt lat="47.33834" lon="-1.52582">
        <ele>3</ele>
        <time>2020-09-27T11:01:16.000Z</time>
      </trkpt>
      <trkpt lat="47.33834" lon="-1.52582">
        <ele>3</ele>
        <time>2020-09-27T11:01:17.000Z</time>
      </trkpt>
      <trkpt lat="47.33834" lon="-1.52582">
        <ele>3</ele>
        <time>2020-09-27T11:01:18.000Z</time>
      </trkpt>
      <trkpt lat="47.33834" lon="-1.52582">
        <ele>3</ele>
        <time>2020-09-27T11:01:19.000Z</time>
      </trkpt>
      <trkpt lat="47.33834" lon="-1.52582">
        <ele>3</ele>
        <time>2020-09-27T11:01:20.000Z</time>
      </trkpt>
      <trkpt lat="47.33834" lon="-1.52582">
        <ele>3</ele>
        <time>2020-09-27T11:01:21.000Z</time>
      </trkpt>
      <trkpt lat="47.33834" lon="-1.52582">
        <ele>3</ele>
        <time>2020-09-27T11:01:22.000Z</time>
      </trkpt>
      <trkpt lat="47.33834" lon="-1.52582">
        <ele>3</ele>
        <time>2020-09-27T11:01:23.000Z</time>
      </trkpt>
      <trkpt lat="47.33834" lon="-1.52582">
        <ele>3</ele>
        <time>2020-09-27T11:01:24.000Z</time>
      </trkpt>
      <trkpt lat="47.33834" lon="-1.52583">
        <ele>3</ele>
        <time>2020-09-27T11:01:25.000Z</time>
      </trkpt>
      <trkpt lat="47.33834" lon="-1.52583">
        <ele>3</ele>
        <time>2020-09-27T11:01:26.000Z</time>
      </trkpt>
      <trkpt lat="47.33834" lon="-1.52583">
        <ele>3</ele>
        <time>2020-09-27T11:01:27.000Z</time>
      </trkpt>
      <trkpt lat="47.33834" lon="-1.52583">
        <ele>3</ele>
        <time>2020-09-27T11:01:28.000Z</time>
      </trkpt>
      <trkpt lat="47.33834" lon="-1.52583">
        <ele>3</ele>
        <time>2020-09-27T11:01:29.000Z</time>
      </trkpt>
      <trkpt lat="47.33834" lon="-1.52583">
        <ele>3</ele>
        <time>2020-09-27T11:01:30.000Z</time>
      </trkpt>
      <trkpt lat="47.33834" lon="-1.52583">
        <ele>3</ele>
        <time>2020-09-27T11:01:31.000Z</time>
      </trkpt>
      <trkpt lat="47.33834" lon="-1.52583">
        <ele>3</ele>
        <time>2020-09-27T11:01:32.000Z</time>
      </trkpt>
      <trkpt lat="47.33834" lon="-1.52583">
        <ele>3</ele>
        <time>2020-09-27T11:01:33.000Z</time>
      </trkpt>
      <trkpt lat="47.33834" lon="-1.52583">
        <ele>3</ele>
        <time>2020-09-27T11:01:34.000Z</time>
      </trkpt>
      <trkpt lat="47.33834" lon="-1.52583">
        <ele>3</ele>
        <time>2020-09-27T11:01:35.000Z</time>
      </trkpt>
      <trkpt lat="47.33834" lon="-1.52583">
        <ele>3</ele>
        <time>2020-09-27T11:01:36.000Z</time>
      </trkpt>
      <trkpt lat="47.33834" lon="-1.52583">
        <ele>3</ele>
        <time>2020-09-27T11:01:37.000Z</time>
      </trkpt>
      <trkpt lat="47.33834" lon="-1.52583">
        <ele>3</ele>
        <time>2020-09-27T11:01:38.000Z</time>
      </trkpt>
      <trkpt lat="47.33834" lon="-1.52583">
        <ele>3</ele>
        <time>2020-09-27T11:01:39.000Z</time>
      </trkpt>
      <trkpt lat="47.33833" lon="-1.52583">
        <ele>3</ele>
        <time>2020-09-27T11:01:40.000Z</time>
      </trkpt>
      <trkpt lat="47.33833" lon="-1.52583">
        <ele>3</ele>
        <time>2020-09-27T11:01:41.000Z</time>
      </trkpt>
      <trkpt lat="47.33833" lon="-1.52583">
        <ele>3</ele>
        <time>2020-09-27T11:01:42.000Z</time>
      </trkpt>
      <trkpt lat="47.33833" lon="-1.52583">
        <ele>3</ele>
        <time>2020-09-27T11:01:43.000Z</time>
      </trkpt>
      <trkpt lat="47.33834" lon="-1.52583">
        <ele>3</ele>
        <time>2020-09-27T11:01:44.000Z</time>
      </trkpt>
      <trkpt lat="47.33834" lon="-1.52583">
        <ele>3</ele>
        <time>2020-09-27T11:01:45.000Z</time>
      </trkpt>
      <trkpt lat="47.33835" lon="-1.52583">
        <ele>3.1</ele>
        <time>2020-09-27T11:01:46.000Z</time>
      </trkpt>
      <trkpt lat="47.33835" lon="-1.52584">
        <ele>3.1</ele>
        <time>2020-09-27T11:01:47.000Z</time>
      </trkpt>
      <trkpt lat="47.33835" lon="-1.52584">
        <ele>3.1</ele>
        <time>2020-09-27T11:01:48.000Z</time>
      </trkpt>
      <trkpt lat="47.33835" lon="-1.52584">
        <ele>3.1</ele>
        <time>2020-09-27T11:01:49.000Z</time>
      </trkpt>
      <trkpt lat="47.33835" lon="-1.52584">
        <ele>3.1</ele>
        <time>2020-09-27T11:01:50.000Z</time>
      </trkpt>
      <trkpt lat="47.33835" lon="-1.52584">
        <ele>3.1</ele>
        <time>2020-09-27T11:01:51.000Z</time>
      </trkpt>
      <trkpt lat="47.33835" lon="-1.52584">
        <ele>3</ele>
        <time>2020-09-27T11:01:52.000Z</time>
      </trkpt>
      <trkpt lat="47.33834" lon="-1.52584">
        <ele>3</ele>
        <time>2020-09-27T11:01:53.000Z</time>
      </trkpt>
      <trkpt lat="47.33834" lon="-1.52583">
        <ele>3</ele>
        <time>2020-09-27T11:01:54.000Z</time>
      </trkpt>
      <trkpt lat="47.33834" lon="-1.52583">
        <ele>3</ele>
        <time>2020-09-27T11:01:55.000Z</time>
      </trkpt>
      <trkpt lat="47.33833" lon="-1.52582">
        <ele>3</ele>
        <time>2020-09-27T11:01:56.000Z</time>
      </trkpt>
      <trkpt lat="47.33833" lon="-1.52582">
        <ele>3</ele>
        <time>2020-09-27T11:01:57.000Z</time>
      </trkpt>
      <trkpt lat="47.33832" lon="-1.52581">
        <ele>3</ele>
        <time>2020-09-27T11:01:58.000Z</time>
      </trkpt>
      <trkpt lat="47.33832" lon="-1.52581">
        <ele>3</ele>
        <time>2020-09-27T11:01:59.000Z</time>
      </trkpt>
      <trkpt lat="47.33831" lon="-1.52581">
        <ele>3</ele>
        <time>2020-09-27T11:02:00.000Z</time>
      </trkpt>
      <trkpt lat="47.3383" lon="-1.5258">
        <ele>3</ele>
        <time>2020-09-27T11:02:01.000Z</time>
      </trkpt>
      <trkpt lat="47.3383" lon="-1.5258">
        <ele>3</ele>
        <time>2020-09-27T11:02:02.000Z</time>
      </trkpt>
      <trkpt lat="47.33829" lon="-1.52579">
        <ele>3</ele>
        <time>2020-09-27T11:02:03.000Z</time>
      </trkpt>
      <trkpt lat="47.33829" lon="-1.52579">
        <ele>3</ele>
        <time>2020-09-27T11:02:04.000Z</time>
      </trkpt>
      <trkpt lat="47.33828" lon="-1.52579">
        <ele>3</ele>
        <time>2020-09-27T11:02:05.000Z</time>
      </trkpt>
      <trkpt lat="47.33828" lon="-1.52579">
        <ele>3</ele>
        <time>2020-09-27T11:02:06.000Z</time>
      </trkpt>
      <trkpt lat="47.33828" lon="-1.52579">
        <ele>3</ele>
        <time>2020-09-27T11:02:07.000Z</time>
      </trkpt>
      <trkpt lat="47.33828" lon="-1.52579">
        <ele>3</ele>
        <time>2020-09-27T11:02:08.000Z</time>
      </trkpt>
      <trkpt lat="47.33828" lon="-1.52579">
        <ele>3</ele>
        <time>2020-09-27T11:02:09.000Z</time>
      </trkpt>
      <trkpt lat="47.33829" lon="-1.5258">
        <ele>3</ele>
        <time>2020-09-27T11:02:10.000Z</time>
      </trkpt>
      <trkpt lat="47.3383" lon="-1.5258">
        <ele>3</ele>
        <time>2020-09-27T11:02:11.000Z</time>
      </trkpt>
      <trkpt lat="47.33831" lon="-1.52581">
        <ele>3</ele>
        <time>2020-09-27T11:02:12.000Z</time>
      </trkpt>
      <trkpt lat="47.33832" lon="-1.52581">
        <ele>3</ele>
        <time>2020-09-27T11:02:13.000Z</time>
      </trkpt>
      <trkpt lat="47.33832" lon="-1.52581">
        <ele>3</ele>
        <time>2020-09-27T11:02:14.000Z</time>
      </trkpt>
      <trkpt lat="47.33833" lon="-1.52581">
        <ele>3</ele>
        <time>2020-09-27T11:02:15.000Z</time>
      </trkpt>
      <trkpt lat="47.33833" lon="-1.52581">
        <ele>3</ele>
        <time>2020-09-27T11:02:16.000Z</time>
      </trkpt>
      <trkpt lat="47.33833" lon="-1.52582">
        <ele>3</ele>
        <time>2020-09-27T11:02:17.000Z</time>
      </trkpt>
      <trkpt lat="47.33833" lon="-1.52582">
        <ele>3</ele>
        <time>2020-09-27T11:02:18.000Z</time>
      </trkpt>
      <trkpt lat="47.33833" lon="-1.52582">
        <ele>3</ele>
        <time>2020-09-27T11:02:19.000Z</time>
      </trkpt>
      <trkpt lat="47.33833" lon="-1.52582">
        <ele>3</ele>
        <time>2020-09-27T11:02:20.000Z</time>
      </trkpt>
      <trkpt lat="47.33833" lon="-1.52582">
        <ele>3</ele>
        <time>2020-09-27T11:02:21.000Z</time>
      </trkpt>
      <trkpt lat="47.33833" lon="-1.52582">
        <ele>3</ele>
        <time>2020-09-27T11:02:22.000Z</time>
      </trkpt>
      <trkpt lat="47.33834" lon="-1.52582">
        <ele>3</ele>
        <time>2020-09-27T11:02:23.000Z</time>
      </trkpt>
      <trkpt lat="47.33834" lon="-1.52581">
        <ele>3</ele>
        <time>2020-09-27T11:02:24.000Z</time>
      </trkpt>
      <trkpt lat="47.33835" lon="-1.52581">
        <ele>3</ele>
        <time>2020-09-27T11:02:25.000Z</time>
      </trkpt>
      <trkpt lat="47.33835" lon="-1.52581">
        <ele>3.1</ele>
        <time>2020-09-27T11:02:26.000Z</time>
      </trkpt>
      <trkpt lat="47.33836" lon="-1.52581">
        <ele>3.1</ele>
        <time>2020-09-27T11:02:27.000Z</time>
      </trkpt>
      <trkpt lat="47.33837" lon="-1.52581">
        <ele>3.1</ele>
        <time>2020-09-27T11:02:28.000Z</time>
      </trkpt>
      <trkpt lat="47.33838" lon="-1.52581">
        <ele>3.2</ele>
        <time>2020-09-27T11:02:29.000Z</time>
      </trkpt>
      <trkpt lat="47.33838" lon="-1.52581">
        <ele>3.2</ele>
        <time>2020-09-27T11:02:30.000Z</time>
      </trkpt>
      <trkpt lat="47.33838" lon="-1.52581">
        <ele>3.2</ele>
        <time>2020-09-27T11:02:31.000Z</time>
      </trkpt>
      <trkpt lat="47.33839" lon="-1.5258">
        <ele>3.2</ele>
        <time>2020-09-27T11:02:32.000Z</time>
      </trkpt>
      <trkpt lat="47.33839" lon="-1.5258">
        <ele>3.2</ele>
        <time>2020-09-27T11:02:33.000Z</time>
      </trkpt>
      <trkpt lat="47.33839" lon="-1.5258">
        <ele>3.2</ele>
        <time>2020-09-27T11:02:34.000Z</time>
      </trkpt>
      <trkpt lat="47.3384" lon="-1.5258">
        <ele>3.2</ele>
        <time>2020-09-27T11:02:35.000Z</time>
      </trkpt>
      <trkpt lat="47.3384" lon="-1.5258">
        <ele>3.3</ele>
        <time>2020-09-27T11:02:36.000Z</time>
      </trkpt>
      <trkpt lat="47.33841" lon="-1.5258">
        <ele>3.3</ele>
        <time>2020-09-27T11:02:37.000Z</time>
      </trkpt>
      <trkpt lat="47.33843" lon="-1.5258">
        <ele>3.3</ele>
        <time>2020-09-27T11:02:38.000Z</time>
      </trkpt>
      <trkpt lat="47.33844" lon="-1.5258">
        <ele>3.4</ele>
        <time>2020-09-27T11:02:39.000Z</time>
      </trkpt>
      <trkpt lat="47.33845" lon="-1.52581">
        <ele>3.4</ele>
        <time>2020-09-27T11:02:40.000Z</time>
      </trkpt>
      <trkpt lat="47.33847" lon="-1.52581">
        <ele>3.5</ele>
        <time>2020-09-27T11:02:41.000Z</time>
      </trkpt>
      <trkpt lat="47.33849" lon="-1.52582">
        <ele>3.6</ele>
        <time>2020-09-27T11:02:42.000Z</time>
      </trkpt>
      <trkpt lat="47.33851" lon="-1.52582">
        <ele>3.6</ele>
        <time>2020-09-27T11:02:43.000Z</time>
      </trkpt>
      <trkpt lat="47.33853" lon="-1.52583">
        <ele>3.7</ele>
        <time>2020-09-27T11:02:44.000Z</time>
      </trkpt>
      <trkpt lat="47.33855" lon="-1.52584">
        <ele>3.8</ele>
        <time>2020-09-27T11:02:45.000Z</time>
      </trkpt>
      <trkpt lat="47.33857" lon="-1.52584">
        <ele>3.9</ele>
        <time>2020-09-27T11:02:46.000Z</time>
      </trkpt>
      <trkpt lat="47.33859" lon="-1.52585">
        <ele>3.9</ele>
        <time>2020-09-27T11:02:47.000Z</time>
      </trkpt>
      <trkpt lat="47.33861" lon="-1.52586">
        <ele>4</ele>
        <time>2020-09-27T11:02:48.000Z</time>
      </trkpt>
      <trkpt lat="47.33864" lon="-1.52587">
        <ele>4.1</ele>
        <time>2020-09-27T11:02:49.000Z</time>
      </trkpt>
      <trkpt lat="47.33866" lon="-1.52588">
        <ele>4.2</ele>
        <time>2020-09-27T11:02:50.000Z</time>
      </trkpt>
      <trkpt lat="47.33868" lon="-1.52589">
        <ele>4.3</ele>
        <time>2020-09-27T11:02:51.000Z</time>
      </trkpt>
      <trkpt lat="47.3387" lon="-1.5259">
        <ele>4.4</ele>
        <time>2020-09-27T11:02:52.000Z</time>
      </trkpt>
      <trkpt lat="47.33872" lon="-1.52591">
        <ele>4.4</ele>
        <time>2020-09-27T11:02:53.000Z</time>
      </trkpt>
      <trkpt lat="47.33875" lon="-1.52591">
        <ele>4.5</ele>
        <time>2020-09-27T11:02:54.000Z</time>
      </trkpt>
      <trkpt lat="47.33877" lon="-1.52592">
        <ele>4.6</ele>
        <time>2020-09-27T11:02:55.000Z</time>
      </trkpt>
      <trkpt lat="47.33879" lon="-1.52593">
        <ele>4.7</ele>
        <time>2020-09-27T11:02:56.000Z</time>
      </trkpt>
      <trkpt lat="47.33881" lon="-1.52594">
        <ele>4.8</ele>
        <time>2020-09-27T11:02:57.000Z</time>
      </trkpt>
      <trkpt lat="47.33883" lon="-1.52595">
        <ele>4.9</ele>
        <time>2020-09-27T11:02:58.000Z</time>
      </trkpt>
      <trkpt lat="47.33886" lon="-1.52596">
        <ele>5</ele>
        <time>2020-09-27T11:02:59.000Z</time>
      </trkpt>
      <trkpt lat="47.33888" lon="-1.52597">
        <ele>5.1</ele>
        <time>2020-09-27T11:03:00.000Z</time>
      </trkpt>
      <trkpt lat="47.3389" lon="-1.52597">
        <ele>5.1</ele>
        <time>2020-09-27T11:03:01.000Z</time>
      </trkpt>
      <trkpt lat="47.33892" lon="-1.52598">
        <ele>5.2</ele>
        <time>2020-09-27T11:03:02.000Z</time>
      </trkpt>
      <trkpt lat="47.33894" lon="-1.52599">
        <ele>5.3</ele>
        <time>2020-09-27T11:03:03.000Z</time>
      </trkpt>
      <trkpt lat="47.33896" lon="-1.52599">
        <ele>5.4</ele>
        <time>2020-09-27T11:03:04.000Z</time>
      </trkpt>
      <trkpt lat="47.33898" lon="-1.526">
        <ele>5.5</ele>
        <time>2020-09-27T11:03:05.000Z</time>
      </trkpt>
      <trkpt lat="47.339" lon="-1.526">
        <ele>5.6</ele>
        <time>2020-09-27T11:03:06.000Z</time>
      </trkpt>
      <trkpt lat="47.33902" lon="-1.52601">
        <ele>5.7</ele>
        <time>2020-09-27T11:03:07.000Z</time>
      </trkpt>
      <trkpt lat="47.33904" lon="-1.52601">
        <ele>5.7</ele>
        <time>2020-09-27T11:03:08.000Z</time>
      </trkpt>
      <trkpt lat="47.33906" lon="-1.52602">
        <ele>5.8</ele>
        <time>2020-09-27T11:03:09.000Z</time>
      </trkpt>
      <trkpt lat="47.33908" lon="-1.52602">
        <ele>5.9</ele>
        <time>2020-09-27T11:03:10.000Z</time>
      </trkpt>
      <trkpt lat="47.3391" lon="-1.52603">
        <ele>6</ele>
        <time>2020-09-27T11:03:11.000Z</time>
      </trkpt>
      <trkpt lat="47.33913" lon="-1.52604">
        <ele>6.1</ele>
        <time>2020-09-27T11:03:12.000Z</time>
      </trkpt>
      <trkpt lat="47.33915" lon="-1.52605">
        <ele>6.2</ele>
        <time>2020-09-27T11:03:13.000Z</time>
      </trkpt>
      <trkpt lat="47.33917" lon="-1.52606">
        <ele>6.3</ele>
        <time>2020-09-27T11:03:14.000Z</time>
      </trkpt>
      <trkpt lat="47.33919" lon="-1.52608">
        <ele>6.4</ele>
        <time>2020-09-27T11:03:15.000Z</time>
      </trkpt>
      <trkpt lat="47.33921" lon="-1.52611">
        <ele>6.5</ele>
        <time>2020-09-27T11:03:16.000Z</time>
      </trkpt>
      <trkpt lat="47.33923" lon="-1.52614">
        <ele>6.7</ele>
        <time>2020-09-27T11:03:17.000Z</time>
      </trkpt>
      <trkpt lat="47.33924" lon="-1.52617">
        <ele>6.8</ele>
        <time>2020-09-27T11:03:18.000Z</time>
      </trkpt>
      <trkpt lat="47.33925" lon="-1.5262">
        <ele>6.8</ele>
        <time>2020-09-27T11:03:19.000Z</time>
      </trkpt>
      <trkpt lat="47.33925" lon="-1.52623">
        <ele>6.9</ele>
        <time>2020-09-27T11:03:20.000Z</time>
      </trkpt>
      <trkpt lat="47.33925" lon="-1.52627">
        <ele>6.9</ele>
        <time>2020-09-27T11:03:21.000Z</time>
      </trkpt>
      <trkpt lat="47.33925" lon="-1.5263">
        <ele>6.9</ele>
        <time>2020-09-27T11:03:22.000Z</time>
      </trkpt>
      <trkpt lat="47.33924" lon="-1.52634">
        <ele>7</ele>
        <time>2020-09-27T11:03:23.000Z</time>
      </trkpt>
      <trkpt lat="47.33924" lon="-1.52638">
        <ele>7</ele>
        <time>2020-09-27T11:03:24.000Z</time>
      </trkpt>
      <trkpt lat="47.33923" lon="-1.52641">
        <ele>7</ele>
        <time>2020-09-27T11:03:25.000Z</time>
      </trkpt>
      <trkpt lat="47.33923" lon="-1.52645">
        <ele>7</ele>
        <time>2020-09-27T11:03:26.000Z</time>
      </trkpt>
      <trkpt lat="47.33923" lon="-1.52648">
        <ele>7</ele>
        <time>2020-09-27T11:03:27.000Z</time>
      </trkpt>
      <trkpt lat="47.33922" lon="-1.52652">
        <ele>7</ele>
        <time>2020-09-27T11:03:28.000Z</time>
      </trkpt>
      <trkpt lat="47.33922" lon="-1.52655">
        <ele>7.1</ele>
        <time>2020-09-27T11:03:29.000Z</time>
      </trkpt>
      <trkpt lat="47.33921" lon="-1.52659">
        <ele>7.1</ele>
        <time>2020-09-27T11:03:30.000Z</time>
      </trkpt>
      <trkpt lat="47.33921" lon="-1.52663">
        <ele>7.1</ele>
        <time>2020-09-27T11:03:31.000Z</time>
      </trkpt>
      <trkpt lat="47.3392" lon="-1.52666">
        <ele>7.1</ele>
        <time>2020-09-27T11:03:32.000Z</time>
      </trkpt>
      <trkpt lat="47.3392" lon="-1.5267">
        <ele>7.1</ele>
        <time>2020-09-27T11:03:33.000Z</time>
      </trkpt>
      <trkpt lat="47.33919" lon="-1.52674">
        <ele>7</ele>
        <time>2020-09-27T11:03:34.000Z</time>
      </trkpt>
      <trkpt lat="47.33919" lon="-1.52677">
        <ele>6.9</ele>
        <time>2020-09-27T11:03:35.000Z</time>
      </trkpt>
      <trkpt lat="47.33918" lon="-1.52681">
        <ele>6.9</ele>
        <time>2020-09-27T11:03:36.000Z</time>
      </trkpt>
      <trkpt lat="47.33918" lon="-1.52685">
        <ele>6.8</ele>
        <time>2020-09-27T11:03:37.000Z</time>
      </trkpt>
      <trkpt lat="47.33917" lon="-1.52688">
        <ele>6.8</ele>
        <time>2020-09-27T11:03:38.000Z</time>
      </trkpt>
      <trkpt lat="47.33917" lon="-1.52692">
        <ele>6.7</ele>
        <time>2020-09-27T11:03:39.000Z</time>
      </trkpt>
      <trkpt lat="47.33916" lon="-1.52695">
        <ele>6.6</ele>
        <time>2020-09-27T11:03:40.000Z</time>
      </trkpt>
      <trkpt lat="47.33916" lon="-1.52699">
        <ele>6.6</ele>
        <time>2020-09-27T11:03:41.000Z</time>
      </trkpt>
      <trkpt lat="47.33915" lon="-1.52702">
        <ele>6.5</ele>
        <time>2020-09-27T11:03:42.000Z</time>
      </trkpt>
      <trkpt lat="47.33915" lon="-1.52706">
        <ele>6.5</ele>
        <time>2020-09-27T11:03:43.000Z</time>
      </trkpt>
      <trkpt lat="47.33914" lon="-1.52709">
        <ele>6.4</ele>
        <time>2020-09-27T11:03:44.000Z</time>
      </trkpt>
      <trkpt lat="47.33913" lon="-1.52713">
        <ele>6.3</ele>
        <time>2020-09-27T11:03:45.000Z</time>
      </trkpt>
      <trkpt lat="47.33913" lon="-1.52716">
        <ele>6.3</ele>
        <time>2020-09-27T11:03:46.000Z</time>
      </trkpt>
      <trkpt lat="47.33912" lon="-1.5272">
        <ele>6.2</ele>
        <time>2020-09-27T11:03:47.000Z</time>
      </trkpt>
      <trkpt lat="47.33912" lon="-1.52723">
        <ele>6.2</ele>
        <time>2020-09-27T11:03:48.000Z</time>
      </trkpt>
      <trkpt lat="47.33911" lon="-1.52727">
        <ele>6.1</ele>
        <time>2020-09-27T11:03:49.000Z</time>
      </trkpt>
      <trkpt lat="47.3391" lon="-1.52731">
        <ele>6</ele>
        <time>2020-09-27T11:03:50.000Z</time>
      </trkpt>
      <trkpt lat="47.3391" lon="-1.52734">
        <ele>6</ele>
        <time>2020-09-27T11:03:51.000Z</time>
      </trkpt>
      <trkpt lat="47.33909" lon="-1.52738">
        <ele>5.9</ele>
        <time>2020-09-27T11:03:52.000Z</time>
      </trkpt>
      <trkpt lat="47.33909" lon="-1.52742">
        <ele>5.9</ele>
        <time>2020-09-27T11:03:53.000Z</time>
      </trkpt>
      <trkpt lat="47.33908" lon="-1.52746">
        <ele>5.8</ele>
        <time>2020-09-27T11:03:54.000Z</time>
      </trkpt>
      <trkpt lat="47.33908" lon="-1.52751">
        <ele>5.8</ele>
        <time>2020-09-27T11:03:55.000Z</time>
      </trkpt>
      <trkpt lat="47.33907" lon="-1.52755">
        <ele>5.8</ele>
        <time>2020-09-27T11:03:56.000Z</time>
      </trkpt>
      <trkpt lat="47.33906" lon="-1.52759">
        <ele>5.7</ele>
        <time>2020-09-27T11:03:57.000Z</time>
      </trkpt>
      <trkpt lat="47.33906" lon="-1.52763">
        <ele>5.7</ele>
        <time>2020-09-27T11:03:58.000Z</time>
      </trkpt>
      <trkpt lat="47.33905" lon="-1.52766">
        <ele>5.7</ele>
        <time>2020-09-27T11:03:59.000Z</time>
      </trkpt>
      <trkpt lat="47.33905" lon="-1.5277">
        <ele>5.7</ele>
        <time>2020-09-27T11:04:00.000Z</time>
      </trkpt>
      <trkpt lat="47.33904" lon="-1.52773">
        <ele>5.6</ele>
        <time>2020-09-27T11:04:01.000Z</time>
      </trkpt>
      <trkpt lat="47.33903" lon="-1.52777">
        <ele>5.6</ele>
        <time>2020-09-27T11:04:02.000Z</time>
      </trkpt>
      <trkpt lat="47.33902" lon="-1.5278">
        <ele>5.6</ele>
        <time>2020-09-27T11:04:03.000Z</time>
      </trkpt>
      <trkpt lat="47.33902" lon="-1.52782">
        <ele>5.6</ele>
        <time>2020-09-27T11:04:04.000Z</time>
      </trkpt>
      <trkpt lat="47.33901" lon="-1.52785">
        <ele>5.5</ele>
        <time>2020-09-27T11:04:05.000Z</time>
      </trkpt>
      <trkpt lat="47.339" lon="-1.52787">
        <ele>5.5</ele>
        <time>2020-09-27T11:04:06.000Z</time>
      </trkpt>
      <trkpt lat="47.33899" lon="-1.52789">
        <ele>5.5</ele>
        <time>2020-09-27T11:04:07.000Z</time>
      </trkpt>
      <trkpt lat="47.33898" lon="-1.5279">
        <ele>5.5</ele>
        <time>2020-09-27T11:04:08.000Z</time>
      </trkpt>
      <trkpt lat="47.33898" lon="-1.52791">
        <ele>5.4</ele>
        <time>2020-09-27T11:04:09.000Z</time>
      </trkpt>
      <trkpt lat="47.33897" lon="-1.52792">
        <ele>5.4</ele>
        <time>2020-09-27T11:04:10.000Z</time>
      </trkpt>
      <trkpt lat="47.33897" lon="-1.52793">
        <ele>5.4</ele>
        <time>2020-09-27T11:04:11.000Z</time>
      </trkpt>
      <trkpt lat="47.33896" lon="-1.52794">
        <ele>5.4</ele>
        <time>2020-09-27T11:04:12.000Z</time>
      </trkpt>
      <trkpt lat="47.33896" lon="-1.52794">
        <ele>5.4</ele>
        <time>2020-09-27T11:04:13.000Z</time>
      </trkpt>
      <trkpt lat="47.33895" lon="-1.52794">
        <ele>5.4</ele>
        <time>2020-09-27T11:04:14.000Z</time>
      </trkpt>
      <trkpt lat="47.33895" lon="-1.52795">
        <ele>5.3</ele>
        <time>2020-09-27T11:04:15.000Z</time>
      </trkpt>
      <trkpt lat="47.33895" lon="-1.52795">
        <ele>5.3</ele>
        <time>2020-09-27T11:04:16.000Z</time>
      </trkpt>
      <trkpt lat="47.33895" lon="-1.52795">
        <ele>5.3</ele>
        <time>2020-09-27T11:04:17.000Z</time>
      </trkpt>
      <trkpt lat="47.33895" lon="-1.52795">
        <ele>5.3</ele>
        <time>2020-09-27T11:04:18.000Z</time>
      </trkpt>
      <trkpt lat="47.33895" lon="-1.52795">
        <ele>5.3</ele>
        <time>2020-09-27T11:04:19.000Z</time>
      </trkpt>
      <trkpt lat="47.33895" lon="-1.52795">
        <ele>5.3</ele>
        <time>2020-09-27T11:04:20.000Z</time>
      </trkpt>
      <trkpt lat="47.33895" lon="-1.52795">
        <ele>5.3</ele>
        <time>2020-09-27T11:04:21.000Z</time>
      </trkpt>
      <trkpt lat="47.33895" lon="-1.52795">
        <ele>5.3</ele>
        <time>2020-09-27T11:04:22.000Z</time>
      </trkpt>
      <trkpt lat="47.33895" lon="-1.52795">
        <ele>5.3</ele>
        <time>2020-09-27T11:04:23.000Z</time>
      </trkpt>
      <trkpt lat="47.33895" lon="-1.52795">
        <ele>5.3</ele>
        <time>2020-09-27T11:04:24.000Z</time>
      </trkpt>
      <trkpt lat="47.33894" lon="-1.52795">
        <ele>5.3</ele>
        <time>2020-09-27T11:04:25.000Z</time>
      </trkpt>
      <trkpt lat="47.33894" lon="-1.52795">
        <ele>5.3</ele>
        <time>2020-09-27T11:04:26.000Z</time>
      </trkpt>
      <trkpt lat="47.33894" lon="-1.52795">
        <ele>5.3</ele>
        <time>2020-09-27T11:04:27.000Z</time>
      </trkpt>
      <trkpt lat="47.33893" lon="-1.52795">
        <ele>5.3</ele>
        <time>2020-09-27T11:04:28.000Z</time>
      </trkpt>
      <trkpt lat="47.33893" lon="-1.52795">
        <ele>5.3</ele>
        <time>2020-09-27T11:04:29.000Z</time>
      </trkpt>
      <trkpt lat="47.33892" lon="-1.52795">
        <ele>5.3</ele>
        <time>2020-09-27T11:04:30.000Z</time>
      </trkpt>
      <trkpt lat="47.33892" lon="-1.52795">
        <ele>5.2</ele>
        <time>2020-09-27T11:04:31.000Z</time>
      </trkpt>
      <trkpt lat="47.33892" lon="-1.52795">
        <ele>5.2</ele>
        <time>2020-09-27T11:04:32.000Z</time>
      </trkpt>
      <trkpt lat="47.33891" lon="-1.52795">
        <ele>5.2</ele>
        <time>2020-09-27T11:04:33.000Z</time>
      </trkpt>
      <trkpt lat="47.33891" lon="-1.52795">
        <ele>5.2</ele>
        <time>2020-09-27T11:04:34.000Z</time>
      </trkpt>
      <trkpt lat="47.3389" lon="-1.52795">
        <ele>5.2</ele>
        <time>2020-09-27T11:04:35.000Z</time>
      </trkpt>
      <trkpt lat="47.3389" lon="-1.52796">
        <ele>5.2</ele>
        <time>2020-09-27T11:04:36.000Z</time>
      </trkpt>
      <trkpt lat="47.3389" lon="-1.52796">
        <ele>5.2</ele>
        <time>2020-09-27T11:04:37.000Z</time>
      </trkpt>
      <trkpt lat="47.3389" lon="-1.52796">
        <ele>5.2</ele>
        <time>2020-09-27T11:04:38.000Z</time>
      </trkpt>
      <trkpt lat="47.3389" lon="-1.52797">
        <ele>5.2</ele>
        <time>2020-09-27T11:04:39.000Z</time>
      </trkpt>
      <trkpt lat="47.3389" lon="-1.52797">
        <ele>5.2</ele>
        <time>2020-09-27T11:04:40.000Z</time>
      </trkpt>
      <trkpt lat="47.3389" lon="-1.52797">
        <ele>5.2</ele>
        <time>2020-09-27T11:04:41.000Z</time>
      </trkpt>
      <trkpt lat="47.3389" lon="-1.52798">
        <ele>5.2</ele>
        <time>2020-09-27T11:04:42.000Z</time>
      </trkpt>
      <trkpt lat="47.3389" lon="-1.52798">
        <ele>5.2</ele>
        <time>2020-09-27T11:04:43.000Z</time>
      </trkpt>
      <trkpt lat="47.3389" lon="-1.52799">
        <ele>5.2</ele>
        <time>2020-09-27T11:04:44.000Z</time>
      </trkpt>
      <trkpt lat="47.33891" lon="-1.52799">
        <ele>5.2</ele>
        <time>2020-09-27T11:04:45.000Z</time>
      </trkpt>
      <trkpt lat="47.33891" lon="-1.52799">
        <ele>5.2</ele>
        <time>2020-09-27T11:04:46.000Z</time>
      </trkpt>
      <trkpt lat="47.33891" lon="-1.528">
        <ele>5.2</ele>
        <time>2020-09-27T11:04:47.000Z</time>
      </trkpt>
      <trkpt lat="47.33892" lon="-1.528">
        <ele>5.2</ele>
        <time>2020-09-27T11:04:48.000Z</time>
      </trkpt>
      <trkpt lat="47.33892" lon="-1.52801">
        <ele>5.2</ele>
        <time>2020-09-27T11:04:49.000Z</time>
      </trkpt>
      <trkpt lat="47.33892" lon="-1.52801">
        <ele>5.2</ele>
        <time>2020-09-27T11:04:50.000Z</time>
      </trkpt>
      <trkpt lat="47.33893" lon="-1.52801">
        <ele>5.2</ele>
        <time>2020-09-27T11:04:51.000Z</time>
      </trkpt>
      <trkpt lat="47.33893" lon="-1.52801">
        <ele>5.3</ele>
        <time>2020-09-27T11:04:52.000Z</time>
      </trkpt>
      <trkpt lat="47.33893" lon="-1.528">
        <ele>5.3</ele>
        <time>2020-09-27T11:04:53.000Z</time>
      </trkpt>
      <trkpt lat="47.33893" lon="-1.528">
        <ele>5.3</ele>
        <time>2020-09-27T11:04:54.000Z</time>
      </trkpt>
      <trkpt lat="47.33893" lon="-1.52799">
        <ele>5.3</ele>
        <time>2020-09-27T11:04:55.000Z</time>
      </trkpt>
      <trkpt lat="47.33893" lon="-1.52799">
        <ele>5.3</ele>
        <time>2020-09-27T11:04:56.000Z</time>
      </trkpt>
      <trkpt lat="47.33893" lon="-1.52798">
        <ele>5.3</ele>
        <time>2020-09-27T11:04:57.000Z</time>
      </trkpt>
      <trkpt lat="47.33893" lon="-1.52798">
        <ele>5.3</ele>
        <time>2020-09-27T11:04:58.000Z</time>
      </trkpt>
      <trkpt lat="47.33893" lon="-1.52798">
        <ele>5.3</ele>
        <time>2020-09-27T11:04:59.000Z</time>
      </trkpt>
      <trkpt lat="47.33893" lon="-1.52797">
        <ele>5.3</ele>
        <time>2020-09-27T11:05:00.000Z</time>
      </trkpt>
      <trkpt lat="47.33893" lon="-1.52797">
        <ele>5.3</ele>
        <time>2020-09-27T11:05:01.000Z</time>
      </trkpt>
      <trkpt lat="47.33893" lon="-1.52797">
        <ele>5.3</ele>
        <time>2020-09-27T11:05:02.000Z</time>
      </trkpt>
      <trkpt lat="47.33893" lon="-1.52796">
        <ele>5.3</ele>
        <time>2020-09-27T11:05:03.000Z</time>
      </trkpt>
      <trkpt lat="47.33893" lon="-1.52796">
        <ele>5.3</ele>
        <time>2020-09-27T11:05:04.000Z</time>
      </trkpt>
      <trkpt lat="47.33893" lon="-1.52796">
        <ele>5.3</ele>
        <time>2020-09-27T11:05:05.000Z</time>
      </trkpt>
      <trkpt lat="47.33893" lon="-1.52796">
        <ele>5.3</ele>
        <time>2020-09-27T11:05:06.000Z</time>
      </trkpt>
      <trkpt lat="47.33893" lon="-1.52796">
        <ele>5.3</ele>
        <time>2020-09-27T11:05:07.000Z</time>
      </trkpt>
      <trkpt lat="47.33893" lon="-1.52795">
        <ele>5.3</ele>
        <time>2020-09-27T11:05:08.000Z</time>
      </trkpt>
      <trkpt lat="47.33893" lon="-1.52795">
        <ele>5.3</ele>
        <time>2020-09-27T11:05:09.000Z</time>
      </trkpt>
      <trkpt lat="47.33893" lon="-1.52795">
        <ele>5.3</ele>
        <time>2020-09-27T11:05:10.000Z</time>
      </trkpt>
      <trkpt lat="47.33893" lon="-1.52795">
        <ele>5.3</ele>
        <time>2020-09-27T11:05:11.000Z</time>
      </trkpt>
      <trkpt lat="47.33893" lon="-1.52795">
        <ele>5.3</ele>
        <time>2020-09-27T11:05:12.000Z</time>
      </trkpt>
      <trkpt lat="47.33893" lon="-1.52795">
        <ele>5.3</ele>
        <time>2020-09-27T11:05:13.000Z</time>
      </trkpt>
      <trkpt lat="47.33893" lon="-1.52795">
        <ele>5.3</ele>
        <time>2020-09-27T11:05:14.000Z</time>
      </trkpt>
      <trkpt lat="47.33893" lon="-1.52795">
        <ele>5.3</ele>
        <time>2020-09-27T11:05:15.000Z</time>
      </trkpt>
      <trkpt lat="47.33893" lon="-1.52795">
        <ele>5.3</ele>
        <time>2020-09-27T11:05:16.000Z</time>
      </trkpt>
      <trkpt lat="47.33893" lon="-1.52795">
        <ele>5.3</ele>
        <time>2020-09-27T11:05:17.000Z</time>
      </trkpt>
      <trkpt lat="47.33893" lon="-1.52795">
        <ele>5.3</ele>
        <time>2020-09-27T11:05:18.000Z</time>
      </trkpt>
      <trkpt lat="47.33894" lon="-1.52795">
        <ele>5.3</ele>
        <time>2020-09-27T11:05:19.000Z</time>
      </trkpt>
      <trkpt lat="47.33894" lon="-1.52795">
        <ele>5.3</ele>
        <time>2020-09-27T11:05:20.000Z</time>
      </trkpt>
      <trkpt lat="47.33894" lon="-1.52795">
        <ele>5.3</ele>
        <time>2020-09-27T11:05:21.000Z</time>
      </trkpt>
      <trkpt lat="47.33894" lon="-1.52795">
        <ele>5.3</ele>
        <time>2020-09-27T11:05:22.000Z</time>
      </trkpt>
      <trkpt lat="47.33895" lon="-1.52795">
        <ele>5.3</ele>
        <time>2020-09-27T11:05:23.000Z</time>
      </trkpt>
      <trkpt lat="47.33895" lon="-1.52795">
        <ele>5.3</ele>
        <time>2020-09-27T11:05:24.000Z</time>
      </trkpt>
      <trkpt lat="47.33895" lon="-1.52795">
        <ele>5.3</ele>
        <time>2020-09-27T11:05:25.000Z</time>
      </trkpt>
      <trkpt lat="47.33896" lon="-1.52796">
        <ele>5.4</ele>
        <time>2020-09-27T11:05:26.000Z</time>
      </trkpt>
      <trkpt lat="47.33896" lon="-1.52796">
        <ele>5.4</ele>
        <time>2020-09-27T11:05:27.000Z</time>
      </trkpt>
      <trkpt lat="47.33896" lon="-1.52796">
        <ele>5.4</ele>
        <time>2020-09-27T11:05:28.000Z</time>
      </trkpt>
      <trkpt lat="47.33896" lon="-1.52796">
        <ele>5.4</ele>
        <time>2020-09-27T11:05:29.000Z</time>
      </trkpt>
      <trkpt lat="47.33896" lon="-1.52796">
        <ele>5.4</ele>
        <time>2020-09-27T11:05:30.000Z</time>
      </trkpt>
      <trkpt lat="47.33896" lon="-1.52796">
        <ele>5.4</ele>
        <time>2020-09-27T11:05:31.000Z</time>
      </trkpt>
      <trkpt lat="47.33896" lon="-1.52796">
        <ele>5.4</ele>
        <time>2020-09-27T11:05:32.000Z</time>
      </trkpt>
      <trkpt lat="47.33896" lon="-1.52796">
        <ele>5.4</ele>
        <time>2020-09-27T11:05:33.000Z</time>
      </trkpt>
      <trkpt lat="47.33896" lon="-1.52796">
        <ele>5.4</ele>
        <time>2020-09-27T11:05:34.000Z</time>
      </trkpt>
      <trkpt lat="47.33896" lon="-1.52796">
        <ele>5.4</ele>
        <time>2020-09-27T11:05:35.000Z</time>
      </trkpt>
      <trkpt lat="47.33896" lon="-1.52796">
        <ele>5.4</ele>
        <time>2020-09-27T11:05:36.000Z</time>
      </trkpt>
      <trkpt lat="47.33896" lon="-1.52796">
        <ele>5.4</ele>
        <time>2020-09-27T11:05:37.000Z</time>
      </trkpt>
      <trkpt lat="47.33896" lon="-1.52796">
        <ele>5.4</ele>
        <time>2020-09-27T11:05:38.000Z</time>
      </trkpt>
      <trkpt lat="47.33897" lon="-1.52797">
        <ele>5.4</ele>
        <time>2020-09-27T11:05:39.000Z</time>
      </trkpt>
      <trkpt lat="47.33897" lon="-1.52797">
        <ele>5.4</ele>
        <time>2020-09-27T11:05:40.000Z</time>
      </trkpt>
      <trkpt lat="47.33897" lon="-1.52797">
        <ele>5.4</ele>
        <time>2020-09-27T11:05:41.000Z</time>
      </trkpt>
      <trkpt lat="47.33898" lon="-1.52798">
        <ele>5.4</ele>
        <time>2020-09-27T11:05:42.000Z</time>
      </trkpt>
      <trkpt lat="47.33898" lon="-1.52798">
        <ele>5.4</ele>
        <time>2020-09-27T11:05:43.000Z</time>
      </trkpt>
      <trkpt lat="47.33899" lon="-1.52799">
        <ele>5.5</ele>
        <time>2020-09-27T11:05:44.000Z</time>
      </trkpt>
      <trkpt lat="47.339" lon="-1.528">
        <ele>5.5</ele>
        <time>2020-09-27T11:05:45.000Z</time>
      </trkpt>
      <trkpt lat="47.33901" lon="-1.52801">
        <ele>5.5</ele>
        <time>2020-09-27T11:05:46.000Z</time>
      </trkpt>
      <trkpt lat="47.33902" lon="-1.52802">
        <ele>5.5</ele>
        <time>2020-09-27T11:05:47.000Z</time>
      </trkpt>
      <trkpt lat="47.33904" lon="-1.52803">
        <ele>5.6</ele>
        <time>2020-09-27T11:05:48.000Z</time>
      </trkpt>
      <trkpt lat="47.33905" lon="-1.52805">
        <ele>5.6</ele>
        <time>2020-09-27T11:05:49.000Z</time>
      </trkpt>
      <trkpt lat="47.33907" lon="-1.52806">
        <ele>5.7</ele>
        <time>2020-09-27T11:05:50.000Z</time>
      </trkpt>
      <trkpt lat="47.33909" lon="-1.52808">
        <ele>5.7</ele>
        <time>2020-09-27T11:05:51.000Z</time>
      </trkpt>
      <trkpt lat="47.33911" lon="-1.5281">
        <ele>5.8</ele>
        <time>2020-09-27T11:05:52.000Z</time>
      </trkpt>
      <trkpt lat="47.33913" lon="-1.52811">
        <ele>5.9</ele>
        <time>2020-09-27T11:05:53.000Z</time>
      </trkpt>
      <trkpt lat="47.33915" lon="-1.52813">
        <ele>5.9</ele>
        <time>2020-09-27T11:05:54.000Z</time>
      </trkpt>
      <trkpt lat="47.33917" lon="-1.52814">
        <ele>6</ele>
        <time>2020-09-27T11:05:55.000Z</time>
      </trkpt>
      <trkpt lat="47.33919" lon="-1.52816">
        <ele>6.1</ele>
        <time>2020-09-27T11:05:56.000Z</time>
      </trkpt>
      <trkpt lat="47.33922" lon="-1.52818">
        <ele>6.2</ele>
        <time>2020-09-27T11:05:57.000Z</time>
      </trkpt>
      <trkpt lat="47.33924" lon="-1.5282">
        <ele>6.3</ele>
        <time>2020-09-27T11:05:58.000Z</time>
      </trkpt>
      <trkpt lat="47.33926" lon="-1.52821">
        <ele>6.5</ele>
        <time>2020-09-27T11:05:59.000Z</time>
      </trkpt>
      <trkpt lat="47.33929" lon="-1.52823">
        <ele>6.6</ele>
        <time>2020-09-27T11:06:00.000Z</time>
      </trkpt>
      <trkpt lat="47.33931" lon="-1.52825">
        <ele>6.7</ele>
        <time>2020-09-27T11:06:01.000Z</time>
      </trkpt>
      <trkpt lat="47.33934" lon="-1.52827">
        <ele>6.8</ele>
        <time>2020-09-27T11:06:02.000Z</time>
      </trkpt>
      <trkpt lat="47.33936" lon="-1.52829">
        <ele>6.9</ele>
        <time>2020-09-27T11:06:03.000Z</time>
      </trkpt>
      <trkpt lat="47.33939" lon="-1.52831">
        <ele>7.1</ele>
        <time>2020-09-27T11:06:04.000Z</time>
      </trkpt>
      <trkpt lat="47.33941" lon="-1.52833">
        <ele>7.2</ele>
        <time>2020-09-27T11:06:05.000Z</time>
      </trkpt>
      <trkpt lat="47.33944" lon="-1.52835">
        <ele>7.3</ele>
        <time>2020-09-27T11:06:06.000Z</time>
      </trkpt>
      <trkpt lat="47.33946" lon="-1.52837">
        <ele>7.4</ele>
        <time>2020-09-27T11:06:07.000Z</time>
      </trkpt>
      <trkpt lat="47.33948" lon="-1.52839">
        <ele>7.5</ele>
        <time>2020-09-27T11:06:08.000Z</time>
      </trkpt>
      <trkpt lat="47.33951" lon="-1.5284">
        <ele>7.6</ele>
        <time>2020-09-27T11:06:09.000Z</time>
      </trkpt>
      <trkpt lat="47.33953" lon="-1.52842">
        <ele>7.7</ele>
        <time>2020-09-27T11:06:10.000Z</time>
      </trkpt>
      <trkpt lat="47.33955" lon="-1.52843">
        <ele>7.8</ele>
        <time>2020-09-27T11:06:11.000Z</time>
      </trkpt>
      <trkpt lat="47.33956" lon="-1.52844">
        <ele>7.9</ele>
        <time>2020-09-27T11:06:12.000Z</time>
      </trkpt>
      <trkpt lat="47.33958" lon="-1.52845">
        <ele>8</ele>
        <time>2020-09-27T11:06:13.000Z</time>
      </trkpt>
      <trkpt lat="47.33959" lon="-1.52846">
        <ele>8</ele>
        <time>2020-09-27T11:06:14.000Z</time>
      </trkpt>
      <trkpt lat="47.3396" lon="-1.52848">
        <ele>8.1</ele>
        <time>2020-09-27T11:06:15.000Z</time>
      </trkpt>
      <trkpt lat="47.33962" lon="-1.52849">
        <ele>8.2</ele>
        <time>2020-09-27T11:06:16.000Z</time>
      </trkpt>
      <trkpt lat="47.33963" lon="-1.52851">
        <ele>8.2</ele>
        <time>2020-09-27T11:06:17.000Z</time>
      </trkpt>
      <trkpt lat="47.33965" lon="-1.52854">
        <ele>8.3</ele>
        <time>2020-09-27T11:06:18.000Z</time>
      </trkpt>
      <trkpt lat="47.33967" lon="-1.52856">
        <ele>8.4</ele>
        <time>2020-09-27T11:06:19.000Z</time>
      </trkpt>
      <trkpt lat="47.33968" lon="-1.52857">
        <ele>8.5</ele>
        <time>2020-09-27T11:06:20.000Z</time>
      </trkpt>
      <trkpt lat="47.33969" lon="-1.52859">
        <ele>8.5</ele>
        <time>2020-09-27T11:06:21.000Z</time>
      </trkpt>
      <trkpt lat="47.33969" lon="-1.52861">
        <ele>8.5</ele>
        <time>2020-09-27T11:06:22.000Z</time>
      </trkpt>
      <trkpt lat="47.33969" lon="-1.52863">
        <ele>8.5</ele>
        <time>2020-09-27T11:06:23.000Z</time>
      </trkpt>
      <trkpt lat="47.33969" lon="-1.52866">
        <ele>8.5</ele>
        <time>2020-09-27T11:06:24.000Z</time>
      </trkpt>
      <trkpt lat="47.33968" lon="-1.52868">
        <ele>8.5</ele>
        <time>2020-09-27T11:06:25.000Z</time>
      </trkpt>
      <trkpt lat="47.33967" lon="-1.5287">
        <ele>8.4</ele>
        <time>2020-09-27T11:06:26.000Z</time>
      </trkpt>
      <trkpt lat="47.33966" lon="-1.52873">
        <ele>8.4</ele>
        <time>2020-09-27T11:06:27.000Z</time>
      </trkpt>
      <trkpt lat="47.33965" lon="-1.52875">
        <ele>8.3</ele>
        <time>2020-09-27T11:06:28.000Z</time>
      </trkpt>
      <trkpt lat="47.33964" lon="-1.52878">
        <ele>8.3</ele>
        <time>2020-09-27T11:06:29.000Z</time>
      </trkpt>
      <trkpt lat="47.33963" lon="-1.52881">
        <ele>8.2</ele>
        <time>2020-09-27T11:06:30.000Z</time>
      </trkpt>
      <trkpt lat="47.33961" lon="-1.52884">
        <ele>8.1</ele>
        <time>2020-09-27T11:06:31.000Z</time>
      </trkpt>
      <trkpt lat="47.3396" lon="-1.52887">
        <ele>8.1</ele>
        <time>2020-09-27T11:06:32.000Z</time>
      </trkpt>
      <trkpt lat="47.33959" lon="-1.5289">
        <ele>8</ele>
        <time>2020-09-27T11:06:33.000Z</time>
      </trkpt>
      <trkpt lat="47.33957" lon="-1.52894">
        <ele>7.9</ele>
        <time>2020-09-27T11:06:34.000Z</time>
      </trkpt>
      <trkpt lat="47.33956" lon="-1.52898">
        <ele>7.9</ele>
        <time>2020-09-27T11:06:35.000Z</time>
      </trkpt>
      <trkpt lat="47.33954" lon="-1.52902">
        <ele>7.8</ele>
        <time>2020-09-27T11:06:36.000Z</time>
      </trkpt>
      <trkpt lat="47.33953" lon="-1.52906">
        <ele>7.7</ele>
        <time>2020-09-27T11:06:37.000Z</time>
      </trkpt>
      <trkpt lat="47.33951" lon="-1.52911">
        <ele>7.6</ele>
        <time>2020-09-27T11:06:38.000Z</time>
      </trkpt>
      <trkpt lat="47.33949" lon="-1.52916">
        <ele>7.6</ele>
        <time>2020-09-27T11:06:39.000Z</time>
      </trkpt>
      <trkpt lat="47.33948" lon="-1.52921">
        <ele>7.5</ele>
        <time>2020-09-27T11:06:40.000Z</time>
      </trkpt>
      <trkpt lat="47.33946" lon="-1.52927">
        <ele>7.4</ele>
        <time>2020-09-27T11:06:41.000Z</time>
      </trkpt>
      <trkpt lat="47.33944" lon="-1.52932">
        <ele>7.4</ele>
        <time>2020-09-27T11:06:42.000Z</time>
      </trkpt>
      <trkpt lat="47.33942" lon="-1.52938">
        <ele>7.3</ele>
        <time>2020-09-27T11:06:43.000Z</time>
      </trkpt>
      <trkpt lat="47.3394" lon="-1.52945">
        <ele>7.2</ele>
        <time>2020-09-27T11:06:44.000Z</time>
      </trkpt>
      <trkpt lat="47.33937" lon="-1.52951">
        <ele>7.1</ele>
        <time>2020-09-27T11:06:45.000Z</time>
      </trkpt>
      <trkpt lat="47.33935" lon="-1.52958">
        <ele>7</ele>
        <time>2020-09-27T11:06:46.000Z</time>
      </trkpt>
      <trkpt lat="47.33932" lon="-1.52965">
        <ele>6.8</ele>
        <time>2020-09-27T11:06:47.000Z</time>
      </trkpt>
      <trkpt lat="47.33929" lon="-1.52972">
        <ele>6.7</ele>
        <time>2020-09-27T11:06:48.000Z</time>
      </trkpt>
      <trkpt lat="47.33927" lon="-1.52979">
        <ele>6.6</ele>
        <time>2020-09-27T11:06:49.000Z</time>
      </trkpt>
      <trkpt lat="47.33924" lon="-1.52986">
        <ele>6.4</ele>
        <time>2020-09-27T11:06:50.000Z</time>
      </trkpt>
      <trkpt lat="47.33921" lon="-1.52993">
        <ele>6.3</ele>
        <time>2020-09-27T11:06:51.000Z</time>
      </trkpt>
      <trkpt lat="47.33919" lon="-1.53">
        <ele>6.1</ele>
        <time>2020-09-27T11:06:52.000Z</time>
      </trkpt>
      <trkpt lat="47.33916" lon="-1.53007">
        <ele>6.2</ele>
        <time>2020-09-27T11:06:53.000Z</time>
      </trkpt>
      <trkpt lat="47.33914" lon="-1.53013">
        <ele>6.3</ele>
        <time>2020-09-27T11:06:54.000Z</time>
      </trkpt>
      <trkpt lat="47.33912" lon="-1.53019">
        <ele>6.4</ele>
        <time>2020-09-27T11:06:55.000Z</time>
      </trkpt>
      <trkpt lat="47.3391" lon="-1.53025">
        <ele>6.5</ele>
        <time>2020-09-27T11:06:56.000Z</time>
      </trkpt>
      <trkpt lat="47.33908" lon="-1.5303">
        <ele>6.6</ele>
        <time>2020-09-27T11:06:57.000Z</time>
      </trkpt>
      <trkpt lat="47.33907" lon="-1.53035">
        <ele>6.7</ele>
        <time>2020-09-27T11:06:58.000Z</time>
      </trkpt>
      <trkpt lat="47.33905" lon="-1.5304">
        <ele>6.7</ele>
        <time>2020-09-27T11:06:59.000Z</time>
      </trkpt>
      <trkpt lat="47.33904" lon="-1.53044">
        <ele>6.8</ele>
        <time>2020-09-27T11:07:00.000Z</time>
      </trkpt>
      <trkpt lat="47.33902" lon="-1.53048">
        <ele>6.9</ele>
        <time>2020-09-27T11:07:01.000Z</time>
      </trkpt>
      <trkpt lat="47.339" lon="-1.53052">
        <ele>6.9</ele>
        <time>2020-09-27T11:07:02.000Z</time>
      </trkpt>
      <trkpt lat="47.33899" lon="-1.53056">
        <ele>7</ele>
        <time>2020-09-27T11:07:03.000Z</time>
      </trkpt>
      <trkpt lat="47.33897" lon="-1.5306">
        <ele>7</ele>
        <time>2020-09-27T11:07:04.000Z</time>
      </trkpt>
      <trkpt lat="47.33896" lon="-1.53064">
        <ele>7.1</ele>
        <time>2020-09-27T11:07:05.000Z</time>
      </trkpt>
      <trkpt lat="47.33894" lon="-1.53067">
        <ele>7.1</ele>
        <time>2020-09-27T11:07:06.000Z</time>
      </trkpt>
      <trkpt lat="47.33892" lon="-1.53071">
        <ele>7.2</ele>
        <time>2020-09-27T11:07:07.000Z</time>
      </trkpt>
      <trkpt lat="47.33891" lon="-1.53074">
        <ele>7.2</ele>
        <time>2020-09-27T11:07:08.000Z</time>
      </trkpt>
      <trkpt lat="47.33889" lon="-1.53078">
        <ele>7.2</ele>
        <time>2020-09-27T11:07:09.000Z</time>
      </trkpt>
      <trkpt lat="47.33888" lon="-1.53082">
        <ele>7.3</ele>
        <time>2020-09-27T11:07:10.000Z</time>
      </trkpt>
      <trkpt lat="47.33886" lon="-1.53085">
        <ele>7.3</ele>
        <time>2020-09-27T11:07:11.000Z</time>
      </trkpt>
      <trkpt lat="47.33885" lon="-1.53089">
        <ele>7.4</ele>
        <time>2020-09-27T11:07:12.000Z</time>
      </trkpt>
      <trkpt lat="47.33883" lon="-1.53093">
        <ele>7.4</ele>
        <time>2020-09-27T11:07:13.000Z</time>
      </trkpt>
      <trkpt lat="47.33882" lon="-1.53097">
        <ele>7.5</ele>
        <time>2020-09-27T11:07:14.000Z</time>
      </trkpt>
      <trkpt lat="47.3388" lon="-1.53101">
        <ele>7.6</ele>
        <time>2020-09-27T11:07:15.000Z</time>
      </trkpt>
      <trkpt lat="47.33879" lon="-1.53105">
        <ele>7.6</ele>
        <time>2020-09-27T11:07:16.000Z</time>
      </trkpt>
      <trkpt lat="47.33878" lon="-1.53109">
        <ele>7.7</ele>
        <time>2020-09-27T11:07:17.000Z</time>
      </trkpt>
      <trkpt lat="47.33876" lon="-1.53112">
        <ele>7.7</ele>
        <time>2020-09-27T11:07:18.000Z</time>
      </trkpt>
      <trkpt lat="47.33875" lon="-1.53115">
        <ele>7.7</ele>
        <time>2020-09-27T11:07:19.000Z</time>
      </trkpt>
      <trkpt lat="47.33873" lon="-1.53117">
        <ele>7.8</ele>
        <time>2020-09-27T11:07:20.000Z</time>
      </trkpt>
      <trkpt lat="47.33871" lon="-1.53119">
        <ele>7.8</ele>
        <time>2020-09-27T11:07:21.000Z</time>
      </trkpt>
      <trkpt lat="47.33869" lon="-1.53119">
        <ele>7.7</ele>
        <time>2020-09-27T11:07:22.000Z</time>
      </trkpt>
      <trkpt lat="47.33867" lon="-1.53119">
        <ele>7.7</ele>
        <time>2020-09-27T11:07:23.000Z</time>
      </trkpt>
      <trkpt lat="47.33865" lon="-1.53119">
        <ele>7.6</ele>
        <time>2020-09-27T11:07:24.000Z</time>
      </trkpt>
      <trkpt lat="47.33862" lon="-1.53117">
        <ele>7.5</ele>
        <time>2020-09-27T11:07:25.000Z</time>
      </trkpt>
      <trkpt lat="47.3386" lon="-1.53115">
        <ele>7.4</ele>
        <time>2020-09-27T11:07:26.000Z</time>
      </trkpt>
      <trkpt lat="47.33857" lon="-1.53112">
        <ele>7.3</ele>
        <time>2020-09-27T11:07:27.000Z</time>
      </trkpt>
      <trkpt lat="47.33854" lon="-1.53109">
        <ele>7.1</ele>
        <time>2020-09-27T11:07:28.000Z</time>
      </trkpt>
      <trkpt lat="47.33852" lon="-1.53105">
        <ele>7</ele>
        <time>2020-09-27T11:07:29.000Z</time>
      </trkpt>
      <trkpt lat="47.33849" lon="-1.53101">
        <ele>6.8</ele>
        <time>2020-09-27T11:07:30.000Z</time>
      </trkpt>
      <trkpt lat="47.33846" lon="-1.53097">
        <ele>6.6</ele>
        <time>2020-09-27T11:07:31.000Z</time>
      </trkpt>
      <trkpt lat="47.33842" lon="-1.53093">
        <ele>6.4</ele>
        <time>2020-09-27T11:07:32.000Z</time>
      </trkpt>
      <trkpt lat="47.33839" lon="-1.53088">
        <ele>6.2</ele>
        <time>2020-09-27T11:07:33.000Z</time>
      </trkpt>
      <trkpt lat="47.33835" lon="-1.53083">
        <ele>6</ele>
        <time>2020-09-27T11:07:34.000Z</time>
      </trkpt>
      <trkpt lat="47.33832" lon="-1.53078">
        <ele>5.9</ele>
        <time>2020-09-27T11:07:35.000Z</time>
      </trkpt>
      <trkpt lat="47.3383" lon="-1.53073">
        <ele>5.9</ele>
        <time>2020-09-27T11:07:36.000Z</time>
      </trkpt>
      <trkpt lat="47.33827" lon="-1.5307">
        <ele>5.8</ele>
        <time>2020-09-27T11:07:37.000Z</time>
      </trkpt>
      <trkpt lat="47.33826" lon="-1.53066">
        <ele>5.8</ele>
        <time>2020-09-27T11:07:38.000Z</time>
      </trkpt>
      <trkpt lat="47.33824" lon="-1.53063">
        <ele>5.8</ele>
        <time>2020-09-27T11:07:39.000Z</time>
      </trkpt>
      <trkpt lat="47.33823" lon="-1.5306">
        <ele>5.8</ele>
        <time>2020-09-27T11:07:40.000Z</time>
      </trkpt>
      <trkpt lat="47.33821" lon="-1.53058">
        <ele>5.7</ele>
        <time>2020-09-27T11:07:41.000Z</time>
      </trkpt>
      <trkpt lat="47.33819" lon="-1.53056">
        <ele>5.7</ele>
        <time>2020-09-27T11:07:42.000Z</time>
      </trkpt>
      <trkpt lat="47.33817" lon="-1.53055">
        <ele>5.7</ele>
        <time>2020-09-27T11:07:43.000Z</time>
      </trkpt>
      <trkpt lat="47.33815" lon="-1.53055">
        <ele>5.7</ele>
        <time>2020-09-27T11:07:44.000Z</time>
      </trkpt>
      <trkpt lat="47.33814" lon="-1.53057">
        <ele>5.8</ele>
        <time>2020-09-27T11:07:45.000Z</time>
      </trkpt>
      <trkpt lat="47.33813" lon="-1.5306">
        <ele>5.8</ele>
        <time>2020-09-27T11:07:46.000Z</time>
      </trkpt>
      <trkpt lat="47.33812" lon="-1.53063">
        <ele>5.8</ele>
        <time>2020-09-27T11:07:47.000Z</time>
      </trkpt>
      <trkpt lat="47.33812" lon="-1.53065">
        <ele>5.8</ele>
        <time>2020-09-27T11:07:48.000Z</time>
      </trkpt>
      <trkpt lat="47.33811" lon="-1.53068">
        <ele>5.9</ele>
        <time>2020-09-27T11:07:49.000Z</time>
      </trkpt>
      <trkpt lat="47.3381" lon="-1.5307">
        <ele>5.9</ele>
        <time>2020-09-27T11:07:50.000Z</time>
      </trkpt>
      <trkpt lat="47.33809" lon="-1.53073">
        <ele>5.9</ele>
        <time>2020-09-27T11:07:51.000Z</time>
      </trkpt>
      <trkpt lat="47.33808" lon="-1.53076">
        <ele>5.9</ele>
        <time>2020-09-27T11:07:52.000Z</time>
      </trkpt>
      <trkpt lat="47.33807" lon="-1.53079">
        <ele>6</ele>
        <time>2020-09-27T11:07:53.000Z</time>
      </trkpt>
      <trkpt lat="47.33805" lon="-1.53082">
        <ele>6</ele>
        <time>2020-09-27T11:07:54.000Z</time>
      </trkpt>
      <trkpt lat="47.33804" lon="-1.53085">
        <ele>6</ele>
        <time>2020-09-27T11:07:55.000Z</time>
      </trkpt>
      <trkpt lat="47.33802" lon="-1.53089">
        <ele>6.1</ele>
        <time>2020-09-27T11:07:56.000Z</time>
      </trkpt>
      <trkpt lat="47.338" lon="-1.53092">
        <ele>6.2</ele>
        <time>2020-09-27T11:07:57.000Z</time>
      </trkpt>
      <trkpt lat="47.33799" lon="-1.53096">
        <ele>6.2</ele>
        <time>2020-09-27T11:07:58.000Z</time>
      </trkpt>
      <trkpt lat="47.33797" lon="-1.53099">
        <ele>6.3</ele>
        <time>2020-09-27T11:07:59.000Z</time>
      </trkpt>
      <trkpt lat="47.33795" lon="-1.53102">
        <ele>6.4</ele>
        <time>2020-09-27T11:08:00.000Z</time>
      </trkpt>
      <trkpt lat="47.33793" lon="-1.53106">
        <ele>6.4</ele>
        <time>2020-09-27T11:08:01.000Z</time>
      </trkpt>
      <trkpt lat="47.33792" lon="-1.53109">
        <ele>6.5</ele>
        <time>2020-09-27T11:08:02.000Z</time>
      </trkpt>
      <trkpt lat="47.3379" lon="-1.53112">
        <ele>6.5</ele>
        <time>2020-09-27T11:08:03.000Z</time>
      </trkpt>
      <trkpt lat="47.33788" lon="-1.53116">
        <ele>6.6</ele>
        <time>2020-09-27T11:08:04.000Z</time>
      </trkpt>
      <trkpt lat="47.33787" lon="-1.53119">
        <ele>6.6</ele>
        <time>2020-09-27T11:08:05.000Z</time>
      </trkpt>
      <trkpt lat="47.33785" lon="-1.53122">
        <ele>6.7</ele>
        <time>2020-09-27T11:08:06.000Z</time>
      </trkpt>
      <trkpt lat="47.33784" lon="-1.53126">
        <ele>6.7</ele>
        <time>2020-09-27T11:08:07.000Z</time>
      </trkpt>
      <trkpt lat="47.33782" lon="-1.5313">
        <ele>6.8</ele>
        <time>2020-09-27T11:08:08.000Z</time>
      </trkpt>
      <trkpt lat="47.3378" lon="-1.53134">
        <ele>6.8</ele>
        <time>2020-09-27T11:08:09.000Z</time>
      </trkpt>
      <trkpt lat="47.33779" lon="-1.53137">
        <ele>6.9</ele>
        <time>2020-09-27T11:08:10.000Z</time>
      </trkpt>
      <trkpt lat="47.33777" lon="-1.53141">
        <ele>6.9</ele>
        <time>2020-09-27T11:08:11.000Z</time>
      </trkpt>
      <trkpt lat="47.33775" lon="-1.53144">
        <ele>6.9</ele>
        <time>2020-09-27T11:08:12.000Z</time>
      </trkpt>
      <trkpt lat="47.33773" lon="-1.53147">
        <ele>7</ele>
        <time>2020-09-27T11:08:13.000Z</time>
      </trkpt>
      <trkpt lat="47.33771" lon="-1.5315">
        <ele>7</ele>
        <time>2020-09-27T11:08:14.000Z</time>
      </trkpt>
      <trkpt lat="47.33769" lon="-1.53152">
        <ele>7</ele>
        <time>2020-09-27T11:08:15.000Z</time>
      </trkpt>
      <trkpt lat="47.33766" lon="-1.53154">
        <ele>7</ele>
        <time>2020-09-27T11:08:16.000Z</time>
      </trkpt>
      <trkpt lat="47.33764" lon="-1.53156">
        <ele>7</ele>
        <time>2020-09-27T11:08:17.000Z</time>
      </trkpt>
      <trkpt lat="47.33762" lon="-1.53158">
        <ele>7</ele>
        <time>2020-09-27T11:08:18.000Z</time>
      </trkpt>
      <trkpt lat="47.3376" lon="-1.53159">
        <ele>7</ele>
        <time>2020-09-27T11:08:19.000Z</time>
      </trkpt>
      <trkpt lat="47.33758" lon="-1.5316">
        <ele>7</ele>
        <time>2020-09-27T11:08:20.000Z</time>
      </trkpt>
      <trkpt lat="47.33758" lon="-1.5316">
        <ele>7</ele>
        <time>2020-09-27T11:08:21.000Z</time>
      </trkpt>
      <trkpt lat="47.33758" lon="-1.5316">
        <ele>7</ele>
        <time>2020-09-27T11:08:22.000Z</time>
      </trkpt>
      <trkpt lat="47.33758" lon="-1.5316">
        <ele>7</ele>
        <time>2020-09-27T11:08:23.000Z</time>
      </trkpt>
      <trkpt lat="47.33758" lon="-1.5316">
        <ele>7</ele>
        <time>2020-09-27T11:08:24.000Z</time>
      </trkpt>
      <trkpt lat="47.33758" lon="-1.5316">
        <ele>7</ele>
        <time>2020-09-27T11:08:25.000Z</time>
      </trkpt>
      <trkpt lat="47.33758" lon="-1.5316">
        <ele>7</ele>
        <time>2020-09-27T11:08:26.000Z</time>
      </trkpt>
      <trkpt lat="47.33758" lon="-1.5316">
        <ele>7</ele>
        <time>2020-09-27T11:08:27.000Z</time>
      </trkpt>
      <trkpt lat="47.33758" lon="-1.5316">
        <ele>7</ele>
        <time>2020-09-27T11:08:28.000Z</time>
      </trkpt>
      <trkpt lat="47.33758" lon="-1.5316">
        <ele>7</ele>
        <time>2020-09-27T11:08:29.000Z</time>
      </trkpt>
      <trkpt lat="47.33758" lon="-1.5316">
        <ele>7</ele>
        <time>2020-09-27T11:08:30.000Z</time>
      </trkpt>
      <trkpt lat="47.33758" lon="-1.5316">
        <ele>7</ele>
        <time>2020-09-27T11:08:31.000Z</time>
      </trkpt>
      <trkpt lat="47.33758" lon="-1.5316">
        <ele>7</ele>
        <time>2020-09-27T11:08:32.000Z</time>
      </trkpt>
      <trkpt lat="47.33758" lon="-1.5316">
        <ele>7</ele>
        <time>2020-09-27T11:08:33.000Z</time>
      </trkpt>
      <trkpt lat="47.33758" lon="-1.5316">
        <ele>7</ele>
        <time>2020-09-27T11:08:34.000Z</time>
      </trkpt>
      <trkpt lat="47.33757" lon="-1.53161">
        <ele>7</ele>
        <time>2020-09-27T11:08:35.000Z</time>
      </trkpt>
      <trkpt lat="47.33757" lon="-1.53161">
        <ele>7</ele>
        <time>2020-09-27T11:08:36.000Z</time>
      </trkpt>
      <trkpt lat="47.33756" lon="-1.53161">
        <ele>7</ele>
        <time>2020-09-27T11:08:37.000Z</time>
      </trkpt>
      <trkpt lat="47.33755" lon="-1.53162">
        <ele>7</ele>
        <time>2020-09-27T11:08:38.000Z</time>
      </trkpt>
      <trkpt lat="47.33754" lon="-1.53163">
        <ele>7</ele>
        <time>2020-09-27T11:08:39.000Z</time>
      </trkpt>
      <trkpt lat="47.33752" lon="-1.53164">
        <ele>7</ele>
        <time>2020-09-27T11:08:40.000Z</time>
      </trkpt>
      <trkpt lat="47.33751" lon="-1.53165">
        <ele>7</ele>
        <time>2020-09-27T11:08:41.000Z</time>
      </trkpt>
      <trkpt lat="47.33749" lon="-1.53166">
        <ele>7</ele>
        <time>2020-09-27T11:08:42.000Z</time>
      </trkpt>
      <trkpt lat="47.33746" lon="-1.53167">
        <ele>7</ele>
        <time>2020-09-27T11:08:43.000Z</time>
      </trkpt>
      <trkpt lat="47.33744" lon="-1.53169">
        <ele>7.1</ele>
        <time>2020-09-27T11:08:44.000Z</time>
      </trkpt>
      <trkpt lat="47.33742" lon="-1.5317">
        <ele>7.1</ele>
        <time>2020-09-27T11:08:45.000Z</time>
      </trkpt>
      <trkpt lat="47.3374" lon="-1.53171">
        <ele>7.1</ele>
        <time>2020-09-27T11:08:46.000Z</time>
      </trkpt>
      <trkpt lat="47.33738" lon="-1.53172">
        <ele>7.1</ele>
        <time>2020-09-27T11:08:47.000Z</time>
      </trkpt>
      <trkpt lat="47.33735" lon="-1.53173">
        <ele>7.1</ele>
        <time>2020-09-27T11:08:48.000Z</time>
      </trkpt>
      <trkpt lat="47.33733" lon="-1.53174">
        <ele>7.1</ele>
        <time>2020-09-27T11:08:49.000Z</time>
      </trkpt>
      <trkpt lat="47.33731" lon="-1.53175">
        <ele>7.1</ele>
        <time>2020-09-27T11:08:50.000Z</time>
      </trkpt>
      <trkpt lat="47.33729" lon="-1.53176">
        <ele>7.2</ele>
        <time>2020-09-27T11:08:51.000Z</time>
      </trkpt>
      <trkpt lat="47.33727" lon="-1.53178">
        <ele>7.2</ele>
        <time>2020-09-27T11:08:52.000Z</time>
      </trkpt>
      <trkpt lat="47.33725" lon="-1.53179">
        <ele>7.2</ele>
        <time>2020-09-27T11:08:53.000Z</time>
      </trkpt>
      <trkpt lat="47.33723" lon="-1.5318">
        <ele>7.2</ele>
        <time>2020-09-27T11:08:54.000Z</time>
      </trkpt>
      <trkpt lat="47.33721" lon="-1.53181">
        <ele>7.2</ele>
        <time>2020-09-27T11:08:55.000Z</time>
      </trkpt>
      <trkpt lat="47.33718" lon="-1.53182">
        <ele>7.3</ele>
        <time>2020-09-27T11:08:56.000Z</time>
      </trkpt>
      <trkpt lat="47.33716" lon="-1.53183">
        <ele>7.3</ele>
        <time>2020-09-27T11:08:57.000Z</time>
      </trkpt>
      <trkpt lat="47.33714" lon="-1.53185">
        <ele>7.3</ele>
        <time>2020-09-27T11:08:58.000Z</time>
      </trkpt>
      <trkpt lat="47.33712" lon="-1.53186">
        <ele>7.3</ele>
        <time>2020-09-27T11:08:59.000Z</time>
      </trkpt>
      <trkpt lat="47.33709" lon="-1.53187">
        <ele>7.4</ele>
        <time>2020-09-27T11:09:00.000Z</time>
      </trkpt>
      <trkpt lat="47.33707" lon="-1.53188">
        <ele>7.4</ele>
        <time>2020-09-27T11:09:01.000Z</time>
      </trkpt>
      <trkpt lat="47.33705" lon="-1.5319">
        <ele>7.4</ele>
        <time>2020-09-27T11:09:02.000Z</time>
      </trkpt>
      <trkpt lat="47.33702" lon="-1.53191">
        <ele>7.5</ele>
        <time>2020-09-27T11:09:03.000Z</time>
      </trkpt>
      <trkpt lat="47.337" lon="-1.53192">
        <ele>7.5</ele>
        <time>2020-09-27T11:09:04.000Z</time>
      </trkpt>
      <trkpt lat="47.33697" lon="-1.53193">
        <ele>7.5</ele>
        <time>2020-09-27T11:09:05.000Z</time>
      </trkpt>
      <trkpt lat="47.33694" lon="-1.53194">
        <ele>7.6</ele>
        <time>2020-09-27T11:09:06.000Z</time>
      </trkpt>
      <trkpt lat="47.33692" lon="-1.53195">
        <ele>7.6</ele>
        <time>2020-09-27T11:09:07.000Z</time>
      </trkpt>
      <trkpt lat="47.33689" lon="-1.53197">
        <ele>7.6</ele>
        <time>2020-09-27T11:09:08.000Z</time>
      </trkpt>
      <trkpt lat="47.33686" lon="-1.53198">
        <ele>7.7</ele>
        <time>2020-09-27T11:09:09.000Z</time>
      </trkpt>
      <trkpt lat="47.33683" lon="-1.53199">
        <ele>7.7</ele>
        <time>2020-09-27T11:09:10.000Z</time>
      </trkpt>
      <trkpt lat="47.3368" lon="-1.532">
        <ele>7.8</ele>
        <time>2020-09-27T11:09:11.000Z</time>
      </trkpt>
      <trkpt lat="47.33677" lon="-1.53201">
        <ele>7.8</ele>
        <time>2020-09-27T11:09:12.000Z</time>
      </trkpt>
      <trkpt lat="47.33674" lon="-1.53202">
        <ele>7.9</ele>
        <time>2020-09-27T11:09:13.000Z</time>
      </trkpt>
      <trkpt lat="47.33671" lon="-1.53204">
        <ele>7.9</ele>
        <time>2020-09-27T11:09:14.000Z</time>
      </trkpt>
      <trkpt lat="47.33669" lon="-1.53205">
        <ele>8</ele>
        <time>2020-09-27T11:09:15.000Z</time>
      </trkpt>
      <trkpt lat="47.33666" lon="-1.53206">
        <ele>8</ele>
        <time>2020-09-27T11:09:16.000Z</time>
      </trkpt>
      <trkpt lat="47.33663" lon="-1.53208">
        <ele>8.2</ele>
        <time>2020-09-27T11:09:17.000Z</time>
      </trkpt>
      <trkpt lat="47.3366" lon="-1.53209">
        <ele>8.3</ele>
        <time>2020-09-27T11:09:18.000Z</time>
      </trkpt>
      <trkpt lat="47.33657" lon="-1.53211">
        <ele>8.4</ele>
        <time>2020-09-27T11:09:19.000Z</time>
      </trkpt>
      <trkpt lat="47.33654" lon="-1.53212">
        <ele>8.5</ele>
        <time>2020-09-27T11:09:20.000Z</time>
      </trkpt>
      <trkpt lat="47.33652" lon="-1.53214">
        <ele>8.6</ele>
        <time>2020-09-27T11:09:21.000Z</time>
      </trkpt>
      <trkpt lat="47.33649" lon="-1.53216">
        <ele>8.8</ele>
        <time>2020-09-27T11:09:22.000Z</time>
      </trkpt>
      <trkpt lat="47.33646" lon="-1.53218">
        <ele>8.9</ele>
        <time>2020-09-27T11:09:23.000Z</time>
      </trkpt>
      <trkpt lat="47.33643" lon="-1.53219">
        <ele>9</ele>
        <time>2020-09-27T11:09:24.000Z</time>
      </trkpt>
      <trkpt lat="47.3364" lon="-1.53221">
        <ele>9.2</ele>
        <time>2020-09-27T11:09:25.000Z</time>
      </trkpt>
      <trkpt lat="47.33637" lon="-1.53223">
        <ele>9.3</ele>
        <time>2020-09-27T11:09:26.000Z</time>
      </trkpt>
      <trkpt lat="47.33634" lon="-1.53225">
        <ele>9.4</ele>
        <time>2020-09-27T11:09:27.000Z</time>
      </trkpt>
      <trkpt lat="47.33632" lon="-1.53226">
        <ele>9.6</ele>
        <time>2020-09-27T11:09:28.000Z</time>
      </trkpt>
      <trkpt lat="47.33629" lon="-1.53228">
        <ele>9.7</ele>
        <time>2020-09-27T11:09:29.000Z</time>
      </trkpt>
      <trkpt lat="47.33626" lon="-1.5323">
        <ele>9.9</ele>
        <time>2020-09-27T11:09:30.000Z</time>
      </trkpt>
      <trkpt lat="47.33623" lon="-1.53232">
        <ele>10</ele>
        <time>2020-09-27T11:09:31.000Z</time>
      </trkpt>
      <trkpt lat="47.3362" lon="-1.53234">
        <ele>10.1</ele>
        <time>2020-09-27T11:09:32.000Z</time>
      </trkpt>
      <trkpt lat="47.33617" lon="-1.53236">
        <ele>10.3</ele>
        <time>2020-09-27T11:09:33.000Z</time>
      </trkpt>
      <trkpt lat="47.33613" lon="-1.53238">
        <ele>10.5</ele>
        <time>2020-09-27T11:09:34.000Z</time>
      </trkpt>
      <trkpt lat="47.3361" lon="-1.5324">
        <ele>10.6</ele>
        <time>2020-09-27T11:09:35.000Z</time>
      </trkpt>
      <trkpt lat="47.33607" lon="-1.53241">
        <ele>10.8</ele>
        <time>2020-09-27T11:09:36.000Z</time>
      </trkpt>
      <trkpt lat="47.33604" lon="-1.53243">
        <ele>11</ele>
        <time>2020-09-27T11:09:37.000Z</time>
      </trkpt>
      <trkpt lat="47.33601" lon="-1.53245">
        <ele>11.1</ele>
        <time>2020-09-27T11:09:38.000Z</time>
      </trkpt>
      <trkpt lat="47.33597" lon="-1.53248">
        <ele>11.3</ele>
        <time>2020-09-27T11:09:39.000Z</time>
      </trkpt>
      <trkpt lat="47.33594" lon="-1.5325">
        <ele>11.5</ele>
        <time>2020-09-27T11:09:40.000Z</time>
      </trkpt>
      <trkpt lat="47.33591" lon="-1.53252">
        <ele>11.7</ele>
        <time>2020-09-27T11:09:41.000Z</time>
      </trkpt>
      <trkpt lat="47.33587" lon="-1.53254">
        <ele>12</ele>
        <time>2020-09-27T11:09:42.000Z</time>
      </trkpt>
      <trkpt lat="47.33584" lon="-1.53256">
        <ele>12.2</ele>
        <time>2020-09-27T11:09:43.000Z</time>
      </trkpt>
      <trkpt lat="47.33581" lon="-1.53258">
        <ele>12.5</ele>
        <time>2020-09-27T11:09:44.000Z</time>
      </trkpt>
      <trkpt lat="47.33577" lon="-1.5326">
        <ele>12.8</ele>
        <time>2020-09-27T11:09:45.000Z</time>
      </trkpt>
      <trkpt lat="47.33574" lon="-1.53262">
        <ele>13</ele>
        <time>2020-09-27T11:09:46.000Z</time>
      </trkpt>
      <trkpt lat="47.3357" lon="-1.53265">
        <ele>13.2</ele>
        <time>2020-09-27T11:09:47.000Z</time>
      </trkpt>
      <trkpt lat="47.33567" lon="-1.53267">
        <ele>13.5</ele>
        <time>2020-09-27T11:09:48.000Z</time>
      </trkpt>
      <trkpt lat="47.33563" lon="-1.53269">
        <ele>13.7</ele>
        <time>2020-09-27T11:09:49.000Z</time>
      </trkpt>
      <trkpt lat="47.3356" lon="-1.53271">
        <ele>13.9</ele>
        <time>2020-09-27T11:09:50.000Z</time>
      </trkpt>
      <trkpt lat="47.33556" lon="-1.53273">
        <ele>14.1</ele>
        <time>2020-09-27T11:09:51.000Z</time>
      </trkpt>
      <trkpt lat="47.33553" lon="-1.53275">
        <ele>14.3</ele>
        <time>2020-09-27T11:09:52.000Z</time>
      </trkpt>
      <trkpt lat="47.33549" lon="-1.53277">
        <ele>14.5</ele>
        <time>2020-09-27T11:09:53.000Z</time>
      </trkpt>
      <trkpt lat="47.33546" lon="-1.53279">
        <ele>14.7</ele>
        <time>2020-09-27T11:09:54.000Z</time>
      </trkpt>
      <trkpt lat="47.33542" lon="-1.5328">
        <ele>14.9</ele>
        <time>2020-09-27T11:09:55.000Z</time>
      </trkpt>
      <trkpt lat="47.33539" lon="-1.53281">
        <ele>15</ele>
        <time>2020-09-27T11:09:56.000Z</time>
      </trkpt>
      <trkpt lat="47.33535" lon="-1.53283">
        <ele>15.2</ele>
        <time>2020-09-27T11:09:57.000Z</time>
      </trkpt>
      <trkpt lat="47.33532" lon="-1.53284">
        <ele>15.4</ele>
        <time>2020-09-27T11:09:58.000Z</time>
      </trkpt>
      <trkpt lat="47.33529" lon="-1.53286">
        <ele>15.5</ele>
        <time>2020-09-27T11:09:59.000Z</time>
      </trkpt>
      <trkpt lat="47.33526" lon="-1.53288">
        <ele>15.6</ele>
        <time>2020-09-27T11:10:00.000Z</time>
      </trkpt>
      <trkpt lat="47.33524" lon="-1.53291">
        <ele>15.8</ele>
        <time>2020-09-27T11:10:01.000Z</time>
      </trkpt>
      <trkpt lat="47.33522" lon="-1.53294">
        <ele>15.9</ele>
        <time>2020-09-27T11:10:02.000Z</time>
      </trkpt>
      <trkpt lat="47.33521" lon="-1.53298">
        <ele>16</ele>
        <time>2020-09-27T11:10:03.000Z</time>
      </trkpt>
      <trkpt lat="47.33519" lon="-1.53302">
        <ele>16.1</ele>
        <time>2020-09-27T11:10:04.000Z</time>
      </trkpt>
      <trkpt lat="47.33518" lon="-1.53307">
        <ele>16.2</ele>
        <time>2020-09-27T11:10:05.000Z</time>
      </trkpt>
      <trkpt lat="47.33518" lon="-1.53312">
        <ele>16.4</ele>
        <time>2020-09-27T11:10:06.000Z</time>
      </trkpt>
      <trkpt lat="47.33517" lon="-1.53317">
        <ele>16.5</ele>
        <time>2020-09-27T11:10:07.000Z</time>
      </trkpt>
      <trkpt lat="47.33516" lon="-1.53323">
        <ele>16.6</ele>
        <time>2020-09-27T11:10:08.000Z</time>
      </trkpt>
      <trkpt lat="47.33515" lon="-1.53329">
        <ele>16.7</ele>
        <time>2020-09-27T11:10:09.000Z</time>
      </trkpt>
      <trkpt lat="47.33515" lon="-1.53334">
        <ele>16.8</ele>
        <time>2020-09-27T11:10:10.000Z</time>
      </trkpt>
      <trkpt lat="47.33514" lon="-1.5334">
        <ele>16.8</ele>
        <time>2020-09-27T11:10:11.000Z</time>
      </trkpt>
      <trkpt lat="47.33513" lon="-1.53346">
        <ele>16.8</ele>
        <time>2020-09-27T11:10:12.000Z</time>
      </trkpt>
      <trkpt lat="47.33512" lon="-1.53351">
        <ele>16.8</ele>
        <time>2020-09-27T11:10:13.000Z</time>
      </trkpt>
      <trkpt lat="47.33512" lon="-1.53357">
        <ele>16.8</ele>
        <time>2020-09-27T11:10:14.000Z</time>
      </trkpt>
      <trkpt lat="47.33511" lon="-1.53362">
        <ele>16.8</ele>
        <time>2020-09-27T11:10:15.000Z</time>
      </trkpt>
      <trkpt lat="47.3351" lon="-1.53368">
        <ele>16.8</ele>
        <time>2020-09-27T11:10:16.000Z</time>
      </trkpt>
      <trkpt lat="47.3351" lon="-1.53373">
        <ele>16.8</ele>
        <time>2020-09-27T11:10:17.000Z</time>
      </trkpt>
      <trkpt lat="47.33509" lon="-1.53379">
        <ele>16.8</ele>
        <time>2020-09-27T11:10:18.000Z</time>
      </trkpt>
      <trkpt lat="47.33508" lon="-1.53384">
        <ele>16.8</ele>
        <time>2020-09-27T11:10:19.000Z</time>
      </trkpt>
      <trkpt lat="47.33507" lon="-1.53389">
        <ele>16.8</ele>
        <time>2020-09-27T11:10:20.000Z</time>
      </trkpt>
      <trkpt lat="47.33507" lon="-1.53395">
        <ele>16.8</ele>
        <time>2020-09-27T11:10:21.000Z</time>
      </trkpt>
      <trkpt lat="47.33506" lon="-1.534">
        <ele>16.8</ele>
        <time>2020-09-27T11:10:22.000Z</time>
      </trkpt>
      <trkpt lat="47.33505" lon="-1.53406">
        <ele>16.8</ele>
        <time>2020-09-27T11:10:23.000Z</time>
      </trkpt>
      <trkpt lat="47.33505" lon="-1.53411">
        <ele>16.8</ele>
        <time>2020-09-27T11:10:24.000Z</time>
      </trkpt>
      <trkpt lat="47.33504" lon="-1.53417">
        <ele>16.9</ele>
        <time>2020-09-27T11:10:25.000Z</time>
      </trkpt>
      <trkpt lat="47.33503" lon="-1.53422">
        <ele>16.9</ele>
        <time>2020-09-27T11:10:26.000Z</time>
      </trkpt>
      <trkpt lat="47.33503" lon="-1.53427">
        <ele>16.9</ele>
        <time>2020-09-27T11:10:27.000Z</time>
      </trkpt>
      <trkpt lat="47.33502" lon="-1.53432">
        <ele>16.9</ele>
        <time>2020-09-27T11:10:28.000Z</time>
      </trkpt>
      <trkpt lat="47.33501" lon="-1.53437">
        <ele>16.9</ele>
        <time>2020-09-27T11:10:29.000Z</time>
      </trkpt>
      <trkpt lat="47.33501" lon="-1.53442">
        <ele>17</ele>
        <time>2020-09-27T11:10:30.000Z</time>
      </trkpt>
      <trkpt lat="47.335" lon="-1.53446">
        <ele>17</ele>
        <time>2020-09-27T11:10:31.000Z</time>
      </trkpt>
      <trkpt lat="47.33499" lon="-1.5345">
        <ele>17.1</ele>
        <time>2020-09-27T11:10:32.000Z</time>
      </trkpt>
      <trkpt lat="47.33498" lon="-1.53454">
        <ele>17.1</ele>
        <time>2020-09-27T11:10:33.000Z</time>
      </trkpt>
      <trkpt lat="47.33497" lon="-1.53458">
        <ele>17.1</ele>
        <time>2020-09-27T11:10:34.000Z</time>
      </trkpt>
      <trkpt lat="47.33496" lon="-1.53461">
        <ele>17.2</ele>
        <time>2020-09-27T11:10:35.000Z</time>
      </trkpt>
      <trkpt lat="47.33494" lon="-1.53465">
        <ele>17.2</ele>
        <time>2020-09-27T11:10:36.000Z</time>
      </trkpt>
      <trkpt lat="47.33493" lon="-1.53468">
        <ele>17.3</ele>
        <time>2020-09-27T11:10:37.000Z</time>
      </trkpt>
      <trkpt lat="47.33492" lon="-1.53472">
        <ele>17.3</ele>
        <time>2020-09-27T11:10:38.000Z</time>
      </trkpt>
      <trkpt lat="47.33491" lon="-1.53475">
        <ele>17.3</ele>
        <time>2020-09-27T11:10:39.000Z</time>
      </trkpt>
      <trkpt lat="47.3349" lon="-1.53478">
        <ele>17.4</ele>
        <time>2020-09-27T11:10:40.000Z</time>
      </trkpt>
      <trkpt lat="47.33489" lon="-1.53481">
        <ele>17.4</ele>
        <time>2020-09-27T11:10:41.000Z</time>
      </trkpt>
      <trkpt lat="47.33487" lon="-1.53482">
        <ele>17.5</ele>
        <time>2020-09-27T11:10:42.000Z</time>
      </trkpt>
      <trkpt lat="47.33484" lon="-1.53483">
        <ele>17.6</ele>
        <time>2020-09-27T11:10:43.000Z</time>
      </trkpt>
      <trkpt lat="47.33481" lon="-1.53483">
        <ele>17.7</ele>
        <time>2020-09-27T11:10:44.000Z</time>
      </trkpt>
      <trkpt lat="47.33478" lon="-1.53484">
        <ele>17.9</ele>
        <time>2020-09-27T11:10:45.000Z</time>
      </trkpt>
      <trkpt lat="47.33474" lon="-1.53484">
        <ele>18</ele>
        <time>2020-09-27T11:10:46.000Z</time>
      </trkpt>
      <trkpt lat="47.33471" lon="-1.53485">
        <ele>18.1</ele>
        <time>2020-09-27T11:10:47.000Z</time>
      </trkpt>
      <trkpt lat="47.33468" lon="-1.53486">
        <ele>18.2</ele>
        <time>2020-09-27T11:10:48.000Z</time>
      </trkpt>
      <trkpt lat="47.33465" lon="-1.53486">
        <ele>18.3</ele>
        <time>2020-09-27T11:10:49.000Z</time>
      </trkpt>
      <trkpt lat="47.33461" lon="-1.53487">
        <ele>18.5</ele>
        <time>2020-09-27T11:10:50.000Z</time>
      </trkpt>
      <trkpt lat="47.33458" lon="-1.53487">
        <ele>18.6</ele>
        <time>2020-09-27T11:10:51.000Z</time>
      </trkpt>
      <trkpt lat="47.33455" lon="-1.53488">
        <ele>18.7</ele>
        <time>2020-09-27T11:10:52.000Z</time>
      </trkpt>
      <trkpt lat="47.33452" lon="-1.53488">
        <ele>18.8</ele>
        <time>2020-09-27T11:10:53.000Z</time>
      </trkpt>
      <trkpt lat="47.33449" lon="-1.53489">
        <ele>18.9</ele>
        <time>2020-09-27T11:10:54.000Z</time>
      </trkpt>
      <trkpt lat="47.33446" lon="-1.53489">
        <ele>19</ele>
        <time>2020-09-27T11:10:55.000Z</time>
      </trkpt>
      <trkpt lat="47.33442" lon="-1.53489">
        <ele>19.2</ele>
        <time>2020-09-27T11:10:56.000Z</time>
      </trkpt>
      <trkpt lat="47.33439" lon="-1.5349">
        <ele>19.3</ele>
        <time>2020-09-27T11:10:57.000Z</time>
      </trkpt>
      <trkpt lat="47.33436" lon="-1.5349">
        <ele>19.4</ele>
        <time>2020-09-27T11:10:58.000Z</time>
      </trkpt>
      <trkpt lat="47.33436" lon="-1.5349">
        <ele>19.4</ele>
        <time>2020-09-27T11:10:59.000Z</time>
      </trkpt>
      <trkpt lat="47.33436" lon="-1.5349">
        <ele>19.4</ele>
        <time>2020-09-27T11:11:00.000Z</time>
      </trkpt>
      <trkpt lat="47.33435" lon="-1.5349">
        <ele>19.4</ele>
        <time>2020-09-27T11:11:01.000Z</time>
      </trkpt>
      <trkpt lat="47.33433" lon="-1.5349">
        <ele>19.5</ele>
        <time>2020-09-27T11:11:02.000Z</time>
      </trkpt>
      <trkpt lat="47.3343" lon="-1.53491">
        <ele>19.6</ele>
        <time>2020-09-27T11:11:03.000Z</time>
      </trkpt>
      <trkpt lat="47.33426" lon="-1.53492">
        <ele>19.8</ele>
        <time>2020-09-27T11:11:04.000Z</time>
      </trkpt>
      <trkpt lat="47.33423" lon="-1.53492">
        <ele>19.9</ele>
        <time>2020-09-27T11:11:05.000Z</time>
      </trkpt>
      <trkpt lat="47.33419" lon="-1.53493">
        <ele>20</ele>
        <time>2020-09-27T11:11:06.000Z</time>
      </trkpt>
      <trkpt lat="47.33415" lon="-1.53494">
        <ele>20.1</ele>
        <time>2020-09-27T11:11:07.000Z</time>
      </trkpt>
      <trkpt lat="47.33411" lon="-1.53495">
        <ele>20.2</ele>
        <time>2020-09-27T11:11:08.000Z</time>
      </trkpt>
      <trkpt lat="47.33408" lon="-1.53495">
        <ele>20.3</ele>
        <time>2020-09-27T11:11:09.000Z</time>
      </trkpt>
      <trkpt lat="47.33404" lon="-1.53496">
        <ele>20.4</ele>
        <time>2020-09-27T11:11:10.000Z</time>
      </trkpt>
      <trkpt lat="47.334" lon="-1.53497">
        <ele>20.4</ele>
        <time>2020-09-27T11:11:11.000Z</time>
      </trkpt>
      <trkpt lat="47.33396" lon="-1.53497">
        <ele>20.5</ele>
        <time>2020-09-27T11:11:12.000Z</time>
      </trkpt>
      <trkpt lat="47.33392" lon="-1.53498">
        <ele>20.6</ele>
        <time>2020-09-27T11:11:13.000Z</time>
      </trkpt>
      <trkpt lat="47.33388" lon="-1.53498">
        <ele>20.7</ele>
        <time>2020-09-27T11:11:14.000Z</time>
      </trkpt>
      <trkpt lat="47.33384" lon="-1.53499">
        <ele>20.8</ele>
        <time>2020-09-27T11:11:15.000Z</time>
      </trkpt>
      <trkpt lat="47.3338" lon="-1.535">
        <ele>20.9</ele>
        <time>2020-09-27T11:11:16.000Z</time>
      </trkpt>
      <trkpt lat="47.33376" lon="-1.53501">
        <ele>21</ele>
        <time>2020-09-27T11:11:17.000Z</time>
      </trkpt>
      <trkpt lat="47.33372" lon="-1.53502">
        <ele>21.1</ele>
        <time>2020-09-27T11:11:18.000Z</time>
      </trkpt>
      <trkpt lat="47.33368" lon="-1.53503">
        <ele>21.1</ele>
        <time>2020-09-27T11:11:19.000Z</time>
      </trkpt>
      <trkpt lat="47.33365" lon="-1.53504">
        <ele>21.2</ele>
        <time>2020-09-27T11:11:20.000Z</time>
      </trkpt>
      <trkpt lat="47.33361" lon="-1.53506">
        <ele>21.3</ele>
        <time>2020-09-27T11:11:21.000Z</time>
      </trkpt>
      <trkpt lat="47.33358" lon="-1.53507">
        <ele>21.3</ele>
        <time>2020-09-27T11:11:22.000Z</time>
      </trkpt>
      <trkpt lat="47.33354" lon="-1.53509">
        <ele>21.4</ele>
        <time>2020-09-27T11:11:23.000Z</time>
      </trkpt>
      <trkpt lat="47.3335" lon="-1.53511">
        <ele>21.5</ele>
        <time>2020-09-27T11:11:24.000Z</time>
      </trkpt>
      <trkpt lat="47.33347" lon="-1.53512">
        <ele>21.5</ele>
        <time>2020-09-27T11:11:25.000Z</time>
      </trkpt>
      <trkpt lat="47.33343" lon="-1.53514">
        <ele>21.6</ele>
        <time>2020-09-27T11:11:26.000Z</time>
      </trkpt>
      <trkpt lat="47.3334" lon="-1.53516">
        <ele>21.7</ele>
        <time>2020-09-27T11:11:27.000Z</time>
      </trkpt>
      <trkpt lat="47.33336" lon="-1.53517">
        <ele>21.7</ele>
        <time>2020-09-27T11:11:28.000Z</time>
      </trkpt>
      <trkpt lat="47.33333" lon="-1.53519">
        <ele>21.8</ele>
        <time>2020-09-27T11:11:29.000Z</time>
      </trkpt>
      <trkpt lat="47.33329" lon="-1.5352">
        <ele>21.8</ele>
        <time>2020-09-27T11:11:30.000Z</time>
      </trkpt>
      <trkpt lat="47.33326" lon="-1.53521">
        <ele>21.8</ele>
        <time>2020-09-27T11:11:31.000Z</time>
      </trkpt>
      <trkpt lat="47.33322" lon="-1.53523">
        <ele>21.9</ele>
        <time>2020-09-27T11:11:32.000Z</time>
      </trkpt>
      <trkpt lat="47.33319" lon="-1.53524">
        <ele>21.9</ele>
        <time>2020-09-27T11:11:33.000Z</time>
      </trkpt>
      <trkpt lat="47.33315" lon="-1.53525">
        <ele>21.9</ele>
        <time>2020-09-27T11:11:34.000Z</time>
      </trkpt>
      <trkpt lat="47.33312" lon="-1.53527">
        <ele>21.9</ele>
        <time>2020-09-27T11:11:35.000Z</time>
      </trkpt>
      <trkpt lat="47.33309" lon="-1.53528">
        <ele>22</ele>
        <time>2020-09-27T11:11:36.000Z</time>
      </trkpt>
      <trkpt lat="47.33306" lon="-1.53529">
        <ele>22</ele>
        <time>2020-09-27T11:11:37.000Z</time>
      </trkpt>
      <trkpt lat="47.33303" lon="-1.5353">
        <ele>22</ele>
        <time>2020-09-27T11:11:38.000Z</time>
      </trkpt>
      <trkpt lat="47.333" lon="-1.53531">
        <ele>22</ele>
        <time>2020-09-27T11:11:39.000Z</time>
      </trkpt>
      <trkpt lat="47.33297" lon="-1.53532">
        <ele>22.1</ele>
        <time>2020-09-27T11:11:40.000Z</time>
      </trkpt>
      <trkpt lat="47.33295" lon="-1.53533">
        <ele>22.1</ele>
        <time>2020-09-27T11:11:41.000Z</time>
      </trkpt>
      <trkpt lat="47.33292" lon="-1.53534">
        <ele>22.1</ele>
        <time>2020-09-27T11:11:42.000Z</time>
      </trkpt>
      <trkpt lat="47.33289" lon="-1.53535">
        <ele>22.1</ele>
        <time>2020-09-27T11:11:43.000Z</time>
      </trkpt>
      <trkpt lat="47.33287" lon="-1.53536">
        <ele>22.1</ele>
        <time>2020-09-27T11:11:44.000Z</time>
      </trkpt>
      <trkpt lat="47.33285" lon="-1.53537">
        <ele>22.1</ele>
        <time>2020-09-27T11:11:45.000Z</time>
      </trkpt>
      <trkpt lat="47.33282" lon="-1.53538">
        <ele>22.2</ele>
        <time>2020-09-27T11:11:46.000Z</time>
      </trkpt>
      <trkpt lat="47.3328" lon="-1.53539">
        <ele>22.2</ele>
        <time>2020-09-27T11:11:47.000Z</time>
      </trkpt>
      <trkpt lat="47.33277" lon="-1.5354">
        <ele>22.2</ele>
        <time>2020-09-27T11:11:48.000Z</time>
      </trkpt>
      <trkpt lat="47.33275" lon="-1.53541">
        <ele>22.2</ele>
        <time>2020-09-27T11:11:49.000Z</time>
      </trkpt>
      <trkpt lat="47.33273" lon="-1.53542">
        <ele>22.2</ele>
        <time>2020-09-27T11:11:50.000Z</time>
      </trkpt>
      <trkpt lat="47.3327" lon="-1.53543">
        <ele>22.2</ele>
        <time>2020-09-27T11:11:51.000Z</time>
      </trkpt>
      <trkpt lat="47.33268" lon="-1.53544">
        <ele>22.3</ele>
        <time>2020-09-27T11:11:52.000Z</time>
      </trkpt>
      <trkpt lat="47.33266" lon="-1.53545">
        <ele>22.3</ele>
        <time>2020-09-27T11:11:53.000Z</time>
      </trkpt>
      <trkpt lat="47.33263" lon="-1.53545">
        <ele>22.3</ele>
        <time>2020-09-27T11:11:54.000Z</time>
      </trkpt>
      <trkpt lat="47.33261" lon="-1.53544">
        <ele>22.3</ele>
        <time>2020-09-27T11:11:55.000Z</time>
      </trkpt>
      <trkpt lat="47.33258" lon="-1.53542">
        <ele>22.4</ele>
        <time>2020-09-27T11:11:56.000Z</time>
      </trkpt>
      <trkpt lat="47.33257" lon="-1.53539">
        <ele>22.5</ele>
        <time>2020-09-27T11:11:57.000Z</time>
      </trkpt>
      <trkpt lat="47.33256" lon="-1.53533">
        <ele>22.5</ele>
        <time>2020-09-27T11:11:58.000Z</time>
      </trkpt>
      <trkpt lat="47.33257" lon="-1.53527">
        <ele>22.6</ele>
        <time>2020-09-27T11:11:59.000Z</time>
      </trkpt>
      <trkpt lat="47.33257" lon="-1.53521">
        <ele>22.7</ele>
        <time>2020-09-27T11:12:00.000Z</time>
      </trkpt>
      <trkpt lat="47.33256" lon="-1.53517">
        <ele>22.7</ele>
        <time>2020-09-27T11:12:01.000Z</time>
      </trkpt>
      <trkpt lat="47.33255" lon="-1.53513">
        <ele>22.8</ele>
        <time>2020-09-27T11:12:02.000Z</time>
      </trkpt>
      <trkpt lat="47.33254" lon="-1.5351">
        <ele>22.8</ele>
        <time>2020-09-27T11:12:03.000Z</time>
      </trkpt>
      <trkpt lat="47.33252" lon="-1.53508">
        <ele>22.9</ele>
        <time>2020-09-27T11:12:04.000Z</time>
      </trkpt>
      <trkpt lat="47.3325" lon="-1.53506">
        <ele>22.9</ele>
        <time>2020-09-27T11:12:05.000Z</time>
      </trkpt>
      <trkpt lat="47.33248" lon="-1.53505">
        <ele>22.9</ele>
        <time>2020-09-27T11:12:06.000Z</time>
      </trkpt>
      <trkpt lat="47.33246" lon="-1.53503">
        <ele>22.9</ele>
        <time>2020-09-27T11:12:07.000Z</time>
      </trkpt>
      <trkpt lat="47.33243" lon="-1.53502">
        <ele>22.8</ele>
        <time>2020-09-27T11:12:08.000Z</time>
      </trkpt>
      <trkpt lat="47.3324" lon="-1.53501">
        <ele>22.8</ele>
        <time>2020-09-27T11:12:09.000Z</time>
      </trkpt>
      <trkpt lat="47.33237" lon="-1.535">
        <ele>22.7</ele>
        <time>2020-09-27T11:12:10.000Z</time>
      </trkpt>
      <trkpt lat="47.33234" lon="-1.53499">
        <ele>22.6</ele>
        <time>2020-09-27T11:12:11.000Z</time>
      </trkpt>
      <trkpt lat="47.33231" lon="-1.53498">
        <ele>22.6</ele>
        <time>2020-09-27T11:12:12.000Z</time>
      </trkpt>
      <trkpt lat="47.33228" lon="-1.53496">
        <ele>22.5</ele>
        <time>2020-09-27T11:12:13.000Z</time>
      </trkpt>
      <trkpt lat="47.33225" lon="-1.53495">
        <ele>22.5</ele>
        <time>2020-09-27T11:12:14.000Z</time>
      </trkpt>
      <trkpt lat="47.33222" lon="-1.53493">
        <ele>22.4</ele>
        <time>2020-09-27T11:12:15.000Z</time>
      </trkpt>
      <trkpt lat="47.33219" lon="-1.53492">
        <ele>22.4</ele>
        <time>2020-09-27T11:12:16.000Z</time>
      </trkpt>
      <trkpt lat="47.33216" lon="-1.5349">
        <ele>22.3</ele>
        <time>2020-09-27T11:12:17.000Z</time>
      </trkpt>
      <trkpt lat="47.33213" lon="-1.53489">
        <ele>22.2</ele>
        <time>2020-09-27T11:12:18.000Z</time>
      </trkpt>
      <trkpt lat="47.33209" lon="-1.53487">
        <ele>22.2</ele>
        <time>2020-09-27T11:12:19.000Z</time>
      </trkpt>
      <trkpt lat="47.33206" lon="-1.53486">
        <ele>22.1</ele>
        <time>2020-09-27T11:12:20.000Z</time>
      </trkpt>
      <trkpt lat="47.33203" lon="-1.53484">
        <ele>22.1</ele>
        <time>2020-09-27T11:12:21.000Z</time>
      </trkpt>
      <trkpt lat="47.332" lon="-1.53483">
        <ele>22</ele>
        <time>2020-09-27T11:12:22.000Z</time>
      </trkpt>
      <trkpt lat="47.33197" lon="-1.53482">
        <ele>21.9</ele>
        <time>2020-09-27T11:12:23.000Z</time>
      </trkpt>
      <trkpt lat="47.33194" lon="-1.53481">
        <ele>21.9</ele>
        <time>2020-09-27T11:12:24.000Z</time>
      </trkpt>
      <trkpt lat="47.33191" lon="-1.5348">
        <ele>21.8</ele>
        <time>2020-09-27T11:12:25.000Z</time>
      </trkpt>
      <trkpt lat="47.33188" lon="-1.53479">
        <ele>21.8</ele>
        <time>2020-09-27T11:12:26.000Z</time>
      </trkpt>
      <trkpt lat="47.33185" lon="-1.53478">
        <ele>21.7</ele>
        <time>2020-09-27T11:12:27.000Z</time>
      </trkpt>
      <trkpt lat="47.33182" lon="-1.53477">
        <ele>21.6</ele>
        <time>2020-09-27T11:12:28.000Z</time>
      </trkpt>
      <trkpt lat="47.3318" lon="-1.53477">
        <ele>21.6</ele>
        <time>2020-09-27T11:12:29.000Z</time>
      </trkpt>
      <trkpt lat="47.33177" lon="-1.53476">
        <ele>21.5</ele>
        <time>2020-09-27T11:12:30.000Z</time>
      </trkpt>
      <trkpt lat="47.33175" lon="-1.53475">
        <ele>21.5</ele>
        <time>2020-09-27T11:12:31.000Z</time>
      </trkpt>
      <trkpt lat="47.33172" lon="-1.53475">
        <ele>21.4</ele>
        <time>2020-09-27T11:12:32.000Z</time>
      </trkpt>
      <trkpt lat="47.3317" lon="-1.53474">
        <ele>21.4</ele>
        <time>2020-09-27T11:12:33.000Z</time>
      </trkpt>
      <trkpt lat="47.33168" lon="-1.53474">
        <ele>21.3</ele>
        <time>2020-09-27T11:12:34.000Z</time>
      </trkpt>
      <trkpt lat="47.33165" lon="-1.53473">
        <ele>21.2</ele>
        <time>2020-09-27T11:12:35.000Z</time>
      </trkpt>
      <trkpt lat="47.33163" lon="-1.53473">
        <ele>21.1</ele>
        <time>2020-09-27T11:12:36.000Z</time>
      </trkpt>
      <trkpt lat="47.3316" lon="-1.53472">
        <ele>21</ele>
        <time>2020-09-27T11:12:37.000Z</time>
      </trkpt>
      <trkpt lat="47.33158" lon="-1.53471">
        <ele>20.8</ele>
        <time>2020-09-27T11:12:38.000Z</time>
      </trkpt>
      <trkpt lat="47.33155" lon="-1.53471">
        <ele>20.7</ele>
        <time>2020-09-27T11:12:39.000Z</time>
      </trkpt>
      <trkpt lat="47.33152" lon="-1.5347">
        <ele>20.6</ele>
        <time>2020-09-27T11:12:40.000Z</time>
      </trkpt>
      <trkpt lat="47.3315" lon="-1.53469">
        <ele>20.4</ele>
        <time>2020-09-27T11:12:41.000Z</time>
      </trkpt>
      <trkpt lat="47.33147" lon="-1.53468">
        <ele>20.3</ele>
        <time>2020-09-27T11:12:42.000Z</time>
      </trkpt>
      <trkpt lat="47.33145" lon="-1.53467">
        <ele>20.2</ele>
        <time>2020-09-27T11:12:43.000Z</time>
      </trkpt>
      <trkpt lat="47.33143" lon="-1.53467">
        <ele>20</ele>
        <time>2020-09-27T11:12:44.000Z</time>
      </trkpt>
      <trkpt lat="47.33141" lon="-1.53466">
        <ele>19.9</ele>
        <time>2020-09-27T11:12:45.000Z</time>
      </trkpt>
      <trkpt lat="47.33139" lon="-1.53466">
        <ele>19.8</ele>
        <time>2020-09-27T11:12:46.000Z</time>
      </trkpt>
      <trkpt lat="47.33137" lon="-1.53465">
        <ele>19.7</ele>
        <time>2020-09-27T11:12:47.000Z</time>
      </trkpt>
      <trkpt lat="47.33135" lon="-1.53465">
        <ele>19.6</ele>
        <time>2020-09-27T11:12:48.000Z</time>
      </trkpt>
      <trkpt lat="47.33133" lon="-1.53464">
        <ele>19.5</ele>
        <time>2020-09-27T11:12:49.000Z</time>
      </trkpt>
      <trkpt lat="47.33131" lon="-1.53464">
        <ele>19.4</ele>
        <time>2020-09-27T11:12:50.000Z</time>
      </trkpt>
      <trkpt lat="47.3313" lon="-1.53464">
        <ele>19.3</ele>
        <time>2020-09-27T11:12:51.000Z</time>
      </trkpt>
      <trkpt lat="47.33128" lon="-1.53464">
        <ele>19.2</ele>
        <time>2020-09-27T11:12:52.000Z</time>
      </trkpt>
      <trkpt lat="47.33126" lon="-1.53464">
        <ele>19.1</ele>
        <time>2020-09-27T11:12:53.000Z</time>
      </trkpt>
      <trkpt lat="47.33124" lon="-1.53464">
        <ele>18.9</ele>
        <time>2020-09-27T11:12:54.000Z</time>
      </trkpt>
      <trkpt lat="47.33122" lon="-1.53464">
        <ele>18.8</ele>
        <time>2020-09-27T11:12:55.000Z</time>
      </trkpt>
      <trkpt lat="47.3312" lon="-1.53464">
        <ele>18.7</ele>
        <time>2020-09-27T11:12:56.000Z</time>
      </trkpt>
      <trkpt lat="47.33118" lon="-1.53464">
        <ele>18.6</ele>
        <time>2020-09-27T11:12:57.000Z</time>
      </trkpt>
      <trkpt lat="47.33116" lon="-1.53464">
        <ele>18.5</ele>
        <time>2020-09-27T11:12:58.000Z</time>
      </trkpt>
      <trkpt lat="47.33114" lon="-1.53464">
        <ele>18.4</ele>
        <time>2020-09-27T11:12:59.000Z</time>
      </trkpt>
      <trkpt lat="47.33112" lon="-1.53465">
        <ele>18.2</ele>
        <time>2020-09-27T11:13:00.000Z</time>
      </trkpt>
      <trkpt lat="47.3311" lon="-1.53465">
        <ele>18.1</ele>
        <time>2020-09-27T11:13:01.000Z</time>
      </trkpt>
      <trkpt lat="47.33108" lon="-1.53465">
        <ele>18</ele>
        <time>2020-09-27T11:13:02.000Z</time>
      </trkpt>
      <trkpt lat="47.33106" lon="-1.53465">
        <ele>17.9</ele>
        <time>2020-09-27T11:13:03.000Z</time>
      </trkpt>
      <trkpt lat="47.33104" lon="-1.53465">
        <ele>17.8</ele>
        <time>2020-09-27T11:13:04.000Z</time>
      </trkpt>
      <trkpt lat="47.33101" lon="-1.53466">
        <ele>17.6</ele>
        <time>2020-09-27T11:13:05.000Z</time>
      </trkpt>
      <trkpt lat="47.33099" lon="-1.53466">
        <ele>17.5</ele>
        <time>2020-09-27T11:13:06.000Z</time>
      </trkpt>
      <trkpt lat="47.33097" lon="-1.53466">
        <ele>17.4</ele>
        <time>2020-09-27T11:13:07.000Z</time>
      </trkpt>
      <trkpt lat="47.33095" lon="-1.53467">
        <ele>17.3</ele>
        <time>2020-09-27T11:13:08.000Z</time>
      </trkpt>
      <trkpt lat="47.33093" lon="-1.53467">
        <ele>17.2</ele>
        <time>2020-09-27T11:13:09.000Z</time>
      </trkpt>
      <trkpt lat="47.33091" lon="-1.53467">
        <ele>17.1</ele>
        <time>2020-09-27T11:13:10.000Z</time>
      </trkpt>
      <trkpt lat="47.33089" lon="-1.53467">
        <ele>17</ele>
        <time>2020-09-27T11:13:11.000Z</time>
      </trkpt>
      <trkpt lat="47.33087" lon="-1.53468">
        <ele>16.8</ele>
        <time>2020-09-27T11:13:12.000Z</time>
      </trkpt>
      <trkpt lat="47.33086" lon="-1.53468">
        <ele>16.7</ele>
        <time>2020-09-27T11:13:13.000Z</time>
      </trkpt>
      <trkpt lat="47.33084" lon="-1.53468">
        <ele>16.6</ele>
        <time>2020-09-27T11:13:14.000Z</time>
      </trkpt>
      <trkpt lat="47.33082" lon="-1.53468">
        <ele>16.5</ele>
        <time>2020-09-27T11:13:15.000Z</time>
      </trkpt>
      <trkpt lat="47.3308" lon="-1.53468">
        <ele>16.4</ele>
        <time>2020-09-27T11:13:16.000Z</time>
      </trkpt>
      <trkpt lat="47.33079" lon="-1.53468">
        <ele>16.4</ele>
        <time>2020-09-27T11:13:17.000Z</time>
      </trkpt>
      <trkpt lat="47.33078" lon="-1.53468">
        <ele>16.3</ele>
        <time>2020-09-27T11:13:18.000Z</time>
      </trkpt>
      <trkpt lat="47.33077" lon="-1.53468">
        <ele>16.3</ele>
        <time>2020-09-27T11:13:19.000Z</time>
      </trkpt>
      <trkpt lat="47.33076" lon="-1.53468">
        <ele>16.2</ele>
        <time>2020-09-27T11:13:20.000Z</time>
      </trkpt>
      <trkpt lat="47.33074" lon="-1.53468">
        <ele>16.1</ele>
        <time>2020-09-27T11:13:21.000Z</time>
      </trkpt>
      <trkpt lat="47.33073" lon="-1.53469">
        <ele>16</ele>
        <time>2020-09-27T11:13:22.000Z</time>
      </trkpt>
      <trkpt lat="47.33071" lon="-1.53469">
        <ele>15.9</ele>
        <time>2020-09-27T11:13:23.000Z</time>
      </trkpt>
      <trkpt lat="47.33069" lon="-1.5347">
        <ele>15.8</ele>
        <time>2020-09-27T11:13:24.000Z</time>
      </trkpt>
      <trkpt lat="47.33067" lon="-1.5347">
        <ele>15.7</ele>
        <time>2020-09-27T11:13:25.000Z</time>
      </trkpt>
      <trkpt lat="47.33064" lon="-1.53471">
        <ele>15.6</ele>
        <time>2020-09-27T11:13:26.000Z</time>
      </trkpt>
      <trkpt lat="47.33062" lon="-1.53472">
        <ele>15.5</ele>
        <time>2020-09-27T11:13:27.000Z</time>
      </trkpt>
      <trkpt lat="47.3306" lon="-1.53473">
        <ele>15.4</ele>
        <time>2020-09-27T11:13:28.000Z</time>
      </trkpt>
      <trkpt lat="47.33058" lon="-1.53474">
        <ele>15.3</ele>
        <time>2020-09-27T11:13:29.000Z</time>
      </trkpt>
      <trkpt lat="47.33056" lon="-1.53474">
        <ele>15.2</ele>
        <time>2020-09-27T11:13:30.000Z</time>
      </trkpt>
      <trkpt lat="47.33054" lon="-1.53475">
        <ele>15.1</ele>
        <time>2020-09-27T11:13:31.000Z</time>
      </trkpt>
      <trkpt lat="47.33053" lon="-1.53476">
        <ele>15</ele>
        <time>2020-09-27T11:13:32.000Z</time>
      </trkpt>
      <trkpt lat="47.33051" lon="-1.53477">
        <ele>14.9</ele>
        <time>2020-09-27T11:13:33.000Z</time>
      </trkpt>
      <trkpt lat="47.33049" lon="-1.53477">
        <ele>14.8</ele>
        <time>2020-09-27T11:13:34.000Z</time>
      </trkpt>
      <trkpt lat="47.33048" lon="-1.53478">
        <ele>14.7</ele>
        <time>2020-09-27T11:13:35.000Z</time>
      </trkpt>
      <trkpt lat="47.33046" lon="-1.53478">
        <ele>14.6</ele>
        <time>2020-09-27T11:13:36.000Z</time>
      </trkpt>
      <trkpt lat="47.33044" lon="-1.53478">
        <ele>14.5</ele>
        <time>2020-09-27T11:13:37.000Z</time>
      </trkpt>
      <trkpt lat="47.33042" lon="-1.53479">
        <ele>14.4</ele>
        <time>2020-09-27T11:13:38.000Z</time>
      </trkpt>
      <trkpt lat="47.3304" lon="-1.53479">
        <ele>14.3</ele>
        <time>2020-09-27T11:13:39.000Z</time>
      </trkpt>
      <trkpt lat="47.33037" lon="-1.53479">
        <ele>14.1</ele>
        <time>2020-09-27T11:13:40.000Z</time>
      </trkpt>
      <trkpt lat="47.33035" lon="-1.5348">
        <ele>14</ele>
        <time>2020-09-27T11:13:41.000Z</time>
      </trkpt>
      <trkpt lat="47.33032" lon="-1.5348">
        <ele>13.9</ele>
        <time>2020-09-27T11:13:42.000Z</time>
      </trkpt>
      <trkpt lat="47.3303" lon="-1.53481">
        <ele>13.7</ele>
        <time>2020-09-27T11:13:43.000Z</time>
      </trkpt>
      <trkpt lat="47.33027" lon="-1.53481">
        <ele>13.6</ele>
        <time>2020-09-27T11:13:44.000Z</time>
      </trkpt>
      <trkpt lat="47.33025" lon="-1.53482">
        <ele>13.4</ele>
        <time>2020-09-27T11:13:45.000Z</time>
      </trkpt>
      <trkpt lat="47.33022" lon="-1.53484">
        <ele>13.3</ele>
        <time>2020-09-27T11:13:46.000Z</time>
      </trkpt>
      <trkpt lat="47.3302" lon="-1.53485">
        <ele>13.1</ele>
        <time>2020-09-27T11:13:47.000Z</time>
      </trkpt>
      <trkpt lat="47.33017" lon="-1.53487">
        <ele>13</ele>
        <time>2020-09-27T11:13:48.000Z</time>
      </trkpt>
      <trkpt lat="47.33015" lon="-1.53489">
        <ele>12.9</ele>
        <time>2020-09-27T11:13:49.000Z</time>
      </trkpt>
      <trkpt lat="47.33013" lon="-1.53491">
        <ele>12.7</ele>
        <time>2020-09-27T11:13:50.000Z</time>
      </trkpt>
      <trkpt lat="47.3301" lon="-1.53494">
        <ele>12.6</ele>
        <time>2020-09-27T11:13:51.000Z</time>
      </trkpt>
      <trkpt lat="47.33008" lon="-1.53496">
        <ele>12.5</ele>
        <time>2020-09-27T11:13:52.000Z</time>
      </trkpt>
      <trkpt lat="47.33006" lon="-1.53498">
        <ele>12.3</ele>
        <time>2020-09-27T11:13:53.000Z</time>
      </trkpt>
      <trkpt lat="47.33004" lon="-1.535">
        <ele>12.2</ele>
        <time>2020-09-27T11:13:54.000Z</time>
      </trkpt>
      <trkpt lat="47.33002" lon="-1.53502">
        <ele>12.1</ele>
        <time>2020-09-27T11:13:55.000Z</time>
      </trkpt>
      <trkpt lat="47.32999" lon="-1.53505">
        <ele>12</ele>
        <time>2020-09-27T11:13:56.000Z</time>
      </trkpt>
      <trkpt lat="47.32997" lon="-1.53507">
        <ele>12</ele>
        <time>2020-09-27T11:13:57.000Z</time>
      </trkpt>
      <trkpt lat="47.32995" lon="-1.53508">
        <ele>12.1</ele>
        <time>2020-09-27T11:13:58.000Z</time>
      </trkpt>
      <trkpt lat="47.32993" lon="-1.5351">
        <ele>12.1</ele>
        <time>2020-09-27T11:13:59.000Z</time>
      </trkpt>
      <trkpt lat="47.32991" lon="-1.53512">
        <ele>12.1</ele>
        <time>2020-09-27T11:14:00.000Z</time>
      </trkpt>
      <trkpt lat="47.32989" lon="-1.53514">
        <ele>12.1</ele>
        <time>2020-09-27T11:14:01.000Z</time>
      </trkpt>
      <trkpt lat="47.32988" lon="-1.53515">
        <ele>12.1</ele>
        <time>2020-09-27T11:14:02.000Z</time>
      </trkpt>
      <trkpt lat="47.32986" lon="-1.53517">
        <ele>12.2</ele>
        <time>2020-09-27T11:14:03.000Z</time>
      </trkpt>
      <trkpt lat="47.32985" lon="-1.53518">
        <ele>12.2</ele>
        <time>2020-09-27T11:14:04.000Z</time>
      </trkpt>
      <trkpt lat="47.32985" lon="-1.53518">
        <ele>12.2</ele>
        <time>2020-09-27T11:14:05.000Z</time>
      </trkpt>
      <trkpt lat="47.32985" lon="-1.53518">
        <ele>12.2</ele>
        <time>2020-09-27T11:14:06.000Z</time>
      </trkpt>
      <trkpt lat="47.32984" lon="-1.53518">
        <ele>12.2</ele>
        <time>2020-09-27T11:14:07.000Z</time>
      </trkpt>
      <trkpt lat="47.32985" lon="-1.53518">
        <ele>12.2</ele>
        <time>2020-09-27T11:14:08.000Z</time>
      </trkpt>
      <trkpt lat="47.32985" lon="-1.53518">
        <ele>12.2</ele>
        <time>2020-09-27T11:14:09.000Z</time>
      </trkpt>
      <trkpt lat="47.32985" lon="-1.53518">
        <ele>12.2</ele>
        <time>2020-09-27T11:14:10.000Z</time>
      </trkpt>
      <trkpt lat="47.32985" lon="-1.53518">
        <ele>12.2</ele>
        <time>2020-09-27T11:14:11.000Z</time>
      </trkpt>
      <trkpt lat="47.32985" lon="-1.53518">
        <ele>12.2</ele>
        <time>2020-09-27T11:14:12.000Z</time>
      </trkpt>
      <trkpt lat="47.32984" lon="-1.53518">
        <ele>12.2</ele>
        <time>2020-09-27T11:14:13.000Z</time>
      </trkpt>
      <trkpt lat="47.32984" lon="-1.53519">
        <ele>12.2</ele>
        <time>2020-09-27T11:14:14.000Z</time>
      </trkpt>
      <trkpt lat="47.32983" lon="-1.53519">
        <ele>12.2</ele>
        <time>2020-09-27T11:14:15.000Z</time>
      </trkpt>
      <trkpt lat="47.32982" lon="-1.5352">
        <ele>12.2</ele>
        <time>2020-09-27T11:14:16.000Z</time>
      </trkpt>
      <trkpt lat="47.3298" lon="-1.53521">
        <ele>12.2</ele>
        <time>2020-09-27T11:14:17.000Z</time>
      </trkpt>
      <trkpt lat="47.32978" lon="-1.53522">
        <ele>12.3</ele>
        <time>2020-09-27T11:14:18.000Z</time>
      </trkpt>
      <trkpt lat="47.32976" lon="-1.53523">
        <ele>12.3</ele>
        <time>2020-09-27T11:14:19.000Z</time>
      </trkpt>
      <trkpt lat="47.32974" lon="-1.53523">
        <ele>12.3</ele>
        <time>2020-09-27T11:14:20.000Z</time>
      </trkpt>
      <trkpt lat="47.32972" lon="-1.53524">
        <ele>12.3</ele>
        <time>2020-09-27T11:14:21.000Z</time>
      </trkpt>
      <trkpt lat="47.3297" lon="-1.53524">
        <ele>12.4</ele>
        <time>2020-09-27T11:14:22.000Z</time>
      </trkpt>
      <trkpt lat="47.32968" lon="-1.53525">
        <ele>12.4</ele>
        <time>2020-09-27T11:14:23.000Z</time>
      </trkpt>
      <trkpt lat="47.32966" lon="-1.53525">
        <ele>12.4</ele>
        <time>2020-09-27T11:14:24.000Z</time>
      </trkpt>
      <trkpt lat="47.32964" lon="-1.53526">
        <ele>12.4</ele>
        <time>2020-09-27T11:14:25.000Z</time>
      </trkpt>
      <trkpt lat="47.32961" lon="-1.53526">
        <ele>12.5</ele>
        <time>2020-09-27T11:14:26.000Z</time>
      </trkpt>
      <trkpt lat="47.32959" lon="-1.53527">
        <ele>12.5</ele>
        <time>2020-09-27T11:14:27.000Z</time>
      </trkpt>
      <trkpt lat="47.32956" lon="-1.53528">
        <ele>12.5</ele>
        <time>2020-09-27T11:14:28.000Z</time>
      </trkpt>
      <trkpt lat="47.32953" lon="-1.53529">
        <ele>12.6</ele>
        <time>2020-09-27T11:14:29.000Z</time>
      </trkpt>
      <trkpt lat="47.3295" lon="-1.5353">
        <ele>12.6</ele>
        <time>2020-09-27T11:14:30.000Z</time>
      </trkpt>
      <trkpt lat="47.32948" lon="-1.53531">
        <ele>12.6</ele>
        <time>2020-09-27T11:14:31.000Z</time>
      </trkpt>
      <trkpt lat="47.32945" lon="-1.53532">
        <ele>12.7</ele>
        <time>2020-09-27T11:14:32.000Z</time>
      </trkpt>
      <trkpt lat="47.32942" lon="-1.53533">
        <ele>12.7</ele>
        <time>2020-09-27T11:14:33.000Z</time>
      </trkpt>
      <trkpt lat="47.3294" lon="-1.53534">
        <ele>12.7</ele>
        <time>2020-09-27T11:14:34.000Z</time>
      </trkpt>
      <trkpt lat="47.32937" lon="-1.53535">
        <ele>12.8</ele>
        <time>2020-09-27T11:14:35.000Z</time>
      </trkpt>
      <trkpt lat="47.32935" lon="-1.53537">
        <ele>12.8</ele>
        <time>2020-09-27T11:14:36.000Z</time>
      </trkpt>
      <trkpt lat="47.32932" lon="-1.53538">
        <ele>12.8</ele>
        <time>2020-09-27T11:14:37.000Z</time>
      </trkpt>
      <trkpt lat="47.32929" lon="-1.53539">
        <ele>12.8</ele>
        <time>2020-09-27T11:14:38.000Z</time>
      </trkpt>
      <trkpt lat="47.32927" lon="-1.5354">
        <ele>12.9</ele>
        <time>2020-09-27T11:14:39.000Z</time>
      </trkpt>
      <trkpt lat="47.32925" lon="-1.53541">
        <ele>12.9</ele>
        <time>2020-09-27T11:14:40.000Z</time>
      </trkpt>
      <trkpt lat="47.32922" lon="-1.53542">
        <ele>12.9</ele>
        <time>2020-09-27T11:14:41.000Z</time>
      </trkpt>
      <trkpt lat="47.3292" lon="-1.53543">
        <ele>13</ele>
        <time>2020-09-27T11:14:42.000Z</time>
      </trkpt>
      <trkpt lat="47.32918" lon="-1.53544">
        <ele>13</ele>
        <time>2020-09-27T11:14:43.000Z</time>
      </trkpt>
      <trkpt lat="47.32915" lon="-1.53546">
        <ele>13</ele>
        <time>2020-09-27T11:14:44.000Z</time>
      </trkpt>
      <trkpt lat="47.32913" lon="-1.53547">
        <ele>13.1</ele>
        <time>2020-09-27T11:14:45.000Z</time>
      </trkpt>
      <trkpt lat="47.3291" lon="-1.53548">
        <ele>13.2</ele>
        <time>2020-09-27T11:14:46.000Z</time>
      </trkpt>
      <trkpt lat="47.32908" lon="-1.53549">
        <ele>13.3</ele>
        <time>2020-09-27T11:14:47.000Z</time>
      </trkpt>
      <trkpt lat="47.32905" lon="-1.53551">
        <ele>13.4</ele>
        <time>2020-09-27T11:14:48.000Z</time>
      </trkpt>
      <trkpt lat="47.32902" lon="-1.53553">
        <ele>13.5</ele>
        <time>2020-09-27T11:14:49.000Z</time>
      </trkpt>
      <trkpt lat="47.32899" lon="-1.53554">
        <ele>13.6</ele>
        <time>2020-09-27T11:14:50.000Z</time>
      </trkpt>
      <trkpt lat="47.32896" lon="-1.53556">
        <ele>13.7</ele>
        <time>2020-09-27T11:14:51.000Z</time>
      </trkpt>
      <trkpt lat="47.32893" lon="-1.53558">
        <ele>13.8</ele>
        <time>2020-09-27T11:14:52.000Z</time>
      </trkpt>
      <trkpt lat="47.3289" lon="-1.5356">
        <ele>13.9</ele>
        <time>2020-09-27T11:14:53.000Z</time>
      </trkpt>
      <trkpt lat="47.32887" lon="-1.53562">
        <ele>14</ele>
        <time>2020-09-27T11:14:54.000Z</time>
      </trkpt>
      <trkpt lat="47.32885" lon="-1.53564">
        <ele>14.1</ele>
        <time>2020-09-27T11:14:55.000Z</time>
      </trkpt>
      <trkpt lat="47.32882" lon="-1.53566">
        <ele>14.2</ele>
        <time>2020-09-27T11:14:56.000Z</time>
      </trkpt>
      <trkpt lat="47.32879" lon="-1.53568">
        <ele>14.3</ele>
        <time>2020-09-27T11:14:57.000Z</time>
      </trkpt>
      <trkpt lat="47.32877" lon="-1.5357">
        <ele>14.4</ele>
        <time>2020-09-27T11:14:58.000Z</time>
      </trkpt>
      <trkpt lat="47.32874" lon="-1.53572">
        <ele>14.5</ele>
        <time>2020-09-27T11:14:59.000Z</time>
      </trkpt>
      <trkpt lat="47.32871" lon="-1.53574">
        <ele>14.6</ele>
        <time>2020-09-27T11:15:00.000Z</time>
      </trkpt>
      <trkpt lat="47.32869" lon="-1.53576">
        <ele>14.7</ele>
        <time>2020-09-27T11:15:01.000Z</time>
      </trkpt>
      <trkpt lat="47.32866" lon="-1.53578">
        <ele>14.8</ele>
        <time>2020-09-27T11:15:02.000Z</time>
      </trkpt>
      <trkpt lat="47.32863" lon="-1.5358">
        <ele>14.9</ele>
        <time>2020-09-27T11:15:03.000Z</time>
      </trkpt>
      <trkpt lat="47.32861" lon="-1.53582">
        <ele>15</ele>
        <time>2020-09-27T11:15:04.000Z</time>
      </trkpt>
      <trkpt lat="47.32858" lon="-1.53584">
        <ele>15.1</ele>
        <time>2020-09-27T11:15:05.000Z</time>
      </trkpt>
      <trkpt lat="47.32856" lon="-1.53586">
        <ele>15.2</ele>
        <time>2020-09-27T11:15:06.000Z</time>
      </trkpt>
      <trkpt lat="47.32853" lon="-1.53588">
        <ele>15.4</ele>
        <time>2020-09-27T11:15:07.000Z</time>
      </trkpt>
      <trkpt lat="47.3285" lon="-1.5359">
        <ele>15.5</ele>
        <time>2020-09-27T11:15:08.000Z</time>
      </trkpt>
      <trkpt lat="47.32848" lon="-1.53592">
        <ele>15.6</ele>
        <time>2020-09-27T11:15:09.000Z</time>
      </trkpt>
      <trkpt lat="47.32845" lon="-1.53595">
        <ele>15.7</ele>
        <time>2020-09-27T11:15:10.000Z</time>
      </trkpt>
      <trkpt lat="47.32843" lon="-1.53597">
        <ele>15.8</ele>
        <time>2020-09-27T11:15:11.000Z</time>
      </trkpt>
      <trkpt lat="47.3284" lon="-1.536">
        <ele>16</ele>
        <time>2020-09-27T11:15:12.000Z</time>
      </trkpt>
      <trkpt lat="47.32838" lon="-1.53603">
        <ele>16.1</ele>
        <time>2020-09-27T11:15:13.000Z</time>
      </trkpt>
      <trkpt lat="47.32835" lon="-1.53606">
        <ele>16.2</ele>
        <time>2020-09-27T11:15:14.000Z</time>
      </trkpt>
      <trkpt lat="47.32833" lon="-1.5361">
        <ele>16.3</ele>
        <time>2020-09-27T11:15:15.000Z</time>
      </trkpt>
      <trkpt lat="47.32831" lon="-1.53614">
        <ele>16.5</ele>
        <time>2020-09-27T11:15:16.000Z</time>
      </trkpt>
      <trkpt lat="47.32831" lon="-1.53618">
        <ele>16.6</ele>
        <time>2020-09-27T11:15:17.000Z</time>
      </trkpt>
      <trkpt lat="47.32831" lon="-1.53623">
        <ele>16.6</ele>
        <time>2020-09-27T11:15:18.000Z</time>
      </trkpt>
      <trkpt lat="47.32832" lon="-1.53629">
        <ele>16.6</ele>
        <time>2020-09-27T11:15:19.000Z</time>
      </trkpt>
      <trkpt lat="47.32834" lon="-1.53634">
        <ele>16.6</ele>
        <time>2020-09-27T11:15:20.000Z</time>
      </trkpt>
      <trkpt lat="47.32837" lon="-1.53639">
        <ele>16.5</ele>
        <time>2020-09-27T11:15:21.000Z</time>
      </trkpt>
      <trkpt lat="47.32839" lon="-1.53643">
        <ele>16.5</ele>
        <time>2020-09-27T11:15:22.000Z</time>
      </trkpt>
      <trkpt lat="47.32841" lon="-1.53646">
        <ele>16.5</ele>
        <time>2020-09-27T11:15:23.000Z</time>
      </trkpt>
      <trkpt lat="47.32844" lon="-1.5365">
        <ele>16.4</ele>
        <time>2020-09-27T11:15:24.000Z</time>
      </trkpt>
      <trkpt lat="47.32846" lon="-1.53653">
        <ele>16.4</ele>
        <time>2020-09-27T11:15:25.000Z</time>
      </trkpt>
      <trkpt lat="47.32848" lon="-1.53656">
        <ele>16.3</ele>
        <time>2020-09-27T11:15:26.000Z</time>
      </trkpt>
      <trkpt lat="47.3285" lon="-1.53659">
        <ele>16.3</ele>
        <time>2020-09-27T11:15:27.000Z</time>
      </trkpt>
      <trkpt lat="47.32851" lon="-1.53662">
        <ele>16.3</ele>
        <time>2020-09-27T11:15:28.000Z</time>
      </trkpt>
      <trkpt lat="47.32852" lon="-1.53665">
        <ele>16.3</ele>
        <time>2020-09-27T11:15:29.000Z</time>
      </trkpt>
      <trkpt lat="47.32853" lon="-1.53668">
        <ele>16.3</ele>
        <time>2020-09-27T11:15:30.000Z</time>
      </trkpt>
      <trkpt lat="47.32852" lon="-1.5367">
        <ele>16.4</ele>
        <time>2020-09-27T11:15:31.000Z</time>
      </trkpt>
      <trkpt lat="47.32851" lon="-1.53672">
        <ele>16.4</ele>
        <time>2020-09-27T11:15:32.000Z</time>
      </trkpt>
      <trkpt lat="47.32849" lon="-1.53673">
        <ele>16.5</ele>
        <time>2020-09-27T11:15:33.000Z</time>
      </trkpt>
      <trkpt lat="47.32847" lon="-1.53674">
        <ele>16.6</ele>
        <time>2020-09-27T11:15:34.000Z</time>
      </trkpt>
      <trkpt lat="47.32843" lon="-1.53674">
        <ele>16.7</ele>
        <time>2020-09-27T11:15:35.000Z</time>
      </trkpt>
      <trkpt lat="47.3284" lon="-1.53674">
        <ele>16.8</ele>
        <time>2020-09-27T11:15:36.000Z</time>
      </trkpt>
      <trkpt lat="47.32837" lon="-1.53675">
        <ele>17</ele>
        <time>2020-09-27T11:15:37.000Z</time>
      </trkpt>
      <trkpt lat="47.32834" lon="-1.53675">
        <ele>17.1</ele>
        <time>2020-09-27T11:15:38.000Z</time>
      </trkpt>
      <trkpt lat="47.3283" lon="-1.53676">
        <ele>17.2</ele>
        <time>2020-09-27T11:15:39.000Z</time>
      </trkpt>
      <trkpt lat="47.32827" lon="-1.53676">
        <ele>17.3</ele>
        <time>2020-09-27T11:15:40.000Z</time>
      </trkpt>
      <trkpt lat="47.32824" lon="-1.53677">
        <ele>17.5</ele>
        <time>2020-09-27T11:15:41.000Z</time>
      </trkpt>
      <trkpt lat="47.32821" lon="-1.53677">
        <ele>17.6</ele>
        <time>2020-09-27T11:15:42.000Z</time>
      </trkpt>
      <trkpt lat="47.32818" lon="-1.53678">
        <ele>17.7</ele>
        <time>2020-09-27T11:15:43.000Z</time>
      </trkpt>
      <trkpt lat="47.32814" lon="-1.53679">
        <ele>17.9</ele>
        <time>2020-09-27T11:15:44.000Z</time>
      </trkpt>
      <trkpt lat="47.32811" lon="-1.53679">
        <ele>18</ele>
        <time>2020-09-27T11:15:45.000Z</time>
      </trkpt>
      <trkpt lat="47.32808" lon="-1.5368">
        <ele>18.1</ele>
        <time>2020-09-27T11:15:46.000Z</time>
      </trkpt>
      <trkpt lat="47.32805" lon="-1.53681">
        <ele>18.2</ele>
        <time>2020-09-27T11:15:47.000Z</time>
      </trkpt>
      <trkpt lat="47.32802" lon="-1.53681">
        <ele>18.4</ele>
        <time>2020-09-27T11:15:48.000Z</time>
      </trkpt>
      <trkpt lat="47.32799" lon="-1.53682">
        <ele>18.5</ele>
        <time>2020-09-27T11:15:49.000Z</time>
      </trkpt>
      <trkpt lat="47.32796" lon="-1.53682">
        <ele>18.6</ele>
        <time>2020-09-27T11:15:50.000Z</time>
      </trkpt>
      <trkpt lat="47.32793" lon="-1.53683">
        <ele>18.7</ele>
        <time>2020-09-27T11:15:51.000Z</time>
      </trkpt>
      <trkpt lat="47.3279" lon="-1.53683">
        <ele>18.9</ele>
        <time>2020-09-27T11:15:52.000Z</time>
      </trkpt>
      <trkpt lat="47.32787" lon="-1.53684">
        <ele>19</ele>
        <time>2020-09-27T11:15:53.000Z</time>
      </trkpt>
      <trkpt lat="47.32783" lon="-1.53684">
        <ele>19.1</ele>
        <time>2020-09-27T11:15:54.000Z</time>
      </trkpt>
      <trkpt lat="47.3278" lon="-1.53684">
        <ele>19.3</ele>
        <time>2020-09-27T11:15:55.000Z</time>
      </trkpt>
      <trkpt lat="47.32777" lon="-1.53685">
        <ele>19.4</ele>
        <time>2020-09-27T11:15:56.000Z</time>
      </trkpt>
      <trkpt lat="47.32773" lon="-1.53686">
        <ele>19.6</ele>
        <time>2020-09-27T11:15:57.000Z</time>
      </trkpt>
      <trkpt lat="47.3277" lon="-1.53686">
        <ele>19.7</ele>
        <time>2020-09-27T11:15:58.000Z</time>
      </trkpt>
      <trkpt lat="47.32766" lon="-1.53687">
        <ele>19.8</ele>
        <time>2020-09-27T11:15:59.000Z</time>
      </trkpt>
      <trkpt lat="47.32763" lon="-1.53687">
        <ele>20</ele>
        <time>2020-09-27T11:16:00.000Z</time>
      </trkpt>
      <trkpt lat="47.32759" lon="-1.53688">
        <ele>20.2</ele>
        <time>2020-09-27T11:16:01.000Z</time>
      </trkpt>
      <trkpt lat="47.32755" lon="-1.53689">
        <ele>20.3</ele>
        <time>2020-09-27T11:16:02.000Z</time>
      </trkpt>
      <trkpt lat="47.32752" lon="-1.5369">
        <ele>20.5</ele>
        <time>2020-09-27T11:16:03.000Z</time>
      </trkpt>
      <trkpt lat="47.32749" lon="-1.53691">
        <ele>20.7</ele>
        <time>2020-09-27T11:16:04.000Z</time>
      </trkpt>
      <trkpt lat="47.32745" lon="-1.53692">
        <ele>20.9</ele>
        <time>2020-09-27T11:16:05.000Z</time>
      </trkpt>
      <trkpt lat="47.32742" lon="-1.53693">
        <ele>21.1</ele>
        <time>2020-09-27T11:16:06.000Z</time>
      </trkpt>
      <trkpt lat="47.32739" lon="-1.53694">
        <ele>21.3</ele>
        <time>2020-09-27T11:16:07.000Z</time>
      </trkpt>
      <trkpt lat="47.32737" lon="-1.53695">
        <ele>21.4</ele>
        <time>2020-09-27T11:16:08.000Z</time>
      </trkpt>
      <trkpt lat="47.32734" lon="-1.53696">
        <ele>21.6</ele>
        <time>2020-09-27T11:16:09.000Z</time>
      </trkpt>
      <trkpt lat="47.32731" lon="-1.53697">
        <ele>21.8</ele>
        <time>2020-09-27T11:16:10.000Z</time>
      </trkpt>
      <trkpt lat="47.32728" lon="-1.53698">
        <ele>22</ele>
        <time>2020-09-27T11:16:11.000Z</time>
      </trkpt>
      <trkpt lat="47.32725" lon="-1.53698">
        <ele>22.2</ele>
        <time>2020-09-27T11:16:12.000Z</time>
      </trkpt>
      <trkpt lat="47.32722" lon="-1.53698">
        <ele>22.3</ele>
        <time>2020-09-27T11:16:13.000Z</time>
      </trkpt>
      <trkpt lat="47.32719" lon="-1.53699">
        <ele>22.5</ele>
        <time>2020-09-27T11:16:14.000Z</time>
      </trkpt>
      <trkpt lat="47.32716" lon="-1.53699">
        <ele>22.7</ele>
        <time>2020-09-27T11:16:15.000Z</time>
      </trkpt>
      <trkpt lat="47.32713" lon="-1.53699">
        <ele>22.8</ele>
        <time>2020-09-27T11:16:16.000Z</time>
      </trkpt>
      <trkpt lat="47.3271" lon="-1.53699">
        <ele>23</ele>
        <time>2020-09-27T11:16:17.000Z</time>
      </trkpt>
      <trkpt lat="47.32707" lon="-1.53699">
        <ele>23.2</ele>
        <time>2020-09-27T11:16:18.000Z</time>
      </trkpt>
      <trkpt lat="47.32704" lon="-1.53699">
        <ele>23.3</ele>
        <time>2020-09-27T11:16:19.000Z</time>
      </trkpt>
      <trkpt lat="47.32701" lon="-1.53698">
        <ele>23.5</ele>
        <time>2020-09-27T11:16:20.000Z</time>
      </trkpt>
      <trkpt lat="47.32699" lon="-1.53698">
        <ele>23.6</ele>
        <time>2020-09-27T11:16:21.000Z</time>
      </trkpt>
      <trkpt lat="47.32696" lon="-1.53698">
        <ele>23.8</ele>
        <time>2020-09-27T11:16:22.000Z</time>
      </trkpt>
      <trkpt lat="47.32693" lon="-1.53698">
        <ele>23.9</ele>
        <time>2020-09-27T11:16:23.000Z</time>
      </trkpt>
      <trkpt lat="47.32691" lon="-1.53697">
        <ele>24</ele>
        <time>2020-09-27T11:16:24.000Z</time>
      </trkpt>
      <trkpt lat="47.32688" lon="-1.53697">
        <ele>24.2</ele>
        <time>2020-09-27T11:16:25.000Z</time>
      </trkpt>
      <trkpt lat="47.32686" lon="-1.53697">
        <ele>24.3</ele>
        <time>2020-09-27T11:16:26.000Z</time>
      </trkpt>
      <trkpt lat="47.32683" lon="-1.53696">
        <ele>24.4</ele>
        <time>2020-09-27T11:16:27.000Z</time>
      </trkpt>
      <trkpt lat="47.32681" lon="-1.53696">
        <ele>24.6</ele>
        <time>2020-09-27T11:16:28.000Z</time>
      </trkpt>
      <trkpt lat="47.32678" lon="-1.53696">
        <ele>24.7</ele>
        <time>2020-09-27T11:16:29.000Z</time>
      </trkpt>
      <trkpt lat="47.32676" lon="-1.53696">
        <ele>24.8</ele>
        <time>2020-09-27T11:16:30.000Z</time>
      </trkpt>
      <trkpt lat="47.32674" lon="-1.53696">
        <ele>25</ele>
        <time>2020-09-27T11:16:31.000Z</time>
      </trkpt>
      <trkpt lat="47.32672" lon="-1.53696">
        <ele>25.1</ele>
        <time>2020-09-27T11:16:32.000Z</time>
      </trkpt>
      <trkpt lat="47.32669" lon="-1.53696">
        <ele>25.2</ele>
        <time>2020-09-27T11:16:33.000Z</time>
      </trkpt>
      <trkpt lat="47.32667" lon="-1.53696">
        <ele>25.3</ele>
        <time>2020-09-27T11:16:34.000Z</time>
      </trkpt>
      <trkpt lat="47.32665" lon="-1.53696">
        <ele>25.4</ele>
        <time>2020-09-27T11:16:35.000Z</time>
      </trkpt>
      <trkpt lat="47.32663" lon="-1.53696">
        <ele>25.5</ele>
        <time>2020-09-27T11:16:36.000Z</time>
      </trkpt>
      <trkpt lat="47.32661" lon="-1.53696">
        <ele>25.6</ele>
        <time>2020-09-27T11:16:37.000Z</time>
      </trkpt>
      <trkpt lat="47.32659" lon="-1.53696">
        <ele>25.7</ele>
        <time>2020-09-27T11:16:38.000Z</time>
      </trkpt>
      <trkpt lat="47.32656" lon="-1.53696">
        <ele>25.8</ele>
        <time>2020-09-27T11:16:39.000Z</time>
      </trkpt>
      <trkpt lat="47.32654" lon="-1.53696">
        <ele>25.9</ele>
        <time>2020-09-27T11:16:40.000Z</time>
      </trkpt>
      <trkpt lat="47.32652" lon="-1.53696">
        <ele>26</ele>
        <time>2020-09-27T11:16:41.000Z</time>
      </trkpt>
      <trkpt lat="47.32649" lon="-1.53696">
        <ele>26.1</ele>
        <time>2020-09-27T11:16:42.000Z</time>
      </trkpt>
      <trkpt lat="47.32646" lon="-1.53696">
        <ele>26.2</ele>
        <time>2020-09-27T11:16:43.000Z</time>
      </trkpt>
      <trkpt lat="47.32644" lon="-1.53695">
        <ele>26.3</ele>
        <time>2020-09-27T11:16:44.000Z</time>
      </trkpt>
      <trkpt lat="47.32641" lon="-1.53695">
        <ele>26.4</ele>
        <time>2020-09-27T11:16:45.000Z</time>
      </trkpt>
      <trkpt lat="47.32638" lon="-1.53694">
        <ele>26.5</ele>
        <time>2020-09-27T11:16:46.000Z</time>
      </trkpt>
      <trkpt lat="47.32635" lon="-1.53693">
        <ele>26.6</ele>
        <time>2020-09-27T11:16:47.000Z</time>
      </trkpt>
      <trkpt lat="47.32632" lon="-1.53692">
        <ele>26.7</ele>
        <time>2020-09-27T11:16:48.000Z</time>
      </trkpt>
      <trkpt lat="47.32629" lon="-1.53692">
        <ele>26.8</ele>
        <time>2020-09-27T11:16:49.000Z</time>
      </trkpt>
      <trkpt lat="47.32626" lon="-1.53691">
        <ele>27</ele>
        <time>2020-09-27T11:16:50.000Z</time>
      </trkpt>
      <trkpt lat="47.32623" lon="-1.5369">
        <ele>27.1</ele>
        <time>2020-09-27T11:16:51.000Z</time>
      </trkpt>
      <trkpt lat="47.32619" lon="-1.53689">
        <ele>27.2</ele>
        <time>2020-09-27T11:16:52.000Z</time>
      </trkpt>
      <trkpt lat="47.32616" lon="-1.53688">
        <ele>27.4</ele>
        <time>2020-09-27T11:16:53.000Z</time>
      </trkpt>
      <trkpt lat="47.32613" lon="-1.53686">
        <ele>27.5</ele>
        <time>2020-09-27T11:16:54.000Z</time>
      </trkpt>
      <trkpt lat="47.3261" lon="-1.53685">
        <ele>27.6</ele>
        <time>2020-09-27T11:16:55.000Z</time>
      </trkpt>
      <trkpt lat="47.32607" lon="-1.53684">
        <ele>27.8</ele>
        <time>2020-09-27T11:16:56.000Z</time>
      </trkpt>
      <trkpt lat="47.32604" lon="-1.53683">
        <ele>27.9</ele>
        <time>2020-09-27T11:16:57.000Z</time>
      </trkpt>
      <trkpt lat="47.326" lon="-1.53681">
        <ele>28.1</ele>
        <time>2020-09-27T11:16:58.000Z</time>
      </trkpt>
      <trkpt lat="47.32597" lon="-1.5368">
        <ele>28.2</ele>
        <time>2020-09-27T11:16:59.000Z</time>
      </trkpt>
      <trkpt lat="47.32594" lon="-1.53679">
        <ele>28.4</ele>
        <time>2020-09-27T11:17:00.000Z</time>
      </trkpt>
      <trkpt lat="47.32591" lon="-1.53677">
        <ele>28.5</ele>
        <time>2020-09-27T11:17:01.000Z</time>
      </trkpt>
      <trkpt lat="47.32587" lon="-1.53676">
        <ele>28.7</ele>
        <time>2020-09-27T11:17:02.000Z</time>
      </trkpt>
      <trkpt lat="47.32584" lon="-1.53674">
        <ele>28.9</ele>
        <time>2020-09-27T11:17:03.000Z</time>
      </trkpt>
      <trkpt lat="47.32581" lon="-1.53672">
        <ele>28.9</ele>
        <time>2020-09-27T11:17:04.000Z</time>
      </trkpt>
      <trkpt lat="47.32578" lon="-1.53671">
        <ele>28.9</ele>
        <time>2020-09-27T11:17:05.000Z</time>
      </trkpt>
      <trkpt lat="47.32574" lon="-1.53669">
        <ele>29</ele>
        <time>2020-09-27T11:17:06.000Z</time>
      </trkpt>
      <trkpt lat="47.32571" lon="-1.53668">
        <ele>29</ele>
        <time>2020-09-27T11:17:07.000Z</time>
      </trkpt>
      <trkpt lat="47.32568" lon="-1.53666">
        <ele>29</ele>
        <time>2020-09-27T11:17:08.000Z</time>
      </trkpt>
      <trkpt lat="47.32564" lon="-1.53664">
        <ele>29</ele>
        <time>2020-09-27T11:17:09.000Z</time>
      </trkpt>
      <trkpt lat="47.32561" lon="-1.53663">
        <ele>29</ele>
        <time>2020-09-27T11:17:10.000Z</time>
      </trkpt>
      <trkpt lat="47.32557" lon="-1.53661">
        <ele>29</ele>
        <time>2020-09-27T11:17:11.000Z</time>
      </trkpt>
      <trkpt lat="47.32554" lon="-1.53659">
        <ele>29</ele>
        <time>2020-09-27T11:17:12.000Z</time>
      </trkpt>
      <trkpt lat="47.32551" lon="-1.53658">
        <ele>29</ele>
        <time>2020-09-27T11:17:13.000Z</time>
      </trkpt>
      <trkpt lat="47.32547" lon="-1.53656">
        <ele>29</ele>
        <time>2020-09-27T11:17:14.000Z</time>
      </trkpt>
      <trkpt lat="47.32544" lon="-1.53654">
        <ele>29</ele>
        <time>2020-09-27T11:17:15.000Z</time>
      </trkpt>
      <trkpt lat="47.3254" lon="-1.53653">
        <ele>29</ele>
        <time>2020-09-27T11:17:16.000Z</time>
      </trkpt>
      <trkpt lat="47.32537" lon="-1.53651">
        <ele>29</ele>
        <time>2020-09-27T11:17:17.000Z</time>
      </trkpt>
      <trkpt lat="47.32534" lon="-1.53649">
        <ele>29</ele>
        <time>2020-09-27T11:17:18.000Z</time>
      </trkpt>
      <trkpt lat="47.3253" lon="-1.53648">
        <ele>29</ele>
        <time>2020-09-27T11:17:19.000Z</time>
      </trkpt>
      <trkpt lat="47.32527" lon="-1.53646">
        <ele>29</ele>
        <time>2020-09-27T11:17:20.000Z</time>
      </trkpt>
      <trkpt lat="47.32523" lon="-1.53645">
        <ele>29</ele>
        <time>2020-09-27T11:17:21.000Z</time>
      </trkpt>
      <trkpt lat="47.3252" lon="-1.53643">
        <ele>29</ele>
        <time>2020-09-27T11:17:22.000Z</time>
      </trkpt>
      <trkpt lat="47.32516" lon="-1.53641">
        <ele>29</ele>
        <time>2020-09-27T11:17:23.000Z</time>
      </trkpt>
      <trkpt lat="47.32513" lon="-1.5364">
        <ele>29</ele>
        <time>2020-09-27T11:17:24.000Z</time>
      </trkpt>
      <trkpt lat="47.32509" lon="-1.53638">
        <ele>29</ele>
        <time>2020-09-27T11:17:25.000Z</time>
      </trkpt>
      <trkpt lat="47.32506" lon="-1.53636">
        <ele>29</ele>
        <time>2020-09-27T11:17:26.000Z</time>
      </trkpt>
      <trkpt lat="47.32502" lon="-1.53635">
        <ele>29</ele>
        <time>2020-09-27T11:17:27.000Z</time>
      </trkpt>
      <trkpt lat="47.32498" lon="-1.53633">
        <ele>28.9</ele>
        <time>2020-09-27T11:17:28.000Z</time>
      </trkpt>
      <trkpt lat="47.32494" lon="-1.53631">
        <ele>28.7</ele>
        <time>2020-09-27T11:17:29.000Z</time>
      </trkpt>
      <trkpt lat="47.3249" lon="-1.53629">
        <ele>28.5</ele>
        <time>2020-09-27T11:17:30.000Z</time>
      </trkpt>
      <trkpt lat="47.32486" lon="-1.53628">
        <ele>28.3</ele>
        <time>2020-09-27T11:17:31.000Z</time>
      </trkpt>
      <trkpt lat="47.32482" lon="-1.53626">
        <ele>28</ele>
        <time>2020-09-27T11:17:32.000Z</time>
      </trkpt>
      <trkpt lat="47.32478" lon="-1.53624">
        <ele>27.8</ele>
        <time>2020-09-27T11:17:33.000Z</time>
      </trkpt>
      <trkpt lat="47.32474" lon="-1.53622">
        <ele>27.6</ele>
        <time>2020-09-27T11:17:34.000Z</time>
      </trkpt>
      <trkpt lat="47.3247" lon="-1.5362">
        <ele>27.4</ele>
        <time>2020-09-27T11:17:35.000Z</time>
      </trkpt>
      <trkpt lat="47.32465" lon="-1.53618">
        <ele>27.2</ele>
        <time>2020-09-27T11:17:36.000Z</time>
      </trkpt>
      <trkpt lat="47.32461" lon="-1.53616">
        <ele>26.9</ele>
        <time>2020-09-27T11:17:37.000Z</time>
      </trkpt>
      <trkpt lat="47.32456" lon="-1.53613">
        <ele>26.7</ele>
        <time>2020-09-27T11:17:38.000Z</time>
      </trkpt>
      <trkpt lat="47.32451" lon="-1.53611">
        <ele>26.5</ele>
        <time>2020-09-27T11:17:39.000Z</time>
      </trkpt>
      <trkpt lat="47.32446" lon="-1.53609">
        <ele>26.2</ele>
        <time>2020-09-27T11:17:40.000Z</time>
      </trkpt>
      <trkpt lat="47.32441" lon="-1.53606">
        <ele>26</ele>
        <time>2020-09-27T11:17:41.000Z</time>
      </trkpt>
      <trkpt lat="47.32436" lon="-1.53604">
        <ele>25.7</ele>
        <time>2020-09-27T11:17:42.000Z</time>
      </trkpt>
      <trkpt lat="47.32431" lon="-1.53601">
        <ele>25.5</ele>
        <time>2020-09-27T11:17:43.000Z</time>
      </trkpt>
      <trkpt lat="47.32425" lon="-1.53598">
        <ele>25.2</ele>
        <time>2020-09-27T11:17:44.000Z</time>
      </trkpt>
      <trkpt lat="47.32419" lon="-1.53596">
        <ele>25</ele>
        <time>2020-09-27T11:17:45.000Z</time>
      </trkpt>
      <trkpt lat="47.32413" lon="-1.53593">
        <ele>24.6</ele>
        <time>2020-09-27T11:17:46.000Z</time>
      </trkpt>
      <trkpt lat="47.32407" lon="-1.5359">
        <ele>24.1</ele>
        <time>2020-09-27T11:17:47.000Z</time>
      </trkpt>
      <trkpt lat="47.324" lon="-1.53586">
        <ele>23.6</ele>
        <time>2020-09-27T11:17:48.000Z</time>
      </trkpt>
      <trkpt lat="47.32394" lon="-1.53583">
        <ele>23.1</ele>
        <time>2020-09-27T11:17:49.000Z</time>
      </trkpt>
      <trkpt lat="47.32387" lon="-1.5358">
        <ele>22.6</ele>
        <time>2020-09-27T11:17:50.000Z</time>
      </trkpt>
      <trkpt lat="47.3238" lon="-1.53577">
        <ele>22.1</ele>
        <time>2020-09-27T11:17:51.000Z</time>
      </trkpt>
      <trkpt lat="47.32374" lon="-1.53573">
        <ele>21.7</ele>
        <time>2020-09-27T11:17:52.000Z</time>
      </trkpt>
      <trkpt lat="47.32368" lon="-1.5357">
        <ele>21.2</ele>
        <time>2020-09-27T11:17:53.000Z</time>
      </trkpt>
      <trkpt lat="47.32362" lon="-1.53567">
        <ele>20.9</ele>
        <time>2020-09-27T11:17:54.000Z</time>
      </trkpt>
      <trkpt lat="47.32358" lon="-1.53565">
        <ele>20.6</ele>
        <time>2020-09-27T11:17:55.000Z</time>
      </trkpt>
      <trkpt lat="47.32353" lon="-1.53563">
        <ele>20.3</ele>
        <time>2020-09-27T11:17:56.000Z</time>
      </trkpt>
      <trkpt lat="47.32349" lon="-1.53561">
        <ele>20</ele>
        <time>2020-09-27T11:17:57.000Z</time>
      </trkpt>
      <trkpt lat="47.32345" lon="-1.53559">
        <ele>19.7</ele>
        <time>2020-09-27T11:17:58.000Z</time>
      </trkpt>
      <trkpt lat="47.3234" lon="-1.53557">
        <ele>19.5</ele>
        <time>2020-09-27T11:17:59.000Z</time>
      </trkpt>
      <trkpt lat="47.32335" lon="-1.53555">
        <ele>19.2</ele>
        <time>2020-09-27T11:18:00.000Z</time>
      </trkpt>
      <trkpt lat="47.32331" lon="-1.53553">
        <ele>18.9</ele>
        <time>2020-09-27T11:18:01.000Z</time>
      </trkpt>
      <trkpt lat="47.32326" lon="-1.53551">
        <ele>18.8</ele>
        <time>2020-09-27T11:18:02.000Z</time>
      </trkpt>
      <trkpt lat="47.32321" lon="-1.53549">
        <ele>18.6</ele>
        <time>2020-09-27T11:18:03.000Z</time>
      </trkpt>
      <trkpt lat="47.32317" lon="-1.53547">
        <ele>18.4</ele>
        <time>2020-09-27T11:18:04.000Z</time>
      </trkpt>
      <trkpt lat="47.32313" lon="-1.53545">
        <ele>18.3</ele>
        <time>2020-09-27T11:18:05.000Z</time>
      </trkpt>
      <trkpt lat="47.32309" lon="-1.53542">
        <ele>18.1</ele>
        <time>2020-09-27T11:18:06.000Z</time>
      </trkpt>
      <trkpt lat="47.32305" lon="-1.5354">
        <ele>18</ele>
        <time>2020-09-27T11:18:07.000Z</time>
      </trkpt>
      <trkpt lat="47.323" lon="-1.53538">
        <ele>17.8</ele>
        <time>2020-09-27T11:18:08.000Z</time>
      </trkpt>
      <trkpt lat="47.32296" lon="-1.53536">
        <ele>17.7</ele>
        <time>2020-09-27T11:18:09.000Z</time>
      </trkpt>
      <trkpt lat="47.32291" lon="-1.53533">
        <ele>17.5</ele>
        <time>2020-09-27T11:18:10.000Z</time>
      </trkpt>
      <trkpt lat="47.32287" lon="-1.5353">
        <ele>17.3</ele>
        <time>2020-09-27T11:18:11.000Z</time>
      </trkpt>
      <trkpt lat="47.32282" lon="-1.53527">
        <ele>17.1</ele>
        <time>2020-09-27T11:18:12.000Z</time>
      </trkpt>
      <trkpt lat="47.32277" lon="-1.53524">
        <ele>16.9</ele>
        <time>2020-09-27T11:18:13.000Z</time>
      </trkpt>
      <trkpt lat="47.32272" lon="-1.53521">
        <ele>16.7</ele>
        <time>2020-09-27T11:18:14.000Z</time>
      </trkpt>
      <trkpt lat="47.32267" lon="-1.53518">
        <ele>16.5</ele>
        <time>2020-09-27T11:18:15.000Z</time>
      </trkpt>
      <trkpt lat="47.32262" lon="-1.53515">
        <ele>16.3</ele>
        <time>2020-09-27T11:18:16.000Z</time>
      </trkpt>
      <trkpt lat="47.32258" lon="-1.53512">
        <ele>16.2</ele>
        <time>2020-09-27T11:18:17.000Z</time>
      </trkpt>
      <trkpt lat="47.32255" lon="-1.5351">
        <ele>16.1</ele>
        <time>2020-09-27T11:18:18.000Z</time>
      </trkpt>
      <trkpt lat="47.32253" lon="-1.53508">
        <ele>16</ele>
        <time>2020-09-27T11:18:19.000Z</time>
      </trkpt>
      <trkpt lat="47.32251" lon="-1.53507">
        <ele>15.9</ele>
        <time>2020-09-27T11:18:20.000Z</time>
      </trkpt>
      <trkpt lat="47.32249" lon="-1.53507">
        <ele>15.9</ele>
        <time>2020-09-27T11:18:21.000Z</time>
      </trkpt>
      <trkpt lat="47.32247" lon="-1.53507">
        <ele>15.9</ele>
        <time>2020-09-27T11:18:22.000Z</time>
      </trkpt>
      <trkpt lat="47.32244" lon="-1.53509">
        <ele>15.9</ele>
        <time>2020-09-27T11:18:23.000Z</time>
      </trkpt>
      <trkpt lat="47.32243" lon="-1.53512">
        <ele>15.9</ele>
        <time>2020-09-27T11:18:24.000Z</time>
      </trkpt>
      <trkpt lat="47.32243" lon="-1.53516">
        <ele>15.8</ele>
        <time>2020-09-27T11:18:25.000Z</time>
      </trkpt>
      <trkpt lat="47.32243" lon="-1.53522">
        <ele>15.6</ele>
        <time>2020-09-27T11:18:26.000Z</time>
      </trkpt>
      <trkpt lat="47.32244" lon="-1.53528">
        <ele>15.4</ele>
        <time>2020-09-27T11:18:27.000Z</time>
      </trkpt>
      <trkpt lat="47.32244" lon="-1.53534">
        <ele>15.3</ele>
        <time>2020-09-27T11:18:28.000Z</time>
      </trkpt>
      <trkpt lat="47.32245" lon="-1.5354">
        <ele>15.1</ele>
        <time>2020-09-27T11:18:29.000Z</time>
      </trkpt>
      <trkpt lat="47.32245" lon="-1.53545">
        <ele>15</ele>
        <time>2020-09-27T11:18:30.000Z</time>
      </trkpt>
      <trkpt lat="47.32246" lon="-1.53551">
        <ele>14.8</ele>
        <time>2020-09-27T11:18:31.000Z</time>
      </trkpt>
      <trkpt lat="47.32246" lon="-1.53557">
        <ele>14.7</ele>
        <time>2020-09-27T11:18:32.000Z</time>
      </trkpt>
      <trkpt lat="47.32245" lon="-1.53563">
        <ele>14.6</ele>
        <time>2020-09-27T11:18:33.000Z</time>
      </trkpt>
      <trkpt lat="47.32243" lon="-1.53568">
        <ele>14.5</ele>
        <time>2020-09-27T11:18:34.000Z</time>
      </trkpt>
      <trkpt lat="47.32241" lon="-1.53572">
        <ele>14.4</ele>
        <time>2020-09-27T11:18:35.000Z</time>
      </trkpt>
      <trkpt lat="47.32239" lon="-1.53575">
        <ele>14.4</ele>
        <time>2020-09-27T11:18:36.000Z</time>
      </trkpt>
      <trkpt lat="47.32236" lon="-1.53577">
        <ele>14.3</ele>
        <time>2020-09-27T11:18:37.000Z</time>
      </trkpt>
      <trkpt lat="47.32234" lon="-1.53578">
        <ele>14.3</ele>
        <time>2020-09-27T11:18:38.000Z</time>
      </trkpt>
      <trkpt lat="47.32231" lon="-1.53579">
        <ele>14.3</ele>
        <time>2020-09-27T11:18:39.000Z</time>
      </trkpt>
      <trkpt lat="47.32229" lon="-1.5358">
        <ele>14.4</ele>
        <time>2020-09-27T11:18:40.000Z</time>
      </trkpt>
      <trkpt lat="47.32227" lon="-1.5358">
        <ele>14.4</ele>
        <time>2020-09-27T11:18:41.000Z</time>
      </trkpt>
      <trkpt lat="47.32224" lon="-1.53581">
        <ele>14.4</ele>
        <time>2020-09-27T11:18:42.000Z</time>
      </trkpt>
      <trkpt lat="47.32221" lon="-1.53582">
        <ele>14.4</ele>
        <time>2020-09-27T11:18:43.000Z</time>
      </trkpt>
      <trkpt lat="47.32218" lon="-1.53582">
        <ele>14.4</ele>
        <time>2020-09-27T11:18:44.000Z</time>
      </trkpt>
      <trkpt lat="47.32215" lon="-1.53582">
        <ele>14.5</ele>
        <time>2020-09-27T11:18:45.000Z</time>
      </trkpt>
      <trkpt lat="47.32211" lon="-1.53582">
        <ele>14.5</ele>
        <time>2020-09-27T11:18:46.000Z</time>
      </trkpt>
      <trkpt lat="47.32208" lon="-1.53582">
        <ele>14.5</ele>
        <time>2020-09-27T11:18:47.000Z</time>
      </trkpt>
      <trkpt lat="47.32204" lon="-1.53582">
        <ele>14.6</ele>
        <time>2020-09-27T11:18:48.000Z</time>
      </trkpt>
      <trkpt lat="47.322" lon="-1.53582">
        <ele>14.6</ele>
        <time>2020-09-27T11:18:49.000Z</time>
      </trkpt>
      <trkpt lat="47.32196" lon="-1.53582">
        <ele>14.7</ele>
        <time>2020-09-27T11:18:50.000Z</time>
      </trkpt>
      <trkpt lat="47.32192" lon="-1.53583">
        <ele>14.7</ele>
        <time>2020-09-27T11:18:51.000Z</time>
      </trkpt>
      <trkpt lat="47.32188" lon="-1.53583">
        <ele>14.8</ele>
        <time>2020-09-27T11:18:52.000Z</time>
      </trkpt>
      <trkpt lat="47.32184" lon="-1.53583">
        <ele>14.8</ele>
        <time>2020-09-27T11:18:53.000Z</time>
      </trkpt>
      <trkpt lat="47.3218" lon="-1.53583">
        <ele>14.9</ele>
        <time>2020-09-27T11:18:54.000Z</time>
      </trkpt>
      <trkpt lat="47.32176" lon="-1.53583">
        <ele>14.9</ele>
        <time>2020-09-27T11:18:55.000Z</time>
      </trkpt>
      <trkpt lat="47.32172" lon="-1.53583">
        <ele>14.9</ele>
        <time>2020-09-27T11:18:56.000Z</time>
      </trkpt>
      <trkpt lat="47.32167" lon="-1.53583">
        <ele>15</ele>
        <time>2020-09-27T11:18:57.000Z</time>
      </trkpt>
      <trkpt lat="47.32163" lon="-1.53584">
        <ele>15</ele>
        <time>2020-09-27T11:18:58.000Z</time>
      </trkpt>
      <trkpt lat="47.32159" lon="-1.53584">
        <ele>15</ele>
        <time>2020-09-27T11:18:59.000Z</time>
      </trkpt>
      <trkpt lat="47.32154" lon="-1.53584">
        <ele>15</ele>
        <time>2020-09-27T11:19:00.000Z</time>
      </trkpt>
      <trkpt lat="47.3215" lon="-1.53585">
        <ele>15</ele>
        <time>2020-09-27T11:19:01.000Z</time>
      </trkpt>
      <trkpt lat="47.32146" lon="-1.53585">
        <ele>15</ele>
        <time>2020-09-27T11:19:02.000Z</time>
      </trkpt>
      <trkpt lat="47.32141" lon="-1.53585">
        <ele>15</ele>
        <time>2020-09-27T11:19:03.000Z</time>
      </trkpt>
      <trkpt lat="47.32137" lon="-1.53586">
        <ele>14.9</ele>
        <time>2020-09-27T11:19:04.000Z</time>
      </trkpt>
      <trkpt lat="47.32133" lon="-1.53586">
        <ele>14.9</ele>
        <time>2020-09-27T11:19:05.000Z</time>
      </trkpt>
      <trkpt lat="47.32128" lon="-1.53587">
        <ele>14.9</ele>
        <time>2020-09-27T11:19:06.000Z</time>
      </trkpt>
      <trkpt lat="47.32124" lon="-1.53587">
        <ele>14.9</ele>
        <time>2020-09-27T11:19:07.000Z</time>
      </trkpt>
      <trkpt lat="47.32119" lon="-1.53588">
        <ele>14.9</ele>
        <time>2020-09-27T11:19:08.000Z</time>
      </trkpt>
      <trkpt lat="47.32115" lon="-1.53589">
        <ele>14.9</ele>
        <time>2020-09-27T11:19:09.000Z</time>
      </trkpt>
      <trkpt lat="47.32111" lon="-1.5359">
        <ele>14.8</ele>
        <time>2020-09-27T11:19:10.000Z</time>
      </trkpt>
      <trkpt lat="47.32106" lon="-1.53592">
        <ele>14.8</ele>
        <time>2020-09-27T11:19:11.000Z</time>
      </trkpt>
      <trkpt lat="47.32102" lon="-1.53594">
        <ele>14.8</ele>
        <time>2020-09-27T11:19:12.000Z</time>
      </trkpt>
      <trkpt lat="47.32098" lon="-1.53596">
        <ele>14.7</ele>
        <time>2020-09-27T11:19:13.000Z</time>
      </trkpt>
      <trkpt lat="47.32094" lon="-1.53598">
        <ele>14.6</ele>
        <time>2020-09-27T11:19:14.000Z</time>
      </trkpt>
      <trkpt lat="47.32089" lon="-1.53601">
        <ele>14.6</ele>
        <time>2020-09-27T11:19:15.000Z</time>
      </trkpt>
      <trkpt lat="47.32085" lon="-1.53604">
        <ele>14.5</ele>
        <time>2020-09-27T11:19:16.000Z</time>
      </trkpt>
      <trkpt lat="47.32082" lon="-1.53607">
        <ele>14.5</ele>
        <time>2020-09-27T11:19:17.000Z</time>
      </trkpt>
      <trkpt lat="47.32078" lon="-1.5361">
        <ele>14.6</ele>
        <time>2020-09-27T11:19:18.000Z</time>
      </trkpt>
      <trkpt lat="47.32075" lon="-1.53614">
        <ele>14.7</ele>
        <time>2020-09-27T11:19:19.000Z</time>
      </trkpt>
      <trkpt lat="47.32072" lon="-1.53618">
        <ele>14.7</ele>
        <time>2020-09-27T11:19:20.000Z</time>
      </trkpt>
      <trkpt lat="47.32069" lon="-1.53622">
        <ele>14.7</ele>
        <time>2020-09-27T11:19:21.000Z</time>
      </trkpt>
      <trkpt lat="47.32067" lon="-1.53627">
        <ele>14.7</ele>
        <time>2020-09-27T11:19:22.000Z</time>
      </trkpt>
      <trkpt lat="47.32065" lon="-1.53632">
        <ele>14.6</ele>
        <time>2020-09-27T11:19:23.000Z</time>
      </trkpt>
      <trkpt lat="47.32063" lon="-1.53637">
        <ele>14.5</ele>
        <time>2020-09-27T11:19:24.000Z</time>
      </trkpt>
      <trkpt lat="47.32062" lon="-1.53642">
        <ele>14.4</ele>
        <time>2020-09-27T11:19:25.000Z</time>
      </trkpt>
      <trkpt lat="47.32061" lon="-1.53648">
        <ele>14.3</ele>
        <time>2020-09-27T11:19:26.000Z</time>
      </trkpt>
      <trkpt lat="47.32061" lon="-1.53654">
        <ele>14.2</ele>
        <time>2020-09-27T11:19:27.000Z</time>
      </trkpt>
      <trkpt lat="47.3206" lon="-1.5366">
        <ele>14</ele>
        <time>2020-09-27T11:19:28.000Z</time>
      </trkpt>
      <trkpt lat="47.32059" lon="-1.53666">
        <ele>13.9</ele>
        <time>2020-09-27T11:19:29.000Z</time>
      </trkpt>
      <trkpt lat="47.32058" lon="-1.53673">
        <ele>13.5</ele>
        <time>2020-09-27T11:19:30.000Z</time>
      </trkpt>
      <trkpt lat="47.32056" lon="-1.53679">
        <ele>13.1</ele>
        <time>2020-09-27T11:19:31.000Z</time>
      </trkpt>
      <trkpt lat="47.32054" lon="-1.53686">
        <ele>12.8</ele>
        <time>2020-09-27T11:19:32.000Z</time>
      </trkpt>
      <trkpt lat="47.32052" lon="-1.53692">
        <ele>12.4</ele>
        <time>2020-09-27T11:19:33.000Z</time>
      </trkpt>
      <trkpt lat="47.32049" lon="-1.53697">
        <ele>12.2</ele>
        <time>2020-09-27T11:19:34.000Z</time>
      </trkpt>
      <trkpt lat="47.32046" lon="-1.53702">
        <ele>12</ele>
        <time>2020-09-27T11:19:35.000Z</time>
      </trkpt>
      <trkpt lat="47.32043" lon="-1.53706">
        <ele>11.8</ele>
        <time>2020-09-27T11:19:36.000Z</time>
      </trkpt>
      <trkpt lat="47.32039" lon="-1.5371">
        <ele>11.7</ele>
        <time>2020-09-27T11:19:37.000Z</time>
      </trkpt>
      <trkpt lat="47.32036" lon="-1.53713">
        <ele>11.7</ele>
        <time>2020-09-27T11:19:38.000Z</time>
      </trkpt>
      <trkpt lat="47.32032" lon="-1.53717">
        <ele>11.6</ele>
        <time>2020-09-27T11:19:39.000Z</time>
      </trkpt>
      <trkpt lat="47.32028" lon="-1.53719">
        <ele>11.6</ele>
        <time>2020-09-27T11:19:40.000Z</time>
      </trkpt>
      <trkpt lat="47.32024" lon="-1.53722">
        <ele>11.6</ele>
        <time>2020-09-27T11:19:41.000Z</time>
      </trkpt>
      <trkpt lat="47.3202" lon="-1.53725">
        <ele>11.6</ele>
        <time>2020-09-27T11:19:42.000Z</time>
      </trkpt>
      <trkpt lat="47.32016" lon="-1.53728">
        <ele>11.6</ele>
        <time>2020-09-27T11:19:43.000Z</time>
      </trkpt>
      <trkpt lat="47.32012" lon="-1.53731">
        <ele>11.6</ele>
        <time>2020-09-27T11:19:44.000Z</time>
      </trkpt>
      <trkpt lat="47.32008" lon="-1.53734">
        <ele>11.6</ele>
        <time>2020-09-27T11:19:45.000Z</time>
      </trkpt>
      <trkpt lat="47.32004" lon="-1.53737">
        <ele>11.6</ele>
        <time>2020-09-27T11:19:46.000Z</time>
      </trkpt>
      <trkpt lat="47.32001" lon="-1.53741">
        <ele>11.5</ele>
        <time>2020-09-27T11:19:47.000Z</time>
      </trkpt>
      <trkpt lat="47.31998" lon="-1.53745">
        <ele>11.5</ele>
        <time>2020-09-27T11:19:48.000Z</time>
      </trkpt>
      <trkpt lat="47.31995" lon="-1.5375">
        <ele>11.3</ele>
        <time>2020-09-27T11:19:49.000Z</time>
      </trkpt>
      <trkpt lat="47.31992" lon="-1.53755">
        <ele>11.2</ele>
        <time>2020-09-27T11:19:50.000Z</time>
      </trkpt>
      <trkpt lat="47.31989" lon="-1.5376">
        <ele>11.1</ele>
        <time>2020-09-27T11:19:51.000Z</time>
      </trkpt>
      <trkpt lat="47.31985" lon="-1.53765">
        <ele>11</ele>
        <time>2020-09-27T11:19:52.000Z</time>
      </trkpt>
      <trkpt lat="47.31981" lon="-1.53769">
        <ele>11.1</ele>
        <time>2020-09-27T11:19:53.000Z</time>
      </trkpt>
      <trkpt lat="47.31977" lon="-1.53772">
        <ele>11.1</ele>
        <time>2020-09-27T11:19:54.000Z</time>
      </trkpt>
      <trkpt lat="47.31973" lon="-1.53776">
        <ele>11.2</ele>
        <time>2020-09-27T11:19:55.000Z</time>
      </trkpt>
      <trkpt lat="47.31969" lon="-1.5378">
        <ele>11.2</ele>
        <time>2020-09-27T11:19:56.000Z</time>
      </trkpt>
      <trkpt lat="47.31966" lon="-1.53784">
        <ele>11.1</ele>
        <time>2020-09-27T11:19:57.000Z</time>
      </trkpt>
      <trkpt lat="47.31963" lon="-1.5379">
        <ele>11</ele>
        <time>2020-09-27T11:19:58.000Z</time>
      </trkpt>
      <trkpt lat="47.31961" lon="-1.53795">
        <ele>10.9</ele>
        <time>2020-09-27T11:19:59.000Z</time>
      </trkpt>
      <trkpt lat="47.31958" lon="-1.53801">
        <ele>10.8</ele>
        <time>2020-09-27T11:20:00.000Z</time>
      </trkpt>
      <trkpt lat="47.31956" lon="-1.53807">
        <ele>10.6</ele>
        <time>2020-09-27T11:20:01.000Z</time>
      </trkpt>
      <trkpt lat="47.31954" lon="-1.53812">
        <ele>10.5</ele>
        <time>2020-09-27T11:20:02.000Z</time>
      </trkpt>
      <trkpt lat="47.31951" lon="-1.53818">
        <ele>10.3</ele>
        <time>2020-09-27T11:20:03.000Z</time>
      </trkpt>
      <trkpt lat="47.31949" lon="-1.53823">
        <ele>10.2</ele>
        <time>2020-09-27T11:20:04.000Z</time>
      </trkpt>
      <trkpt lat="47.31946" lon="-1.53828">
        <ele>10.1</ele>
        <time>2020-09-27T11:20:05.000Z</time>
      </trkpt>
      <trkpt lat="47.31944" lon="-1.53834">
        <ele>10.1</ele>
        <time>2020-09-27T11:20:06.000Z</time>
      </trkpt>
      <trkpt lat="47.31941" lon="-1.53838">
        <ele>10.1</ele>
        <time>2020-09-27T11:20:07.000Z</time>
      </trkpt>
      <trkpt lat="47.31939" lon="-1.53843">
        <ele>10</ele>
        <time>2020-09-27T11:20:08.000Z</time>
      </trkpt>
      <trkpt lat="47.31936" lon="-1.53848">
        <ele>10</ele>
        <time>2020-09-27T11:20:09.000Z</time>
      </trkpt>
      <trkpt lat="47.31934" lon="-1.53853">
        <ele>10</ele>
        <time>2020-09-27T11:20:10.000Z</time>
      </trkpt>
      <trkpt lat="47.31931" lon="-1.53858">
        <ele>9.9</ele>
        <time>2020-09-27T11:20:11.000Z</time>
      </trkpt>
      <trkpt lat="47.31929" lon="-1.53862">
        <ele>9.9</ele>
        <time>2020-09-27T11:20:12.000Z</time>
      </trkpt>
      <trkpt lat="47.31926" lon="-1.53867">
        <ele>9.8</ele>
        <time>2020-09-27T11:20:13.000Z</time>
      </trkpt>
      <trkpt lat="47.31924" lon="-1.53872">
        <ele>9.8</ele>
        <time>2020-09-27T11:20:14.000Z</time>
      </trkpt>
      <trkpt lat="47.31921" lon="-1.53876">
        <ele>9.7</ele>
        <time>2020-09-27T11:20:15.000Z</time>
      </trkpt>
      <trkpt lat="47.31918" lon="-1.53881">
        <ele>9.6</ele>
        <time>2020-09-27T11:20:16.000Z</time>
      </trkpt>
      <trkpt lat="47.31916" lon="-1.53886">
        <ele>9.6</ele>
        <time>2020-09-27T11:20:17.000Z</time>
      </trkpt>
      <trkpt lat="47.31913" lon="-1.53891">
        <ele>9.7</ele>
        <time>2020-09-27T11:20:18.000Z</time>
      </trkpt>
      <trkpt lat="47.3191" lon="-1.53897">
        <ele>9.7</ele>
        <time>2020-09-27T11:20:19.000Z</time>
      </trkpt>
      <trkpt lat="47.31907" lon="-1.53903">
        <ele>9.8</ele>
        <time>2020-09-27T11:20:20.000Z</time>
      </trkpt>
      <trkpt lat="47.31904" lon="-1.5391">
        <ele>9.9</ele>
        <time>2020-09-27T11:20:21.000Z</time>
      </trkpt>
      <trkpt lat="47.31901" lon="-1.53916">
        <ele>10</ele>
        <time>2020-09-27T11:20:22.000Z</time>
      </trkpt>
      <trkpt lat="47.31897" lon="-1.53923">
        <ele>10.1</ele>
        <time>2020-09-27T11:20:23.000Z</time>
      </trkpt>
      <trkpt lat="47.31894" lon="-1.5393">
        <ele>10.3</ele>
        <time>2020-09-27T11:20:24.000Z</time>
      </trkpt>
      <trkpt lat="47.31891" lon="-1.53937">
        <ele>10.5</ele>
        <time>2020-09-27T11:20:25.000Z</time>
      </trkpt>
      <trkpt lat="47.31887" lon="-1.53944">
        <ele>10.7</ele>
        <time>2020-09-27T11:20:26.000Z</time>
      </trkpt>
      <trkpt lat="47.31884" lon="-1.5395">
        <ele>10.8</ele>
        <time>2020-09-27T11:20:27.000Z</time>
      </trkpt>
      <trkpt lat="47.31881" lon="-1.53957">
        <ele>11</ele>
        <time>2020-09-27T11:20:28.000Z</time>
      </trkpt>
      <trkpt lat="47.31877" lon="-1.53963">
        <ele>11.1</ele>
        <time>2020-09-27T11:20:29.000Z</time>
      </trkpt>
      <trkpt lat="47.31874" lon="-1.5397">
        <ele>11.2</ele>
        <time>2020-09-27T11:20:30.000Z</time>
      </trkpt>
      <trkpt lat="47.31871" lon="-1.53976">
        <ele>11.3</ele>
        <time>2020-09-27T11:20:31.000Z</time>
      </trkpt>
      <trkpt lat="47.31868" lon="-1.53982">
        <ele>11.4</ele>
        <time>2020-09-27T11:20:32.000Z</time>
      </trkpt>
      <trkpt lat="47.31865" lon="-1.53989">
        <ele>11.4</ele>
        <time>2020-09-27T11:20:33.000Z</time>
      </trkpt>
      <trkpt lat="47.31862" lon="-1.53995">
        <ele>11.5</ele>
        <time>2020-09-27T11:20:34.000Z</time>
      </trkpt>
      <trkpt lat="47.31859" lon="-1.54001">
        <ele>11.5</ele>
        <time>2020-09-27T11:20:35.000Z</time>
      </trkpt>
      <trkpt lat="47.31856" lon="-1.54007">
        <ele>11.6</ele>
        <time>2020-09-27T11:20:36.000Z</time>
      </trkpt>
      <trkpt lat="47.31853" lon="-1.54013">
        <ele>11.6</ele>
        <time>2020-09-27T11:20:37.000Z</time>
      </trkpt>
      <trkpt lat="47.3185" lon="-1.54019">
        <ele>11.6</ele>
        <time>2020-09-27T11:20:38.000Z</time>
      </trkpt>
      <trkpt lat="47.31847" lon="-1.54024">
        <ele>11.6</ele>
        <time>2020-09-27T11:20:39.000Z</time>
      </trkpt>
      <trkpt lat="47.31845" lon="-1.5403">
        <ele>11.6</ele>
        <time>2020-09-27T11:20:40.000Z</time>
      </trkpt>
      <trkpt lat="47.31842" lon="-1.54036">
        <ele>11.6</ele>
        <time>2020-09-27T11:20:41.000Z</time>
      </trkpt>
      <trkpt lat="47.31839" lon="-1.54042">
        <ele>11.5</ele>
        <time>2020-09-27T11:20:42.000Z</time>
      </trkpt>
      <trkpt lat="47.31837" lon="-1.54047">
        <ele>11.5</ele>
        <time>2020-09-27T11:20:43.000Z</time>
      </trkpt>
      <trkpt lat="47.31834" lon="-1.54053">
        <ele>11.4</ele>
        <time>2020-09-27T11:20:44.000Z</time>
      </trkpt>
      <trkpt lat="47.31831" lon="-1.54059">
        <ele>11.4</ele>
        <time>2020-09-27T11:20:45.000Z</time>
      </trkpt>
      <trkpt lat="47.31829" lon="-1.54064">
        <ele>11.5</ele>
        <time>2020-09-27T11:20:46.000Z</time>
      </trkpt>
      <trkpt lat="47.31826" lon="-1.5407">
        <ele>11.5</ele>
        <time>2020-09-27T11:20:47.000Z</time>
      </trkpt>
      <trkpt lat="47.31823" lon="-1.54075">
        <ele>11.6</ele>
        <time>2020-09-27T11:20:48.000Z</time>
      </trkpt>
      <trkpt lat="47.3182" lon="-1.54081">
        <ele>11.7</ele>
        <time>2020-09-27T11:20:49.000Z</time>
      </trkpt>
      <trkpt lat="47.31818" lon="-1.54086">
        <ele>11.8</ele>
        <time>2020-09-27T11:20:50.000Z</time>
      </trkpt>
      <trkpt lat="47.31815" lon="-1.54092">
        <ele>11.9</ele>
        <time>2020-09-27T11:20:51.000Z</time>
      </trkpt>
      <trkpt lat="47.31812" lon="-1.54097">
        <ele>12.1</ele>
        <time>2020-09-27T11:20:52.000Z</time>
      </trkpt>
      <trkpt lat="47.31809" lon="-1.54102">
        <ele>12.1</ele>
        <time>2020-09-27T11:20:53.000Z</time>
      </trkpt>
      <trkpt lat="47.31806" lon="-1.54108">
        <ele>12.2</ele>
        <time>2020-09-27T11:20:54.000Z</time>
      </trkpt>
      <trkpt lat="47.31803" lon="-1.54113">
        <ele>12.3</ele>
        <time>2020-09-27T11:20:55.000Z</time>
      </trkpt>
      <trkpt lat="47.318" lon="-1.54118">
        <ele>12.3</ele>
        <time>2020-09-27T11:20:56.000Z</time>
      </trkpt>
      <trkpt lat="47.31797" lon="-1.54123">
        <ele>12.3</ele>
        <time>2020-09-27T11:20:57.000Z</time>
      </trkpt>
      <trkpt lat="47.31795" lon="-1.54128">
        <ele>12.3</ele>
        <time>2020-09-27T11:20:58.000Z</time>
      </trkpt>
      <trkpt lat="47.31792" lon="-1.54133">
        <ele>12.3</ele>
        <time>2020-09-27T11:20:59.000Z</time>
      </trkpt>
      <trkpt lat="47.31789" lon="-1.54138">
        <ele>12.3</ele>
        <time>2020-09-27T11:21:00.000Z</time>
      </trkpt>
      <trkpt lat="47.31787" lon="-1.54143">
        <ele>12.2</ele>
        <time>2020-09-27T11:21:01.000Z</time>
      </trkpt>
      <trkpt lat="47.31784" lon="-1.54148">
        <ele>12.1</ele>
        <time>2020-09-27T11:21:02.000Z</time>
      </trkpt>
      <trkpt lat="47.31782" lon="-1.54153">
        <ele>12</ele>
        <time>2020-09-27T11:21:03.000Z</time>
      </trkpt>
      <trkpt lat="47.31779" lon="-1.54158">
        <ele>11.9</ele>
        <time>2020-09-27T11:21:04.000Z</time>
      </trkpt>
      <trkpt lat="47.31776" lon="-1.54163">
        <ele>11.7</ele>
        <time>2020-09-27T11:21:05.000Z</time>
      </trkpt>
      <trkpt lat="47.31773" lon="-1.54168">
        <ele>11.6</ele>
        <time>2020-09-27T11:21:06.000Z</time>
      </trkpt>
      <trkpt lat="47.3177" lon="-1.54172">
        <ele>11.6</ele>
        <time>2020-09-27T11:21:07.000Z</time>
      </trkpt>
      <trkpt lat="47.31768" lon="-1.54177">
        <ele>11.6</ele>
        <time>2020-09-27T11:21:08.000Z</time>
      </trkpt>
      <trkpt lat="47.31765" lon="-1.54182">
        <ele>11.6</ele>
        <time>2020-09-27T11:21:09.000Z</time>
      </trkpt>
      <trkpt lat="47.31761" lon="-1.54187">
        <ele>11.6</ele>
        <time>2020-09-27T11:21:10.000Z</time>
      </trkpt>
      <trkpt lat="47.31758" lon="-1.54191">
        <ele>11.5</ele>
        <time>2020-09-27T11:21:11.000Z</time>
      </trkpt>
      <trkpt lat="47.31755" lon="-1.54195">
        <ele>11.5</ele>
        <time>2020-09-27T11:21:12.000Z</time>
      </trkpt>
      <trkpt lat="47.31751" lon="-1.54199">
        <ele>11.4</ele>
        <time>2020-09-27T11:21:13.000Z</time>
      </trkpt>
      <trkpt lat="47.31748" lon="-1.54203">
        <ele>11.3</ele>
        <time>2020-09-27T11:21:14.000Z</time>
      </trkpt>
      <trkpt lat="47.31744" lon="-1.54207">
        <ele>11.2</ele>
        <time>2020-09-27T11:21:15.000Z</time>
      </trkpt>
      <trkpt lat="47.31741" lon="-1.5421">
        <ele>11.1</ele>
        <time>2020-09-27T11:21:16.000Z</time>
      </trkpt>
      <trkpt lat="47.31737" lon="-1.54214">
        <ele>10.9</ele>
        <time>2020-09-27T11:21:17.000Z</time>
      </trkpt>
      <trkpt lat="47.31733" lon="-1.54218">
        <ele>10.8</ele>
        <time>2020-09-27T11:21:18.000Z</time>
      </trkpt>
      <trkpt lat="47.3173" lon="-1.54222">
        <ele>10.7</ele>
        <time>2020-09-27T11:21:19.000Z</time>
      </trkpt>
      <trkpt lat="47.31726" lon="-1.54226">
        <ele>10.5</ele>
        <time>2020-09-27T11:21:20.000Z</time>
      </trkpt>
      <trkpt lat="47.31722" lon="-1.5423">
        <ele>10.4</ele>
        <time>2020-09-27T11:21:21.000Z</time>
      </trkpt>
      <trkpt lat="47.31719" lon="-1.54234">
        <ele>10.2</ele>
        <time>2020-09-27T11:21:22.000Z</time>
      </trkpt>
      <trkpt lat="47.31715" lon="-1.54238">
        <ele>10.1</ele>
        <time>2020-09-27T11:21:23.000Z</time>
      </trkpt>
      <trkpt lat="47.31712" lon="-1.54242">
        <ele>9.9</ele>
        <time>2020-09-27T11:21:24.000Z</time>
      </trkpt>
      <trkpt lat="47.31708" lon="-1.54245">
        <ele>9.8</ele>
        <time>2020-09-27T11:21:25.000Z</time>
      </trkpt>
      <trkpt lat="47.31704" lon="-1.54249">
        <ele>9.6</ele>
        <time>2020-09-27T11:21:26.000Z</time>
      </trkpt>
      <trkpt lat="47.31701" lon="-1.54252">
        <ele>9.7</ele>
        <time>2020-09-27T11:21:27.000Z</time>
      </trkpt>
      <trkpt lat="47.31697" lon="-1.54255">
        <ele>10</ele>
        <time>2020-09-27T11:21:28.000Z</time>
      </trkpt>
      <trkpt lat="47.31693" lon="-1.54258">
        <ele>10.2</ele>
        <time>2020-09-27T11:21:29.000Z</time>
      </trkpt>
      <trkpt lat="47.3169" lon="-1.54262">
        <ele>10.4</ele>
        <time>2020-09-27T11:21:30.000Z</time>
      </trkpt>
      <trkpt lat="47.31686" lon="-1.54264">
        <ele>10.6</ele>
        <time>2020-09-27T11:21:31.000Z</time>
      </trkpt>
      <trkpt lat="47.31682" lon="-1.54267">
        <ele>10.8</ele>
        <time>2020-09-27T11:21:32.000Z</time>
      </trkpt>
      <trkpt lat="47.31679" lon="-1.5427">
        <ele>10.9</ele>
        <time>2020-09-27T11:21:33.000Z</time>
      </trkpt>
      <trkpt lat="47.31675" lon="-1.54273">
        <ele>11.1</ele>
        <time>2020-09-27T11:21:34.000Z</time>
      </trkpt>
      <trkpt lat="47.31672" lon="-1.54275">
        <ele>11.2</ele>
        <time>2020-09-27T11:21:35.000Z</time>
      </trkpt>
      <trkpt lat="47.31668" lon="-1.54278">
        <ele>11.3</ele>
        <time>2020-09-27T11:21:36.000Z</time>
      </trkpt>
      <trkpt lat="47.31665" lon="-1.5428">
        <ele>11.3</ele>
        <time>2020-09-27T11:21:37.000Z</time>
      </trkpt>
      <trkpt lat="47.31661" lon="-1.54283">
        <ele>11.2</ele>
        <time>2020-09-27T11:21:38.000Z</time>
      </trkpt>
      <trkpt lat="47.31657" lon="-1.54285">
        <ele>11.1</ele>
        <time>2020-09-27T11:21:39.000Z</time>
      </trkpt>
      <trkpt lat="47.31654" lon="-1.54287">
        <ele>11</ele>
        <time>2020-09-27T11:21:40.000Z</time>
      </trkpt>
      <trkpt lat="47.3165" lon="-1.5429">
        <ele>10.9</ele>
        <time>2020-09-27T11:21:41.000Z</time>
      </trkpt>
      <trkpt lat="47.31646" lon="-1.54292">
        <ele>10.8</ele>
        <time>2020-09-27T11:21:42.000Z</time>
      </trkpt>
      <trkpt lat="47.31642" lon="-1.54295">
        <ele>10.7</ele>
        <time>2020-09-27T11:21:43.000Z</time>
      </trkpt>
      <trkpt lat="47.31638" lon="-1.54299">
        <ele>10.6</ele>
        <time>2020-09-27T11:21:44.000Z</time>
      </trkpt>
      <trkpt lat="47.31635" lon="-1.54303">
        <ele>10.5</ele>
        <time>2020-09-27T11:21:45.000Z</time>
      </trkpt>
      <trkpt lat="47.31633" lon="-1.54307">
        <ele>10.6</ele>
        <time>2020-09-27T11:21:46.000Z</time>
      </trkpt>
      <trkpt lat="47.3163" lon="-1.54312">
        <ele>10.6</ele>
        <time>2020-09-27T11:21:47.000Z</time>
      </trkpt>
      <trkpt lat="47.31628" lon="-1.54315">
        <ele>10.5</ele>
        <time>2020-09-27T11:21:48.000Z</time>
      </trkpt>
      <trkpt lat="47.31625" lon="-1.54317">
        <ele>10.4</ele>
        <time>2020-09-27T11:21:49.000Z</time>
      </trkpt>
      <trkpt lat="47.31622" lon="-1.54319">
        <ele>10.3</ele>
        <time>2020-09-27T11:21:50.000Z</time>
      </trkpt>
      <trkpt lat="47.31619" lon="-1.5432">
        <ele>10.2</ele>
        <time>2020-09-27T11:21:51.000Z</time>
      </trkpt>
      <trkpt lat="47.31617" lon="-1.54322">
        <ele>10</ele>
        <time>2020-09-27T11:21:52.000Z</time>
      </trkpt>
      <trkpt lat="47.31614" lon="-1.54325">
        <ele>9.9</ele>
        <time>2020-09-27T11:21:53.000Z</time>
      </trkpt>
      <trkpt lat="47.31611" lon="-1.54327">
        <ele>9.8</ele>
        <time>2020-09-27T11:21:54.000Z</time>
      </trkpt>
      <trkpt lat="47.31608" lon="-1.54328">
        <ele>9.6</ele>
        <time>2020-09-27T11:21:55.000Z</time>
      </trkpt>
      <trkpt lat="47.31605" lon="-1.54329">
        <ele>9.4</ele>
        <time>2020-09-27T11:21:56.000Z</time>
      </trkpt>
      <trkpt lat="47.31601" lon="-1.54329">
        <ele>9.2</ele>
        <time>2020-09-27T11:21:57.000Z</time>
      </trkpt>
      <trkpt lat="47.31597" lon="-1.54329">
        <ele>8.9</ele>
        <time>2020-09-27T11:21:58.000Z</time>
      </trkpt>
      <trkpt lat="47.31593" lon="-1.54329">
        <ele>8.6</ele>
        <time>2020-09-27T11:21:59.000Z</time>
      </trkpt>
      <trkpt lat="47.31589" lon="-1.54328">
        <ele>8.3</ele>
        <time>2020-09-27T11:22:00.000Z</time>
      </trkpt>
      <trkpt lat="47.31585" lon="-1.54328">
        <ele>8</ele>
        <time>2020-09-27T11:22:01.000Z</time>
      </trkpt>
      <trkpt lat="47.31581" lon="-1.54327">
        <ele>7.8</ele>
        <time>2020-09-27T11:22:02.000Z</time>
      </trkpt>
      <trkpt lat="47.31578" lon="-1.54327">
        <ele>7.7</ele>
        <time>2020-09-27T11:22:03.000Z</time>
      </trkpt>
      <trkpt lat="47.31574" lon="-1.54327">
        <ele>7.6</ele>
        <time>2020-09-27T11:22:04.000Z</time>
      </trkpt>
      <trkpt lat="47.3157" lon="-1.54326">
        <ele>7.5</ele>
        <time>2020-09-27T11:22:05.000Z</time>
      </trkpt>
      <trkpt lat="47.31567" lon="-1.54326">
        <ele>7.5</ele>
        <time>2020-09-27T11:22:06.000Z</time>
      </trkpt>
      <trkpt lat="47.31563" lon="-1.54327">
        <ele>7.4</ele>
        <time>2020-09-27T11:22:07.000Z</time>
      </trkpt>
      <trkpt lat="47.31559" lon="-1.54327">
        <ele>7.3</ele>
        <time>2020-09-27T11:22:08.000Z</time>
      </trkpt>
      <trkpt lat="47.31556" lon="-1.54327">
        <ele>7.2</ele>
        <time>2020-09-27T11:22:09.000Z</time>
      </trkpt>
      <trkpt lat="47.31552" lon="-1.54327">
        <ele>7.1</ele>
        <time>2020-09-27T11:22:10.000Z</time>
      </trkpt>
      <trkpt lat="47.31548" lon="-1.54327">
        <ele>7.1</ele>
        <time>2020-09-27T11:22:11.000Z</time>
      </trkpt>
      <trkpt lat="47.31545" lon="-1.54327">
        <ele>7</ele>
        <time>2020-09-27T11:22:12.000Z</time>
      </trkpt>
      <trkpt lat="47.31541" lon="-1.54327">
        <ele>6.9</ele>
        <time>2020-09-27T11:22:13.000Z</time>
      </trkpt>
      <trkpt lat="47.31537" lon="-1.54327">
        <ele>6.8</ele>
        <time>2020-09-27T11:22:14.000Z</time>
      </trkpt>
      <trkpt lat="47.31534" lon="-1.54327">
        <ele>6.7</ele>
        <time>2020-09-27T11:22:15.000Z</time>
      </trkpt>
      <trkpt lat="47.3153" lon="-1.54327">
        <ele>6.7</ele>
        <time>2020-09-27T11:22:16.000Z</time>
      </trkpt>
      <trkpt lat="47.31526" lon="-1.54326">
        <ele>6.6</ele>
        <time>2020-09-27T11:22:17.000Z</time>
      </trkpt>
      <trkpt lat="47.31523" lon="-1.54326">
        <ele>6.5</ele>
        <time>2020-09-27T11:22:18.000Z</time>
      </trkpt>
      <trkpt lat="47.31519" lon="-1.54325">
        <ele>6.4</ele>
        <time>2020-09-27T11:22:19.000Z</time>
      </trkpt>
      <trkpt lat="47.31516" lon="-1.54326">
        <ele>6.4</ele>
        <time>2020-09-27T11:22:20.000Z</time>
      </trkpt>
      <trkpt lat="47.31513" lon="-1.54327">
        <ele>6.3</ele>
        <time>2020-09-27T11:22:21.000Z</time>
      </trkpt>
      <trkpt lat="47.3151" lon="-1.54329">
        <ele>6.2</ele>
        <time>2020-09-27T11:22:22.000Z</time>
      </trkpt>
      <trkpt lat="47.31506" lon="-1.54331">
        <ele>6.1</ele>
        <time>2020-09-27T11:22:23.000Z</time>
      </trkpt>
      <trkpt lat="47.31502" lon="-1.54332">
        <ele>6.1</ele>
        <time>2020-09-27T11:22:24.000Z</time>
      </trkpt>
      <trkpt lat="47.31498" lon="-1.54334">
        <ele>6</ele>
        <time>2020-09-27T11:22:25.000Z</time>
      </trkpt>
      <trkpt lat="47.31494" lon="-1.54334">
        <ele>6.1</ele>
        <time>2020-09-27T11:22:26.000Z</time>
      </trkpt>
      <trkpt lat="47.3149" lon="-1.54334">
        <ele>6.2</ele>
        <time>2020-09-27T11:22:27.000Z</time>
      </trkpt>
      <trkpt lat="47.31486" lon="-1.54334">
        <ele>6.3</ele>
        <time>2020-09-27T11:22:28.000Z</time>
      </trkpt>
      <trkpt lat="47.31482" lon="-1.54334">
        <ele>6.4</ele>
        <time>2020-09-27T11:22:29.000Z</time>
      </trkpt>
      <trkpt lat="47.31478" lon="-1.54333">
        <ele>6.5</ele>
        <time>2020-09-27T11:22:30.000Z</time>
      </trkpt>
      <trkpt lat="47.31473" lon="-1.54333">
        <ele>6.6</ele>
        <time>2020-09-27T11:22:31.000Z</time>
      </trkpt>
      <trkpt lat="47.31469" lon="-1.54333">
        <ele>6.8</ele>
        <time>2020-09-27T11:22:32.000Z</time>
      </trkpt>
      <trkpt lat="47.31464" lon="-1.54333">
        <ele>6.9</ele>
        <time>2020-09-27T11:22:33.000Z</time>
      </trkpt>
      <trkpt lat="47.3146" lon="-1.54332">
        <ele>7</ele>
        <time>2020-09-27T11:22:34.000Z</time>
      </trkpt>
      <trkpt lat="47.31456" lon="-1.54332">
        <ele>7.1</ele>
        <time>2020-09-27T11:22:35.000Z</time>
      </trkpt>
      <trkpt lat="47.31452" lon="-1.54331">
        <ele>7.2</ele>
        <time>2020-09-27T11:22:36.000Z</time>
      </trkpt>
      <trkpt lat="47.31448" lon="-1.54331">
        <ele>7.3</ele>
        <time>2020-09-27T11:22:37.000Z</time>
      </trkpt>
      <trkpt lat="47.31444" lon="-1.5433">
        <ele>7.4</ele>
        <time>2020-09-27T11:22:38.000Z</time>
      </trkpt>
      <trkpt lat="47.3144" lon="-1.54329">
        <ele>7.5</ele>
        <time>2020-09-27T11:22:39.000Z</time>
      </trkpt>
      <trkpt lat="47.31436" lon="-1.54328">
        <ele>7.6</ele>
        <time>2020-09-27T11:22:40.000Z</time>
      </trkpt>
      <trkpt lat="47.31432" lon="-1.54327">
        <ele>7.7</ele>
        <time>2020-09-27T11:22:41.000Z</time>
      </trkpt>
      <trkpt lat="47.31428" lon="-1.54325">
        <ele>7.8</ele>
        <time>2020-09-27T11:22:42.000Z</time>
      </trkpt>
      <trkpt lat="47.31423" lon="-1.54324">
        <ele>7.9</ele>
        <time>2020-09-27T11:22:43.000Z</time>
      </trkpt>
      <trkpt lat="47.31419" lon="-1.54323">
        <ele>8.1</ele>
        <time>2020-09-27T11:22:44.000Z</time>
      </trkpt>
      <trkpt lat="47.31415" lon="-1.54322">
        <ele>8.2</ele>
        <time>2020-09-27T11:22:45.000Z</time>
      </trkpt>
      <trkpt lat="47.3141" lon="-1.54321">
        <ele>8.2</ele>
        <time>2020-09-27T11:22:46.000Z</time>
      </trkpt>
      <trkpt lat="47.31406" lon="-1.54321">
        <ele>8.2</ele>
        <time>2020-09-27T11:22:47.000Z</time>
      </trkpt>
      <trkpt lat="47.31402" lon="-1.5432">
        <ele>8.3</ele>
        <time>2020-09-27T11:22:48.000Z</time>
      </trkpt>
      <trkpt lat="47.31397" lon="-1.5432">
        <ele>8.3</ele>
        <time>2020-09-27T11:22:49.000Z</time>
      </trkpt>
      <trkpt lat="47.31393" lon="-1.54319">
        <ele>8.4</ele>
        <time>2020-09-27T11:22:50.000Z</time>
      </trkpt>
      <trkpt lat="47.31388" lon="-1.54319">
        <ele>8.4</ele>
        <time>2020-09-27T11:22:51.000Z</time>
      </trkpt>
      <trkpt lat="47.31384" lon="-1.54318">
        <ele>8.4</ele>
        <time>2020-09-27T11:22:52.000Z</time>
      </trkpt>
      <trkpt lat="47.31379" lon="-1.54318">
        <ele>8.5</ele>
        <time>2020-09-27T11:22:53.000Z</time>
      </trkpt>
      <trkpt lat="47.31375" lon="-1.54317">
        <ele>8.5</ele>
        <time>2020-09-27T11:22:54.000Z</time>
      </trkpt>
      <trkpt lat="47.3137" lon="-1.54316">
        <ele>8.5</ele>
        <time>2020-09-27T11:22:55.000Z</time>
      </trkpt>
      <trkpt lat="47.31366" lon="-1.54316">
        <ele>8.6</ele>
        <time>2020-09-27T11:22:56.000Z</time>
      </trkpt>
      <trkpt lat="47.31362" lon="-1.54315">
        <ele>8.6</ele>
        <time>2020-09-27T11:22:57.000Z</time>
      </trkpt>
      <trkpt lat="47.31357" lon="-1.54314">
        <ele>8.6</ele>
        <time>2020-09-27T11:22:58.000Z</time>
      </trkpt>
      <trkpt lat="47.31353" lon="-1.54313">
        <ele>8.6</ele>
        <time>2020-09-27T11:22:59.000Z</time>
      </trkpt>
      <trkpt lat="47.31349" lon="-1.54312">
        <ele>8.7</ele>
        <time>2020-09-27T11:23:00.000Z</time>
      </trkpt>
      <trkpt lat="47.31345" lon="-1.54311">
        <ele>8.7</ele>
        <time>2020-09-27T11:23:01.000Z</time>
      </trkpt>
      <trkpt lat="47.31341" lon="-1.5431">
        <ele>8.7</ele>
        <time>2020-09-27T11:23:02.000Z</time>
      </trkpt>
      <trkpt lat="47.31337" lon="-1.54309">
        <ele>8.7</ele>
        <time>2020-09-27T11:23:03.000Z</time>
      </trkpt>
      <trkpt lat="47.31333" lon="-1.54308">
        <ele>8.7</ele>
        <time>2020-09-27T11:23:04.000Z</time>
      </trkpt>
      <trkpt lat="47.31329" lon="-1.54307">
        <ele>8.6</ele>
        <time>2020-09-27T11:23:05.000Z</time>
      </trkpt>
      <trkpt lat="47.31325" lon="-1.54306">
        <ele>8.5</ele>
        <time>2020-09-27T11:23:06.000Z</time>
      </trkpt>
      <trkpt lat="47.3132" lon="-1.54305">
        <ele>8.3</ele>
        <time>2020-09-27T11:23:07.000Z</time>
      </trkpt>
      <trkpt lat="47.31316" lon="-1.54305">
        <ele>8.2</ele>
        <time>2020-09-27T11:23:08.000Z</time>
      </trkpt>
      <trkpt lat="47.31311" lon="-1.54304">
        <ele>8.1</ele>
        <time>2020-09-27T11:23:09.000Z</time>
      </trkpt>
      <trkpt lat="47.31307" lon="-1.54304">
        <ele>8</ele>
        <time>2020-09-27T11:23:10.000Z</time>
      </trkpt>
      <trkpt lat="47.31302" lon="-1.54304">
        <ele>7.9</ele>
        <time>2020-09-27T11:23:11.000Z</time>
      </trkpt>
      <trkpt lat="47.31298" lon="-1.54304">
        <ele>7.8</ele>
        <time>2020-09-27T11:23:12.000Z</time>
      </trkpt>
      <trkpt lat="47.31293" lon="-1.54304">
        <ele>7.7</ele>
        <time>2020-09-27T11:23:13.000Z</time>
      </trkpt>
      <trkpt lat="47.31289" lon="-1.54304">
        <ele>7.6</ele>
        <time>2020-09-27T11:23:14.000Z</time>
      </trkpt>
      <trkpt lat="47.31285" lon="-1.54303">
        <ele>7.5</ele>
        <time>2020-09-27T11:23:15.000Z</time>
      </trkpt>
      <trkpt lat="47.31281" lon="-1.54303">
        <ele>7.4</ele>
        <time>2020-09-27T11:23:16.000Z</time>
      </trkpt>
      <trkpt lat="47.31277" lon="-1.54303">
        <ele>7.3</ele>
        <time>2020-09-27T11:23:17.000Z</time>
      </trkpt>
      <trkpt lat="47.31273" lon="-1.54303">
        <ele>7.2</ele>
        <time>2020-09-27T11:23:18.000Z</time>
      </trkpt>
      <trkpt lat="47.3127" lon="-1.54304">
        <ele>7.1</ele>
        <time>2020-09-27T11:23:19.000Z</time>
      </trkpt>
      <trkpt lat="47.31266" lon="-1.54304">
        <ele>7</ele>
        <time>2020-09-27T11:23:20.000Z</time>
      </trkpt>
      <trkpt lat="47.31263" lon="-1.54304">
        <ele>7</ele>
        <time>2020-09-27T11:23:21.000Z</time>
      </trkpt>
      <trkpt lat="47.31259" lon="-1.54305">
        <ele>6.9</ele>
        <time>2020-09-27T11:23:22.000Z</time>
      </trkpt>
      <trkpt lat="47.31255" lon="-1.54306">
        <ele>6.8</ele>
        <time>2020-09-27T11:23:23.000Z</time>
      </trkpt>
      <trkpt lat="47.31252" lon="-1.54308">
        <ele>6.7</ele>
        <time>2020-09-27T11:23:24.000Z</time>
      </trkpt>
      <trkpt lat="47.31249" lon="-1.5431">
        <ele>6.8</ele>
        <time>2020-09-27T11:23:25.000Z</time>
      </trkpt>
      <trkpt lat="47.31246" lon="-1.54313">
        <ele>6.9</ele>
        <time>2020-09-27T11:23:26.000Z</time>
      </trkpt>
      <trkpt lat="47.31244" lon="-1.54317">
        <ele>7</ele>
        <time>2020-09-27T11:23:27.000Z</time>
      </trkpt>
      <trkpt lat="47.31242" lon="-1.54321">
        <ele>7.2</ele>
        <time>2020-09-27T11:23:28.000Z</time>
      </trkpt>
      <trkpt lat="47.31239" lon="-1.54324">
        <ele>7.3</ele>
        <time>2020-09-27T11:23:29.000Z</time>
      </trkpt>
      <trkpt lat="47.31236" lon="-1.54326">
        <ele>7.5</ele>
        <time>2020-09-27T11:23:30.000Z</time>
      </trkpt>
      <trkpt lat="47.31233" lon="-1.54328">
        <ele>7.7</ele>
        <time>2020-09-27T11:23:31.000Z</time>
      </trkpt>
      <trkpt lat="47.3123" lon="-1.54329">
        <ele>7.8</ele>
        <time>2020-09-27T11:23:32.000Z</time>
      </trkpt>
      <trkpt lat="47.31227" lon="-1.54329">
        <ele>8</ele>
        <time>2020-09-27T11:23:33.000Z</time>
      </trkpt>
      <trkpt lat="47.31224" lon="-1.54329">
        <ele>8.1</ele>
        <time>2020-09-27T11:23:34.000Z</time>
      </trkpt>
      <trkpt lat="47.31221" lon="-1.54328">
        <ele>8.2</ele>
        <time>2020-09-27T11:23:35.000Z</time>
      </trkpt>
      <trkpt lat="47.31218" lon="-1.54327">
        <ele>8.3</ele>
        <time>2020-09-27T11:23:36.000Z</time>
      </trkpt>
      <trkpt lat="47.31215" lon="-1.54325">
        <ele>8.4</ele>
        <time>2020-09-27T11:23:37.000Z</time>
      </trkpt>
      <trkpt lat="47.31213" lon="-1.54322">
        <ele>8.4</ele>
        <time>2020-09-27T11:23:38.000Z</time>
      </trkpt>
      <trkpt lat="47.3121" lon="-1.5432">
        <ele>8.4</ele>
        <time>2020-09-27T11:23:39.000Z</time>
      </trkpt>
      <trkpt lat="47.31207" lon="-1.54317">
        <ele>8.4</ele>
        <time>2020-09-27T11:23:40.000Z</time>
      </trkpt>
      <trkpt lat="47.31205" lon="-1.54313">
        <ele>8.4</ele>
        <time>2020-09-27T11:23:41.000Z</time>
      </trkpt>
      <trkpt lat="47.31202" lon="-1.5431">
        <ele>8.4</ele>
        <time>2020-09-27T11:23:42.000Z</time>
      </trkpt>
      <trkpt lat="47.31199" lon="-1.54307">
        <ele>8.4</ele>
        <time>2020-09-27T11:23:43.000Z</time>
      </trkpt>
      <trkpt lat="47.31196" lon="-1.54305">
        <ele>8.4</ele>
        <time>2020-09-27T11:23:44.000Z</time>
      </trkpt>
      <trkpt lat="47.31192" lon="-1.54302">
        <ele>8.4</ele>
        <time>2020-09-27T11:23:45.000Z</time>
      </trkpt>
      <trkpt lat="47.31188" lon="-1.54301">
        <ele>8.4</ele>
        <time>2020-09-27T11:23:46.000Z</time>
      </trkpt>
      <trkpt lat="47.31184" lon="-1.54299">
        <ele>8.5</ele>
        <time>2020-09-27T11:23:47.000Z</time>
      </trkpt>
      <trkpt lat="47.31179" lon="-1.54298">
        <ele>8.5</ele>
        <time>2020-09-27T11:23:48.000Z</time>
      </trkpt>
      <trkpt lat="47.31175" lon="-1.54297">
        <ele>8.6</ele>
        <time>2020-09-27T11:23:49.000Z</time>
      </trkpt>
      <trkpt lat="47.3117" lon="-1.54296">
        <ele>8.7</ele>
        <time>2020-09-27T11:23:50.000Z</time>
      </trkpt>
      <trkpt lat="47.31165" lon="-1.54295">
        <ele>8.8</ele>
        <time>2020-09-27T11:23:51.000Z</time>
      </trkpt>
      <trkpt lat="47.3116" lon="-1.54295">
        <ele>8.8</ele>
        <time>2020-09-27T11:23:52.000Z</time>
      </trkpt>
      <trkpt lat="47.31155" lon="-1.54294">
        <ele>8.9</ele>
        <time>2020-09-27T11:23:53.000Z</time>
      </trkpt>
      <trkpt lat="47.3115" lon="-1.54294">
        <ele>9</ele>
        <time>2020-09-27T11:23:54.000Z</time>
      </trkpt>
      <trkpt lat="47.31145" lon="-1.54294">
        <ele>9.1</ele>
        <time>2020-09-27T11:23:55.000Z</time>
      </trkpt>
      <trkpt lat="47.3114" lon="-1.54294">
        <ele>9.3</ele>
        <time>2020-09-27T11:23:56.000Z</time>
      </trkpt>
      <trkpt lat="47.31135" lon="-1.54294">
        <ele>9.4</ele>
        <time>2020-09-27T11:23:57.000Z</time>
      </trkpt>
      <trkpt lat="47.3113" lon="-1.54294">
        <ele>9.5</ele>
        <time>2020-09-27T11:23:58.000Z</time>
      </trkpt>
      <trkpt lat="47.31126" lon="-1.54294">
        <ele>9.6</ele>
        <time>2020-09-27T11:23:59.000Z</time>
      </trkpt>
      <trkpt lat="47.31121" lon="-1.54294">
        <ele>9.7</ele>
        <time>2020-09-27T11:24:00.000Z</time>
      </trkpt>
      <trkpt lat="47.31117" lon="-1.54294">
        <ele>9.8</ele>
        <time>2020-09-27T11:24:01.000Z</time>
      </trkpt>
      <trkpt lat="47.31112" lon="-1.54294">
        <ele>9.9</ele>
        <time>2020-09-27T11:24:02.000Z</time>
      </trkpt>
      <trkpt lat="47.31108" lon="-1.54294">
        <ele>10</ele>
        <time>2020-09-27T11:24:03.000Z</time>
      </trkpt>
      <trkpt lat="47.31103" lon="-1.54293">
        <ele>10.1</ele>
        <time>2020-09-27T11:24:04.000Z</time>
      </trkpt>
      <trkpt lat="47.31099" lon="-1.54293">
        <ele>10.2</ele>
        <time>2020-09-27T11:24:05.000Z</time>
      </trkpt>
      <trkpt lat="47.31095" lon="-1.54292">
        <ele>10.3</ele>
        <time>2020-09-27T11:24:06.000Z</time>
      </trkpt>
      <trkpt lat="47.3109" lon="-1.54292">
        <ele>10.4</ele>
        <time>2020-09-27T11:24:07.000Z</time>
      </trkpt>
      <trkpt lat="47.31086" lon="-1.54291">
        <ele>10.4</ele>
        <time>2020-09-27T11:24:08.000Z</time>
      </trkpt>
      <trkpt lat="47.31081" lon="-1.54291">
        <ele>10.5</ele>
        <time>2020-09-27T11:24:09.000Z</time>
      </trkpt>
      <trkpt lat="47.31077" lon="-1.5429">
        <ele>10.6</ele>
        <time>2020-09-27T11:24:10.000Z</time>
      </trkpt>
      <trkpt lat="47.31073" lon="-1.54289">
        <ele>10.7</ele>
        <time>2020-09-27T11:24:11.000Z</time>
      </trkpt>
      <trkpt lat="47.31068" lon="-1.54289">
        <ele>10.8</ele>
        <time>2020-09-27T11:24:12.000Z</time>
      </trkpt>
      <trkpt lat="47.31064" lon="-1.54288">
        <ele>10.9</ele>
        <time>2020-09-27T11:24:13.000Z</time>
      </trkpt>
      <trkpt lat="47.3106" lon="-1.54288">
        <ele>11</ele>
        <time>2020-09-27T11:24:14.000Z</time>
      </trkpt>
      <trkpt lat="47.31055" lon="-1.54287">
        <ele>11.1</ele>
        <time>2020-09-27T11:24:15.000Z</time>
      </trkpt>
      <trkpt lat="47.31051" lon="-1.54287">
        <ele>11.2</ele>
        <time>2020-09-27T11:24:16.000Z</time>
      </trkpt>
      <trkpt lat="47.31047" lon="-1.54286">
        <ele>11.4</ele>
        <time>2020-09-27T11:24:17.000Z</time>
      </trkpt>
      <trkpt lat="47.31042" lon="-1.54286">
        <ele>11.5</ele>
        <time>2020-09-27T11:24:18.000Z</time>
      </trkpt>
      <trkpt lat="47.31038" lon="-1.54286">
        <ele>11.6</ele>
        <time>2020-09-27T11:24:19.000Z</time>
      </trkpt>
      <trkpt lat="47.31034" lon="-1.54286">
        <ele>11.7</ele>
        <time>2020-09-27T11:24:20.000Z</time>
      </trkpt>
      <trkpt lat="47.3103" lon="-1.54285">
        <ele>11.9</ele>
        <time>2020-09-27T11:24:21.000Z</time>
      </trkpt>
      <trkpt lat="47.31026" lon="-1.54285">
        <ele>12</ele>
        <time>2020-09-27T11:24:22.000Z</time>
      </trkpt>
      <trkpt lat="47.31021" lon="-1.54285">
        <ele>12.1</ele>
        <time>2020-09-27T11:24:23.000Z</time>
      </trkpt>
      <trkpt lat="47.31017" lon="-1.54284">
        <ele>12.2</ele>
        <time>2020-09-27T11:24:24.000Z</time>
      </trkpt>
      <trkpt lat="47.31013" lon="-1.54284">
        <ele>12.4</ele>
        <time>2020-09-27T11:24:25.000Z</time>
      </trkpt>
      <trkpt lat="47.31009" lon="-1.54283">
        <ele>12.5</ele>
        <time>2020-09-27T11:24:26.000Z</time>
      </trkpt>
      <trkpt lat="47.31005" lon="-1.54283">
        <ele>12.6</ele>
        <time>2020-09-27T11:24:27.000Z</time>
      </trkpt>
      <trkpt lat="47.31" lon="-1.54284">
        <ele>12.8</ele>
        <time>2020-09-27T11:24:28.000Z</time>
      </trkpt>
      <trkpt lat="47.30996" lon="-1.54285">
        <ele>12.9</ele>
        <time>2020-09-27T11:24:29.000Z</time>
      </trkpt>
      <trkpt lat="47.30992" lon="-1.54286">
        <ele>13.1</ele>
        <time>2020-09-27T11:24:30.000Z</time>
      </trkpt>
      <trkpt lat="47.30988" lon="-1.54288">
        <ele>13.2</ele>
        <time>2020-09-27T11:24:31.000Z</time>
      </trkpt>
      <trkpt lat="47.30984" lon="-1.54289">
        <ele>13.3</ele>
        <time>2020-09-27T11:24:32.000Z</time>
      </trkpt>
      <trkpt lat="47.3098" lon="-1.54291">
        <ele>13.5</ele>
        <time>2020-09-27T11:24:33.000Z</time>
      </trkpt>
      <trkpt lat="47.30976" lon="-1.54292">
        <ele>13.6</ele>
        <time>2020-09-27T11:24:34.000Z</time>
      </trkpt>
      <trkpt lat="47.30972" lon="-1.54292">
        <ele>13.7</ele>
        <time>2020-09-27T11:24:35.000Z</time>
      </trkpt>
      <trkpt lat="47.30968" lon="-1.54293">
        <ele>13.8</ele>
        <time>2020-09-27T11:24:36.000Z</time>
      </trkpt>
      <trkpt lat="47.30964" lon="-1.54292">
        <ele>13.9</ele>
        <time>2020-09-27T11:24:37.000Z</time>
      </trkpt>
      <trkpt lat="47.3096" lon="-1.54291">
        <ele>13.9</ele>
        <time>2020-09-27T11:24:38.000Z</time>
      </trkpt>
      <trkpt lat="47.30956" lon="-1.54289">
        <ele>14</ele>
        <time>2020-09-27T11:24:39.000Z</time>
      </trkpt>
      <trkpt lat="47.30953" lon="-1.54287">
        <ele>14.1</ele>
        <time>2020-09-27T11:24:40.000Z</time>
      </trkpt>
      <trkpt lat="47.30949" lon="-1.54284">
        <ele>14.2</ele>
        <time>2020-09-27T11:24:41.000Z</time>
      </trkpt>
      <trkpt lat="47.30945" lon="-1.54282">
        <ele>14.3</ele>
        <time>2020-09-27T11:24:42.000Z</time>
      </trkpt>
      <trkpt lat="47.3094" lon="-1.54279">
        <ele>14.3</ele>
        <time>2020-09-27T11:24:43.000Z</time>
      </trkpt>
      <trkpt lat="47.30936" lon="-1.54277">
        <ele>14.5</ele>
        <time>2020-09-27T11:24:44.000Z</time>
      </trkpt>
      <trkpt lat="47.30932" lon="-1.54276">
        <ele>14.6</ele>
        <time>2020-09-27T11:24:45.000Z</time>
      </trkpt>
      <trkpt lat="47.30928" lon="-1.54275">
        <ele>14.7</ele>
        <time>2020-09-27T11:24:46.000Z</time>
      </trkpt>
      <trkpt lat="47.30923" lon="-1.54275">
        <ele>14.8</ele>
        <time>2020-09-27T11:24:47.000Z</time>
      </trkpt>
      <trkpt lat="47.30919" lon="-1.54275">
        <ele>14.9</ele>
        <time>2020-09-27T11:24:48.000Z</time>
      </trkpt>
      <trkpt lat="47.30914" lon="-1.54275">
        <ele>15.1</ele>
        <time>2020-09-27T11:24:49.000Z</time>
      </trkpt>
      <trkpt lat="47.3091" lon="-1.54274">
        <ele>15.3</ele>
        <time>2020-09-27T11:24:50.000Z</time>
      </trkpt>
      <trkpt lat="47.30905" lon="-1.54274">
        <ele>15.4</ele>
        <time>2020-09-27T11:24:51.000Z</time>
      </trkpt>
      <trkpt lat="47.30901" lon="-1.54274">
        <ele>15.6</ele>
        <time>2020-09-27T11:24:52.000Z</time>
      </trkpt>
      <trkpt lat="47.30896" lon="-1.54273">
        <ele>15.7</ele>
        <time>2020-09-27T11:24:53.000Z</time>
      </trkpt>
      <trkpt lat="47.30891" lon="-1.54273">
        <ele>15.9</ele>
        <time>2020-09-27T11:24:54.000Z</time>
      </trkpt>
      <trkpt lat="47.30887" lon="-1.54273">
        <ele>16.1</ele>
        <time>2020-09-27T11:24:55.000Z</time>
      </trkpt>
      <trkpt lat="47.30883" lon="-1.54272">
        <ele>16.2</ele>
        <time>2020-09-27T11:24:56.000Z</time>
      </trkpt>
      <trkpt lat="47.30878" lon="-1.54272">
        <ele>16.4</ele>
        <time>2020-09-27T11:24:57.000Z</time>
      </trkpt>
      <trkpt lat="47.30874" lon="-1.54273">
        <ele>16.5</ele>
        <time>2020-09-27T11:24:58.000Z</time>
      </trkpt>
      <trkpt lat="47.3087" lon="-1.54273">
        <ele>16.7</ele>
        <time>2020-09-27T11:24:59.000Z</time>
      </trkpt>
      <trkpt lat="47.30866" lon="-1.54274">
        <ele>16.8</ele>
        <time>2020-09-27T11:25:00.000Z</time>
      </trkpt>
      <trkpt lat="47.30863" lon="-1.54275">
        <ele>16.9</ele>
        <time>2020-09-27T11:25:01.000Z</time>
      </trkpt>
      <trkpt lat="47.30859" lon="-1.54277">
        <ele>17.1</ele>
        <time>2020-09-27T11:25:02.000Z</time>
      </trkpt>
      <trkpt lat="47.30856" lon="-1.54278">
        <ele>17.2</ele>
        <time>2020-09-27T11:25:03.000Z</time>
      </trkpt>
      <trkpt lat="47.30853" lon="-1.5428">
        <ele>17.3</ele>
        <time>2020-09-27T11:25:04.000Z</time>
      </trkpt>
      <trkpt lat="47.3085" lon="-1.54282">
        <ele>17.4</ele>
        <time>2020-09-27T11:25:05.000Z</time>
      </trkpt>
      <trkpt lat="47.30847" lon="-1.54284">
        <ele>17.5</ele>
        <time>2020-09-27T11:25:06.000Z</time>
      </trkpt>
      <trkpt lat="47.30845" lon="-1.54285">
        <ele>17.6</ele>
        <time>2020-09-27T11:25:07.000Z</time>
      </trkpt>
      <trkpt lat="47.30843" lon="-1.54287">
        <ele>17.7</ele>
        <time>2020-09-27T11:25:08.000Z</time>
      </trkpt>
      <trkpt lat="47.3084" lon="-1.54288">
        <ele>17.8</ele>
        <time>2020-09-27T11:25:09.000Z</time>
      </trkpt>
      <trkpt lat="47.30838" lon="-1.54289">
        <ele>17.8</ele>
        <time>2020-09-27T11:25:10.000Z</time>
      </trkpt>
      <trkpt lat="47.30835" lon="-1.5429">
        <ele>17.9</ele>
        <time>2020-09-27T11:25:11.000Z</time>
      </trkpt>
      <trkpt lat="47.30833" lon="-1.54292">
        <ele>18</ele>
        <time>2020-09-27T11:25:12.000Z</time>
      </trkpt>
      <trkpt lat="47.3083" lon="-1.54293">
        <ele>18.2</ele>
        <time>2020-09-27T11:25:13.000Z</time>
      </trkpt>
      <trkpt lat="47.30827" lon="-1.54294">
        <ele>18.4</ele>
        <time>2020-09-27T11:25:14.000Z</time>
      </trkpt>
      <trkpt lat="47.30825" lon="-1.54295">
        <ele>18.5</ele>
        <time>2020-09-27T11:25:15.000Z</time>
      </trkpt>
      <trkpt lat="47.30822" lon="-1.54296">
        <ele>18.7</ele>
        <time>2020-09-27T11:25:16.000Z</time>
      </trkpt>
      <trkpt lat="47.30819" lon="-1.54297">
        <ele>18.9</ele>
        <time>2020-09-27T11:25:17.000Z</time>
      </trkpt>
      <trkpt lat="47.30816" lon="-1.54298">
        <ele>19</ele>
        <time>2020-09-27T11:25:18.000Z</time>
      </trkpt>
      <trkpt lat="47.30812" lon="-1.54299">
        <ele>19.2</ele>
        <time>2020-09-27T11:25:19.000Z</time>
      </trkpt>
      <trkpt lat="47.30809" lon="-1.54299">
        <ele>19.4</ele>
        <time>2020-09-27T11:25:20.000Z</time>
      </trkpt>
      <trkpt lat="47.30806" lon="-1.543">
        <ele>19.6</ele>
        <time>2020-09-27T11:25:21.000Z</time>
      </trkpt>
      <trkpt lat="47.30803" lon="-1.54301">
        <ele>19.7</ele>
        <time>2020-09-27T11:25:22.000Z</time>
      </trkpt>
      <trkpt lat="47.308" lon="-1.54301">
        <ele>19.9</ele>
        <time>2020-09-27T11:25:23.000Z</time>
      </trkpt>
      <trkpt lat="47.30797" lon="-1.54302">
        <ele>20.1</ele>
        <time>2020-09-27T11:25:24.000Z</time>
      </trkpt>
      <trkpt lat="47.30794" lon="-1.54302">
        <ele>20.2</ele>
        <time>2020-09-27T11:25:25.000Z</time>
      </trkpt>
      <trkpt lat="47.30791" lon="-1.54302">
        <ele>20.4</ele>
        <time>2020-09-27T11:25:26.000Z</time>
      </trkpt>
      <trkpt lat="47.30788" lon="-1.54303">
        <ele>20.6</ele>
        <time>2020-09-27T11:25:27.000Z</time>
      </trkpt>
      <trkpt lat="47.30785" lon="-1.54302">
        <ele>20.7</ele>
        <time>2020-09-27T11:25:28.000Z</time>
      </trkpt>
      <trkpt lat="47.30782" lon="-1.54302">
        <ele>20.9</ele>
        <time>2020-09-27T11:25:29.000Z</time>
      </trkpt>
      <trkpt lat="47.30779" lon="-1.54302">
        <ele>21.1</ele>
        <time>2020-09-27T11:25:30.000Z</time>
      </trkpt>
      <trkpt lat="47.30776" lon="-1.54301">
        <ele>21.3</ele>
        <time>2020-09-27T11:25:31.000Z</time>
      </trkpt>
      <trkpt lat="47.30773" lon="-1.54301">
        <ele>21.4</ele>
        <time>2020-09-27T11:25:32.000Z</time>
      </trkpt>
      <trkpt lat="47.3077" lon="-1.54301">
        <ele>21.6</ele>
        <time>2020-09-27T11:25:33.000Z</time>
      </trkpt>
      <trkpt lat="47.30767" lon="-1.54301">
        <ele>21.8</ele>
        <time>2020-09-27T11:25:34.000Z</time>
      </trkpt>
      <trkpt lat="47.30764" lon="-1.54301">
        <ele>22</ele>
        <time>2020-09-27T11:25:35.000Z</time>
      </trkpt>
      <trkpt lat="47.3076" lon="-1.54301">
        <ele>22.2</ele>
        <time>2020-09-27T11:25:36.000Z</time>
      </trkpt>
      <trkpt lat="47.30757" lon="-1.54302">
        <ele>22.4</ele>
        <time>2020-09-27T11:25:37.000Z</time>
      </trkpt>
      <trkpt lat="47.30753" lon="-1.54304">
        <ele>22.5</ele>
        <time>2020-09-27T11:25:38.000Z</time>
      </trkpt>
      <trkpt lat="47.3075" lon="-1.54305">
        <ele>22.7</ele>
        <time>2020-09-27T11:25:39.000Z</time>
      </trkpt>
      <trkpt lat="47.30747" lon="-1.54307">
        <ele>22.8</ele>
        <time>2020-09-27T11:25:40.000Z</time>
      </trkpt>
      <trkpt lat="47.30743" lon="-1.54309">
        <ele>22.9</ele>
        <time>2020-09-27T11:25:41.000Z</time>
      </trkpt>
      <trkpt lat="47.3074" lon="-1.54312">
        <ele>23</ele>
        <time>2020-09-27T11:25:42.000Z</time>
      </trkpt>
      <trkpt lat="47.30736" lon="-1.54314">
        <ele>23</ele>
        <time>2020-09-27T11:25:43.000Z</time>
      </trkpt>
      <trkpt lat="47.30733" lon="-1.54317">
        <ele>23.1</ele>
        <time>2020-09-27T11:25:44.000Z</time>
      </trkpt>
      <trkpt lat="47.30729" lon="-1.5432">
        <ele>23.3</ele>
        <time>2020-09-27T11:25:45.000Z</time>
      </trkpt>
      <trkpt lat="47.30725" lon="-1.54323">
        <ele>23.4</ele>
        <time>2020-09-27T11:25:46.000Z</time>
      </trkpt>
      <trkpt lat="47.30722" lon="-1.54325">
        <ele>23.5</ele>
        <time>2020-09-27T11:25:47.000Z</time>
      </trkpt>
      <trkpt lat="47.30718" lon="-1.54328">
        <ele>23.6</ele>
        <time>2020-09-27T11:25:48.000Z</time>
      </trkpt>
      <trkpt lat="47.30715" lon="-1.54331">
        <ele>23.7</ele>
        <time>2020-09-27T11:25:49.000Z</time>
      </trkpt>
      <trkpt lat="47.30712" lon="-1.54333">
        <ele>23.8</ele>
        <time>2020-09-27T11:25:50.000Z</time>
      </trkpt>
      <trkpt lat="47.30709" lon="-1.54336">
        <ele>24</ele>
        <time>2020-09-27T11:25:51.000Z</time>
      </trkpt>
      <trkpt lat="47.30706" lon="-1.54338">
        <ele>24.2</ele>
        <time>2020-09-27T11:25:52.000Z</time>
      </trkpt>
      <trkpt lat="47.30704" lon="-1.54341">
        <ele>24.3</ele>
        <time>2020-09-27T11:25:53.000Z</time>
      </trkpt>
      <trkpt lat="47.30701" lon="-1.54343">
        <ele>24.5</ele>
        <time>2020-09-27T11:25:54.000Z</time>
      </trkpt>
      <trkpt lat="47.30699" lon="-1.54345">
        <ele>24.7</ele>
        <time>2020-09-27T11:25:55.000Z</time>
      </trkpt>
      <trkpt lat="47.30696" lon="-1.54348">
        <ele>24.8</ele>
        <time>2020-09-27T11:25:56.000Z</time>
      </trkpt>
      <trkpt lat="47.30693" lon="-1.5435">
        <ele>25</ele>
        <time>2020-09-27T11:25:57.000Z</time>
      </trkpt>
      <trkpt lat="47.3069" lon="-1.54352">
        <ele>25.2</ele>
        <time>2020-09-27T11:25:58.000Z</time>
      </trkpt>
      <trkpt lat="47.30688" lon="-1.54353">
        <ele>25.3</ele>
        <time>2020-09-27T11:25:59.000Z</time>
      </trkpt>
      <trkpt lat="47.30688" lon="-1.54354">
        <ele>25.3</ele>
        <time>2020-09-27T11:26:00.000Z</time>
      </trkpt>
      <trkpt lat="47.30687" lon="-1.54355">
        <ele>25.3</ele>
        <time>2020-09-27T11:26:01.000Z</time>
      </trkpt>
      <trkpt lat="47.30687" lon="-1.54355">
        <ele>25.3</ele>
        <time>2020-09-27T11:26:02.000Z</time>
      </trkpt>
      <trkpt lat="47.30687" lon="-1.54355">
        <ele>25.3</ele>
        <time>2020-09-27T11:26:03.000Z</time>
      </trkpt>
      <trkpt lat="47.30687" lon="-1.54355">
        <ele>25.3</ele>
        <time>2020-09-27T11:26:04.000Z</time>
      </trkpt>
      <trkpt lat="47.30687" lon="-1.54355">
        <ele>25.3</ele>
        <time>2020-09-27T11:26:05.000Z</time>
      </trkpt>
      <trkpt lat="47.30687" lon="-1.54355">
        <ele>25.3</ele>
        <time>2020-09-27T11:26:06.000Z</time>
      </trkpt>
      <trkpt lat="47.30687" lon="-1.54355">
        <ele>25.4</ele>
        <time>2020-09-27T11:26:07.000Z</time>
      </trkpt>
      <trkpt lat="47.30686" lon="-1.54356">
        <ele>25.4</ele>
        <time>2020-09-27T11:26:08.000Z</time>
      </trkpt>
      <trkpt lat="47.30686" lon="-1.54356">
        <ele>25.4</ele>
        <time>2020-09-27T11:26:09.000Z</time>
      </trkpt>
      <trkpt lat="47.30684" lon="-1.54357">
        <ele>25.5</ele>
        <time>2020-09-27T11:26:10.000Z</time>
      </trkpt>
      <trkpt lat="47.30683" lon="-1.54359">
        <ele>25.6</ele>
        <time>2020-09-27T11:26:11.000Z</time>
      </trkpt>
      <trkpt lat="47.30681" lon="-1.54361">
        <ele>25.7</ele>
        <time>2020-09-27T11:26:12.000Z</time>
      </trkpt>
      <trkpt lat="47.30678" lon="-1.54363">
        <ele>25.8</ele>
        <time>2020-09-27T11:26:13.000Z</time>
      </trkpt>
      <trkpt lat="47.30676" lon="-1.54365">
        <ele>26</ele>
        <time>2020-09-27T11:26:14.000Z</time>
      </trkpt>
      <trkpt lat="47.30673" lon="-1.54367">
        <ele>26.2</ele>
        <time>2020-09-27T11:26:15.000Z</time>
      </trkpt>
      <trkpt lat="47.3067" lon="-1.5437">
        <ele>26.3</ele>
        <time>2020-09-27T11:26:16.000Z</time>
      </trkpt>
      <trkpt lat="47.30667" lon="-1.54373">
        <ele>26.5</ele>
        <time>2020-09-27T11:26:17.000Z</time>
      </trkpt>
      <trkpt lat="47.30663" lon="-1.54375">
        <ele>26.5</ele>
        <time>2020-09-27T11:26:18.000Z</time>
      </trkpt>
      <trkpt lat="47.3066" lon="-1.54378">
        <ele>26.6</ele>
        <time>2020-09-27T11:26:19.000Z</time>
      </trkpt>
      <trkpt lat="47.30657" lon="-1.54381">
        <ele>26.7</ele>
        <time>2020-09-27T11:26:20.000Z</time>
      </trkpt>
      <trkpt lat="47.30654" lon="-1.54384">
        <ele>26.7</ele>
        <time>2020-09-27T11:26:21.000Z</time>
      </trkpt>
      <trkpt lat="47.30651" lon="-1.54387">
        <ele>26.8</ele>
        <time>2020-09-27T11:26:22.000Z</time>
      </trkpt>
      <trkpt lat="47.30648" lon="-1.54389">
        <ele>26.8</ele>
        <time>2020-09-27T11:26:23.000Z</time>
      </trkpt>
      <trkpt lat="47.30644" lon="-1.54392">
        <ele>26.9</ele>
        <time>2020-09-27T11:26:24.000Z</time>
      </trkpt>
      <trkpt lat="47.30641" lon="-1.54395">
        <ele>26.9</ele>
        <time>2020-09-27T11:26:25.000Z</time>
      </trkpt>
      <trkpt lat="47.30637" lon="-1.54398">
        <ele>26.9</ele>
        <time>2020-09-27T11:26:26.000Z</time>
      </trkpt>
      <trkpt lat="47.30634" lon="-1.54402">
        <ele>27</ele>
        <time>2020-09-27T11:26:27.000Z</time>
      </trkpt>
      <trkpt lat="47.3063" lon="-1.54405">
        <ele>27</ele>
        <time>2020-09-27T11:26:28.000Z</time>
      </trkpt>
      <trkpt lat="47.30627" lon="-1.54408">
        <ele>27</ele>
        <time>2020-09-27T11:26:29.000Z</time>
      </trkpt>
      <trkpt lat="47.30623" lon="-1.54411">
        <ele>27</ele>
        <time>2020-09-27T11:26:30.000Z</time>
      </trkpt>
      <trkpt lat="47.30619" lon="-1.54415">
        <ele>27</ele>
        <time>2020-09-27T11:26:31.000Z</time>
      </trkpt>
      <trkpt lat="47.30615" lon="-1.54418">
        <ele>27</ele>
        <time>2020-09-27T11:26:32.000Z</time>
      </trkpt>
      <trkpt lat="47.30611" lon="-1.54421">
        <ele>27</ele>
        <time>2020-09-27T11:26:33.000Z</time>
      </trkpt>
      <trkpt lat="47.30608" lon="-1.54425">
        <ele>27.1</ele>
        <time>2020-09-27T11:26:34.000Z</time>
      </trkpt>
      <trkpt lat="47.30604" lon="-1.54428">
        <ele>27.1</ele>
        <time>2020-09-27T11:26:35.000Z</time>
      </trkpt>
      <trkpt lat="47.30601" lon="-1.54431">
        <ele>27.1</ele>
        <time>2020-09-27T11:26:36.000Z</time>
      </trkpt>
      <trkpt lat="47.30598" lon="-1.54434">
        <ele>27.2</ele>
        <time>2020-09-27T11:26:37.000Z</time>
      </trkpt>
      <trkpt lat="47.30595" lon="-1.54437">
        <ele>27.2</ele>
        <time>2020-09-27T11:26:38.000Z</time>
      </trkpt>
      <trkpt lat="47.30592" lon="-1.5444">
        <ele>27.2</ele>
        <time>2020-09-27T11:26:39.000Z</time>
      </trkpt>
      <trkpt lat="47.30589" lon="-1.54442">
        <ele>27.3</ele>
        <time>2020-09-27T11:26:40.000Z</time>
      </trkpt>
      <trkpt lat="47.30587" lon="-1.54445">
        <ele>27.3</ele>
        <time>2020-09-27T11:26:41.000Z</time>
      </trkpt>
      <trkpt lat="47.30585" lon="-1.54447">
        <ele>27.4</ele>
        <time>2020-09-27T11:26:42.000Z</time>
      </trkpt>
      <trkpt lat="47.30583" lon="-1.54449">
        <ele>27.4</ele>
        <time>2020-09-27T11:26:43.000Z</time>
      </trkpt>
      <trkpt lat="47.30581" lon="-1.54451">
        <ele>27.4</ele>
        <time>2020-09-27T11:26:44.000Z</time>
      </trkpt>
      <trkpt lat="47.3058" lon="-1.54452">
        <ele>27.4</ele>
        <time>2020-09-27T11:26:45.000Z</time>
      </trkpt>
      <trkpt lat="47.30578" lon="-1.54453">
        <ele>27.3</ele>
        <time>2020-09-27T11:26:46.000Z</time>
      </trkpt>
      <trkpt lat="47.30577" lon="-1.54454">
        <ele>27.3</ele>
        <time>2020-09-27T11:26:47.000Z</time>
      </trkpt>
      <trkpt lat="47.30576" lon="-1.54455">
        <ele>27.3</ele>
        <time>2020-09-27T11:26:48.000Z</time>
      </trkpt>
      <trkpt lat="47.30575" lon="-1.54455">
        <ele>27.3</ele>
        <time>2020-09-27T11:26:49.000Z</time>
      </trkpt>
      <trkpt lat="47.30575" lon="-1.54456">
        <ele>27.3</ele>
        <time>2020-09-27T11:26:50.000Z</time>
      </trkpt>
      <trkpt lat="47.30574" lon="-1.54456">
        <ele>27.3</ele>
        <time>2020-09-27T11:26:51.000Z</time>
      </trkpt>
      <trkpt lat="47.30573" lon="-1.54457">
        <ele>27.3</ele>
        <time>2020-09-27T11:26:52.000Z</time>
      </trkpt>
      <trkpt lat="47.30572" lon="-1.54458">
        <ele>27.3</ele>
        <time>2020-09-27T11:26:53.000Z</time>
      </trkpt>
      <trkpt lat="47.30571" lon="-1.5446">
        <ele>27.3</ele>
        <time>2020-09-27T11:26:54.000Z</time>
      </trkpt>
      <trkpt lat="47.30569" lon="-1.54461">
        <ele>27.3</ele>
        <time>2020-09-27T11:26:55.000Z</time>
      </trkpt>
      <trkpt lat="47.30567" lon="-1.54464">
        <ele>27.2</ele>
        <time>2020-09-27T11:26:56.000Z</time>
      </trkpt>
      <trkpt lat="47.30564" lon="-1.54466">
        <ele>27.2</ele>
        <time>2020-09-27T11:26:57.000Z</time>
      </trkpt>
      <trkpt lat="47.30561" lon="-1.54469">
        <ele>27.2</ele>
        <time>2020-09-27T11:26:58.000Z</time>
      </trkpt>
      <trkpt lat="47.30558" lon="-1.54471">
        <ele>27.2</ele>
        <time>2020-09-27T11:26:59.000Z</time>
      </trkpt>
      <trkpt lat="47.30555" lon="-1.54474">
        <ele>27.1</ele>
        <time>2020-09-27T11:27:00.000Z</time>
      </trkpt>
      <trkpt lat="47.30552" lon="-1.54477">
        <ele>27.1</ele>
        <time>2020-09-27T11:27:01.000Z</time>
      </trkpt>
      <trkpt lat="47.30549" lon="-1.54479">
        <ele>27</ele>
        <time>2020-09-27T11:27:02.000Z</time>
      </trkpt>
      <trkpt lat="47.30546" lon="-1.54482">
        <ele>27</ele>
        <time>2020-09-27T11:27:03.000Z</time>
      </trkpt>
      <trkpt lat="47.30543" lon="-1.54485">
        <ele>26.9</ele>
        <time>2020-09-27T11:27:04.000Z</time>
      </trkpt>
      <trkpt lat="47.3054" lon="-1.54488">
        <ele>26.9</ele>
        <time>2020-09-27T11:27:05.000Z</time>
      </trkpt>
      <trkpt lat="47.30537" lon="-1.5449">
        <ele>26.8</ele>
        <time>2020-09-27T11:27:06.000Z</time>
      </trkpt>
      <trkpt lat="47.30533" lon="-1.54493">
        <ele>26.8</ele>
        <time>2020-09-27T11:27:07.000Z</time>
      </trkpt>
      <trkpt lat="47.3053" lon="-1.54496">
        <ele>26.7</ele>
        <time>2020-09-27T11:27:08.000Z</time>
      </trkpt>
      <trkpt lat="47.30526" lon="-1.54499">
        <ele>26.6</ele>
        <time>2020-09-27T11:27:09.000Z</time>
      </trkpt>
      <trkpt lat="47.30522" lon="-1.54502">
        <ele>26.5</ele>
        <time>2020-09-27T11:27:10.000Z</time>
      </trkpt>
      <trkpt lat="47.30518" lon="-1.54505">
        <ele>26.5</ele>
        <time>2020-09-27T11:27:11.000Z</time>
      </trkpt>
      <trkpt lat="47.30514" lon="-1.54509">
        <ele>26.4</ele>
        <time>2020-09-27T11:27:12.000Z</time>
      </trkpt>
      <trkpt lat="47.3051" lon="-1.54512">
        <ele>26.3</ele>
        <time>2020-09-27T11:27:13.000Z</time>
      </trkpt>
      <trkpt lat="47.30506" lon="-1.54515">
        <ele>26.2</ele>
        <time>2020-09-27T11:27:14.000Z</time>
      </trkpt>
      <trkpt lat="47.30502" lon="-1.54519">
        <ele>26</ele>
        <time>2020-09-27T11:27:15.000Z</time>
      </trkpt>
      <trkpt lat="47.30497" lon="-1.54522">
        <ele>26</ele>
        <time>2020-09-27T11:27:16.000Z</time>
      </trkpt>
      <trkpt lat="47.30492" lon="-1.54526">
        <ele>25.9</ele>
        <time>2020-09-27T11:27:17.000Z</time>
      </trkpt>
      <trkpt lat="47.30488" lon="-1.54529">
        <ele>25.8</ele>
        <time>2020-09-27T11:27:18.000Z</time>
      </trkpt>
      <trkpt lat="47.30483" lon="-1.54533">
        <ele>25.7</ele>
        <time>2020-09-27T11:27:19.000Z</time>
      </trkpt>
      <trkpt lat="47.30478" lon="-1.54536">
        <ele>25.5</ele>
        <time>2020-09-27T11:27:20.000Z</time>
      </trkpt>
      <trkpt lat="47.30473" lon="-1.5454">
        <ele>25.4</ele>
        <time>2020-09-27T11:27:21.000Z</time>
      </trkpt>
      <trkpt lat="47.30468" lon="-1.54543">
        <ele>25.2</ele>
        <time>2020-09-27T11:27:22.000Z</time>
      </trkpt>
      <trkpt lat="47.30463" lon="-1.54547">
        <ele>25</ele>
        <time>2020-09-27T11:27:23.000Z</time>
      </trkpt>
      <trkpt lat="47.30458" lon="-1.5455">
        <ele>24.8</ele>
        <time>2020-09-27T11:27:24.000Z</time>
      </trkpt>
      <trkpt lat="47.30453" lon="-1.54554">
        <ele>24.6</ele>
        <time>2020-09-27T11:27:25.000Z</time>
      </trkpt>
      <trkpt lat="47.30448" lon="-1.54558">
        <ele>24.3</ele>
        <time>2020-09-27T11:27:26.000Z</time>
      </trkpt>
      <trkpt lat="47.30443" lon="-1.54561">
        <ele>24</ele>
        <time>2020-09-27T11:27:27.000Z</time>
      </trkpt>
      <trkpt lat="47.30438" lon="-1.54565">
        <ele>23.7</ele>
        <time>2020-09-27T11:27:28.000Z</time>
      </trkpt>
      <trkpt lat="47.30433" lon="-1.54569">
        <ele>23.3</ele>
        <time>2020-09-27T11:27:29.000Z</time>
      </trkpt>
      <trkpt lat="47.30428" lon="-1.54573">
        <ele>23</ele>
        <time>2020-09-27T11:27:30.000Z</time>
      </trkpt>
      <trkpt lat="47.30424" lon="-1.54577">
        <ele>22.6</ele>
        <time>2020-09-27T11:27:31.000Z</time>
      </trkpt>
      <trkpt lat="47.30419" lon="-1.54582">
        <ele>22.2</ele>
        <time>2020-09-27T11:27:32.000Z</time>
      </trkpt>
      <trkpt lat="47.30414" lon="-1.54587">
        <ele>21.9</ele>
        <time>2020-09-27T11:27:33.000Z</time>
      </trkpt>
      <trkpt lat="47.30409" lon="-1.54592">
        <ele>21.7</ele>
        <time>2020-09-27T11:27:34.000Z</time>
      </trkpt>
      <trkpt lat="47.30405" lon="-1.54597">
        <ele>21.5</ele>
        <time>2020-09-27T11:27:35.000Z</time>
      </trkpt>
      <trkpt lat="47.304" lon="-1.54602">
        <ele>21.3</ele>
        <time>2020-09-27T11:27:36.000Z</time>
      </trkpt>
      <trkpt lat="47.30396" lon="-1.54608">
        <ele>21.1</ele>
        <time>2020-09-27T11:27:37.000Z</time>
      </trkpt>
      <trkpt lat="47.30391" lon="-1.54613">
        <ele>20.9</ele>
        <time>2020-09-27T11:27:38.000Z</time>
      </trkpt>
      <trkpt lat="47.30387" lon="-1.54619">
        <ele>20.6</ele>
        <time>2020-09-27T11:27:39.000Z</time>
      </trkpt>
      <trkpt lat="47.30383" lon="-1.54624">
        <ele>20.4</ele>
        <time>2020-09-27T11:27:40.000Z</time>
      </trkpt>
      <trkpt lat="47.30379" lon="-1.5463">
        <ele>20.2</ele>
        <time>2020-09-27T11:27:41.000Z</time>
      </trkpt>
      <trkpt lat="47.30376" lon="-1.54635">
        <ele>20</ele>
        <time>2020-09-27T11:27:42.000Z</time>
      </trkpt>
      <trkpt lat="47.30373" lon="-1.5464">
        <ele>19.8</ele>
        <time>2020-09-27T11:27:43.000Z</time>
      </trkpt>
      <trkpt lat="47.3037" lon="-1.54645">
        <ele>19.6</ele>
        <time>2020-09-27T11:27:44.000Z</time>
      </trkpt>
      <trkpt lat="47.30367" lon="-1.54649">
        <ele>19.4</ele>
        <time>2020-09-27T11:27:45.000Z</time>
      </trkpt>
      <trkpt lat="47.30365" lon="-1.54653">
        <ele>19.2</ele>
        <time>2020-09-27T11:27:46.000Z</time>
      </trkpt>
      <trkpt lat="47.30363" lon="-1.54656">
        <ele>19</ele>
        <time>2020-09-27T11:27:47.000Z</time>
      </trkpt>
      <trkpt lat="47.30361" lon="-1.54659">
        <ele>18.9</ele>
        <time>2020-09-27T11:27:48.000Z</time>
      </trkpt>
      <trkpt lat="47.30358" lon="-1.54661">
        <ele>18.8</ele>
        <time>2020-09-27T11:27:49.000Z</time>
      </trkpt>
      <trkpt lat="47.30355" lon="-1.54662">
        <ele>18.7</ele>
        <time>2020-09-27T11:27:50.000Z</time>
      </trkpt>
      <trkpt lat="47.30352" lon="-1.54663">
        <ele>18.6</ele>
        <time>2020-09-27T11:27:51.000Z</time>
      </trkpt>
      <trkpt lat="47.30349" lon="-1.54663">
        <ele>18.5</ele>
        <time>2020-09-27T11:27:52.000Z</time>
      </trkpt>
      <trkpt lat="47.30345" lon="-1.54663">
        <ele>18.4</ele>
        <time>2020-09-27T11:27:53.000Z</time>
      </trkpt>
      <trkpt lat="47.30342" lon="-1.54664">
        <ele>18.3</ele>
        <time>2020-09-27T11:27:54.000Z</time>
      </trkpt>
      <trkpt lat="47.30339" lon="-1.54665">
        <ele>18.2</ele>
        <time>2020-09-27T11:27:55.000Z</time>
      </trkpt>
      <trkpt lat="47.30337" lon="-1.54666">
        <ele>18.1</ele>
        <time>2020-09-27T11:27:56.000Z</time>
      </trkpt>
      <trkpt lat="47.30334" lon="-1.54667">
        <ele>18</ele>
        <time>2020-09-27T11:27:57.000Z</time>
      </trkpt>
      <trkpt lat="47.30332" lon="-1.54669">
        <ele>18.1</ele>
        <time>2020-09-27T11:27:58.000Z</time>
      </trkpt>
      <trkpt lat="47.30329" lon="-1.5467">
        <ele>18.2</ele>
        <time>2020-09-27T11:27:59.000Z</time>
      </trkpt>
      <trkpt lat="47.30327" lon="-1.54671">
        <ele>18.3</ele>
        <time>2020-09-27T11:28:00.000Z</time>
      </trkpt>
      <trkpt lat="47.30325" lon="-1.54671">
        <ele>18.4</ele>
        <time>2020-09-27T11:28:01.000Z</time>
      </trkpt>
      <trkpt lat="47.30322" lon="-1.54671">
        <ele>18.5</ele>
        <time>2020-09-27T11:28:02.000Z</time>
      </trkpt>
      <trkpt lat="47.3032" lon="-1.54671">
        <ele>18.5</ele>
        <time>2020-09-27T11:28:03.000Z</time>
      </trkpt>
      <trkpt lat="47.30317" lon="-1.5467">
        <ele>18.6</ele>
        <time>2020-09-27T11:28:04.000Z</time>
      </trkpt>
      <trkpt lat="47.30315" lon="-1.54669">
        <ele>18.7</ele>
        <time>2020-09-27T11:28:05.000Z</time>
      </trkpt>
      <trkpt lat="47.30312" lon="-1.54668">
        <ele>18.8</ele>
        <time>2020-09-27T11:28:06.000Z</time>
      </trkpt>
      <trkpt lat="47.30309" lon="-1.54667">
        <ele>18.9</ele>
        <time>2020-09-27T11:28:07.000Z</time>
      </trkpt>
      <trkpt lat="47.30305" lon="-1.54665">
        <ele>19</ele>
        <time>2020-09-27T11:28:08.000Z</time>
      </trkpt>
      <trkpt lat="47.30302" lon="-1.54663">
        <ele>19.2</ele>
        <time>2020-09-27T11:28:09.000Z</time>
      </trkpt>
      <trkpt lat="47.30299" lon="-1.54662">
        <ele>19.3</ele>
        <time>2020-09-27T11:28:10.000Z</time>
      </trkpt>
      <trkpt lat="47.30295" lon="-1.5466">
        <ele>19.5</ele>
        <time>2020-09-27T11:28:11.000Z</time>
      </trkpt>
      <trkpt lat="47.30292" lon="-1.54658">
        <ele>19.6</ele>
        <time>2020-09-27T11:28:12.000Z</time>
      </trkpt>
      <trkpt lat="47.30288" lon="-1.54657">
        <ele>19.7</ele>
        <time>2020-09-27T11:28:13.000Z</time>
      </trkpt>
      <trkpt lat="47.30285" lon="-1.54656">
        <ele>19.8</ele>
        <time>2020-09-27T11:28:14.000Z</time>
      </trkpt>
      <trkpt lat="47.30281" lon="-1.54655">
        <ele>19.9</ele>
        <time>2020-09-27T11:28:15.000Z</time>
      </trkpt>
      <trkpt lat="47.30278" lon="-1.54655">
        <ele>20</ele>
        <time>2020-09-27T11:28:16.000Z</time>
      </trkpt>
      <trkpt lat="47.30274" lon="-1.54655">
        <ele>20.1</ele>
        <time>2020-09-27T11:28:17.000Z</time>
      </trkpt>
      <trkpt lat="47.30271" lon="-1.54655">
        <ele>20.2</ele>
        <time>2020-09-27T11:28:18.000Z</time>
      </trkpt>
      <trkpt lat="47.30268" lon="-1.54656">
        <ele>20.3</ele>
        <time>2020-09-27T11:28:19.000Z</time>
      </trkpt>
      <trkpt lat="47.30264" lon="-1.54657">
        <ele>20.5</ele>
        <time>2020-09-27T11:28:20.000Z</time>
      </trkpt>
      <trkpt lat="47.30261" lon="-1.54658">
        <ele>20.6</ele>
        <time>2020-09-27T11:28:21.000Z</time>
      </trkpt>
      <trkpt lat="47.30257" lon="-1.54659">
        <ele>20.7</ele>
        <time>2020-09-27T11:28:22.000Z</time>
      </trkpt>
      <trkpt lat="47.30254" lon="-1.54661">
        <ele>20.8</ele>
        <time>2020-09-27T11:28:23.000Z</time>
      </trkpt>
      <trkpt lat="47.3025" lon="-1.54663">
        <ele>20.9</ele>
        <time>2020-09-27T11:28:24.000Z</time>
      </trkpt>
      <trkpt lat="47.30247" lon="-1.54665">
        <ele>21</ele>
        <time>2020-09-27T11:28:25.000Z</time>
      </trkpt>
      <trkpt lat="47.30243" lon="-1.54667">
        <ele>21.1</ele>
        <time>2020-09-27T11:28:26.000Z</time>
      </trkpt>
      <trkpt lat="47.3024" lon="-1.54669">
        <ele>21.1</ele>
        <time>2020-09-27T11:28:27.000Z</time>
      </trkpt>
      <trkpt lat="47.30236" lon="-1.54671">
        <ele>21.2</ele>
        <time>2020-09-27T11:28:28.000Z</time>
      </trkpt>
      <trkpt lat="47.30233" lon="-1.54673">
        <ele>21.3</ele>
        <time>2020-09-27T11:28:29.000Z</time>
      </trkpt>
      <trkpt lat="47.3023" lon="-1.54675">
        <ele>21.3</ele>
        <time>2020-09-27T11:28:30.000Z</time>
      </trkpt>
      <trkpt lat="47.30226" lon="-1.54676">
        <ele>21.4</ele>
        <time>2020-09-27T11:28:31.000Z</time>
      </trkpt>
      <trkpt lat="47.30223" lon="-1.54678">
        <ele>21.5</ele>
        <time>2020-09-27T11:28:32.000Z</time>
      </trkpt>
      <trkpt lat="47.3022" lon="-1.5468">
        <ele>21.5</ele>
        <time>2020-09-27T11:28:33.000Z</time>
      </trkpt>
      <trkpt lat="47.30217" lon="-1.54682">
        <ele>21.6</ele>
        <time>2020-09-27T11:28:34.000Z</time>
      </trkpt>
      <trkpt lat="47.30213" lon="-1.54684">
        <ele>21.6</ele>
        <time>2020-09-27T11:28:35.000Z</time>
      </trkpt>
      <trkpt lat="47.3021" lon="-1.54686">
        <ele>21.7</ele>
        <time>2020-09-27T11:28:36.000Z</time>
      </trkpt>
      <trkpt lat="47.30207" lon="-1.54687">
        <ele>21.8</ele>
        <time>2020-09-27T11:28:37.000Z</time>
      </trkpt>
      <trkpt lat="47.30204" lon="-1.54689">
        <ele>21.8</ele>
        <time>2020-09-27T11:28:38.000Z</time>
      </trkpt>
      <trkpt lat="47.30201" lon="-1.54691">
        <ele>21.9</ele>
        <time>2020-09-27T11:28:39.000Z</time>
      </trkpt>
      <trkpt lat="47.30198" lon="-1.54692">
        <ele>21.9</ele>
        <time>2020-09-27T11:28:40.000Z</time>
      </trkpt>
      <trkpt lat="47.30195" lon="-1.54694">
        <ele>22</ele>
        <time>2020-09-27T11:28:41.000Z</time>
      </trkpt>
      <trkpt lat="47.30192" lon="-1.54696">
        <ele>22</ele>
        <time>2020-09-27T11:28:42.000Z</time>
      </trkpt>
      <trkpt lat="47.3019" lon="-1.54697">
        <ele>22.1</ele>
        <time>2020-09-27T11:28:43.000Z</time>
      </trkpt>
      <trkpt lat="47.30187" lon="-1.54699">
        <ele>22.1</ele>
        <time>2020-09-27T11:28:44.000Z</time>
      </trkpt>
      <trkpt lat="47.30184" lon="-1.54701">
        <ele>22.2</ele>
        <time>2020-09-27T11:28:45.000Z</time>
      </trkpt>
      <trkpt lat="47.30181" lon="-1.54702">
        <ele>22.3</ele>
        <time>2020-09-27T11:28:46.000Z</time>
      </trkpt>
      <trkpt lat="47.30178" lon="-1.54704">
        <ele>22.3</ele>
        <time>2020-09-27T11:28:47.000Z</time>
      </trkpt>
      <trkpt lat="47.30175" lon="-1.54706">
        <ele>22.4</ele>
        <time>2020-09-27T11:28:48.000Z</time>
      </trkpt>
      <trkpt lat="47.30172" lon="-1.54707">
        <ele>22.4</ele>
        <time>2020-09-27T11:28:49.000Z</time>
      </trkpt>
      <trkpt lat="47.30168" lon="-1.54709">
        <ele>22.5</ele>
        <time>2020-09-27T11:28:50.000Z</time>
      </trkpt>
      <trkpt lat="47.30165" lon="-1.54711">
        <ele>22.5</ele>
        <time>2020-09-27T11:28:51.000Z</time>
      </trkpt>
      <trkpt lat="47.30162" lon="-1.54712">
        <ele>22.6</ele>
        <time>2020-09-27T11:28:52.000Z</time>
      </trkpt>
      <trkpt lat="47.30158" lon="-1.54714">
        <ele>22.7</ele>
        <time>2020-09-27T11:28:53.000Z</time>
      </trkpt>
      <trkpt lat="47.30155" lon="-1.54716">
        <ele>22.7</ele>
        <time>2020-09-27T11:28:54.000Z</time>
      </trkpt>
      <trkpt lat="47.30151" lon="-1.54718">
        <ele>22.8</ele>
        <time>2020-09-27T11:28:55.000Z</time>
      </trkpt>
      <trkpt lat="47.30148" lon="-1.5472">
        <ele>22.9</ele>
        <time>2020-09-27T11:28:56.000Z</time>
      </trkpt>
      <trkpt lat="47.30145" lon="-1.54722">
        <ele>22.9</ele>
        <time>2020-09-27T11:28:57.000Z</time>
      </trkpt>
      <trkpt lat="47.30141" lon="-1.54724">
        <ele>23</ele>
        <time>2020-09-27T11:28:58.000Z</time>
      </trkpt>
      <trkpt lat="47.30138" lon="-1.54726">
        <ele>23.1</ele>
        <time>2020-09-27T11:28:59.000Z</time>
      </trkpt>
      <trkpt lat="47.30134" lon="-1.54728">
        <ele>23.1</ele>
        <time>2020-09-27T11:29:00.000Z</time>
      </trkpt>
      <trkpt lat="47.3013" lon="-1.5473">
        <ele>23.2</ele>
        <time>2020-09-27T11:29:01.000Z</time>
      </trkpt>
      <trkpt lat="47.30126" lon="-1.54732">
        <ele>23.3</ele>
        <time>2020-09-27T11:29:02.000Z</time>
      </trkpt>
      <trkpt lat="47.30122" lon="-1.54734">
        <ele>23.3</ele>
        <time>2020-09-27T11:29:03.000Z</time>
      </trkpt>
      <trkpt lat="47.30118" lon="-1.54737">
        <ele>23.4</ele>
        <time>2020-09-27T11:29:04.000Z</time>
      </trkpt>
      <trkpt lat="47.30114" lon="-1.54739">
        <ele>23.5</ele>
        <time>2020-09-27T11:29:05.000Z</time>
      </trkpt>
      <trkpt lat="47.30109" lon="-1.54741">
        <ele>23.6</ele>
        <time>2020-09-27T11:29:06.000Z</time>
      </trkpt>
      <trkpt lat="47.30105" lon="-1.54743">
        <ele>23.7</ele>
        <time>2020-09-27T11:29:07.000Z</time>
      </trkpt>
      <trkpt lat="47.301" lon="-1.54745">
        <ele>23.7</ele>
        <time>2020-09-27T11:29:08.000Z</time>
      </trkpt>
      <trkpt lat="47.30096" lon="-1.54747">
        <ele>23.8</ele>
        <time>2020-09-27T11:29:09.000Z</time>
      </trkpt>
      <trkpt lat="47.30092" lon="-1.54749">
        <ele>23.9</ele>
        <time>2020-09-27T11:29:10.000Z</time>
      </trkpt>
      <trkpt lat="47.30087" lon="-1.54752">
        <ele>24</ele>
        <time>2020-09-27T11:29:11.000Z</time>
      </trkpt>
      <trkpt lat="47.30083" lon="-1.54754">
        <ele>24.1</ele>
        <time>2020-09-27T11:29:12.000Z</time>
      </trkpt>
      <trkpt lat="47.30079" lon="-1.54756">
        <ele>24.2</ele>
        <time>2020-09-27T11:29:13.000Z</time>
      </trkpt>
      <trkpt lat="47.30075" lon="-1.54757">
        <ele>24.4</ele>
        <time>2020-09-27T11:29:14.000Z</time>
      </trkpt>
      <trkpt lat="47.30071" lon="-1.54759">
        <ele>24.5</ele>
        <time>2020-09-27T11:29:15.000Z</time>
      </trkpt>
      <trkpt lat="47.30067" lon="-1.54761">
        <ele>24.6</ele>
        <time>2020-09-27T11:29:16.000Z</time>
      </trkpt>
      <trkpt lat="47.30063" lon="-1.54763">
        <ele>24.8</ele>
        <time>2020-09-27T11:29:17.000Z</time>
      </trkpt>
      <trkpt lat="47.30059" lon="-1.54765">
        <ele>24.9</ele>
        <time>2020-09-27T11:29:18.000Z</time>
      </trkpt>
      <trkpt lat="47.30054" lon="-1.54767">
        <ele>25</ele>
        <time>2020-09-27T11:29:19.000Z</time>
      </trkpt>
      <trkpt lat="47.3005" lon="-1.54768">
        <ele>25.1</ele>
        <time>2020-09-27T11:29:20.000Z</time>
      </trkpt>
      <trkpt lat="47.30046" lon="-1.5477">
        <ele>25.3</ele>
        <time>2020-09-27T11:29:21.000Z</time>
      </trkpt>
      <trkpt lat="47.30042" lon="-1.54772">
        <ele>25.4</ele>
        <time>2020-09-27T11:29:22.000Z</time>
      </trkpt>
      <trkpt lat="47.30037" lon="-1.54774">
        <ele>25.5</ele>
        <time>2020-09-27T11:29:23.000Z</time>
      </trkpt>
      <trkpt lat="47.30033" lon="-1.54775">
        <ele>25.6</ele>
        <time>2020-09-27T11:29:24.000Z</time>
      </trkpt>
      <trkpt lat="47.30028" lon="-1.54777">
        <ele>25.8</ele>
        <time>2020-09-27T11:29:25.000Z</time>
      </trkpt>
      <trkpt lat="47.30024" lon="-1.54778">
        <ele>25.9</ele>
        <time>2020-09-27T11:29:26.000Z</time>
      </trkpt>
      <trkpt lat="47.30019" lon="-1.5478">
        <ele>26</ele>
        <time>2020-09-27T11:29:27.000Z</time>
      </trkpt>
      <trkpt lat="47.30015" lon="-1.54782">
        <ele>26.1</ele>
        <time>2020-09-27T11:29:28.000Z</time>
      </trkpt>
      <trkpt lat="47.3001" lon="-1.54783">
        <ele>26.2</ele>
        <time>2020-09-27T11:29:29.000Z</time>
      </trkpt>
      <trkpt lat="47.30006" lon="-1.54785">
        <ele>26.3</ele>
        <time>2020-09-27T11:29:30.000Z</time>
      </trkpt>
      <trkpt lat="47.30002" lon="-1.54786">
        <ele>26.4</ele>
        <time>2020-09-27T11:29:31.000Z</time>
      </trkpt>
      <trkpt lat="47.29998" lon="-1.54788">
        <ele>26.5</ele>
        <time>2020-09-27T11:29:32.000Z</time>
      </trkpt>
      <trkpt lat="47.29994" lon="-1.54789">
        <ele>26.5</ele>
        <time>2020-09-27T11:29:33.000Z</time>
      </trkpt>
      <trkpt lat="47.2999" lon="-1.5479">
        <ele>26.5</ele>
        <time>2020-09-27T11:29:34.000Z</time>
      </trkpt>
      <trkpt lat="47.29986" lon="-1.54792">
        <ele>26.5</ele>
        <time>2020-09-27T11:29:35.000Z</time>
      </trkpt>
      <trkpt lat="47.29982" lon="-1.54793">
        <ele>26.5</ele>
        <time>2020-09-27T11:29:36.000Z</time>
      </trkpt>
      <trkpt lat="47.29979" lon="-1.54794">
        <ele>26.5</ele>
        <time>2020-09-27T11:29:37.000Z</time>
      </trkpt>
      <trkpt lat="47.29975" lon="-1.54795">
        <ele>26.5</ele>
        <time>2020-09-27T11:29:38.000Z</time>
      </trkpt>
      <trkpt lat="47.29971" lon="-1.54797">
        <ele>26.5</ele>
        <time>2020-09-27T11:29:39.000Z</time>
      </trkpt>
      <trkpt lat="47.29968" lon="-1.54798">
        <ele>26.5</ele>
        <time>2020-09-27T11:29:40.000Z</time>
      </trkpt>
      <trkpt lat="47.29964" lon="-1.54799">
        <ele>26.5</ele>
        <time>2020-09-27T11:29:41.000Z</time>
      </trkpt>
      <trkpt lat="47.29961" lon="-1.548">
        <ele>26.5</ele>
        <time>2020-09-27T11:29:42.000Z</time>
      </trkpt>
      <trkpt lat="47.29957" lon="-1.54801">
        <ele>26.5</ele>
        <time>2020-09-27T11:29:43.000Z</time>
      </trkpt>
      <trkpt lat="47.29954" lon="-1.54802">
        <ele>26.5</ele>
        <time>2020-09-27T11:29:44.000Z</time>
      </trkpt>
      <trkpt lat="47.2995" lon="-1.54803">
        <ele>26.5</ele>
        <time>2020-09-27T11:29:45.000Z</time>
      </trkpt>
      <trkpt lat="47.29947" lon="-1.54805">
        <ele>26.5</ele>
        <time>2020-09-27T11:29:46.000Z</time>
      </trkpt>
      <trkpt lat="47.29943" lon="-1.54806">
        <ele>26.4</ele>
        <time>2020-09-27T11:29:47.000Z</time>
      </trkpt>
      <trkpt lat="47.2994" lon="-1.54807">
        <ele>26.4</ele>
        <time>2020-09-27T11:29:48.000Z</time>
      </trkpt>
      <trkpt lat="47.29936" lon="-1.54808">
        <ele>26.4</ele>
        <time>2020-09-27T11:29:49.000Z</time>
      </trkpt>
      <trkpt lat="47.29932" lon="-1.54809">
        <ele>26.4</ele>
        <time>2020-09-27T11:29:50.000Z</time>
      </trkpt>
      <trkpt lat="47.29929" lon="-1.5481">
        <ele>26.3</ele>
        <time>2020-09-27T11:29:51.000Z</time>
      </trkpt>
      <trkpt lat="47.29925" lon="-1.54811">
        <ele>26.3</ele>
        <time>2020-09-27T11:29:52.000Z</time>
      </trkpt>
      <trkpt lat="47.29922" lon="-1.54812">
        <ele>26.3</ele>
        <time>2020-09-27T11:29:53.000Z</time>
      </trkpt>
      <trkpt lat="47.29918" lon="-1.54813">
        <ele>26.2</ele>
        <time>2020-09-27T11:29:54.000Z</time>
      </trkpt>
      <trkpt lat="47.29914" lon="-1.54814">
        <ele>26.2</ele>
        <time>2020-09-27T11:29:55.000Z</time>
      </trkpt>
      <trkpt lat="47.2991" lon="-1.54816">
        <ele>26</ele>
        <time>2020-09-27T11:29:56.000Z</time>
      </trkpt>
      <trkpt lat="47.29906" lon="-1.54817">
        <ele>25.9</ele>
        <time>2020-09-27T11:29:57.000Z</time>
      </trkpt>
      <trkpt lat="47.29902" lon="-1.54818">
        <ele>25.8</ele>
        <time>2020-09-27T11:29:58.000Z</time>
      </trkpt>
      <trkpt lat="47.29897" lon="-1.5482">
        <ele>25.6</ele>
        <time>2020-09-27T11:29:59.000Z</time>
      </trkpt>
      <trkpt lat="47.29892" lon="-1.54821">
        <ele>25.5</ele>
        <time>2020-09-27T11:30:00.000Z</time>
      </trkpt>
      <trkpt lat="47.29886" lon="-1.54823">
        <ele>25.3</ele>
        <time>2020-09-27T11:30:01.000Z</time>
      </trkpt>
      <trkpt lat="47.2988" lon="-1.54825">
        <ele>25.1</ele>
        <time>2020-09-27T11:30:02.000Z</time>
      </trkpt>
      <trkpt lat="47.29874" lon="-1.54826">
        <ele>25</ele>
        <time>2020-09-27T11:30:03.000Z</time>
      </trkpt>
      <trkpt lat="47.29869" lon="-1.54828">
        <ele>24.8</ele>
        <time>2020-09-27T11:30:04.000Z</time>
      </trkpt>
      <trkpt lat="47.29863" lon="-1.5483">
        <ele>24.7</ele>
        <time>2020-09-27T11:30:05.000Z</time>
      </trkpt>
      <trkpt lat="47.29858" lon="-1.54831">
        <ele>24.6</ele>
        <time>2020-09-27T11:30:06.000Z</time>
      </trkpt>
      <trkpt lat="47.29853" lon="-1.54833">
        <ele>24.5</ele>
        <time>2020-09-27T11:30:07.000Z</time>
      </trkpt>
      <trkpt lat="47.29848" lon="-1.54834">
        <ele>24.4</ele>
        <time>2020-09-27T11:30:08.000Z</time>
      </trkpt>
      <trkpt lat="47.29844" lon="-1.54836">
        <ele>24.4</ele>
        <time>2020-09-27T11:30:09.000Z</time>
      </trkpt>
      <trkpt lat="47.2984" lon="-1.54837">
        <ele>24.3</ele>
        <time>2020-09-27T11:30:10.000Z</time>
      </trkpt>
      <trkpt lat="47.29836" lon="-1.54838">
        <ele>24.3</ele>
        <time>2020-09-27T11:30:11.000Z</time>
      </trkpt>
      <trkpt lat="47.29832" lon="-1.54838">
        <ele>24.3</ele>
        <time>2020-09-27T11:30:12.000Z</time>
      </trkpt>
      <trkpt lat="47.29829" lon="-1.54839">
        <ele>24.4</ele>
        <time>2020-09-27T11:30:13.000Z</time>
      </trkpt>
      <trkpt lat="47.29825" lon="-1.5484">
        <ele>24.6</ele>
        <time>2020-09-27T11:30:14.000Z</time>
      </trkpt>
      <trkpt lat="47.29822" lon="-1.54841">
        <ele>24.7</ele>
        <time>2020-09-27T11:30:15.000Z</time>
      </trkpt>
      <trkpt lat="47.29818" lon="-1.54842">
        <ele>24.8</ele>
        <time>2020-09-27T11:30:16.000Z</time>
      </trkpt>
      <trkpt lat="47.29814" lon="-1.54843">
        <ele>24.9</ele>
        <time>2020-09-27T11:30:17.000Z</time>
      </trkpt>
      <trkpt lat="47.2981" lon="-1.54844">
        <ele>25.1</ele>
        <time>2020-09-27T11:30:18.000Z</time>
      </trkpt>
      <trkpt lat="47.29806" lon="-1.54844">
        <ele>25.2</ele>
        <time>2020-09-27T11:30:19.000Z</time>
      </trkpt>
      <trkpt lat="47.29802" lon="-1.54844">
        <ele>25.2</ele>
        <time>2020-09-27T11:30:20.000Z</time>
      </trkpt>
      <trkpt lat="47.29798" lon="-1.54843">
        <ele>25.3</ele>
        <time>2020-09-27T11:30:21.000Z</time>
      </trkpt>
      <trkpt lat="47.29794" lon="-1.54841">
        <ele>25.3</ele>
        <time>2020-09-27T11:30:22.000Z</time>
      </trkpt>
      <trkpt lat="47.29789" lon="-1.54839">
        <ele>25.3</ele>
        <time>2020-09-27T11:30:23.000Z</time>
      </trkpt>
      <trkpt lat="47.29785" lon="-1.54838">
        <ele>25.3</ele>
        <time>2020-09-27T11:30:24.000Z</time>
      </trkpt>
      <trkpt lat="47.29781" lon="-1.54837">
        <ele>25.4</ele>
        <time>2020-09-27T11:30:25.000Z</time>
      </trkpt>
      <trkpt lat="47.29777" lon="-1.54837">
        <ele>25.5</ele>
        <time>2020-09-27T11:30:26.000Z</time>
      </trkpt>
      <trkpt lat="47.29773" lon="-1.54838">
        <ele>25.6</ele>
        <time>2020-09-27T11:30:27.000Z</time>
      </trkpt>
      <trkpt lat="47.29769" lon="-1.54839">
        <ele>25.7</ele>
        <time>2020-09-27T11:30:28.000Z</time>
      </trkpt>
      <trkpt lat="47.29764" lon="-1.5484">
        <ele>25.8</ele>
        <time>2020-09-27T11:30:29.000Z</time>
      </trkpt>
      <trkpt lat="47.2976" lon="-1.54841">
        <ele>26</ele>
        <time>2020-09-27T11:30:30.000Z</time>
      </trkpt>
      <trkpt lat="47.29756" lon="-1.54843">
        <ele>26.1</ele>
        <time>2020-09-27T11:30:31.000Z</time>
      </trkpt>
      <trkpt lat="47.29752" lon="-1.54844">
        <ele>26.2</ele>
        <time>2020-09-27T11:30:32.000Z</time>
      </trkpt>
      <trkpt lat="47.29748" lon="-1.54846">
        <ele>26.3</ele>
        <time>2020-09-27T11:30:33.000Z</time>
      </trkpt>
      <trkpt lat="47.29745" lon="-1.54847">
        <ele>26.3</ele>
        <time>2020-09-27T11:30:34.000Z</time>
      </trkpt>
      <trkpt lat="47.29741" lon="-1.54849">
        <ele>26.4</ele>
        <time>2020-09-27T11:30:35.000Z</time>
      </trkpt>
      <trkpt lat="47.29738" lon="-1.54851">
        <ele>26.4</ele>
        <time>2020-09-27T11:30:36.000Z</time>
      </trkpt>
      <trkpt lat="47.29735" lon="-1.54852">
        <ele>26.5</ele>
        <time>2020-09-27T11:30:37.000Z</time>
      </trkpt>
      <trkpt lat="47.29733" lon="-1.54853">
        <ele>26.5</ele>
        <time>2020-09-27T11:30:38.000Z</time>
      </trkpt>
      <trkpt lat="47.2973" lon="-1.54854">
        <ele>26.6</ele>
        <time>2020-09-27T11:30:39.000Z</time>
      </trkpt>
      <trkpt lat="47.29729" lon="-1.54855">
        <ele>26.6</ele>
        <time>2020-09-27T11:30:40.000Z</time>
      </trkpt>
      <trkpt lat="47.29727" lon="-1.54856">
        <ele>26.6</ele>
        <time>2020-09-27T11:30:41.000Z</time>
      </trkpt>
      <trkpt lat="47.29726" lon="-1.54856">
        <ele>26.6</ele>
        <time>2020-09-27T11:30:42.000Z</time>
      </trkpt>
      <trkpt lat="47.29726" lon="-1.54856">
        <ele>26.6</ele>
        <time>2020-09-27T11:30:43.000Z</time>
      </trkpt>
      <trkpt lat="47.29725" lon="-1.54856">
        <ele>26.6</ele>
        <time>2020-09-27T11:30:44.000Z</time>
      </trkpt>
      <trkpt lat="47.29725" lon="-1.54856">
        <ele>26.6</ele>
        <time>2020-09-27T11:30:45.000Z</time>
      </trkpt>
      <trkpt lat="47.29726" lon="-1.54856">
        <ele>26.6</ele>
        <time>2020-09-27T11:30:46.000Z</time>
      </trkpt>
      <trkpt lat="47.29726" lon="-1.54856">
        <ele>26.6</ele>
        <time>2020-09-27T11:30:47.000Z</time>
      </trkpt>
      <trkpt lat="47.29726" lon="-1.54856">
        <ele>26.6</ele>
        <time>2020-09-27T11:30:48.000Z</time>
      </trkpt>
      <trkpt lat="47.29726" lon="-1.54856">
        <ele>26.6</ele>
        <time>2020-09-27T11:30:49.000Z</time>
      </trkpt>
      <trkpt lat="47.29726" lon="-1.54856">
        <ele>26.6</ele>
        <time>2020-09-27T11:30:50.000Z</time>
      </trkpt>
      <trkpt lat="47.29726" lon="-1.54856">
        <ele>26.6</ele>
        <time>2020-09-27T11:30:51.000Z</time>
      </trkpt>
      <trkpt lat="47.29726" lon="-1.54856">
        <ele>26.6</ele>
        <time>2020-09-27T11:30:52.000Z</time>
      </trkpt>
      <trkpt lat="47.29725" lon="-1.54856">
        <ele>26.6</ele>
        <time>2020-09-27T11:30:53.000Z</time>
      </trkpt>
      <trkpt lat="47.29724" lon="-1.54857">
        <ele>26.6</ele>
        <time>2020-09-27T11:30:54.000Z</time>
      </trkpt>
      <trkpt lat="47.29722" lon="-1.54857">
        <ele>26.7</ele>
        <time>2020-09-27T11:30:55.000Z</time>
      </trkpt>
      <trkpt lat="47.2972" lon="-1.54857">
        <ele>26.7</ele>
        <time>2020-09-27T11:30:56.000Z</time>
      </trkpt>
      <trkpt lat="47.29719" lon="-1.54858">
        <ele>26.7</ele>
        <time>2020-09-27T11:30:57.000Z</time>
      </trkpt>
      <trkpt lat="47.29717" lon="-1.54858">
        <ele>26.7</ele>
        <time>2020-09-27T11:30:58.000Z</time>
      </trkpt>
      <trkpt lat="47.29715" lon="-1.54858">
        <ele>26.7</ele>
        <time>2020-09-27T11:30:59.000Z</time>
      </trkpt>
      <trkpt lat="47.29713" lon="-1.54857">
        <ele>26.7</ele>
        <time>2020-09-27T11:31:00.000Z</time>
      </trkpt>
      <trkpt lat="47.29711" lon="-1.54857">
        <ele>26.7</ele>
        <time>2020-09-27T11:31:01.000Z</time>
      </trkpt>
      <trkpt lat="47.29709" lon="-1.54857">
        <ele>26.7</ele>
        <time>2020-09-27T11:31:02.000Z</time>
      </trkpt>
      <trkpt lat="47.29706" lon="-1.54857">
        <ele>26.7</ele>
        <time>2020-09-27T11:31:03.000Z</time>
      </trkpt>
      <trkpt lat="47.29704" lon="-1.54856">
        <ele>26.7</ele>
        <time>2020-09-27T11:31:04.000Z</time>
      </trkpt>
      <trkpt lat="47.29701" lon="-1.54856">
        <ele>26.7</ele>
        <time>2020-09-27T11:31:05.000Z</time>
      </trkpt>
      <trkpt lat="47.29698" lon="-1.54857">
        <ele>26.7</ele>
        <time>2020-09-27T11:31:06.000Z</time>
      </trkpt>
      <trkpt lat="47.29696" lon="-1.54857">
        <ele>26.8</ele>
        <time>2020-09-27T11:31:07.000Z</time>
      </trkpt>
      <trkpt lat="47.29693" lon="-1.54858">
        <ele>26.8</ele>
        <time>2020-09-27T11:31:08.000Z</time>
      </trkpt>
      <trkpt lat="47.2969" lon="-1.54858">
        <ele>26.8</ele>
        <time>2020-09-27T11:31:09.000Z</time>
      </trkpt>
      <trkpt lat="47.29688" lon="-1.54859">
        <ele>26.8</ele>
        <time>2020-09-27T11:31:10.000Z</time>
      </trkpt>
      <trkpt lat="47.29686" lon="-1.5486">
        <ele>26.9</ele>
        <time>2020-09-27T11:31:11.000Z</time>
      </trkpt>
      <trkpt lat="47.29684" lon="-1.54861">
        <ele>26.9</ele>
        <time>2020-09-27T11:31:12.000Z</time>
      </trkpt>
      <trkpt lat="47.29683" lon="-1.54862">
        <ele>27</ele>
        <time>2020-09-27T11:31:13.000Z</time>
      </trkpt>
      <trkpt lat="47.29682" lon="-1.54863">
        <ele>27</ele>
        <time>2020-09-27T11:31:14.000Z</time>
      </trkpt>
      <trkpt lat="47.29681" lon="-1.54865">
        <ele>27.1</ele>
        <time>2020-09-27T11:31:15.000Z</time>
      </trkpt>
      <trkpt lat="47.2968" lon="-1.54867">
        <ele>27.1</ele>
        <time>2020-09-27T11:31:16.000Z</time>
      </trkpt>
      <trkpt lat="47.29679" lon="-1.54869">
        <ele>27.2</ele>
        <time>2020-09-27T11:31:17.000Z</time>
      </trkpt>
      <trkpt lat="47.29679" lon="-1.5487">
        <ele>27.3</ele>
        <time>2020-09-27T11:31:18.000Z</time>
      </trkpt>
      <trkpt lat="47.29678" lon="-1.54872">
        <ele>27.3</ele>
        <time>2020-09-27T11:31:19.000Z</time>
      </trkpt>
      <trkpt lat="47.29677" lon="-1.54874">
        <ele>27.4</ele>
        <time>2020-09-27T11:31:20.000Z</time>
      </trkpt>
      <trkpt lat="47.29676" lon="-1.54875">
        <ele>27.4</ele>
        <time>2020-09-27T11:31:21.000Z</time>
      </trkpt>
      <trkpt lat="47.29674" lon="-1.54876">
        <ele>27.5</ele>
        <time>2020-09-27T11:31:22.000Z</time>
      </trkpt>
      <trkpt lat="47.29673" lon="-1.54877">
        <ele>27.5</ele>
        <time>2020-09-27T11:31:23.000Z</time>
      </trkpt>
      <trkpt lat="47.29672" lon="-1.54878">
        <ele>27.6</ele>
        <time>2020-09-27T11:31:24.000Z</time>
      </trkpt>
      <trkpt lat="47.29671" lon="-1.5488">
        <ele>27.6</ele>
        <time>2020-09-27T11:31:25.000Z</time>
      </trkpt>
      <trkpt lat="47.2967" lon="-1.54881">
        <ele>27.7</ele>
        <time>2020-09-27T11:31:26.000Z</time>
      </trkpt>
      <trkpt lat="47.29669" lon="-1.54882">
        <ele>27.7</ele>
        <time>2020-09-27T11:31:27.000Z</time>
      </trkpt>
      <trkpt lat="47.29669" lon="-1.54882">
        <ele>27.7</ele>
        <time>2020-09-27T11:31:28.000Z</time>
      </trkpt>
      <trkpt lat="47.29669" lon="-1.54882">
        <ele>27.8</ele>
        <time>2020-09-27T11:31:29.000Z</time>
      </trkpt>
      <trkpt lat="47.29669" lon="-1.54882">
        <ele>27.7</ele>
        <time>2020-09-27T11:31:30.000Z</time>
      </trkpt>
      <trkpt lat="47.29669" lon="-1.54882">
        <ele>27.7</ele>
        <time>2020-09-27T11:31:31.000Z</time>
      </trkpt>
      <trkpt lat="47.29669" lon="-1.54882">
        <ele>27.7</ele>
        <time>2020-09-27T11:31:32.000Z</time>
      </trkpt>
      <trkpt lat="47.29669" lon="-1.54882">
        <ele>27.7</ele>
        <time>2020-09-27T11:31:33.000Z</time>
      </trkpt>
      <trkpt lat="47.29669" lon="-1.54882">
        <ele>27.7</ele>
        <time>2020-09-27T11:31:34.000Z</time>
      </trkpt>
      <trkpt lat="47.29669" lon="-1.54882">
        <ele>27.7</ele>
        <time>2020-09-27T11:31:35.000Z</time>
      </trkpt>
      <trkpt lat="47.29669" lon="-1.54882">
        <ele>27.7</ele>
        <time>2020-09-27T11:31:36.000Z</time>
      </trkpt>
      <trkpt lat="47.29669" lon="-1.54882">
        <ele>27.7</ele>
        <time>2020-09-27T11:31:37.000Z</time>
      </trkpt>
      <trkpt lat="47.29669" lon="-1.54882">
        <ele>27.7</ele>
        <time>2020-09-27T11:31:38.000Z</time>
      </trkpt>
      <trkpt lat="47.29669" lon="-1.54882">
        <ele>27.7</ele>
        <time>2020-09-27T11:31:39.000Z</time>
      </trkpt>
      <trkpt lat="47.29669" lon="-1.54882">
        <ele>27.7</ele>
        <time>2020-09-27T11:31:40.000Z</time>
      </trkpt>
      <trkpt lat="47.29669" lon="-1.54882">
        <ele>27.7</ele>
        <time>2020-09-27T11:31:41.000Z</time>
      </trkpt>
      <trkpt lat="47.29669" lon="-1.54882">
        <ele>27.7</ele>
        <time>2020-09-27T11:31:42.000Z</time>
      </trkpt>
      <trkpt lat="47.29669" lon="-1.54882">
        <ele>27.7</ele>
        <time>2020-09-27T11:31:43.000Z</time>
      </trkpt>
      <trkpt lat="47.29669" lon="-1.54882">
        <ele>27.7</ele>
        <time>2020-09-27T11:31:44.000Z</time>
      </trkpt>
      <trkpt lat="47.29669" lon="-1.54882">
        <ele>27.7</ele>
        <time>2020-09-27T11:31:45.000Z</time>
      </trkpt>
      <trkpt lat="47.29669" lon="-1.54882">
        <ele>27.7</ele>
        <time>2020-09-27T11:31:46.000Z</time>
      </trkpt>
      <trkpt lat="47.29669" lon="-1.54882">
        <ele>27.7</ele>
        <time>2020-09-27T11:31:47.000Z</time>
      </trkpt>
      <trkpt lat="47.29669" lon="-1.54882">
        <ele>27.7</ele>
        <time>2020-09-27T11:31:48.000Z</time>
      </trkpt>
      <trkpt lat="47.29669" lon="-1.54882">
        <ele>27.7</ele>
        <time>2020-09-27T11:31:49.000Z</time>
      </trkpt>
      <trkpt lat="47.29669" lon="-1.54882">
        <ele>27.7</ele>
        <time>2020-09-27T11:31:50.000Z</time>
      </trkpt>
      <trkpt lat="47.29669" lon="-1.54882">
        <ele>27.7</ele>
        <time>2020-09-27T11:31:51.000Z</time>
      </trkpt>
      <trkpt lat="47.29669" lon="-1.54882">
        <ele>27.7</ele>
        <time>2020-09-27T11:31:52.000Z</time>
      </trkpt>
      <trkpt lat="47.29669" lon="-1.54882">
        <ele>27.7</ele>
        <time>2020-09-27T11:31:53.000Z</time>
      </trkpt>
      <trkpt lat="47.29669" lon="-1.54882">
        <ele>27.7</ele>
        <time>2020-09-27T11:31:54.000Z</time>
      </trkpt>
      <trkpt lat="47.29669" lon="-1.54882">
        <ele>27.7</ele>
        <time>2020-09-27T11:31:55.000Z</time>
      </trkpt>
      <trkpt lat="47.2967" lon="-1.54882">
        <ele>27.7</ele>
        <time>2020-09-27T11:31:56.000Z</time>
      </trkpt>
      <trkpt lat="47.2967" lon="-1.54882">
        <ele>27.7</ele>
        <time>2020-09-27T11:31:57.000Z</time>
      </trkpt>
      <trkpt lat="47.2967" lon="-1.54882">
        <ele>27.7</ele>
        <time>2020-09-27T11:31:58.000Z</time>
      </trkpt>
      <trkpt lat="47.29671" lon="-1.54881">
        <ele>27.7</ele>
        <time>2020-09-27T11:31:59.000Z</time>
      </trkpt>
      <trkpt lat="47.29671" lon="-1.54881">
        <ele>27.7</ele>
        <time>2020-09-27T11:32:00.000Z</time>
      </trkpt>
      <trkpt lat="47.29672" lon="-1.54881">
        <ele>27.7</ele>
        <time>2020-09-27T11:32:01.000Z</time>
      </trkpt>
      <trkpt lat="47.29672" lon="-1.5488">
        <ele>27.7</ele>
        <time>2020-09-27T11:32:02.000Z</time>
      </trkpt>
      <trkpt lat="47.29672" lon="-1.5488">
        <ele>27.7</ele>
        <time>2020-09-27T11:32:03.000Z</time>
      </trkpt>
      <trkpt lat="47.29672" lon="-1.5488">
        <ele>27.6</ele>
        <time>2020-09-27T11:32:04.000Z</time>
      </trkpt>
      <trkpt lat="47.29672" lon="-1.5488">
        <ele>27.6</ele>
        <time>2020-09-27T11:32:05.000Z</time>
      </trkpt>
      <trkpt lat="47.29672" lon="-1.5488">
        <ele>27.6</ele>
        <time>2020-09-27T11:32:06.000Z</time>
      </trkpt>
      <trkpt lat="47.29672" lon="-1.5488">
        <ele>27.6</ele>
        <time>2020-09-27T11:32:07.000Z</time>
      </trkpt>
      <trkpt lat="47.29672" lon="-1.5488">
        <ele>27.6</ele>
        <time>2020-09-27T11:32:08.000Z</time>
      </trkpt>
      <trkpt lat="47.29672" lon="-1.5488">
        <ele>27.6</ele>
        <time>2020-09-27T11:32:09.000Z</time>
      </trkpt>
      <trkpt lat="47.29672" lon="-1.5488">
        <ele>27.6</ele>
        <time>2020-09-27T11:32:10.000Z</time>
      </trkpt>
      <trkpt lat="47.29672" lon="-1.5488">
        <ele>27.6</ele>
        <time>2020-09-27T11:32:11.000Z</time>
      </trkpt>
      <trkpt lat="47.29672" lon="-1.5488">
        <ele>27.6</ele>
        <time>2020-09-27T11:32:12.000Z</time>
      </trkpt>
      <trkpt lat="47.29672" lon="-1.5488">
        <ele>27.6</ele>
        <time>2020-09-27T11:32:13.000Z</time>
      </trkpt>
      <trkpt lat="47.29672" lon="-1.5488">
        <ele>27.6</ele>
        <time>2020-09-27T11:32:14.000Z</time>
      </trkpt>
      <trkpt lat="47.29672" lon="-1.54879">
        <ele>27.6</ele>
        <time>2020-09-27T11:32:15.000Z</time>
      </trkpt>
      <trkpt lat="47.29672" lon="-1.54879">
        <ele>27.6</ele>
        <time>2020-09-27T11:32:16.000Z</time>
      </trkpt>
      <trkpt lat="47.29672" lon="-1.54878">
        <ele>27.6</ele>
        <time>2020-09-27T11:32:17.000Z</time>
      </trkpt>
      <trkpt lat="47.29672" lon="-1.54878">
        <ele>27.6</ele>
        <time>2020-09-27T11:32:18.000Z</time>
      </trkpt>
      <trkpt lat="47.29672" lon="-1.54878">
        <ele>27.6</ele>
        <time>2020-09-27T11:32:19.000Z</time>
      </trkpt>
      <trkpt lat="47.29672" lon="-1.54877">
        <ele>27.5</ele>
        <time>2020-09-27T11:32:20.000Z</time>
      </trkpt>
      <trkpt lat="47.29672" lon="-1.54877">
        <ele>27.5</ele>
        <time>2020-09-27T11:32:21.000Z</time>
      </trkpt>
      <trkpt lat="47.29671" lon="-1.54877">
        <ele>27.5</ele>
        <time>2020-09-27T11:32:22.000Z</time>
      </trkpt>
      <trkpt lat="47.29671" lon="-1.54877">
        <ele>27.6</ele>
        <time>2020-09-27T11:32:23.000Z</time>
      </trkpt>
      <trkpt lat="47.29671" lon="-1.54878">
        <ele>27.6</ele>
        <time>2020-09-27T11:32:24.000Z</time>
      </trkpt>
      <trkpt lat="47.29671" lon="-1.54878">
        <ele>27.6</ele>
        <time>2020-09-27T11:32:25.000Z</time>
      </trkpt>
      <trkpt lat="47.29671" lon="-1.54878">
        <ele>27.6</ele>
        <time>2020-09-27T11:32:26.000Z</time>
      </trkpt>
      <trkpt lat="47.29672" lon="-1.54879">
        <ele>27.6</ele>
        <time>2020-09-27T11:32:27.000Z</time>
      </trkpt>
      <trkpt lat="47.29672" lon="-1.54879">
        <ele>27.6</ele>
        <time>2020-09-27T11:32:28.000Z</time>
      </trkpt>
      <trkpt lat="47.29672" lon="-1.54879">
        <ele>27.6</ele>
        <time>2020-09-27T11:32:29.000Z</time>
      </trkpt>
      <trkpt lat="47.29672" lon="-1.54878">
        <ele>27.6</ele>
        <time>2020-09-27T11:32:30.000Z</time>
      </trkpt>
      <trkpt lat="47.29672" lon="-1.54878">
        <ele>27.6</ele>
        <time>2020-09-27T11:32:31.000Z</time>
      </trkpt>
      <trkpt lat="47.29673" lon="-1.54878">
        <ele>27.6</ele>
        <time>2020-09-27T11:32:32.000Z</time>
      </trkpt>
      <trkpt lat="47.29673" lon="-1.54878">
        <ele>27.6</ele>
        <time>2020-09-27T11:32:33.000Z</time>
      </trkpt>
      <trkpt lat="47.29672" lon="-1.54878">
        <ele>27.6</ele>
        <time>2020-09-27T11:32:34.000Z</time>
      </trkpt>
      <trkpt lat="47.29672" lon="-1.54878">
        <ele>27.6</ele>
        <time>2020-09-27T11:32:35.000Z</time>
      </trkpt>
      <trkpt lat="47.29673" lon="-1.54879">
        <ele>27.6</ele>
        <time>2020-09-27T11:32:36.000Z</time>
      </trkpt>
      <trkpt lat="47.29673" lon="-1.54879">
        <ele>27.6</ele>
        <time>2020-09-27T11:32:37.000Z</time>
      </trkpt>
      <trkpt lat="47.29673" lon="-1.54879">
        <ele>27.6</ele>
        <time>2020-09-27T11:32:38.000Z</time>
      </trkpt>
      <trkpt lat="47.29673" lon="-1.54879">
        <ele>27.6</ele>
        <time>2020-09-27T11:32:39.000Z</time>
      </trkpt>
      <trkpt lat="47.29674" lon="-1.54879">
        <ele>27.6</ele>
        <time>2020-09-27T11:32:40.000Z</time>
      </trkpt>
      <trkpt lat="47.29674" lon="-1.54879">
        <ele>27.6</ele>
        <time>2020-09-27T11:32:41.000Z</time>
      </trkpt>
      <trkpt lat="47.29674" lon="-1.54879">
        <ele>27.6</ele>
        <time>2020-09-27T11:32:42.000Z</time>
      </trkpt>
      <trkpt lat="47.29674" lon="-1.54878">
        <ele>27.6</ele>
        <time>2020-09-27T11:32:43.000Z</time>
      </trkpt>
      <trkpt lat="47.29674" lon="-1.54878">
        <ele>27.6</ele>
        <time>2020-09-27T11:32:44.000Z</time>
      </trkpt>
      <trkpt lat="47.29674" lon="-1.54878">
        <ele>27.5</ele>
        <time>2020-09-27T11:32:45.000Z</time>
      </trkpt>
      <trkpt lat="47.29674" lon="-1.54877">
        <ele>27.5</ele>
        <time>2020-09-27T11:32:46.000Z</time>
      </trkpt>
      <trkpt lat="47.29673" lon="-1.54877">
        <ele>27.5</ele>
        <time>2020-09-27T11:32:47.000Z</time>
      </trkpt>
      <trkpt lat="47.29673" lon="-1.54877">
        <ele>27.5</ele>
        <time>2020-09-27T11:32:48.000Z</time>
      </trkpt>
      <trkpt lat="47.29673" lon="-1.54878">
        <ele>27.5</ele>
        <time>2020-09-27T11:32:49.000Z</time>
      </trkpt>
      <trkpt lat="47.29673" lon="-1.54878">
        <ele>27.6</ele>
        <time>2020-09-27T11:32:50.000Z</time>
      </trkpt>
      <trkpt lat="47.29674" lon="-1.54878">
        <ele>27.6</ele>
        <time>2020-09-27T11:32:51.000Z</time>
      </trkpt>
      <trkpt lat="47.29674" lon="-1.54878">
        <ele>27.6</ele>
        <time>2020-09-27T11:32:52.000Z</time>
      </trkpt>
      <trkpt lat="47.29674" lon="-1.54879">
        <ele>27.6</ele>
        <time>2020-09-27T11:32:53.000Z</time>
      </trkpt>
      <trkpt lat="47.29674" lon="-1.54879">
        <ele>27.6</ele>
        <time>2020-09-27T11:32:54.000Z</time>
      </trkpt>
      <trkpt lat="47.29673" lon="-1.54879">
        <ele>27.6</ele>
        <time>2020-09-27T11:32:55.000Z</time>
      </trkpt>
      <trkpt lat="47.29673" lon="-1.54879">
        <ele>27.6</ele>
        <time>2020-09-27T11:32:56.000Z</time>
      </trkpt>
      <trkpt lat="47.29673" lon="-1.54879">
        <ele>27.6</ele>
        <time>2020-09-27T11:32:57.000Z</time>
      </trkpt>
      <trkpt lat="47.29673" lon="-1.54879">
        <ele>27.6</ele>
        <time>2020-09-27T11:32:58.000Z</time>
      </trkpt>
      <trkpt lat="47.29673" lon="-1.54879">
        <ele>27.6</ele>
        <time>2020-09-27T11:32:59.000Z</time>
      </trkpt>
      <trkpt lat="47.29673" lon="-1.54879">
        <ele>27.6</ele>
        <time>2020-09-27T11:33:00.000Z</time>
      </trkpt>
      <trkpt lat="47.29673" lon="-1.54879">
        <ele>27.6</ele>
        <time>2020-09-27T11:33:01.000Z</time>
      </trkpt>
      <trkpt lat="47.29673" lon="-1.54879">
        <ele>27.6</ele>
        <time>2020-09-27T11:33:02.000Z</time>
      </trkpt>
      <trkpt lat="47.29673" lon="-1.54879">
        <ele>27.6</ele>
        <time>2020-09-27T11:33:03.000Z</time>
      </trkpt>
      <trkpt lat="47.29673" lon="-1.54879">
        <ele>27.6</ele>
        <time>2020-09-27T11:33:04.000Z</time>
      </trkpt>
      <trkpt lat="47.29673" lon="-1.54879">
        <ele>27.6</ele>
        <time>2020-09-27T11:33:05.000Z</time>
      </trkpt>
      <trkpt lat="47.29673" lon="-1.5488">
        <ele>27.6</ele>
        <time>2020-09-27T11:33:06.000Z</time>
      </trkpt>
      <trkpt lat="47.29673" lon="-1.5488">
        <ele>27.6</ele>
        <time>2020-09-27T11:33:07.000Z</time>
      </trkpt>
      <trkpt lat="47.29673" lon="-1.5488">
        <ele>27.6</ele>
        <time>2020-09-27T11:33:08.000Z</time>
      </trkpt>
      <trkpt lat="47.29673" lon="-1.5488">
        <ele>27.6</ele>
        <time>2020-09-27T11:33:09.000Z</time>
      </trkpt>
      <trkpt lat="47.29673" lon="-1.5488">
        <ele>27.6</ele>
        <time>2020-09-27T11:33:10.000Z</time>
      </trkpt>
      <trkpt lat="47.29673" lon="-1.5488">
        <ele>27.6</ele>
        <time>2020-09-27T11:33:11.000Z</time>
      </trkpt>
      <trkpt lat="47.29673" lon="-1.5488">
        <ele>27.6</ele>
        <time>2020-09-27T11:33:12.000Z</time>
      </trkpt>
      <trkpt lat="47.29673" lon="-1.5488">
        <ele>27.6</ele>
        <time>2020-09-27T11:33:13.000Z</time>
      </trkpt>
      <trkpt lat="47.29673" lon="-1.5488">
        <ele>27.6</ele>
        <time>2020-09-27T11:33:14.000Z</time>
      </trkpt>
      <trkpt lat="47.29673" lon="-1.5488">
        <ele>27.6</ele>
        <time>2020-09-27T11:33:15.000Z</time>
      </trkpt>
      <trkpt lat="47.29673" lon="-1.5488">
        <ele>27.6</ele>
        <time>2020-09-27T11:33:16.000Z</time>
      </trkpt>
      <trkpt lat="47.29673" lon="-1.5488">
        <ele>27.6</ele>
        <time>2020-09-27T11:33:17.000Z</time>
      </trkpt>
      <trkpt lat="47.29673" lon="-1.5488">
        <ele>27.6</ele>
        <time>2020-09-27T11:33:18.000Z</time>
      </trkpt>
      <trkpt lat="47.29673" lon="-1.5488">
        <ele>27.6</ele>
        <time>2020-09-27T11:33:19.000Z</time>
      </trkpt>
      <trkpt lat="47.29673" lon="-1.5488">
        <ele>27.6</ele>
        <time>2020-09-27T11:33:20.000Z</time>
      </trkpt>
      <trkpt lat="47.29672" lon="-1.5488">
        <ele>27.6</ele>
        <time>2020-09-27T11:33:21.000Z</time>
      </trkpt>
      <trkpt lat="47.29672" lon="-1.5488">
        <ele>27.6</ele>
        <time>2020-09-27T11:33:22.000Z</time>
      </trkpt>
      <trkpt lat="47.29673" lon="-1.5488">
        <ele>27.6</ele>
        <time>2020-09-27T11:33:23.000Z</time>
      </trkpt>
      <trkpt lat="47.29673" lon="-1.5488">
        <ele>27.6</ele>
        <time>2020-09-27T11:33:24.000Z</time>
      </trkpt>
      <trkpt lat="47.29673" lon="-1.5488">
        <ele>27.6</ele>
        <time>2020-09-27T11:33:25.000Z</time>
      </trkpt>
      <trkpt lat="47.29673" lon="-1.5488">
        <ele>27.6</ele>
        <time>2020-09-27T11:33:26.000Z</time>
      </trkpt>
      <trkpt lat="47.29673" lon="-1.5488">
        <ele>27.6</ele>
        <time>2020-09-27T11:33:27.000Z</time>
      </trkpt>
      <trkpt lat="47.29673" lon="-1.5488">
        <ele>27.7</ele>
        <time>2020-09-27T11:33:28.000Z</time>
      </trkpt>
      <trkpt lat="47.29672" lon="-1.5488">
        <ele>27.7</ele>
        <time>2020-09-27T11:33:29.000Z</time>
      </trkpt>
      <trkpt lat="47.29672" lon="-1.5488">
        <ele>27.7</ele>
        <time>2020-09-27T11:33:30.000Z</time>
      </trkpt>
      <trkpt lat="47.29672" lon="-1.5488">
        <ele>27.6</ele>
        <time>2020-09-27T11:33:31.000Z</time>
      </trkpt>
      <trkpt lat="47.29672" lon="-1.5488">
        <ele>27.6</ele>
        <time>2020-09-27T11:33:32.000Z</time>
      </trkpt>
      <trkpt lat="47.29672" lon="-1.5488">
        <ele>27.6</ele>
        <time>2020-09-27T11:33:33.000Z</time>
      </trkpt>
      <trkpt lat="47.29672" lon="-1.5488">
        <ele>27.6</ele>
        <time>2020-09-27T11:33:34.000Z</time>
      </trkpt>
      <trkpt lat="47.29672" lon="-1.5488">
        <ele>27.6</ele>
        <time>2020-09-27T11:33:35.000Z</time>
      </trkpt>
      <trkpt lat="47.29672" lon="-1.5488">
        <ele>27.6</ele>
        <time>2020-09-27T11:33:36.000Z</time>
      </trkpt>
      <trkpt lat="47.29672" lon="-1.5488">
        <ele>27.6</ele>
        <time>2020-09-27T11:33:37.000Z</time>
      </trkpt>
      <trkpt lat="47.29672" lon="-1.5488">
        <ele>27.6</ele>
        <time>2020-09-27T11:33:38.000Z</time>
      </trkpt>
      <trkpt lat="47.29672" lon="-1.5488">
        <ele>27.6</ele>
        <time>2020-09-27T11:33:39.000Z</time>
      </trkpt>
      <trkpt lat="47.29672" lon="-1.5488">
        <ele>27.6</ele>
        <time>2020-09-27T11:33:40.000Z</time>
      </trkpt>
      <trkpt lat="47.29672" lon="-1.5488">
        <ele>27.6</ele>
        <time>2020-09-27T11:33:41.000Z</time>
      </trkpt>
      <trkpt lat="47.29672" lon="-1.5488">
        <ele>27.6</ele>
        <time>2020-09-27T11:33:42.000Z</time>
      </trkpt>
      <trkpt lat="47.29672" lon="-1.5488">
        <ele>27.6</ele>
        <time>2020-09-27T11:33:43.000Z</time>
      </trkpt>
      <trkpt lat="47.29672" lon="-1.5488">
        <ele>27.6</ele>
        <time>2020-09-27T11:33:44.000Z</time>
      </trkpt>
      <trkpt lat="47.29672" lon="-1.5488">
        <ele>27.7</ele>
        <time>2020-09-27T11:33:45.000Z</time>
      </trkpt>
      <trkpt lat="47.29672" lon="-1.5488">
        <ele>27.7</ele>
        <time>2020-09-27T11:33:46.000Z</time>
      </trkpt>
      <trkpt lat="47.29672" lon="-1.5488">
        <ele>27.7</ele>
        <time>2020-09-27T11:33:47.000Z</time>
      </trkpt>
      <trkpt lat="47.29672" lon="-1.5488">
        <ele>27.6</ele>
        <time>2020-09-27T11:33:48.000Z</time>
      </trkpt>
      <trkpt lat="47.29672" lon="-1.5488">
        <ele>27.6</ele>
        <time>2020-09-27T11:33:49.000Z</time>
      </trkpt>
      <trkpt lat="47.29672" lon="-1.5488">
        <ele>27.6</ele>
        <time>2020-09-27T11:33:50.000Z</time>
      </trkpt>
      <trkpt lat="47.29672" lon="-1.5488">
        <ele>27.6</ele>
        <time>2020-09-27T11:33:51.000Z</time>
      </trkpt>
      <trkpt lat="47.29672" lon="-1.5488">
        <ele>27.6</ele>
        <time>2020-09-27T11:33:52.000Z</time>
      </trkpt>
      <trkpt lat="47.29672" lon="-1.5488">
        <ele>27.6</ele>
        <time>2020-09-27T11:33:53.000Z</time>
      </trkpt>
      <trkpt lat="47.29672" lon="-1.5488">
        <ele>27.6</ele>
        <time>2020-09-27T11:33:54.000Z</time>
      </trkpt>
      <trkpt lat="47.29672" lon="-1.5488">
        <ele>27.6</ele>
        <time>2020-09-27T11:33:55.000Z</time>
      </trkpt>
      <trkpt lat="47.29672" lon="-1.5488">
        <ele>27.6</ele>
        <time>2020-09-27T11:33:56.000Z</time>
      </trkpt>
      <trkpt lat="47.29672" lon="-1.5488">
        <ele>27.6</ele>
        <time>2020-09-27T11:33:57.000Z</time>
      </trkpt>
      <trkpt lat="47.29672" lon="-1.5488">
        <ele>27.6</ele>
        <time>2020-09-27T11:33:58.000Z</time>
      </trkpt>
      <trkpt lat="47.29672" lon="-1.5488">
        <ele>27.6</ele>
        <time>2020-09-27T11:33:59.000Z</time>
      </trkpt>
      <trkpt lat="47.29672" lon="-1.5488">
        <ele>27.6</ele>
        <time>2020-09-27T11:34:00.000Z</time>
      </trkpt>
      <trkpt lat="47.29672" lon="-1.5488">
        <ele>27.6</ele>
        <time>2020-09-27T11:34:01.000Z</time>
      </trkpt>
      <trkpt lat="47.29672" lon="-1.5488">
        <ele>27.6</ele>
        <time>2020-09-27T11:34:02.000Z</time>
      </trkpt>
      <trkpt lat="47.29672" lon="-1.54879">
        <ele>27.6</ele>
        <time>2020-09-27T11:34:03.000Z</time>
      </trkpt>
      <trkpt lat="47.29672" lon="-1.54879">
        <ele>27.6</ele>
        <time>2020-09-27T11:34:04.000Z</time>
      </trkpt>
      <trkpt lat="47.29671" lon="-1.54878">
        <ele>27.6</ele>
        <time>2020-09-27T11:34:05.000Z</time>
      </trkpt>
      <trkpt lat="47.29671" lon="-1.54878">
        <ele>27.6</ele>
        <time>2020-09-27T11:34:06.000Z</time>
      </trkpt>
      <trkpt lat="47.29672" lon="-1.54878">
        <ele>27.6</ele>
        <time>2020-09-27T11:34:07.000Z</time>
      </trkpt>
      <trkpt lat="47.29672" lon="-1.54879">
        <ele>27.6</ele>
        <time>2020-09-27T11:34:08.000Z</time>
      </trkpt>
      <trkpt lat="47.29673" lon="-1.54879">
        <ele>27.6</ele>
        <time>2020-09-27T11:34:09.000Z</time>
      </trkpt>
      <trkpt lat="47.29673" lon="-1.5488">
        <ele>27.6</ele>
        <time>2020-09-27T11:34:10.000Z</time>
      </trkpt>
      <trkpt lat="47.29674" lon="-1.5488">
        <ele>27.6</ele>
        <time>2020-09-27T11:34:11.000Z</time>
      </trkpt>
      <trkpt lat="47.29674" lon="-1.5488">
        <ele>27.6</ele>
        <time>2020-09-27T11:34:12.000Z</time>
      </trkpt>
      <trkpt lat="47.29674" lon="-1.5488">
        <ele>27.6</ele>
        <time>2020-09-27T11:34:13.000Z</time>
      </trkpt>
      <trkpt lat="47.29674" lon="-1.5488">
        <ele>27.6</ele>
        <time>2020-09-27T11:34:14.000Z</time>
      </trkpt>
      <trkpt lat="47.29674" lon="-1.5488">
        <ele>27.6</ele>
        <time>2020-09-27T11:34:15.000Z</time>
      </trkpt>
      <trkpt lat="47.29674" lon="-1.5488">
        <ele>27.6</ele>
        <time>2020-09-27T11:34:16.000Z</time>
      </trkpt>
      <trkpt lat="47.29674" lon="-1.5488">
        <ele>27.6</ele>
        <time>2020-09-27T11:34:17.000Z</time>
      </trkpt>
      <trkpt lat="47.29674" lon="-1.5488">
        <ele>27.6</ele>
        <time>2020-09-27T11:34:18.000Z</time>
      </trkpt>
      <trkpt lat="47.29674" lon="-1.5488">
        <ele>27.6</ele>
        <time>2020-09-27T11:34:19.000Z</time>
      </trkpt>
      <trkpt lat="47.29674" lon="-1.5488">
        <ele>27.6</ele>
        <time>2020-09-27T11:34:20.000Z</time>
      </trkpt>
      <trkpt lat="47.29674" lon="-1.5488">
        <ele>27.6</ele>
        <time>2020-09-27T11:34:21.000Z</time>
      </trkpt>
      <trkpt lat="47.29674" lon="-1.5488">
        <ele>27.6</ele>
        <time>2020-09-27T11:34:22.000Z</time>
      </trkpt>
      <trkpt lat="47.29674" lon="-1.5488">
        <ele>27.6</ele>
        <time>2020-09-27T11:34:23.000Z</time>
      </trkpt>
      <trkpt lat="47.29674" lon="-1.5488">
        <ele>27.6</ele>
        <time>2020-09-27T11:34:24.000Z</time>
      </trkpt>
      <trkpt lat="47.29674" lon="-1.5488">
        <ele>27.6</ele>
        <time>2020-09-27T11:34:25.000Z</time>
      </trkpt>
      <trkpt lat="47.29674" lon="-1.5488">
        <ele>27.6</ele>
        <time>2020-09-27T11:34:26.000Z</time>
      </trkpt>
      <trkpt lat="47.29674" lon="-1.5488">
        <ele>27.6</ele>
        <time>2020-09-27T11:34:27.000Z</time>
      </trkpt>
      <trkpt lat="47.29674" lon="-1.5488">
        <ele>27.6</ele>
        <time>2020-09-27T11:34:28.000Z</time>
      </trkpt>
      <trkpt lat="47.29674" lon="-1.5488">
        <ele>27.6</ele>
        <time>2020-09-27T11:34:29.000Z</time>
      </trkpt>
      <trkpt lat="47.29674" lon="-1.5488">
        <ele>27.6</ele>
        <time>2020-09-27T11:34:30.000Z</time>
      </trkpt>
      <trkpt lat="47.29674" lon="-1.5488">
        <ele>27.6</ele>
        <time>2020-09-27T11:34:31.000Z</time>
      </trkpt>
      <trkpt lat="47.29674" lon="-1.5488">
        <ele>27.6</ele>
        <time>2020-09-27T11:34:32.000Z</time>
      </trkpt>
      <trkpt lat="47.29674" lon="-1.5488">
        <ele>27.6</ele>
        <time>2020-09-27T11:34:33.000Z</time>
      </trkpt>
      <trkpt lat="47.29674" lon="-1.5488">
        <ele>27.6</ele>
        <time>2020-09-27T11:34:34.000Z</time>
      </trkpt>
      <trkpt lat="47.29674" lon="-1.5488">
        <ele>27.6</ele>
        <time>2020-09-27T11:34:35.000Z</time>
      </trkpt>
      <trkpt lat="47.29674" lon="-1.5488">
        <ele>27.6</ele>
        <time>2020-09-27T11:34:36.000Z</time>
      </trkpt>
      <trkpt lat="47.29674" lon="-1.5488">
        <ele>27.6</ele>
        <time>2020-09-27T11:34:37.000Z</time>
      </trkpt>
      <trkpt lat="47.29674" lon="-1.5488">
        <ele>27.6</ele>
        <time>2020-09-27T11:34:38.000Z</time>
      </trkpt>
      <trkpt lat="47.29674" lon="-1.5488">
        <ele>27.6</ele>
        <time>2020-09-27T11:34:39.000Z</time>
      </trkpt>
      <trkpt lat="47.29674" lon="-1.5488">
        <ele>27.6</ele>
        <time>2020-09-27T11:34:40.000Z</time>
      </trkpt>
      <trkpt lat="47.29674" lon="-1.5488">
        <ele>27.6</ele>
        <time>2020-09-27T11:34:41.000Z</time>
      </trkpt>
      <trkpt lat="47.29674" lon="-1.5488">
        <ele>27.6</ele>
        <time>2020-09-27T11:34:42.000Z</time>
      </trkpt>
      <trkpt lat="47.29674" lon="-1.5488">
        <ele>27.6</ele>
        <time>2020-09-27T11:34:43.000Z</time>
      </trkpt>
      <trkpt lat="47.29674" lon="-1.5488">
        <ele>27.6</ele>
        <time>2020-09-27T11:34:44.000Z</time>
      </trkpt>
      <trkpt lat="47.29673" lon="-1.5488">
        <ele>27.6</ele>
        <time>2020-09-27T11:34:45.000Z</time>
      </trkpt>
      <trkpt lat="47.29673" lon="-1.5488">
        <ele>27.6</ele>
        <time>2020-09-27T11:34:46.000Z</time>
      </trkpt>
      <trkpt lat="47.29673" lon="-1.5488">
        <ele>27.6</ele>
        <time>2020-09-27T11:34:47.000Z</time>
      </trkpt>
      <trkpt lat="47.29673" lon="-1.54879">
        <ele>27.6</ele>
        <time>2020-09-27T11:34:48.000Z</time>
      </trkpt>
      <trkpt lat="47.29672" lon="-1.54879">
        <ele>27.6</ele>
        <time>2020-09-27T11:34:49.000Z</time>
      </trkpt>
      <trkpt lat="47.29672" lon="-1.54879">
        <ele>27.6</ele>
        <time>2020-09-27T11:34:50.000Z</time>
      </trkpt>
      <trkpt lat="47.29672" lon="-1.54879">
        <ele>27.6</ele>
        <time>2020-09-27T11:34:51.000Z</time>
      </trkpt>
      <trkpt lat="47.29672" lon="-1.54879">
        <ele>27.6</ele>
        <time>2020-09-27T11:34:52.000Z</time>
      </trkpt>
      <trkpt lat="47.29672" lon="-1.54879">
        <ele>27.6</ele>
        <time>2020-09-27T11:34:53.000Z</time>
      </trkpt>
      <trkpt lat="47.29671" lon="-1.54879">
        <ele>27.6</ele>
        <time>2020-09-27T11:34:54.000Z</time>
      </trkpt>
      <trkpt lat="47.29671" lon="-1.54879">
        <ele>27.6</ele>
        <time>2020-09-27T11:34:55.000Z</time>
      </trkpt>
      <trkpt lat="47.29671" lon="-1.54879">
        <ele>27.6</ele>
        <time>2020-09-27T11:34:56.000Z</time>
      </trkpt>
      <trkpt lat="47.29671" lon="-1.54879">
        <ele>27.6</ele>
        <time>2020-09-27T11:34:57.000Z</time>
      </trkpt>
      <trkpt lat="47.29671" lon="-1.54879">
        <ele>27.6</ele>
        <time>2020-09-27T11:34:58.000Z</time>
      </trkpt>
      <trkpt lat="47.29671" lon="-1.54879">
        <ele>27.6</ele>
        <time>2020-09-27T11:34:59.000Z</time>
      </trkpt>
      <trkpt lat="47.29671" lon="-1.54879">
        <ele>27.6</ele>
        <time>2020-09-27T11:35:00.000Z</time>
      </trkpt>
      <trkpt lat="47.29671" lon="-1.54879">
        <ele>27.6</ele>
        <time>2020-09-27T11:35:01.000Z</time>
      </trkpt>
      <trkpt lat="47.29671" lon="-1.54879">
        <ele>27.6</ele>
        <time>2020-09-27T11:35:02.000Z</time>
      </trkpt>
      <trkpt lat="47.29671" lon="-1.54879">
        <ele>27.6</ele>
        <time>2020-09-27T11:35:03.000Z</time>
      </trkpt>
      <trkpt lat="47.29671" lon="-1.54879">
        <ele>27.6</ele>
        <time>2020-09-27T11:35:04.000Z</time>
      </trkpt>
      <trkpt lat="47.29671" lon="-1.54879">
        <ele>27.6</ele>
        <time>2020-09-27T11:35:05.000Z</time>
      </trkpt>
      <trkpt lat="47.29671" lon="-1.54879">
        <ele>27.6</ele>
        <time>2020-09-27T11:35:06.000Z</time>
      </trkpt>
      <trkpt lat="47.29671" lon="-1.54879">
        <ele>27.6</ele>
        <time>2020-09-27T11:35:07.000Z</time>
      </trkpt>
      <trkpt lat="47.29671" lon="-1.54879">
        <ele>27.6</ele>
        <time>2020-09-27T11:35:08.000Z</time>
      </trkpt>
      <trkpt lat="47.29671" lon="-1.54879">
        <ele>27.6</ele>
        <time>2020-09-27T11:35:09.000Z</time>
      </trkpt>
      <trkpt lat="47.29671" lon="-1.54879">
        <ele>27.6</ele>
        <time>2020-09-27T11:35:10.000Z</time>
      </trkpt>
      <trkpt lat="47.29672" lon="-1.54878">
        <ele>27.6</ele>
        <time>2020-09-27T11:35:11.000Z</time>
      </trkpt>
      <trkpt lat="47.29672" lon="-1.54878">
        <ele>27.6</ele>
        <time>2020-09-27T11:35:12.000Z</time>
      </trkpt>
      <trkpt lat="47.29672" lon="-1.54878">
        <ele>27.6</ele>
        <time>2020-09-27T11:35:13.000Z</time>
      </trkpt>
      <trkpt lat="47.29672" lon="-1.54878">
        <ele>27.6</ele>
        <time>2020-09-27T11:35:14.000Z</time>
      </trkpt>
      <trkpt lat="47.29672" lon="-1.54878">
        <ele>27.6</ele>
        <time>2020-09-27T11:35:15.000Z</time>
      </trkpt>
      <trkpt lat="47.29672" lon="-1.54878">
        <ele>27.6</ele>
        <time>2020-09-27T11:35:16.000Z</time>
      </trkpt>
      <trkpt lat="47.29672" lon="-1.54878">
        <ele>27.6</ele>
        <time>2020-09-27T11:35:17.000Z</time>
      </trkpt>
      <trkpt lat="47.29672" lon="-1.54878">
        <ele>27.6</ele>
        <time>2020-09-27T11:35:18.000Z</time>
      </trkpt>
      <trkpt lat="47.29672" lon="-1.54878">
        <ele>27.6</ele>
        <time>2020-09-27T11:35:19.000Z</time>
      </trkpt>
      <trkpt lat="47.29672" lon="-1.54878">
        <ele>27.6</ele>
        <time>2020-09-27T11:35:20.000Z</time>
      </trkpt>
      <trkpt lat="47.29672" lon="-1.54878">
        <ele>27.6</ele>
        <time>2020-09-27T11:35:21.000Z</time>
      </trkpt>
      <trkpt lat="47.29672" lon="-1.54878">
        <ele>27.6</ele>
        <time>2020-09-27T11:35:22.000Z</time>
      </trkpt>
      <trkpt lat="47.29672" lon="-1.54878">
        <ele>27.6</ele>
        <time>2020-09-27T11:35:23.000Z</time>
      </trkpt>
      <trkpt lat="47.29672" lon="-1.54878">
        <ele>27.6</ele>
        <time>2020-09-27T11:35:24.000Z</time>
      </trkpt>
      <trkpt lat="47.29672" lon="-1.54878">
        <ele>27.6</ele>
        <time>2020-09-27T11:35:25.000Z</time>
      </trkpt>
      <trkpt lat="47.29672" lon="-1.54878">
        <ele>27.6</ele>
        <time>2020-09-27T11:35:26.000Z</time>
      </trkpt>
      <trkpt lat="47.29672" lon="-1.54878">
        <ele>27.6</ele>
        <time>2020-09-27T11:35:27.000Z</time>
      </trkpt>
      <trkpt lat="47.29672" lon="-1.54878">
        <ele>27.6</ele>
        <time>2020-09-27T11:35:28.000Z</time>
      </trkpt>
      <trkpt lat="47.29672" lon="-1.54878">
        <ele>27.6</ele>
        <time>2020-09-27T11:35:29.000Z</time>
      </trkpt>
      <trkpt lat="47.29672" lon="-1.54878">
        <ele>27.6</ele>
        <time>2020-09-27T11:35:30.000Z</time>
      </trkpt>
      <trkpt lat="47.29672" lon="-1.54878">
        <ele>27.6</ele>
        <time>2020-09-27T11:35:31.000Z</time>
      </trkpt>
      <trkpt lat="47.29672" lon="-1.54877">
        <ele>27.6</ele>
        <time>2020-09-27T11:35:32.000Z</time>
      </trkpt>
      <trkpt lat="47.29672" lon="-1.54877">
        <ele>27.6</ele>
        <time>2020-09-27T11:35:33.000Z</time>
      </trkpt>
      <trkpt lat="47.29672" lon="-1.54877">
        <ele>27.6</ele>
        <time>2020-09-27T11:35:34.000Z</time>
      </trkpt>
      <trkpt lat="47.29671" lon="-1.54877">
        <ele>27.5</ele>
        <time>2020-09-27T11:35:35.000Z</time>
      </trkpt>
      <trkpt lat="47.29671" lon="-1.54877">
        <ele>27.5</ele>
        <time>2020-09-27T11:35:36.000Z</time>
      </trkpt>
      <trkpt lat="47.29671" lon="-1.54877">
        <ele>27.5</ele>
        <time>2020-09-27T11:35:37.000Z</time>
      </trkpt>
      <trkpt lat="47.29671" lon="-1.54877">
        <ele>27.5</ele>
        <time>2020-09-27T11:35:38.000Z</time>
      </trkpt>
      <trkpt lat="47.29671" lon="-1.54877">
        <ele>27.5</ele>
        <time>2020-09-27T11:35:39.000Z</time>
      </trkpt>
      <trkpt lat="47.29671" lon="-1.54877">
        <ele>27.5</ele>
        <time>2020-09-27T11:35:40.000Z</time>
      </trkpt>
      <trkpt lat="47.29672" lon="-1.54877">
        <ele>27.5</ele>
        <time>2020-09-27T11:35:41.000Z</time>
      </trkpt>
      <trkpt lat="47.29672" lon="-1.54877">
        <ele>27.5</ele>
        <time>2020-09-27T11:35:42.000Z</time>
      </trkpt>
      <trkpt lat="47.29672" lon="-1.54877">
        <ele>27.5</ele>
        <time>2020-09-27T11:35:43.000Z</time>
      </trkpt>
      <trkpt lat="47.29672" lon="-1.54877">
        <ele>27.5</ele>
        <time>2020-09-27T11:35:44.000Z</time>
      </trkpt>
      <trkpt lat="47.29672" lon="-1.54877">
        <ele>27.5</ele>
        <time>2020-09-27T11:35:45.000Z</time>
      </trkpt>
      <trkpt lat="47.29672" lon="-1.54877">
        <ele>27.5</ele>
        <time>2020-09-27T11:35:46.000Z</time>
      </trkpt>
      <trkpt lat="47.29672" lon="-1.54877">
        <ele>27.5</ele>
        <time>2020-09-27T11:35:47.000Z</time>
      </trkpt>
      <trkpt lat="47.29672" lon="-1.54877">
        <ele>27.5</ele>
        <time>2020-09-27T11:35:48.000Z</time>
      </trkpt>
      <trkpt lat="47.29672" lon="-1.54877">
        <ele>27.5</ele>
        <time>2020-09-27T11:35:49.000Z</time>
      </trkpt>
      <trkpt lat="47.29672" lon="-1.54877">
        <ele>27.5</ele>
        <time>2020-09-27T11:35:50.000Z</time>
      </trkpt>
      <trkpt lat="47.29672" lon="-1.54877">
        <ele>27.5</ele>
        <time>2020-09-27T11:35:51.000Z</time>
      </trkpt>
      <trkpt lat="47.29672" lon="-1.54877">
        <ele>27.5</ele>
        <time>2020-09-27T11:35:52.000Z</time>
      </trkpt>
      <trkpt lat="47.29672" lon="-1.54877">
        <ele>27.5</ele>
        <time>2020-09-27T11:35:53.000Z</time>
      </trkpt>
      <trkpt lat="47.29672" lon="-1.54877">
        <ele>27.5</ele>
        <time>2020-09-27T11:35:54.000Z</time>
      </trkpt>
      <trkpt lat="47.29672" lon="-1.54877">
        <ele>27.5</ele>
        <time>2020-09-27T11:35:55.000Z</time>
      </trkpt>
      <trkpt lat="47.29672" lon="-1.54877">
        <ele>27.5</ele>
        <time>2020-09-27T11:35:56.000Z</time>
      </trkpt>
      <trkpt lat="47.29672" lon="-1.54877">
        <ele>27.5</ele>
        <time>2020-09-27T11:35:57.000Z</time>
      </trkpt>
      <trkpt lat="47.29672" lon="-1.54877">
        <ele>27.5</ele>
        <time>2020-09-27T11:35:58.000Z</time>
      </trkpt>
      <trkpt lat="47.29672" lon="-1.54877">
        <ele>27.5</ele>
        <time>2020-09-27T11:35:59.000Z</time>
      </trkpt>
      <trkpt lat="47.29672" lon="-1.54877">
        <ele>27.5</ele>
        <time>2020-09-27T11:36:00.000Z</time>
      </trkpt>
      <trkpt lat="47.29672" lon="-1.54877">
        <ele>27.5</ele>
        <time>2020-09-27T11:36:01.000Z</time>
      </trkpt>
      <trkpt lat="47.29672" lon="-1.54877">
        <ele>27.5</ele>
        <time>2020-09-27T11:36:02.000Z</time>
      </trkpt>
      <trkpt lat="47.29672" lon="-1.54877">
        <ele>27.5</ele>
        <time>2020-09-27T11:36:03.000Z</time>
      </trkpt>
      <trkpt lat="47.29672" lon="-1.54877">
        <ele>27.5</ele>
        <time>2020-09-27T11:36:04.000Z</time>
      </trkpt>
      <trkpt lat="47.29672" lon="-1.54877">
        <ele>27.5</ele>
        <time>2020-09-27T11:36:05.000Z</time>
      </trkpt>
      <trkpt lat="47.29672" lon="-1.54877">
        <ele>27.5</ele>
        <time>2020-09-27T11:36:06.000Z</time>
      </trkpt>
      <trkpt lat="47.29672" lon="-1.54877">
        <ele>27.5</ele>
        <time>2020-09-27T11:36:07.000Z</time>
      </trkpt>
      <trkpt lat="47.29672" lon="-1.54877">
        <ele>27.5</ele>
        <time>2020-09-27T11:36:08.000Z</time>
      </trkpt>
      <trkpt lat="47.29672" lon="-1.54877">
        <ele>27.5</ele>
        <time>2020-09-27T11:36:09.000Z</time>
      </trkpt>
      <trkpt lat="47.29672" lon="-1.54877">
        <ele>27.5</ele>
        <time>2020-09-27T11:36:10.000Z</time>
      </trkpt>
      <trkpt lat="47.29672" lon="-1.54877">
        <ele>27.5</ele>
        <time>2020-09-27T11:36:11.000Z</time>
      </trkpt>
      <trkpt lat="47.29672" lon="-1.54877">
        <ele>27.5</ele>
        <time>2020-09-27T11:36:12.000Z</time>
      </trkpt>
      <trkpt lat="47.29672" lon="-1.54877">
        <ele>27.5</ele>
        <time>2020-09-27T11:36:13.000Z</time>
      </trkpt>
      <trkpt lat="47.29672" lon="-1.54877">
        <ele>27.5</ele>
        <time>2020-09-27T11:36:14.000Z</time>
      </trkpt>
      <trkpt lat="47.29672" lon="-1.54877">
        <ele>27.5</ele>
        <time>2020-09-27T11:36:15.000Z</time>
      </trkpt>
      <trkpt lat="47.29672" lon="-1.54877">
        <ele>27.5</ele>
        <time>2020-09-27T11:36:16.000Z</time>
      </trkpt>
      <trkpt lat="47.29672" lon="-1.54877">
        <ele>27.5</ele>
        <time>2020-09-27T11:36:17.000Z</time>
      </trkpt>
      <trkpt lat="47.29672" lon="-1.54877">
        <ele>27.5</ele>
        <time>2020-09-27T11:36:18.000Z</time>
      </trkpt>
      <trkpt lat="47.29672" lon="-1.54877">
        <ele>27.5</ele>
        <time>2020-09-27T11:36:19.000Z</time>
      </trkpt>
      <trkpt lat="47.29672" lon="-1.54877">
        <ele>27.5</ele>
        <time>2020-09-27T11:36:20.000Z</time>
      </trkpt>
      <trkpt lat="47.29672" lon="-1.54877">
        <ele>27.5</ele>
        <time>2020-09-27T11:36:21.000Z</time>
      </trkpt>
      <trkpt lat="47.29672" lon="-1.54877">
        <ele>27.5</ele>
        <time>2020-09-27T11:36:22.000Z</time>
      </trkpt>
      <trkpt lat="47.29672" lon="-1.54877">
        <ele>27.5</ele>
        <time>2020-09-27T11:36:23.000Z</time>
      </trkpt>
      <trkpt lat="47.29672" lon="-1.54877">
        <ele>27.5</ele>
        <time>2020-09-27T11:36:24.000Z</time>
      </trkpt>
      <trkpt lat="47.29672" lon="-1.54877">
        <ele>27.5</ele>
        <time>2020-09-27T11:36:25.000Z</time>
      </trkpt>
      <trkpt lat="47.29672" lon="-1.54877">
        <ele>27.5</ele>
        <time>2020-09-27T11:36:26.000Z</time>
      </trkpt>
      <trkpt lat="47.29672" lon="-1.54877">
        <ele>27.5</ele>
        <time>2020-09-27T11:36:27.000Z</time>
      </trkpt>
      <trkpt lat="47.29672" lon="-1.54877">
        <ele>27.5</ele>
        <time>2020-09-27T11:36:28.000Z</time>
      </trkpt>
      <trkpt lat="47.29672" lon="-1.54877">
        <ele>27.5</ele>
        <time>2020-09-27T11:36:29.000Z</time>
      </trkpt>
      <trkpt lat="47.29672" lon="-1.54877">
        <ele>27.5</ele>
        <time>2020-09-27T11:36:30.000Z</time>
      </trkpt>
      <trkpt lat="47.29672" lon="-1.54877">
        <ele>27.5</ele>
        <time>2020-09-27T11:36:31.000Z</time>
      </trkpt>
      <trkpt lat="47.29672" lon="-1.54877">
        <ele>27.5</ele>
        <time>2020-09-27T11:36:32.000Z</time>
      </trkpt>
      <trkpt lat="47.29672" lon="-1.54877">
        <ele>27.5</ele>
        <time>2020-09-27T11:36:33.000Z</time>
      </trkpt>
      <trkpt lat="47.29672" lon="-1.54877">
        <ele>27.5</ele>
        <time>2020-09-27T11:36:34.000Z</time>
      </trkpt>
      <trkpt lat="47.29672" lon="-1.54877">
        <ele>27.5</ele>
        <time>2020-09-27T11:36:35.000Z</time>
      </trkpt>
      <trkpt lat="47.29672" lon="-1.54877">
        <ele>27.5</ele>
        <time>2020-09-27T11:36:36.000Z</time>
      </trkpt>
      <trkpt lat="47.29672" lon="-1.54877">
        <ele>27.5</ele>
        <time>2020-09-27T11:36:37.000Z</time>
      </trkpt>
      <trkpt lat="47.29672" lon="-1.54877">
        <ele>27.5</ele>
        <time>2020-09-27T11:36:38.000Z</time>
      </trkpt>
      <trkpt lat="47.29672" lon="-1.54877">
        <ele>27.5</ele>
        <time>2020-09-27T11:36:39.000Z</time>
      </trkpt>
      <trkpt lat="47.29672" lon="-1.54877">
        <ele>27.5</ele>
        <time>2020-09-27T11:36:40.000Z</time>
      </trkpt>
      <trkpt lat="47.29672" lon="-1.54877">
        <ele>27.5</ele>
        <time>2020-09-27T11:36:41.000Z</time>
      </trkpt>
      <trkpt lat="47.29672" lon="-1.54877">
        <ele>27.5</ele>
        <time>2020-09-27T11:36:42.000Z</time>
      </trkpt>
      <trkpt lat="47.29672" lon="-1.54877">
        <ele>27.5</ele>
        <time>2020-09-27T11:36:43.000Z</time>
      </trkpt>
      <trkpt lat="47.29672" lon="-1.54877">
        <ele>27.5</ele>
        <time>2020-09-27T11:36:44.000Z</time>
      </trkpt>
      <trkpt lat="47.29672" lon="-1.54877">
        <ele>27.5</ele>
        <time>2020-09-27T11:36:45.000Z</time>
      </trkpt>
      <trkpt lat="47.29672" lon="-1.54877">
        <ele>27.5</ele>
        <time>2020-09-27T11:36:46.000Z</time>
      </trkpt>
      <trkpt lat="47.29672" lon="-1.54877">
        <ele>27.5</ele>
        <time>2020-09-27T11:36:47.000Z</time>
      </trkpt>
      <trkpt lat="47.29672" lon="-1.54877">
        <ele>27.5</ele>
        <time>2020-09-27T11:36:48.000Z</time>
      </trkpt>
      <trkpt lat="47.29672" lon="-1.54877">
        <ele>27.5</ele>
        <time>2020-09-27T11:36:49.000Z</time>
      </trkpt>
      <trkpt lat="47.29672" lon="-1.54877">
        <ele>27.5</ele>
        <time>2020-09-27T11:36:50.000Z</time>
      </trkpt>
      <trkpt lat="47.29672" lon="-1.54877">
        <ele>27.5</ele>
        <time>2020-09-27T11:36:51.000Z</time>
      </trkpt>
      <trkpt lat="47.29672" lon="-1.54877">
        <ele>27.5</ele>
        <time>2020-09-27T11:36:52.000Z</time>
      </trkpt>
      <trkpt lat="47.29672" lon="-1.54877">
        <ele>27.5</ele>
        <time>2020-09-27T11:36:53.000Z</time>
      </trkpt>
      <trkpt lat="47.29672" lon="-1.54876">
        <ele>27.5</ele>
        <time>2020-09-27T11:36:54.000Z</time>
      </trkpt>
      <trkpt lat="47.29672" lon="-1.54876">
        <ele>27.5</ele>
        <time>2020-09-27T11:36:55.000Z</time>
      </trkpt>
      <trkpt lat="47.29672" lon="-1.54876">
        <ele>27.5</ele>
        <time>2020-09-27T11:36:56.000Z</time>
      </trkpt>
      <trkpt lat="47.29672" lon="-1.54877">
        <ele>27.5</ele>
        <time>2020-09-27T11:36:57.000Z</time>
      </trkpt>
      <trkpt lat="47.29671" lon="-1.54877">
        <ele>27.5</ele>
        <time>2020-09-27T11:36:58.000Z</time>
      </trkpt>
      <trkpt lat="47.29671" lon="-1.54877">
        <ele>27.5</ele>
        <time>2020-09-27T11:36:59.000Z</time>
      </trkpt>
      <trkpt lat="47.29671" lon="-1.54877">
        <ele>27.6</ele>
        <time>2020-09-27T11:37:00.000Z</time>
      </trkpt>
      <trkpt lat="47.29671" lon="-1.54878">
        <ele>27.6</ele>
        <time>2020-09-27T11:37:01.000Z</time>
      </trkpt>
      <trkpt lat="47.2967" lon="-1.54878">
        <ele>27.6</ele>
        <time>2020-09-27T11:37:02.000Z</time>
      </trkpt>
      <trkpt lat="47.2967" lon="-1.54878">
        <ele>27.6</ele>
        <time>2020-09-27T11:37:03.000Z</time>
      </trkpt>
      <trkpt lat="47.2967" lon="-1.54878">
        <ele>27.6</ele>
        <time>2020-09-27T11:37:04.000Z</time>
      </trkpt>
      <trkpt lat="47.2967" lon="-1.54878">
        <ele>27.6</ele>
        <time>2020-09-27T11:37:05.000Z</time>
      </trkpt>
      <trkpt lat="47.2967" lon="-1.54878">
        <ele>27.6</ele>
        <time>2020-09-27T11:37:06.000Z</time>
      </trkpt>
      <trkpt lat="47.2967" lon="-1.54878">
        <ele>27.6</ele>
        <time>2020-09-27T11:37:07.000Z</time>
      </trkpt>
      <trkpt lat="47.2967" lon="-1.54878">
        <ele>27.6</ele>
        <time>2020-09-27T11:37:08.000Z</time>
      </trkpt>
      <trkpt lat="47.2967" lon="-1.54878">
        <ele>27.6</ele>
        <time>2020-09-27T11:37:09.000Z</time>
      </trkpt>
      <trkpt lat="47.2967" lon="-1.54878">
        <ele>27.6</ele>
        <time>2020-09-27T11:37:10.000Z</time>
      </trkpt>
      <trkpt lat="47.2967" lon="-1.54878">
        <ele>27.6</ele>
        <time>2020-09-27T11:37:11.000Z</time>
      </trkpt>
      <trkpt lat="47.2967" lon="-1.54878">
        <ele>27.6</ele>
        <time>2020-09-27T11:37:12.000Z</time>
      </trkpt>
      <trkpt lat="47.2967" lon="-1.54878">
        <ele>27.6</ele>
        <time>2020-09-27T11:37:13.000Z</time>
      </trkpt>
      <trkpt lat="47.2967" lon="-1.54878">
        <ele>27.6</ele>
        <time>2020-09-27T11:37:14.000Z</time>
      </trkpt>
      <trkpt lat="47.2967" lon="-1.54878">
        <ele>27.6</ele>
        <time>2020-09-27T11:37:15.000Z</time>
      </trkpt>
      <trkpt lat="47.2967" lon="-1.54878">
        <ele>27.6</ele>
        <time>2020-09-27T11:37:16.000Z</time>
      </trkpt>
      <trkpt lat="47.2967" lon="-1.54878">
        <ele>27.6</ele>
        <time>2020-09-27T11:37:17.000Z</time>
      </trkpt>
      <trkpt lat="47.2967" lon="-1.54878">
        <ele>27.6</ele>
        <time>2020-09-27T11:37:18.000Z</time>
      </trkpt>
      <trkpt lat="47.2967" lon="-1.54878">
        <ele>27.6</ele>
        <time>2020-09-27T11:37:19.000Z</time>
      </trkpt>
      <trkpt lat="47.2967" lon="-1.54878">
        <ele>27.6</ele>
        <time>2020-09-27T11:37:20.000Z</time>
      </trkpt>
      <trkpt lat="47.2967" lon="-1.54878">
        <ele>27.6</ele>
        <time>2020-09-27T11:37:21.000Z</time>
      </trkpt>
      <trkpt lat="47.2967" lon="-1.54878">
        <ele>27.6</ele>
        <time>2020-09-27T11:37:22.000Z</time>
      </trkpt>
      <trkpt lat="47.2967" lon="-1.54878">
        <ele>27.6</ele>
        <time>2020-09-27T11:37:23.000Z</time>
      </trkpt>
      <trkpt lat="47.2967" lon="-1.54878">
        <ele>27.6</ele>
        <time>2020-09-27T11:37:24.000Z</time>
      </trkpt>
      <trkpt lat="47.2967" lon="-1.54878">
        <ele>27.6</ele>
        <time>2020-09-27T11:37:25.000Z</time>
      </trkpt>
      <trkpt lat="47.2967" lon="-1.54878">
        <ele>27.6</ele>
        <time>2020-09-27T11:37:26.000Z</time>
      </trkpt>
      <trkpt lat="47.2967" lon="-1.54878">
        <ele>27.6</ele>
        <time>2020-09-27T11:37:27.000Z</time>
      </trkpt>
      <trkpt lat="47.2967" lon="-1.54878">
        <ele>27.6</ele>
        <time>2020-09-27T11:37:28.000Z</time>
      </trkpt>
      <trkpt lat="47.2967" lon="-1.54878">
        <ele>27.6</ele>
        <time>2020-09-27T11:37:29.000Z</time>
      </trkpt>
      <trkpt lat="47.2967" lon="-1.54878">
        <ele>27.6</ele>
        <time>2020-09-27T11:37:30.000Z</time>
      </trkpt>
      <trkpt lat="47.2967" lon="-1.54878">
        <ele>27.6</ele>
        <time>2020-09-27T11:37:31.000Z</time>
      </trkpt>
      <trkpt lat="47.2967" lon="-1.54878">
        <ele>27.6</ele>
        <time>2020-09-27T11:37:32.000Z</time>
      </trkpt>
      <trkpt lat="47.2967" lon="-1.54878">
        <ele>27.6</ele>
        <time>2020-09-27T11:37:33.000Z</time>
      </trkpt>
      <trkpt lat="47.2967" lon="-1.54878">
        <ele>27.6</ele>
        <time>2020-09-27T11:37:34.000Z</time>
      </trkpt>
      <trkpt lat="47.2967" lon="-1.54878">
        <ele>27.6</ele>
        <time>2020-09-27T11:37:35.000Z</time>
      </trkpt>
      <trkpt lat="47.2967" lon="-1.54878">
        <ele>27.6</ele>
        <time>2020-09-27T11:37:36.000Z</time>
      </trkpt>
      <trkpt lat="47.2967" lon="-1.54878">
        <ele>27.6</ele>
        <time>2020-09-27T11:37:37.000Z</time>
      </trkpt>
      <trkpt lat="47.2967" lon="-1.54878">
        <ele>27.6</ele>
        <time>2020-09-27T11:37:38.000Z</time>
      </trkpt>
      <trkpt lat="47.2967" lon="-1.54878">
        <ele>27.6</ele>
        <time>2020-09-27T11:37:39.000Z</time>
      </trkpt>
      <trkpt lat="47.2967" lon="-1.54878">
        <ele>27.6</ele>
        <time>2020-09-27T11:37:40.000Z</time>
      </trkpt>
      <trkpt lat="47.2967" lon="-1.54878">
        <ele>27.6</ele>
        <time>2020-09-27T11:37:41.000Z</time>
      </trkpt>
      <trkpt lat="47.2967" lon="-1.54878">
        <ele>27.6</ele>
        <time>2020-09-27T11:37:42.000Z</time>
      </trkpt>
      <trkpt lat="47.2967" lon="-1.54878">
        <ele>27.6</ele>
        <time>2020-09-27T11:37:43.000Z</time>
      </trkpt>
      <trkpt lat="47.2967" lon="-1.54878">
        <ele>27.6</ele>
        <time>2020-09-27T11:37:44.000Z</time>
      </trkpt>
      <trkpt lat="47.2967" lon="-1.54878">
        <ele>27.6</ele>
        <time>2020-09-27T11:37:45.000Z</time>
      </trkpt>
      <trkpt lat="47.2967" lon="-1.54878">
        <ele>27.6</ele>
        <time>2020-09-27T11:37:46.000Z</time>
      </trkpt>
      <trkpt lat="47.2967" lon="-1.54878">
        <ele>27.6</ele>
        <time>2020-09-27T11:37:47.000Z</time>
      </trkpt>
      <trkpt lat="47.2967" lon="-1.54878">
        <ele>27.6</ele>
        <time>2020-09-27T11:37:48.000Z</time>
      </trkpt>
      <trkpt lat="47.2967" lon="-1.54878">
        <ele>27.6</ele>
        <time>2020-09-27T11:37:49.000Z</time>
      </trkpt>
      <trkpt lat="47.2967" lon="-1.54878">
        <ele>27.6</ele>
        <time>2020-09-27T11:37:50.000Z</time>
      </trkpt>
      <trkpt lat="47.29671" lon="-1.54878">
        <ele>27.6</ele>
        <time>2020-09-27T11:37:51.000Z</time>
      </trkpt>
      <trkpt lat="47.29671" lon="-1.54879">
        <ele>27.6</ele>
        <time>2020-09-27T11:37:52.000Z</time>
      </trkpt>
      <trkpt lat="47.29671" lon="-1.54879">
        <ele>27.6</ele>
        <time>2020-09-27T11:37:53.000Z</time>
      </trkpt>
      <trkpt lat="47.29671" lon="-1.54879">
        <ele>27.6</ele>
        <time>2020-09-27T11:37:54.000Z</time>
      </trkpt>
      <trkpt lat="47.29671" lon="-1.54879">
        <ele>27.6</ele>
        <time>2020-09-27T11:37:55.000Z</time>
      </trkpt>
      <trkpt lat="47.29671" lon="-1.54879">
        <ele>27.6</ele>
        <time>2020-09-27T11:37:56.000Z</time>
      </trkpt>
      <trkpt lat="47.29671" lon="-1.54879">
        <ele>27.6</ele>
        <time>2020-09-27T11:37:57.000Z</time>
      </trkpt>
      <trkpt lat="47.29671" lon="-1.54879">
        <ele>27.6</ele>
        <time>2020-09-27T11:37:58.000Z</time>
      </trkpt>
      <trkpt lat="47.29672" lon="-1.54879">
        <ele>27.6</ele>
        <time>2020-09-27T11:37:59.000Z</time>
      </trkpt>
      <trkpt lat="47.29672" lon="-1.54879">
        <ele>27.6</ele>
        <time>2020-09-27T11:38:00.000Z</time>
      </trkpt>
      <trkpt lat="47.29672" lon="-1.54879">
        <ele>27.6</ele>
        <time>2020-09-27T11:38:01.000Z</time>
      </trkpt>
      <trkpt lat="47.29672" lon="-1.54879">
        <ele>27.6</ele>
        <time>2020-09-27T11:38:02.000Z</time>
      </trkpt>
      <trkpt lat="47.29672" lon="-1.54879">
        <ele>27.6</ele>
        <time>2020-09-27T11:38:03.000Z</time>
      </trkpt>
      <trkpt lat="47.29672" lon="-1.54879">
        <ele>27.6</ele>
        <time>2020-09-27T11:38:04.000Z</time>
      </trkpt>
      <trkpt lat="47.29672" lon="-1.54879">
        <ele>27.6</ele>
        <time>2020-09-27T11:38:05.000Z</time>
      </trkpt>
      <trkpt lat="47.29672" lon="-1.54879">
        <ele>27.6</ele>
        <time>2020-09-27T11:38:06.000Z</time>
      </trkpt>
      <trkpt lat="47.29672" lon="-1.54879">
        <ele>27.6</ele>
        <time>2020-09-27T11:38:07.000Z</time>
      </trkpt>
      <trkpt lat="47.29672" lon="-1.54879">
        <ele>27.6</ele>
        <time>2020-09-27T11:38:08.000Z</time>
      </trkpt>
      <trkpt lat="47.29672" lon="-1.54879">
        <ele>27.6</ele>
        <time>2020-09-27T11:38:09.000Z</time>
      </trkpt>
      <trkpt lat="47.29671" lon="-1.54879">
        <ele>27.6</ele>
        <time>2020-09-27T11:38:10.000Z</time>
      </trkpt>
      <trkpt lat="47.29671" lon="-1.54878">
        <ele>27.6</ele>
        <time>2020-09-27T11:38:11.000Z</time>
      </trkpt>
      <trkpt lat="47.29671" lon="-1.54878">
        <ele>27.6</ele>
        <time>2020-09-27T11:38:12.000Z</time>
      </trkpt>
      <trkpt lat="47.29671" lon="-1.54878">
        <ele>27.6</ele>
        <time>2020-09-27T11:38:13.000Z</time>
      </trkpt>
      <trkpt lat="47.29671" lon="-1.54878">
        <ele>27.6</ele>
        <time>2020-09-27T11:38:14.000Z</time>
      </trkpt>
      <trkpt lat="47.29671" lon="-1.54878">
        <ele>27.6</ele>
        <time>2020-09-27T11:38:15.000Z</time>
      </trkpt>
      <trkpt lat="47.29671" lon="-1.54878">
        <ele>27.6</ele>
        <time>2020-09-27T11:38:16.000Z</time>
      </trkpt>
      <trkpt lat="47.29671" lon="-1.54878">
        <ele>27.6</ele>
        <time>2020-09-27T11:38:17.000Z</time>
      </trkpt>
      <trkpt lat="47.29671" lon="-1.54878">
        <ele>27.6</ele>
        <time>2020-09-27T11:38:18.000Z</time>
      </trkpt>
      <trkpt lat="47.29671" lon="-1.54878">
        <ele>27.6</ele>
        <time>2020-09-27T11:38:19.000Z</time>
      </trkpt>
      <trkpt lat="47.29671" lon="-1.54878">
        <ele>27.6</ele>
        <time>2020-09-27T11:38:20.000Z</time>
      </trkpt>
      <trkpt lat="47.29671" lon="-1.54878">
        <ele>27.6</ele>
        <time>2020-09-27T11:38:21.000Z</time>
      </trkpt>
      <trkpt lat="47.29671" lon="-1.54878">
        <ele>27.6</ele>
        <time>2020-09-27T11:38:22.000Z</time>
      </trkpt>
      <trkpt lat="47.29671" lon="-1.54878">
        <ele>27.6</ele>
        <time>2020-09-27T11:38:23.000Z</time>
      </trkpt>
      <trkpt lat="47.29671" lon="-1.54878">
        <ele>27.6</ele>
        <time>2020-09-27T11:38:24.000Z</time>
      </trkpt>
      <trkpt lat="47.29671" lon="-1.54878">
        <ele>27.6</ele>
        <time>2020-09-27T11:38:25.000Z</time>
      </trkpt>
      <trkpt lat="47.29671" lon="-1.54878">
        <ele>27.6</ele>
        <time>2020-09-27T11:38:26.000Z</time>
      </trkpt>
      <trkpt lat="47.29671" lon="-1.54878">
        <ele>27.6</ele>
        <time>2020-09-27T11:38:27.000Z</time>
      </trkpt>
      <trkpt lat="47.29671" lon="-1.54878">
        <ele>27.6</ele>
        <time>2020-09-27T11:38:28.000Z</time>
      </trkpt>
      <trkpt lat="47.29671" lon="-1.54878">
        <ele>27.6</ele>
        <time>2020-09-27T11:38:29.000Z</time>
      </trkpt>
      <trkpt lat="47.29671" lon="-1.54878">
        <ele>27.6</ele>
        <time>2020-09-27T11:38:30.000Z</time>
      </trkpt>
      <trkpt lat="47.29671" lon="-1.54878">
        <ele>27.6</ele>
        <time>2020-09-27T11:38:31.000Z</time>
      </trkpt>
      <trkpt lat="47.29671" lon="-1.54878">
        <ele>27.6</ele>
        <time>2020-09-27T11:38:32.000Z</time>
      </trkpt>
      <trkpt lat="47.29671" lon="-1.54878">
        <ele>27.6</ele>
        <time>2020-09-27T11:38:33.000Z</time>
      </trkpt>
      <trkpt lat="47.29671" lon="-1.54878">
        <ele>27.6</ele>
        <time>2020-09-27T11:38:34.000Z</time>
      </trkpt>
      <trkpt lat="47.29671" lon="-1.54878">
        <ele>27.6</ele>
        <time>2020-09-27T11:38:35.000Z</time>
      </trkpt>
      <trkpt lat="47.29671" lon="-1.54878">
        <ele>27.6</ele>
        <time>2020-09-27T11:38:36.000Z</time>
      </trkpt>
      <trkpt lat="47.29671" lon="-1.54878">
        <ele>27.6</ele>
        <time>2020-09-27T11:38:37.000Z</time>
      </trkpt>
      <trkpt lat="47.29671" lon="-1.54878">
        <ele>27.6</ele>
        <time>2020-09-27T11:38:38.000Z</time>
      </trkpt>
      <trkpt lat="47.29671" lon="-1.54878">
        <ele>27.6</ele>
        <time>2020-09-27T11:38:39.000Z</time>
      </trkpt>
      <trkpt lat="47.29671" lon="-1.54878">
        <ele>27.6</ele>
        <time>2020-09-27T11:38:40.000Z</time>
      </trkpt>
      <trkpt lat="47.29671" lon="-1.54878">
        <ele>27.6</ele>
        <time>2020-09-27T11:38:41.000Z</time>
      </trkpt>
      <trkpt lat="47.29671" lon="-1.54878">
        <ele>27.6</ele>
        <time>2020-09-27T11:38:42.000Z</time>
      </trkpt>
      <trkpt lat="47.29671" lon="-1.54878">
        <ele>27.6</ele>
        <time>2020-09-27T11:38:43.000Z</time>
      </trkpt>
      <trkpt lat="47.29671" lon="-1.54878">
        <ele>27.6</ele>
        <time>2020-09-27T11:38:44.000Z</time>
      </trkpt>
      <trkpt lat="47.29671" lon="-1.54878">
        <ele>27.6</ele>
        <time>2020-09-27T11:38:45.000Z</time>
      </trkpt>
      <trkpt lat="47.29671" lon="-1.54878">
        <ele>27.6</ele>
        <time>2020-09-27T11:38:46.000Z</time>
      </trkpt>
      <trkpt lat="47.29671" lon="-1.54878">
        <ele>27.6</ele>
        <time>2020-09-27T11:38:47.000Z</time>
      </trkpt>
      <trkpt lat="47.29671" lon="-1.54878">
        <ele>27.6</ele>
        <time>2020-09-27T11:38:48.000Z</time>
      </trkpt>
      <trkpt lat="47.29671" lon="-1.54878">
        <ele>27.6</ele>
        <time>2020-09-27T11:38:49.000Z</time>
      </trkpt>
      <trkpt lat="47.29671" lon="-1.54878">
        <ele>27.6</ele>
        <time>2020-09-27T11:38:50.000Z</time>
      </trkpt>
      <trkpt lat="47.29671" lon="-1.54878">
        <ele>27.6</ele>
        <time>2020-09-27T11:38:51.000Z</time>
      </trkpt>
      <trkpt lat="47.29671" lon="-1.54878">
        <ele>27.6</ele>
        <time>2020-09-27T11:38:52.000Z</time>
      </trkpt>
      <trkpt lat="47.29671" lon="-1.54878">
        <ele>27.6</ele>
        <time>2020-09-27T11:38:53.000Z</time>
      </trkpt>
      <trkpt lat="47.29671" lon="-1.54878">
        <ele>27.6</ele>
        <time>2020-09-27T11:38:54.000Z</time>
      </trkpt>
      <trkpt lat="47.29671" lon="-1.54878">
        <ele>27.6</ele>
        <time>2020-09-27T11:38:55.000Z</time>
      </trkpt>
      <trkpt lat="47.29671" lon="-1.54878">
        <ele>27.6</ele>
        <time>2020-09-27T11:38:56.000Z</time>
      </trkpt>
      <trkpt lat="47.29671" lon="-1.54878">
        <ele>27.6</ele>
        <time>2020-09-27T11:38:57.000Z</time>
      </trkpt>
      <trkpt lat="47.29671" lon="-1.54878">
        <ele>27.6</ele>
        <time>2020-09-27T11:38:58.000Z</time>
      </trkpt>
      <trkpt lat="47.29671" lon="-1.54878">
        <ele>27.6</ele>
        <time>2020-09-27T11:38:59.000Z</time>
      </trkpt>
      <trkpt lat="47.29671" lon="-1.54878">
        <ele>27.6</ele>
        <time>2020-09-27T11:39:00.000Z</time>
      </trkpt>
      <trkpt lat="47.29671" lon="-1.54878">
        <ele>27.6</ele>
        <time>2020-09-27T11:39:01.000Z</time>
      </trkpt>
      <trkpt lat="47.29671" lon="-1.54878">
        <ele>27.6</ele>
        <time>2020-09-27T11:39:02.000Z</time>
      </trkpt>
      <trkpt lat="47.29671" lon="-1.54878">
        <ele>27.6</ele>
        <time>2020-09-27T11:39:03.000Z</time>
      </trkpt>
      <trkpt lat="47.29671" lon="-1.54878">
        <ele>27.6</ele>
        <time>2020-09-27T11:39:04.000Z</time>
      </trkpt>
      <trkpt lat="47.29671" lon="-1.54878">
        <ele>27.6</ele>
        <time>2020-09-27T11:39:05.000Z</time>
      </trkpt>
      <trkpt lat="47.29671" lon="-1.54878">
        <ele>27.6</ele>
        <time>2020-09-27T11:39:06.000Z</time>
      </trkpt>
      <trkpt lat="47.29671" lon="-1.54878">
        <ele>27.6</ele>
        <time>2020-09-27T11:39:07.000Z</time>
      </trkpt>
      <trkpt lat="47.29671" lon="-1.54878">
        <ele>27.6</ele>
        <time>2020-09-27T11:39:08.000Z</time>
      </trkpt>
      <trkpt lat="47.29671" lon="-1.54878">
        <ele>27.6</ele>
        <time>2020-09-27T11:39:09.000Z</time>
      </trkpt>
      <trkpt lat="47.29671" lon="-1.54878">
        <ele>27.6</ele>
        <time>2020-09-27T11:39:10.000Z</time>
      </trkpt>
      <trkpt lat="47.29671" lon="-1.54878">
        <ele>27.6</ele>
        <time>2020-09-27T11:39:11.000Z</time>
      </trkpt>
      <trkpt lat="47.29671" lon="-1.54878">
        <ele>27.6</ele>
        <time>2020-09-27T11:39:12.000Z</time>
      </trkpt>
      <trkpt lat="47.29671" lon="-1.54878">
        <ele>27.6</ele>
        <time>2020-09-27T11:39:13.000Z</time>
      </trkpt>
      <trkpt lat="47.29671" lon="-1.54878">
        <ele>27.6</ele>
        <time>2020-09-27T11:39:14.000Z</time>
      </trkpt>
      <trkpt lat="47.29671" lon="-1.54878">
        <ele>27.6</ele>
        <time>2020-09-27T11:39:15.000Z</time>
      </trkpt>
      <trkpt lat="47.29671" lon="-1.54878">
        <ele>27.6</ele>
        <time>2020-09-27T11:39:16.000Z</time>
      </trkpt>
      <trkpt lat="47.29671" lon="-1.54878">
        <ele>27.6</ele>
        <time>2020-09-27T11:39:17.000Z</time>
      </trkpt>
      <trkpt lat="47.29671" lon="-1.54878">
        <ele>27.6</ele>
        <time>2020-09-27T11:39:18.000Z</time>
      </trkpt>
      <trkpt lat="47.29671" lon="-1.54878">
        <ele>27.6</ele>
        <time>2020-09-27T11:39:19.000Z</time>
      </trkpt>
      <trkpt lat="47.29671" lon="-1.54878">
        <ele>27.6</ele>
        <time>2020-09-27T11:39:20.000Z</time>
      </trkpt>
      <trkpt lat="47.29671" lon="-1.54878">
        <ele>27.6</ele>
        <time>2020-09-27T11:39:21.000Z</time>
      </trkpt>
      <trkpt lat="47.29671" lon="-1.54878">
        <ele>27.6</ele>
        <time>2020-09-27T11:39:22.000Z</time>
      </trkpt>
      <trkpt lat="47.29671" lon="-1.54878">
        <ele>27.6</ele>
        <time>2020-09-27T11:39:23.000Z</time>
      </trkpt>
      <trkpt lat="47.29671" lon="-1.54878">
        <ele>27.6</ele>
        <time>2020-09-27T11:39:24.000Z</time>
      </trkpt>
      <trkpt lat="47.29671" lon="-1.54878">
        <ele>27.6</ele>
        <time>2020-09-27T11:39:25.000Z</time>
      </trkpt>
      <trkpt lat="47.29672" lon="-1.54878">
        <ele>27.6</ele>
        <time>2020-09-27T11:39:26.000Z</time>
      </trkpt>
      <trkpt lat="47.29672" lon="-1.54878">
        <ele>27.6</ele>
        <time>2020-09-27T11:39:27.000Z</time>
      </trkpt>
      <trkpt lat="47.29672" lon="-1.54878">
        <ele>27.6</ele>
        <time>2020-09-27T11:39:28.000Z</time>
      </trkpt>
      <trkpt lat="47.29672" lon="-1.54878">
        <ele>27.6</ele>
        <time>2020-09-27T11:39:29.000Z</time>
      </trkpt>
      <trkpt lat="47.29672" lon="-1.54878">
        <ele>27.6</ele>
        <time>2020-09-27T11:39:30.000Z</time>
      </trkpt>
      <trkpt lat="47.29672" lon="-1.54878">
        <ele>27.6</ele>
        <time>2020-09-27T11:39:31.000Z</time>
      </trkpt>
      <trkpt lat="47.29672" lon="-1.54878">
        <ele>27.6</ele>
        <time>2020-09-27T11:39:32.000Z</time>
      </trkpt>
      <trkpt lat="47.29672" lon="-1.54878">
        <ele>27.6</ele>
        <time>2020-09-27T11:39:33.000Z</time>
      </trkpt>
      <trkpt lat="47.29672" lon="-1.54878">
        <ele>27.6</ele>
        <time>2020-09-27T11:39:34.000Z</time>
      </trkpt>
      <trkpt lat="47.29672" lon="-1.54878">
        <ele>27.6</ele>
        <time>2020-09-27T11:39:35.000Z</time>
      </trkpt>
      <trkpt lat="47.29672" lon="-1.54878">
        <ele>27.6</ele>
        <time>2020-09-27T11:39:36.000Z</time>
      </trkpt>
      <trkpt lat="47.29672" lon="-1.54878">
        <ele>27.6</ele>
        <time>2020-09-27T11:39:37.000Z</time>
      </trkpt>
      <trkpt lat="47.29672" lon="-1.54878">
        <ele>27.6</ele>
        <time>2020-09-27T11:39:38.000Z</time>
      </trkpt>
      <trkpt lat="47.29672" lon="-1.54878">
        <ele>27.6</ele>
        <time>2020-09-27T11:39:39.000Z</time>
      </trkpt>
      <trkpt lat="47.29672" lon="-1.54878">
        <ele>27.6</ele>
        <time>2020-09-27T11:39:40.000Z</time>
      </trkpt>
      <trkpt lat="47.29672" lon="-1.54878">
        <ele>27.6</ele>
        <time>2020-09-27T11:39:41.000Z</time>
      </trkpt>
      <trkpt lat="47.29672" lon="-1.54878">
        <ele>27.6</ele>
        <time>2020-09-27T11:39:42.000Z</time>
      </trkpt>
      <trkpt lat="47.29672" lon="-1.54877">
        <ele>27.6</ele>
        <time>2020-09-27T11:39:43.000Z</time>
      </trkpt>
      <trkpt lat="47.29672" lon="-1.54877">
        <ele>27.5</ele>
        <time>2020-09-27T11:39:44.000Z</time>
      </trkpt>
      <trkpt lat="47.29672" lon="-1.54876">
        <ele>27.5</ele>
        <time>2020-09-27T11:39:45.000Z</time>
      </trkpt>
      <trkpt lat="47.29671" lon="-1.54876">
        <ele>27.5</ele>
        <time>2020-09-27T11:39:46.000Z</time>
      </trkpt>
      <trkpt lat="47.29671" lon="-1.54876">
        <ele>27.5</ele>
        <time>2020-09-27T11:39:47.000Z</time>
      </trkpt>
      <trkpt lat="47.29672" lon="-1.54876">
        <ele>27.5</ele>
        <time>2020-09-27T11:39:48.000Z</time>
      </trkpt>
      <trkpt lat="47.29672" lon="-1.54876">
        <ele>27.5</ele>
        <time>2020-09-27T11:39:49.000Z</time>
      </trkpt>
      <trkpt lat="47.29672" lon="-1.54876">
        <ele>27.5</ele>
        <time>2020-09-27T11:39:50.000Z</time>
      </trkpt>
      <trkpt lat="47.29672" lon="-1.54876">
        <ele>27.5</ele>
        <time>2020-09-27T11:39:51.000Z</time>
      </trkpt>
      <trkpt lat="47.29672" lon="-1.54876">
        <ele>27.5</ele>
        <time>2020-09-27T11:39:52.000Z</time>
      </trkpt>
      <trkpt lat="47.29672" lon="-1.54876">
        <ele>27.5</ele>
        <time>2020-09-27T11:39:53.000Z</time>
      </trkpt>
      <trkpt lat="47.29672" lon="-1.54876">
        <ele>27.5</ele>
        <time>2020-09-27T11:39:54.000Z</time>
      </trkpt>
      <trkpt lat="47.29672" lon="-1.54876">
        <ele>27.5</ele>
        <time>2020-09-27T11:39:55.000Z</time>
      </trkpt>
      <trkpt lat="47.29672" lon="-1.54876">
        <ele>27.5</ele>
        <time>2020-09-27T11:39:56.000Z</time>
      </trkpt>
      <trkpt lat="47.29672" lon="-1.54876">
        <ele>27.5</ele>
        <time>2020-09-27T11:39:57.000Z</time>
      </trkpt>
      <trkpt lat="47.29672" lon="-1.54876">
        <ele>27.5</ele>
        <time>2020-09-27T11:39:58.000Z</time>
      </trkpt>
      <trkpt lat="47.29672" lon="-1.54876">
        <ele>27.5</ele>
        <time>2020-09-27T11:39:59.000Z</time>
      </trkpt>
      <trkpt lat="47.29672" lon="-1.54876">
        <ele>27.5</ele>
        <time>2020-09-27T11:40:00.000Z</time>
      </trkpt>
      <trkpt lat="47.29672" lon="-1.54876">
        <ele>27.5</ele>
        <time>2020-09-27T11:40:01.000Z</time>
      </trkpt>
      <trkpt lat="47.29672" lon="-1.54876">
        <ele>27.5</ele>
        <time>2020-09-27T11:40:02.000Z</time>
      </trkpt>
      <trkpt lat="47.29672" lon="-1.54876">
        <ele>27.5</ele>
        <time>2020-09-27T11:40:03.000Z</time>
      </trkpt>
      <trkpt lat="47.29672" lon="-1.54876">
        <ele>27.5</ele>
        <time>2020-09-27T11:40:04.000Z</time>
      </trkpt>
      <trkpt lat="47.29672" lon="-1.54876">
        <ele>27.5</ele>
        <time>2020-09-27T11:40:05.000Z</time>
      </trkpt>
      <trkpt lat="47.29672" lon="-1.54876">
        <ele>27.5</ele>
        <time>2020-09-27T11:40:06.000Z</time>
      </trkpt>
      <trkpt lat="47.29672" lon="-1.54876">
        <ele>27.5</ele>
        <time>2020-09-27T11:40:07.000Z</time>
      </trkpt>
      <trkpt lat="47.29672" lon="-1.54876">
        <ele>27.5</ele>
        <time>2020-09-27T11:40:08.000Z</time>
      </trkpt>
      <trkpt lat="47.29672" lon="-1.54876">
        <ele>27.5</ele>
        <time>2020-09-27T11:40:09.000Z</time>
      </trkpt>
      <trkpt lat="47.29672" lon="-1.54876">
        <ele>27.5</ele>
        <time>2020-09-27T11:40:10.000Z</time>
      </trkpt>
      <trkpt lat="47.29672" lon="-1.54876">
        <ele>27.5</ele>
        <time>2020-09-27T11:40:11.000Z</time>
      </trkpt>
      <trkpt lat="47.29672" lon="-1.54876">
        <ele>27.5</ele>
        <time>2020-09-27T11:40:12.000Z</time>
      </trkpt>
      <trkpt lat="47.29672" lon="-1.54876">
        <ele>27.5</ele>
        <time>2020-09-27T11:40:13.000Z</time>
      </trkpt>
      <trkpt lat="47.29672" lon="-1.54876">
        <ele>27.5</ele>
        <time>2020-09-27T11:40:14.000Z</time>
      </trkpt>
      <trkpt lat="47.29672" lon="-1.54876">
        <ele>27.5</ele>
        <time>2020-09-27T11:40:15.000Z</time>
      </trkpt>
      <trkpt lat="47.29672" lon="-1.54876">
        <ele>27.5</ele>
        <time>2020-09-27T11:40:16.000Z</time>
      </trkpt>
      <trkpt lat="47.29672" lon="-1.54876">
        <ele>27.5</ele>
        <time>2020-09-27T11:40:17.000Z</time>
      </trkpt>
      <trkpt lat="47.29672" lon="-1.54876">
        <ele>27.5</ele>
        <time>2020-09-27T11:40:18.000Z</time>
      </trkpt>
      <trkpt lat="47.29672" lon="-1.54876">
        <ele>27.5</ele>
        <time>2020-09-27T11:40:19.000Z</time>
      </trkpt>
      <trkpt lat="47.29672" lon="-1.54876">
        <ele>27.5</ele>
        <time>2020-09-27T11:40:20.000Z</time>
      </trkpt>
      <trkpt lat="47.29672" lon="-1.54876">
        <ele>27.5</ele>
        <time>2020-09-27T11:40:21.000Z</time>
      </trkpt>
      <trkpt lat="47.29672" lon="-1.54876">
        <ele>27.5</ele>
        <time>2020-09-27T11:40:22.000Z</time>
      </trkpt>
      <trkpt lat="47.29672" lon="-1.54876">
        <ele>27.5</ele>
        <time>2020-09-27T11:40:23.000Z</time>
      </trkpt>
      <trkpt lat="47.29672" lon="-1.54876">
        <ele>27.5</ele>
        <time>2020-09-27T11:40:24.000Z</time>
      </trkpt>
      <trkpt lat="47.29672" lon="-1.54876">
        <ele>27.5</ele>
        <time>2020-09-27T11:40:25.000Z</time>
      </trkpt>
      <trkpt lat="47.29672" lon="-1.54876">
        <ele>27.5</ele>
        <time>2020-09-27T11:40:26.000Z</time>
      </trkpt>
      <trkpt lat="47.29672" lon="-1.54876">
        <ele>27.5</ele>
        <time>2020-09-27T11:40:27.000Z</time>
      </trkpt>
      <trkpt lat="47.29672" lon="-1.54876">
        <ele>27.5</ele>
        <time>2020-09-27T11:40:28.000Z</time>
      </trkpt>
      <trkpt lat="47.29672" lon="-1.54876">
        <ele>27.5</ele>
        <time>2020-09-27T11:40:29.000Z</time>
      </trkpt>
      <trkpt lat="47.29672" lon="-1.54876">
        <ele>27.5</ele>
        <time>2020-09-27T11:40:30.000Z</time>
      </trkpt>
      <trkpt lat="47.29672" lon="-1.54876">
        <ele>27.5</ele>
        <time>2020-09-27T11:40:31.000Z</time>
      </trkpt>
      <trkpt lat="47.29672" lon="-1.54876">
        <ele>27.5</ele>
        <time>2020-09-27T11:40:32.000Z</time>
      </trkpt>
      <trkpt lat="47.29672" lon="-1.54876">
        <ele>27.5</ele>
        <time>2020-09-27T11:40:33.000Z</time>
      </trkpt>
      <trkpt lat="47.29672" lon="-1.54876">
        <ele>27.5</ele>
        <time>2020-09-27T11:40:34.000Z</time>
      </trkpt>
      <trkpt lat="47.29672" lon="-1.54876">
        <ele>27.5</ele>
        <time>2020-09-27T11:40:35.000Z</time>
      </trkpt>
      <trkpt lat="47.29672" lon="-1.54876">
        <ele>27.5</ele>
        <time>2020-09-27T11:40:36.000Z</time>
      </trkpt>
      <trkpt lat="47.29672" lon="-1.54876">
        <ele>27.5</ele>
        <time>2020-09-27T11:40:37.000Z</time>
      </trkpt>
      <trkpt lat="47.29672" lon="-1.54876">
        <ele>27.5</ele>
        <time>2020-09-27T11:40:38.000Z</time>
      </trkpt>
      <trkpt lat="47.29672" lon="-1.54876">
        <ele>27.5</ele>
        <time>2020-09-27T11:40:39.000Z</time>
      </trkpt>
      <trkpt lat="47.29672" lon="-1.54876">
        <ele>27.5</ele>
        <time>2020-09-27T11:40:40.000Z</time>
      </trkpt>
      <trkpt lat="47.29672" lon="-1.54876">
        <ele>27.5</ele>
        <time>2020-09-27T11:40:41.000Z</time>
      </trkpt>
      <trkpt lat="47.29672" lon="-1.54876">
        <ele>27.5</ele>
        <time>2020-09-27T11:40:42.000Z</time>
      </trkpt>
      <trkpt lat="47.29672" lon="-1.54876">
        <ele>27.5</ele>
        <time>2020-09-27T11:40:43.000Z</time>
      </trkpt>
      <trkpt lat="47.29672" lon="-1.54876">
        <ele>27.5</ele>
        <time>2020-09-27T11:40:44.000Z</time>
      </trkpt>
      <trkpt lat="47.29672" lon="-1.54876">
        <ele>27.5</ele>
        <time>2020-09-27T11:40:45.000Z</time>
      </trkpt>
      <trkpt lat="47.29672" lon="-1.54876">
        <ele>27.5</ele>
        <time>2020-09-27T11:40:46.000Z</time>
      </trkpt>
      <trkpt lat="47.29672" lon="-1.54876">
        <ele>27.5</ele>
        <time>2020-09-27T11:40:47.000Z</time>
      </trkpt>
      <trkpt lat="47.29672" lon="-1.54876">
        <ele>27.5</ele>
        <time>2020-09-27T11:40:48.000Z</time>
      </trkpt>
      <trkpt lat="47.29672" lon="-1.54876">
        <ele>27.5</ele>
        <time>2020-09-27T11:40:49.000Z</time>
      </trkpt>
      <trkpt lat="47.29672" lon="-1.54876">
        <ele>27.5</ele>
        <time>2020-09-27T11:40:50.000Z</time>
      </trkpt>
      <trkpt lat="47.29672" lon="-1.54876">
        <ele>27.5</ele>
        <time>2020-09-27T11:40:51.000Z</time>
      </trkpt>
      <trkpt lat="47.29672" lon="-1.54876">
        <ele>27.5</ele>
        <time>2020-09-27T11:40:52.000Z</time>
      </trkpt>
      <trkpt lat="47.29672" lon="-1.54876">
        <ele>27.5</ele>
        <time>2020-09-27T11:40:53.000Z</time>
      </trkpt>
      <trkpt lat="47.29672" lon="-1.54876">
        <ele>27.5</ele>
        <time>2020-09-27T11:40:54.000Z</time>
      </trkpt>
      <trkpt lat="47.29672" lon="-1.54876">
        <ele>27.5</ele>
        <time>2020-09-27T11:40:55.000Z</time>
      </trkpt>
      <trkpt lat="47.29672" lon="-1.54876">
        <ele>27.5</ele>
        <time>2020-09-27T11:40:56.000Z</time>
      </trkpt>
      <trkpt lat="47.29672" lon="-1.54876">
        <ele>27.5</ele>
        <time>2020-09-27T11:40:57.000Z</time>
      </trkpt>
      <trkpt lat="47.29672" lon="-1.54876">
        <ele>27.5</ele>
        <time>2020-09-27T11:40:58.000Z</time>
      </trkpt>
      <trkpt lat="47.29672" lon="-1.54876">
        <ele>27.5</ele>
        <time>2020-09-27T11:40:59.000Z</time>
      </trkpt>
      <trkpt lat="47.29672" lon="-1.54876">
        <ele>27.5</ele>
        <time>2020-09-27T11:41:00.000Z</time>
      </trkpt>
      <trkpt lat="47.29672" lon="-1.54876">
        <ele>27.5</ele>
        <time>2020-09-27T11:41:01.000Z</time>
      </trkpt>
      <trkpt lat="47.29672" lon="-1.54876">
        <ele>27.5</ele>
        <time>2020-09-27T11:41:02.000Z</time>
      </trkpt>
      <trkpt lat="47.29672" lon="-1.54876">
        <ele>27.5</ele>
        <time>2020-09-27T11:41:03.000Z</time>
      </trkpt>
      <trkpt lat="47.29672" lon="-1.54876">
        <ele>27.5</ele>
        <time>2020-09-27T11:41:04.000Z</time>
      </trkpt>
      <trkpt lat="47.29672" lon="-1.54876">
        <ele>27.5</ele>
        <time>2020-09-27T11:41:05.000Z</time>
      </trkpt>
      <trkpt lat="47.29672" lon="-1.54876">
        <ele>27.5</ele>
        <time>2020-09-27T11:41:06.000Z</time>
      </trkpt>
      <trkpt lat="47.29672" lon="-1.54876">
        <ele>27.5</ele>
        <time>2020-09-27T11:41:07.000Z</time>
      </trkpt>
      <trkpt lat="47.29672" lon="-1.54876">
        <ele>27.5</ele>
        <time>2020-09-27T11:41:08.000Z</time>
      </trkpt>
      <trkpt lat="47.29672" lon="-1.54876">
        <ele>27.5</ele>
        <time>2020-09-27T11:41:09.000Z</time>
      </trkpt>
      <trkpt lat="47.29672" lon="-1.54876">
        <ele>27.5</ele>
        <time>2020-09-27T11:41:10.000Z</time>
      </trkpt>
      <trkpt lat="47.29672" lon="-1.54876">
        <ele>27.5</ele>
        <time>2020-09-27T11:41:11.000Z</time>
      </trkpt>
      <trkpt lat="47.29672" lon="-1.54876">
        <ele>27.5</ele>
        <time>2020-09-27T11:41:12.000Z</time>
      </trkpt>
      <trkpt lat="47.29672" lon="-1.54876">
        <ele>27.5</ele>
        <time>2020-09-27T11:41:13.000Z</time>
      </trkpt>
      <trkpt lat="47.29672" lon="-1.54876">
        <ele>27.5</ele>
        <time>2020-09-27T11:41:14.000Z</time>
      </trkpt>
      <trkpt lat="47.29672" lon="-1.54876">
        <ele>27.5</ele>
        <time>2020-09-27T11:41:15.000Z</time>
      </trkpt>
      <trkpt lat="47.29672" lon="-1.54876">
        <ele>27.5</ele>
        <time>2020-09-27T11:41:16.000Z</time>
      </trkpt>
      <trkpt lat="47.29672" lon="-1.54876">
        <ele>27.5</ele>
        <time>2020-09-27T11:41:17.000Z</time>
      </trkpt>
      <trkpt lat="47.29672" lon="-1.54876">
        <ele>27.5</ele>
        <time>2020-09-27T11:41:18.000Z</time>
      </trkpt>
      <trkpt lat="47.29672" lon="-1.54876">
        <ele>27.5</ele>
        <time>2020-09-27T11:41:19.000Z</time>
      </trkpt>
      <trkpt lat="47.29672" lon="-1.54876">
        <ele>27.5</ele>
        <time>2020-09-27T11:41:20.000Z</time>
      </trkpt>
      <trkpt lat="47.29672" lon="-1.54876">
        <ele>27.5</ele>
        <time>2020-09-27T11:41:21.000Z</time>
      </trkpt>
      <trkpt lat="47.29672" lon="-1.54876">
        <ele>27.5</ele>
        <time>2020-09-27T11:41:22.000Z</time>
      </trkpt>
      <trkpt lat="47.29672" lon="-1.54876">
        <ele>27.5</ele>
        <time>2020-09-27T11:41:23.000Z</time>
      </trkpt>
      <trkpt lat="47.29672" lon="-1.54876">
        <ele>27.5</ele>
        <time>2020-09-27T11:41:24.000Z</time>
      </trkpt>
      <trkpt lat="47.29672" lon="-1.54876">
        <ele>27.5</ele>
        <time>2020-09-27T11:41:25.000Z</time>
      </trkpt>
      <trkpt lat="47.29672" lon="-1.54876">
        <ele>27.5</ele>
        <time>2020-09-27T11:41:26.000Z</time>
      </trkpt>
      <trkpt lat="47.29672" lon="-1.54876">
        <ele>27.5</ele>
        <time>2020-09-27T11:41:27.000Z</time>
      </trkpt>
      <trkpt lat="47.29672" lon="-1.54876">
        <ele>27.5</ele>
        <time>2020-09-27T11:41:28.000Z</time>
      </trkpt>
      <trkpt lat="47.29672" lon="-1.54876">
        <ele>27.5</ele>
        <time>2020-09-27T11:41:29.000Z</time>
      </trkpt>
      <trkpt lat="47.29672" lon="-1.54876">
        <ele>27.5</ele>
        <time>2020-09-27T11:41:30.000Z</time>
      </trkpt>
      <trkpt lat="47.29672" lon="-1.54876">
        <ele>27.5</ele>
        <time>2020-09-27T11:41:31.000Z</time>
      </trkpt>
      <trkpt lat="47.29672" lon="-1.54876">
        <ele>27.5</ele>
        <time>2020-09-27T11:41:32.000Z</time>
      </trkpt>
      <trkpt lat="47.29672" lon="-1.54876">
        <ele>27.5</ele>
        <time>2020-09-27T11:41:33.000Z</time>
      </trkpt>
      <trkpt lat="47.29672" lon="-1.54876">
        <ele>27.5</ele>
        <time>2020-09-27T11:41:34.000Z</time>
      </trkpt>
      <trkpt lat="47.29672" lon="-1.54876">
        <ele>27.5</ele>
        <time>2020-09-27T11:41:35.000Z</time>
      </trkpt>
      <trkpt lat="47.29672" lon="-1.54876">
        <ele>27.5</ele>
        <time>2020-09-27T11:41:36.000Z</time>
      </trkpt>
      <trkpt lat="47.29672" lon="-1.54876">
        <ele>27.5</ele>
        <time>2020-09-27T11:41:37.000Z</time>
      </trkpt>
      <trkpt lat="47.29672" lon="-1.54876">
        <ele>27.5</ele>
        <time>2020-09-27T11:41:38.000Z</time>
      </trkpt>
      <trkpt lat="47.29672" lon="-1.54876">
        <ele>27.5</ele>
        <time>2020-09-27T11:41:39.000Z</time>
      </trkpt>
      <trkpt lat="47.29672" lon="-1.54876">
        <ele>27.5</ele>
        <time>2020-09-27T11:41:40.000Z</time>
      </trkpt>
      <trkpt lat="47.29672" lon="-1.54876">
        <ele>27.5</ele>
        <time>2020-09-27T11:41:41.000Z</time>
      </trkpt>
      <trkpt lat="47.29672" lon="-1.54876">
        <ele>27.5</ele>
        <time>2020-09-27T11:41:42.000Z</time>
      </trkpt>
      <trkpt lat="47.29672" lon="-1.54876">
        <ele>27.5</ele>
        <time>2020-09-27T11:41:43.000Z</time>
      </trkpt>
      <trkpt lat="47.29672" lon="-1.54876">
        <ele>27.5</ele>
        <time>2020-09-27T11:41:44.000Z</time>
      </trkpt>
      <trkpt lat="47.29672" lon="-1.54876">
        <ele>27.5</ele>
        <time>2020-09-27T11:41:45.000Z</time>
      </trkpt>
      <trkpt lat="47.29672" lon="-1.54876">
        <ele>27.5</ele>
        <time>2020-09-27T11:41:46.000Z</time>
      </trkpt>
      <trkpt lat="47.29672" lon="-1.54876">
        <ele>27.5</ele>
        <time>2020-09-27T11:41:47.000Z</time>
      </trkpt>
      <trkpt lat="47.29672" lon="-1.54876">
        <ele>27.5</ele>
        <time>2020-09-27T11:41:48.000Z</time>
      </trkpt>
      <trkpt lat="47.29672" lon="-1.54876">
        <ele>27.5</ele>
        <time>2020-09-27T11:41:49.000Z</time>
      </trkpt>
      <trkpt lat="47.29672" lon="-1.54876">
        <ele>27.5</ele>
        <time>2020-09-27T11:41:50.000Z</time>
      </trkpt>
      <trkpt lat="47.29672" lon="-1.54876">
        <ele>27.5</ele>
        <time>2020-09-27T11:41:51.000Z</time>
      </trkpt>
      <trkpt lat="47.29672" lon="-1.54876">
        <ele>27.5</ele>
        <time>2020-09-27T11:41:52.000Z</time>
      </trkpt>
      <trkpt lat="47.29672" lon="-1.54876">
        <ele>27.5</ele>
        <time>2020-09-27T11:41:53.000Z</time>
      </trkpt>
      <trkpt lat="47.29672" lon="-1.54876">
        <ele>27.5</ele>
        <time>2020-09-27T11:41:54.000Z</time>
      </trkpt>
      <trkpt lat="47.29672" lon="-1.54876">
        <ele>27.5</ele>
        <time>2020-09-27T11:41:55.000Z</time>
      </trkpt>
      <trkpt lat="47.29672" lon="-1.54876">
        <ele>27.5</ele>
        <time>2020-09-27T11:41:56.000Z</time>
      </trkpt>
      <trkpt lat="47.29672" lon="-1.54876">
        <ele>27.5</ele>
        <time>2020-09-27T11:41:57.000Z</time>
      </trkpt>
      <trkpt lat="47.29672" lon="-1.54876">
        <ele>27.5</ele>
        <time>2020-09-27T11:41:58.000Z</time>
      </trkpt>
      <trkpt lat="47.29672" lon="-1.54876">
        <ele>27.5</ele>
        <time>2020-09-27T11:41:59.000Z</time>
      </trkpt>
      <trkpt lat="47.29672" lon="-1.54876">
        <ele>27.5</ele>
        <time>2020-09-27T11:42:00.000Z</time>
      </trkpt>
      <trkpt lat="47.29672" lon="-1.54876">
        <ele>27.5</ele>
        <time>2020-09-27T11:42:01.000Z</time>
      </trkpt>
      <trkpt lat="47.29672" lon="-1.54876">
        <ele>27.5</ele>
        <time>2020-09-27T11:42:02.000Z</time>
      </trkpt>
      <trkpt lat="47.29672" lon="-1.54876">
        <ele>27.5</ele>
        <time>2020-09-27T11:42:03.000Z</time>
      </trkpt>
      <trkpt lat="47.29672" lon="-1.54876">
        <ele>27.5</ele>
        <time>2020-09-27T11:42:04.000Z</time>
      </trkpt>
      <trkpt lat="47.29672" lon="-1.54876">
        <ele>27.5</ele>
        <time>2020-09-27T11:42:05.000Z</time>
      </trkpt>
      <trkpt lat="47.29672" lon="-1.54876">
        <ele>27.5</ele>
        <time>2020-09-27T11:42:06.000Z</time>
      </trkpt>
      <trkpt lat="47.29672" lon="-1.54876">
        <ele>27.5</ele>
        <time>2020-09-27T11:42:07.000Z</time>
      </trkpt>
      <trkpt lat="47.29672" lon="-1.54876">
        <ele>27.5</ele>
        <time>2020-09-27T11:42:08.000Z</time>
      </trkpt>
      <trkpt lat="47.29672" lon="-1.54876">
        <ele>27.5</ele>
        <time>2020-09-27T11:42:09.000Z</time>
      </trkpt>
      <trkpt lat="47.29672" lon="-1.54876">
        <ele>27.5</ele>
        <time>2020-09-27T11:42:10.000Z</time>
      </trkpt>
    </trkseg>
  </trk>
</gpx>